<?xml version='1.0' encoding='UTF-8'?><gpx version="1.1" creator="JPX - https://github.com/jenetics/jpx" xmlns="http://www.topografix.com/GPX/1/1"><trk><trkseg><trkpt lat="38.10574623759504" lon="15.641621135729514"><ele>22.0</ele><time>2026-04-25T06:26:22.999Z</time></trkpt><trkpt lat="38.10570276500763" lon="15.641683421566164"><ele>21.0</ele><time>2026-04-25T06:26:27.999Z</time></trkpt><trkpt lat="38.10570276500763" lon="15.641683421566164"><ele>21.0</ele><time>2026-04-25T06:26:27.999Z</time></trkpt><trkpt lat="38.10570276500763" lon="15.641683421566164"><ele>21.0</ele><time>2026-04-25T06:26:27.999Z</time></trkpt><trkpt lat="38.10570276500763" lon="15.641683421566164"><ele>21.0</ele><time>2026-04-25T06:26:27.999Z</time></trkpt><trkpt lat="38.10570276500763" lon="15.641683421566164"><ele>21.0</ele><time>2026-04-25T06:26:27.999Z</time></trkpt><trkpt lat="38.10570276500763" lon="15.641683421566164"><ele>21.0</ele><time>2026-04-25T06:26:27.999Z</time></trkpt><trkpt lat="38.10570276500763" lon="15.641683421566164"><ele>21.0</ele><time>2026-04-25T06:26:27.999Z</time></trkpt><trkpt lat="38.10570276500763" lon="15.641683421566164"><ele>21.0</ele><time>2026-04-25T06:26:27.999Z</time></trkpt><trkpt lat="38.10570276500763" lon="15.641683421566164"><ele>21.0</ele><time>2026-04-25T06:26:27.999Z</time></trkpt><trkpt lat="38.10570276500763" lon="15.641683421566164"><ele>21.0</ele><time>2026-04-25T06:26:27.999Z</time></trkpt><trkpt lat="38.10570276500763" lon="15.641683421566164"><ele>21.0</ele><time>2026-04-25T06:26:27.999Z</time></trkpt><trkpt lat="38.10570276500763" lon="15.641683421566164"><ele>21.0</ele><time>2026-04-25T06:26:27.999Z</time></trkpt><trkpt lat="38.10570276500763" lon="15.641683421566164"><ele>21.0</ele><time>2026-04-25T06:26:27.999Z</time></trkpt><trkpt lat="38.10570276500763" lon="15.641683421566164"><ele>21.0</ele><time>2026-04-25T06:26:27.999Z</time></trkpt><trkpt lat="38.10570276500763" lon="15.641683421566164"><ele>21.0</ele><time>2026-04-25T06:26:27.999Z</time></trkpt><trkpt lat="38.10570276500763" lon="15.641683421566164"><ele>21.0</ele><time>2026-04-25T06:26:27.999Z</time></trkpt><trkpt lat="38.10570276500763" lon="15.641683421566164"><ele>21.0</ele><time>2026-04-25T06:26:27.999Z</time></trkpt><trkpt lat="38.10570276500763" lon="15.641683421566164"><ele>21.0</ele><time>2026-04-25T06:26:27.999Z</time></trkpt><trkpt lat="38.10570276500763" lon="15.641683421566164"><ele>21.0</ele><time>2026-04-25T06:26:27.999Z</time></trkpt><trkpt lat="38.10570276500763" lon="15.641683421566164"><ele>21.0</ele><time>2026-04-25T06:26:27.999Z</time></trkpt><trkpt lat="38.10570276500763" lon="15.641683421566164"><ele>21.0</ele><time>2026-04-25T06:26:27.999Z</time></trkpt><trkpt lat="38.10570276500763" lon="15.641683421566164"><ele>21.0</ele><time>2026-04-25T06:26:27.999Z</time></trkpt><trkpt lat="38.10570276500763" lon="15.641683421566164"><ele>21.0</ele><time>2026-04-25T06:26:27.999Z</time></trkpt><trkpt lat="38.10570276500763" lon="15.641683421566164"><ele>21.0</ele><time>2026-04-25T06:26:27.999Z</time></trkpt><trkpt lat="38.10570276500763" lon="15.641683421566164"><ele>21.0</ele><time>2026-04-25T06:26:27.999Z</time></trkpt><trkpt lat="38.10570276500763" lon="15.641683421566164"><ele>21.0</ele><time>2026-04-25T06:26:27.999Z</time></trkpt><trkpt lat="38.10570276500763" lon="15.641683421566164"><ele>21.0</ele><time>2026-04-25T06:26:27.999Z</time></trkpt><trkpt lat="38.10570276500763" lon="15.641683421566164"><ele>21.0</ele><time>2026-04-25T06:26:27.999Z</time></trkpt><trkpt lat="38.10570276500763" lon="15.641683421566164"><ele>21.0</ele><time>2026-04-25T06:26:27.999Z</time></trkpt><trkpt lat="38.10570276500763" lon="15.641683421566164"><ele>21.0</ele><time>2026-04-25T06:26:27.999Z</time></trkpt><trkpt lat="38.10570276500763" lon="15.641683421566164"><ele>21.0</ele><time>2026-04-25T06:26:27.999Z</time></trkpt><trkpt lat="38.10570276500763" lon="15.641683421566164"><ele>21.0</ele><time>2026-04-25T06:26:27.999Z</time></trkpt><trkpt lat="38.10570276500763" lon="15.641683421566164"><ele>21.0</ele><time>2026-04-25T06:26:27.999Z</time></trkpt><trkpt lat="38.10570276500763" lon="15.641683421566164"><ele>21.0</ele><time>2026-04-25T06:26:27.999Z</time></trkpt><trkpt lat="38.10570276500763" lon="15.641683421566164"><ele>21.0</ele><time>2026-04-25T06:26:27.999Z</time></trkpt><trkpt lat="38.10570276500763" lon="15.641683421566164"><ele>21.0</ele><time>2026-04-25T06:26:27.999Z</time></trkpt><trkpt lat="38.10570276500763" lon="15.641683421566164"><ele>21.0</ele><time>2026-04-25T06:26:27.999Z</time></trkpt><trkpt lat="38.10570276500763" lon="15.641683421566164"><ele>21.0</ele><time>2026-04-25T06:26:27.999Z</time></trkpt><trkpt lat="38.10570276500763" lon="15.641683421566164"><ele>21.0</ele><time>2026-04-25T06:26:27.999Z</time></trkpt><trkpt lat="38.10570276500763" lon="15.641683421566164"><ele>21.0</ele><time>2026-04-25T06:26:27.999Z</time></trkpt><trkpt lat="38.10570276500763" lon="15.641683421566164"><ele>21.0</ele><time>2026-04-25T06:26:27.999Z</time></trkpt><trkpt lat="38.10570276500763" lon="15.641683421566164"><ele>21.0</ele><time>2026-04-25T06:26:27.999Z</time></trkpt><trkpt lat="38.10570276500763" lon="15.641683421566164"><ele>21.0</ele><time>2026-04-25T06:26:27.999Z</time></trkpt><trkpt lat="38.10570276500763" lon="15.641683421566164"><ele>21.0</ele><time>2026-04-25T06:26:27.999Z</time></trkpt><trkpt lat="38.10570276500763" lon="15.641683421566164"><ele>21.0</ele><time>2026-04-25T06:26:27.999Z</time></trkpt><trkpt lat="38.10570276500763" lon="15.641683421566164"><ele>21.0</ele><time>2026-04-25T06:26:27.999Z</time></trkpt></trkseg><trkseg><trkpt lat="38.10585835558904" lon="15.641492054061755"><ele>22.0</ele><time>2026-04-25T07:12:18Z</time></trkpt><trkpt lat="38.105906992081394" lon="15.641402661200472"><ele>22.0</ele><time>2026-04-25T07:12:29Z</time></trkpt><trkpt lat="38.1059555445056" lon="15.641319977561613"><ele>22.0</ele><time>2026-04-25T07:12:31Z</time></trkpt><trkpt lat="38.10599680809593" lon="15.641243582948547"><ele>22.0</ele><time>2026-04-25T07:12:33Z</time></trkpt><trkpt lat="38.10604852769754" lon="15.641193086501172"><ele>22.0</ele><time>2026-04-25T07:12:36Z</time></trkpt><trkpt lat="38.10601629724149" lon="15.641324354018694"><ele>22.0</ele><time>2026-04-25T07:12:38Z</time></trkpt><trkpt lat="38.10595609779265" lon="15.641462069236692"><ele>22.0</ele><time>2026-04-25T07:12:40Z</time></trkpt><trkpt lat="38.105925173002205" lon="15.641556387036339"><ele>22.0</ele><time>2026-04-25T07:12:41Z</time></trkpt><trkpt lat="38.105879944493786" lon="15.641673752184198"><ele>22.0</ele><time>2026-04-25T07:12:42Z</time></trkpt><trkpt lat="38.105799029371056" lon="15.641834206489273"><ele>22.0</ele><time>2026-04-25T07:12:43Z</time></trkpt><trkpt lat="38.106499814749" lon="15.640482549418154"><ele>21.6</ele><time>2026-04-25T07:12:44Z</time></trkpt><trkpt lat="38.10657611363211" lon="15.64035322885123"><ele>21.200000000000003</ele><time>2026-04-25T07:12:46Z</time></trkpt><trkpt lat="38.10663062675499" lon="15.640279422041884"><ele>20.8</ele><time>2026-04-25T07:12:47Z</time></trkpt><trkpt lat="38.10667085052558" lon="15.640202193677077"><ele>20.4</ele><time>2026-04-25T07:12:48Z</time></trkpt><trkpt lat="38.10672108070659" lon="15.640116759397504"><ele>20.0</ele><time>2026-04-25T07:12:50Z</time></trkpt><trkpt lat="38.106771556376614" lon="15.640021056521434"><ele>19.0</ele><time>2026-04-25T07:12:51Z</time></trkpt><trkpt lat="38.10687669475318" lon="15.639842447034523"><ele>18.0</ele><time>2026-04-25T07:12:52Z</time></trkpt><trkpt lat="38.10695862823691" lon="15.639720710573112"><ele>17.0</ele><time>2026-04-25T07:12:53Z</time></trkpt><trkpt lat="38.1069970286784" lon="15.63965142202649"><ele>16.0</ele><time>2026-04-25T07:12:54Z</time></trkpt><trkpt lat="38.10703094599144" lon="15.639552346675497"><ele>15.333333333333332</ele><time>2026-04-25T07:12:59Z</time></trkpt><trkpt lat="38.10687781376292" lon="15.639363321990324"><ele>14.666666666666668</ele><time>2026-04-25T07:13:01Z</time></trkpt><trkpt lat="38.106742133113805" lon="15.639219176405318"><ele>14.0</ele><time>2026-04-25T07:13:02Z</time></trkpt><trkpt lat="38.106564951360795" lon="15.639057190214086"><ele>14.0</ele><time>2026-04-25T07:13:03Z</time></trkpt><trkpt lat="38.10642614928748" lon="15.63893953088943"><ele>14.0</ele><time>2026-04-25T07:13:04Z</time></trkpt><trkpt lat="38.106301912275875" lon="15.638835322067495"><ele>14.0</ele><time>2026-04-25T07:13:05Z</time></trkpt><trkpt lat="38.10617950332648" lon="15.638737470826179"><ele>14.0</ele><time>2026-04-25T07:13:06Z</time></trkpt><trkpt lat="38.10606760226689" lon="15.638653444610076"><ele>14.0</ele><time>2026-04-25T07:13:07Z</time></trkpt><trkpt lat="38.10594633886139" lon="15.638566713556521"><ele>14.0</ele><time>2026-04-25T07:13:08Z</time></trkpt><trkpt lat="38.10580651749286" lon="15.638469985866447"><ele>14.0</ele><time>2026-04-25T07:13:09Z</time></trkpt><trkpt lat="38.105656169420925" lon="15.638371481247495"><ele>13.0</ele><time>2026-04-25T07:13:10Z</time></trkpt><trkpt lat="38.10549716528245" lon="15.638267014448072"><ele>12.0</ele><time>2026-04-25T07:13:11Z</time></trkpt><trkpt lat="38.105316042326415" lon="15.638139418362137"><ele>11.0</ele><time>2026-04-25T07:13:12Z</time></trkpt><trkpt lat="38.1051770743513" lon="15.638034774143145"><ele>11.0</ele><time>2026-04-25T07:13:13Z</time></trkpt><trkpt lat="38.10505172872885" lon="15.637934916424589"><ele>11.0</ele><time>2026-04-25T07:13:14Z</time></trkpt><trkpt lat="38.10494014653284" lon="15.63786054175806"><ele>11.0</ele><time>2026-04-25T07:13:15Z</time></trkpt><trkpt lat="38.10486821117251" lon="15.637770103473976"><ele>11.0</ele><time>2026-04-25T07:13:16Z</time></trkpt><trkpt lat="38.10478073098923" lon="15.637689557090724"><ele>11.8</ele><time>2026-04-25T07:13:17Z</time></trkpt><trkpt lat="38.10470341186245" lon="15.637625162719617"><ele>12.600000000000001</ele><time>2026-04-25T07:13:18Z</time></trkpt><trkpt lat="38.104633413487946" lon="15.637547929454241"><ele>13.4</ele><time>2026-04-25T07:13:19Z</time></trkpt><trkpt lat="38.10454214969635" lon="15.637494678269752"><ele>14.2</ele><time>2026-04-25T07:13:20Z</time></trkpt><trkpt lat="38.10446121097954" lon="15.637444051750256"><ele>15.0</ele><time>2026-04-25T07:13:21Z</time></trkpt><trkpt lat="38.104380314825875" lon="15.637382044745713"><ele>15.0</ele><time>2026-04-25T07:13:22Z</time></trkpt><trkpt lat="38.10429664565885" lon="15.637293419867744"><ele>15.0</ele><time>2026-04-25T07:13:23Z</time></trkpt><trkpt lat="38.104221471892956" lon="15.63720527973651"><ele>15.0</ele><time>2026-04-25T07:13:24Z</time></trkpt><trkpt lat="38.104158220622715" lon="15.637131244031195"><ele>15.0</ele><time>2026-04-25T07:13:25Z</time></trkpt><trkpt lat="38.10409084319649" lon="15.637059885820724"><ele>15.0</ele><time>2026-04-25T07:13:25.998Z</time></trkpt><trkpt lat="38.104023902844446" lon="15.636991247664993"><ele>14.2</ele><time>2026-04-25T07:13:26.998Z</time></trkpt><trkpt lat="38.10396532478453" lon="15.636958738194659"><ele>13.4</ele><time>2026-04-25T07:13:27.998Z</time></trkpt><trkpt lat="38.103890796959604" lon="15.6368801516604"><ele>12.600000000000001</ele><time>2026-04-25T07:13:29.998Z</time></trkpt><trkpt lat="38.10384153893578" lon="15.636819536967154"><ele>11.8</ele><time>2026-04-25T07:13:33.998Z</time></trkpt><trkpt lat="38.10376968542583" lon="15.636760723329717"><ele>11.0</ele><time>2026-04-25T07:13:36.998Z</time></trkpt><trkpt lat="38.10367440323975" lon="15.63689115384823"><ele>11.0</ele><time>2026-04-25T07:13:38.998Z</time></trkpt><trkpt lat="38.103595820627326" lon="15.636957646941582"><ele>11.0</ele><time>2026-04-25T07:13:40.999Z</time></trkpt><trkpt lat="38.10352541630411" lon="15.637066277113185"><ele>11.0</ele><time>2026-04-25T07:13:42.999Z</time></trkpt><trkpt lat="38.103480931826766" lon="15.63712360902731"><ele>11.0</ele><time>2026-04-25T07:13:44.999Z</time></trkpt><trkpt lat="38.10342644063831" lon="15.637185174565452"><ele>11.0</ele><time>2026-04-25T07:13:46.999Z</time></trkpt><trkpt lat="38.10334791445482" lon="15.637285346033623"><ele>12.0</ele><time>2026-04-25T07:13:48.999Z</time></trkpt><trkpt lat="38.10327887152806" lon="15.637382066632448"><ele>13.0</ele><time>2026-04-25T07:13:51.999Z</time></trkpt><trkpt lat="38.103223559531294" lon="15.637453888265036"><ele>14.0</ele><time>2026-04-25T07:13:52.999Z</time></trkpt><trkpt lat="38.10316944809906" lon="15.637525662475614"><ele>15.0</ele><time>2026-04-25T07:13:53.999Z</time></trkpt><trkpt lat="38.103112198081014" lon="15.6376065762086"><ele>16.0</ele><time>2026-04-25T07:13:55.999Z</time></trkpt><trkpt lat="38.10305438890222" lon="15.637661731535438"><ele>17.0</ele><time>2026-04-25T07:13:58.999Z</time></trkpt><trkpt lat="38.10295492277933" lon="15.637544583269284"><ele>17.4</ele><time>2026-04-25T07:13:59.999Z</time></trkpt><trkpt lat="38.10288364565849" lon="15.637465018718569"><ele>17.799999999999997</ele><time>2026-04-25T07:14:00.999Z</time></trkpt><trkpt lat="38.10282297760081" lon="15.637385834149345"><ele>18.2</ele><time>2026-04-25T07:14:01.999Z</time></trkpt><trkpt lat="38.10274906851474" lon="15.637312511384835"><ele>18.599999999999998</ele><time>2026-04-25T07:14:02.999Z</time></trkpt><trkpt lat="38.10267968451737" lon="15.637230138452269"><ele>19.0</ele><time>2026-04-25T07:14:03.999Z</time></trkpt><trkpt lat="38.102609688495356" lon="15.637150801239503"><ele>19.0</ele><time>2026-04-25T07:14:04.999Z</time></trkpt><trkpt lat="38.10254139413263" lon="15.637065661370508"><ele>19.0</ele><time>2026-04-25T07:14:05.999Z</time></trkpt><trkpt lat="38.10246839666471" lon="15.636983006408402"><ele>19.0</ele><time>2026-04-25T07:14:06.999Z</time></trkpt><trkpt lat="38.102393040742584" lon="15.636867046338212"><ele>19.0</ele><time>2026-04-25T07:14:07.999Z</time></trkpt><trkpt lat="38.10232168438031" lon="15.636758490706125"><ele>19.0</ele><time>2026-04-25T07:14:08.999Z</time></trkpt><trkpt lat="38.102262289643065" lon="15.636653940031064"><ele>19.4</ele><time>2026-04-25T07:14:09.999Z</time></trkpt><trkpt lat="38.102170303832544" lon="15.636608873748647"><ele>19.799999999999997</ele><time>2026-04-25T07:14:10.999Z</time></trkpt><trkpt lat="38.10208870335975" lon="15.636531871752306"><ele>20.200000000000003</ele><time>2026-04-25T07:14:11.999Z</time></trkpt><trkpt lat="38.10201470688348" lon="15.636433443868194"><ele>20.6</ele><time>2026-04-25T07:14:12.999Z</time></trkpt><trkpt lat="38.101938963957934" lon="15.636337036060109"><ele>21.0</ele><time>2026-04-25T07:14:13.999Z</time></trkpt><trkpt lat="38.10187891630765" lon="15.636259452788833"><ele>21.0</ele><time>2026-04-25T07:14:14.999Z</time></trkpt><trkpt lat="38.101832982668846" lon="15.636197684568263"><ele>21.0</ele><time>2026-04-25T07:14:15.999Z</time></trkpt><trkpt lat="38.10174220690445" lon="15.636101976247714"><ele>21.0</ele><time>2026-04-25T07:14:17.999Z</time></trkpt><trkpt lat="38.101646092679715" lon="15.635994338856165"><ele>21.0</ele><time>2026-04-25T07:14:19.999Z</time></trkpt><trkpt lat="38.10157793433743" lon="15.635921484171877"><ele>21.0</ele><time>2026-04-25T07:14:21.999Z</time></trkpt><trkpt lat="38.101520491151355" lon="15.635847418668844"><ele>19.666666666666668</ele><time>2026-04-25T07:14:23.999Z</time></trkpt><trkpt lat="38.10147657754429" lon="15.63571212909474"><ele>18.333333333333332</ele><time>2026-04-25T07:14:25.999Z</time></trkpt><trkpt lat="38.10147002672216" lon="15.635617055311933"><ele>17.0</ele><time>2026-04-25T07:14:26.999Z</time></trkpt><trkpt lat="38.1014918656204" lon="15.635516585483817"><ele>15.666666666666666</ele><time>2026-04-25T07:14:27.999Z</time></trkpt><trkpt lat="38.10152869400404" lon="15.635422489688548"><ele>14.333333333333332</ele><time>2026-04-25T07:14:28.999Z</time></trkpt><trkpt lat="38.10155840006859" lon="15.635349526805529"><ele>13.0</ele><time>2026-04-25T07:14:29.999Z</time></trkpt><trkpt lat="38.10159962594918" lon="15.635220958881373"><ele>12.999999999999998</ele><time>2026-04-25T07:14:31.999Z</time></trkpt><trkpt lat="38.1016260675661" lon="15.63511439189722"><ele>13.0</ele><time>2026-04-25T07:14:33.999Z</time></trkpt><trkpt lat="38.10164873983303" lon="15.635018285878349"><ele>13.0</ele><time>2026-04-25T07:14:36.999Z</time></trkpt><trkpt lat="38.10166320013574" lon="15.634932201931202"><ele>13.0</ele><time>2026-04-25T07:14:40Z</time></trkpt><trkpt lat="38.10161778375249" lon="15.634871215939892"><ele>12.999999999999998</ele><time>2026-04-25T07:14:42Z</time></trkpt><trkpt lat="38.101512286379254" lon="15.63492658950349"><ele>13.0</ele><time>2026-04-25T07:14:44Z</time></trkpt><trkpt lat="38.10141123220439" lon="15.63502526089976"><ele>12.999999999999998</ele><time>2026-04-25T07:14:46Z</time></trkpt><trkpt lat="38.10134598176098" lon="15.635046608267947"><ele>13.0</ele><time>2026-04-25T07:14:47Z</time></trkpt><trkpt lat="38.101315393163034" lon="15.635168642149525"><ele>13.0</ele><time>2026-04-25T07:14:48Z</time></trkpt><trkpt lat="38.101287456812955" lon="15.635276483002407"><ele>13.0</ele><time>2026-04-25T07:14:49Z</time></trkpt><trkpt lat="38.10126548723955" lon="15.635377938571315"><ele>12.999999999999998</ele><time>2026-04-25T07:14:50Z</time></trkpt><trkpt lat="38.10125135278647" lon="15.635464651096035"><ele>13.0</ele><time>2026-04-25T07:14:51Z</time></trkpt><trkpt lat="38.10120747464898" lon="15.63562385921975"><ele>13.0</ele><time>2026-04-25T07:14:53Z</time></trkpt><trkpt lat="38.10117953838451" lon="15.635720617390453"><ele>13.0</ele><time>2026-04-25T07:14:54Z</time></trkpt><trkpt lat="38.10116921571771" lon="15.635842115974446"><ele>13.0</ele><time>2026-04-25T07:14:55Z</time></trkpt><trkpt lat="38.10114259430288" lon="15.636003359627217"><ele>13.0</ele><time>2026-04-25T07:14:56Z</time></trkpt><trkpt lat="38.10110492244804" lon="15.636249050031664"><ele>14.666666666666666</ele><time>2026-04-25T07:14:57Z</time></trkpt><trkpt lat="38.101082485831995" lon="15.636510180319892"><ele>16.333333333333332</ele><time>2026-04-25T07:14:58Z</time></trkpt><trkpt lat="38.101067556518274" lon="15.636728295193375"><ele>18.0</ele><time>2026-04-25T07:14:59Z</time></trkpt><trkpt lat="38.1010563752724" lon="15.636896151221455"><ele>17.75</ele><time>2026-04-25T07:15:00Z</time></trkpt><trkpt lat="38.10104167155127" lon="15.637055510956415"><ele>17.5</ele><time>2026-04-25T07:15:01Z</time></trkpt><trkpt lat="38.10102782175227" lon="15.637203121710508"><ele>17.25</ele><time>2026-04-25T07:15:02Z</time></trkpt><trkpt lat="38.10101635205584" lon="15.637347754289816"><ele>17.0</ele><time>2026-04-25T07:15:03Z</time></trkpt><trkpt lat="38.10100972504597" lon="15.63749154273371"><ele>17.0</ele><time>2026-04-25T07:15:04Z</time></trkpt><trkpt lat="38.101005077552145" lon="15.63763338643947"><ele>17.0</ele><time>2026-04-25T07:15:05Z</time></trkpt><trkpt lat="38.100998322474" lon="15.63777674532823"><ele>17.0</ele><time>2026-04-25T07:15:06Z</time></trkpt><trkpt lat="38.10099431685163" lon="15.637920766582218"><ele>17.0</ele><time>2026-04-25T07:15:07Z</time></trkpt><trkpt lat="38.100989196047" lon="15.638069835842895"><ele>16.8</ele><time>2026-04-25T07:15:08Z</time></trkpt><trkpt lat="38.100987547975706" lon="15.63821467468052"><ele>16.6</ele><time>2026-04-25T07:15:09Z</time></trkpt><trkpt lat="38.100987577893946" lon="15.63834609626677"><ele>16.400000000000002</ele><time>2026-04-25T07:15:10Z</time></trkpt><trkpt lat="38.10099416310652" lon="15.638474432819296"><ele>16.2</ele><time>2026-04-25T07:15:11Z</time></trkpt><trkpt lat="38.10100200030318" lon="15.638594855278459"><ele>16.0</ele><time>2026-04-25T07:15:12Z</time></trkpt><trkpt lat="38.10101207460056" lon="15.638694957401885"><ele>16.333333333333332</ele><time>2026-04-25T07:15:13Z</time></trkpt><trkpt lat="38.10101887115593" lon="15.638777461103897"><ele>16.666666666666664</ele><time>2026-04-25T07:15:14Z</time></trkpt><trkpt lat="38.10102886231727" lon="15.638858910648509"><ele>17.0</ele><time>2026-04-25T07:15:15Z</time></trkpt><trkpt lat="38.101040184726536" lon="15.63894273125417"><ele>17.333333333333332</ele><time>2026-04-25T07:15:16Z</time></trkpt><trkpt lat="38.10106133506093" lon="15.639073469848887"><ele>17.666666666666668</ele><time>2026-04-25T07:15:18Z</time></trkpt><trkpt lat="38.101072409021484" lon="15.639166378857789"><ele>18.0</ele><time>2026-04-25T07:15:21Z</time></trkpt><trkpt lat="38.101054517715966" lon="15.63927223454138"><ele>18.0</ele><time>2026-04-25T07:15:53.998Z</time></trkpt><trkpt lat="38.10107679523795" lon="15.639415857657946"><ele>18.0</ele><time>2026-04-25T07:15:54.998Z</time></trkpt><trkpt lat="38.10108780847631" lon="15.639568825555797"><ele>18.0</ele><time>2026-04-25T07:15:55.998Z</time></trkpt><trkpt lat="38.10109892855158" lon="15.639735823878167"><ele>18.0</ele><time>2026-04-25T07:15:56.998Z</time></trkpt><trkpt lat="38.10111238827632" lon="15.639917577790078"><ele>18.5</ele><time>2026-04-25T07:15:57.998Z</time></trkpt><trkpt lat="38.101130601963504" lon="15.640054773357052"><ele>19.0</ele><time>2026-04-25T07:15:58.998Z</time></trkpt><trkpt lat="38.10115060365398" lon="15.640224673697611"><ele>19.5</ele><time>2026-04-25T07:15:59.999Z</time></trkpt><trkpt lat="38.10116815466611" lon="15.64038619423961"><ele>20.0</ele><time>2026-04-25T07:16:00.999Z</time></trkpt><trkpt lat="38.101187410949876" lon="15.640558068949705"><ele>20.25</ele><time>2026-04-25T07:16:01.999Z</time></trkpt><trkpt lat="38.10120697586055" lon="15.640741518290266"><ele>20.5</ele><time>2026-04-25T07:16:02.999Z</time></trkpt><trkpt lat="38.101226028358425" lon="15.64091783544914"><ele>20.75</ele><time>2026-04-25T07:16:03.999Z</time></trkpt><trkpt lat="38.10124067200131" lon="15.641095815914019"><ele>21.0</ele><time>2026-04-25T07:16:04.999Z</time></trkpt><trkpt lat="38.101256009291866" lon="15.641268501922115"><ele>22.0</ele><time>2026-04-25T07:16:05.999Z</time></trkpt><trkpt lat="38.10127152426537" lon="15.6414430998571"><ele>23.0</ele><time>2026-04-25T07:16:06.999Z</time></trkpt><trkpt lat="38.10128463239162" lon="15.641603535323789"><ele>24.0</ele><time>2026-04-25T07:16:07.999Z</time></trkpt><trkpt lat="38.10129756481254" lon="15.641738648329364"><ele>25.0</ele><time>2026-04-25T07:16:08.999Z</time></trkpt><trkpt lat="38.1013059324373" lon="15.641850582145905"><ele>26.5</ele><time>2026-04-25T07:16:09.999Z</time></trkpt><trkpt lat="38.10131145074383" lon="15.641965840769462"><ele>28.0</ele><time>2026-04-25T07:16:10.999Z</time></trkpt><trkpt lat="38.101325726417386" lon="15.642106329343681"><ele>29.5</ele><time>2026-04-25T07:16:11.999Z</time></trkpt><trkpt lat="38.101352599065976" lon="15.642296872844254"><ele>31.0</ele><time>2026-04-25T07:16:12.999Z</time></trkpt><trkpt lat="38.101379269525246" lon="15.642544564842618"><ele>32.333333333333336</ele><time>2026-04-25T07:16:13.999Z</time></trkpt><trkpt lat="38.10140653070656" lon="15.642815327791345"><ele>33.666666666666664</ele><time>2026-04-25T07:16:14.999Z</time></trkpt><trkpt lat="38.10142833926819" lon="15.643068582785178"><ele>35.0</ele><time>2026-04-25T07:16:15.999Z</time></trkpt><trkpt lat="38.10145056263912" lon="15.64331781863933"><ele>35.0</ele><time>2026-04-25T07:16:16.999Z</time></trkpt><trkpt lat="38.10146944674242" lon="15.643555342506176"><ele>35.0</ele><time>2026-04-25T07:16:17.999Z</time></trkpt><trkpt lat="38.10148967207743" lon="15.643784905567864"><ele>35.0</ele><time>2026-04-25T07:16:18.999Z</time></trkpt><trkpt lat="38.101516383915985" lon="15.64401843399764"><ele>35.33333333333333</ele><time>2026-04-25T07:16:19.999Z</time></trkpt><trkpt lat="38.10153679669417" lon="15.644250710629668"><ele>35.666666666666664</ele><time>2026-04-25T07:16:20.999Z</time></trkpt><trkpt lat="38.10154817530462" lon="15.644485512886165"><ele>36.0</ele><time>2026-04-25T07:16:21.999Z</time></trkpt><trkpt lat="38.1015645404899" lon="15.644713767720662"><ele>35.0</ele><time>2026-04-25T07:16:22.999Z</time></trkpt><trkpt lat="38.10157653332543" lon="15.6449440753587"><ele>34.0</ele><time>2026-04-25T07:16:23.999Z</time></trkpt><trkpt lat="38.10157633169373" lon="15.645186010102504"><ele>33.0</ele><time>2026-04-25T07:16:24.999Z</time></trkpt><trkpt lat="38.101572976484036" lon="15.645422733817954"><ele>33.0</ele><time>2026-04-25T07:16:25.999Z</time></trkpt><trkpt lat="38.101568458374636" lon="15.645660098972012"><ele>33.0</ele><time>2026-04-25T07:16:26.999Z</time></trkpt><trkpt lat="38.101560307259106" lon="15.645887626543818"><ele>33.0</ele><time>2026-04-25T07:16:27.999Z</time></trkpt><trkpt lat="38.10155431835616" lon="15.646114195620903"><ele>34.666666666666664</ele><time>2026-04-25T07:16:28.999Z</time></trkpt><trkpt lat="38.101549587837006" lon="15.646336593461708"><ele>36.33333333333333</ele><time>2026-04-25T07:16:29.999Z</time></trkpt><trkpt lat="38.101542020988504" lon="15.646549808387785"><ele>38.0</ele><time>2026-04-25T07:16:30.999Z</time></trkpt><trkpt lat="38.101533897576466" lon="15.64674022284875"><ele>38.0</ele><time>2026-04-25T07:16:31.999Z</time></trkpt><trkpt lat="38.10152493632867" lon="15.646912285781115"><ele>38.0</ele><time>2026-04-25T07:16:32.999Z</time></trkpt><trkpt lat="38.10151351480131" lon="15.647073909931368"><ele>38.0</ele><time>2026-04-25T07:16:33.999Z</time></trkpt><trkpt lat="38.101498667810766" lon="15.647240188540467"><ele>38.0</ele><time>2026-04-25T07:16:34.999Z</time></trkpt><trkpt lat="38.10147688779578" lon="15.647409463726236"><ele>38.25</ele><time>2026-04-25T07:16:35.999Z</time></trkpt><trkpt lat="38.10145956721082" lon="15.647582338438813"><ele>38.5</ele><time>2026-04-25T07:16:36.999Z</time></trkpt><trkpt lat="38.10143729864415" lon="15.647751740358679"><ele>38.75</ele><time>2026-04-25T07:16:37.999Z</time></trkpt><trkpt lat="38.101407384058554" lon="15.64795100342206"><ele>39.0</ele><time>2026-04-25T07:16:38.999Z</time></trkpt><trkpt lat="38.10137800124422" lon="15.648177691936931"><ele>39.0</ele><time>2026-04-25T07:16:39.999Z</time></trkpt><trkpt lat="38.10137374118187" lon="15.64837046531753"><ele>39.0</ele><time>2026-04-25T07:16:41Z</time></trkpt><trkpt lat="38.10135517224625" lon="15.648583497280384"><ele>39.0</ele><time>2026-04-25T07:16:42Z</time></trkpt><trkpt lat="38.10133424809683" lon="15.648800045921002"><ele>40.0</ele><time>2026-04-25T07:16:43Z</time></trkpt><trkpt lat="38.10131432519401" lon="15.649017212673485"><ele>41.0</ele><time>2026-04-25T07:16:44Z</time></trkpt><trkpt lat="38.10129398658039" lon="15.649239535110148"><ele>42.0</ele><time>2026-04-25T07:16:45Z</time></trkpt><trkpt lat="38.10126773111703" lon="15.649476785044406"><ele>42.0</ele><time>2026-04-25T07:16:46Z</time></trkpt><trkpt lat="38.10124275882737" lon="15.64973139111607"><ele>42.0</ele><time>2026-04-25T07:16:47Z</time></trkpt><trkpt lat="38.101216560339644" lon="15.64999697982086"><ele>42.0</ele><time>2026-04-25T07:16:48Z</time></trkpt><trkpt lat="38.10118957309989" lon="15.65028551862437"><ele>41.5</ele><time>2026-04-25T07:16:49Z</time></trkpt><trkpt lat="38.101159480602895" lon="15.650584121592093"><ele>41.0</ele><time>2026-04-25T07:16:50Z</time></trkpt><trkpt lat="38.10112491686408" lon="15.650883870554773"><ele>42.0</ele><time>2026-04-25T07:16:51Z</time></trkpt><trkpt lat="38.101087464158695" lon="15.651172273102395"><ele>43.0</ele><time>2026-04-25T07:16:52Z</time></trkpt><trkpt lat="38.101048464871376" lon="15.651430621620325"><ele>44.0</ele><time>2026-04-25T07:16:53Z</time></trkpt><trkpt lat="38.10100416080069" lon="15.65168706910862"><ele>44.0</ele><time>2026-04-25T07:16:54Z</time></trkpt><trkpt lat="38.10095844784952" lon="15.651943318419306"><ele>44.0</ele><time>2026-04-25T07:16:55Z</time></trkpt><trkpt lat="38.10090596595986" lon="15.652213152053417"><ele>44.0</ele><time>2026-04-25T07:16:56Z</time></trkpt><trkpt lat="38.10086104474928" lon="15.652504388338958"><ele>44.5</ele><time>2026-04-25T07:16:57Z</time></trkpt><trkpt lat="38.1008115918413" lon="15.652788236318747"><ele>45.0</ele><time>2026-04-25T07:16:58Z</time></trkpt><trkpt lat="38.100763298281755" lon="15.653072726822314"><ele>45.333333333333336</ele><time>2026-04-25T07:16:59Z</time></trkpt><trkpt lat="38.10071337242899" lon="15.653338564128676"><ele>45.66666666666667</ele><time>2026-04-25T07:17:00Z</time></trkpt><trkpt lat="38.10066016332922" lon="15.653609520110743"><ele>46.0</ele><time>2026-04-25T07:17:01Z</time></trkpt><trkpt lat="38.10060676120625" lon="15.653870968440692"><ele>47.0</ele><time>2026-04-25T07:17:02Z</time></trkpt><trkpt lat="38.10055328157824" lon="15.65412898863654"><ele>48.0</ele><time>2026-04-25T07:17:03Z</time></trkpt><trkpt lat="38.100506975753625" lon="15.65438003997663"><ele>49.0</ele><time>2026-04-25T07:17:04Z</time></trkpt><trkpt lat="38.10045797961997" lon="15.654629083026222"><ele>50.0</ele><time>2026-04-25T07:17:05Z</time></trkpt><trkpt lat="38.10041082265523" lon="15.654874083403483"><ele>51.0</ele><time>2026-04-25T07:17:06Z</time></trkpt><trkpt lat="38.100361668155585" lon="15.655117297783065"><ele>52.0</ele><time>2026-04-25T07:17:07Z</time></trkpt><trkpt lat="38.10031163894386" lon="15.655358613364827"><ele>54.0</ele><time>2026-04-25T07:17:08Z</time></trkpt><trkpt lat="38.10026172270223" lon="15.655600010612588"><ele>56.0</ele><time>2026-04-25T07:17:09Z</time></trkpt><trkpt lat="38.10021472318282" lon="15.65583696211984"><ele>58.0</ele><time>2026-04-25T07:17:10Z</time></trkpt><trkpt lat="38.100167594420775" lon="15.656064060731227"><ele>59.33333333333333</ele><time>2026-04-25T07:17:11Z</time></trkpt><trkpt lat="38.10011897111421" lon="15.656279686156413"><ele>60.66666666666667</ele><time>2026-04-25T07:17:12Z</time></trkpt><trkpt lat="38.10007736462774" lon="15.65647996888478"><ele>62.0</ele><time>2026-04-25T07:17:13Z</time></trkpt><trkpt lat="38.10003886783876" lon="15.656673345833878"><ele>62.0</ele><time>2026-04-25T07:17:14Z</time></trkpt><trkpt lat="38.09999880173962" lon="15.656867429590319"><ele>62.0</ele><time>2026-04-25T07:17:15Z</time></trkpt><trkpt lat="38.09995771088312" lon="15.657063677170404"><ele>62.0</ele><time>2026-04-25T07:17:16Z</time></trkpt><trkpt lat="38.09991746418163" lon="15.65725369427519"><ele>61.5</ele><time>2026-04-25T07:17:17Z</time></trkpt><trkpt lat="38.09987613159301" lon="15.65743806912928"><ele>61.0</ele><time>2026-04-25T07:17:18Z</time></trkpt><trkpt lat="38.09984046871639" lon="15.657612589879452"><ele>60.5</ele><time>2026-04-25T07:17:19Z</time></trkpt><trkpt lat="38.09980580428087" lon="15.657793410928997"><ele>60.0</ele><time>2026-04-25T07:17:20Z</time></trkpt><trkpt lat="38.09978489275143" lon="15.657984265100215"><ele>62.0</ele><time>2026-04-25T07:17:21Z</time></trkpt><trkpt lat="38.09978915696338" lon="15.658183007377621"><ele>64.0</ele><time>2026-04-25T07:17:22Z</time></trkpt><trkpt lat="38.09981049814451" lon="15.658362272852898"><ele>66.0</ele><time>2026-04-25T07:17:23Z</time></trkpt><trkpt lat="38.099837184715156" lon="15.65852689541539"><ele>68.0</ele><time>2026-04-25T07:17:24Z</time></trkpt><trkpt lat="38.09985787270473" lon="15.658687325589026"><ele>69.75</ele><time>2026-04-25T07:17:25Z</time></trkpt><trkpt lat="38.09987150403008" lon="15.658839934323737"><ele>71.5</ele><time>2026-04-25T07:17:26Z</time></trkpt><trkpt lat="38.09987322915116" lon="15.659000996392255"><ele>73.25</ele><time>2026-04-25T07:17:27Z</time></trkpt><trkpt lat="38.09984839331274" lon="15.65916357231064"><ele>75.0</ele><time>2026-04-25T07:17:28Z</time></trkpt><trkpt lat="38.099780616613856" lon="15.659299801739241"><ele>75.0</ele><time>2026-04-25T07:17:29Z</time></trkpt><trkpt lat="38.09967936345584" lon="15.65939896544379"><ele>75.0</ele><time>2026-04-25T07:17:30Z</time></trkpt><trkpt lat="38.09955744401111" lon="15.65946668507457"><ele>75.0</ele><time>2026-04-25T07:17:31Z</time></trkpt><trkpt lat="38.09941397522477" lon="15.659492616400314"><ele>75.0</ele><time>2026-04-25T07:17:32Z</time></trkpt><trkpt lat="38.09924420842416" lon="15.659496441487173"><ele>79.0</ele><time>2026-04-25T07:17:33Z</time></trkpt><trkpt lat="38.099068572438824" lon="15.659508386533272"><ele>83.0</ele><time>2026-04-25T07:17:34Z</time></trkpt><trkpt lat="38.09887539922307" lon="15.659522694585585"><ele>87.0</ele><time>2026-04-25T07:17:35Z</time></trkpt><trkpt lat="38.09868751321594" lon="15.659525764065116"><ele>87.0</ele><time>2026-04-25T07:17:36Z</time></trkpt><trkpt lat="38.09850902728707" lon="15.65951381769313"><ele>87.0</ele><time>2026-04-25T07:17:37Z</time></trkpt><trkpt lat="38.09832031486365" lon="15.659501416969654"><ele>87.0</ele><time>2026-04-25T07:17:37.998Z</time></trkpt><trkpt lat="38.09817114780253" lon="15.659470208537037"><ele>87.0</ele><time>2026-04-25T07:17:38.998Z</time></trkpt><trkpt lat="38.09799489257989" lon="15.659440209424853"><ele>87.0</ele><time>2026-04-25T07:17:39.998Z</time></trkpt><trkpt lat="38.0978156047595" lon="15.659413464174044"><ele>87.0</ele><time>2026-04-25T07:17:40.998Z</time></trkpt><trkpt lat="38.09764303667736" lon="15.659378343773701"><ele>87.0</ele><time>2026-04-25T07:17:41.998Z</time></trkpt><trkpt lat="38.097448830776834" lon="15.659331013926147"><ele>87.0</ele><time>2026-04-25T07:17:42.998Z</time></trkpt><trkpt lat="38.09724364441641" lon="15.659284853892096"><ele>87.0</ele><time>2026-04-25T07:17:43.998Z</time></trkpt><trkpt lat="38.09702819923085" lon="15.659234765206449"><ele>90.0</ele><time>2026-04-25T07:17:44.998Z</time></trkpt><trkpt lat="38.09680354152723" lon="15.65916504359175"><ele>93.0</ele><time>2026-04-25T07:17:45.998Z</time></trkpt><trkpt lat="38.09660030262931" lon="15.659110464170205"><ele>96.0</ele><time>2026-04-25T07:17:46.998Z</time></trkpt><trkpt lat="38.09633180365554" lon="15.659045271601261"><ele>97.5</ele><time>2026-04-25T07:17:47.998Z</time></trkpt><trkpt lat="38.096087941622386" lon="15.658976593252168"><ele>99.0</ele><time>2026-04-25T07:17:48.998Z</time></trkpt><trkpt lat="38.095838773431595" lon="15.658921567460181"><ele>100.5</ele><time>2026-04-25T07:17:49.998Z</time></trkpt><trkpt lat="38.09559106400027" lon="15.658885712189797"><ele>102.0</ele><time>2026-04-25T07:17:50.998Z</time></trkpt><trkpt lat="38.095345417952956" lon="15.65886813148861"><ele>102.0</ele><time>2026-04-25T07:17:51.999Z</time></trkpt><trkpt lat="38.09510087555383" lon="15.658876565545075"><ele>102.0</ele><time>2026-04-25T07:17:52.999Z</time></trkpt><trkpt lat="38.09485925299186" lon="15.658899694318507"><ele>101.0</ele><time>2026-04-25T07:17:53.999Z</time></trkpt><trkpt lat="38.09461560665981" lon="15.658938240160358"><ele>100.0</ele><time>2026-04-25T07:17:54.999Z</time></trkpt><trkpt lat="38.09437704919005" lon="15.658995245216458"><ele>100.0</ele><time>2026-04-25T07:17:55.999Z</time></trkpt><trkpt lat="38.09413983048998" lon="15.659064041364243"><ele>100.0</ele><time>2026-04-25T07:17:56.999Z</time></trkpt><trkpt lat="38.0939042412879" lon="15.659132884978836"><ele>99.5</ele><time>2026-04-25T07:17:57.999Z</time></trkpt><trkpt lat="38.093667165552986" lon="15.659215068340009"><ele>99.0</ele><time>2026-04-25T07:17:58.999Z</time></trkpt><trkpt lat="38.093440514127984" lon="15.659303401191343"><ele>98.5</ele><time>2026-04-25T07:17:59.999Z</time></trkpt><trkpt lat="38.09321086163664" lon="15.659388951181365"><ele>98.0</ele><time>2026-04-25T07:18:00.999Z</time></trkpt><trkpt lat="38.092966722961044" lon="15.659465291322336"><ele>98.0</ele><time>2026-04-25T07:18:01.999Z</time></trkpt><trkpt lat="38.09270936551208" lon="15.659547453170637"><ele>98.0</ele><time>2026-04-25T07:18:02.999Z</time></trkpt><trkpt lat="38.09243636077483" lon="15.659634921456936"><ele>96.5</ele><time>2026-04-25T07:18:03.999Z</time></trkpt><trkpt lat="38.09215451143648" lon="15.659731262200765"><ele>95.0</ele><time>2026-04-25T07:18:04.999Z</time></trkpt><trkpt lat="38.09185344190031" lon="15.65985486137834"><ele>89.0</ele><time>2026-04-25T07:18:05.999Z</time></trkpt><trkpt lat="38.091535724796344" lon="15.660010481938377"><ele>83.0</ele><time>2026-04-25T07:18:06.999Z</time></trkpt><trkpt lat="38.09119652542452" lon="15.66020750324031"><ele>83.0</ele><time>2026-04-25T07:18:07.999Z</time></trkpt><trkpt lat="38.09083887455811" lon="15.660436489768363"><ele>83.0</ele><time>2026-04-25T07:18:08.999Z</time></trkpt><trkpt lat="38.090462909569304" lon="15.660686322243514"><ele>80.5</ele><time>2026-04-25T07:18:09.999Z</time></trkpt><trkpt lat="38.090074244728854" lon="15.660939251817647"><ele>78.0</ele><time>2026-04-25T07:18:10.999Z</time></trkpt><trkpt lat="38.08968492616616" lon="15.661194250873477"><ele>78.0</ele><time>2026-04-25T07:18:11.999Z</time></trkpt><trkpt lat="38.08927672598127" lon="15.661461359402015"><ele>72.0</ele><time>2026-04-25T07:18:12.999Z</time></trkpt><trkpt lat="38.088848904219375" lon="15.66173275715085"><ele>72.0</ele><time>2026-04-25T07:18:14Z</time></trkpt><trkpt lat="38.08842504236903" lon="15.662006557983727"><ele>71.0</ele><time>2026-04-25T07:18:15Z</time></trkpt><trkpt lat="38.088042301119636" lon="15.662250975263278"><ele>70.0</ele><time>2026-04-25T07:18:16Z</time></trkpt><trkpt lat="38.08768221137252" lon="15.662480187701052"><ele>70.5</ele><time>2026-04-25T07:18:17Z</time></trkpt><trkpt lat="38.08734341371106" lon="15.662701542775233"><ele>71.0</ele><time>2026-04-25T07:18:18Z</time></trkpt><trkpt lat="38.087010608688296" lon="15.662912670890428"><ele>71.0</ele><time>2026-04-25T07:18:19Z</time></trkpt><trkpt lat="38.08669051646503" lon="15.663116477975356"><ele>71.0</ele><time>2026-04-25T07:18:20Z</time></trkpt><trkpt lat="38.086392940609485" lon="15.663310143048767"><ele>71.5</ele><time>2026-04-25T07:18:21Z</time></trkpt><trkpt lat="38.08611142625211" lon="15.663490011019803"><ele>72.0</ele><time>2026-04-25T07:18:22Z</time></trkpt><trkpt lat="38.08584068412735" lon="15.663656988065165"><ele>76.5</ele><time>2026-04-25T07:18:23Z</time></trkpt><trkpt lat="38.08558030238353" lon="15.663808726664012"><ele>81.0</ele><time>2026-04-25T07:18:24Z</time></trkpt><trkpt lat="38.08507267579533" lon="15.664030229109462"><ele>79.5</ele><time>2026-04-25T07:18:26Z</time></trkpt><trkpt lat="38.08484685547098" lon="15.66410496524527"><ele>78.0</ele><time>2026-04-25T07:18:27Z</time></trkpt><trkpt lat="38.084598057947055" lon="15.664174099881814"><ele>78.0</ele><time>2026-04-25T07:18:28Z</time></trkpt><trkpt lat="38.08434546325134" lon="15.66422323126582"><ele>78.0</ele><time>2026-04-25T07:18:29Z</time></trkpt><trkpt lat="38.084100846768116" lon="15.664263244002886"><ele>76.5</ele><time>2026-04-25T07:18:30Z</time></trkpt><trkpt lat="38.08382162961822" lon="15.66427571860217"><ele>75.0</ele><time>2026-04-25T07:18:31Z</time></trkpt><trkpt lat="38.083510004852336" lon="15.664274488949204"><ele>73.0</ele><time>2026-04-25T07:18:32Z</time></trkpt><trkpt lat="38.08318478991075" lon="15.664282840686008"><ele>71.0</ele><time>2026-04-25T07:18:33Z</time></trkpt><trkpt lat="38.082842848397505" lon="15.664290869485013"><ele>71.0</ele><time>2026-04-25T07:18:34Z</time></trkpt><trkpt lat="38.082505693034406" lon="15.664299452593555"><ele>71.0</ele><time>2026-04-25T07:18:35Z</time></trkpt><trkpt lat="38.08216703206086" lon="15.664317039480647"><ele>70.5</ele><time>2026-04-25T07:18:36Z</time></trkpt><trkpt lat="38.08183790049408" lon="15.664334274866773"><ele>70.0</ele><time>2026-04-25T07:18:37Z</time></trkpt><trkpt lat="38.081535420419" lon="15.664349033750836"><ele>69.5</ele><time>2026-04-25T07:18:38Z</time></trkpt><trkpt lat="38.081233370518845" lon="15.664359645355503"><ele>69.0</ele><time>2026-04-25T07:18:39Z</time></trkpt><trkpt lat="38.08093575834627" lon="15.664372375885623"><ele>67.0</ele><time>2026-04-25T07:18:40Z</time></trkpt><trkpt lat="38.080633055492946" lon="15.664381154087728"><ele>65.0</ele><time>2026-04-25T07:18:41Z</time></trkpt><trkpt lat="38.080326047694044" lon="15.664389331739073"><ele>65.0</ele><time>2026-04-25T07:18:42Z</time></trkpt><trkpt lat="38.080015249270126" lon="15.664394116207186"><ele>65.0</ele><time>2026-04-25T07:18:43Z</time></trkpt><trkpt lat="38.07969836379502" lon="15.664405219395562"><ele>62.5</ele><time>2026-04-25T07:18:44Z</time></trkpt><trkpt lat="38.07937373290396" lon="15.66442216966749"><ele>60.0</ele><time>2026-04-25T07:18:45Z</time></trkpt><trkpt lat="38.07906028836557" lon="15.664430176910896"><ele>62.0</ele><time>2026-04-25T07:18:46Z</time></trkpt><trkpt lat="38.07875829363775" lon="15.66444809441814"><ele>64.0</ele><time>2026-04-25T07:18:47Z</time></trkpt><trkpt lat="38.07846635228935" lon="15.664452144354746"><ele>61.5</ele><time>2026-04-25T07:18:48Z</time></trkpt><trkpt lat="38.07816964811121" lon="15.66446055687973"><ele>59.0</ele><time>2026-04-25T07:18:49Z</time></trkpt><trkpt lat="38.077882059096595" lon="15.664465757556309"><ele>59.0</ele><time>2026-04-25T07:18:50Z</time></trkpt><trkpt lat="38.07758528275936" lon="15.66446729258124"><ele>59.0</ele><time>2026-04-25T07:18:51Z</time></trkpt><trkpt lat="38.0772954045499" lon="15.664468651811282"><ele>54.5</ele><time>2026-04-25T07:18:52Z</time></trkpt><trkpt lat="38.07700167399284" lon="15.664465239361315"><ele>50.0</ele><time>2026-04-25T07:18:53Z</time></trkpt><trkpt lat="38.07671620415497" lon="15.664447951280408"><ele>51.0</ele><time>2026-04-25T07:18:54Z</time></trkpt><trkpt lat="38.076438196637" lon="15.664419393671206"><ele>52.0</ele><time>2026-04-25T07:18:55Z</time></trkpt><trkpt lat="38.076156502922416" lon="15.6643808045328"><ele>52.0</ele><time>2026-04-25T07:18:56Z</time></trkpt><trkpt lat="38.07587656538965" lon="15.664325864802946"><ele>52.0</ele><time>2026-04-25T07:18:57Z</time></trkpt><trkpt lat="38.07559673829227" lon="15.664260935149269"><ele>47.0</ele><time>2026-04-25T07:18:58.001Z</time></trkpt><trkpt lat="38.07531894547794" lon="15.664186451864781"><ele>42.0</ele><time>2026-04-25T07:18:59.001Z</time></trkpt><trkpt lat="38.07504137031211" lon="15.664099918363739"><ele>39.0</ele><time>2026-04-25T07:19:00.001Z</time></trkpt><trkpt lat="38.07476656981957" lon="15.664005563012354"><ele>36.0</ele><time>2026-04-25T07:19:01.001Z</time></trkpt><trkpt lat="38.07448395724259" lon="15.663908060090204"><ele>36.0</ele><time>2026-04-25T07:19:02.001Z</time></trkpt><trkpt lat="38.0742014819735" lon="15.663807947688722"><ele>36.0</ele><time>2026-04-25T07:19:03.001Z</time></trkpt><trkpt lat="38.07390691482401" lon="15.663703769038156"><ele>34.0</ele><time>2026-04-25T07:19:04.001Z</time></trkpt><trkpt lat="38.07361409776093" lon="15.663609631545881"><ele>32.0</ele><time>2026-04-25T07:19:05.001Z</time></trkpt><trkpt lat="38.073321102820806" lon="15.663513621644718"><ele>32.5</ele><time>2026-04-25T07:19:06.001Z</time></trkpt><trkpt lat="38.07302763710548" lon="15.663422379650262"><ele>33.0</ele><time>2026-04-25T07:19:07.001Z</time></trkpt><trkpt lat="38.072727707731445" lon="15.663336850334723"><ele>33.0</ele><time>2026-04-25T07:19:08.001Z</time></trkpt><trkpt lat="38.07241703827804" lon="15.663263926473169"><ele>33.0</ele><time>2026-04-25T07:19:09.001Z</time></trkpt><trkpt lat="38.07210500365347" lon="15.66322012075457"><ele>33.0</ele><time>2026-04-25T07:19:10.001Z</time></trkpt><trkpt lat="38.071772894353074" lon="15.663185878213465"><ele>33.0</ele><time>2026-04-25T07:19:11.001Z</time></trkpt><trkpt lat="38.07142169491682" lon="15.663145404075431"><ele>34.5</ele><time>2026-04-25T07:19:12.001Z</time></trkpt><trkpt lat="38.07112412277845" lon="15.66319166107937"><ele>36.0</ele><time>2026-04-25T07:19:13.001Z</time></trkpt><trkpt lat="38.07075997589697" lon="15.663205832658447"><ele>36.0</ele><time>2026-04-25T07:19:14.001Z</time></trkpt><trkpt lat="38.07039167865528" lon="15.663211258570831"><ele>36.0</ele><time>2026-04-25T07:19:15.001Z</time></trkpt><trkpt lat="38.070028083369756" lon="15.6632118828316"><ele>36.5</ele><time>2026-04-25T07:19:16.001Z</time></trkpt><trkpt lat="38.06970077239247" lon="15.663209070988772"><ele>37.0</ele><time>2026-04-25T07:19:17.001Z</time></trkpt><trkpt lat="38.06939823764202" lon="15.663191414982094"><ele>37.0</ele><time>2026-04-25T07:19:18.001Z</time></trkpt><trkpt lat="38.06912732741501" lon="15.663163369715338"><ele>37.0</ele><time>2026-04-25T07:19:19.001Z</time></trkpt><trkpt lat="38.06889541188039" lon="15.663142687358567"><ele>37.333333333333336</ele><time>2026-04-25T07:19:20.001Z</time></trkpt><trkpt lat="38.06870736149123" lon="15.663124817441936"><ele>37.666666666666664</ele><time>2026-04-25T07:19:21.001Z</time></trkpt><trkpt lat="38.06852580204852" lon="15.66309933053006"><ele>38.0</ele><time>2026-04-25T07:19:22.001Z</time></trkpt><trkpt lat="38.06836754145902" lon="15.66308379587946"><ele>38.75</ele><time>2026-04-25T07:19:23.001Z</time></trkpt><trkpt lat="38.06824879625915" lon="15.66306403604744"><ele>39.5</ele><time>2026-04-25T07:19:24.001Z</time></trkpt><trkpt lat="38.06812952534339" lon="15.66305527763667"><ele>40.25</ele><time>2026-04-25T07:19:25.001Z</time></trkpt><trkpt lat="38.06797431068645" lon="15.66303223711011"><ele>41.0</ele><time>2026-04-25T07:19:26.001Z</time></trkpt><trkpt lat="38.06779790972368" lon="15.663010382315775"><ele>41.0</ele><time>2026-04-25T07:19:27.001Z</time></trkpt><trkpt lat="38.06761496540602" lon="15.662981951251606"><ele>41.0</ele><time>2026-04-25T07:19:28.001Z</time></trkpt><trkpt lat="38.06741579364559" lon="15.662961128199768"><ele>41.0</ele><time>2026-04-25T07:19:29.001Z</time></trkpt><trkpt lat="38.067206473086145" lon="15.662935567721366"><ele>41.33333333333333</ele><time>2026-04-25T07:19:30.001Z</time></trkpt><trkpt lat="38.06699103243709" lon="15.66290801463974"><ele>41.666666666666664</ele><time>2026-04-25T07:19:31.001Z</time></trkpt><trkpt lat="38.066763207212965" lon="15.662869416152523"><ele>42.0</ele><time>2026-04-25T07:19:32.001Z</time></trkpt><trkpt lat="38.06650639780189" lon="15.662843196143765"><ele>42.5</ele><time>2026-04-25T07:19:33.001Z</time></trkpt><trkpt lat="38.066222670806035" lon="15.662802663493567"><ele>43.0</ele><time>2026-04-25T07:19:34.001Z</time></trkpt><trkpt lat="38.06591328565182" lon="15.662761193108542"><ele>41.5</ele><time>2026-04-25T07:19:35.001Z</time></trkpt><trkpt lat="38.065595301075014" lon="15.662723594192155"><ele>40.0</ele><time>2026-04-25T07:19:36.001Z</time></trkpt><trkpt lat="38.06524077900124" lon="15.662684816269415"><ele>40.5</ele><time>2026-04-25T07:19:37.001Z</time></trkpt><trkpt lat="38.06485404722213" lon="15.662636894533634"><ele>41.0</ele><time>2026-04-25T07:19:38.001Z</time></trkpt><trkpt lat="38.06443568533917" lon="15.662588160514614"><ele>39.5</ele><time>2026-04-25T07:19:39.001Z</time></trkpt><trkpt lat="38.06401764404314" lon="15.662532795419846"><ele>38.0</ele><time>2026-04-25T07:19:40.001Z</time></trkpt><trkpt lat="38.063616708618596" lon="15.662480254734199"><ele>40.0</ele><time>2026-04-25T07:19:41.001Z</time></trkpt><trkpt lat="38.063257754303315" lon="15.66243674601472"><ele>42.0</ele><time>2026-04-25T07:19:42.001Z</time></trkpt><trkpt lat="38.062922804029434" lon="15.662399662118027"><ele>42.0</ele><time>2026-04-25T07:19:43.001Z</time></trkpt><trkpt lat="38.06261219493249" lon="15.662357730005223"><ele>42.0</ele><time>2026-04-25T07:19:43.999Z</time></trkpt><trkpt lat="38.06231342804279" lon="15.662303311208074"><ele>43.0</ele><time>2026-04-25T07:19:44.999Z</time></trkpt><trkpt lat="38.06204775083179" lon="15.6622261801508"><ele>44.0</ele><time>2026-04-25T07:19:45.999Z</time></trkpt><trkpt lat="38.06179971932821" lon="15.662134832129338"><ele>46.5</ele><time>2026-04-25T07:19:46.999Z</time></trkpt><trkpt lat="38.06156639323333" lon="15.662037606579156"><ele>49.0</ele><time>2026-04-25T07:19:47.999Z</time></trkpt><trkpt lat="38.061359878627506" lon="15.66190222195339"><ele>45.666666666666664</ele><time>2026-04-25T07:19:48.999Z</time></trkpt><trkpt lat="38.06115971576768" lon="15.661805201068923"><ele>42.33333333333333</ele><time>2026-04-25T07:19:49.999Z</time></trkpt><trkpt lat="38.06097175584552" lon="15.661723664503702"><ele>39.0</ele><time>2026-04-25T07:19:50.999Z</time></trkpt><trkpt lat="38.0608123185712" lon="15.661664783334768"><ele>39.8</ele><time>2026-04-25T07:19:51.999Z</time></trkpt><trkpt lat="38.06068438482364" lon="15.661616534291902"><ele>40.599999999999994</ele><time>2026-04-25T07:19:52.999Z</time></trkpt><trkpt lat="38.060582950850815" lon="15.661576259801675"><ele>41.4</ele><time>2026-04-25T07:19:53.999Z</time></trkpt><trkpt lat="38.06049839832763" lon="15.661539728723247"><ele>42.199999999999996</ele><time>2026-04-25T07:19:54.999Z</time></trkpt><trkpt lat="38.06042525193749" lon="15.661503586591339"><ele>43.0</ele><time>2026-04-25T07:19:55.999Z</time></trkpt><trkpt lat="38.06031435996457" lon="15.661457925893757"><ele>43.0</ele><time>2026-04-25T07:19:57.999Z</time></trkpt><trkpt lat="38.06024663369455" lon="15.661425230706728"><ele>43.0</ele><time>2026-04-25T07:19:59Z</time></trkpt><trkpt lat="38.06013703803791" lon="15.661381579126727"><ele>43.0</ele><time>2026-04-25T07:20:01Z</time></trkpt><trkpt lat="38.06004685346897" lon="15.661372567576924"><ele>43.0</ele><time>2026-04-25T07:20:06Z</time></trkpt><trkpt lat="38.059952613963794" lon="15.661325033812414"><ele>43.0</ele><time>2026-04-25T07:20:07Z</time></trkpt><trkpt lat="38.05989143093319" lon="15.661258809218149"><ele>43.0</ele><time>2026-04-25T07:20:08Z</time></trkpt><trkpt lat="38.05976573514534" lon="15.661164720033007"><ele>43.0</ele><time>2026-04-25T07:20:10Z</time></trkpt><trkpt lat="38.059682166347486" lon="15.66112649834915"><ele>43.0</ele><time>2026-04-25T07:20:11Z</time></trkpt><trkpt lat="38.05959769507432" lon="15.661092666494378"><ele>43.0</ele><time>2026-04-25T07:20:12Z</time></trkpt><trkpt lat="38.05950090763055" lon="15.661047034915004"><ele>43.0</ele><time>2026-04-25T07:20:13Z</time></trkpt><trkpt lat="38.059406125266804" lon="15.660995142759953"><ele>41.8</ele><time>2026-04-25T07:20:14Z</time></trkpt><trkpt lat="38.05930970403315" lon="15.660932728129229"><ele>40.599999999999994</ele><time>2026-04-25T07:20:15Z</time></trkpt><trkpt lat="38.059218208198224" lon="15.660874761559047"><ele>39.400000000000006</ele><time>2026-04-25T07:20:16Z</time></trkpt><trkpt lat="38.059134185472004" lon="15.660812937681946"><ele>38.2</ele><time>2026-04-25T07:20:17Z</time></trkpt><trkpt lat="38.05906253907006" lon="15.660743215501247"><ele>37.0</ele><time>2026-04-25T07:20:18Z</time></trkpt><trkpt lat="38.058989216122086" lon="15.660672431865569"><ele>36.833333333333336</ele><time>2026-04-25T07:20:19Z</time></trkpt><trkpt lat="38.05891463185124" lon="15.660597641687714"><ele>36.66666666666667</ele><time>2026-04-25T07:20:20Z</time></trkpt><trkpt lat="38.05884196615673" lon="15.660519875694087"><ele>36.5</ele><time>2026-04-25T07:20:21Z</time></trkpt><trkpt lat="38.058779202498506" lon="15.66044768492451"><ele>36.333333333333336</ele><time>2026-04-25T07:20:22Z</time></trkpt><trkpt lat="38.05872104237216" lon="15.660385665404107"><ele>36.166666666666664</ele><time>2026-04-25T07:20:23Z</time></trkpt><trkpt lat="38.05866654602693" lon="15.660324743315"><ele>36.0</ele><time>2026-04-25T07:20:24Z</time></trkpt><trkpt lat="38.05863053888729" lon="15.660253777685229"><ele>35.6</ele><time>2026-04-25T07:20:25Z</time></trkpt><trkpt lat="38.05856861913421" lon="15.660157045457074"><ele>35.2</ele><time>2026-04-25T07:20:27Z</time></trkpt><trkpt lat="38.058465135778526" lon="15.66017280172218"><ele>34.8</ele><time>2026-04-25T07:20:29Z</time></trkpt><trkpt lat="38.05838659099998" lon="15.660202280082792"><ele>34.4</ele><time>2026-04-25T07:20:43.001Z</time></trkpt><trkpt lat="38.05826548225143" lon="15.660192505727943"><ele>34.0</ele><time>2026-04-25T07:20:45.001Z</time></trkpt><trkpt lat="38.05819986726639" lon="15.660166270921774"><ele>34.0</ele><time>2026-04-25T07:20:46.001Z</time></trkpt><trkpt lat="38.058120431078585" lon="15.660148615164559"><ele>34.0</ele><time>2026-04-25T07:20:47.001Z</time></trkpt><trkpt lat="38.05802496972066" lon="15.660123189904628"><ele>34.0</ele><time>2026-04-25T07:20:49.001Z</time></trkpt><trkpt lat="38.0579857949408" lon="15.660282408772945"><ele>34.0</ele><time>2026-04-25T07:20:52.001Z</time></trkpt><trkpt lat="38.05798830985578" lon="15.660393671024767"><ele>34.0</ele><time>2026-04-25T07:20:53.001Z</time></trkpt><trkpt lat="38.057969470628116" lon="15.660503235482276"><ele>34.8</ele><time>2026-04-25T07:20:54.001Z</time></trkpt><trkpt lat="38.05795743926869" lon="15.660608315916974"><ele>35.599999999999994</ele><time>2026-04-25T07:20:55.001Z</time></trkpt><trkpt lat="38.05794280367457" lon="15.660734012972163"><ele>36.4</ele><time>2026-04-25T07:20:56.001Z</time></trkpt><trkpt lat="38.05794105183023" lon="15.660866498046834"><ele>37.199999999999996</ele><time>2026-04-25T07:20:57.001Z</time></trkpt><trkpt lat="38.05792727284271" lon="15.660989854993066"><ele>38.0</ele><time>2026-04-25T07:20:58.001Z</time></trkpt><trkpt lat="38.05788642483282" lon="15.661131161039304"><ele>39.0</ele><time>2026-04-25T07:20:59.001Z</time></trkpt><trkpt lat="38.05786784226331" lon="15.661296140151892"><ele>40.0</ele><time>2026-04-25T07:21:00.001Z</time></trkpt><trkpt lat="38.05783987166207" lon="15.661445809170678"><ele>41.0</ele><time>2026-04-25T07:21:01.001Z</time></trkpt><trkpt lat="38.05781211758648" lon="15.661593271170126"><ele>42.0</ele><time>2026-04-25T07:21:02.001Z</time></trkpt><trkpt lat="38.057774384836804" lon="15.661740570363293"><ele>42.0</ele><time>2026-04-25T07:21:03.001Z</time></trkpt><trkpt lat="38.0577653261051" lon="15.661883818051598"><ele>42.0</ele><time>2026-04-25T07:21:04.001Z</time></trkpt><trkpt lat="38.05773108745926" lon="15.662035430779671"><ele>42.0</ele><time>2026-04-25T07:21:05.001Z</time></trkpt><trkpt lat="38.05769743538107" lon="15.662192869668637"><ele>42.0</ele><time>2026-04-25T07:21:06.001Z</time></trkpt><trkpt lat="38.05767419314394" lon="15.662348011579626"><ele>42.75</ele><time>2026-04-25T07:21:07.001Z</time></trkpt><trkpt lat="38.05765567563724" lon="15.662508743487884"><ele>43.5</ele><time>2026-04-25T07:21:08.001Z</time></trkpt><trkpt lat="38.0576241037201" lon="15.662671099795082"><ele>44.25</ele><time>2026-04-25T07:21:09.001Z</time></trkpt><trkpt lat="38.057616479141274" lon="15.662831655298781"><ele>45.0</ele><time>2026-04-25T07:21:10.001Z</time></trkpt><trkpt lat="38.0575891504121" lon="15.662988043388454"><ele>45.8</ele><time>2026-04-25T07:21:11.001Z</time></trkpt><trkpt lat="38.05758456336628" lon="15.663126614427254"><ele>46.6</ele><time>2026-04-25T07:21:12.001Z</time></trkpt><trkpt lat="38.057595840312054" lon="15.663248252759013"><ele>47.400000000000006</ele><time>2026-04-25T07:21:13.001Z</time></trkpt><trkpt lat="38.057577722377246" lon="15.66338446972861"><ele>48.2</ele><time>2026-04-25T07:21:14.001Z</time></trkpt><trkpt lat="38.05751501954691" lon="15.663527771988024"><ele>49.0</ele><time>2026-04-25T07:21:15.001Z</time></trkpt><trkpt lat="38.05748115170387" lon="15.663696675945754"><ele>49.75</ele><time>2026-04-25T07:21:16.001Z</time></trkpt><trkpt lat="38.05744521940445" lon="15.66383122778426"><ele>50.5</ele><time>2026-04-25T07:21:17.001Z</time></trkpt><trkpt lat="38.057397199130705" lon="15.663986019759484"><ele>51.25</ele><time>2026-04-25T07:21:18.001Z</time></trkpt><trkpt lat="38.057365740891754" lon="15.664169791377487"><ele>52.0</ele><time>2026-04-25T07:21:19.001Z</time></trkpt><trkpt lat="38.057328438725435" lon="15.664334363576943"><ele>53.0</ele><time>2026-04-25T07:21:20.001Z</time></trkpt><trkpt lat="38.057271430004214" lon="15.66449173672691"><ele>54.0</ele><time>2026-04-25T07:21:21.002Z</time></trkpt><trkpt lat="38.0572417371784" lon="15.664652157626954"><ele>55.0</ele><time>2026-04-25T07:21:22.002Z</time></trkpt><trkpt lat="38.057194712126574" lon="15.664812334165207"><ele>56.0</ele><time>2026-04-25T07:21:23.002Z</time></trkpt><trkpt lat="38.05715139659955" lon="15.664956553056607"><ele>56.0</ele><time>2026-04-25T07:21:24.002Z</time></trkpt><trkpt lat="38.0571135853399" lon="15.6650825537351"><ele>55.99999999999999</ele><time>2026-04-25T07:21:25.002Z</time></trkpt><trkpt lat="38.05709657489096" lon="15.665221024500982"><ele>55.99999999999999</ele><time>2026-04-25T07:21:26.002Z</time></trkpt><trkpt lat="38.057108399788625" lon="15.66536534404641"><ele>56.0</ele><time>2026-04-25T07:21:27.002Z</time></trkpt><trkpt lat="38.0570901726054" lon="15.665496952187556"><ele>56.0</ele><time>2026-04-25T07:21:28.002Z</time></trkpt><trkpt lat="38.05704512858095" lon="15.665599368555432"><ele>56.4</ele><time>2026-04-25T07:21:29.002Z</time></trkpt><trkpt lat="38.05702114194339" lon="15.665698073649533"><ele>56.8</ele><time>2026-04-25T07:21:30.002Z</time></trkpt><trkpt lat="38.05698514586496" lon="15.665811137771241"><ele>57.199999999999996</ele><time>2026-04-25T07:21:31.002Z</time></trkpt><trkpt lat="38.05693867454431" lon="15.665937445905886"><ele>57.599999999999994</ele><time>2026-04-25T07:21:32.002Z</time></trkpt><trkpt lat="38.05694547903866" lon="15.666068285126462"><ele>58.0</ele><time>2026-04-25T07:21:33.002Z</time></trkpt><trkpt lat="38.056912084207006" lon="15.666193874305778"><ele>59.0</ele><time>2026-04-25T07:21:34.002Z</time></trkpt><trkpt lat="38.05687397594073" lon="15.666324872508032"><ele>60.0</ele><time>2026-04-25T07:21:35.002Z</time></trkpt><trkpt lat="38.056837509541786" lon="15.666452116879322"><ele>61.0</ele><time>2026-04-25T07:21:36.002Z</time></trkpt><trkpt lat="38.05681111663094" lon="15.666606829919038"><ele>62.0</ele><time>2026-04-25T07:21:37.002Z</time></trkpt><trkpt lat="38.05675300152251" lon="15.66675624431691"><ele>62.0</ele><time>2026-04-25T07:21:38.002Z</time></trkpt><trkpt lat="38.056720546202186" lon="15.666903254563946"><ele>62.0</ele><time>2026-04-25T07:21:39.002Z</time></trkpt><trkpt lat="38.05665973762939" lon="15.667043121909076"><ele>62.0</ele><time>2026-04-25T07:21:40.002Z</time></trkpt><trkpt lat="38.05662162392366" lon="15.667182218331979"><ele>62.0</ele><time>2026-04-25T07:21:41.002Z</time></trkpt><trkpt lat="38.05657837412808" lon="15.66732380246564"><ele>63.25</ele><time>2026-04-25T07:21:42.002Z</time></trkpt><trkpt lat="38.05654603690493" lon="15.667462047405182"><ele>64.5</ele><time>2026-04-25T07:21:43.002Z</time></trkpt><trkpt lat="38.05648352118051" lon="15.667567800995219"><ele>65.75</ele><time>2026-04-25T07:21:44.002Z</time></trkpt><trkpt lat="38.05642716452578" lon="15.667692511784105"><ele>67.0</ele><time>2026-04-25T07:21:45.002Z</time></trkpt><trkpt lat="38.05638219392929" lon="15.667841256227847"><ele>67.75</ele><time>2026-04-25T07:21:46.002Z</time></trkpt><trkpt lat="38.05633773476959" lon="15.667958673727144"><ele>68.5</ele><time>2026-04-25T07:21:47.002Z</time></trkpt><trkpt lat="38.056310469936435" lon="15.66810358107629"><ele>69.25</ele><time>2026-04-25T07:21:48.002Z</time></trkpt><trkpt lat="38.056249122532265" lon="15.668238821926819"><ele>70.0</ele><time>2026-04-25T07:21:49.002Z</time></trkpt><trkpt lat="38.05617105053812" lon="15.668335396741007"><ele>70.0</ele><time>2026-04-25T07:21:50.001Z</time></trkpt><trkpt lat="38.05612142460994" lon="15.668447555898215"><ele>70.0</ele><time>2026-04-25T07:21:51.001Z</time></trkpt><trkpt lat="38.05606564173299" lon="15.668564177084397"><ele>70.0</ele><time>2026-04-25T07:21:52.001Z</time></trkpt><trkpt lat="38.05602110969168" lon="15.668693008966816"><ele>70.0</ele><time>2026-04-25T07:21:53.001Z</time></trkpt><trkpt lat="38.05597869913093" lon="15.66883368483343"><ele>70.0</ele><time>2026-04-25T07:21:54.001Z</time></trkpt><trkpt lat="38.05594442692285" lon="15.668990475447144"><ele>70.8</ele><time>2026-04-25T07:21:55.001Z</time></trkpt><trkpt lat="38.05590304615817" lon="15.669114071296237"><ele>71.6</ele><time>2026-04-25T07:21:56.001Z</time></trkpt><trkpt lat="38.05586139777373" lon="15.669235322822647"><ele>72.4</ele><time>2026-04-25T07:21:57.001Z</time></trkpt><trkpt lat="38.055817025792294" lon="15.669366825513181"><ele>73.2</ele><time>2026-04-25T07:21:58.001Z</time></trkpt><trkpt lat="38.055767689472496" lon="15.669504033000146"><ele>74.0</ele><time>2026-04-25T07:21:59.001Z</time></trkpt><trkpt lat="38.05569579224541" lon="15.66964199218529"><ele>75.0</ele><time>2026-04-25T07:22:00.001Z</time></trkpt><trkpt lat="38.05563921211724" lon="15.669782235235667"><ele>76.0</ele><time>2026-04-25T07:22:01.001Z</time></trkpt><trkpt lat="38.05554740819328" lon="15.669897719568404"><ele>77.0</ele><time>2026-04-25T07:22:02.001Z</time></trkpt><trkpt lat="38.05547568645073" lon="15.670049675973488"><ele>78.0</ele><time>2026-04-25T07:22:03.001Z</time></trkpt><trkpt lat="38.05543277499419" lon="15.670189948246293"><ele>78.5</ele><time>2026-04-25T07:22:04.001Z</time></trkpt><trkpt lat="38.05539761577559" lon="15.67033257533357"><ele>79.0</ele><time>2026-04-25T07:22:05.001Z</time></trkpt><trkpt lat="38.055362097015966" lon="15.67049759245762"><ele>79.5</ele><time>2026-04-25T07:22:06.001Z</time></trkpt><trkpt lat="38.055332817281105" lon="15.670639846670841"><ele>80.0</ele><time>2026-04-25T07:22:07.001Z</time></trkpt><trkpt lat="38.0553322480334" lon="15.670773640501414"><ele>80.0</ele><time>2026-04-25T07:22:08.001Z</time></trkpt><trkpt lat="38.05529860661391" lon="15.670912861571678"><ele>80.0</ele><time>2026-04-25T07:22:09.001Z</time></trkpt><trkpt lat="38.0552291154774" lon="15.67104850756561"><ele>80.0</ele><time>2026-04-25T07:22:10.001Z</time></trkpt><trkpt lat="38.05517484554546" lon="15.671185218272056"><ele>80.0</ele><time>2026-04-25T07:22:11.001Z</time></trkpt><trkpt lat="38.05513100716149" lon="15.67131798096088"><ele>80.6</ele><time>2026-04-25T07:22:12.001Z</time></trkpt><trkpt lat="38.05509628778394" lon="15.671447127399691"><ele>81.2</ele><time>2026-04-25T07:22:13.001Z</time></trkpt><trkpt lat="38.05504915206294" lon="15.671574157980565"><ele>81.80000000000001</ele><time>2026-04-25T07:22:14.001Z</time></trkpt><trkpt lat="38.05500507712706" lon="15.671705037290032"><ele>82.4</ele><time>2026-04-25T07:22:15.001Z</time></trkpt><trkpt lat="38.05495656087739" lon="15.671840673428855"><ele>83.0</ele><time>2026-04-25T07:22:16.001Z</time></trkpt><trkpt lat="38.0548979125022" lon="15.67191474438515"><ele>83.33333333333334</ele><time>2026-04-25T07:22:17.001Z</time></trkpt><trkpt lat="38.05482445599699" lon="15.67197025410234"><ele>83.66666666666667</ele><time>2026-04-25T07:22:18.001Z</time></trkpt><trkpt lat="38.05476149095674" lon="15.672014247222359"><ele>84.0</ele><time>2026-04-25T07:22:19.001Z</time></trkpt><trkpt lat="38.05471331005868" lon="15.67207925042665"><ele>84.33333333333333</ele><time>2026-04-25T07:22:21.001Z</time></trkpt><trkpt lat="38.05464440269387" lon="15.672137990666696"><ele>84.66666666666666</ele><time>2026-04-25T07:22:24.001Z</time></trkpt><trkpt lat="38.05455008888606" lon="15.672117707084443"><ele>85.0</ele><time>2026-04-25T07:22:26.001Z</time></trkpt><trkpt lat="38.05448711513877" lon="15.672120110326032"><ele>85.0</ele><time>2026-04-25T07:22:27.001Z</time></trkpt><trkpt lat="38.05439161222411" lon="15.672124698498196"><ele>85.0</ele><time>2026-04-25T07:22:29.001Z</time></trkpt><trkpt lat="38.05431599891823" lon="15.672126921060203"><ele>85.0</ele><time>2026-04-25T07:22:33.001Z</time></trkpt><trkpt lat="38.054213116255625" lon="15.672125914217299"><ele>85.0</ele><time>2026-04-25T07:22:36.001Z</time></trkpt><trkpt lat="38.05409716114589" lon="15.67211405295574"><ele>85.0</ele><time>2026-04-25T07:22:38.001Z</time></trkpt><trkpt lat="38.054033367002496" lon="15.672101946076214"><ele>85.66666666666666</ele><time>2026-04-25T07:22:39.001Z</time></trkpt><trkpt lat="38.05394204757102" lon="15.672066727744323"><ele>86.33333333333333</ele><time>2026-04-25T07:22:41.001Z</time></trkpt><trkpt lat="38.05381540046068" lon="15.672061547628369"><ele>87.0</ele><time>2026-04-25T07:22:43.001Z</time></trkpt><trkpt lat="38.05374609628708" lon="15.672051379482607"><ele>87.66666666666667</ele><time>2026-04-25T07:22:44.001Z</time></trkpt><trkpt lat="38.05366315675285" lon="15.672036336010455"><ele>88.33333333333334</ele><time>2026-04-25T07:22:45.001Z</time></trkpt><trkpt lat="38.05359229900464" lon="15.67202531503452"><ele>89.0</ele><time>2026-04-25T07:22:46.001Z</time></trkpt><trkpt lat="38.05348245846325" lon="15.672009967396036"><ele>89.0</ele><time>2026-04-25T07:22:48.001Z</time></trkpt><trkpt lat="38.05339531465259" lon="15.672039644954234"><ele>89.0</ele><time>2026-04-25T07:22:50.001Z</time></trkpt><trkpt lat="38.05332562890865" lon="15.672060171243153"><ele>89.0</ele><time>2026-04-25T07:22:51.001Z</time></trkpt><trkpt lat="38.05326169904288" lon="15.672049070799254"><ele>89.0</ele><time>2026-04-25T07:22:52.001Z</time></trkpt><trkpt lat="38.053188408595645" lon="15.672001626154023"><ele>89.0</ele><time>2026-04-25T07:22:54.001Z</time></trkpt><trkpt lat="38.053105415635066" lon="15.67195988250478"><ele>89.0</ele><time>2026-04-25T07:22:57.001Z</time></trkpt><trkpt lat="38.05299986816688" lon="15.672127751099229"><ele>89.28571428571428</ele><time>2026-04-25T07:22:59.001Z</time></trkpt><trkpt lat="38.05295183354705" lon="15.672193204259486"><ele>89.57142857142857</ele><time>2026-04-25T07:23:00.001Z</time></trkpt><trkpt lat="38.05290393567879" lon="15.672254850112854"><ele>89.85714285714286</ele><time>2026-04-25T07:23:01.001Z</time></trkpt><trkpt lat="38.05285309078309" lon="15.67230536377002"><ele>90.14285714285714</ele><time>2026-04-25T07:23:02.001Z</time></trkpt><trkpt lat="38.05279749149004" lon="15.672349269031946"><ele>90.42857142857143</ele><time>2026-04-25T07:23:03.001Z</time></trkpt><trkpt lat="38.052730414033135" lon="15.672379700770602"><ele>90.71428571428571</ele><time>2026-04-25T07:23:04.001Z</time></trkpt><trkpt lat="38.05266182998762" lon="15.672398367743753"><ele>91.0</ele><time>2026-04-25T07:23:05.002Z</time></trkpt><trkpt lat="38.05257833945627" lon="15.672387121085464"><ele>91.0</ele><time>2026-04-25T07:23:06.002Z</time></trkpt><trkpt lat="38.0525013944717" lon="15.672431011220986"><ele>91.0</ele><time>2026-04-25T07:23:07.002Z</time></trkpt><trkpt lat="38.05243681793856" lon="15.672448828516826"><ele>91.0</ele><time>2026-04-25T07:23:08.002Z</time></trkpt><trkpt lat="38.05233975178935" lon="15.672514987642064"><ele>91.0</ele><time>2026-04-25T07:23:10.002Z</time></trkpt><trkpt lat="38.05228189899937" lon="15.672651236379464"><ele>91.0</ele><time>2026-04-25T07:23:12.002Z</time></trkpt><trkpt lat="38.05226812683166" lon="15.672736728884116"><ele>91.83333333333333</ele><time>2026-04-25T07:23:13.002Z</time></trkpt><trkpt lat="38.05225497900386" lon="15.672823781888416"><ele>92.66666666666666</ele><time>2026-04-25T07:23:14.002Z</time></trkpt><trkpt lat="38.0522389571455" lon="15.6729195739248"><ele>93.5</ele><time>2026-04-25T07:23:15.002Z</time></trkpt><trkpt lat="38.052201364754175" lon="15.672995842332782"><ele>94.33333333333333</ele><time>2026-04-25T07:23:16.002Z</time></trkpt><trkpt lat="38.052187013996615" lon="15.673094747375911"><ele>95.16666666666667</ele><time>2026-04-25T07:23:17.002Z</time></trkpt><trkpt lat="38.05215548318177" lon="15.673198056318677"><ele>96.0</ele><time>2026-04-25T07:23:18.002Z</time></trkpt><trkpt lat="38.0521181706045" lon="15.673288647611944"><ele>96.0</ele><time>2026-04-25T07:23:19.002Z</time></trkpt><trkpt lat="38.052075881650396" lon="15.67338922784148"><ele>96.0</ele><time>2026-04-25T07:23:20.002Z</time></trkpt><trkpt lat="38.052040367040384" lon="15.673469748867674"><ele>96.0</ele><time>2026-04-25T07:23:21.002Z</time></trkpt><trkpt lat="38.05200790573961" lon="15.673547236333835"><ele>96.0</ele><time>2026-04-25T07:23:22.002Z</time></trkpt><trkpt lat="38.05196057878812" lon="15.673701056225656"><ele>96.0</ele><time>2026-04-25T07:23:24.002Z</time></trkpt><trkpt lat="38.0519263713456" lon="15.673779539142238"><ele>96.0</ele><time>2026-04-25T07:23:25.002Z</time></trkpt><trkpt lat="38.05190095324574" lon="15.673862515199186"><ele>96.66666666666667</ele><time>2026-04-25T07:23:26.002Z</time></trkpt><trkpt lat="38.05188909632499" lon="15.673948918312313"><ele>97.33333333333334</ele><time>2026-04-25T07:23:27.002Z</time></trkpt><trkpt lat="38.05186261178654" lon="15.674028409752564"><ele>98.0</ele><time>2026-04-25T07:23:28.002Z</time></trkpt><trkpt lat="38.051827306726636" lon="15.674116865470822"><ele>98.66666666666667</ele><time>2026-04-25T07:23:29.002Z</time></trkpt><trkpt lat="38.05180587113211" lon="15.674205762869097"><ele>99.33333333333334</ele><time>2026-04-25T07:23:30.002Z</time></trkpt><trkpt lat="38.05177281685783" lon="15.674289921964933"><ele>100.0</ele><time>2026-04-25T07:23:31.002Z</time></trkpt><trkpt lat="38.05173663498522" lon="15.67446512108597"><ele>100.00000000000001</ele><time>2026-04-25T07:23:33.002Z</time></trkpt><trkpt lat="38.05170743372672" lon="15.674559096739326"><ele>100.0</ele><time>2026-04-25T07:23:34.002Z</time></trkpt><trkpt lat="38.05166680014898" lon="15.674642186342313"><ele>100.0</ele><time>2026-04-25T07:23:35.002Z</time></trkpt><trkpt lat="38.0516349876485" lon="15.674730518265752"><ele>100.0</ele><time>2026-04-25T07:23:36.002Z</time></trkpt><trkpt lat="38.05160451009855" lon="15.674812851211763"><ele>100.00000000000001</ele><time>2026-04-25T07:23:37.002Z</time></trkpt><trkpt lat="38.05156576736986" lon="15.674895348142368"><ele>100.0</ele><time>2026-04-25T07:23:38.002Z</time></trkpt><trkpt lat="38.051533315881485" lon="15.674991136979846"><ele>100.71428571428572</ele><time>2026-04-25T07:23:39.002Z</time></trkpt><trkpt lat="38.05149823117465" lon="15.675078610198316"><ele>101.42857142857143</ele><time>2026-04-25T07:23:40.002Z</time></trkpt><trkpt lat="38.051459904194026" lon="15.67515508742968"><ele>102.14285714285714</ele><time>2026-04-25T07:23:41.002Z</time></trkpt><trkpt lat="38.051434689719464" lon="15.675229431302709"><ele>102.85714285714286</ele><time>2026-04-25T07:23:42.002Z</time></trkpt><trkpt lat="38.051411429189834" lon="15.675306424499706"><ele>103.57142857142857</ele><time>2026-04-25T07:23:43.002Z</time></trkpt><trkpt lat="38.05138845118524" lon="15.67539141118483"><ele>104.28571428571429</ele><time>2026-04-25T07:23:44.002Z</time></trkpt><trkpt lat="38.05134388030597" lon="15.675475003440612"><ele>105.0</ele><time>2026-04-25T07:23:45.002Z</time></trkpt><trkpt lat="38.05131760855821" lon="15.675553703104013"><ele>105.33333333333333</ele><time>2026-04-25T07:23:46.002Z</time></trkpt><trkpt lat="38.051268209758184" lon="15.67569313430333"><ele>105.66666666666666</ele><time>2026-04-25T07:23:48.002Z</time></trkpt><trkpt lat="38.051237532633955" lon="15.67576943402401"><ele>106.0</ele><time>2026-04-25T07:23:49.002Z</time></trkpt><trkpt lat="38.05120200677842" lon="15.675849918932174"><ele>106.33333333333333</ele><time>2026-04-25T07:23:50.002Z</time></trkpt><trkpt lat="38.05117586742911" lon="15.675945079885125"><ele>106.66666666666666</ele><time>2026-04-25T07:23:51.002Z</time></trkpt><trkpt lat="38.05113495551928" lon="15.67603081071446"><ele>107.0</ele><time>2026-04-25T07:23:52.002Z</time></trkpt><trkpt lat="38.05108995009919" lon="15.67612041629003"><ele>107.57142857142858</ele><time>2026-04-25T07:23:53.002Z</time></trkpt><trkpt lat="38.05107273043545" lon="15.676209737398153"><ele>108.14285714285714</ele><time>2026-04-25T07:23:54.002Z</time></trkpt><trkpt lat="38.05103650495212" lon="15.676291259245158"><ele>108.71428571428572</ele><time>2026-04-25T07:23:55.002Z</time></trkpt><trkpt lat="38.05102336893847" lon="15.676378303802739"><ele>109.28571428571429</ele><time>2026-04-25T07:23:56.001Z</time></trkpt><trkpt lat="38.051005468971525" lon="15.676457359875165"><ele>109.85714285714286</ele><time>2026-04-25T07:23:57.001Z</time></trkpt><trkpt lat="38.05098429546374" lon="15.676552918158803"><ele>110.42857142857143</ele><time>2026-04-25T07:23:58.001Z</time></trkpt><trkpt lat="38.0509724600634" lon="15.67664980173607"><ele>111.0</ele><time>2026-04-25T07:23:59.001Z</time></trkpt><trkpt lat="38.050960689481165" lon="15.67675082176613"><ele>111.0</ele><time>2026-04-25T07:24:00.001Z</time></trkpt><trkpt lat="38.05094368151134" lon="15.676831112321569"><ele>111.0</ele><time>2026-04-25T07:24:01.001Z</time></trkpt><trkpt lat="38.05091573239481" lon="15.676975314146722"><ele>111.0</ele><time>2026-04-25T07:24:03.001Z</time></trkpt><trkpt lat="38.05089824101499" lon="15.67705927179512"><ele>111.0</ele><time>2026-04-25T07:24:04.001Z</time></trkpt><trkpt lat="38.05084224712973" lon="15.677219168717672"><ele>111.0</ele><time>2026-04-25T07:24:06.001Z</time></trkpt><trkpt lat="38.050795959109465" lon="15.677302721302901"><ele>111.83333333333333</ele><time>2026-04-25T07:24:07.001Z</time></trkpt><trkpt lat="38.05075359321441" lon="15.677379381033726"><ele>112.66666666666666</ele><time>2026-04-25T07:24:08.001Z</time></trkpt><trkpt lat="38.050687383227775" lon="15.67752311685569"><ele>113.5</ele><time>2026-04-25T07:24:10.001Z</time></trkpt><trkpt lat="38.050628162195615" lon="15.677586286239988"><ele>114.33333333333333</ele><time>2026-04-25T07:24:11.001Z</time></trkpt><trkpt lat="38.050594787687636" lon="15.677669697810206"><ele>115.16666666666666</ele><time>2026-04-25T07:24:12.001Z</time></trkpt><trkpt lat="38.05054482994386" lon="15.677745410115751"><ele>116.0</ele><time>2026-04-25T07:24:13.001Z</time></trkpt><trkpt lat="38.05051431214687" lon="15.677836964733432"><ele>116.66666666666666</ele><time>2026-04-25T07:24:14.001Z</time></trkpt><trkpt lat="38.05046424778306" lon="15.67797843215649"><ele>117.33333333333333</ele><time>2026-04-25T07:24:16.001Z</time></trkpt><trkpt lat="38.05044291070684" lon="15.678058217748534"><ele>118.0</ele><time>2026-04-25T07:24:17.001Z</time></trkpt><trkpt lat="38.050442585681054" lon="15.678147600444078"><ele>118.66666666666666</ele><time>2026-04-25T07:24:18.001Z</time></trkpt><trkpt lat="38.05045175146003" lon="15.678239588392305"><ele>119.33333333333333</ele><time>2026-04-25T07:24:19.001Z</time></trkpt><trkpt lat="38.05043823326251" lon="15.678368444057476"><ele>120.0</ele><time>2026-04-25T07:24:21.001Z</time></trkpt><trkpt lat="38.05039851829935" lon="15.678503338051387"><ele>120.4</ele><time>2026-04-25T07:24:23.001Z</time></trkpt><trkpt lat="38.050371073633066" lon="15.678622615705951"><ele>120.8</ele><time>2026-04-25T07:24:25.001Z</time></trkpt><trkpt lat="38.050333978922275" lon="15.678755667580758"><ele>121.19999999999999</ele><time>2026-04-25T07:24:27.001Z</time></trkpt><trkpt lat="38.05027353356261" lon="15.678873650792486"><ele>121.6</ele><time>2026-04-25T07:24:29.001Z</time></trkpt><trkpt lat="38.05021641413821" lon="15.678985801448903"><ele>122.0</ele><time>2026-04-25T07:24:31.001Z</time></trkpt><trkpt lat="38.05016446629563" lon="15.679077768733844"><ele>122.0</ele><time>2026-04-25T07:24:33.001Z</time></trkpt><trkpt lat="38.05011372671225" lon="15.679165326951006"><ele>121.99999999999999</ele><time>2026-04-25T07:24:35.001Z</time></trkpt><trkpt lat="38.05005788991439" lon="15.67927751043241"><ele>121.99999999999999</ele><time>2026-04-25T07:24:37.001Z</time></trkpt><trkpt lat="38.04999735495947" lon="15.67936373783381"><ele>122.0</ele><time>2026-04-25T07:24:39.001Z</time></trkpt><trkpt lat="38.04996625819174" lon="15.679477951400257"><ele>122.0</ele><time>2026-04-25T07:24:41.001Z</time></trkpt><trkpt lat="38.04991401814314" lon="15.679612864816695"><ele>123.0</ele><time>2026-04-25T07:24:43.001Z</time></trkpt><trkpt lat="38.04987411037292" lon="15.679753108800261"><ele>123.99999999999999</ele><time>2026-04-25T07:24:45.001Z</time></trkpt><trkpt lat="38.04983788804588" lon="15.679881123236628"><ele>124.99999999999999</ele><time>2026-04-25T07:24:47.001Z</time></trkpt><trkpt lat="38.04979082986761" lon="15.680043433115658"><ele>126.0</ele><time>2026-04-25T07:24:49.001Z</time></trkpt><trkpt lat="38.04976487529095" lon="15.680124837483035"><ele>127.0</ele><time>2026-04-25T07:24:50.001Z</time></trkpt><trkpt lat="38.04974612385191" lon="15.680224536181527"><ele>128.25</ele><time>2026-04-25T07:24:51.001Z</time></trkpt><trkpt lat="38.049729031766944" lon="15.680306980376649"><ele>129.5</ele><time>2026-04-25T07:24:52.001Z</time></trkpt><trkpt lat="38.04967466604974" lon="15.68044629045742"><ele>130.75</ele><time>2026-04-25T07:24:54.001Z</time></trkpt><trkpt lat="38.04963956391042" lon="15.680522793976305"><ele>132.0</ele><time>2026-04-25T07:24:55.001Z</time></trkpt><trkpt lat="38.049439162268285" lon="15.6805802759663"><ele>132.0</ele><time>2026-04-25T07:24:57.001Z</time></trkpt><trkpt lat="38.04940508455641" lon="15.680668848686114"><ele>132.0</ele><time>2026-04-25T07:24:58.001Z</time></trkpt><trkpt lat="38.049375025915516" lon="15.680747239835792"><ele>132.0</ele><time>2026-04-25T07:24:59.001Z</time></trkpt><trkpt lat="38.04934817272969" lon="15.6808441309218"><ele>132.0</ele><time>2026-04-25T07:25:00.001Z</time></trkpt><trkpt lat="38.04932451190205" lon="15.680934292985668"><ele>132.0</ele><time>2026-04-25T07:25:01.001Z</time></trkpt><trkpt lat="38.049283587165675" lon="15.681043835421484"><ele>132.0</ele><time>2026-04-25T07:25:03.001Z</time></trkpt><trkpt lat="38.04922449170867" lon="15.681137365340302"><ele>132.25</ele><time>2026-04-25T07:25:05.001Z</time></trkpt><trkpt lat="38.04916444120783" lon="15.681306387897894"><ele>132.5</ele><time>2026-04-25T07:25:06.001Z</time></trkpt><trkpt lat="38.049132490969455" lon="15.681465123286312"><ele>132.75</ele><time>2026-04-25T07:25:07.001Z</time></trkpt><trkpt lat="38.049118513290594" lon="15.681625936294298"><ele>133.0</ele><time>2026-04-25T07:25:08.001Z</time></trkpt><trkpt lat="38.04912064146985" lon="15.681730898042051"><ele>133.4</ele><time>2026-04-25T07:25:09.001Z</time></trkpt><trkpt lat="38.04911523753059" lon="15.681830105753047"><ele>133.8</ele><time>2026-04-25T07:25:10.001Z</time></trkpt><trkpt lat="38.049110149869534" lon="15.681923504485166"><ele>134.2</ele><time>2026-04-25T07:25:11.001Z</time></trkpt><trkpt lat="38.049101331091975" lon="15.682040375066423"><ele>134.6</ele><time>2026-04-25T07:25:13.002Z</time></trkpt><trkpt lat="38.049059430765645" lon="15.682190818753437"><ele>135.0</ele><time>2026-04-25T07:25:15.002Z</time></trkpt><trkpt lat="38.04902356489248" lon="15.68229133882204"><ele>136.0</ele><time>2026-04-25T07:25:16.002Z</time></trkpt><trkpt lat="38.04899112700197" lon="15.682382251614927"><ele>137.0</ele><time>2026-04-25T07:25:17.002Z</time></trkpt><trkpt lat="38.048961414945154" lon="15.682497135757163"><ele>138.0</ele><time>2026-04-25T07:25:18.002Z</time></trkpt><trkpt lat="38.04893858062099" lon="15.682609635519213"><ele>139.0</ele><time>2026-04-25T07:25:19.002Z</time></trkpt><trkpt lat="38.04891969045607" lon="15.682726524786098"><ele>140.0</ele><time>2026-04-25T07:25:20.002Z</time></trkpt><trkpt lat="38.04890721776599" lon="15.68282319078273"><ele>141.0</ele><time>2026-04-25T07:25:21.002Z</time></trkpt><trkpt lat="38.048894202992635" lon="15.682916006675088"><ele>142.0</ele><time>2026-04-25T07:25:22.002Z</time></trkpt><trkpt lat="38.04888150232325" lon="15.683006584396175"><ele>143.0</ele><time>2026-04-25T07:25:23.002Z</time></trkpt><trkpt lat="38.048863445915615" lon="15.68313536031829"><ele>144.0</ele><time>2026-04-25T07:25:25.002Z</time></trkpt><trkpt lat="38.049034357448654" lon="15.683246436501893"><ele>145.0</ele><time>2026-04-25T07:25:26.002Z</time></trkpt><trkpt lat="38.04908722913554" lon="15.683385135481256"><ele>145.0</ele><time>2026-04-25T07:25:28.002Z</time></trkpt><trkpt lat="38.04906627008163" lon="15.68353157313127"><ele>145.0</ele><time>2026-04-25T07:25:30.002Z</time></trkpt><trkpt lat="38.04908233414669" lon="15.68361661137836"><ele>145.0</ele><time>2026-04-25T07:25:33.002Z</time></trkpt><trkpt lat="38.04910384825437" lon="15.683713571586626"><ele>145.0</ele><time>2026-04-25T07:25:35.002Z</time></trkpt><trkpt lat="38.0490936333262" lon="15.683848144229284"><ele>145.0</ele><time>2026-04-25T07:25:37.002Z</time></trkpt><trkpt lat="38.049093633328205" lon="15.683941537093576"><ele>145.0</ele><time>2026-04-25T07:25:38.002Z</time></trkpt><trkpt lat="38.04910581065075" lon="15.684051510357888"><ele>145.75</ele><time>2026-04-25T07:25:39.002Z</time></trkpt><trkpt lat="38.04910697962144" lon="15.68419527216586"><ele>146.5</ele><time>2026-04-25T07:25:41.002Z</time></trkpt><trkpt lat="38.04898654576411" lon="15.684371393170045"><ele>147.25</ele><time>2026-04-25T07:25:43.002Z</time></trkpt><trkpt lat="38.048917994510866" lon="15.68445468263821"><ele>148.0</ele><time>2026-04-25T07:25:44.002Z</time></trkpt><trkpt lat="38.048850230545554" lon="15.68454623732534"><ele>148.0</ele><time>2026-04-25T07:25:45.002Z</time></trkpt><trkpt lat="38.048777242434205" lon="15.684649508156236"><ele>148.0</ele><time>2026-04-25T07:25:46.002Z</time></trkpt><trkpt lat="38.04872294983529" lon="15.684767448470657"><ele>148.0</ele><time>2026-04-25T07:25:47.002Z</time></trkpt><trkpt lat="38.04865111085308" lon="15.684870653674126"><ele>148.0</ele><time>2026-04-25T07:25:48.002Z</time></trkpt><trkpt lat="38.04858995056863" lon="15.684983887564881"><ele>148.0</ele><time>2026-04-25T07:25:49.002Z</time></trkpt><trkpt lat="38.0485347636316" lon="15.685073118612921"><ele>148.0</ele><time>2026-04-25T07:25:50.002Z</time></trkpt><trkpt lat="38.04848346707403" lon="15.685159257540946"><ele>148.0</ele><time>2026-04-25T07:25:51.002Z</time></trkpt><trkpt lat="38.04844307469923" lon="15.685262613782166"><ele>148.0</ele><time>2026-04-25T07:25:52.002Z</time></trkpt><trkpt lat="38.04840852735284" lon="15.685377920867431"><ele>148.0</ele><time>2026-04-25T07:25:53.002Z</time></trkpt><trkpt lat="38.0483684509528" lon="15.68549375912677"><ele>148.0</ele><time>2026-04-25T07:25:54.002Z</time></trkpt><trkpt lat="38.048339782000156" lon="15.685605936873495"><ele>148.6</ele><time>2026-04-25T07:25:55.002Z</time></trkpt><trkpt lat="38.04831561794634" lon="15.685728874679853"><ele>149.20000000000002</ele><time>2026-04-25T07:25:56.002Z</time></trkpt><trkpt lat="38.04830885345944" lon="15.685855042282787"><ele>149.8</ele><time>2026-04-25T07:25:57.002Z</time></trkpt><trkpt lat="38.048310424509914" lon="15.685994292298703"><ele>150.4</ele><time>2026-04-25T07:25:58.002Z</time></trkpt><trkpt lat="38.04830923205365" lon="15.686155004187764"><ele>151.0</ele><time>2026-04-25T07:25:59.002Z</time></trkpt><trkpt lat="38.04830421712444" lon="15.686311033503477"><ele>153.25</ele><time>2026-04-25T07:26:00.002Z</time></trkpt><trkpt lat="38.048265935363546" lon="15.686465721152594"><ele>155.5</ele><time>2026-04-25T07:26:01.002Z</time></trkpt><trkpt lat="38.048251108880706" lon="15.686614672254558"><ele>157.75</ele><time>2026-04-25T07:26:02.001Z</time></trkpt><trkpt lat="38.04821795858048" lon="15.686749775954295"><ele>160.0</ele><time>2026-04-25T07:26:03.001Z</time></trkpt><trkpt lat="38.04819314043757" lon="15.686888544078977"><ele>159.5</ele><time>2026-04-25T07:26:04.001Z</time></trkpt><trkpt lat="38.04816907322699" lon="15.687024083441036"><ele>159.0</ele><time>2026-04-25T07:26:05.001Z</time></trkpt><trkpt lat="38.04813029879832" lon="15.687159598171432"><ele>158.5</ele><time>2026-04-25T07:26:06.001Z</time></trkpt><trkpt lat="38.04811552686169" lon="15.687304079834743"><ele>158.0</ele><time>2026-04-25T07:26:07.001Z</time></trkpt><trkpt lat="38.04809345560733" lon="15.687448470621344"><ele>158.0</ele><time>2026-04-25T07:26:08.001Z</time></trkpt><trkpt lat="38.04807041409557" lon="15.687592171304543"><ele>158.0</ele><time>2026-04-25T07:26:09.001Z</time></trkpt><trkpt lat="38.04805164259994" lon="15.687740921745272"><ele>158.0</ele><time>2026-04-25T07:26:10.001Z</time></trkpt><trkpt lat="38.04803117264294" lon="15.687885747799786"><ele>158.0</ele><time>2026-04-25T07:26:11.001Z</time></trkpt><trkpt lat="38.0480090632128" lon="15.688029941972214"><ele>159.25</ele><time>2026-04-25T07:26:12.001Z</time></trkpt><trkpt lat="38.04798636793311" lon="15.688178713585915"><ele>160.5</ele><time>2026-04-25T07:26:13.001Z</time></trkpt><trkpt lat="38.047966640953376" lon="15.688352356296477"><ele>161.75</ele><time>2026-04-25T07:26:14.001Z</time></trkpt><trkpt lat="38.04795479905862" lon="15.68847934827618"><ele>163.0</ele><time>2026-04-25T07:26:15.001Z</time></trkpt><trkpt lat="38.04794929649283" lon="15.688624917154725"><ele>163.4</ele><time>2026-04-25T07:26:16.001Z</time></trkpt><trkpt lat="38.04794610903979" lon="15.688769522179182"><ele>163.8</ele><time>2026-04-25T07:26:17.001Z</time></trkpt><trkpt lat="38.04795384504233" lon="15.688918992447856"><ele>164.2</ele><time>2026-04-25T07:26:18.001Z</time></trkpt><trkpt lat="38.047954334491436" lon="15.689055397119414"><ele>164.6</ele><time>2026-04-25T07:26:19.001Z</time></trkpt><trkpt lat="38.04792918244259" lon="15.68916630655169"><ele>165.0</ele><time>2026-04-25T07:26:20.001Z</time></trkpt><trkpt lat="38.047914802339236" lon="15.689272143416654"><ele>165.0</ele><time>2026-04-25T07:26:21.001Z</time></trkpt><trkpt lat="38.0478931147048" lon="15.689401958109533"><ele>165.0</ele><time>2026-04-25T07:26:22.001Z</time></trkpt><trkpt lat="38.04786416161617" lon="15.689546389071523"><ele>165.0</ele><time>2026-04-25T07:26:23.001Z</time></trkpt><trkpt lat="38.047848056040465" lon="15.689707909621575"><ele>165.0</ele><time>2026-04-25T07:26:24.001Z</time></trkpt><trkpt lat="38.04783398904561" lon="15.689852975225175"><ele>165.8</ele><time>2026-04-25T07:26:25.001Z</time></trkpt><trkpt lat="38.04781404495478" lon="15.690000812047947"><ele>166.6</ele><time>2026-04-25T07:26:26.001Z</time></trkpt><trkpt lat="38.047798333899166" lon="15.690138539928551"><ele>167.39999999999998</ele><time>2026-04-25T07:26:27.001Z</time></trkpt><trkpt lat="38.047789463399106" lon="15.690263058418097"><ele>168.2</ele><time>2026-04-25T07:26:28.001Z</time></trkpt><trkpt lat="38.047779485624645" lon="15.690382794523094"><ele>169.0</ele><time>2026-04-25T07:26:29.001Z</time></trkpt><trkpt lat="38.04777119826438" lon="15.690487563539529"><ele>170.75</ele><time>2026-04-25T07:26:30.001Z</time></trkpt><trkpt lat="38.04775982270354" lon="15.690601164078263"><ele>172.5</ele><time>2026-04-25T07:26:31.001Z</time></trkpt><trkpt lat="38.04777744865563" lon="15.690757160145376"><ele>174.25</ele><time>2026-04-25T07:26:32.001Z</time></trkpt><trkpt lat="38.047780443090524" lon="15.69092162886568"><ele>176.0</ele><time>2026-04-25T07:26:33.001Z</time></trkpt><trkpt lat="38.04778256253976" lon="15.69107529259796"><ele>177.0</ele><time>2026-04-25T07:26:34.001Z</time></trkpt><trkpt lat="38.04778677424013" lon="15.691218359996721"><ele>178.0</ele><time>2026-04-25T07:26:35.001Z</time></trkpt><trkpt lat="38.047765924162945" lon="15.691352793565349"><ele>179.0</ele><time>2026-04-25T07:26:36.001Z</time></trkpt><trkpt lat="38.047756531707485" lon="15.691496166624061"><ele>180.0</ele><time>2026-04-25T07:26:37.001Z</time></trkpt><trkpt lat="38.047746264984475" lon="15.691646925445557"><ele>180.0</ele><time>2026-04-25T07:26:38.001Z</time></trkpt><trkpt lat="38.04773755246276" lon="15.691801565880931"><ele>180.0</ele><time>2026-04-25T07:26:39.001Z</time></trkpt><trkpt lat="38.04774163749819" lon="15.691957481357553"><ele>180.0</ele><time>2026-04-25T07:26:40.001Z</time></trkpt><trkpt lat="38.0477367991869" lon="15.692099657639567"><ele>180.0</ele><time>2026-04-25T07:26:41.001Z</time></trkpt><trkpt lat="38.04774629836085" lon="15.69222585263577"><ele>181.0</ele><time>2026-04-25T07:26:42.001Z</time></trkpt><trkpt lat="38.04777996159591" lon="15.692336339365196"><ele>182.0</ele><time>2026-04-25T07:26:43.001Z</time></trkpt><trkpt lat="38.04779928524075" lon="15.692437487061579"><ele>183.0</ele><time>2026-04-25T07:26:44.001Z</time></trkpt><trkpt lat="38.04781113803344" lon="15.69259710418689"><ele>184.0</ele><time>2026-04-25T07:26:46.001Z</time></trkpt><trkpt lat="38.04781344867798" lon="15.692709330183103"><ele>185.0</ele><time>2026-04-25T07:26:47.001Z</time></trkpt><trkpt lat="38.04780686010873" lon="15.692837559026879"><ele>186.0</ele><time>2026-04-25T07:26:48.001Z</time></trkpt><trkpt lat="38.047807240967025" lon="15.692955611168324"><ele>187.0</ele><time>2026-04-25T07:26:49.001Z</time></trkpt><trkpt lat="38.04779270337166" lon="15.693066223085998"><ele>188.0</ele><time>2026-04-25T07:26:50.001Z</time></trkpt><trkpt lat="38.04777327861485" lon="15.693201583151938"><ele>189.0</ele><time>2026-04-25T07:26:51.001Z</time></trkpt><trkpt lat="38.04777380804204" lon="15.693318493851462"><ele>190.0</ele><time>2026-04-25T07:26:52.001Z</time></trkpt><trkpt lat="38.04776994603184" lon="15.693424584452208"><ele>190.0</ele><time>2026-04-25T07:26:53.001Z</time></trkpt><trkpt lat="38.04776379877827" lon="15.693541148211345"><ele>190.0</ele><time>2026-04-25T07:26:54.001Z</time></trkpt><trkpt lat="38.04776825277274" lon="15.69364465548134"><ele>190.0</ele><time>2026-04-25T07:26:55.001Z</time></trkpt><trkpt lat="38.04777686837445" lon="15.693743615435109"><ele>190.0</ele><time>2026-04-25T07:26:56.001Z</time></trkpt><trkpt lat="38.047774624287506" lon="15.693841022478356"><ele>190.0</ele><time>2026-04-25T07:26:57.001Z</time></trkpt><trkpt lat="38.047772629445845" lon="15.693939185595955"><ele>190.0</ele><time>2026-04-25T07:26:58.001Z</time></trkpt><trkpt lat="38.04776969876032" lon="15.69403724647984"><ele>190.5</ele><time>2026-04-25T07:26:59.001Z</time></trkpt><trkpt lat="38.04778157694398" lon="15.694159603588844"><ele>191.0</ele><time>2026-04-25T07:27:00.001Z</time></trkpt><trkpt lat="38.047768558920055" lon="15.694261879096967"><ele>191.5</ele><time>2026-04-25T07:27:01.001Z</time></trkpt><trkpt lat="38.04776792879866" lon="15.694368797720658"><ele>192.0</ele><time>2026-04-25T07:27:02.001Z</time></trkpt><trkpt lat="38.04776695405185" lon="15.694485038518806"><ele>192.49999999999997</ele><time>2026-04-25T07:27:03.001Z</time></trkpt><trkpt lat="38.04776521193128" lon="15.694581875149451"><ele>193.0</ele><time>2026-04-25T07:27:04.001Z</time></trkpt><trkpt lat="38.04774631225912" lon="15.694659193877147"><ele>193.8</ele><time>2026-04-25T07:27:05.001Z</time></trkpt><trkpt lat="38.04773695091581" lon="15.694802623145915"><ele>194.60000000000002</ele><time>2026-04-25T07:27:07.001Z</time></trkpt><trkpt lat="38.047741377849896" lon="15.694950708556904"><ele>195.39999999999998</ele><time>2026-04-25T07:27:09.001Z</time></trkpt><trkpt lat="38.04772725551411" lon="15.69509718049535"><ele>196.2</ele><time>2026-04-25T07:27:11.001Z</time></trkpt><trkpt lat="38.047698664876286" lon="15.695185484242794"><ele>197.0</ele><time>2026-04-25T07:27:12.001Z</time></trkpt><trkpt lat="38.04768219846559" lon="15.695271855281055"><ele>197.83333333333334</ele><time>2026-04-25T07:27:13.001Z</time></trkpt><trkpt lat="38.047675965555555" lon="15.695364532730643"><ele>198.66666666666669</ele><time>2026-04-25T07:27:15.001Z</time></trkpt><trkpt lat="38.04764737007664" lon="15.69544912178576"><ele>199.5</ele><time>2026-04-25T07:27:19.001Z</time></trkpt><trkpt lat="38.04761571866836" lon="15.695540841486213"><ele>200.33333333333331</ele><time>2026-04-25T07:27:21.002Z</time></trkpt><trkpt lat="38.0477531227235" lon="15.695600263952846"><ele>201.16666666666666</ele><time>2026-04-25T07:27:22.002Z</time></trkpt><trkpt lat="38.04777178926957" lon="15.695697698526088"><ele>202.0</ele><time>2026-04-25T07:27:23.002Z</time></trkpt><trkpt lat="38.047788458847855" lon="15.695784709636387"><ele>201.99999999999997</ele><time>2026-04-25T07:27:24.002Z</time></trkpt><trkpt lat="38.0478064080477" lon="15.695878398122522"><ele>202.0</ele><time>2026-04-25T07:27:25.002Z</time></trkpt><trkpt lat="38.04782383513915" lon="15.695969942056603"><ele>202.0</ele><time>2026-04-25T07:27:26.002Z</time></trkpt><trkpt lat="38.047836239549284" lon="15.696078626239268"><ele>202.0</ele><time>2026-04-25T07:27:27.002Z</time></trkpt><trkpt lat="38.047859476682795" lon="15.696156638383343"><ele>201.99999999999997</ele><time>2026-04-25T07:27:28.002Z</time></trkpt><trkpt lat="38.047867526431865" lon="15.696253707621272"><ele>202.0</ele><time>2026-04-25T07:27:29.002Z</time></trkpt><trkpt lat="38.04789595117884" lon="15.696475369910226"><ele>202.33333333333331</ele><time>2026-04-25T07:27:31.002Z</time></trkpt><trkpt lat="38.04789543346477" lon="15.696670750042172"><ele>202.66666666666669</ele><time>2026-04-25T07:27:32.002Z</time></trkpt><trkpt lat="38.04786360786662" lon="15.696779651386988"><ele>203.0</ele><time>2026-04-25T07:27:33.002Z</time></trkpt><trkpt lat="38.04731853196516" lon="15.696892776766543"><ele>204.16666666666669</ele><time>2026-04-25T07:27:34.002Z</time></trkpt><trkpt lat="38.047286089085986" lon="15.696991011027214"><ele>205.33333333333334</ele><time>2026-04-25T07:27:35.002Z</time></trkpt><trkpt lat="38.0472514680495" lon="15.69708155738844"><ele>206.5</ele><time>2026-04-25T07:27:36.002Z</time></trkpt><trkpt lat="38.04721839010475" lon="15.697163677178057"><ele>207.66666666666669</ele><time>2026-04-25T07:27:37.002Z</time></trkpt><trkpt lat="38.04718387455809" lon="15.697272548279757"><ele>208.83333333333334</ele><time>2026-04-25T07:27:39.002Z</time></trkpt><trkpt lat="38.04714737776541" lon="15.697396311721587"><ele>210.0</ele><time>2026-04-25T07:27:41.002Z</time></trkpt><trkpt lat="38.04712967491063" lon="15.697476530652398"><ele>210.0</ele><time>2026-04-25T07:27:42.002Z</time></trkpt><trkpt lat="38.04710374821377" lon="15.697630101838888"><ele>210.0</ele><time>2026-04-25T07:27:44.002Z</time></trkpt><trkpt lat="38.047074909026776" lon="15.69778614610941"><ele>210.0</ele><time>2026-04-25T07:27:46.002Z</time></trkpt><trkpt lat="38.04705509512278" lon="15.697866366169148"><ele>210.0</ele><time>2026-04-25T07:27:47.002Z</time></trkpt><trkpt lat="38.047036460088044" lon="15.697949463228577"><ele>210.0</ele><time>2026-04-25T07:27:48.002Z</time></trkpt><trkpt lat="38.047022483219074" lon="15.698029368128033"><ele>210.0</ele><time>2026-04-25T07:27:49.002Z</time></trkpt><trkpt lat="38.046989414034094" lon="15.698159012474715"><ele>211.0</ele><time>2026-04-25T07:27:51.002Z</time></trkpt><trkpt lat="38.04690888192012" lon="15.698368741481838"><ele>212.0</ele><time>2026-04-25T07:27:54.002Z</time></trkpt><trkpt lat="38.04686526674986" lon="15.69850869171828"><ele>213.0</ele><time>2026-04-25T07:27:56.002Z</time></trkpt><trkpt lat="38.04680128559107" lon="15.698636096701543"><ele>214.0</ele><time>2026-04-25T07:27:58.002Z</time></trkpt><trkpt lat="38.04674965334813" lon="15.698740978734934"><ele>214.33333333333331</ele><time>2026-04-25T07:28:00.002Z</time></trkpt><trkpt lat="38.04675485176811" lon="15.698834995736654"><ele>214.66666666666666</ele><time>2026-04-25T07:28:16.001Z</time></trkpt><trkpt lat="38.04674934725995" lon="15.699000909499826"><ele>215.0</ele><time>2026-04-25T07:28:18.001Z</time></trkpt><trkpt lat="38.046737373199086" lon="15.699088659090979"><ele>215.33333333333331</ele><time>2026-04-25T07:28:19.001Z</time></trkpt><trkpt lat="38.046716860733746" lon="15.699177312920199"><ele>215.66666666666666</ele><time>2026-04-25T07:28:20.001Z</time></trkpt><trkpt lat="38.046683010387056" lon="15.699285818989386"><ele>216.0</ele><time>2026-04-25T07:28:21.001Z</time></trkpt><trkpt lat="38.04664550799523" lon="15.699403411271682"><ele>217.20000000000002</ele><time>2026-04-25T07:28:22.001Z</time></trkpt><trkpt lat="38.04660835422191" lon="15.699529269031755"><ele>218.40000000000003</ele><time>2026-04-25T07:28:23.001Z</time></trkpt><trkpt lat="38.04656832161769" lon="15.699663374608551"><ele>219.6</ele><time>2026-04-25T07:28:24.001Z</time></trkpt><trkpt lat="38.04653351840829" lon="15.699784612089244"><ele>220.8</ele><time>2026-04-25T07:28:25.001Z</time></trkpt><trkpt lat="38.04649090198445" lon="15.699918920806216"><ele>222.0</ele><time>2026-04-25T07:28:26.001Z</time></trkpt><trkpt lat="38.04645331077881" lon="15.7000431606207"><ele>222.0</ele><time>2026-04-25T07:28:27.001Z</time></trkpt><trkpt lat="38.04642385210566" lon="15.700166185797993"><ele>222.0</ele><time>2026-04-25T07:28:28.001Z</time></trkpt><trkpt lat="38.04639591791557" lon="15.700302760031368"><ele>222.0</ele><time>2026-04-25T07:28:29.001Z</time></trkpt><trkpt lat="38.046364432216144" lon="15.700439417396613"><ele>222.0</ele><time>2026-04-25T07:28:30.001Z</time></trkpt><trkpt lat="38.04632882969681" lon="15.700569826041681"><ele>222.0</ele><time>2026-04-25T07:28:31.001Z</time></trkpt><trkpt lat="38.04630131455979" lon="15.700683906083933"><ele>222.33333333333334</ele><time>2026-04-25T07:28:32.001Z</time></trkpt><trkpt lat="38.046276782912315" lon="15.700784479917345"><ele>222.66666666666669</ele><time>2026-04-25T07:28:33.001Z</time></trkpt><trkpt lat="38.0462682096616" lon="15.700885975032557"><ele>223.0</ele><time>2026-04-25T07:28:34.001Z</time></trkpt><trkpt lat="38.04625054732821" lon="15.700983035183194"><ele>223.33333333333334</ele><time>2026-04-25T07:28:35.001Z</time></trkpt><trkpt lat="38.046227268484465" lon="15.70109051840176"><ele>223.66666666666669</ele><time>2026-04-25T07:28:36.001Z</time></trkpt><trkpt lat="38.0461914810271" lon="15.70120862359814"><ele>224.0</ele><time>2026-04-25T07:28:37.001Z</time></trkpt><trkpt lat="38.04615218008312" lon="15.701336142417455"><ele>225.2</ele><time>2026-04-25T07:28:38.001Z</time></trkpt><trkpt lat="38.04611898600638" lon="15.701466900433957"><ele>226.39999999999998</ele><time>2026-04-25T07:28:39.001Z</time></trkpt><trkpt lat="38.04609581906072" lon="15.701595923857663"><ele>227.6</ele><time>2026-04-25T07:28:40.001Z</time></trkpt><trkpt lat="38.04606925508901" lon="15.701713377179917"><ele>228.8</ele><time>2026-04-25T07:28:41.001Z</time></trkpt><trkpt lat="38.04604227841974" lon="15.701821028464932"><ele>230.0</ele><time>2026-04-25T07:28:42.001Z</time></trkpt><trkpt lat="38.046016306006166" lon="15.701920577139422"><ele>231.0</ele><time>2026-04-25T07:28:43.001Z</time></trkpt><trkpt lat="38.04599131366152" lon="15.70203509074632"><ele>232.0</ele><time>2026-04-25T07:28:44.001Z</time></trkpt><trkpt lat="38.04595121379118" lon="15.70226260203482"><ele>233.0</ele><time>2026-04-25T07:28:46.001Z</time></trkpt><trkpt lat="38.045928443354185" lon="15.7023852450404"><ele>234.0</ele><time>2026-04-25T07:28:47.001Z</time></trkpt><trkpt lat="38.04589839300034" lon="15.702517163218063"><ele>234.0</ele><time>2026-04-25T07:28:48.001Z</time></trkpt><trkpt lat="38.045863539949416" lon="15.70266706072202"><ele>234.0</ele><time>2026-04-25T07:28:49.001Z</time></trkpt><trkpt lat="38.04582470316792" lon="15.702828536385438"><ele>234.0</ele><time>2026-04-25T07:28:50.001Z</time></trkpt><trkpt lat="38.04579637167015" lon="15.702975701292162"><ele>234.0</ele><time>2026-04-25T07:28:51.001Z</time></trkpt><trkpt lat="38.045770468267" lon="15.703093619881784"><ele>235.33333333333334</ele><time>2026-04-25T07:28:52.001Z</time></trkpt><trkpt lat="38.04575015867593" lon="15.703187690013609"><ele>236.66666666666669</ele><time>2026-04-25T07:28:53.001Z</time></trkpt><trkpt lat="38.04573251143884" lon="15.703266782872989"><ele>238.0</ele><time>2026-04-25T07:28:54.001Z</time></trkpt><trkpt lat="38.0457039899657" lon="15.703385523771548"><ele>239.33333333333334</ele><time>2026-04-25T07:28:56.001Z</time></trkpt><trkpt lat="38.04563161521742" lon="15.703437660573949"><ele>240.66666666666669</ele><time>2026-04-25T07:28:59.001Z</time></trkpt><trkpt lat="38.04551007205423" lon="15.703400751390566"><ele>242.0</ele><time>2026-04-25T07:29:01.001Z</time></trkpt><trkpt lat="38.04542355479822" lon="15.703379968382261"><ele>242.00000000000003</ele><time>2026-04-25T07:29:02.001Z</time></trkpt><trkpt lat="38.045351260357" lon="15.703374734601482"><ele>242.0</ele><time>2026-04-25T07:29:03.001Z</time></trkpt><trkpt lat="38.04525166737723" lon="15.703373634481482"><ele>242.0</ele><time>2026-04-25T07:29:05.001Z</time></trkpt><trkpt lat="38.04518222311915" lon="15.703375397908209"><ele>242.0</ele><time>2026-04-25T07:29:07.001Z</time></trkpt><trkpt lat="38.04511058115127" lon="15.703386333928673"><ele>242.00000000000003</ele><time>2026-04-25T07:29:10.001Z</time></trkpt><trkpt lat="38.04503794989576" lon="15.70339370721563"><ele>242.0</ele><time>2026-04-25T07:29:13.001Z</time></trkpt><trkpt lat="38.04493792366364" lon="15.703451293010586"><ele>243.33333333333334</ele><time>2026-04-25T07:29:16.001Z</time></trkpt><trkpt lat="38.04482918348857" lon="15.703493412653305"><ele>244.66666666666669</ele><time>2026-04-25T07:29:18.001Z</time></trkpt><trkpt lat="38.04476127682661" lon="15.703507040586164"><ele>246.0</ele><time>2026-04-25T07:29:19.001Z</time></trkpt><trkpt lat="38.04468558061991" lon="15.703509165406214"><ele>247.33333333333331</ele><time>2026-04-25T07:29:20.001Z</time></trkpt><trkpt lat="38.04461477631818" lon="15.703512675345769"><ele>248.66666666666666</ele><time>2026-04-25T07:29:21.001Z</time></trkpt><trkpt lat="38.04453810892053" lon="15.703504004091487"><ele>250.0</ele><time>2026-04-25T07:29:22.001Z</time></trkpt><trkpt lat="38.04460582669188" lon="15.70349539028111"><ele>250.0</ele><time>2026-04-25T07:29:59.001Z</time></trkpt><trkpt lat="38.04469118427953" lon="15.703487605564588"><ele>250.0</ele><time>2026-04-25T07:30:01.001Z</time></trkpt><trkpt lat="38.04475939822418" lon="15.703482938760537"><ele>250.0</ele><time>2026-04-25T07:30:02.001Z</time></trkpt><trkpt lat="38.04482296373162" lon="15.703498949424562"><ele>250.0</ele><time>2026-04-25T07:30:03.001Z</time></trkpt><trkpt lat="38.04496626036799" lon="15.703410049920674"><ele>250.0</ele><time>2026-04-25T07:30:06.002Z</time></trkpt><trkpt lat="38.04502057714044" lon="15.703319730670046"><ele>248.66666666666666</ele><time>2026-04-25T07:30:08.002Z</time></trkpt><trkpt lat="38.0450837951668" lon="15.703271341658583"><ele>247.33333333333331</ele><time>2026-04-25T07:30:11.002Z</time></trkpt><trkpt lat="38.0451507639993" lon="15.703276970531164"><ele>246.0</ele><time>2026-04-25T07:30:13.002Z</time></trkpt><trkpt lat="38.0452279092309" lon="15.703306654165582"><ele>244.66666666666669</ele><time>2026-04-25T07:30:15Z</time></trkpt><trkpt lat="38.045349979320456" lon="15.703332455788052"><ele>243.33333333333334</ele><time>2026-04-25T07:30:17Z</time></trkpt><trkpt lat="38.04543951490503" lon="15.70335138068165"><ele>242.0</ele><time>2026-04-25T07:30:18Z</time></trkpt><trkpt lat="38.0455268546398" lon="15.703369841443326"><ele>242.0</ele><time>2026-04-25T07:30:19Z</time></trkpt><trkpt lat="38.0456035709844" lon="15.703386056772544"><ele>242.0</ele><time>2026-04-25T07:30:20Z</time></trkpt><trkpt lat="38.04568241274183" lon="15.70340272134349"><ele>242.0</ele><time>2026-04-25T07:30:22Z</time></trkpt><trkpt lat="38.04576477563556" lon="15.703094139744303"><ele>242.0</ele><time>2026-04-25T07:30:34Z</time></trkpt><trkpt lat="38.04578938367668" lon="15.702985432624622"><ele>241.6</ele><time>2026-04-25T07:30:35Z</time></trkpt><trkpt lat="38.045814910159706" lon="15.702853749715509"><ele>241.2</ele><time>2026-04-25T07:30:36Z</time></trkpt><trkpt lat="38.045842123665004" lon="15.702730867337058"><ele>240.8</ele><time>2026-04-25T07:30:37Z</time></trkpt><trkpt lat="38.04587134785086" lon="15.702612317217767"><ele>240.4</ele><time>2026-04-25T07:30:38Z</time></trkpt><trkpt lat="38.0459015135921" lon="15.70248190864313"><ele>240.0</ele><time>2026-04-25T07:30:39Z</time></trkpt><trkpt lat="38.04592940216164" lon="15.702351269254578"><ele>238.8</ele><time>2026-04-25T07:30:40Z</time></trkpt><trkpt lat="38.04595716967204" lon="15.702208924571508"><ele>237.6</ele><time>2026-04-25T07:30:41Z</time></trkpt><trkpt lat="38.04598150800659" lon="15.702076025533279"><ele>236.39999999999998</ele><time>2026-04-25T07:30:42Z</time></trkpt><trkpt lat="38.046002789556155" lon="15.701968783737122"><ele>235.2</ele><time>2026-04-25T07:30:43Z</time></trkpt><trkpt lat="38.04603556812926" lon="15.701833901801226"><ele>234.0</ele><time>2026-04-25T07:30:45Z</time></trkpt><trkpt lat="38.04606897182153" lon="15.701687095224377"><ele>233.33333333333334</ele><time>2026-04-25T07:30:47Z</time></trkpt><trkpt lat="38.046108329674084" lon="15.701532883042509"><ele>232.66666666666669</ele><time>2026-04-25T07:30:49Z</time></trkpt><trkpt lat="38.0461183067248" lon="15.701437175991336"><ele>232.0</ele><time>2026-04-25T07:30:50Z</time></trkpt><trkpt lat="38.04614731854956" lon="15.70135167052071"><ele>231.33333333333334</ele><time>2026-04-25T07:30:51Z</time></trkpt><trkpt lat="38.0461724637686" lon="15.701271998197017"><ele>230.66666666666669</ele><time>2026-04-25T07:30:52Z</time></trkpt><trkpt lat="38.04619275438372" lon="15.701172027706239"><ele>230.0</ele><time>2026-04-25T07:30:53Z</time></trkpt><trkpt lat="38.04622375337362" lon="15.701051193952319"><ele>229.00000000000003</ele><time>2026-04-25T07:30:54Z</time></trkpt><trkpt lat="38.046245952215436" lon="15.700963482572973"><ele>228.0</ele><time>2026-04-25T07:30:55.001Z</time></trkpt><trkpt lat="38.04626357288308" lon="15.700870040463276"><ele>227.0</ele><time>2026-04-25T07:30:56.001Z</time></trkpt><trkpt lat="38.0462777069865" lon="15.700761154179691"><ele>226.0</ele><time>2026-04-25T07:30:57.001Z</time></trkpt><trkpt lat="38.04628310076514" lon="15.70064878729434"><ele>225.00000000000003</ele><time>2026-04-25T07:30:58.001Z</time></trkpt><trkpt lat="38.04630396100334" lon="15.700556447891088"><ele>224.0</ele><time>2026-04-25T07:30:59.001Z</time></trkpt><trkpt lat="38.0463233259779" lon="15.700469896486657"><ele>224.00000000000003</ele><time>2026-04-25T07:31:00.001Z</time></trkpt><trkpt lat="38.046356443330524" lon="15.700376848982769"><ele>224.0</ele><time>2026-04-25T07:31:01.001Z</time></trkpt><trkpt lat="38.046380852224665" lon="15.700290270305258"><ele>224.0</ele><time>2026-04-25T07:31:02.001Z</time></trkpt><trkpt lat="38.04640614815959" lon="15.700209613817833"><ele>224.0</ele><time>2026-04-25T07:31:03.001Z</time></trkpt><trkpt lat="38.046435115614564" lon="15.700113117054839"><ele>224.00000000000003</ele><time>2026-04-25T07:31:04.001Z</time></trkpt><trkpt lat="38.046462294795276" lon="15.699998746625331"><ele>224.0</ele><time>2026-04-25T07:31:05.001Z</time></trkpt><trkpt lat="38.04648698967971" lon="15.699885339707256"><ele>223.5</ele><time>2026-04-25T07:31:06.001Z</time></trkpt><trkpt lat="38.046520516657395" lon="15.699777077618108"><ele>223.0</ele><time>2026-04-25T07:31:07.001Z</time></trkpt><trkpt lat="38.046589078464464" lon="15.699567418629888"><ele>222.5</ele><time>2026-04-25T07:31:09.001Z</time></trkpt><trkpt lat="38.046629161869554" lon="15.699455981804881"><ele>222.0</ele><time>2026-04-25T07:31:10.001Z</time></trkpt><trkpt lat="38.04666821571343" lon="15.699340848915682"><ele>221.0</ele><time>2026-04-25T07:31:11.001Z</time></trkpt><trkpt lat="38.04669720135558" lon="15.699226110695529"><ele>220.0</ele><time>2026-04-25T07:31:12.001Z</time></trkpt><trkpt lat="38.04672862265017" lon="15.699112124369803"><ele>219.0</ele><time>2026-04-25T07:31:13.001Z</time></trkpt><trkpt lat="38.046747106256895" lon="15.69901557473629"><ele>218.0</ele><time>2026-04-25T07:31:14.001Z</time></trkpt><trkpt lat="38.046759225702694" lon="15.698907045763987"><ele>217.0</ele><time>2026-04-25T07:31:15.001Z</time></trkpt><trkpt lat="38.046768139963014" lon="15.698797289722812"><ele>216.0</ele><time>2026-04-25T07:31:16.001Z</time></trkpt><trkpt lat="38.04678031174058" lon="15.698709996562464"><ele>216.0</ele><time>2026-04-25T07:31:17.001Z</time></trkpt><trkpt lat="38.046802533205955" lon="15.69863033295676"><ele>216.0</ele><time>2026-04-25T07:31:18.001Z</time></trkpt><trkpt lat="38.04683303608301" lon="15.69854955331774"><ele>216.0</ele><time>2026-04-25T07:31:19.001Z</time></trkpt><trkpt lat="38.04687320686919" lon="15.69847067650197"><ele>216.0</ele><time>2026-04-25T07:31:20.001Z</time></trkpt><trkpt lat="38.04691191996362" lon="15.698389125519084"><ele>216.0</ele><time>2026-04-25T07:31:21.001Z</time></trkpt><trkpt lat="38.04694286222864" lon="15.698307385151592"><ele>216.0</ele><time>2026-04-25T07:31:22.001Z</time></trkpt><trkpt lat="38.046978912457945" lon="15.698208215122172"><ele>216.0</ele><time>2026-04-25T07:31:23.001Z</time></trkpt><trkpt lat="38.047008205295256" lon="15.698109394749808"><ele>215.66666666666666</ele><time>2026-04-25T07:31:24.001Z</time></trkpt><trkpt lat="38.04703129511989" lon="15.698009926647277"><ele>215.33333333333331</ele><time>2026-04-25T07:31:25.001Z</time></trkpt><trkpt lat="38.047048939149484" lon="15.697915443197514"><ele>215.0</ele><time>2026-04-25T07:31:26.001Z</time></trkpt><trkpt lat="38.04706040404841" lon="15.697809609358337"><ele>214.66666666666666</ele><time>2026-04-25T07:31:27.001Z</time></trkpt><trkpt lat="38.04708288092294" lon="15.697711241217966"><ele>214.33333333333331</ele><time>2026-04-25T07:31:28.001Z</time></trkpt><trkpt lat="38.047103945203354" lon="15.697601860637915"><ele>214.0</ele><time>2026-04-25T07:31:29.001Z</time></trkpt><trkpt lat="38.04712711203081" lon="15.697497631169579"><ele>213.33333333333331</ele><time>2026-04-25T07:31:30.001Z</time></trkpt><trkpt lat="38.04714675987056" lon="15.697390541643736"><ele>212.66666666666666</ele><time>2026-04-25T07:31:31.001Z</time></trkpt><trkpt lat="38.04716587032558" lon="15.697294699569671"><ele>212.0</ele><time>2026-04-25T07:31:32.001Z</time></trkpt><trkpt lat="38.04719168732155" lon="15.697202227706489"><ele>211.33333333333331</ele><time>2026-04-25T07:31:33.001Z</time></trkpt><trkpt lat="38.04721823559487" lon="15.697114882717413"><ele>210.66666666666666</ele><time>2026-04-25T07:31:34.001Z</time></trkpt><trkpt lat="38.04724437515675" lon="15.697032662773056"><ele>210.0</ele><time>2026-04-25T07:31:35.001Z</time></trkpt><trkpt lat="38.04731001517024" lon="15.696890372679436"><ele>209.33333333333334</ele><time>2026-04-25T07:31:37.001Z</time></trkpt><trkpt lat="38.04733882147481" lon="15.69679244635704"><ele>208.66666666666669</ele><time>2026-04-25T07:31:38.001Z</time></trkpt><trkpt lat="38.04739023746841" lon="15.69667975559923"><ele>208.0</ele><time>2026-04-25T07:31:39.001Z</time></trkpt><trkpt lat="38.04741774397145" lon="15.69658018549834"><ele>207.33333333333334</ele><time>2026-04-25T07:31:40.001Z</time></trkpt><trkpt lat="38.0474455931072" lon="15.696482747929235"><ele>206.66666666666669</ele><time>2026-04-25T07:31:41.001Z</time></trkpt><trkpt lat="38.0474745199192" lon="15.696390632127269"><ele>206.0</ele><time>2026-04-25T07:31:42.001Z</time></trkpt><trkpt lat="38.047502557111606" lon="15.696302454986327"><ele>205.50000000000003</ele><time>2026-04-25T07:31:43.001Z</time></trkpt><trkpt lat="38.04752636775997" lon="15.696198289326883"><ele>205.0</ele><time>2026-04-25T07:31:44.001Z</time></trkpt><trkpt lat="38.04754821736405" lon="15.696089137966625"><ele>204.5</ele><time>2026-04-25T07:31:45.001Z</time></trkpt><trkpt lat="38.04756577365665" lon="15.695996473552011"><ele>204.0</ele><time>2026-04-25T07:31:46.001Z</time></trkpt><trkpt lat="38.0475818518348" lon="15.695911906183373"><ele>203.50000000000003</ele><time>2026-04-25T07:31:47.001Z</time></trkpt><trkpt lat="38.04759778935193" lon="15.695817230648059"><ele>203.0</ele><time>2026-04-25T07:31:48.001Z</time></trkpt><trkpt lat="38.047615503703916" lon="15.695726479789153"><ele>202.75</ele><time>2026-04-25T07:31:49.001Z</time></trkpt><trkpt lat="38.047624899952574" lon="15.695641039164647"><ele>202.5</ele><time>2026-04-25T07:31:50.001Z</time></trkpt><trkpt lat="38.04778053424173" lon="15.695474806106654"><ele>202.25</ele><time>2026-04-25T07:31:52.001Z</time></trkpt><trkpt lat="38.047706278456765" lon="15.695328040109374"><ele>202.0</ele><time>2026-04-25T07:31:54.001Z</time></trkpt><trkpt lat="38.047543853302535" lon="15.695312166930293"><ele>201.99999999999997</ele><time>2026-04-25T07:31:56.001Z</time></trkpt><trkpt lat="38.047476955716704" lon="15.69530988551699"><ele>202.0</ele><time>2026-04-25T07:32:05.001Z</time></trkpt><trkpt lat="38.04741827386108" lon="15.695263415284229"><ele>202.0</ele><time>2026-04-25T07:32:07.001Z</time></trkpt><trkpt lat="38.04736800629925" lon="15.695207202902177"><ele>202.0</ele><time>2026-04-25T07:32:10.001Z</time></trkpt><trkpt lat="38.047305645361774" lon="15.695124018844117"><ele>201.99999999999997</ele><time>2026-04-25T07:33:11Z</time></trkpt><trkpt lat="38.047265600168686" lon="15.69505300461051"><ele>202.0</ele><time>2026-04-25T07:34:37Z</time></trkpt><trkpt lat="38.04723162935979" lon="15.694938925215252"><ele>201.0</ele><time>2026-04-25T07:34:40Z</time></trkpt><trkpt lat="38.04720792986347" lon="15.694795916247323"><ele>200.0</ele><time>2026-04-25T07:34:42Z</time></trkpt><trkpt lat="38.04719016086054" lon="15.694715351315523"><ele>199.0</ele><time>2026-04-25T07:34:45Z</time></trkpt><trkpt lat="38.04715499982858" lon="15.694621623262186"><ele>198.0</ele><time>2026-04-25T07:34:50Z</time></trkpt><trkpt lat="38.04702899468456" lon="15.694672864322632"><ele>197.0</ele><time>2026-04-25T07:34:51Z</time></trkpt><trkpt lat="38.04688313289522" lon="15.694665029628382"><ele>197.00000000000003</ele><time>2026-04-25T07:34:53Z</time></trkpt><trkpt lat="38.04679149165433" lon="15.694659694707832"><ele>197.0</ele><time>2026-04-25T07:34:54Z</time></trkpt><trkpt lat="38.0467134941679" lon="15.694619041000443"><ele>197.0</ele><time>2026-04-25T07:34:55Z</time></trkpt><trkpt lat="38.04662892939194" lon="15.69461286960577"><ele>197.0</ele><time>2026-04-25T07:34:56Z</time></trkpt><trkpt lat="38.046563605631185" lon="15.694608102384079"><ele>197.00000000000003</ele><time>2026-04-25T07:34:57Z</time></trkpt><trkpt lat="38.04649589246024" lon="15.694602907994344"><ele>197.0</ele><time>2026-04-25T07:34:58Z</time></trkpt><trkpt lat="38.04643308155118" lon="15.694597016520179"><ele>198.8</ele><time>2026-04-25T07:34:59Z</time></trkpt><trkpt lat="38.046324158985" lon="15.694608073251691"><ele>200.6</ele><time>2026-04-25T07:35:01Z</time></trkpt><trkpt lat="38.046207837424234" lon="15.694580896468976"><ele>202.4</ele><time>2026-04-25T07:35:03Z</time></trkpt><trkpt lat="38.04613760608503" lon="15.694578010606136"><ele>204.20000000000002</ele><time>2026-04-25T07:35:04Z</time></trkpt><trkpt lat="38.04603751597373" lon="15.694565098302778"><ele>206.0</ele><time>2026-04-25T07:35:06Z</time></trkpt><trkpt lat="38.04600839985487" lon="15.694433625449093"><ele>206.33333333333334</ele><time>2026-04-25T07:35:08Z</time></trkpt><trkpt lat="38.045988199380915" lon="15.694357298103572"><ele>206.66666666666669</ele><time>2026-04-25T07:35:09Z</time></trkpt><trkpt lat="38.04594719465176" lon="15.694250992170664"><ele>207.0</ele><time>2026-04-25T07:35:11Z</time></trkpt><trkpt lat="38.04592795746346" lon="15.694130128099413"><ele>207.33333333333331</ele><time>2026-04-25T07:35:12Z</time></trkpt><trkpt lat="38.045889887188075" lon="15.69398724561975"><ele>207.66666666666666</ele><time>2026-04-25T07:35:14Z</time></trkpt><trkpt lat="38.04585826414101" lon="15.693915898995368"><ele>208.0</ele><time>2026-04-25T07:35:15Z</time></trkpt><trkpt lat="38.045806189221885" lon="15.69387064740842"><ele>213.66666666666666</ele><time>2026-04-25T07:35:16Z</time></trkpt><trkpt lat="38.045762314545414" lon="15.6938116320712"><ele>219.33333333333331</ele><time>2026-04-25T07:35:17Z</time></trkpt><trkpt lat="38.04571603550827" lon="15.69366797413003"><ele>225.0</ele><time>2026-04-25T07:35:19Z</time></trkpt><trkpt lat="38.045705600515305" lon="15.693587528298274"><ele>230.66666666666669</ele><time>2026-04-25T07:35:20Z</time></trkpt><trkpt lat="38.04570392690855" lon="15.693499465488943"><ele>236.33333333333334</ele><time>2026-04-25T07:35:21.001Z</time></trkpt><trkpt lat="38.04568900794" lon="15.693412474446179"><ele>242.0</ele><time>2026-04-25T07:35:22.001Z</time></trkpt><trkpt lat="38.045671947911714" lon="15.693326486369639"><ele>242.0</ele><time>2026-04-25T07:35:23.001Z</time></trkpt><trkpt lat="38.04560769685806" lon="15.693228078104466"><ele>242.0</ele><time>2026-04-25T07:35:24.001Z</time></trkpt><trkpt lat="38.045550818058786" lon="15.693143758006919"><ele>242.0</ele><time>2026-04-25T07:35:25.001Z</time></trkpt><trkpt lat="38.04549133812644" lon="15.693072190418448"><ele>242.0</ele><time>2026-04-25T07:35:26.001Z</time></trkpt><trkpt lat="38.04545029639428" lon="15.692959072494256"><ele>242.0</ele><time>2026-04-25T07:35:28.001Z</time></trkpt><trkpt lat="38.045389429483954" lon="15.692649022921431"><ele>241.6</ele><time>2026-04-25T07:35:29.001Z</time></trkpt><trkpt lat="38.04540698465469" lon="15.692531842387156"><ele>241.2</ele><time>2026-04-25T07:35:30.001Z</time></trkpt><trkpt lat="38.045459324042085" lon="15.692418215520942"><ele>240.8</ele><time>2026-04-25T07:35:31.001Z</time></trkpt><trkpt lat="38.04550607277049" lon="15.692272311762984"><ele>240.4</ele><time>2026-04-25T07:35:32.001Z</time></trkpt><trkpt lat="38.0455366318044" lon="15.692131476276023"><ele>240.0</ele><time>2026-04-25T07:35:33.001Z</time></trkpt><trkpt lat="38.04553690606594" lon="15.691965599245936"><ele>239.66666666666666</ele><time>2026-04-25T07:35:34.001Z</time></trkpt><trkpt lat="38.045538285747604" lon="15.691848391960475"><ele>239.33333333333331</ele><time>2026-04-25T07:35:35.001Z</time></trkpt><trkpt lat="38.045535705617446" lon="15.691759423803463"><ele>239.0</ele><time>2026-04-25T07:35:36.001Z</time></trkpt><trkpt lat="38.045520901547235" lon="15.691664274120312"><ele>238.66666666666666</ele><time>2026-04-25T07:35:37.001Z</time></trkpt><trkpt lat="38.04550281958773" lon="15.691579639665498"><ele>238.33333333333331</ele><time>2026-04-25T07:35:38.001Z</time></trkpt><trkpt lat="38.04547950399115" lon="15.69149408218506"><ele>238.0</ele><time>2026-04-25T07:35:39.001Z</time></trkpt><trkpt lat="38.04544759670882" lon="15.691413370393837"><ele>238.0</ele><time>2026-04-25T07:35:40.001Z</time></trkpt><trkpt lat="38.045418476873245" lon="15.691335585013368"><ele>238.0</ele><time>2026-04-25T07:35:41.001Z</time></trkpt><trkpt lat="38.04538575302608" lon="15.691197706676641"><ele>238.0</ele><time>2026-04-25T07:35:43.001Z</time></trkpt><trkpt lat="38.04539202671425" lon="15.691101105832574"><ele>238.0</ele><time>2026-04-25T07:35:44.001Z</time></trkpt><trkpt lat="38.045400965873085" lon="15.690976497804739"><ele>238.0</ele><time>2026-04-25T07:35:45.001Z</time></trkpt><trkpt lat="38.04540472159287" lon="15.690851212163532"><ele>237.33333333333331</ele><time>2026-04-25T07:35:46.001Z</time></trkpt><trkpt lat="38.04539657903331" lon="15.690728586343576"><ele>236.66666666666666</ele><time>2026-04-25T07:35:47.001Z</time></trkpt><trkpt lat="38.04539416645714" lon="15.690630058840393"><ele>236.0</ele><time>2026-04-25T07:35:48.001Z</time></trkpt><trkpt lat="38.04542764055017" lon="15.690502419246382"><ele>235.33333333333331</ele><time>2026-04-25T07:35:50.001Z</time></trkpt><trkpt lat="38.04545151753221" lon="15.690425159796488"><ele>234.66666666666666</ele><time>2026-04-25T07:35:51.001Z</time></trkpt><trkpt lat="38.04548429970711" lon="15.69034439937991"><ele>234.0</ele><time>2026-04-25T07:35:52.001Z</time></trkpt><trkpt lat="38.04553284445012" lon="15.690268693880677"><ele>232.6</ele><time>2026-04-25T07:35:54.001Z</time></trkpt><trkpt lat="38.0454051254426" lon="15.69017213307748"><ele>231.2</ele><time>2026-04-25T07:35:55.001Z</time></trkpt><trkpt lat="38.04533606019416" lon="15.690174670108425"><ele>229.79999999999998</ele><time>2026-04-25T07:35:56.001Z</time></trkpt><trkpt lat="38.045259125490766" lon="15.690185987920188"><ele>228.39999999999998</ele><time>2026-04-25T07:35:57.001Z</time></trkpt><trkpt lat="38.04518225868146" lon="15.690198412736253"><ele>227.0</ele><time>2026-04-25T07:35:58.001Z</time></trkpt><trkpt lat="38.045105239719526" lon="15.690205743091447"><ele>227.00000000000003</ele><time>2026-04-25T07:35:59.001Z</time></trkpt><trkpt lat="38.04504097683577" lon="15.690225207685275"><ele>227.0</ele><time>2026-04-25T07:36:00.001Z</time></trkpt><trkpt lat="38.0449845552401" lon="15.69026742080642"><ele>227.0</ele><time>2026-04-25T07:36:01.001Z</time></trkpt><trkpt lat="38.044993892800555" lon="15.690383797379516"><ele>227.0</ele><time>2026-04-25T07:36:02.001Z</time></trkpt><trkpt lat="38.044972732147" lon="15.69047543623396"><ele>227.00000000000003</ele><time>2026-04-25T07:36:03.001Z</time></trkpt><trkpt lat="38.044945218123324" lon="15.690603893618546"><ele>227.0</ele><time>2026-04-25T07:36:04.001Z</time></trkpt><trkpt lat="38.04492370768262" lon="15.690711673239397"><ele>227.16666666666669</ele><time>2026-04-25T07:36:05.001Z</time></trkpt><trkpt lat="38.04490381569736" lon="15.69083651503387"><ele>227.33333333333334</ele><time>2026-04-25T07:36:06.001Z</time></trkpt><trkpt lat="38.04489091079908" lon="15.690965132253258"><ele>227.5</ele><time>2026-04-25T07:36:07.001Z</time></trkpt><trkpt lat="38.04489216600043" lon="15.691070658003303"><ele>227.66666666666669</ele><time>2026-04-25T07:36:08.001Z</time></trkpt><trkpt lat="38.04492093519695" lon="15.691165598153473"><ele>227.83333333333334</ele><time>2026-04-25T07:36:09.001Z</time></trkpt><trkpt lat="38.04495553560526" lon="15.691251385697251"><ele>228.0</ele><time>2026-04-25T07:36:10.001Z</time></trkpt><trkpt lat="38.0450138221203" lon="15.691327366755122"><ele>229.66666666666666</ele><time>2026-04-25T07:36:11.001Z</time></trkpt><trkpt lat="38.0450490383715" lon="15.691409451726004"><ele>231.33333333333331</ele><time>2026-04-25T07:36:12.001Z</time></trkpt><trkpt lat="38.045063018543104" lon="15.69149316232846"><ele>233.0</ele><time>2026-04-25T07:36:13.001Z</time></trkpt><trkpt lat="38.04505621106234" lon="15.69159597124461"><ele>234.66666666666666</ele><time>2026-04-25T07:36:14.001Z</time></trkpt><trkpt lat="38.04505964917" lon="15.691719405647454"><ele>236.33333333333331</ele><time>2026-04-25T07:36:15.001Z</time></trkpt><trkpt lat="38.04506336095468" lon="15.691850592743723"><ele>238.0</ele><time>2026-04-25T07:36:16.001Z</time></trkpt><trkpt lat="38.04508264423502" lon="15.691956086780136"><ele>238.33333333333331</ele><time>2026-04-25T07:36:17.001Z</time></trkpt><trkpt lat="38.04509320643408" lon="15.692039048316273"><ele>238.66666666666666</ele><time>2026-04-25T07:36:18.001Z</time></trkpt><trkpt lat="38.04507721494512" lon="15.692119796379073"><ele>239.0</ele><time>2026-04-25T07:36:19.001Z</time></trkpt><trkpt lat="38.04501471450868" lon="15.69218144462912"><ele>239.33333333333331</ele><time>2026-04-25T07:36:20.001Z</time></trkpt><trkpt lat="38.04499060551647" lon="15.692283495801869"><ele>239.66666666666666</ele><time>2026-04-25T07:36:21.001Z</time></trkpt><trkpt lat="38.044968055483" lon="15.692396788715628"><ele>240.0</ele><time>2026-04-25T07:36:22.001Z</time></trkpt><trkpt lat="38.044948320182435" lon="15.692511113779922"><ele>241.0</ele><time>2026-04-25T07:36:23.001Z</time></trkpt><trkpt lat="38.044923986813465" lon="15.692640030350667"><ele>242.0</ele><time>2026-04-25T07:36:24.001Z</time></trkpt><trkpt lat="38.044904655346905" lon="15.692769956097928"><ele>243.0</ele><time>2026-04-25T07:36:25.001Z</time></trkpt><trkpt lat="38.04490910455824" lon="15.69290973163672"><ele>244.0</ele><time>2026-04-25T07:36:26.001Z</time></trkpt><trkpt lat="38.044930019051144" lon="15.693057068686691"><ele>245.0</ele><time>2026-04-25T07:36:27.001Z</time></trkpt><trkpt lat="38.044945024041915" lon="15.69321379478181"><ele>244.25</ele><time>2026-04-25T07:36:28.001Z</time></trkpt><trkpt lat="38.044960807052504" lon="15.693367368422766"><ele>243.5</ele><time>2026-04-25T07:36:29.001Z</time></trkpt><trkpt lat="38.0449732949601" lon="15.693518520563806"><ele>242.75</ele><time>2026-04-25T07:36:30.001Z</time></trkpt><trkpt lat="38.044937185617314" lon="15.693665617034425"><ele>242.0</ele><time>2026-04-25T07:36:31.001Z</time></trkpt><trkpt lat="38.044937143564546" lon="15.693821115136405"><ele>244.0</ele><time>2026-04-25T07:36:31.999Z</time></trkpt><trkpt lat="38.044951336488076" lon="15.693954937120315"><ele>246.0</ele><time>2026-04-25T07:36:32.999Z</time></trkpt><trkpt lat="38.0449997078442" lon="15.694086257848976"><ele>248.0</ele><time>2026-04-25T07:36:33.999Z</time></trkpt><trkpt lat="38.04504021172059" lon="15.694200458452144"><ele>250.0</ele><time>2026-04-25T07:36:34.999Z</time></trkpt><trkpt lat="38.045068566080104" lon="15.694404417363607"><ele>251.4</ele><time>2026-04-25T07:36:36.999Z</time></trkpt><trkpt lat="38.04507771569691" lon="15.69451202409082"><ele>252.8</ele><time>2026-04-25T07:36:37.999Z</time></trkpt><trkpt lat="38.04504448750827" lon="15.694626788940043"><ele>254.2</ele><time>2026-04-25T07:36:38.999Z</time></trkpt><trkpt lat="38.04499617387714" lon="15.694744331203221"><ele>255.6</ele><time>2026-04-25T07:36:39.999Z</time></trkpt><trkpt lat="38.044961129833816" lon="15.69487838661566"><ele>257.0</ele><time>2026-04-25T07:36:40.999Z</time></trkpt><trkpt lat="38.04494356830314" lon="15.695009900484653"><ele>262.83333333333337</ele><time>2026-04-25T07:36:41.999Z</time></trkpt><trkpt lat="38.044943741681" lon="15.695126960943075"><ele>268.6666666666667</ele><time>2026-04-25T07:36:42.999Z</time></trkpt><trkpt lat="38.044887877519926" lon="15.695201991708656"><ele>274.5</ele><time>2026-04-25T07:36:43.999Z</time></trkpt><trkpt lat="38.044860870033716" lon="15.69529586441089"><ele>280.3333333333333</ele><time>2026-04-25T07:36:44.999Z</time></trkpt><trkpt lat="38.044843929919246" lon="15.695390300228121"><ele>286.16666666666663</ele><time>2026-04-25T07:36:45.999Z</time></trkpt><trkpt lat="38.04488137088" lon="15.695488977684844"><ele>292.0</ele><time>2026-04-25T07:36:46.999Z</time></trkpt><trkpt lat="38.04490328962185" lon="15.69560048250174"><ele>292.2</ele><time>2026-04-25T07:36:47.999Z</time></trkpt><trkpt lat="38.04492622360469" lon="15.695690244154214"><ele>292.4</ele><time>2026-04-25T07:36:49Z</time></trkpt><trkpt lat="38.04490147652169" lon="15.695791008072232"><ele>292.6</ele><time>2026-04-25T07:36:51Z</time></trkpt><trkpt lat="38.04485834525635" lon="15.695690189676153"><ele>292.8</ele><time>2026-04-25T07:36:53Z</time></trkpt><trkpt lat="38.04483483878471" lon="15.695513300642515"><ele>293.0</ele><time>2026-04-25T07:36:55Z</time></trkpt><trkpt lat="38.04480252456804" lon="15.695381793122376"><ele>293.0</ele><time>2026-04-25T07:36:56Z</time></trkpt><trkpt lat="38.04478402438194" lon="15.695262288689014"><ele>293.0</ele><time>2026-04-25T07:36:57Z</time></trkpt><trkpt lat="38.04479446853038" lon="15.695140263887229"><ele>293.0</ele><time>2026-04-25T07:36:58Z</time></trkpt><trkpt lat="38.04484078265847" lon="15.695042460285547"><ele>293.0</ele><time>2026-04-25T07:36:59Z</time></trkpt><trkpt lat="38.044869796196664" lon="15.694931896950703"><ele>293.0</ele><time>2026-04-25T07:37:00Z</time></trkpt><trkpt lat="38.04486926637594" lon="15.694800013231722"><ele>292.8</ele><time>2026-04-25T07:37:01Z</time></trkpt><trkpt lat="38.04484237767625" lon="15.694665133798546"><ele>292.6</ele><time>2026-04-25T07:37:02Z</time></trkpt><trkpt lat="38.04481706591932" lon="15.694539086137679"><ele>292.4</ele><time>2026-04-25T07:37:03Z</time></trkpt><trkpt lat="38.04477265683304" lon="15.694428917233985"><ele>292.2</ele><time>2026-04-25T07:37:04Z</time></trkpt><trkpt lat="38.04472851631407" lon="15.694320475604647"><ele>292.0</ele><time>2026-04-25T07:37:05Z</time></trkpt><trkpt lat="38.04467437950351" lon="15.694218417342077"><ele>287.5</ele><time>2026-04-25T07:37:06Z</time></trkpt><trkpt lat="38.044602306143574" lon="15.69411928136337"><ele>283.0</ele><time>2026-04-25T07:37:07Z</time></trkpt><trkpt lat="38.04448255142375" lon="15.694049233037775"><ele>278.5</ele><time>2026-04-25T07:37:08Z</time></trkpt><trkpt lat="38.0443781878966" lon="15.693986913183926"><ele>274.0</ele><time>2026-04-25T07:37:09Z</time></trkpt><trkpt lat="38.04429358214816" lon="15.69391132884495"><ele>274.0</ele><time>2026-04-25T07:37:10Z</time></trkpt><trkpt lat="38.044216823494324" lon="15.693849297461478"><ele>274.0</ele><time>2026-04-25T07:37:11Z</time></trkpt><trkpt lat="38.04414256810631" lon="15.693824060743424"><ele>274.0</ele><time>2026-04-25T07:37:12Z</time></trkpt><trkpt lat="38.04406826892628" lon="15.693779965795216"><ele>274.0</ele><time>2026-04-25T07:37:13Z</time></trkpt><trkpt lat="38.043971786703075" lon="15.693835338241739"><ele>274.0</ele><time>2026-04-25T07:37:14Z</time></trkpt><trkpt lat="38.04388943419753" lon="15.693896351894438"><ele>274.59999999999997</ele><time>2026-04-25T07:37:15Z</time></trkpt><trkpt lat="38.043818944636044" lon="15.693996110806212"><ele>275.2</ele><time>2026-04-25T07:37:16Z</time></trkpt><trkpt lat="38.043756724516356" lon="15.69411342385228"><ele>275.79999999999995</ele><time>2026-04-25T07:37:17Z</time></trkpt><trkpt lat="38.04368982371435" lon="15.694228488702775"><ele>276.4</ele><time>2026-04-25T07:37:18Z</time></trkpt><trkpt lat="38.043612844942054" lon="15.694339826289"><ele>277.0</ele><time>2026-04-25T07:37:19Z</time></trkpt><trkpt lat="38.043543806018306" lon="15.694434556365891"><ele>278.8333333333333</ele><time>2026-04-25T07:37:20Z</time></trkpt><trkpt lat="38.043491425062584" lon="15.694508928982653"><ele>280.66666666666663</ele><time>2026-04-25T07:37:21Z</time></trkpt><trkpt lat="38.043429706624885" lon="15.694550009129971"><ele>282.5</ele><time>2026-04-25T07:37:22Z</time></trkpt><trkpt lat="38.04335122395986" lon="15.694573273228976"><ele>284.3333333333333</ele><time>2026-04-25T07:37:23Z</time></trkpt><trkpt lat="38.04327104838653" lon="15.694557040103646"><ele>286.1666666666667</ele><time>2026-04-25T07:37:24Z</time></trkpt><trkpt lat="38.04320176142036" lon="15.694554145766258"><ele>288.0</ele><time>2026-04-25T07:37:25Z</time></trkpt><trkpt lat="38.043148389350506" lon="15.694621987274195"><ele>288.0</ele><time>2026-04-25T07:37:27Z</time></trkpt><trkpt lat="38.04321186356084" lon="15.694750151341037"><ele>288.0</ele><time>2026-04-25T07:37:28Z</time></trkpt><trkpt lat="38.043286758712405" lon="15.694798132166586"><ele>288.0</ele><time>2026-04-25T07:37:29Z</time></trkpt><trkpt lat="38.04337610073248" lon="15.694796343253518"><ele>288.0</ele><time>2026-04-25T07:37:30Z</time></trkpt><trkpt lat="38.04346094935308" lon="15.694735306832632"><ele>288.0</ele><time>2026-04-25T07:37:31Z</time></trkpt><trkpt lat="38.04354440246175" lon="15.69465353814048"><ele>290.0</ele><time>2026-04-25T07:37:32Z</time></trkpt><trkpt lat="38.04364257849158" lon="15.69458571743329"><ele>292.0</ele><time>2026-04-25T07:37:33Z</time></trkpt><trkpt lat="38.04373675806996" lon="15.694511956413402"><ele>294.0</ele><time>2026-04-25T07:37:34Z</time></trkpt><trkpt lat="38.04381266539895" lon="15.694460028534094"><ele>296.0</ele><time>2026-04-25T07:37:35Z</time></trkpt><trkpt lat="38.043895689202884" lon="15.694438612662232"><ele>298.0</ele><time>2026-04-25T07:37:36Z</time></trkpt><trkpt lat="38.0439645209896" lon="15.694430514502635"><ele>298.0</ele><time>2026-04-25T07:37:37Z</time></trkpt><trkpt lat="38.04405882852428" lon="15.694462349970456"><ele>298.0</ele><time>2026-04-25T07:37:39Z</time></trkpt><trkpt lat="38.04394519665827" lon="15.694546927985764"><ele>298.0</ele><time>2026-04-25T07:37:42Z</time></trkpt><trkpt lat="38.04386281313447" lon="15.694553907487865"><ele>298.0</ele><time>2026-04-25T07:37:43Z</time></trkpt><trkpt lat="38.0437850402583" lon="15.694585196254701"><ele>298.0</ele><time>2026-04-25T07:37:44Z</time></trkpt><trkpt lat="38.04368832850969" lon="15.694626234465765"><ele>298.0</ele><time>2026-04-25T07:37:45Z</time></trkpt><trkpt lat="38.04359850960844" lon="15.694701512153326"><ele>298.0</ele><time>2026-04-25T07:37:46Z</time></trkpt><trkpt lat="38.04352650769976" lon="15.694787948135609"><ele>298.0</ele><time>2026-04-25T07:37:47Z</time></trkpt><trkpt lat="38.04347490699296" lon="15.69489145041662"><ele>298.0</ele><time>2026-04-25T07:37:48Z</time></trkpt><trkpt lat="38.04343690798154" lon="15.694976892684934"><ele>298.0</ele><time>2026-04-25T07:37:49.001Z</time></trkpt><trkpt lat="38.04338536210424" lon="15.695033599434435"><ele>298.0</ele><time>2026-04-25T07:37:50.001Z</time></trkpt><trkpt lat="38.04334573901008" lon="15.695109546506414"><ele>299.3333333333333</ele><time>2026-04-25T07:37:51.001Z</time></trkpt><trkpt lat="38.04328426376872" lon="15.695153724253707"><ele>300.66666666666663</ele><time>2026-04-25T07:37:52.001Z</time></trkpt><trkpt lat="38.04319166830136" lon="15.695147762631183"><ele>302.0</ele><time>2026-04-25T07:37:53.001Z</time></trkpt><trkpt lat="38.043098781596285" lon="15.695153191010695"><ele>303.3333333333333</ele><time>2026-04-25T07:37:54.001Z</time></trkpt><trkpt lat="38.0430030562626" lon="15.695162343262028"><ele>304.6666666666667</ele><time>2026-04-25T07:37:55.001Z</time></trkpt><trkpt lat="38.042931864908994" lon="15.69520823423887"><ele>306.0</ele><time>2026-04-25T07:37:56.001Z</time></trkpt><trkpt lat="38.042885390345155" lon="15.695276061926043"><ele>306.0</ele><time>2026-04-25T07:37:57.001Z</time></trkpt><trkpt lat="38.04283371542059" lon="15.695351513754474"><ele>306.0</ele><time>2026-04-25T07:37:58.001Z</time></trkpt><trkpt lat="38.04276605041748" lon="15.695436695302519"><ele>306.0</ele><time>2026-04-25T07:37:59.001Z</time></trkpt><trkpt lat="38.04268286540193" lon="15.695488302387773"><ele>306.0</ele><time>2026-04-25T07:38:00.001Z</time></trkpt><trkpt lat="38.04261330443594" lon="15.695529644007406"><ele>306.0</ele><time>2026-04-25T07:38:01.001Z</time></trkpt><trkpt lat="38.04256352607869" lon="15.695601834207308"><ele>306.0</ele><time>2026-04-25T07:38:02.001Z</time></trkpt><trkpt lat="38.042530350579035" lon="15.695704243091459"><ele>306.0</ele><time>2026-04-25T07:38:03.001Z</time></trkpt><trkpt lat="38.04249273027109" lon="15.69581357835374"><ele>306.0</ele><time>2026-04-25T07:38:04.001Z</time></trkpt><trkpt lat="38.04243783747464" lon="15.695910377177837"><ele>306.0</ele><time>2026-04-25T07:38:05.001Z</time></trkpt><trkpt lat="38.04236984154725" lon="15.695969253021529"><ele>306.0</ele><time>2026-04-25T07:38:06.001Z</time></trkpt><trkpt lat="38.0423149685176" lon="15.696056245412057"><ele>306.0</ele><time>2026-04-25T07:38:07.001Z</time></trkpt><trkpt lat="38.04221707767515" lon="15.69607680649064"><ele>307.6666666666667</ele><time>2026-04-25T07:38:08.001Z</time></trkpt><trkpt lat="38.04213664186526" lon="15.696097428943409"><ele>309.3333333333333</ele><time>2026-04-25T07:38:09.001Z</time></trkpt><trkpt lat="38.04206004621646" lon="15.69610899353062"><ele>311.0</ele><time>2026-04-25T07:38:10.001Z</time></trkpt><trkpt lat="38.041983242767586" lon="15.696132250106455"><ele>312.66666666666663</ele><time>2026-04-25T07:38:11.001Z</time></trkpt><trkpt lat="38.04190704410422" lon="15.696138312007992"><ele>314.3333333333333</ele><time>2026-04-25T07:38:12.001Z</time></trkpt><trkpt lat="38.041839911612605" lon="15.696146949283527"><ele>316.0</ele><time>2026-04-25T07:38:13.001Z</time></trkpt><trkpt lat="38.04177274756178" lon="15.696207143714398"><ele>316.0</ele><time>2026-04-25T07:38:15.001Z</time></trkpt><trkpt lat="38.041721345163936" lon="15.696322132315474"><ele>316.0</ele><time>2026-04-25T07:38:17.001Z</time></trkpt><trkpt lat="38.04167350295821" lon="15.696437424921621"><ele>316.0</ele><time>2026-04-25T07:38:19.001Z</time></trkpt><trkpt lat="38.04160890704441" lon="15.696548963844592"><ele>316.0</ele><time>2026-04-25T07:38:21.001Z</time></trkpt><trkpt lat="38.04155792368254" lon="15.696600436964252"><ele>316.0</ele><time>2026-04-25T07:38:22.001Z</time></trkpt><trkpt lat="38.04149714472568" lon="15.696645725708398"><ele>314.40000000000003</ele><time>2026-04-25T07:38:23.001Z</time></trkpt><trkpt lat="38.041422954859314" lon="15.69670252651213"><ele>312.8</ele><time>2026-04-25T07:38:24.001Z</time></trkpt><trkpt lat="38.04136615006725" lon="15.696790497277052"><ele>311.20000000000005</ele><time>2026-04-25T07:38:25.001Z</time></trkpt><trkpt lat="38.041327039171364" lon="15.696900772643927"><ele>309.6</ele><time>2026-04-25T07:38:26.001Z</time></trkpt><trkpt lat="38.041307728443265" lon="15.697046983386322"><ele>308.0</ele><time>2026-04-25T07:38:27.001Z</time></trkpt><trkpt lat="38.04128945612952" lon="15.697231476671094"><ele>308.0</ele><time>2026-04-25T07:38:28.001Z</time></trkpt><trkpt lat="38.04128095198475" lon="15.697422317082989"><ele>308.0</ele><time>2026-04-25T07:38:29.001Z</time></trkpt><trkpt lat="38.0412381450373" lon="15.697611032944861"><ele>308.0</ele><time>2026-04-25T07:38:30.001Z</time></trkpt><trkpt lat="38.041184342025204" lon="15.697761843339041"><ele>308.0</ele><time>2026-04-25T07:38:31.001Z</time></trkpt><trkpt lat="38.04113380331246" lon="15.697896566976505"><ele>310.5</ele><time>2026-04-25T07:38:32.001Z</time></trkpt><trkpt lat="38.04108562669727" lon="15.698023987970725"><ele>313.0</ele><time>2026-04-25T07:38:33.001Z</time></trkpt><trkpt lat="38.041063989243206" lon="15.698122177767955"><ele>315.5</ele><time>2026-04-25T07:38:34.001Z</time></trkpt><trkpt lat="38.04102569124739" lon="15.69818980962665"><ele>318.0</ele><time>2026-04-25T07:38:35.001Z</time></trkpt><trkpt lat="38.04098493491468" lon="15.698251942099175"><ele>320.5</ele><time>2026-04-25T07:38:36.001Z</time></trkpt><trkpt lat="38.04093716512837" lon="15.69831285770085"><ele>323.0</ele><time>2026-04-25T07:38:37.001Z</time></trkpt><trkpt lat="38.04087466866333" lon="15.69835238445522"><ele>324.83333333333337</ele><time>2026-04-25T07:38:37.999Z</time></trkpt><trkpt lat="38.04078971503196" lon="15.698335714312767"><ele>326.6666666666667</ele><time>2026-04-25T07:38:38.999Z</time></trkpt><trkpt lat="38.04072635626236" lon="15.698328525846215"><ele>328.5</ele><time>2026-04-25T07:38:39.999Z</time></trkpt><trkpt lat="38.040632457809565" lon="15.698270424255174"><ele>330.3333333333333</ele><time>2026-04-25T07:38:41.999Z</time></trkpt><trkpt lat="38.04059157151545" lon="15.698198248846523"><ele>332.16666666666663</ele><time>2026-04-25T07:38:42.999Z</time></trkpt><trkpt lat="38.040535302013524" lon="15.698149258245357"><ele>334.0</ele><time>2026-04-25T07:38:43.999Z</time></trkpt><trkpt lat="38.04045109144271" lon="15.698152401732639"><ele>334.0</ele><time>2026-04-25T07:38:44.999Z</time></trkpt><trkpt lat="38.04037697829641" lon="15.698146146685168"><ele>334.0</ele><time>2026-04-25T07:38:45.999Z</time></trkpt><trkpt lat="38.04031074066664" lon="15.698109871206874"><ele>334.0</ele><time>2026-04-25T07:38:46.999Z</time></trkpt><trkpt lat="38.04023884475356" lon="15.698086324834797"><ele>334.0</ele><time>2026-04-25T07:38:47.999Z</time></trkpt><trkpt lat="38.04015487866418" lon="15.698075484602688"><ele>334.0</ele><time>2026-04-25T07:38:48.999Z</time></trkpt><trkpt lat="38.0400706833519" lon="15.698030954361066"><ele>334.0</ele><time>2026-04-25T07:38:49.999Z</time></trkpt><trkpt lat="38.03998715535139" lon="15.698005908826248"><ele>340.66666666666663</ele><time>2026-04-25T07:38:50.999Z</time></trkpt><trkpt lat="38.03989411142249" lon="15.697953948831149"><ele>347.3333333333333</ele><time>2026-04-25T07:38:53Z</time></trkpt><trkpt lat="38.03983216351326" lon="15.697903859824123"><ele>354.0</ele><time>2026-04-25T07:38:54Z</time></trkpt><trkpt lat="38.03977394570912" lon="15.697842768353734"><ele>360.6666666666667</ele><time>2026-04-25T07:38:55Z</time></trkpt><trkpt lat="38.03972991592622" lon="15.69770945134569"><ele>367.33333333333337</ele><time>2026-04-25T07:38:57Z</time></trkpt><trkpt lat="38.03972084158014" lon="15.697616705994328"><ele>374.0</ele><time>2026-04-25T07:38:58Z</time></trkpt><trkpt lat="38.039684786938174" lon="15.69753434842048"><ele>374.0</ele><time>2026-04-25T07:38:59Z</time></trkpt><trkpt lat="38.03964479085001" lon="15.69745405093924"><ele>374.0</ele><time>2026-04-25T07:39:00Z</time></trkpt><trkpt lat="38.03960403689627" lon="15.69738773794541"><ele>374.0</ele><time>2026-04-25T07:39:01Z</time></trkpt><trkpt lat="38.039570685517894" lon="15.69730217312581"><ele>374.0</ele><time>2026-04-25T07:39:02Z</time></trkpt><trkpt lat="38.039522706178396" lon="15.69721309452163"><ele>374.0</ele><time>2026-04-25T07:39:03Z</time></trkpt><trkpt lat="38.03946584033412" lon="15.697120219848964"><ele>374.0</ele><time>2026-04-25T07:39:04Z</time></trkpt><trkpt lat="38.03942608163185" lon="15.697020244082024"><ele>368.5</ele><time>2026-04-25T07:39:05Z</time></trkpt><trkpt lat="38.03939476906549" lon="15.696908951337221"><ele>363.0</ele><time>2026-04-25T07:39:06Z</time></trkpt><trkpt lat="38.0393537312527" lon="15.696813041122374"><ele>357.5</ele><time>2026-04-25T07:39:07Z</time></trkpt><trkpt lat="38.03931864404603" lon="15.696661165969829"><ele>352.0</ele><time>2026-04-25T07:39:09Z</time></trkpt><trkpt lat="38.039297151047904" lon="15.696579233518271"><ele>346.5</ele><time>2026-04-25T07:39:10Z</time></trkpt><trkpt lat="38.03925773763475" lon="15.696496459112206"><ele>341.0</ele><time>2026-04-25T07:39:11Z</time></trkpt><trkpt lat="38.03920415156869" lon="15.696422189937868"><ele>341.0</ele><time>2026-04-25T07:39:12Z</time></trkpt><trkpt lat="38.03913563921773" lon="15.696360293476634"><ele>341.0</ele><time>2026-04-25T07:39:13Z</time></trkpt><trkpt lat="38.0390622338778" lon="15.696295754131613"><ele>341.0</ele><time>2026-04-25T07:39:14Z</time></trkpt><trkpt lat="38.038980030614546" lon="15.69624116484308"><ele>341.0</ele><time>2026-04-25T07:39:15Z</time></trkpt><trkpt lat="38.03885141700569" lon="15.696160498201612"><ele>341.0</ele><time>2026-04-25T07:39:16Z</time></trkpt><trkpt lat="38.038745043795544" lon="15.696103629586128"><ele>344.5</ele><time>2026-04-25T07:39:17Z</time></trkpt><trkpt lat="38.03867418384098" lon="15.695987579534089"><ele>348.0</ele><time>2026-04-25T07:39:18Z</time></trkpt><trkpt lat="38.03858102920248" lon="15.695847445207862"><ele>351.5</ele><time>2026-04-25T07:39:19Z</time></trkpt><trkpt lat="38.03847562712467" lon="15.695722837371038"><ele>355.0</ele><time>2026-04-25T07:39:20Z</time></trkpt><trkpt lat="38.03839087536216" lon="15.695607152663118"><ele>364.75</ele><time>2026-04-25T07:39:21Z</time></trkpt><trkpt lat="38.038288064294505" lon="15.695512729876517"><ele>374.5</ele><time>2026-04-25T07:39:22Z</time></trkpt><trkpt lat="38.0381727658015" lon="15.695439234763207"><ele>384.25</ele><time>2026-04-25T07:39:23Z</time></trkpt><trkpt lat="38.038054899483065" lon="15.695376715223219"><ele>394.0</ele><time>2026-04-25T07:39:24Z</time></trkpt><trkpt lat="38.037938150128895" lon="15.695303716045654"><ele>385.0</ele><time>2026-04-25T07:39:25Z</time></trkpt><trkpt lat="38.0378242757866" lon="15.69522382370287"><ele>376.0</ele><time>2026-04-25T07:39:26Z</time></trkpt><trkpt lat="38.03770652949333" lon="15.695145663662348"><ele>367.0</ele><time>2026-04-25T07:39:27Z</time></trkpt><trkpt lat="38.03760321521556" lon="15.695064958836479"><ele>358.0</ele><time>2026-04-25T07:39:28Z</time></trkpt><trkpt lat="38.03750273169904" lon="15.694976155986721"><ele>363.0</ele><time>2026-04-25T07:39:29Z</time></trkpt><trkpt lat="38.03740686120475" lon="15.694879557375108"><ele>368.0</ele><time>2026-04-25T07:39:30Z</time></trkpt><trkpt lat="38.03731092077839" lon="15.694769692139229"><ele>373.0</ele><time>2026-04-25T07:39:31Z</time></trkpt><trkpt lat="38.03723455514524" lon="15.694676939593975"><ele>378.0</ele><time>2026-04-25T07:39:32Z</time></trkpt><trkpt lat="38.037157845091684" lon="15.6946069485319"><ele>378.0</ele><time>2026-04-25T07:39:33Z</time></trkpt><trkpt lat="38.037073692493394" lon="15.694560293505749"><ele>378.0</ele><time>2026-04-25T07:39:34Z</time></trkpt><trkpt lat="38.03697297665763" lon="15.694560952389972"><ele>378.0</ele><time>2026-04-25T07:39:35Z</time></trkpt><trkpt lat="38.036880877152385" lon="15.694614771390507"><ele>378.0</ele><time>2026-04-25T07:39:36Z</time></trkpt><trkpt lat="38.03680591507645" lon="15.694663366906129"><ele>378.0</ele><time>2026-04-25T07:39:37Z</time></trkpt><trkpt lat="38.036725619018796" lon="15.6946178822639"><ele>378.0</ele><time>2026-04-25T07:39:39Z</time></trkpt><trkpt lat="38.03669762483381" lon="15.694535282061706"><ele>378.0</ele><time>2026-04-25T07:39:40.001Z</time></trkpt><trkpt lat="38.03669472904771" lon="15.694420402707824"><ele>378.0</ele><time>2026-04-25T07:39:41.001Z</time></trkpt><trkpt lat="38.03664034811209" lon="15.694328618617076"><ele>378.0</ele><time>2026-04-25T07:39:42.001Z</time></trkpt><trkpt lat="38.03655857223289" lon="15.694253500804924"><ele>378.0</ele><time>2026-04-25T07:39:43.001Z</time></trkpt><trkpt lat="38.036460353161765" lon="15.694218267533282"><ele>376.0</ele><time>2026-04-25T07:39:44.001Z</time></trkpt><trkpt lat="38.03634431626816" lon="15.694223422416908"><ele>374.0</ele><time>2026-04-25T07:39:45.001Z</time></trkpt><trkpt lat="38.03623580175625" lon="15.694248038700835"><ele>372.0</ele><time>2026-04-25T07:39:46.001Z</time></trkpt><trkpt lat="38.036118345815005" lon="15.694269188772365"><ele>370.0</ele><time>2026-04-25T07:39:47.001Z</time></trkpt><trkpt lat="38.035994041903606" lon="15.694269149292287"><ele>370.0</ele><time>2026-04-25T07:39:48.001Z</time></trkpt><trkpt lat="38.035900425531764" lon="15.694303975665385"><ele>370.0</ele><time>2026-04-25T07:39:49.001Z</time></trkpt><trkpt lat="38.03573821445345" lon="15.694310522440015"><ele>370.0</ele><time>2026-04-25T07:39:50.001Z</time></trkpt><trkpt lat="38.03562280668251" lon="15.694327614655924"><ele>370.0</ele><time>2026-04-25T07:39:51.001Z</time></trkpt><trkpt lat="38.035536357029734" lon="15.69434592054061"><ele>369.3333333333333</ele><time>2026-04-25T07:39:52.001Z</time></trkpt><trkpt lat="38.03546778096821" lon="15.694364443093923"><ele>368.66666666666663</ele><time>2026-04-25T07:39:53.001Z</time></trkpt><trkpt lat="38.0354370125013" lon="15.694459198420637"><ele>368.0</ele><time>2026-04-25T07:39:54.001Z</time></trkpt><trkpt lat="38.035385631544116" lon="15.694548021597713"><ele>367.3333333333333</ele><time>2026-04-25T07:39:55.001Z</time></trkpt><trkpt lat="38.03532533365339" lon="15.694625900424509"><ele>366.6666666666667</ele><time>2026-04-25T07:39:56.001Z</time></trkpt><trkpt lat="38.03527538364845" lon="15.694710975462144"><ele>366.0</ele><time>2026-04-25T07:39:57.001Z</time></trkpt><trkpt lat="38.035231624320645" lon="15.694800689206376"><ele>370.20000000000005</ele><time>2026-04-25T07:39:58.001Z</time></trkpt><trkpt lat="38.03516062981061" lon="15.694850827007384"><ele>374.40000000000003</ele><time>2026-04-25T07:39:59.001Z</time></trkpt><trkpt lat="38.03507479844611" lon="15.694887529864852"><ele>378.6</ele><time>2026-04-25T07:40:00.001Z</time></trkpt><trkpt lat="38.03498347238387" lon="15.694918447017834"><ele>382.8</ele><time>2026-04-25T07:40:01.001Z</time></trkpt><trkpt lat="38.03489157704122" lon="15.694902072250184"><ele>387.0</ele><time>2026-04-25T07:40:02.001Z</time></trkpt><trkpt lat="38.03479835530302" lon="15.6949099449673"><ele>387.0</ele><time>2026-04-25T07:40:03.001Z</time></trkpt><trkpt lat="38.03470557759467" lon="15.69492843441646"><ele>387.0</ele><time>2026-04-25T07:40:04.001Z</time></trkpt><trkpt lat="38.03462331075412" lon="15.694983091755619"><ele>387.0</ele><time>2026-04-25T07:40:05.001Z</time></trkpt><trkpt lat="38.03455196364422" lon="15.695056257418994"><ele>387.0</ele><time>2026-04-25T07:40:06.001Z</time></trkpt><trkpt lat="38.03449075217663" lon="15.69516443106907"><ele>387.0</ele><time>2026-04-25T07:40:07.001Z</time></trkpt><trkpt lat="38.034436266688964" lon="15.695259457271346"><ele>389.0</ele><time>2026-04-25T07:40:08.001Z</time></trkpt><trkpt lat="38.034371594539515" lon="15.695372623828444"><ele>391.0</ele><time>2026-04-25T07:40:09.001Z</time></trkpt><trkpt lat="38.034317020622176" lon="15.695475823344694"><ele>393.0</ele><time>2026-04-25T07:40:10.001Z</time></trkpt><trkpt lat="38.03426616817969" lon="15.695562890840119"><ele>395.0</ele><time>2026-04-25T07:40:11.001Z</time></trkpt><trkpt lat="38.0341999017034" lon="15.69560776251932"><ele>397.0</ele><time>2026-04-25T07:40:12.001Z</time></trkpt><trkpt lat="38.03406450962494" lon="15.695566563061536"><ele>397.0</ele><time>2026-04-25T07:40:14.001Z</time></trkpt><trkpt lat="38.03398926139301" lon="15.695507759969024"><ele>397.0</ele><time>2026-04-25T07:40:15.001Z</time></trkpt><trkpt lat="38.03390258786291" lon="15.69543503389221"><ele>397.0</ele><time>2026-04-25T07:40:16.001Z</time></trkpt><trkpt lat="38.03380810868901" lon="15.695350520933227"><ele>397.0</ele><time>2026-04-25T07:40:17.001Z</time></trkpt><trkpt lat="38.033713932375996" lon="15.695262769191709"><ele>397.0</ele><time>2026-04-25T07:40:18.001Z</time></trkpt><trkpt lat="38.033618595090324" lon="15.69517124871417"><ele>397.0</ele><time>2026-04-25T07:40:19.001Z</time></trkpt><trkpt lat="38.03352332495734" lon="15.695081261263166"><ele>397.0</ele><time>2026-04-25T07:40:20.001Z</time></trkpt><trkpt lat="38.03341294415436" lon="15.694998061709484"><ele>397.0</ele><time>2026-04-25T07:40:21.001Z</time></trkpt><trkpt lat="38.03330652623511" lon="15.694914875295169"><ele>397.0</ele><time>2026-04-25T07:40:22.001Z</time></trkpt><trkpt lat="38.033211602192985" lon="15.694856483862106"><ele>397.8</ele><time>2026-04-25T07:40:23.001Z</time></trkpt><trkpt lat="38.03312637698612" lon="15.694831185051948"><ele>398.6</ele><time>2026-04-25T07:40:24.001Z</time></trkpt><trkpt lat="38.03304212546933" lon="15.694811530386385"><ele>399.40000000000003</ele><time>2026-04-25T07:40:25.001Z</time></trkpt><trkpt lat="38.032967532322395" lon="15.694896874497587"><ele>400.20000000000005</ele><time>2026-04-25T07:40:26.001Z</time></trkpt><trkpt lat="38.03290636369778" lon="15.695000277073824"><ele>401.0</ele><time>2026-04-25T07:40:27.001Z</time></trkpt><trkpt lat="38.032834126340795" lon="15.695112826123838"><ele>400.99999999999994</ele><time>2026-04-25T07:40:28.001Z</time></trkpt><trkpt lat="38.03274956035918" lon="15.695207273857559"><ele>401.0</ele><time>2026-04-25T07:40:29.001Z</time></trkpt><trkpt lat="38.032676617300375" lon="15.695274796693417"><ele>401.0</ele><time>2026-04-25T07:40:30.001Z</time></trkpt><trkpt lat="38.03261029348582" lon="15.695325230954369"><ele>401.0</ele><time>2026-04-25T07:40:31.001Z</time></trkpt><trkpt lat="38.032533489393224" lon="15.695288463989957"><ele>400.99999999999994</ele><time>2026-04-25T07:40:32.001Z</time></trkpt><trkpt lat="38.032456232447835" lon="15.695267448434654"><ele>401.0</ele><time>2026-04-25T07:40:33.001Z</time></trkpt><trkpt lat="38.03235989851146" lon="15.695249761151507"><ele>402.25</ele><time>2026-04-25T07:40:34.001Z</time></trkpt><trkpt lat="38.03222871124308" lon="15.69519709346109"><ele>403.5</ele><time>2026-04-25T07:40:35.001Z</time></trkpt><trkpt lat="38.03209805821848" lon="15.695186562305654"><ele>404.75</ele><time>2026-04-25T07:40:36.001Z</time></trkpt><trkpt lat="38.031965103165376" lon="15.695189332723507"><ele>406.0</ele><time>2026-04-25T07:40:37.001Z</time></trkpt><trkpt lat="38.031825532331254" lon="15.695157422164593"><ele>406.0</ele><time>2026-04-25T07:40:38.001Z</time></trkpt><trkpt lat="38.03168430013396" lon="15.695127315071623"><ele>406.0</ele><time>2026-04-25T07:40:39.001Z</time></trkpt><trkpt lat="38.03153721215195" lon="15.695093784267513"><ele>406.0</ele><time>2026-04-25T07:40:40.001Z</time></trkpt><trkpt lat="38.03141853840031" lon="15.6950630827193"><ele>406.0</ele><time>2026-04-25T07:40:41.001Z</time></trkpt><trkpt lat="38.03130978732075" lon="15.695030692743483"><ele>407.8</ele><time>2026-04-25T07:40:42.001Z</time></trkpt><trkpt lat="38.03121220373822" lon="15.695002917250557"><ele>409.6</ele><time>2026-04-25T07:40:43.001Z</time></trkpt><trkpt lat="38.031112012013594" lon="15.694989975656489"><ele>411.4</ele><time>2026-04-25T07:40:44Z</time></trkpt><trkpt lat="38.03102660461624" lon="15.694975328092351"><ele>413.2</ele><time>2026-04-25T07:40:45Z</time></trkpt><trkpt lat="38.0309375874146" lon="15.694968154136891"><ele>415.0</ele><time>2026-04-25T07:40:46Z</time></trkpt><trkpt lat="38.03086206307104" lon="15.69495975422386"><ele>415.0</ele><time>2026-04-25T07:40:47Z</time></trkpt><trkpt lat="38.03078032534515" lon="15.694991596908421"><ele>415.0</ele><time>2026-04-25T07:40:48Z</time></trkpt><trkpt lat="38.030707074303244" lon="15.695044810040544"><ele>415.0</ele><time>2026-04-25T07:40:49Z</time></trkpt><trkpt lat="38.03061474845868" lon="15.695106253688795"><ele>415.0</ele><time>2026-04-25T07:40:51Z</time></trkpt><trkpt lat="38.03052468259618" lon="15.695207257935559"><ele>415.0</ele><time>2026-04-25T07:40:53Z</time></trkpt><trkpt lat="38.03046592588581" lon="15.695277455733036"><ele>415.00000000000006</ele><time>2026-04-25T07:40:54Z</time></trkpt><trkpt lat="38.03041281735764" lon="15.695343270976144"><ele>415.0</ele><time>2026-04-25T07:40:55Z</time></trkpt><trkpt lat="38.03031168764002" lon="15.695443346996747"><ele>415.0</ele><time>2026-04-25T07:40:57Z</time></trkpt><trkpt lat="38.03029161314054" lon="15.695520175273128"><ele>415.0</ele><time>2026-04-25T07:40:58Z</time></trkpt><trkpt lat="38.03030564847596" lon="15.695612410647929"><ele>415.00000000000006</ele><time>2026-04-25T07:40:59Z</time></trkpt><trkpt lat="38.03033637129557" lon="15.695706636578464"><ele>415.0</ele><time>2026-04-25T07:41:00Z</time></trkpt><trkpt lat="38.030330890804684" lon="15.695840645358698"><ele>415.0</ele><time>2026-04-25T07:41:02Z</time></trkpt><trkpt lat="38.03020805513025" lon="15.695906975387002"><ele>415.0</ele><time>2026-04-25T07:41:04Z</time></trkpt><trkpt lat="38.03023649450599" lon="15.69607732367992"><ele>415.0</ele><time>2026-04-25T07:41:09Z</time></trkpt><trkpt lat="38.03028654861056" lon="15.696157860997596"><ele>415.0</ele><time>2026-04-25T07:41:10Z</time></trkpt><trkpt lat="38.03029954070466" lon="15.696278515760998"><ele>415.0</ele><time>2026-04-25T07:41:11Z</time></trkpt><trkpt lat="38.03030778731848" lon="15.69644576784298"><ele>416.6</ele><time>2026-04-25T07:41:12Z</time></trkpt><trkpt lat="38.0303159454496" lon="15.69659023056174"><ele>418.2</ele><time>2026-04-25T07:41:13Z</time></trkpt><trkpt lat="38.03038249020157" lon="15.696703526003875"><ele>419.79999999999995</ele><time>2026-04-25T07:41:15Z</time></trkpt><trkpt lat="38.03047831162871" lon="15.696730774749101"><ele>421.4</ele><time>2026-04-25T07:41:16Z</time></trkpt><trkpt lat="38.030600032113014" lon="15.696757880217262"><ele>423.0</ele><time>2026-04-25T07:41:17Z</time></trkpt><trkpt lat="38.03070414933845" lon="15.696734715290873"><ele>423.79999999999995</ele><time>2026-04-25T07:41:18Z</time></trkpt><trkpt lat="38.030811093850936" lon="15.69667614262346"><ele>424.6</ele><time>2026-04-25T07:41:19Z</time></trkpt><trkpt lat="38.030905715312024" lon="15.69661410338368"><ele>425.40000000000003</ele><time>2026-04-25T07:41:20Z</time></trkpt><trkpt lat="38.03097212264471" lon="15.696600673765296"><ele>426.20000000000005</ele><time>2026-04-25T07:41:21Z</time></trkpt><trkpt lat="38.03104576730295" lon="15.696603934869946"><ele>427.0</ele><time>2026-04-25T07:41:23Z</time></trkpt><trkpt lat="38.031139911742635" lon="15.696632528972339"><ele>427.00000000000006</ele><time>2026-04-25T07:41:25Z</time></trkpt><trkpt lat="38.031194214621024" lon="15.696685971184559"><ele>427.0</ele><time>2026-04-25T07:41:26Z</time></trkpt><trkpt lat="38.031254694834196" lon="15.696739273007253"><ele>427.0</ele><time>2026-04-25T07:41:27Z</time></trkpt><trkpt lat="38.03130244968151" lon="15.696804892144305"><ele>427.0</ele><time>2026-04-25T07:41:28Z</time></trkpt><trkpt lat="38.03129770924939" lon="15.696926348793241"><ele>427.00000000000006</ele><time>2026-04-25T07:41:29Z</time></trkpt><trkpt lat="38.03128857623343" lon="15.697031733190911"><ele>427.0</ele><time>2026-04-25T07:41:30Z</time></trkpt><trkpt lat="38.03125732113314" lon="15.697144654367671"><ele>431.0</ele><time>2026-04-25T07:41:31Z</time></trkpt><trkpt lat="38.03121677250825" lon="15.69725306115543"><ele>435.0</ele><time>2026-04-25T07:41:32Z</time></trkpt><trkpt lat="38.031174710015904" lon="15.697369096167606"><ele>439.0</ele><time>2026-04-25T07:41:33Z</time></trkpt><trkpt lat="38.031108570360736" lon="15.69753055063498"><ele>443.0</ele><time>2026-04-25T07:41:34Z</time></trkpt><trkpt lat="38.031038284329995" lon="15.69774130857355"><ele>447.79999999999995</ele><time>2026-04-25T07:41:35.001Z</time></trkpt><trkpt lat="38.03099349586403" lon="15.697872303014039"><ele>452.59999999999997</ele><time>2026-04-25T07:41:36.001Z</time></trkpt><trkpt lat="38.030955468361775" lon="15.6979406381125"><ele>457.40000000000003</ele><time>2026-04-25T07:41:37.001Z</time></trkpt><trkpt lat="38.03096829356418" lon="15.698050310797264"><ele>462.20000000000005</ele><time>2026-04-25T07:41:39.001Z</time></trkpt><trkpt lat="38.03112291394419" lon="15.698082484830117"><ele>467.0</ele><time>2026-04-25T07:41:41.001Z</time></trkpt><trkpt lat="38.03120992421888" lon="15.698023098342812"><ele>467.0</ele><time>2026-04-25T07:41:42.001Z</time></trkpt><trkpt lat="38.031316840121114" lon="15.69792276363871"><ele>467.0</ele><time>2026-04-25T07:41:43.001Z</time></trkpt><trkpt lat="38.031478690149015" lon="15.697803216471206"><ele>467.0</ele><time>2026-04-25T07:41:44.001Z</time></trkpt><trkpt lat="38.03162323832996" lon="15.697684774731359"><ele>464.5</ele><time>2026-04-25T07:41:45.001Z</time></trkpt><trkpt lat="38.03176683013073" lon="15.697537460040788"><ele>462.0</ele><time>2026-04-25T07:41:46.001Z</time></trkpt><trkpt lat="38.03186745455286" lon="15.697392800711135"><ele>459.5</ele><time>2026-04-25T07:41:47.001Z</time></trkpt><trkpt lat="38.03191941226572" lon="15.69730159750491"><ele>457.0</ele><time>2026-04-25T07:41:48.001Z</time></trkpt><trkpt lat="38.03200170281068" lon="15.697255853525991"><ele>457.0</ele><time>2026-04-25T07:41:51.001Z</time></trkpt><trkpt lat="38.03207375104983" lon="15.697297819999509"><ele>457.0</ele><time>2026-04-25T07:41:53.001Z</time></trkpt><trkpt lat="38.031992321714505" lon="15.697481591080445"><ele>457.0</ele><time>2026-04-25T07:41:56.001Z</time></trkpt><trkpt lat="38.03197350706435" lon="15.697587804807506"><ele>457.0</ele><time>2026-04-25T07:41:58.001Z</time></trkpt><trkpt lat="38.03210169529442" lon="15.69766412023606"><ele>457.0</ele><time>2026-04-25T07:41:59.001Z</time></trkpt><trkpt lat="38.032154528802714" lon="15.69771033912392"><ele>457.00000000000006</ele><time>2026-04-25T07:42:00.001Z</time></trkpt><trkpt lat="38.03219691259331" lon="15.697840178894019"><ele>457.00000000000006</ele><time>2026-04-25T07:42:02.001Z</time></trkpt><trkpt lat="38.032218795785184" lon="15.69796259719737"><ele>457.0</ele><time>2026-04-25T07:42:04.001Z</time></trkpt><trkpt lat="38.03216742370297" lon="15.698093198864207"><ele>457.0</ele><time>2026-04-25T07:42:06.001Z</time></trkpt><trkpt lat="38.03205592639611" lon="15.698174305380789"><ele>460.00000000000006</ele><time>2026-04-25T07:42:08.001Z</time></trkpt><trkpt lat="38.03198971823029" lon="15.69822454606751"><ele>463.0</ele><time>2026-04-25T07:42:09.001Z</time></trkpt><trkpt lat="38.03192233567614" lon="15.698273369426902"><ele>466.0</ele><time>2026-04-25T07:42:10.001Z</time></trkpt><trkpt lat="38.03185297288318" lon="15.698328539364255"><ele>469.0</ele><time>2026-04-25T07:42:11.001Z</time></trkpt><trkpt lat="38.03179889358181" lon="15.69839664637569"><ele>472.00000000000006</ele><time>2026-04-25T07:42:12.001Z</time></trkpt><trkpt lat="38.03174571534217" lon="15.698482032839395"><ele>475.0</ele><time>2026-04-25T07:42:13.001Z</time></trkpt><trkpt lat="38.03170636012867" lon="15.698576366741728"><ele>477.50000000000006</ele><time>2026-04-25T07:42:14.001Z</time></trkpt><trkpt lat="38.03166452603693" lon="15.698675845947465"><ele>480.0</ele><time>2026-04-25T07:42:15.001Z</time></trkpt><trkpt lat="38.031615054986595" lon="15.698729450104228"><ele>482.5</ele><time>2026-04-25T07:42:16.001Z</time></trkpt><trkpt lat="38.03154937155151" lon="15.698765297837085"><ele>485.0</ele><time>2026-04-25T07:42:17.001Z</time></trkpt><trkpt lat="38.03148441395095" lon="15.69883269642135"><ele>487.50000000000006</ele><time>2026-04-25T07:42:18.001Z</time></trkpt><trkpt lat="38.03143545150327" lon="15.698903430963917"><ele>490.0</ele><time>2026-04-25T07:42:19.001Z</time></trkpt><trkpt lat="38.0313608092218" lon="15.699013185792534"><ele>490.0</ele><time>2026-04-25T07:42:21.001Z</time></trkpt><trkpt lat="38.031293690629354" lon="15.699127927894077"><ele>490.0</ele><time>2026-04-25T07:42:23.001Z</time></trkpt><trkpt lat="38.031200029904" lon="15.699189436504795"><ele>490.0</ele><time>2026-04-25T07:42:25.001Z</time></trkpt><trkpt lat="38.031041323170435" lon="15.69923330119277"><ele>490.0</ele><time>2026-04-25T07:42:27.001Z</time></trkpt><trkpt lat="38.030914915459576" lon="15.699316644947084"><ele>490.0</ele><time>2026-04-25T07:42:29.001Z</time></trkpt><trkpt lat="38.03085820082139" lon="15.699379540474265"><ele>490.0</ele><time>2026-04-25T07:42:30.001Z</time></trkpt><trkpt lat="38.030782034706114" lon="15.69943325764653"><ele>490.0</ele><time>2026-04-25T07:42:31.001Z</time></trkpt><trkpt lat="38.03068486494143" lon="15.699455873737813"><ele>490.0</ele><time>2026-04-25T07:42:33.001Z</time></trkpt><trkpt lat="38.030591430237806" lon="15.699388924988407"><ele>490.0</ele><time>2026-04-25T07:42:35.001Z</time></trkpt><trkpt lat="38.03048349946807" lon="15.699400001205088"><ele>493.6666666666667</ele><time>2026-04-25T07:42:37.001Z</time></trkpt><trkpt lat="38.030425900473574" lon="15.699439453594513"><ele>497.33333333333337</ele><time>2026-04-25T07:42:38.001Z</time></trkpt><trkpt lat="38.030480858617324" lon="15.69956741546448"><ele>501.0</ele><time>2026-04-25T07:42:40.001Z</time></trkpt><trkpt lat="38.0305576964975" lon="15.699672137627337"><ele>504.66666666666663</ele><time>2026-04-25T07:42:42.002Z</time></trkpt><trkpt lat="38.03062221279875" lon="15.69970069718923"><ele>508.3333333333333</ele><time>2026-04-25T07:42:43.002Z</time></trkpt><trkpt lat="38.0306952663863" lon="15.699715014661049"><ele>512.0</ele><time>2026-04-25T07:42:44.002Z</time></trkpt><trkpt lat="38.03077841161482" lon="15.699726986574486"><ele>512.3333333333333</ele><time>2026-04-25T07:42:45.002Z</time></trkpt><trkpt lat="38.030845949783995" lon="15.699758558595217"><ele>512.6666666666666</ele><time>2026-04-25T07:42:46.002Z</time></trkpt><trkpt lat="38.030917960556124" lon="15.699815757284103"><ele>513.0</ele><time>2026-04-25T07:42:47.002Z</time></trkpt><trkpt lat="38.03098083754934" lon="15.699829383563554"><ele>513.3333333333334</ele><time>2026-04-25T07:42:48.002Z</time></trkpt><trkpt lat="38.03107951660233" lon="15.69986102025141"><ele>513.6666666666667</ele><time>2026-04-25T07:42:50Z</time></trkpt><trkpt lat="38.03109619030342" lon="15.69994312256291"><ele>514.0</ele><time>2026-04-25T07:42:52Z</time></trkpt><trkpt lat="38.031012745212855" lon="15.699972273459453"><ele>514.0</ele><time>2026-04-25T07:42:54Z</time></trkpt><trkpt lat="38.03097381347474" lon="15.699895544586465"><ele>514.0</ele><time>2026-04-25T07:42:55Z</time></trkpt><trkpt lat="38.030860186075046" lon="15.699882188185583"><ele>514.0</ele><time>2026-04-25T07:42:57Z</time></trkpt><trkpt lat="38.03078828453859" lon="15.699985247627888"><ele>514.0</ele><time>2026-04-25T07:42:58Z</time></trkpt><trkpt lat="38.03077547097809" lon="15.700088634951154"><ele>514.0</ele><time>2026-04-25T07:42:59Z</time></trkpt><trkpt lat="38.03077918394274" lon="15.700180458964455"><ele>514.0</ele><time>2026-04-25T07:43:00Z</time></trkpt><trkpt lat="38.0307866694627" lon="15.70028550659011"><ele>518.1666666666667</ele><time>2026-04-25T07:43:01Z</time></trkpt><trkpt lat="38.03078267751748" lon="15.700381118198692"><ele>522.3333333333334</ele><time>2026-04-25T07:43:02Z</time></trkpt><trkpt lat="38.03070165150552" lon="15.700472755099522"><ele>526.5</ele><time>2026-04-25T07:43:04Z</time></trkpt><trkpt lat="38.03063776994518" lon="15.700444131631881"><ele>530.6666666666666</ele><time>2026-04-25T07:43:05Z</time></trkpt><trkpt lat="38.03056489214171" lon="15.700417229104461"><ele>534.8333333333333</ele><time>2026-04-25T07:43:06Z</time></trkpt><trkpt lat="38.03048162598277" lon="15.70040903335808"><ele>539.0</ele><time>2026-04-25T07:43:07Z</time></trkpt><trkpt lat="38.0303988333874" lon="15.70042178503225"><ele>539.0</ele><time>2026-04-25T07:43:08Z</time></trkpt><trkpt lat="38.03030770798551" lon="15.70046525194179"><ele>539.0</ele><time>2026-04-25T07:43:09Z</time></trkpt><trkpt lat="38.0302265195802" lon="15.700492403849355"><ele>539.0</ele><time>2026-04-25T07:43:10Z</time></trkpt><trkpt lat="38.03015784139469" lon="15.700453888464583"><ele>539.0</ele><time>2026-04-25T07:43:11Z</time></trkpt><trkpt lat="38.03008045566494" lon="15.700472231164543"><ele>539.0</ele><time>2026-04-25T07:43:12Z</time></trkpt><trkpt lat="38.02997906762422" lon="15.70049272865652"><ele>539.0</ele><time>2026-04-25T07:43:14Z</time></trkpt><trkpt lat="38.02996293428775" lon="15.700617224163722"><ele>539.0</ele><time>2026-04-25T07:43:16Z</time></trkpt><trkpt lat="38.03000692813092" lon="15.700686274212764"><ele>539.0</ele><time>2026-04-25T07:43:17Z</time></trkpt><trkpt lat="38.03007922520387" lon="15.700705007353326"><ele>539.0</ele><time>2026-04-25T07:43:18Z</time></trkpt><trkpt lat="38.03015216993496" lon="15.700726539436541"><ele>539.0</ele><time>2026-04-25T07:43:19Z</time></trkpt><trkpt lat="38.03021674923314" lon="15.700804313817766"><ele>539.0</ele><time>2026-04-25T07:43:21Z</time></trkpt><trkpt lat="38.03018210703345" lon="15.700871096243462"><ele>539.0</ele><time>2026-04-25T07:43:23Z</time></trkpt><trkpt lat="38.030076607246414" lon="15.70092570543228"><ele>539.0</ele><time>2026-04-25T07:43:25Z</time></trkpt><trkpt lat="38.03000208786045" lon="15.700881603021125"><ele>539.0</ele><time>2026-04-25T07:43:26Z</time></trkpt><trkpt lat="38.0299401949147" lon="15.700862491579175"><ele>539.0</ele><time>2026-04-25T07:43:27Z</time></trkpt><trkpt lat="38.02985672309788" lon="15.70084218638519"><ele>539.0</ele><time>2026-04-25T07:43:28.001Z</time></trkpt><trkpt lat="38.02978099405477" lon="15.700844211957902"><ele>539.0</ele><time>2026-04-25T07:43:29.001Z</time></trkpt><trkpt lat="38.02965075085023" lon="15.700845852489278"><ele>539.0</ele><time>2026-04-25T07:43:31.001Z</time></trkpt><trkpt lat="38.02957772891351" lon="15.700906126184078"><ele>540.1666666666666</ele><time>2026-04-25T07:43:32.001Z</time></trkpt><trkpt lat="38.02951166167752" lon="15.700896201947849"><ele>541.3333333333333</ele><time>2026-04-25T07:43:33.001Z</time></trkpt><trkpt lat="38.02938685474449" lon="15.700869445366557"><ele>542.5</ele><time>2026-04-25T07:43:35.001Z</time></trkpt><trkpt lat="38.02931191739632" lon="15.700836513802335"><ele>543.6666666666666</ele><time>2026-04-25T07:43:36.001Z</time></trkpt><trkpt lat="38.02922899021801" lon="15.700796599923445"><ele>544.8333333333334</ele><time>2026-04-25T07:43:37.001Z</time></trkpt><trkpt lat="38.02915277093481" lon="15.700759338106723"><ele>546.0</ele><time>2026-04-25T07:43:38.001Z</time></trkpt><trkpt lat="38.02904000436189" lon="15.70070930982912"><ele>544.2</ele><time>2026-04-25T07:43:40.001Z</time></trkpt><trkpt lat="38.02896784991568" lon="15.700763510364569"><ele>542.4000000000001</ele><time>2026-04-25T07:43:42.001Z</time></trkpt><trkpt lat="38.02892702030191" lon="15.700843132158589"><ele>540.6</ele><time>2026-04-25T07:43:43.001Z</time></trkpt><trkpt lat="38.02888075004609" lon="15.700946270244534"><ele>538.8000000000001</ele><time>2026-04-25T07:43:44.001Z</time></trkpt><trkpt lat="38.02884910393031" lon="15.701038839584928"><ele>537.0</ele><time>2026-04-25T07:43:45.001Z</time></trkpt><trkpt lat="38.0288378983835" lon="15.701197178044904"><ele>537.0</ele><time>2026-04-25T07:43:47.001Z</time></trkpt><trkpt lat="38.028843404768516" lon="15.701293474513458"><ele>537.0</ele><time>2026-04-25T07:43:48.001Z</time></trkpt><trkpt lat="38.02884197596109" lon="15.701374907110852"><ele>537.0</ele><time>2026-04-25T07:43:49.001Z</time></trkpt><trkpt lat="38.028811642898" lon="15.701507710193072"><ele>537.0</ele><time>2026-04-25T07:43:51.001Z</time></trkpt><trkpt lat="38.02880522038986" lon="15.701593642492565"><ele>537.0</ele><time>2026-04-25T07:43:52.001Z</time></trkpt><trkpt lat="38.02877119958174" lon="15.701675536433614"><ele>537.0</ele><time>2026-04-25T07:43:53.001Z</time></trkpt><trkpt lat="38.028709461882904" lon="15.701761726892437"><ele>537.0</ele><time>2026-04-25T07:43:54.001Z</time></trkpt><trkpt lat="38.028635877460005" lon="15.70186434945775"><ele>537.0</ele><time>2026-04-25T07:43:55.001Z</time></trkpt><trkpt lat="38.02857712401457" lon="15.701975319654318"><ele>537.0</ele><time>2026-04-25T07:43:57.001Z</time></trkpt><trkpt lat="38.02855671094023" lon="15.702119910319396"><ele>537.0</ele><time>2026-04-25T07:43:59.001Z</time></trkpt><trkpt lat="38.02857304745448" lon="15.702199285032828"><ele>537.0</ele><time>2026-04-25T07:44:00.001Z</time></trkpt><trkpt lat="38.02861089286866" lon="15.702290430980728"><ele>538.5</ele><time>2026-04-25T07:44:01.001Z</time></trkpt><trkpt lat="38.02864593729266" lon="15.702383543669137"><ele>540.0</ele><time>2026-04-25T07:44:02.001Z</time></trkpt><trkpt lat="38.02865509500363" lon="15.702478124926223"><ele>541.5</ele><time>2026-04-25T07:44:03.001Z</time></trkpt><trkpt lat="38.02865296478893" lon="15.702570735270065"><ele>543.0</ele><time>2026-04-25T07:44:04.001Z</time></trkpt><trkpt lat="38.02867026287172" lon="15.702679311737256"><ele>544.5</ele><time>2026-04-25T07:44:05.001Z</time></trkpt><trkpt lat="38.02865772503215" lon="15.702797593998236"><ele>546.0</ele><time>2026-04-25T07:44:06.001Z</time></trkpt><trkpt lat="38.02868558446658" lon="15.702888755535524"><ele>547.0</ele><time>2026-04-25T07:44:07.001Z</time></trkpt><trkpt lat="38.02870718777037" lon="15.702994366072893"><ele>548.0</ele><time>2026-04-25T07:44:08.001Z</time></trkpt><trkpt lat="38.0287218322306" lon="15.703104408729954"><ele>549.0</ele><time>2026-04-25T07:44:09.001Z</time></trkpt><trkpt lat="38.02873398647023" lon="15.703205101598956"><ele>550.0</ele><time>2026-04-25T07:44:10.001Z</time></trkpt><trkpt lat="38.02873207710686" lon="15.703300291633365"><ele>551.0</ele><time>2026-04-25T07:44:11.001Z</time></trkpt><trkpt lat="38.02873331243851" lon="15.703411031500194"><ele>552.0</ele><time>2026-04-25T07:44:12.001Z</time></trkpt><trkpt lat="38.02874746235475" lon="15.703515166586104"><ele>553.5</ele><time>2026-04-25T07:44:13.001Z</time></trkpt><trkpt lat="38.02876759983211" lon="15.703612143735125"><ele>555.0</ele><time>2026-04-25T07:44:14.001Z</time></trkpt><trkpt lat="38.02876137747734" lon="15.703738142030051"><ele>556.5</ele><time>2026-04-25T07:44:16.001Z</time></trkpt><trkpt lat="38.02871825133181" lon="15.703881417902057"><ele>558.0</ele><time>2026-04-25T07:44:18.001Z</time></trkpt><trkpt lat="38.028690949432" lon="15.703957205761924"><ele>559.5</ele><time>2026-04-25T07:44:19.001Z</time></trkpt><trkpt lat="38.028666398153284" lon="15.704051123443376"><ele>561.0</ele><time>2026-04-25T07:44:20.001Z</time></trkpt><trkpt lat="38.02864886421234" lon="15.704148815043029"><ele>561.0</ele><time>2026-04-25T07:44:21.001Z</time></trkpt><trkpt lat="38.028617715437626" lon="15.704243742855267"><ele>561.0</ele><time>2026-04-25T07:44:22.001Z</time></trkpt><trkpt lat="38.02857781579708" lon="15.70433272277861"><ele>561.0</ele><time>2026-04-25T07:44:23.001Z</time></trkpt><trkpt lat="38.028541934715015" lon="15.704423247816864"><ele>561.0</ele><time>2026-04-25T07:44:24.001Z</time></trkpt><trkpt lat="38.02853363935445" lon="15.704519356712781"><ele>561.0</ele><time>2026-04-25T07:44:25.001Z</time></trkpt><trkpt lat="38.0285641089401" lon="15.70462709343011"><ele>561.0</ele><time>2026-04-25T07:44:26.001Z</time></trkpt><trkpt lat="38.02861354801776" lon="15.704734557419364"><ele>561.7142857142857</ele><time>2026-04-25T07:44:27.001Z</time></trkpt><trkpt lat="38.028673093776604" lon="15.70483359773667"><ele>562.4285714285713</ele><time>2026-04-25T07:44:28.001Z</time></trkpt><trkpt lat="38.02871707802631" lon="15.704913172712171"><ele>563.1428571428571</ele><time>2026-04-25T07:44:29.001Z</time></trkpt><trkpt lat="38.02873909250623" lon="15.704997099207866"><ele>563.8571428571429</ele><time>2026-04-25T07:44:30.001Z</time></trkpt><trkpt lat="38.02875909880778" lon="15.705078549365785"><ele>564.5714285714287</ele><time>2026-04-25T07:44:31.001Z</time></trkpt><trkpt lat="38.02877426649628" lon="15.705165435632429"><ele>565.2857142857143</ele><time>2026-04-25T07:44:32.001Z</time></trkpt><trkpt lat="38.02880172981891" lon="15.705243920736242"><ele>566.0</ele><time>2026-04-25T07:44:33.001Z</time></trkpt><trkpt lat="38.02880844330528" lon="15.705326698210275"><ele>567.0</ele><time>2026-04-25T07:44:34.001Z</time></trkpt><trkpt lat="38.02879610851119" lon="15.70541682139241"><ele>568.0</ele><time>2026-04-25T07:44:35.001Z</time></trkpt><trkpt lat="38.02877265104167" lon="15.705495541429224"><ele>569.0</ele><time>2026-04-25T07:44:36.001Z</time></trkpt><trkpt lat="38.028740759329445" lon="15.705572752200222"><ele>570.0</ele><time>2026-04-25T07:44:37.001Z</time></trkpt><trkpt lat="38.02870955777872" lon="15.705644649434001"><ele>571.0</ele><time>2026-04-25T07:44:38.001Z</time></trkpt><trkpt lat="38.028668130807624" lon="15.705707195326351"><ele>572.0</ele><time>2026-04-25T07:44:39.001Z</time></trkpt><trkpt lat="38.02862103129441" lon="15.705781698606007"><ele>573.0</ele><time>2026-04-25T07:44:40.002Z</time></trkpt><trkpt lat="38.02862849291235" lon="15.705916452216725"><ele>573.0</ele><time>2026-04-25T07:44:42.002Z</time></trkpt><trkpt lat="38.02865158105349" lon="15.706009721899456"><ele>573.0</ele><time>2026-04-25T07:44:43.002Z</time></trkpt><trkpt lat="38.02868162603647" lon="15.70612590899329"><ele>573.0</ele><time>2026-04-25T07:44:44.002Z</time></trkpt><trkpt lat="38.028727442173086" lon="15.706218335465344"><ele>573.0</ele><time>2026-04-25T07:44:45.002Z</time></trkpt><trkpt lat="38.02874720350505" lon="15.706298185288807"><ele>573.0</ele><time>2026-04-25T07:44:46.002Z</time></trkpt><trkpt lat="38.0287512759594" lon="15.706408577952157"><ele>573.0</ele><time>2026-04-25T07:44:47.002Z</time></trkpt><trkpt lat="38.028766818630814" lon="15.706520107033459"><ele>573.8</ele><time>2026-04-25T07:44:48.002Z</time></trkpt><trkpt lat="38.0288063096506" lon="15.70663343187231"><ele>574.5999999999999</ele><time>2026-04-25T07:44:49.002Z</time></trkpt><trkpt lat="38.028848018928365" lon="15.70674792099436"><ele>575.4000000000001</ele><time>2026-04-25T07:44:50.002Z</time></trkpt><trkpt lat="38.02889353895546" lon="15.706843050515888"><ele>576.2</ele><time>2026-04-25T07:44:51.002Z</time></trkpt><trkpt lat="38.02894117531412" lon="15.706927775455055"><ele>577.0</ele><time>2026-04-25T07:44:52.002Z</time></trkpt><trkpt lat="38.028963503550145" lon="15.707061946339914"><ele>578.0</ele><time>2026-04-25T07:44:54.002Z</time></trkpt><trkpt lat="38.02895670104738" lon="15.707143758223706"><ele>579.0</ele><time>2026-04-25T07:44:55.002Z</time></trkpt><trkpt lat="38.028950404913004" lon="15.707232236588348"><ele>580.0</ele><time>2026-04-25T07:44:56Z</time></trkpt><trkpt lat="38.02895027527683" lon="15.707332151891904"><ele>581.0</ele><time>2026-04-25T07:44:57Z</time></trkpt><trkpt lat="38.028961526921286" lon="15.70741790973754"><ele>582.0</ele><time>2026-04-25T07:44:58Z</time></trkpt><trkpt lat="38.02894433053339" lon="15.707500720760056"><ele>583.0</ele><time>2026-04-25T07:44:59Z</time></trkpt><trkpt lat="38.02888535920317" lon="15.707560507176925"><ele>584.0</ele><time>2026-04-25T07:45:00Z</time></trkpt><trkpt lat="38.02886827141867" lon="15.707653552114634"><ele>585.3333333333333</ele><time>2026-04-25T07:45:01Z</time></trkpt><trkpt lat="38.028856481297034" lon="15.707749311650176"><ele>586.6666666666666</ele><time>2026-04-25T07:45:02Z</time></trkpt><trkpt lat="38.02886284931865" lon="15.707838941678952"><ele>588.0</ele><time>2026-04-25T07:45:03Z</time></trkpt><trkpt lat="38.028879089065306" lon="15.707926665173673"><ele>589.3333333333334</ele><time>2026-04-25T07:45:05Z</time></trkpt><trkpt lat="38.0288881436551" lon="15.708012303221006"><ele>590.6666666666667</ele><time>2026-04-25T07:45:07Z</time></trkpt><trkpt lat="38.02888670574913" lon="15.70817597236132"><ele>592.0</ele><time>2026-04-25T07:45:09Z</time></trkpt><trkpt lat="38.028903548822264" lon="15.708262023493473"><ele>592.0</ele><time>2026-04-25T07:45:10Z</time></trkpt><trkpt lat="38.028907042761325" lon="15.708342402735363"><ele>592.0</ele><time>2026-04-25T07:45:11Z</time></trkpt><trkpt lat="38.02892473923669" lon="15.708422579009166"><ele>592.0</ele><time>2026-04-25T07:45:12Z</time></trkpt><trkpt lat="38.02862849291235" lon="15.705916452216725"><ele>589.5</ele><time>2026-04-25T07:44:42.002Z</time></trkpt><trkpt lat="38.02865158105349" lon="15.706009721899456"><ele>587.0</ele><time>2026-04-25T07:44:43.002Z</time></trkpt><trkpt lat="38.02868162603647" lon="15.70612590899329"><ele>584.5</ele><time>2026-04-25T07:44:44.002Z</time></trkpt><trkpt lat="38.028727442173086" lon="15.706218335465344"><ele>582.0</ele><time>2026-04-25T07:44:45.002Z</time></trkpt><trkpt lat="38.02874720350505" lon="15.706298185288807"><ele>579.5</ele><time>2026-04-25T07:44:46.002Z</time></trkpt><trkpt lat="38.0287512759594" lon="15.706408577952157"><ele>577.0</ele><time>2026-04-25T07:44:47.002Z</time></trkpt><trkpt lat="38.028766818630814" lon="15.706520107033459"><ele>577.0</ele><time>2026-04-25T07:44:48.002Z</time></trkpt><trkpt lat="38.0288063096506" lon="15.70663343187231"><ele>577.0</ele><time>2026-04-25T07:44:49.002Z</time></trkpt><trkpt lat="38.028848018928365" lon="15.70674792099436"><ele>577.0</ele><time>2026-04-25T07:44:50.002Z</time></trkpt><trkpt lat="38.02889353895546" lon="15.706843050515888"><ele>577.0</ele><time>2026-04-25T07:44:51.002Z</time></trkpt><trkpt lat="38.02894117531412" lon="15.706927775455055"><ele>577.0</ele><time>2026-04-25T07:44:52.002Z</time></trkpt><trkpt lat="38.028963503550145" lon="15.707061946339914"><ele>578.0</ele><time>2026-04-25T07:44:54.002Z</time></trkpt><trkpt lat="38.02895670104738" lon="15.707143758223706"><ele>579.0</ele><time>2026-04-25T07:44:55.002Z</time></trkpt><trkpt lat="38.028950404913004" lon="15.707232236588348"><ele>580.0</ele><time>2026-04-25T07:44:56Z</time></trkpt><trkpt lat="38.02895027527683" lon="15.707332151891904"><ele>581.0</ele><time>2026-04-25T07:44:57Z</time></trkpt><trkpt lat="38.028961526921286" lon="15.70741790973754"><ele>582.0</ele><time>2026-04-25T07:44:58Z</time></trkpt><trkpt lat="38.02894433053339" lon="15.707500720760056"><ele>583.0</ele><time>2026-04-25T07:44:59Z</time></trkpt><trkpt lat="38.02888535920317" lon="15.707560507176925"><ele>584.0</ele><time>2026-04-25T07:45:00Z</time></trkpt><trkpt lat="38.02886827141867" lon="15.707653552114634"><ele>585.3333333333333</ele><time>2026-04-25T07:45:01Z</time></trkpt><trkpt lat="38.028856481297034" lon="15.707749311650176"><ele>586.6666666666666</ele><time>2026-04-25T07:45:02Z</time></trkpt><trkpt lat="38.02886284931865" lon="15.707838941678952"><ele>588.0</ele><time>2026-04-25T07:45:03Z</time></trkpt><trkpt lat="38.028879089065306" lon="15.707926665173673"><ele>589.3333333333334</ele><time>2026-04-25T07:45:05Z</time></trkpt><trkpt lat="38.0288881436551" lon="15.708012303221006"><ele>590.6666666666667</ele><time>2026-04-25T07:45:07Z</time></trkpt><trkpt lat="38.02888670574913" lon="15.70817597236132"><ele>592.0</ele><time>2026-04-25T07:45:09Z</time></trkpt><trkpt lat="38.028903548822264" lon="15.708262023493473"><ele>592.0</ele><time>2026-04-25T07:45:10Z</time></trkpt><trkpt lat="38.028907042761325" lon="15.708342402735363"><ele>592.0</ele><time>2026-04-25T07:45:11Z</time></trkpt><trkpt lat="38.02892473923669" lon="15.708422579009166"><ele>592.0</ele><time>2026-04-25T07:45:12Z</time></trkpt><trkpt lat="38.02895891243393" lon="15.708500579458216"><ele>592.0</ele><time>2026-04-25T07:45:13Z</time></trkpt><trkpt lat="38.02901868804239" lon="15.70858669876328"><ele>592.0</ele><time>2026-04-25T07:45:14Z</time></trkpt><trkpt lat="38.02905127460418" lon="15.708677363880845"><ele>592.0</ele><time>2026-04-25T07:45:15Z</time></trkpt><trkpt lat="38.02907358917806" lon="15.708768730909208"><ele>592.0</ele><time>2026-04-25T07:45:16Z</time></trkpt><trkpt lat="38.02908970345889" lon="15.708857159039072"><ele>593.1428571428571</ele><time>2026-04-25T07:45:17Z</time></trkpt><trkpt lat="38.029105060280806" lon="15.708954316207551"><ele>594.2857142857142</ele><time>2026-04-25T07:45:18Z</time></trkpt><trkpt lat="38.029116498408726" lon="15.709033015961966"><ele>595.4285714285713</ele><time>2026-04-25T07:45:19Z</time></trkpt><trkpt lat="38.02911805656236" lon="15.709122213765479"><ele>596.5714285714286</ele><time>2026-04-25T07:45:20Z</time></trkpt><trkpt lat="38.029128814079286" lon="15.709220719079484"><ele>597.7142857142857</ele><time>2026-04-25T07:45:21Z</time></trkpt><trkpt lat="38.02915590290935" lon="15.709302583468437"><ele>598.8571428571428</ele><time>2026-04-25T07:45:22Z</time></trkpt><trkpt lat="38.02920039719568" lon="15.709383498500074"><ele>600.0</ele><time>2026-04-25T07:45:23Z</time></trkpt><trkpt lat="38.02925459148894" lon="15.709449021093645"><ele>600.8571428571428</ele><time>2026-04-25T07:45:24Z</time></trkpt><trkpt lat="38.02931752280069" lon="15.709500540916007"><ele>601.7142857142857</ele><time>2026-04-25T07:45:25Z</time></trkpt><trkpt lat="38.0293759156578" lon="15.709553911343502"><ele>602.5714285714286</ele><time>2026-04-25T07:45:26Z</time></trkpt><trkpt lat="38.029431105860205" lon="15.709608891086477"><ele>603.4285714285713</ele><time>2026-04-25T07:45:27.001Z</time></trkpt><trkpt lat="38.02948910392637" lon="15.709667226082694"><ele>604.2857142857142</ele><time>2026-04-25T07:45:28.001Z</time></trkpt><trkpt lat="38.02954834582079" lon="15.709724836767716"><ele>605.1428571428571</ele><time>2026-04-25T07:45:29.001Z</time></trkpt><trkpt lat="38.02961205433975" lon="15.709777990149252"><ele>606.0</ele><time>2026-04-25T07:45:30.001Z</time></trkpt><trkpt lat="38.02968113040066" lon="15.709824174930384"><ele>606.0</ele><time>2026-04-25T07:45:31.001Z</time></trkpt><trkpt lat="38.02974149887494" lon="15.709866661679031"><ele>606.0</ele><time>2026-04-25T07:45:32.001Z</time></trkpt><trkpt lat="38.02981216659262" lon="15.709910730312169"><ele>606.0</ele><time>2026-04-25T07:45:33.001Z</time></trkpt><trkpt lat="38.02988298386486" lon="15.709950573016043"><ele>606.0</ele><time>2026-04-25T07:45:34.001Z</time></trkpt><trkpt lat="38.029953837846875" lon="15.709989534019726"><ele>606.0</ele><time>2026-04-25T07:45:35.001Z</time></trkpt><trkpt lat="38.03001181586591" lon="15.710033498664869"><ele>606.0</ele><time>2026-04-25T07:45:36.001Z</time></trkpt><trkpt lat="38.030085374420196" lon="15.710157397238389"><ele>609.8</ele><time>2026-04-25T07:45:38.001Z</time></trkpt><trkpt lat="38.0300839935459" lon="15.710249914160578"><ele>613.6</ele><time>2026-04-25T07:45:39.001Z</time></trkpt><trkpt lat="38.03011148859791" lon="15.710338610470293"><ele>617.4</ele><time>2026-04-25T07:45:40.001Z</time></trkpt><trkpt lat="38.030115213708164" lon="15.710476723327297"><ele>621.2</ele><time>2026-04-25T07:45:42.001Z</time></trkpt><trkpt lat="38.03004466065914" lon="15.710552254902174"><ele>625.0</ele><time>2026-04-25T07:45:44.001Z</time></trkpt><trkpt lat="38.02995224311842" lon="15.710443763130378"><ele>625.5</ele><time>2026-04-25T07:45:46.001Z</time></trkpt><trkpt lat="38.029954500278244" lon="15.71035151553803"><ele>626.0</ele><time>2026-04-25T07:45:47.001Z</time></trkpt><trkpt lat="38.029902576991" lon="15.710256143398045"><ele>626.5</ele><time>2026-04-25T07:45:49.001Z</time></trkpt><trkpt lat="38.02981585464018" lon="15.710202999470859"><ele>627.0</ele><time>2026-04-25T07:45:51.001Z</time></trkpt><trkpt lat="38.02975537298613" lon="15.710243545833194"><ele>627.5</ele><time>2026-04-25T07:45:52.001Z</time></trkpt><trkpt lat="38.02968805666747" lon="15.710285591599304"><ele>628.0</ele><time>2026-04-25T07:45:53.001Z</time></trkpt><trkpt lat="38.029618500661456" lon="15.710331240396133"><ele>628.0</ele><time>2026-04-25T07:45:54.001Z</time></trkpt><trkpt lat="38.029553959537225" lon="15.710360388962187"><ele>628.0</ele><time>2026-04-25T07:45:55.001Z</time></trkpt><trkpt lat="38.02945644287705" lon="15.710436127599865"><ele>628.0</ele><time>2026-04-25T07:45:57.001Z</time></trkpt><trkpt lat="38.02942203275389" lon="15.710505338881793"><ele>628.0</ele><time>2026-04-25T07:45:58.001Z</time></trkpt><trkpt lat="38.02940242900524" lon="15.710582826347546"><ele>628.0</ele><time>2026-04-25T07:45:59.001Z</time></trkpt><trkpt lat="38.02934060203973" lon="15.710676085024971"><ele>628.0</ele><time>2026-04-25T07:46:01.001Z</time></trkpt><trkpt lat="38.029229421600355" lon="15.710713090936304"><ele>626.4</ele><time>2026-04-25T07:46:03.001Z</time></trkpt><trkpt lat="38.02911785555374" lon="15.710728410822574"><ele>624.8</ele><time>2026-04-25T07:46:05.001Z</time></trkpt><trkpt lat="38.0290389191029" lon="15.71067904451479"><ele>623.2</ele><time>2026-04-25T07:46:07.001Z</time></trkpt><trkpt lat="38.028961366807515" lon="15.710632533003993"><ele>621.6</ele><time>2026-04-25T07:46:09.001Z</time></trkpt><trkpt lat="38.02888005133808" lon="15.710601205541227"><ele>620.0</ele><time>2026-04-25T07:46:11.001Z</time></trkpt><trkpt lat="38.02880686028258" lon="15.71065583635218"><ele>620.0</ele><time>2026-04-25T07:46:14.001Z</time></trkpt><trkpt lat="38.02873739654484" lon="15.710682838862056"><ele>620.0</ele><time>2026-04-25T07:46:16.001Z</time></trkpt><trkpt lat="38.028674551122386" lon="15.710737238052555"><ele>620.0</ele><time>2026-04-25T07:46:19.001Z</time></trkpt><trkpt lat="38.0285949189732" lon="15.710815735929662"><ele>620.0</ele><time>2026-04-25T07:46:22.001Z</time></trkpt><trkpt lat="38.02849709584643" lon="15.710876709908847"><ele>620.0</ele><time>2026-04-25T07:46:24.001Z</time></trkpt><trkpt lat="38.02843650541145" lon="15.710936077244192"><ele>620.0</ele><time>2026-04-25T07:46:27.001Z</time></trkpt><trkpt lat="38.0283425422793" lon="15.711028143963205"><ele>622.0</ele><time>2026-04-25T07:46:29.001Z</time></trkpt><trkpt lat="38.028349601376554" lon="15.711170445122963"><ele>624.0</ele><time>2026-04-25T07:46:30.001Z</time></trkpt><trkpt lat="38.02831241983478" lon="15.711239383481914"><ele>626.0</ele><time>2026-04-25T07:46:31.001Z</time></trkpt><trkpt lat="38.028318529601705" lon="15.711333463453746"><ele>628.0</ele><time>2026-04-25T07:46:33.001Z</time></trkpt><trkpt lat="38.028420582079995" lon="15.711288434157842"><ele>630.0</ele><time>2026-04-25T07:46:35.001Z</time></trkpt><trkpt lat="38.02846374966064" lon="15.711226219467203"><ele>632.0</ele><time>2026-04-25T07:46:36.001Z</time></trkpt><trkpt lat="38.0285421174985" lon="15.71111820969904"><ele>632.0</ele><time>2026-04-25T07:46:38.001Z</time></trkpt><trkpt lat="38.02861011545002" lon="15.711078585096807"><ele>632.0</ele><time>2026-04-25T07:46:40.001Z</time></trkpt><trkpt lat="38.02869399391184" lon="15.711108482700835"><ele>632.0</ele><time>2026-04-25T07:46:42.001Z</time></trkpt><trkpt lat="38.02873571097981" lon="15.711210913752238"><ele>632.0</ele><time>2026-04-25T07:46:44.001Z</time></trkpt><trkpt lat="38.02882242729497" lon="15.711272406183415"><ele>632.0</ele><time>2026-04-25T07:46:46.001Z</time></trkpt><trkpt lat="38.02893053708618" lon="15.711316897838142"><ele>632.0</ele><time>2026-04-25T07:46:48.002Z</time></trkpt><trkpt lat="38.0290427773098" lon="15.711337972751943"><ele>632.0</ele><time>2026-04-25T07:46:50.002Z</time></trkpt><trkpt lat="38.02912830269136" lon="15.711384888640847"><ele>632.0</ele><time>2026-04-25T07:46:52.002Z</time></trkpt><trkpt lat="38.029234477918706" lon="15.711403740466977"><ele>632.0</ele><time>2026-04-25T07:46:54.002Z</time></trkpt><trkpt lat="38.02934730239452" lon="15.711431647461731"><ele>632.0</ele><time>2026-04-25T07:46:56.002Z</time></trkpt><trkpt lat="38.029448298475934" lon="15.71148831932385"><ele>637.25</ele><time>2026-04-25T07:46:58.002Z</time></trkpt><trkpt lat="38.02954988285364" lon="15.711560202013844"><ele>642.5</ele><time>2026-04-25T07:47:00.002Z</time></trkpt><trkpt lat="38.02965759248412" lon="15.71161108423761"><ele>647.75</ele><time>2026-04-25T07:47:02Z</time></trkpt><trkpt lat="38.02978275681847" lon="15.71161925386694"><ele>653.0</ele><time>2026-04-25T07:47:04Z</time></trkpt><trkpt lat="38.029875564491526" lon="15.711659877048412"><ele>653.0</ele><time>2026-04-25T07:47:06Z</time></trkpt><trkpt lat="38.029913040313026" lon="15.711732488836004"><ele>653.0</ele><time>2026-04-25T07:47:08Z</time></trkpt><trkpt lat="38.02987365072724" lon="15.711800810295584"><ele>653.0</ele><time>2026-04-25T07:47:10Z</time></trkpt><trkpt lat="38.029784108063915" lon="15.711806608543505"><ele>653.0</ele><time>2026-04-25T07:47:12Z</time></trkpt><trkpt lat="38.02972167454257" lon="15.711821677343101"><ele>653.0</ele><time>2026-04-25T07:47:13Z</time></trkpt><trkpt lat="38.02965616633648" lon="15.711807924864466"><ele>653.0</ele><time>2026-04-25T07:47:14Z</time></trkpt><trkpt lat="38.02953934249394" lon="15.711797683626813"><ele>653.0</ele><time>2026-04-25T07:47:16Z</time></trkpt><trkpt lat="38.029423986343105" lon="15.711774722885934"><ele>653.0</ele><time>2026-04-25T07:47:18Z</time></trkpt><trkpt lat="38.02935087029244" lon="15.711781118086543"><ele>653.0</ele><time>2026-04-25T07:47:20Z</time></trkpt><trkpt lat="38.029339291733244" lon="15.7118889636492"><ele>653.0</ele><time>2026-04-25T07:47:22Z</time></trkpt><trkpt lat="38.02939026028594" lon="15.711938955071766"><ele>653.0</ele><time>2026-04-25T07:47:23Z</time></trkpt><trkpt lat="38.02945846073475" lon="15.711959953686037"><ele>653.0</ele><time>2026-04-25T07:47:24Z</time></trkpt><trkpt lat="38.029538487730484" lon="15.711965887566123"><ele>655.3333333333333</ele><time>2026-04-25T07:47:25Z</time></trkpt><trkpt lat="38.02961310633794" lon="15.711977143601807"><ele>657.6666666666666</ele><time>2026-04-25T07:47:26Z</time></trkpt><trkpt lat="38.02968465968648" lon="15.711988256006924"><ele>660.0</ele><time>2026-04-25T07:47:27Z</time></trkpt><trkpt lat="38.02974886623037" lon="15.711993287195114"><ele>662.3333333333334</ele><time>2026-04-25T07:47:28Z</time></trkpt><trkpt lat="38.02984642306806" lon="15.712064805740935"><ele>664.6666666666667</ele><time>2026-04-25T07:47:30Z</time></trkpt><trkpt lat="38.02989990520018" lon="15.712182694770666"><ele>667.0</ele><time>2026-04-25T07:47:32Z</time></trkpt><trkpt lat="38.029930944797414" lon="15.712253744378508"><ele>667.0000000000001</ele><time>2026-04-25T07:47:33Z</time></trkpt><trkpt lat="38.02995323043111" lon="15.712328816776134"><ele>667.0</ele><time>2026-04-25T07:47:34Z</time></trkpt><trkpt lat="38.02996971421419" lon="15.712416174168899"><ele>667.0</ele><time>2026-04-25T07:47:35Z</time></trkpt><trkpt lat="38.02998181962065" lon="15.712504379628319"><ele>667.0</ele><time>2026-04-25T07:47:36Z</time></trkpt><trkpt lat="38.0299918405373" lon="15.712583859254192"><ele>667.0</ele><time>2026-04-25T07:47:37Z</time></trkpt><trkpt lat="38.03000668217801" lon="15.712708700764535"><ele>667.0000000000001</ele><time>2026-04-25T07:47:39Z</time></trkpt><trkpt lat="38.03001001884603" lon="15.712808659215282"><ele>667.0</ele><time>2026-04-25T07:47:41Z</time></trkpt><trkpt lat="38.02994931924623" lon="15.712904777276002"><ele>668.6</ele><time>2026-04-25T07:47:43.001Z</time></trkpt><trkpt lat="38.02987887901396" lon="15.713001728203897"><ele>670.2</ele><time>2026-04-25T07:47:45.001Z</time></trkpt><trkpt lat="38.02980825052054" lon="15.713098677860005"><ele>671.8</ele><time>2026-04-25T07:47:47.001Z</time></trkpt><trkpt lat="38.02975347090931" lon="15.713213685568626"><ele>673.4</ele><time>2026-04-25T07:47:49.001Z</time></trkpt><trkpt lat="38.02971691017029" lon="15.713371649845092"><ele>675.0</ele><time>2026-04-25T07:47:51.001Z</time></trkpt><trkpt lat="38.02969612635422" lon="15.71345709816841"><ele>675.0</ele><time>2026-04-25T07:47:52.001Z</time></trkpt><trkpt lat="38.02967226851651" lon="15.713539007502284"><ele>675.0</ele><time>2026-04-25T07:47:53.001Z</time></trkpt><trkpt lat="38.029635983124955" lon="15.713693987335215"><ele>675.0</ele><time>2026-04-25T07:47:55.001Z</time></trkpt><trkpt lat="38.02959308447661" lon="15.713752905450688"><ele>675.0</ele><time>2026-04-25T07:47:56.001Z</time></trkpt><trkpt lat="38.02954849634897" lon="15.71381289156817"><ele>675.0</ele><time>2026-04-25T07:47:57.001Z</time></trkpt><trkpt lat="38.02950721770767" lon="15.713951542004054"><ele>675.0</ele><time>2026-04-25T07:47:59.001Z</time></trkpt><trkpt lat="38.029548896353596" lon="15.714046790797429"><ele>676.6</ele><time>2026-04-25T07:48:00.001Z</time></trkpt><trkpt lat="38.02958313195895" lon="15.714145763629993"><ele>678.2</ele><time>2026-04-25T07:48:01.001Z</time></trkpt><trkpt lat="38.02963785333735" lon="15.714236233544879"><ele>679.8</ele><time>2026-04-25T07:48:02.001Z</time></trkpt><trkpt lat="38.029671706144796" lon="15.714367028557183"><ele>681.4</ele><time>2026-04-25T07:48:04.001Z</time></trkpt><trkpt lat="38.029700514722535" lon="15.714520879765791"><ele>683.0</ele><time>2026-04-25T07:48:06.001Z</time></trkpt><trkpt lat="38.029713737841284" lon="15.714618511057699"><ele>683.0</ele><time>2026-04-25T07:48:07.001Z</time></trkpt><trkpt lat="38.02971311129939" lon="15.714702394918724"><ele>683.0</ele><time>2026-04-25T07:48:08.001Z</time></trkpt><trkpt lat="38.029715936847865" lon="15.714806291614387"><ele>683.0</ele><time>2026-04-25T07:48:09.001Z</time></trkpt><trkpt lat="38.02975117917054" lon="15.714884586476632"><ele>683.0</ele><time>2026-04-25T07:48:10.001Z</time></trkpt><trkpt lat="38.029797838822795" lon="15.714990769500663"><ele>683.0</ele><time>2026-04-25T07:48:11.001Z</time></trkpt><trkpt lat="38.029823183255296" lon="15.715074437994813"><ele>683.0</ele><time>2026-04-25T07:48:12.001Z</time></trkpt><trkpt lat="38.02985242318398" lon="15.715151387813327"><ele>683.5</ele><time>2026-04-25T07:48:13.001Z</time></trkpt><trkpt lat="38.02988908887653" lon="15.71527054290795"><ele>684.0</ele><time>2026-04-25T07:48:15.001Z</time></trkpt><trkpt lat="38.029892865760424" lon="15.715355341570815"><ele>684.5</ele><time>2026-04-25T07:48:16.001Z</time></trkpt><trkpt lat="38.02994802784056" lon="15.715421913942428"><ele>685.0</ele><time>2026-04-25T07:48:17.001Z</time></trkpt><trkpt lat="38.02997980418326" lon="15.71550157595559"><ele>685.5</ele><time>2026-04-25T07:48:18.001Z</time></trkpt><trkpt lat="38.030009373037146" lon="15.715592916315542"><ele>686.0</ele><time>2026-04-25T07:48:19.001Z</time></trkpt><trkpt lat="38.03003733822882" lon="15.71568619431279"><ele>689.8571428571429</ele><time>2026-04-25T07:48:20.001Z</time></trkpt><trkpt lat="38.03005196270984" lon="15.715774489224394"><ele>693.7142857142858</ele><time>2026-04-25T07:48:21.001Z</time></trkpt><trkpt lat="38.030063209299186" lon="15.715861507221076"><ele>697.5714285714286</ele><time>2026-04-25T07:48:22.001Z</time></trkpt><trkpt lat="38.0300771647813" lon="15.715966494527935"><ele>701.4285714285714</ele><time>2026-04-25T07:48:23.001Z</time></trkpt><trkpt lat="38.03008580331322" lon="15.716057080308019"><ele>705.2857142857143</ele><time>2026-04-25T07:48:24.001Z</time></trkpt><trkpt lat="38.03009993955747" lon="15.716141024868122"><ele>709.1428571428571</ele><time>2026-04-25T07:48:25.001Z</time></trkpt><trkpt lat="38.03010018505363" lon="15.716223624831818"><ele>713.0</ele><time>2026-04-25T07:48:26.001Z</time></trkpt><trkpt lat="38.03008614496707" lon="15.716302358486766"><ele>713.5</ele><time>2026-04-25T07:48:27.001Z</time></trkpt><trkpt lat="38.03007374403571" lon="15.716384450467094"><ele>714.0</ele><time>2026-04-25T07:48:28.001Z</time></trkpt><trkpt lat="38.03007958086771" lon="15.716466882508689"><ele>714.5</ele><time>2026-04-25T07:48:29.001Z</time></trkpt><trkpt lat="38.030106163667206" lon="15.716554507950573"><ele>715.0</ele><time>2026-04-25T07:48:30.001Z</time></trkpt><trkpt lat="38.03015659587223" lon="15.716648215198017"><ele>715.5</ele><time>2026-04-25T07:48:31.001Z</time></trkpt><trkpt lat="38.03020465835632" lon="15.716728960353642"><ele>716.0</ele><time>2026-04-25T07:48:32.001Z</time></trkpt><trkpt lat="38.03025108715081" lon="15.716873732212717"><ele>715.8</ele><time>2026-04-25T07:48:34.001Z</time></trkpt><trkpt lat="38.030298118383065" lon="15.71700561736179"><ele>715.5999999999999</ele><time>2026-04-25T07:48:36.001Z</time></trkpt><trkpt lat="38.030324782711816" lon="15.717081456071156"><ele>715.4</ele><time>2026-04-25T07:48:38.001Z</time></trkpt><trkpt lat="38.030375812168664" lon="15.717190296486569"><ele>715.2</ele><time>2026-04-25T07:48:40.001Z</time></trkpt><trkpt lat="38.030444228255874" lon="15.717317152000422"><ele>715.0</ele><time>2026-04-25T07:48:42.001Z</time></trkpt><trkpt lat="38.03047911391133" lon="15.717400621295798"><ele>715.0</ele><time>2026-04-25T07:48:43.001Z</time></trkpt><trkpt lat="38.030515425904916" lon="15.717521160466658"><ele>715.0</ele><time>2026-04-25T07:48:45.001Z</time></trkpt><trkpt lat="38.030524177330925" lon="15.717663095602553"><ele>715.0</ele><time>2026-04-25T07:48:47.001Z</time></trkpt><trkpt lat="38.03048663104737" lon="15.717733209700686"><ele>715.0</ele><time>2026-04-25T07:48:48.001Z</time></trkpt><trkpt lat="38.03047543320489" lon="15.717815758426148"><ele>715.0</ele><time>2026-04-25T07:48:49.001Z</time></trkpt><trkpt lat="38.03048408721765" lon="15.717895634472091"><ele>715.0</ele><time>2026-04-25T07:48:50.001Z</time></trkpt><trkpt lat="38.03047323967338" lon="15.717989521728544"><ele>716.3333333333334</ele><time>2026-04-25T07:48:51.001Z</time></trkpt><trkpt lat="38.03043356066129" lon="15.718159754739519"><ele>717.6666666666667</ele><time>2026-04-25T07:48:53.001Z</time></trkpt><trkpt lat="38.030411590263945" lon="15.718235535365036"><ele>719.0</ele><time>2026-04-25T07:48:54.001Z</time></trkpt><trkpt lat="38.030381467535406" lon="15.71831637820195"><ele>720.3333333333334</ele><time>2026-04-25T07:48:55.001Z</time></trkpt><trkpt lat="38.030326761964645" lon="15.71837145581218"><ele>721.6666666666666</ele><time>2026-04-25T07:48:56.001Z</time></trkpt><trkpt lat="38.030286166664425" lon="15.71844104279616"><ele>723.0</ele><time>2026-04-25T07:48:57.001Z</time></trkpt><trkpt lat="38.03024617835426" lon="15.718519588305618"><ele>724.0</ele><time>2026-04-25T07:48:58.001Z</time></trkpt><trkpt lat="38.03019887230002" lon="15.718622248588737"><ele>725.0</ele><time>2026-04-25T07:48:59.001Z</time></trkpt><trkpt lat="38.030145789794744" lon="15.7187562301944"><ele>726.0</ele><time>2026-04-25T07:49:00.001Z</time></trkpt><trkpt lat="38.03011645653533" lon="15.718888307961183"><ele>727.0</ele><time>2026-04-25T07:49:01.001Z</time></trkpt><trkpt lat="38.03010869275464" lon="15.718977762330741"><ele>728.0</ele><time>2026-04-25T07:49:02.001Z</time></trkpt><trkpt lat="38.03006470196875" lon="15.719047674647982"><ele>728.0</ele><time>2026-04-25T07:49:07.002Z</time></trkpt><trkpt lat="38.029959644517334" lon="15.718939827390585"><ele>728.0</ele><time>2026-04-25T07:49:08Z</time></trkpt><trkpt lat="38.02998161551134" lon="15.719312110914025"><ele>728.0</ele><time>2026-04-25T07:49:09Z</time></trkpt><trkpt lat="38.02991873241827" lon="15.719332786299239"><ele>731.2</ele><time>2026-04-25T07:49:10Z</time></trkpt><trkpt lat="38.02987410962164" lon="15.719435355524087"><ele>734.4</ele><time>2026-04-25T07:49:12Z</time></trkpt><trkpt lat="38.029843392166306" lon="15.719541507808474"><ele>737.6</ele><time>2026-04-25T07:49:14Z</time></trkpt><trkpt lat="38.02980919246389" lon="15.719660857851702"><ele>740.8000000000001</ele><time>2026-04-25T07:49:16Z</time></trkpt><trkpt lat="38.02981572925792" lon="15.719742057313754"><ele>744.0</ele><time>2026-04-25T07:49:17Z</time></trkpt><trkpt lat="38.029812311692496" lon="15.719877586658644"><ele>744.0</ele><time>2026-04-25T07:49:19Z</time></trkpt><trkpt lat="38.02980089908601" lon="15.720003182057301"><ele>744.0</ele><time>2026-04-25T07:49:21Z</time></trkpt><trkpt lat="38.0298067906686" lon="15.720130404499287"><ele>744.0</ele><time>2026-04-25T07:49:23Z</time></trkpt><trkpt lat="38.02984058968612" lon="15.720272159100904"><ele>744.0</ele><time>2026-04-25T07:49:25Z</time></trkpt><trkpt lat="38.02979664178762" lon="15.72041447626927"><ele>744.0</ele><time>2026-04-25T07:49:27Z</time></trkpt><trkpt lat="38.02971264074413" lon="15.72051120714413"><ele>744.8000000000001</ele><time>2026-04-25T07:49:29Z</time></trkpt><trkpt lat="38.02961141699302" lon="15.720590612745157"><ele>745.6</ele><time>2026-04-25T07:49:31Z</time></trkpt><trkpt lat="38.029554114828876" lon="15.720638144803345"><ele>746.4</ele><time>2026-04-25T07:49:32Z</time></trkpt><trkpt lat="38.029484782871904" lon="15.720670985476254"><ele>747.2</ele><time>2026-04-25T07:49:33Z</time></trkpt><trkpt lat="38.02940161731588" lon="15.720698307557985"><ele>748.0</ele><time>2026-04-25T07:49:34Z</time></trkpt><trkpt lat="38.02928927561002" lon="15.720714901489048"><ele>748.0</ele><time>2026-04-25T07:49:35Z</time></trkpt><trkpt lat="38.0291319542253" lon="15.72081312834667"><ele>748.0</ele><time>2026-04-25T07:49:36Z</time></trkpt><trkpt lat="38.028990324606816" lon="15.720871156405202"><ele>748.0</ele><time>2026-04-25T07:49:37Z</time></trkpt><trkpt lat="38.028936133235064" lon="15.72094545499946"><ele>748.0</ele><time>2026-04-25T07:49:38Z</time></trkpt><trkpt lat="38.028867460523365" lon="15.721059305329579"><ele>749.0</ele><time>2026-04-25T07:49:40Z</time></trkpt><trkpt lat="38.02881747608647" lon="15.721142049231151"><ele>750.0</ele><time>2026-04-25T07:49:41Z</time></trkpt><trkpt lat="38.028791326019444" lon="15.721252098283637"><ele>751.0</ele><time>2026-04-25T07:49:42Z</time></trkpt><trkpt lat="38.028791853738554" lon="15.721358974951517"><ele>752.0</ele><time>2026-04-25T07:49:43Z</time></trkpt><trkpt lat="38.02878985408495" lon="15.721470121191762"><ele>753.0</ele><time>2026-04-25T07:49:44Z</time></trkpt><trkpt lat="38.02881447392472" lon="15.721586939828407"><ele>754.0</ele><time>2026-04-25T07:49:45Z</time></trkpt><trkpt lat="38.028826775151764" lon="15.721712527820635"><ele>754.0</ele><time>2026-04-25T07:49:46Z</time></trkpt><trkpt lat="38.02880499851735" lon="15.721823966047472"><ele>754.0</ele><time>2026-04-25T07:49:47Z</time></trkpt><trkpt lat="38.028746123956445" lon="15.721962655288204"><ele>754.0</ele><time>2026-04-25T07:49:48Z</time></trkpt><trkpt lat="38.028691237586116" lon="15.72210404590466"><ele>754.0</ele><time>2026-04-25T07:49:49Z</time></trkpt><trkpt lat="38.02865366845391" lon="15.722208153582715"><ele>754.0</ele><time>2026-04-25T07:49:50Z</time></trkpt><trkpt lat="38.02863248354731" lon="15.722299748815525"><ele>756.4000000000001</ele><time>2026-04-25T07:49:51Z</time></trkpt><trkpt lat="38.02862544784924" lon="15.722405438802706"><ele>758.8</ele><time>2026-04-25T07:49:52.001Z</time></trkpt><trkpt lat="38.02863305576271" lon="15.722522485280079"><ele>761.2</ele><time>2026-04-25T07:49:53.001Z</time></trkpt><trkpt lat="38.02865456771496" lon="15.722644618746461"><ele>763.5999999999999</ele><time>2026-04-25T07:49:54.001Z</time></trkpt><trkpt lat="38.02868080819976" lon="15.722761216545473"><ele>766.0</ele><time>2026-04-25T07:49:55.001Z</time></trkpt><trkpt lat="38.028703189986" lon="15.722868961940936"><ele>767.5999999999999</ele><time>2026-04-25T07:49:56.001Z</time></trkpt><trkpt lat="38.02871548380187" lon="15.722948606040552"><ele>769.2</ele><time>2026-04-25T07:49:57.001Z</time></trkpt><trkpt lat="38.028727349714735" lon="15.723111434550539"><ele>770.8</ele><time>2026-04-25T07:49:59.001Z</time></trkpt><trkpt lat="38.02871370802899" lon="15.723226452217505"><ele>772.4000000000001</ele><time>2026-04-25T07:50:00.001Z</time></trkpt><trkpt lat="38.02870431418528" lon="15.723377210355387"><ele>774.0</ele><time>2026-04-25T07:50:01.001Z</time></trkpt><trkpt lat="38.028693637338854" lon="15.723499598348813"><ele>775.1666666666666</ele><time>2026-04-25T07:50:02.001Z</time></trkpt><trkpt lat="38.0286816055289" lon="15.723595240873783"><ele>776.3333333333333</ele><time>2026-04-25T07:50:03.001Z</time></trkpt><trkpt lat="38.028662592206196" lon="15.72368667101673"><ele>777.5</ele><time>2026-04-25T07:50:04.001Z</time></trkpt><trkpt lat="38.02864687696469" lon="15.723787273025664"><ele>778.6666666666666</ele><time>2026-04-25T07:50:05.001Z</time></trkpt><trkpt lat="38.028641821636434" lon="15.723902148733943"><ele>779.8333333333333</ele><time>2026-04-25T07:50:06.001Z</time></trkpt><trkpt lat="38.02863036723272" lon="15.724007075659832"><ele>781.0</ele><time>2026-04-25T07:50:07.001Z</time></trkpt><trkpt lat="38.02863797066327" lon="15.724179816207688"><ele>781.0</ele><time>2026-04-25T07:50:09.001Z</time></trkpt><trkpt lat="38.028674881693334" lon="15.724273067183136"><ele>781.0</ele><time>2026-04-25T07:50:10.001Z</time></trkpt><trkpt lat="38.02873140611635" lon="15.724369713063188"><ele>781.0</ele><time>2026-04-25T07:50:11.001Z</time></trkpt><trkpt lat="38.02877365436186" lon="15.724468233230542"><ele>781.0</ele><time>2026-04-25T07:50:12.001Z</time></trkpt><trkpt lat="38.028804690738944" lon="15.724605309648087"><ele>781.0</ele><time>2026-04-25T07:50:13.001Z</time></trkpt><trkpt lat="38.028838490964596" lon="15.724771074234527"><ele>781.9999999999999</ele><time>2026-04-25T07:50:14.001Z</time></trkpt><trkpt lat="38.028861112807405" lon="15.724932886016335"><ele>783.0</ele><time>2026-04-25T07:50:15.001Z</time></trkpt><trkpt lat="38.0288705890317" lon="15.725026700772334"><ele>784.0</ele><time>2026-04-25T07:50:17.001Z</time></trkpt><trkpt lat="38.028836311860225" lon="15.725107142642367"><ele>785.0</ele><time>2026-04-25T07:50:20.001Z</time></trkpt><trkpt lat="38.02877985302059" lon="15.725148203763982"><ele>785.9999999999999</ele><time>2026-04-25T07:50:21.001Z</time></trkpt><trkpt lat="38.02870802975664" lon="15.72519541749715"><ele>787.0</ele><time>2026-04-25T07:50:22.001Z</time></trkpt><trkpt lat="38.028631582835935" lon="15.725250170231076"><ele>787.3333333333333</ele><time>2026-04-25T07:50:23.001Z</time></trkpt><trkpt lat="38.02857664256292" lon="15.725301421346913"><ele>787.6666666666666</ele><time>2026-04-25T07:50:24.001Z</time></trkpt><trkpt lat="38.02852332524075" lon="15.725428668979973"><ele>788.0</ele><time>2026-04-25T07:50:26.001Z</time></trkpt><trkpt lat="38.0284886954584" lon="15.725542298211048"><ele>788.3333333333333</ele><time>2026-04-25T07:50:27.001Z</time></trkpt><trkpt lat="38.02845129792211" lon="15.725621793803317"><ele>788.6666666666666</ele><time>2026-04-25T07:50:28.001Z</time></trkpt><trkpt lat="38.02842368117399" lon="15.725703319094446"><ele>789.0</ele><time>2026-04-25T07:50:29.001Z</time></trkpt><trkpt lat="38.02835933655454" lon="15.725851012550738"><ele>789.0</ele><time>2026-04-25T07:50:31.001Z</time></trkpt><trkpt lat="38.028334685219846" lon="15.725929603154409"><ele>789.0</ele><time>2026-04-25T07:50:32.001Z</time></trkpt><trkpt lat="38.028294241816994" lon="15.72602048787051"><ele>789.0</ele><time>2026-04-25T07:50:33.001Z</time></trkpt><trkpt lat="38.028256327605746" lon="15.72611335391837"><ele>789.0</ele><time>2026-04-25T07:50:34.001Z</time></trkpt><trkpt lat="38.02823889108659" lon="15.726200119768908"><ele>789.0</ele><time>2026-04-25T07:50:35.001Z</time></trkpt><trkpt lat="38.02823479298067" lon="15.72629221141962"><ele>789.0</ele><time>2026-04-25T07:50:36.001Z</time></trkpt><trkpt lat="38.02825946063785" lon="15.726447834143626"><ele>789.6666666666666</ele><time>2026-04-25T07:50:38.001Z</time></trkpt><trkpt lat="38.02829416452772" lon="15.726521004094826"><ele>790.3333333333333</ele><time>2026-04-25T07:50:39.001Z</time></trkpt><trkpt lat="38.02834619127484" lon="15.72659978110896"><ele>791.0</ele><time>2026-04-25T07:50:40.001Z</time></trkpt><trkpt lat="38.02839171867053" lon="15.726675994357295"><ele>791.6666666666666</ele><time>2026-04-25T07:50:41.001Z</time></trkpt><trkpt lat="38.028438378269236" lon="15.726761111186711"><ele>792.3333333333333</ele><time>2026-04-25T07:50:42.001Z</time></trkpt><trkpt lat="38.02845076989583" lon="15.726870289535057"><ele>793.0</ele><time>2026-04-25T07:50:43.001Z</time></trkpt><trkpt lat="38.02844909083858" lon="15.726960705549171"><ele>793.8333333333333</ele><time>2026-04-25T07:50:44.001Z</time></trkpt><trkpt lat="38.028444801362504" lon="15.727057762346634"><ele>794.6666666666666</ele><time>2026-04-25T07:50:45.001Z</time></trkpt><trkpt lat="38.02843219941342" lon="15.727164845922488"><ele>795.5</ele><time>2026-04-25T07:50:46.001Z</time></trkpt><trkpt lat="38.0284203784392" lon="15.727266282590925"><ele>796.3333333333333</ele><time>2026-04-25T07:50:47.001Z</time></trkpt><trkpt lat="38.02840767222415" lon="15.727376260028688"><ele>797.1666666666666</ele><time>2026-04-25T07:50:48.001Z</time></trkpt><trkpt lat="38.02839848765943" lon="15.72749071698587"><ele>798.0</ele><time>2026-04-25T07:50:49.001Z</time></trkpt><trkpt lat="38.028390779557746" lon="15.72760980148076"><ele>798.0</ele><time>2026-04-25T07:50:50.001Z</time></trkpt><trkpt lat="38.02837892742794" lon="15.727707932643579"><ele>798.0</ele><time>2026-04-25T07:50:51.001Z</time></trkpt><trkpt lat="38.028358377229516" lon="15.727796250396239"><ele>798.0</ele><time>2026-04-25T07:50:52.001Z</time></trkpt><trkpt lat="38.028318774149426" lon="15.72789478378059"><ele>798.0</ele><time>2026-04-25T07:50:53.001Z</time></trkpt><trkpt lat="38.02825991264195" lon="15.727977063486987"><ele>798.0</ele><time>2026-04-25T07:50:54.001Z</time></trkpt><trkpt lat="38.028216716079804" lon="15.728053197679749"><ele>798.0</ele><time>2026-04-25T07:50:55.001Z</time></trkpt><trkpt lat="38.02816311803947" lon="15.728102831452855"><ele>800.0</ele><time>2026-04-25T07:50:56.001Z</time></trkpt><trkpt lat="38.02809611608803" lon="15.72812418361999"><ele>802.0</ele><time>2026-04-25T07:50:57.001Z</time></trkpt><trkpt lat="38.02801255422071" lon="15.728174337203335"><ele>804.0</ele><time>2026-04-25T07:50:58.001Z</time></trkpt><trkpt lat="38.02789337576153" lon="15.728214253818724"><ele>806.0</ele><time>2026-04-25T07:50:59.001Z</time></trkpt><trkpt lat="38.02776201802311" lon="15.728280332475556"><ele>808.0</ele><time>2026-04-25T07:51:00.001Z</time></trkpt><trkpt lat="38.02763862919667" lon="15.728372283060123"><ele>808.0</ele><time>2026-04-25T07:51:01.001Z</time></trkpt><trkpt lat="38.0275586127978" lon="15.728471146618197"><ele>808.0</ele><time>2026-04-25T07:51:02.001Z</time></trkpt><trkpt lat="38.02753672632393" lon="15.72857502504285"><ele>808.0</ele><time>2026-04-25T07:51:03.001Z</time></trkpt><trkpt lat="38.02756145494273" lon="15.728713942886024"><ele>808.0</ele><time>2026-04-25T07:51:04.001Z</time></trkpt><trkpt lat="38.02757564421909" lon="15.728865248942649"><ele>808.0</ele><time>2026-04-25T07:51:05.001Z</time></trkpt><trkpt lat="38.02761762846276" lon="15.728958187177472"><ele>808.5</ele><time>2026-04-25T07:51:06.001Z</time></trkpt><trkpt lat="38.02770538705189" lon="15.72907004471587"><ele>809.0</ele><time>2026-04-25T07:51:07.001Z</time></trkpt><trkpt lat="38.02782703446062" lon="15.72921006054462"><ele>809.5</ele><time>2026-04-25T07:51:08.001Z</time></trkpt><trkpt lat="38.0279298733866" lon="15.729340687151803"><ele>810.0</ele><time>2026-04-25T07:51:09.001Z</time></trkpt><trkpt lat="38.028010254512786" lon="15.729435776706373"><ele>809.8</ele><time>2026-04-25T07:51:10.001Z</time></trkpt><trkpt lat="38.028113513298834" lon="15.72947927454459"><ele>809.6</ele><time>2026-04-25T07:51:11.001Z</time></trkpt><trkpt lat="38.02823149815481" lon="15.729487126079457"><ele>809.4000000000001</ele><time>2026-04-25T07:51:12.001Z</time></trkpt><trkpt lat="38.02832287990477" lon="15.72954433758169"><ele>809.2</ele><time>2026-04-25T07:51:13.001Z</time></trkpt><trkpt lat="38.028382256460695" lon="15.729667553642916"><ele>809.0</ele><time>2026-04-25T07:51:14Z</time></trkpt><trkpt lat="38.02844221510648" lon="15.729770557808722"><ele>809.0</ele><time>2026-04-25T07:51:15Z</time></trkpt><trkpt lat="38.02846993007238" lon="15.7298903884211"><ele>809.0</ele><time>2026-04-25T07:51:16Z</time></trkpt><trkpt lat="38.02847492644535" lon="15.730009205068354"><ele>809.0</ele><time>2026-04-25T07:51:17Z</time></trkpt><trkpt lat="38.028496851542265" lon="15.730118956703768"><ele>809.0</ele><time>2026-04-25T07:51:18Z</time></trkpt><trkpt lat="38.028491092166604" lon="15.730231434037176"><ele>809.0</ele><time>2026-04-25T07:51:19Z</time></trkpt><trkpt lat="38.02849081054225" lon="15.730349783087485"><ele>808.0</ele><time>2026-04-25T07:51:20Z</time></trkpt><trkpt lat="38.02844841595156" lon="15.73046321670765"><ele>807.0</ele><time>2026-04-25T07:51:21Z</time></trkpt><trkpt lat="38.02840743365682" lon="15.730568330229211"><ele>806.0</ele><time>2026-04-25T07:51:22Z</time></trkpt><trkpt lat="38.02841378834986" lon="15.730676152320438"><ele>805.0</ele><time>2026-04-25T07:51:23Z</time></trkpt><trkpt lat="38.028411397852615" lon="15.730824533053852"><ele>804.0</ele><time>2026-04-25T07:51:24Z</time></trkpt><trkpt lat="38.02843941048061" lon="15.730998656272256"><ele>802.8000000000001</ele><time>2026-04-25T07:51:25Z</time></trkpt><trkpt lat="38.02847699569933" lon="15.731129298842367"><ele>801.6</ele><time>2026-04-25T07:51:26Z</time></trkpt><trkpt lat="38.02855863768023" lon="15.73120850229499"><ele>800.4</ele><time>2026-04-25T07:51:27Z</time></trkpt><trkpt lat="38.02861727166566" lon="15.73129634164475"><ele>799.2</ele><time>2026-04-25T07:51:28Z</time></trkpt><trkpt lat="38.02870617188561" lon="15.731364304627466"><ele>798.0</ele><time>2026-04-25T07:51:29Z</time></trkpt><trkpt lat="38.02875362022662" lon="15.731472796816035"><ele>798.0</ele><time>2026-04-25T07:51:30Z</time></trkpt><trkpt lat="38.02881005193353" lon="15.731610143928995"><ele>798.0</ele><time>2026-04-25T07:51:31Z</time></trkpt><trkpt lat="38.028858530655626" lon="15.731739230757215"><ele>798.0</ele><time>2026-04-25T07:51:32Z</time></trkpt><trkpt lat="38.028862693296624" lon="15.731844918909673"><ele>798.0</ele><time>2026-04-25T07:51:33Z</time></trkpt><trkpt lat="38.02885108438785" lon="15.731926856034844"><ele>798.0</ele><time>2026-04-25T07:51:34Z</time></trkpt><trkpt lat="38.028829151070454" lon="15.732026330845022"><ele>798.8</ele><time>2026-04-25T07:51:35Z</time></trkpt><trkpt lat="38.02879553027812" lon="15.732144460375672"><ele>799.5999999999999</ele><time>2026-04-25T07:51:36Z</time></trkpt><trkpt lat="38.02875942307582" lon="15.732258289619011"><ele>800.4000000000001</ele><time>2026-04-25T07:51:37Z</time></trkpt><trkpt lat="38.02872799662138" lon="15.732363748209474"><ele>801.2</ele><time>2026-04-25T07:51:38Z</time></trkpt><trkpt lat="38.028687265370316" lon="15.732453252102532"><ele>802.0</ele><time>2026-04-25T07:51:39Z</time></trkpt><trkpt lat="38.02863712227321" lon="15.732578181140763"><ele>802.0</ele><time>2026-04-25T07:51:40Z</time></trkpt><trkpt lat="38.028531743148115" lon="15.7327081811181"><ele>802.0</ele><time>2026-04-25T07:51:41Z</time></trkpt><trkpt lat="38.02846675388559" lon="15.732831042198136"><ele>802.0</ele><time>2026-04-25T07:51:42Z</time></trkpt><trkpt lat="38.02840551377661" lon="15.732892210741403"><ele>802.0</ele><time>2026-04-25T07:51:43Z</time></trkpt><trkpt lat="38.02834512525716" lon="15.732943097475564"><ele>802.0</ele><time>2026-04-25T07:51:44Z</time></trkpt><trkpt lat="38.02827197471097" lon="15.733007859653766"><ele>800.6</ele><time>2026-04-25T07:51:45Z</time></trkpt><trkpt lat="38.02818498945921" lon="15.733047141026374"><ele>799.2</ele><time>2026-04-25T07:51:46Z</time></trkpt><trkpt lat="38.028090366243106" lon="15.733100519907367"><ele>797.8</ele><time>2026-04-25T07:51:47Z</time></trkpt><trkpt lat="38.027992185626964" lon="15.733162040805343"><ele>796.4</ele><time>2026-04-25T07:51:48Z</time></trkpt><trkpt lat="38.0278951744729" lon="15.733243567295743"><ele>795.0</ele><time>2026-04-25T07:51:49Z</time></trkpt><trkpt lat="38.027801364970394" lon="15.733347140411446"><ele>795.0</ele><time>2026-04-25T07:51:50Z</time></trkpt><trkpt lat="38.02771354312441" lon="15.733449278478306"><ele>795.0</ele><time>2026-04-25T07:51:51Z</time></trkpt><trkpt lat="38.02762892722486" lon="15.733546477603658"><ele>795.0</ele><time>2026-04-25T07:51:52Z</time></trkpt><trkpt lat="38.02752812902367" lon="15.733635624642012"><ele>795.0</ele><time>2026-04-25T07:51:53Z</time></trkpt><trkpt lat="38.02741955319138" lon="15.733701455663455"><ele>792.0</ele><time>2026-04-25T07:51:54Z</time></trkpt><trkpt lat="38.027291206482765" lon="15.733765828716079"><ele>789.0</ele><time>2026-04-25T07:51:55Z</time></trkpt><trkpt lat="38.0271491200582" lon="15.733848134686104"><ele>786.0</ele><time>2026-04-25T07:51:56.001Z</time></trkpt><trkpt lat="38.02702807105851" lon="15.733927748806883"><ele>783.0</ele><time>2026-04-25T07:51:57.001Z</time></trkpt><trkpt lat="38.02692380019255" lon="15.734031938701461"><ele>783.0</ele><time>2026-04-25T07:51:58.001Z</time></trkpt><trkpt lat="38.02681916929361" lon="15.734131830816196"><ele>783.0</ele><time>2026-04-25T07:51:59.001Z</time></trkpt><trkpt lat="38.026725150564175" lon="15.73421703563022"><ele>783.0</ele><time>2026-04-25T07:52:00.001Z</time></trkpt><trkpt lat="38.026674915436566" lon="15.734301507354129"><ele>783.0</ele><time>2026-04-25T07:52:01.001Z</time></trkpt><trkpt lat="38.026616506029725" lon="15.734368551941163"><ele>783.0</ele><time>2026-04-25T07:52:02.001Z</time></trkpt><trkpt lat="38.02654942785735" lon="15.734426491602214"><ele>785.3333333333334</ele><time>2026-04-25T07:52:03.001Z</time></trkpt><trkpt lat="38.026481314089025" lon="15.734488558545507"><ele>787.6666666666667</ele><time>2026-04-25T07:52:04.001Z</time></trkpt><trkpt lat="38.02640863112755" lon="15.734549877885732"><ele>790.0</ele><time>2026-04-25T07:52:05.001Z</time></trkpt><trkpt lat="38.02635486330097" lon="15.73459972728283"><ele>792.3333333333334</ele><time>2026-04-25T07:52:06.001Z</time></trkpt><trkpt lat="38.02629773392294" lon="15.734648909792888"><ele>794.6666666666667</ele><time>2026-04-25T07:52:07.001Z</time></trkpt><trkpt lat="38.02619837236108" lon="15.734692928818005"><ele>797.0</ele><time>2026-04-25T07:52:08.001Z</time></trkpt><trkpt lat="38.02610771713685" lon="15.734706186022226"><ele>797.0</ele><time>2026-04-25T07:52:09.001Z</time></trkpt><trkpt lat="38.02601041659936" lon="15.7346756315613"><ele>797.0</ele><time>2026-04-25T07:52:10.001Z</time></trkpt><trkpt lat="38.02591916534965" lon="15.734685827791443"><ele>797.0</ele><time>2026-04-25T07:52:11.001Z</time></trkpt><trkpt lat="38.02582920131481" lon="15.734695294892914"><ele>797.0</ele><time>2026-04-25T07:52:12.001Z</time></trkpt><trkpt lat="38.02577275639378" lon="15.734781272609117"><ele>797.0</ele><time>2026-04-25T07:52:13.001Z</time></trkpt><trkpt lat="38.02572407344284" lon="15.734878230392091"><ele>797.2</ele><time>2026-04-25T07:52:14.001Z</time></trkpt><trkpt lat="38.025665497641796" lon="15.7349844408962"><ele>797.4000000000001</ele><time>2026-04-25T07:52:15.001Z</time></trkpt><trkpt lat="38.025616567792746" lon="15.735087400175095"><ele>797.5999999999999</ele><time>2026-04-25T07:52:16.001Z</time></trkpt><trkpt lat="38.025516916601255" lon="15.73516557870383"><ele>797.8</ele><time>2026-04-25T07:52:17.001Z</time></trkpt><trkpt lat="38.02542222334585" lon="15.735233546952186"><ele>798.0</ele><time>2026-04-25T07:52:18.001Z</time></trkpt><trkpt lat="38.025315004051684" lon="15.735292416903528"><ele>798.2</ele><time>2026-04-25T07:52:19.001Z</time></trkpt><trkpt lat="38.02520591757841" lon="15.735346125270485"><ele>798.4</ele><time>2026-04-25T07:52:20.001Z</time></trkpt><trkpt lat="38.02512599920626" lon="15.735412328520948"><ele>798.6</ele><time>2026-04-25T07:52:21.001Z</time></trkpt><trkpt lat="38.02506132886451" lon="15.73550083009549"><ele>798.8000000000001</ele><time>2026-04-25T07:52:22.001Z</time></trkpt><trkpt lat="38.02499359537387" lon="15.735581717457912"><ele>799.0</ele><time>2026-04-25T07:52:23.001Z</time></trkpt><trkpt lat="38.02493531347151" lon="15.735655228520114"><ele>798.9999999999999</ele><time>2026-04-25T07:52:24.001Z</time></trkpt><trkpt lat="38.02488778824202" lon="15.73572059789701"><ele>799.0</ele><time>2026-04-25T07:52:25.001Z</time></trkpt><trkpt lat="38.02481582969431" lon="15.73583609915219"><ele>799.0</ele><time>2026-04-25T07:52:27.001Z</time></trkpt><trkpt lat="38.02478225084104" lon="15.735909779191688"><ele>799.0</ele><time>2026-04-25T07:52:28.001Z</time></trkpt><trkpt lat="38.024743781681074" lon="15.735997456425874"><ele>798.9999999999999</ele><time>2026-04-25T07:52:29.001Z</time></trkpt><trkpt lat="38.02473435620125" lon="15.736097003526007"><ele>799.0</ele><time>2026-04-25T07:52:30.001Z</time></trkpt><trkpt lat="38.02472025823251" lon="15.73619540496281"><ele>800.1428571428572</ele><time>2026-04-25T07:52:31.001Z</time></trkpt><trkpt lat="38.024702771031336" lon="15.736293725223424"><ele>801.2857142857142</ele><time>2026-04-25T07:52:32.001Z</time></trkpt><trkpt lat="38.024695364477815" lon="15.736378481450346"><ele>802.4285714285714</ele><time>2026-04-25T07:52:33.001Z</time></trkpt><trkpt lat="38.02469914823245" lon="15.736465150140795"><ele>803.5714285714287</ele><time>2026-04-25T07:52:34.001Z</time></trkpt><trkpt lat="38.02466094761206" lon="15.736532301802274"><ele>804.7142857142858</ele><time>2026-04-25T07:52:35.001Z</time></trkpt><trkpt lat="38.02461726005152" lon="15.736590017297138"><ele>805.8571428571429</ele><time>2026-04-25T07:52:36.001Z</time></trkpt><trkpt lat="38.02454380802496" lon="15.73663365451537"><ele>807.0</ele><time>2026-04-25T07:52:37.001Z</time></trkpt><trkpt lat="38.024474083296255" lon="15.73669464064019"><ele>807.0</ele><time>2026-04-25T07:52:38.001Z</time></trkpt><trkpt lat="38.024418052329786" lon="15.73674048416945"><ele>807.0</ele><time>2026-04-25T07:52:39.001Z</time></trkpt><trkpt lat="38.024302788160696" lon="15.73683629967755"><ele>807.0</ele><time>2026-04-25T07:52:41.001Z</time></trkpt><trkpt lat="38.02423782404716" lon="15.736902533804066"><ele>807.0</ele><time>2026-04-25T07:52:42.001Z</time></trkpt><trkpt lat="38.0241681203531" lon="15.736956826044397"><ele>807.0</ele><time>2026-04-25T07:52:43.001Z</time></trkpt><trkpt lat="38.024096332009414" lon="15.737008571877533"><ele>809.1666666666666</ele><time>2026-04-25T07:52:44.001Z</time></trkpt><trkpt lat="38.02403515150259" lon="15.737046398657187"><ele>811.3333333333333</ele><time>2026-04-25T07:52:45.001Z</time></trkpt><trkpt lat="38.02393608232972" lon="15.737125882698642"><ele>813.5</ele><time>2026-04-25T07:52:47.001Z</time></trkpt><trkpt lat="38.02388977410044" lon="15.737201505698229"><ele>815.6666666666666</ele><time>2026-04-25T07:52:48.001Z</time></trkpt><trkpt lat="38.02385697061502" lon="15.73727218984906"><ele>817.8333333333333</ele><time>2026-04-25T07:52:49.001Z</time></trkpt><trkpt lat="38.02377064714403" lon="15.737337315344693"><ele>820.0</ele><time>2026-04-25T07:52:51.001Z</time></trkpt><trkpt lat="38.02364089614514" lon="15.737312023468128"><ele>820.0</ele><time>2026-04-25T07:52:53.001Z</time></trkpt><trkpt lat="38.02356360531306" lon="15.737298343797864"><ele>820.0</ele><time>2026-04-25T07:52:54.001Z</time></trkpt><trkpt lat="38.02349767180634" lon="15.737295058688707"><ele>820.0</ele><time>2026-04-25T07:52:55.001Z</time></trkpt><trkpt lat="38.023433474457256" lon="15.737278478195655"><ele>820.0</ele><time>2026-04-25T07:52:56.001Z</time></trkpt><trkpt lat="38.023367115999136" lon="15.737250817725178"><ele>820.0</ele><time>2026-04-25T07:52:57.001Z</time></trkpt><trkpt lat="38.023294555989715" lon="15.737202208647755"><ele>820.0</ele><time>2026-04-25T07:52:58.001Z</time></trkpt><trkpt lat="38.02321798815606" lon="15.737162913612593"><ele>820.0</ele><time>2026-04-25T07:52:59.001Z</time></trkpt><trkpt lat="38.023143561050425" lon="15.737130362229774"><ele>818.6666666666666</ele><time>2026-04-25T07:53:00.001Z</time></trkpt><trkpt lat="38.02307699212283" lon="15.737090830858811"><ele>817.3333333333333</ele><time>2026-04-25T07:53:01.001Z</time></trkpt><trkpt lat="38.02300778889728" lon="15.737055869985229"><ele>816.0</ele><time>2026-04-25T07:53:02.001Z</time></trkpt><trkpt lat="38.02293360790596" lon="15.737037019804518"><ele>814.6666666666667</ele><time>2026-04-25T07:53:03.001Z</time></trkpt><trkpt lat="38.02286421892997" lon="15.737041433999595"><ele>813.3333333333334</ele><time>2026-04-25T07:53:04.001Z</time></trkpt><trkpt lat="38.022743626042136" lon="15.737057327189056"><ele>812.0</ele><time>2026-04-25T07:53:06.001Z</time></trkpt><trkpt lat="38.02263952505754" lon="15.736997066912805"><ele>810.5</ele><time>2026-04-25T07:53:08.001Z</time></trkpt><trkpt lat="38.0225566691727" lon="15.736882094938586"><ele>809.0</ele><time>2026-04-25T07:53:10.001Z</time></trkpt><trkpt lat="38.02246092813603" lon="15.73680477626994"><ele>807.5</ele><time>2026-04-25T07:53:12.001Z</time></trkpt><trkpt lat="38.02237297853132" lon="15.73673142234704"><ele>806.0</ele><time>2026-04-25T07:53:14.001Z</time></trkpt><trkpt lat="38.022243384637086" lon="15.736684597241599"><ele>805.3333333333334</ele><time>2026-04-25T07:53:16.001Z</time></trkpt><trkpt lat="38.022166011225615" lon="15.736683835336393"><ele>804.6666666666667</ele><time>2026-04-25T07:53:17.001Z</time></trkpt><trkpt lat="38.02208973650022" lon="15.736679065234851"><ele>804.0</ele><time>2026-04-25T07:53:18.001Z</time></trkpt><trkpt lat="38.02196253818527" lon="15.736660548929448"><ele>803.3333333333333</ele><time>2026-04-25T07:53:20.001Z</time></trkpt><trkpt lat="38.021889084538024" lon="15.736661418960585"><ele>802.6666666666666</ele><time>2026-04-25T07:53:21.001Z</time></trkpt><trkpt lat="38.02182509319889" lon="15.736668123949462"><ele>802.0</ele><time>2026-04-25T07:53:22.001Z</time></trkpt><trkpt lat="38.02172536544616" lon="15.73669490660586"><ele>801.4999999999999</ele><time>2026-04-25T07:53:24.001Z</time></trkpt><trkpt lat="38.02161388493872" lon="15.736789272743541"><ele>801.0</ele><time>2026-04-25T07:53:26.001Z</time></trkpt><trkpt lat="38.021545825468856" lon="15.736854394116385"><ele>800.5</ele><time>2026-04-25T07:53:27.001Z</time></trkpt><trkpt lat="38.02148825441766" lon="15.736908205991035"><ele>800.0</ele><time>2026-04-25T07:53:28.001Z</time></trkpt><trkpt lat="38.02142643461857" lon="15.736958514937145"><ele>799.4999999999999</ele><time>2026-04-25T07:53:29.001Z</time></trkpt><trkpt lat="38.02136612403106" lon="15.736992996881662"><ele>799.0</ele><time>2026-04-25T07:53:30.001Z</time></trkpt><trkpt lat="38.021279143569814" lon="15.737077910751053"><ele>798.3333333333333</ele><time>2026-04-25T07:53:32.001Z</time></trkpt><trkpt lat="38.02125486023478" lon="15.737153426673101"><ele>797.6666666666666</ele><time>2026-04-25T07:53:33.001Z</time></trkpt><trkpt lat="38.021250871146066" lon="15.737238486106358"><ele>797.0</ele><time>2026-04-25T07:53:34.001Z</time></trkpt><trkpt lat="38.02123444829518" lon="15.737383403523559"><ele>796.3333333333333</ele><time>2026-04-25T07:53:36.001Z</time></trkpt><trkpt lat="38.021137974765054" lon="15.737501009812998"><ele>795.6666666666666</ele><time>2026-04-25T07:53:38.001Z</time></trkpt><trkpt lat="38.021077104951125" lon="15.73753585558498"><ele>795.0</ele><time>2026-04-25T07:53:39.001Z</time></trkpt><trkpt lat="38.021010028376075" lon="15.737531520663113"><ele>795.0</ele><time>2026-04-25T07:53:40.001Z</time></trkpt><trkpt lat="38.020944467273345" lon="15.737509971270105"><ele>795.0</ele><time>2026-04-25T07:53:41.001Z</time></trkpt><trkpt lat="38.02086123265699" lon="15.737465907586651"><ele>795.0</ele><time>2026-04-25T07:53:43.001Z</time></trkpt><trkpt lat="38.02079520534413" lon="15.737457720689976"><ele>795.0</ele><time>2026-04-25T07:53:49.001Z</time></trkpt><trkpt lat="38.020685261649724" lon="15.737406509258863"><ele>795.0</ele><time>2026-04-25T07:53:51.001Z</time></trkpt><trkpt lat="38.020610435254156" lon="15.737390237435532"><ele>795.0</ele><time>2026-04-25T07:53:52.001Z</time></trkpt><trkpt lat="38.020492683723894" lon="15.737375377127478"><ele>797.75</ele><time>2026-04-25T07:53:53.001Z</time></trkpt><trkpt lat="38.020373502055385" lon="15.737392563228054"><ele>800.5</ele><time>2026-04-25T07:53:54.001Z</time></trkpt><trkpt lat="38.02026234902435" lon="15.73745343463214"><ele>803.25</ele><time>2026-04-25T07:53:55.001Z</time></trkpt><trkpt lat="38.020163621529726" lon="15.737569301659633"><ele>806.0</ele><time>2026-04-25T07:53:56.001Z</time></trkpt><trkpt lat="38.02027876951461" lon="15.737619508109214"><ele>806.4</ele><time>2026-04-25T07:53:57.001Z</time></trkpt><trkpt lat="38.02023744134987" lon="15.73773837749133"><ele>806.8</ele><time>2026-04-25T07:53:58.001Z</time></trkpt><trkpt lat="38.02017896982343" lon="15.737850529442804"><ele>807.1999999999999</ele><time>2026-04-25T07:53:59.001Z</time></trkpt><trkpt lat="38.0200977480232" lon="15.737956595642592"><ele>807.5999999999999</ele><time>2026-04-25T07:54:00.001Z</time></trkpt><trkpt lat="38.02002561428412" lon="15.738057358279617"><ele>808.0</ele><time>2026-04-25T07:54:01.001Z</time></trkpt><trkpt lat="38.01992699084298" lon="15.738192920345208"><ele>808.0</ele><time>2026-04-25T07:54:02.001Z</time></trkpt><trkpt lat="38.01985661041364" lon="15.73830597134656"><ele>808.0</ele><time>2026-04-25T07:54:03.001Z</time></trkpt><trkpt lat="38.019777067799566" lon="15.738414155463218"><ele>808.0</ele><time>2026-04-25T07:54:04.001Z</time></trkpt><trkpt lat="38.019667725227464" lon="15.738493110801555"><ele>808.0</ele><time>2026-04-25T07:54:05.001Z</time></trkpt><trkpt lat="38.01952962163551" lon="15.73856215405762"><ele>808.0</ele><time>2026-04-25T07:54:06.001Z</time></trkpt><trkpt lat="38.019436800651086" lon="15.738607310801937"><ele>808.0</ele><time>2026-04-25T07:54:07.001Z</time></trkpt><trkpt lat="38.01938097855503" lon="15.738666772934213"><ele>808.0</ele><time>2026-04-25T07:54:08.001Z</time></trkpt><trkpt lat="38.01932136643434" lon="15.738778960155704"><ele>808.0</ele><time>2026-04-25T07:54:09.001Z</time></trkpt><trkpt lat="38.01925450476518" lon="15.73888726193603"><ele>808.0</ele><time>2026-04-25T07:54:10.001Z</time></trkpt><trkpt lat="38.019204959358774" lon="15.738946021341686"><ele>810.9999999999999</ele><time>2026-04-25T07:54:11.001Z</time></trkpt><trkpt lat="38.01912266764578" lon="15.739005053781298"><ele>814.0</ele><time>2026-04-25T07:54:13.001Z</time></trkpt><trkpt lat="38.019059028838264" lon="15.73900790109894"><ele>817.0</ele><time>2026-04-25T07:54:16.001Z</time></trkpt><trkpt lat="38.01900911293548" lon="15.738949250928535"><ele>820.0</ele><time>2026-04-25T07:54:17.001Z</time></trkpt><trkpt lat="38.018944685902554" lon="15.73888297643965"><ele>822.9999999999999</ele><time>2026-04-25T07:54:18.001Z</time></trkpt><trkpt lat="38.018827871496306" lon="15.738793655419851"><ele>826.0</ele><time>2026-04-25T07:54:19.001Z</time></trkpt><trkpt lat="38.01872253482105" lon="15.73872554774008"><ele>826.0</ele><time>2026-04-25T07:54:20.001Z</time></trkpt><trkpt lat="38.01862255332399" lon="15.738690141502822"><ele>826.0</ele><time>2026-04-25T07:54:21.001Z</time></trkpt><trkpt lat="38.018521937481886" lon="15.7386694309361"><ele>826.0</ele><time>2026-04-25T07:54:22.001Z</time></trkpt><trkpt lat="38.018398937591414" lon="15.738645241043717"><ele>826.0</ele><time>2026-04-25T07:54:23.001Z</time></trkpt><trkpt lat="38.01826947301327" lon="15.738622260409578"><ele>828.4999999999999</ele><time>2026-04-25T07:54:24.001Z</time></trkpt><trkpt lat="38.018185555046394" lon="15.738584789467584"><ele>831.0</ele><time>2026-04-25T07:54:25.001Z</time></trkpt><trkpt lat="38.01810578920002" lon="15.73850501674227"><ele>833.5</ele><time>2026-04-25T07:54:27.001Z</time></trkpt><trkpt lat="38.01809902924926" lon="15.738425032524791"><ele>836.0</ele><time>2026-04-25T07:54:28.001Z</time></trkpt><trkpt lat="38.01814093271287" lon="15.738362306875118"><ele>838.4999999999999</ele><time>2026-04-25T07:54:29.001Z</time></trkpt><trkpt lat="38.018198796640405" lon="15.738288013922025"><ele>841.0</ele><time>2026-04-25T07:54:30.001Z</time></trkpt><trkpt lat="38.01826810214902" lon="15.738204130394159"><ele>839.75</ele><time>2026-04-25T07:54:31.001Z</time></trkpt><trkpt lat="38.018343683186046" lon="15.738083136514113"><ele>838.5</ele><time>2026-04-25T07:54:32.001Z</time></trkpt><trkpt lat="38.018363084488875" lon="15.73797366206302"><ele>837.25</ele><time>2026-04-25T07:54:33.001Z</time></trkpt><trkpt lat="38.018355791738884" lon="15.737819107357847"><ele>836.0</ele><time>2026-04-25T07:54:34.001Z</time></trkpt><trkpt lat="38.01833052205167" lon="15.73766380270992"><ele>838.75</ele><time>2026-04-25T07:54:35.001Z</time></trkpt><trkpt lat="38.01830179085488" lon="15.737509886970528"><ele>841.5</ele><time>2026-04-25T07:54:36.001Z</time></trkpt><trkpt lat="38.01826201788962" lon="15.737378779521478"><ele>844.25</ele><time>2026-04-25T07:54:37.001Z</time></trkpt><trkpt lat="38.018182101376006" lon="15.73727454210819"><ele>847.0</ele><time>2026-04-25T07:54:38.001Z</time></trkpt><trkpt lat="38.01808547993363" lon="15.737149896259227"><ele>847.0</ele><time>2026-04-25T07:54:39.001Z</time></trkpt><trkpt lat="38.0180302370382" lon="15.7370656358458"><ele>847.0</ele><time>2026-04-25T07:54:40.001Z</time></trkpt><trkpt lat="38.01797221828429" lon="15.736979052458553"><ele>847.0</ele><time>2026-04-25T07:54:41.001Z</time></trkpt><trkpt lat="38.01791867147991" lon="15.736894867932286"><ele>847.0</ele><time>2026-04-25T07:54:42.001Z</time></trkpt><trkpt lat="38.017868170161854" lon="15.736786101063062"><ele>847.0</ele><time>2026-04-25T07:54:43.001Z</time></trkpt><trkpt lat="38.017806464198976" lon="15.736650118118389"><ele>845.0</ele><time>2026-04-25T07:54:44.001Z</time></trkpt><trkpt lat="38.01774470793329" lon="15.736504701166021"><ele>843.0</ele><time>2026-04-25T07:54:45.001Z</time></trkpt><trkpt lat="38.01767735005839" lon="15.736377720520505"><ele>841.0</ele><time>2026-04-25T07:54:46.001Z</time></trkpt><trkpt lat="38.017640451533275" lon="15.736249223424775"><ele>839.0</ele><time>2026-04-25T07:54:47.001Z</time></trkpt><trkpt lat="38.01759493538274" lon="15.736100927473615"><ele>837.6</ele><time>2026-04-25T07:54:48.001Z</time></trkpt><trkpt lat="38.01755262792527" lon="15.73598512547241"><ele>836.2</ele><time>2026-04-25T07:54:49.001Z</time></trkpt><trkpt lat="38.01755746966303" lon="15.735869794454318"><ele>834.8000000000001</ele><time>2026-04-25T07:54:50.001Z</time></trkpt><trkpt lat="38.01753780625887" lon="15.73577464441857"><ele>833.4000000000001</ele><time>2026-04-25T07:54:51.001Z</time></trkpt><trkpt lat="38.01752419711978" lon="15.73567718622799"><ele>832.0</ele><time>2026-04-25T07:54:52.001Z</time></trkpt><trkpt lat="38.01748965777144" lon="15.735542399735271"><ele>832.2</ele><time>2026-04-25T07:54:54.001Z</time></trkpt><trkpt lat="38.017397426833895" lon="15.73550992210457"><ele>832.4000000000001</ele><time>2026-04-25T07:54:57.001Z</time></trkpt><trkpt lat="38.017369025418894" lon="15.735613056607093"><ele>832.5999999999999</ele><time>2026-04-25T07:54:59.001Z</time></trkpt><trkpt lat="38.0173799031659" lon="15.735737705339492"><ele>832.8</ele><time>2026-04-25T07:55:00.001Z</time></trkpt><trkpt lat="38.01738308392527" lon="15.735935984454128"><ele>833.0</ele><time>2026-04-25T07:55:01.001Z</time></trkpt><trkpt lat="38.017386207958474" lon="15.736204424896156"><ele>836.3333333333334</ele><time>2026-04-25T07:55:02.001Z</time></trkpt><trkpt lat="38.017392249219846" lon="15.736495101539905"><ele>839.6666666666667</ele><time>2026-04-25T07:55:03.001Z</time></trkpt><trkpt lat="38.017391013172976" lon="15.736742489092038"><ele>843.0</ele><time>2026-04-25T07:55:04.001Z</time></trkpt><trkpt lat="38.01739582630458" lon="15.736929244390161"><ele>844.5</ele><time>2026-04-25T07:55:05.001Z</time></trkpt><trkpt lat="38.01737165074783" lon="15.737101083613513"><ele>846.0</ele><time>2026-04-25T07:55:06.001Z</time></trkpt><trkpt lat="38.01734207909015" lon="15.737276675014256"><ele>847.5</ele><time>2026-04-25T07:55:07.001Z</time></trkpt><trkpt lat="38.017305862028365" lon="15.737467518467627"><ele>849.0</ele><time>2026-04-25T07:55:08.001Z</time></trkpt><trkpt lat="38.01726196171142" lon="15.737686261021137"><ele>850.0</ele><time>2026-04-25T07:55:09.001Z</time></trkpt><trkpt lat="38.01722525949348" lon="15.737864679601035"><ele>851.0</ele><time>2026-04-25T07:55:10.001Z</time></trkpt><trkpt lat="38.01718621812485" lon="15.738022327617097"><ele>852.0</ele><time>2026-04-25T07:55:11.001Z</time></trkpt><trkpt lat="38.017115319228445" lon="15.738190064364778"><ele>853.0</ele><time>2026-04-25T07:55:12.001Z</time></trkpt><trkpt lat="38.017030574463945" lon="15.738340384632988"><ele>853.0</ele><time>2026-04-25T07:55:13.001Z</time></trkpt><trkpt lat="38.01695879177324" lon="15.738499060221548"><ele>853.0</ele><time>2026-04-25T07:55:14.001Z</time></trkpt><trkpt lat="38.01685819516941" lon="15.738615264085732"><ele>853.0</ele><time>2026-04-25T07:55:15.001Z</time></trkpt><trkpt lat="38.016785823723026" lon="15.738758927805659"><ele>853.0</ele><time>2026-04-25T07:55:16.001Z</time></trkpt><trkpt lat="38.01674109111583" lon="15.738917734875178"><ele>853.0</ele><time>2026-04-25T07:55:17.001Z</time></trkpt><trkpt lat="38.01668421469007" lon="15.739103530076818"><ele>853.0</ele><time>2026-04-25T07:55:18.001Z</time></trkpt><trkpt lat="38.01664366552284" lon="15.739307814668287"><ele>853.0</ele><time>2026-04-25T07:55:19.001Z</time></trkpt><trkpt lat="38.01662346441909" lon="15.739516579156573"><ele>852.75</ele><time>2026-04-25T07:55:20.001Z</time></trkpt><trkpt lat="38.01656410059866" lon="15.739720280637275"><ele>852.5</ele><time>2026-04-25T07:55:21.001Z</time></trkpt><trkpt lat="38.01652907366983" lon="15.739892646450267"><ele>852.25</ele><time>2026-04-25T07:55:22.001Z</time></trkpt><trkpt lat="38.01648341347765" lon="15.74005173204113"><ele>852.0</ele><time>2026-04-25T07:55:23.001Z</time></trkpt><trkpt lat="38.01642863887896" lon="15.740224832158136"><ele>852.75</ele><time>2026-04-25T07:55:24.001Z</time></trkpt><trkpt lat="38.01640416543258" lon="15.740394827548304"><ele>853.5</ele><time>2026-04-25T07:55:25.001Z</time></trkpt><trkpt lat="38.016400782928095" lon="15.740542662420362"><ele>854.25</ele><time>2026-04-25T07:55:26.001Z</time></trkpt><trkpt lat="38.01641768297349" lon="15.74068970671662"><ele>855.0</ele><time>2026-04-25T07:55:27.001Z</time></trkpt><trkpt lat="38.016424338829864" lon="15.740832173427709"><ele>855.0</ele><time>2026-04-25T07:55:28.001Z</time></trkpt><trkpt lat="38.01642969249726" lon="15.740960964318944"><ele>855.0</ele><time>2026-04-25T07:55:29.001Z</time></trkpt><trkpt lat="38.01638635664013" lon="15.74108404563247"><ele>855.0</ele><time>2026-04-25T07:55:30.001Z</time></trkpt><trkpt lat="38.01631650673255" lon="15.741186711851432"><ele>855.0</ele><time>2026-04-25T07:55:31.001Z</time></trkpt><trkpt lat="38.01623825596928" lon="15.741307467479944"><ele>855.0</ele><time>2026-04-25T07:55:32.001Z</time></trkpt><trkpt lat="38.0161896543702" lon="15.741398890773281"><ele>857.2</ele><time>2026-04-25T07:55:33.001Z</time></trkpt><trkpt lat="38.016086369843" lon="15.74154763204713"><ele>859.4</ele><time>2026-04-25T07:55:34.001Z</time></trkpt><trkpt lat="38.016017759222194" lon="15.741660595914093"><ele>861.5999999999999</ele><time>2026-04-25T07:55:35.001Z</time></trkpt><trkpt lat="38.01593374615868" lon="15.741745438448303"><ele>863.8</ele><time>2026-04-25T07:55:36.001Z</time></trkpt><trkpt lat="38.01586917343318" lon="15.741781502210229"><ele>866.0</ele><time>2026-04-25T07:55:37.001Z</time></trkpt><trkpt lat="38.01580451439536" lon="15.741751328540072"><ele>866.8</ele><time>2026-04-25T07:55:38.001Z</time></trkpt><trkpt lat="38.01572006956089" lon="15.741739528334662"><ele>867.5999999999999</ele><time>2026-04-25T07:55:39.001Z</time></trkpt><trkpt lat="38.01563718318453" lon="15.741696122213702"><ele>868.4</ele><time>2026-04-25T07:55:40.001Z</time></trkpt><trkpt lat="38.01553934644547" lon="15.741665851506792"><ele>869.2</ele><time>2026-04-25T07:55:42.001Z</time></trkpt><trkpt lat="38.01563383421837" lon="15.741743965703183"><ele>870.0</ele><time>2026-04-25T07:55:52.001Z</time></trkpt><trkpt lat="38.01573428130132" lon="15.741790214609567"><ele>870.0</ele><time>2026-04-25T07:55:53.001Z</time></trkpt><trkpt lat="38.01581889440774" lon="15.741818605280733"><ele>870.0</ele><time>2026-04-25T07:55:54.001Z</time></trkpt><trkpt lat="38.01588877015055" lon="15.74181152522449"><ele>870.0</ele><time>2026-04-25T07:55:56.001Z</time></trkpt><trkpt lat="38.015892844244675" lon="15.7419123570147"><ele>870.0</ele><time>2026-04-25T07:55:59.001Z</time></trkpt><trkpt lat="38.01581605097267" lon="15.742030260376964"><ele>870.0</ele><time>2026-04-25T07:56:01.001Z</time></trkpt><trkpt lat="38.01576641259916" lon="15.742108491383"><ele>870.0</ele><time>2026-04-25T07:56:02.001Z</time></trkpt><trkpt lat="38.015721865136605" lon="15.742196709623348"><ele>870.2</ele><time>2026-04-25T07:56:03.001Z</time></trkpt><trkpt lat="38.01565087603006" lon="15.742269633202987"><ele>870.4</ele><time>2026-04-25T07:56:04.001Z</time></trkpt><trkpt lat="38.01558407503246" lon="15.742365991353319"><ele>870.5999999999999</ele><time>2026-04-25T07:56:05.001Z</time></trkpt><trkpt lat="38.01553081388722" lon="15.742472736311527"><ele>870.8</ele><time>2026-04-25T07:56:06.001Z</time></trkpt><trkpt lat="38.01548087505754" lon="15.742580020520114"><ele>871.0</ele><time>2026-04-25T07:56:07.001Z</time></trkpt><trkpt lat="38.01543185544974" lon="15.742700804842666"><ele>869.0</ele><time>2026-04-25T07:56:08.001Z</time></trkpt><trkpt lat="38.01537840811377" lon="15.742808904619558"><ele>866.9999999999999</ele><time>2026-04-25T07:56:09.001Z</time></trkpt><trkpt lat="38.01529595951596" lon="15.742889322270239"><ele>864.9999999999999</ele><time>2026-04-25T07:56:10.001Z</time></trkpt><trkpt lat="38.015204167946244" lon="15.7429768202164"><ele>863.0</ele><time>2026-04-25T07:56:11.001Z</time></trkpt><trkpt lat="38.01511637088363" lon="15.743090939785668"><ele>861.0</ele><time>2026-04-25T07:56:12.001Z</time></trkpt><trkpt lat="38.01501469572571" lon="15.743183722849261"><ele>860.8</ele><time>2026-04-25T07:56:13.001Z</time></trkpt><trkpt lat="38.01492406240833" lon="15.743279933417186"><ele>860.5999999999999</ele><time>2026-04-25T07:56:14.001Z</time></trkpt><trkpt lat="38.01481849084359" lon="15.743360299387225"><ele>860.4</ele><time>2026-04-25T07:56:15.001Z</time></trkpt><trkpt lat="38.014738388828064" lon="15.74344721916718"><ele>860.2</ele><time>2026-04-25T07:56:16.001Z</time></trkpt><trkpt lat="38.01466416281643" lon="15.74351405801145"><ele>860.0</ele><time>2026-04-25T07:56:17.001Z</time></trkpt><trkpt lat="38.014604236575934" lon="15.743602897537965"><ele>860.0</ele><time>2026-04-25T07:56:18.001Z</time></trkpt><trkpt lat="38.01454434534148" lon="15.743696256397817"><ele>860.0</ele><time>2026-04-25T07:56:19.001Z</time></trkpt><trkpt lat="38.01448901461782" lon="15.743811270570372"><ele>860.0</ele><time>2026-04-25T07:56:20.001Z</time></trkpt><trkpt lat="38.01443192462785" lon="15.743936140004632"><ele>860.0</ele><time>2026-04-25T07:56:21.001Z</time></trkpt><trkpt lat="38.01438344335909" lon="15.74404200937626"><ele>860.0</ele><time>2026-04-25T07:56:22.001Z</time></trkpt><trkpt lat="38.014339436221874" lon="15.744132045906012"><ele>860.0</ele><time>2026-04-25T07:56:23.001Z</time></trkpt><trkpt lat="38.01430339792147" lon="15.744215931058811"><ele>860.0</ele><time>2026-04-25T07:56:24.001Z</time></trkpt><trkpt lat="38.01431477597714" lon="15.744349934786587"><ele>860.0</ele><time>2026-04-25T07:56:26.001Z</time></trkpt><trkpt lat="38.01437011014123" lon="15.744464311104604"><ele>860.0</ele><time>2026-04-25T07:56:28.001Z</time></trkpt><trkpt lat="38.01441618720634" lon="15.744563416499423"><ele>860.0</ele><time>2026-04-25T07:56:30.001Z</time></trkpt><trkpt lat="38.01445513122469" lon="15.74466481166439"><ele>859.8</ele><time>2026-04-25T07:56:32.001Z</time></trkpt><trkpt lat="38.0145361802032" lon="15.744725859269508"><ele>859.6</ele><time>2026-04-25T07:56:34.001Z</time></trkpt><trkpt lat="38.014602058460866" lon="15.74477486846844"><ele>859.4000000000001</ele><time>2026-04-25T07:56:36.001Z</time></trkpt><trkpt lat="38.01469769770741" lon="15.74486414467578"><ele>859.2</ele><time>2026-04-25T07:56:38.001Z</time></trkpt><trkpt lat="38.0146952585804" lon="15.744980113380992"><ele>859.0</ele><time>2026-04-25T07:56:40.001Z</time></trkpt><trkpt lat="38.01474186070999" lon="15.745099675942575"><ele>859.0</ele><time>2026-04-25T07:56:43.001Z</time></trkpt><trkpt lat="38.014851768362355" lon="15.745150731422195"><ele>859.0000000000001</ele><time>2026-04-25T07:56:45.001Z</time></trkpt><trkpt lat="38.01495266546189" lon="15.745170292533935"><ele>859.0000000000001</ele><time>2026-04-25T07:56:47.001Z</time></trkpt><trkpt lat="38.01501768323061" lon="15.745235863337111"><ele>859.0</ele><time>2026-04-25T07:56:49.001Z</time></trkpt><trkpt lat="38.01501047887899" lon="15.745352094416733"><ele>859.0</ele><time>2026-04-25T07:56:51.001Z</time></trkpt><trkpt lat="38.01497203203377" lon="15.745428588938196"><ele>857.6666666666666</ele><time>2026-04-25T07:56:53.001Z</time></trkpt><trkpt lat="38.01490391852892" lon="15.745386935079535"><ele>856.3333333333333</ele><time>2026-04-25T07:56:55.001Z</time></trkpt><trkpt lat="38.0148404491975" lon="15.745373363137007"><ele>855.0</ele><time>2026-04-25T07:56:57.001Z</time></trkpt><trkpt lat="38.014760162220284" lon="15.74537503645384"><ele>853.6666666666667</ele><time>2026-04-25T07:56:59.001Z</time></trkpt><trkpt lat="38.01467720512025" lon="15.745352842563326"><ele>852.3333333333334</ele><time>2026-04-25T07:57:01.001Z</time></trkpt><trkpt lat="38.01457810471068" lon="15.745369356272084"><ele>851.0</ele><time>2026-04-25T07:57:03.001Z</time></trkpt><trkpt lat="38.014518279308966" lon="15.745466707481016"><ele>851.0000000000001</ele><time>2026-04-25T07:57:05.001Z</time></trkpt><trkpt lat="38.0144862148327" lon="15.745546466852334"><ele>851.0</ele><time>2026-04-25T07:57:06.001Z</time></trkpt><trkpt lat="38.014458632714685" lon="15.745633272981472"><ele>851.0</ele><time>2026-04-25T07:57:07.001Z</time></trkpt><trkpt lat="38.01442458462991" lon="15.745714172481527"><ele>851.0</ele><time>2026-04-25T07:57:08.001Z</time></trkpt><trkpt lat="38.01441823464326" lon="15.745816590674718"><ele>851.0000000000001</ele><time>2026-04-25T07:57:09.001Z</time></trkpt><trkpt lat="38.01440432525396" lon="15.74591624511555"><ele>851.0</ele><time>2026-04-25T07:57:10.001Z</time></trkpt><trkpt lat="38.01440055242557" lon="15.746019571739563"><ele>848.1666666666667</ele><time>2026-04-25T07:57:11.001Z</time></trkpt><trkpt lat="38.014377928558105" lon="15.74611387790314"><ele>845.3333333333334</ele><time>2026-04-25T07:57:12.001Z</time></trkpt><trkpt lat="38.01436348172044" lon="15.746232923438992"><ele>842.5</ele><time>2026-04-25T07:57:13.001Z</time></trkpt><trkpt lat="38.01433540611191" lon="15.74631216229918"><ele>839.6666666666667</ele><time>2026-04-25T07:57:14.001Z</time></trkpt><trkpt lat="38.014320245758" lon="15.74641399902368"><ele>836.8333333333334</ele><time>2026-04-25T07:57:15.001Z</time></trkpt><trkpt lat="38.0142906387182" lon="15.746518317361492"><ele>834.0</ele><time>2026-04-25T07:57:16.001Z</time></trkpt><trkpt lat="38.01426733019906" lon="15.746614734542211"><ele>834.0</ele><time>2026-04-25T07:57:17.001Z</time></trkpt><trkpt lat="38.01423423361265" lon="15.746748360819819"><ele>834.0</ele><time>2026-04-25T07:57:18.001Z</time></trkpt><trkpt lat="38.01421062457414" lon="15.746848253209013"><ele>834.0</ele><time>2026-04-25T07:57:19.001Z</time></trkpt><trkpt lat="38.014201869238875" lon="15.746956744533815"><ele>834.0</ele><time>2026-04-25T07:57:20.001Z</time></trkpt><trkpt lat="38.01416115684276" lon="15.747049069994588"><ele>834.0</ele><time>2026-04-25T07:57:21.001Z</time></trkpt><trkpt lat="38.01414409190213" lon="15.747152087766587"><ele>834.0</ele><time>2026-04-25T07:57:22.001Z</time></trkpt><trkpt lat="38.014089330430735" lon="15.747213229302016"><ele>828.4000000000001</ele><time>2026-04-25T07:57:23.001Z</time></trkpt><trkpt lat="38.01398136659391" lon="15.747263936452732"><ele>822.8</ele><time>2026-04-25T07:57:25.001Z</time></trkpt><trkpt lat="38.013919765451654" lon="15.747281589645432"><ele>817.2</ele><time>2026-04-25T07:57:26.001Z</time></trkpt><trkpt lat="38.013802678485" lon="15.74728400023605"><ele>811.5999999999999</ele><time>2026-04-25T07:57:28.001Z</time></trkpt><trkpt lat="38.01372269840846" lon="15.74728618424139"><ele>806.0</ele><time>2026-04-25T07:57:29.001Z</time></trkpt><trkpt lat="38.01363521081192" lon="15.74728085766726"><ele>806.0</ele><time>2026-04-25T07:57:30.001Z</time></trkpt><trkpt lat="38.0135516515452" lon="15.747264553677441"><ele>806.0</ele><time>2026-04-25T07:57:31.001Z</time></trkpt><trkpt lat="38.01348293718313" lon="15.747240863745294"><ele>806.0</ele><time>2026-04-25T07:57:32.001Z</time></trkpt><trkpt lat="38.01341132014079" lon="15.74720463085641"><ele>806.0</ele><time>2026-04-25T07:57:33.001Z</time></trkpt><trkpt lat="38.013317720837044" lon="15.747078560741006"><ele>806.0</ele><time>2026-04-25T07:57:35.001Z</time></trkpt><trkpt lat="38.013259759183775" lon="15.746980326581392"><ele>803.0</ele><time>2026-04-25T07:57:36.001Z</time></trkpt><trkpt lat="38.01320689260566" lon="15.746887886294479"><ele>800.0</ele><time>2026-04-25T07:57:37.001Z</time></trkpt><trkpt lat="38.013141159731035" lon="15.746815692526717"><ele>797.0</ele><time>2026-04-25T07:57:38.001Z</time></trkpt><trkpt lat="38.01308935654077" lon="15.746753154511449"><ele>794.0</ele><time>2026-04-25T07:57:39.001Z</time></trkpt><trkpt lat="38.01295568986192" lon="15.746694436178169"><ele>791.0</ele><time>2026-04-25T07:57:42.001Z</time></trkpt><trkpt lat="38.012865817111994" lon="15.74663482078556"><ele>791.0</ele><time>2026-04-25T07:57:44.001Z</time></trkpt><trkpt lat="38.01278662952394" lon="15.746510681706647"><ele>791.0</ele><time>2026-04-25T07:57:46.001Z</time></trkpt><trkpt lat="38.0127868561263" lon="15.746421963242346"><ele>791.0</ele><time>2026-04-25T07:57:47.001Z</time></trkpt><trkpt lat="38.01275495420938" lon="15.746309093483546"><ele>791.0</ele><time>2026-04-25T07:57:48.001Z</time></trkpt><trkpt lat="38.01271428558167" lon="15.746226494073412"><ele>791.0</ele><time>2026-04-25T07:57:49.001Z</time></trkpt><trkpt lat="38.01269043171233" lon="15.746112382838579"><ele>792.5000000000001</ele><time>2026-04-25T07:57:50.001Z</time></trkpt><trkpt lat="38.01265605911024" lon="15.746015635302115"><ele>794.0</ele><time>2026-04-25T07:57:51.001Z</time></trkpt><trkpt lat="38.01261804855314" lon="15.745919125474506"><ele>795.5</ele><time>2026-04-25T07:57:52.001Z</time></trkpt><trkpt lat="38.01256642071244" lon="15.745845972576824"><ele>797.0</ele><time>2026-04-25T07:57:53.001Z</time></trkpt><trkpt lat="38.01252316695052" lon="15.745786694335528"><ele>798.5000000000001</ele><time>2026-04-25T07:57:54.001Z</time></trkpt><trkpt lat="38.012481821934045" lon="15.745678250352908"><ele>800.0</ele><time>2026-04-25T07:57:56.001Z</time></trkpt><trkpt lat="38.012445386366764" lon="15.74558009324176"><ele>796.0</ele><time>2026-04-25T07:57:58.001Z</time></trkpt><trkpt lat="38.01236593342988" lon="15.745543308579508"><ele>792.0</ele><time>2026-04-25T07:57:59.001Z</time></trkpt><trkpt lat="38.012292298977634" lon="15.745477594340969"><ele>788.0</ele><time>2026-04-25T07:58:01.001Z</time></trkpt><trkpt lat="38.01221408283703" lon="15.745444608920806"><ele>784.0</ele><time>2026-04-25T07:58:03.001Z</time></trkpt><trkpt lat="38.012116700303444" lon="15.745388410006056"><ele>780.0</ele><time>2026-04-25T07:58:05.001Z</time></trkpt><trkpt lat="38.01200187874836" lon="15.745329916352615"><ele>780.0</ele><time>2026-04-25T07:58:07.001Z</time></trkpt><trkpt lat="38.01189570506001" lon="15.74530321586775"><ele>780.0</ele><time>2026-04-25T07:58:09.001Z</time></trkpt><trkpt lat="38.011787186796795" lon="15.745293568542488"><ele>780.0</ele><time>2026-04-25T07:58:11.001Z</time></trkpt><trkpt lat="38.01166083461387" lon="15.745305712858984"><ele>780.0</ele><time>2026-04-25T07:58:13.001Z</time></trkpt><trkpt lat="38.011541410720234" lon="15.745249250587019"><ele>779.0</ele><time>2026-04-25T07:58:15.001Z</time></trkpt><trkpt lat="38.011471891396255" lon="15.74522934951194"><ele>778.0</ele><time>2026-04-25T07:58:16.001Z</time></trkpt><trkpt lat="38.01135100773872" lon="15.74525867724635"><ele>777.0</ele><time>2026-04-25T07:58:18.001Z</time></trkpt><trkpt lat="38.01128490576058" lon="15.745295316276065"><ele>776.0</ele><time>2026-04-25T07:58:19.001Z</time></trkpt><trkpt lat="38.01120868491844" lon="15.745305769849923"><ele>775.0</ele><time>2026-04-25T07:58:20.001Z</time></trkpt><trkpt lat="38.01114344919594" lon="15.745349325027817"><ele>774.0</ele><time>2026-04-25T07:58:21.001Z</time></trkpt><trkpt lat="38.01107381202333" lon="15.745364011053644"><ele>774.0</ele><time>2026-04-25T07:58:22.001Z</time></trkpt><trkpt lat="38.01095948990404" lon="15.745424755497417"><ele>774.0</ele><time>2026-04-25T07:58:24.001Z</time></trkpt><trkpt lat="38.01088212823478" lon="15.745470958703585"><ele>774.0</ele><time>2026-04-25T07:58:26.001Z</time></trkpt><trkpt lat="38.0107780648123" lon="15.745483659059406"><ele>774.0</ele><time>2026-04-25T07:58:28.001Z</time></trkpt><trkpt lat="38.01072402907786" lon="15.745428010118204"><ele>774.0</ele><time>2026-04-25T07:58:29.001Z</time></trkpt><trkpt lat="38.01059712627789" lon="15.745358492726764"><ele>772.3333333333334</ele><time>2026-04-25T07:58:31.001Z</time></trkpt><trkpt lat="38.01051305637361" lon="15.74532895042531"><ele>770.6666666666666</ele><time>2026-04-25T07:58:32.001Z</time></trkpt><trkpt lat="38.01043063832105" lon="15.745321588237928"><ele>769.0</ele><time>2026-04-25T07:58:33.001Z</time></trkpt><trkpt lat="38.01034743608598" lon="15.745317718326858"><ele>767.3333333333333</ele><time>2026-04-25T07:58:34.001Z</time></trkpt><trkpt lat="38.01026382881241" lon="15.745307218254535"><ele>765.6666666666666</ele><time>2026-04-25T07:58:35.001Z</time></trkpt><trkpt lat="38.01018486359629" lon="15.745286761747998"><ele>764.0</ele><time>2026-04-25T07:58:36.001Z</time></trkpt><trkpt lat="38.010119804733115" lon="15.745240227012609"><ele>764.3333333333333</ele><time>2026-04-25T07:58:37.001Z</time></trkpt><trkpt lat="38.01005089917625" lon="15.745161765916315"><ele>764.6666666666666</ele><time>2026-04-25T07:58:39.001Z</time></trkpt><trkpt lat="38.00997785298081" lon="15.745058435424927"><ele>765.0</ele><time>2026-04-25T07:58:41.001Z</time></trkpt><trkpt lat="38.009878736801646" lon="15.745053756414942"><ele>765.3333333333334</ele><time>2026-04-25T07:58:43.001Z</time></trkpt><trkpt lat="38.00985114644658" lon="15.745141158180136"><ele>765.6666666666667</ele><time>2026-04-25T07:58:44.001Z</time></trkpt><trkpt lat="38.00984261166019" lon="15.745227739168866"><ele>766.0</ele><time>2026-04-25T07:58:45.001Z</time></trkpt><trkpt lat="38.009867285695016" lon="15.74532255970434"><ele>765.6666666666667</ele><time>2026-04-25T07:58:46.001Z</time></trkpt><trkpt lat="38.00987657198051" lon="15.745426819298869"><ele>765.3333333333334</ele><time>2026-04-25T07:58:47.001Z</time></trkpt><trkpt lat="38.00988807498304" lon="15.745513292085581"><ele>765.0</ele><time>2026-04-25T07:58:48.001Z</time></trkpt><trkpt lat="38.009919279700135" lon="15.7455884579291"><ele>764.6666666666666</ele><time>2026-04-25T07:58:49.001Z</time></trkpt><trkpt lat="38.00994492514532" lon="15.745666626576757"><ele>764.3333333333333</ele><time>2026-04-25T07:58:50.001Z</time></trkpt><trkpt lat="38.01000920801791" lon="15.745758395865948"><ele>764.0</ele><time>2026-04-25T07:58:52.001Z</time></trkpt><trkpt lat="38.01007789283114" lon="15.74585641301034"><ele>764.0</ele><time>2026-04-25T07:58:54.001Z</time></trkpt><trkpt lat="38.01011772771111" lon="15.745938019793712"><ele>764.0</ele><time>2026-04-25T07:58:55.001Z</time></trkpt><trkpt lat="38.01013806740789" lon="15.746019005448773"><ele>764.0</ele><time>2026-04-25T07:58:56.001Z</time></trkpt><trkpt lat="38.01018303020094" lon="15.746143806915583"><ele>764.0</ele><time>2026-04-25T07:58:58.001Z</time></trkpt><trkpt lat="38.0102218301424" lon="15.746207204439397"><ele>764.0</ele><time>2026-04-25T07:58:59.001Z</time></trkpt><trkpt lat="38.01029473057838" lon="15.746321502909263"><ele>764.0</ele><time>2026-04-25T07:59:01.001Z</time></trkpt><trkpt lat="38.01033829617362" lon="15.746381584282929"><ele>760.6666666666666</ele><time>2026-04-25T07:59:02.001Z</time></trkpt><trkpt lat="38.0104143353343" lon="15.746484001763855"><ele>757.3333333333333</ele><time>2026-04-25T07:59:04.001Z</time></trkpt><trkpt lat="38.01046489324177" lon="15.746559084392288"><ele>754.0</ele><time>2026-04-25T07:59:06.001Z</time></trkpt><trkpt lat="38.010425006045864" lon="15.746653561552758"><ele>750.6666666666666</ele><time>2026-04-25T07:59:08.001Z</time></trkpt><trkpt lat="38.01033365253476" lon="15.746620283496243"><ele>747.3333333333334</ele><time>2026-04-25T07:59:10.001Z</time></trkpt><trkpt lat="38.01026947788542" lon="15.746594170222753"><ele>744.0</ele><time>2026-04-25T07:59:11.001Z</time></trkpt><trkpt lat="38.01021163251487" lon="15.746542720556922"><ele>744.0</ele><time>2026-04-25T07:59:12.001Z</time></trkpt><trkpt lat="38.01015778140842" lon="15.746490199349202"><ele>744.0</ele><time>2026-04-25T07:59:13.001Z</time></trkpt><trkpt lat="38.01002786136967" lon="15.746376071015643"><ele>744.0</ele><time>2026-04-25T07:59:15.001Z</time></trkpt><trkpt lat="38.00995816909985" lon="15.746321208182648"><ele>744.0</ele><time>2026-04-25T07:59:16.001Z</time></trkpt><trkpt lat="38.009911669300756" lon="15.746248395935753"><ele>744.0</ele><time>2026-04-25T07:59:17.001Z</time></trkpt><trkpt lat="38.00985486613189" lon="15.746183267776182"><ele>744.4000000000001</ele><time>2026-04-25T07:59:18.001Z</time></trkpt><trkpt lat="38.00979939177028" lon="15.746118924518571"><ele>744.8</ele><time>2026-04-25T07:59:19.001Z</time></trkpt><trkpt lat="38.00974527533232" lon="15.746043019026217"><ele>745.2</ele><time>2026-04-25T07:59:20.001Z</time></trkpt><trkpt lat="38.00968284855421" lon="15.745974010777157"><ele>745.5999999999999</ele><time>2026-04-25T07:59:21.001Z</time></trkpt><trkpt lat="38.00957353759278" lon="15.745910202702307"><ele>746.0</ele><time>2026-04-25T07:59:22.001Z</time></trkpt><trkpt lat="38.00947709827403" lon="15.745859835161113"><ele>746.0</ele><time>2026-04-25T07:59:23.001Z</time></trkpt><trkpt lat="38.00938710275122" lon="15.745833483564688"><ele>746.0</ele><time>2026-04-25T07:59:24.001Z</time></trkpt><trkpt lat="38.009300106961845" lon="15.745823347747283"><ele>746.0</ele><time>2026-04-25T07:59:25.001Z</time></trkpt><trkpt lat="38.00920633187231" lon="15.745835736571683"><ele>746.0</ele><time>2026-04-25T07:59:26.001Z</time></trkpt><trkpt lat="38.0091120145483" lon="15.745849279757323"><ele>746.0</ele><time>2026-04-25T07:59:27.001Z</time></trkpt><trkpt lat="38.009033695075075" lon="15.745825408432234"><ele>746.0</ele><time>2026-04-25T07:59:28.001Z</time></trkpt><trkpt lat="38.00895515969053" lon="15.74581338622062"><ele>743.0</ele><time>2026-04-25T07:59:29.001Z</time></trkpt><trkpt lat="38.008882150128656" lon="15.745790075388387"><ele>740.0</ele><time>2026-04-25T07:59:30.001Z</time></trkpt><trkpt lat="38.008814994783286" lon="15.745753862139637"><ele>737.0</ele><time>2026-04-25T07:59:31.001Z</time></trkpt><trkpt lat="38.00877809967896" lon="15.745680253699607"><ele>734.0</ele><time>2026-04-25T07:59:32.001Z</time></trkpt><trkpt lat="38.008725718156825" lon="15.74560444136699"><ele>731.0</ele><time>2026-04-25T07:59:33.001Z</time></trkpt><trkpt lat="38.00867336250135" lon="15.745543171202472"><ele>728.0</ele><time>2026-04-25T07:59:34.001Z</time></trkpt><trkpt lat="38.00861481600844" lon="15.745492679314639"><ele>725.0</ele><time>2026-04-25T07:59:35.001Z</time></trkpt><trkpt lat="38.00850194362562" lon="15.745533245741068"><ele>725.0</ele><time>2026-04-25T07:59:52Z</time></trkpt><trkpt lat="38.008402255282725" lon="15.74559931816339"><ele>725.0</ele><time>2026-04-25T07:59:54Z</time></trkpt><trkpt lat="38.00834967702628" lon="15.74568006614378"><ele>725.0</ele><time>2026-04-25T07:59:56Z</time></trkpt><trkpt lat="38.008396997890166" lon="15.745829283442461"><ele>725.0</ele><time>2026-04-25T07:59:58Z</time></trkpt><trkpt lat="38.00846626590267" lon="15.745949129125234"><ele>725.0</ele><time>2026-04-25T08:00:00Z</time></trkpt><trkpt lat="38.00854762749553" lon="15.746082564281272"><ele>720.6666666666666</ele><time>2026-04-25T08:00:02Z</time></trkpt><trkpt lat="38.00859363954557" lon="15.746156385030286"><ele>716.3333333333333</ele><time>2026-04-25T08:00:03Z</time></trkpt><trkpt lat="38.00864604636633" lon="15.746214423701101"><ele>712.0</ele><time>2026-04-25T08:00:04Z</time></trkpt><trkpt lat="38.00868201809767" lon="15.746283235302672"><ele>707.6666666666666</ele><time>2026-04-25T08:00:05Z</time></trkpt><trkpt lat="38.00872567809998" lon="15.746348936674428"><ele>703.3333333333334</ele><time>2026-04-25T08:00:06Z</time></trkpt><trkpt lat="38.00876991432632" lon="15.746467738709608"><ele>699.0</ele><time>2026-04-25T08:00:08Z</time></trkpt><trkpt lat="38.00885045424749" lon="15.74655892661594"><ele>699.0</ele><time>2026-04-25T08:00:10Z</time></trkpt><trkpt lat="38.00890847316811" lon="15.746606641523005"><ele>699.0</ele><time>2026-04-25T08:00:11Z</time></trkpt><trkpt lat="38.00900565201121" lon="15.746665726427857"><ele>699.0</ele><time>2026-04-25T08:00:13Z</time></trkpt><trkpt lat="38.00909923110828" lon="15.746736625475894"><ele>699.0</ele><time>2026-04-25T08:00:15Z</time></trkpt><trkpt lat="38.00914317281949" lon="15.746804111693962"><ele>699.0</ele><time>2026-04-25T08:00:16Z</time></trkpt><trkpt lat="38.00920079546359" lon="15.746867002937776"><ele>699.0</ele><time>2026-04-25T08:00:17Z</time></trkpt><trkpt lat="38.00925812517169" lon="15.746928088488488"><ele>699.0</ele><time>2026-04-25T08:00:18Z</time></trkpt><trkpt lat="38.00933338733918" lon="15.747025848385533"><ele>699.0</ele><time>2026-04-25T08:00:20Z</time></trkpt><trkpt lat="38.00936725047518" lon="15.747144296334044"><ele>699.0</ele><time>2026-04-25T08:00:22Z</time></trkpt><trkpt lat="38.00935437355428" lon="15.747276916398045"><ele>699.0</ele><time>2026-04-25T08:00:24Z</time></trkpt><trkpt lat="38.00932158570194" lon="15.747348258610744"><ele>699.0</ele><time>2026-04-25T08:00:25Z</time></trkpt><trkpt lat="38.009265796861364" lon="15.747461109038383"><ele>699.0</ele><time>2026-04-25T08:00:27Z</time></trkpt><trkpt lat="38.00918588928593" lon="15.747563762757265"><ele>699.0</ele><time>2026-04-25T08:00:29Z</time></trkpt><trkpt lat="38.009147033466974" lon="15.747687891538899"><ele>699.0</ele><time>2026-04-25T08:00:31Z</time></trkpt><trkpt lat="38.00919468919107" lon="15.747760147126707"><ele>699.0</ele><time>2026-04-25T08:00:32Z</time></trkpt><trkpt lat="38.00924551493467" lon="15.747819849106602"><ele>699.0</ele><time>2026-04-25T08:00:33Z</time></trkpt><trkpt lat="38.00930088299816" lon="15.747882527524707"><ele>699.0</ele><time>2026-04-25T08:00:34Z</time></trkpt><trkpt lat="38.00934197037364" lon="15.74795103287645"><ele>695.6666666666666</ele><time>2026-04-25T08:00:35Z</time></trkpt><trkpt lat="38.009368667923674" lon="15.748045912828491"><ele>692.3333333333334</ele><time>2026-04-25T08:00:36Z</time></trkpt><trkpt lat="38.009413874813944" lon="15.748101982461067"><ele>689.0</ele><time>2026-04-25T08:00:37Z</time></trkpt><trkpt lat="38.009441893505226" lon="15.748178052380586"><ele>685.6666666666667</ele><time>2026-04-25T08:00:38Z</time></trkpt><trkpt lat="38.00947028697073" lon="15.748297533766223"><ele>682.3333333333334</ele><time>2026-04-25T08:00:40Z</time></trkpt><trkpt lat="38.00951992890696" lon="15.74843556461049"><ele>679.0</ele><time>2026-04-25T08:00:42Z</time></trkpt><trkpt lat="38.00958575480301" lon="15.748560063851706"><ele>674.0</ele><time>2026-04-25T08:00:44Z</time></trkpt><trkpt lat="38.009665276361474" lon="15.748669800329594"><ele>669.0</ele><time>2026-04-25T08:00:46Z</time></trkpt><trkpt lat="38.009723472053786" lon="15.748714707392518"><ele>664.0</ele><time>2026-04-25T08:00:47Z</time></trkpt><trkpt lat="38.00980493682004" lon="15.748809656160557"><ele>659.0</ele><time>2026-04-25T08:00:49Z</time></trkpt><trkpt lat="38.00991840705151" lon="15.748898188257874"><ele>654.0</ele><time>2026-04-25T08:00:51Z</time></trkpt><trkpt lat="38.00999041720188" lon="15.748909834259715"><ele>657.1666666666666</ele><time>2026-04-25T08:00:52Z</time></trkpt><trkpt lat="38.0100514451216" lon="15.74894011517839"><ele>660.3333333333334</ele><time>2026-04-25T08:00:53Z</time></trkpt><trkpt lat="38.010170055824844" lon="15.748975499930697"><ele>663.5</ele><time>2026-04-25T08:00:55Z</time></trkpt><trkpt lat="38.01022770995928" lon="15.749015073923847"><ele>666.6666666666667</ele><time>2026-04-25T08:00:56Z</time></trkpt><trkpt lat="38.010288313467896" lon="15.749043765021876"><ele>669.8333333333334</ele><time>2026-04-25T08:00:57Z</time></trkpt><trkpt lat="38.01039319047355" lon="15.749106899682175"><ele>673.0</ele><time>2026-04-25T08:00:59Z</time></trkpt><trkpt lat="38.01048276778565" lon="15.749215392401217"><ele>673.0</ele><time>2026-04-25T08:01:01Z</time></trkpt><trkpt lat="38.01052699632389" lon="15.74932751781209"><ele>673.0</ele><time>2026-04-25T08:01:03Z</time></trkpt><trkpt lat="38.01056418705322" lon="15.749415056320816"><ele>673.0</ele><time>2026-04-25T08:01:05Z</time></trkpt><trkpt lat="38.01059373126531" lon="15.749510019383196"><ele>673.0</ele><time>2026-04-25T08:01:07Z</time></trkpt><trkpt lat="38.01063489152536" lon="15.749590970304254"><ele>673.0</ele><time>2026-04-25T08:01:09Z</time></trkpt><trkpt lat="38.010672731173564" lon="15.749684274091091"><ele>673.0</ele><time>2026-04-25T08:01:11Z</time></trkpt><trkpt lat="38.01068047467696" lon="15.749790898322603"><ele>669.1428571428572</ele><time>2026-04-25T08:01:13Z</time></trkpt><trkpt lat="38.01066608245884" lon="15.749868754614173"><ele>665.2857142857142</ele><time>2026-04-25T08:01:15Z</time></trkpt><trkpt lat="38.01063704008518" lon="15.7499528673774"><ele>661.4285714285714</ele><time>2026-04-25T08:01:18Z</time></trkpt><trkpt lat="38.010572404789876" lon="15.749912450357419"><ele>657.5714285714287</ele><time>2026-04-25T08:01:21Z</time></trkpt><trkpt lat="38.01053863390175" lon="15.749843376608034"><ele>653.7142857142858</ele><time>2026-04-25T08:01:23.001Z</time></trkpt><trkpt lat="38.01046945117903" lon="15.749762295965045"><ele>649.8571428571429</ele><time>2026-04-25T08:01:25.001Z</time></trkpt><trkpt lat="38.010401102412835" lon="15.749711651534502"><ele>646.0</ele><time>2026-04-25T08:01:27.001Z</time></trkpt><trkpt lat="38.010299541583144" lon="15.749663105963771"><ele>646.0</ele><time>2026-04-25T08:01:29.001Z</time></trkpt><trkpt lat="38.01022211513701" lon="15.74966695010166"><ele>646.0</ele><time>2026-04-25T08:01:31.001Z</time></trkpt><trkpt lat="38.01012577652057" lon="15.74968503167192"><ele>646.0</ele><time>2026-04-25T08:01:33.001Z</time></trkpt><trkpt lat="38.01005215152563" lon="15.74971501676559"><ele>646.0</ele><time>2026-04-25T08:01:35.001Z</time></trkpt><trkpt lat="38.009935915749686" lon="15.74984401235406"><ele>646.0</ele><time>2026-04-25T08:01:38.001Z</time></trkpt><trkpt lat="38.00989407539945" lon="15.749927327584167"><ele>643.1999999999999</ele><time>2026-04-25T08:01:39.001Z</time></trkpt><trkpt lat="38.00983528396406" lon="15.750018355635188"><ele>640.4</ele><time>2026-04-25T08:01:41.001Z</time></trkpt><trkpt lat="38.00975839786287" lon="15.750105110951173"><ele>637.6</ele><time>2026-04-25T08:01:43.001Z</time></trkpt><trkpt lat="38.00967251991224" lon="15.75016075075756"><ele>634.8</ele><time>2026-04-25T08:01:45Z</time></trkpt><trkpt lat="38.00962125829243" lon="15.750242940628132"><ele>632.0</ele><time>2026-04-25T08:01:47Z</time></trkpt><trkpt lat="38.00957618580054" lon="15.75035272321283"><ele>632.0</ele><time>2026-04-25T08:01:49Z</time></trkpt><trkpt lat="38.00949134193293" lon="15.750327975622982"><ele>632.0</ele><time>2026-04-25T08:01:52Z</time></trkpt><trkpt lat="38.009417840184646" lon="15.750236307876092"><ele>632.0</ele><time>2026-04-25T08:01:54Z</time></trkpt><trkpt lat="38.009330604540374" lon="15.75014655471936"><ele>632.0</ele><time>2026-04-25T08:01:56Z</time></trkpt><trkpt lat="38.00924455148437" lon="15.750047360480515"><ele>632.0</ele><time>2026-04-25T08:01:58Z</time></trkpt><trkpt lat="38.0091559568777" lon="15.749944619316347"><ele>627.2</ele><time>2026-04-25T08:02:00Z</time></trkpt><trkpt lat="38.009065612231794" lon="15.749872583609386"><ele>622.4000000000001</ele><time>2026-04-25T08:02:02Z</time></trkpt><trkpt lat="38.00896190879049" lon="15.749821236678084"><ele>617.5999999999999</ele><time>2026-04-25T08:02:04Z</time></trkpt><trkpt lat="38.008915667508894" lon="15.749944846007171"><ele>612.8</ele><time>2026-04-25T08:02:07Z</time></trkpt><trkpt lat="38.008950144598586" lon="15.750080305181129"><ele>608.0</ele><time>2026-04-25T08:02:09Z</time></trkpt><trkpt lat="38.00896775332477" lon="15.750229209424328"><ele>604.8</ele><time>2026-04-25T08:02:11Z</time></trkpt><trkpt lat="38.00896349341116" lon="15.750358348192973"><ele>601.5999999999999</ele><time>2026-04-25T08:02:13Z</time></trkpt><trkpt lat="38.008945922124774" lon="15.750458419188558"><ele>598.4000000000001</ele><time>2026-04-25T08:02:15Z</time></trkpt><trkpt lat="38.008873734285196" lon="15.750552905452617"><ele>595.2</ele><time>2026-04-25T08:02:17Z</time></trkpt><trkpt lat="38.00880159865556" lon="15.750598245870993"><ele>592.0</ele><time>2026-04-25T08:02:19Z</time></trkpt><trkpt lat="38.00874838454952" lon="15.750466962229293"><ele>592.0</ele><time>2026-04-25T08:02:21Z</time></trkpt><trkpt lat="38.008674422500235" lon="15.7503852720785"><ele>592.0</ele><time>2026-04-25T08:02:23Z</time></trkpt><trkpt lat="38.008584258910155" lon="15.750388397055168"><ele>592.0</ele><time>2026-04-25T08:02:25Z</time></trkpt><trkpt lat="38.00850840512361" lon="15.750451381983567"><ele>592.0</ele><time>2026-04-25T08:02:27Z</time></trkpt><trkpt lat="38.008579879617926" lon="15.750592608083547"><ele>592.0</ele><time>2026-04-25T08:02:29Z</time></trkpt><trkpt lat="38.008585583642876" lon="15.75071308726199"><ele>592.0</ele><time>2026-04-25T08:02:31Z</time></trkpt><trkpt lat="38.00855823440428" lon="15.750796732828741"><ele>592.0</ele><time>2026-04-25T08:02:32Z</time></trkpt><trkpt lat="38.008561760309206" lon="15.750886120231636"><ele>592.0</ele><time>2026-04-25T08:02:33Z</time></trkpt><trkpt lat="38.00859597000291" lon="15.750981166753856"><ele>592.0</ele><time>2026-04-25T08:02:34Z</time></trkpt><trkpt lat="38.0086314123718" lon="15.751071158221762"><ele>592.0</ele><time>2026-04-25T08:02:36Z</time></trkpt><trkpt lat="38.00865919688191" lon="15.7511646845048"><ele>592.0</ele><time>2026-04-25T08:02:38Z</time></trkpt><trkpt lat="38.0086802769257" lon="15.751240493634139"><ele>592.0</ele><time>2026-04-25T08:02:39Z</time></trkpt><trkpt lat="38.008717135765195" lon="15.75133798855379"><ele>589.2</ele><time>2026-04-25T08:02:40Z</time></trkpt><trkpt lat="38.00877469553078" lon="15.751434813900223"><ele>586.4000000000001</ele><time>2026-04-25T08:02:41Z</time></trkpt><trkpt lat="38.00881509333964" lon="15.751517914393052"><ele>583.5999999999999</ele><time>2026-04-25T08:02:42Z</time></trkpt><trkpt lat="38.008842002177126" lon="15.751606986467715"><ele>580.8</ele><time>2026-04-25T08:02:43Z</time></trkpt><trkpt lat="38.00887307921802" lon="15.751776182009678"><ele>578.0</ele><time>2026-04-25T08:02:45Z</time></trkpt><trkpt lat="38.00879534367662" lon="15.751827746111676"><ele>578.0</ele><time>2026-04-25T08:02:46Z</time></trkpt><trkpt lat="38.008736586088204" lon="15.751874355868328"><ele>578.0</ele><time>2026-04-25T08:02:47Z</time></trkpt><trkpt lat="38.00867736108002" lon="15.751826938200994"><ele>578.0</ele><time>2026-04-25T08:02:49Z</time></trkpt><trkpt lat="38.00859585030229" lon="15.751796400379167"><ele>578.0</ele><time>2026-04-25T08:02:50Z</time></trkpt><trkpt lat="38.00854787017662" lon="15.751721419363333"><ele>578.0</ele><time>2026-04-25T08:02:51Z</time></trkpt><trkpt lat="38.00850040673246" lon="15.751622511498132"><ele>578.0</ele><time>2026-04-25T08:02:52Z</time></trkpt><trkpt lat="38.00841502277738" lon="15.751539946517225"><ele>578.0</ele><time>2026-04-25T08:02:53Z</time></trkpt><trkpt lat="38.0083479897449" lon="15.75145036458037"><ele>578.0</ele><time>2026-04-25T08:02:54Z</time></trkpt><trkpt lat="38.008301886812" lon="15.751356235381326"><ele>578.0</ele><time>2026-04-25T08:02:55Z</time></trkpt><trkpt lat="38.00824258280993" lon="15.751266176469324"><ele>578.0</ele><time>2026-04-25T08:02:56Z</time></trkpt><trkpt lat="38.008169959517964" lon="15.75118009537516"><ele>578.0</ele><time>2026-04-25T08:02:57Z</time></trkpt><trkpt lat="38.00808548627856" lon="15.75107731398951"><ele>577.5</ele><time>2026-04-25T08:02:58Z</time></trkpt><trkpt lat="38.007978856091995" lon="15.750981340183326"><ele>577.0</ele><time>2026-04-25T08:02:59Z</time></trkpt><trkpt lat="38.00790563847052" lon="15.75082535726311"><ele>576.5</ele><time>2026-04-25T08:03:01Z</time></trkpt><trkpt lat="38.007869234602566" lon="15.750717379940053"><ele>576.0</ele><time>2026-04-25T08:03:02Z</time></trkpt><trkpt lat="38.00781353138222" lon="15.750617592401785"><ele>576.0</ele><time>2026-04-25T08:03:03Z</time></trkpt><trkpt lat="38.00777247927221" lon="15.750492601744384"><ele>576.0</ele><time>2026-04-25T08:03:04Z</time></trkpt><trkpt lat="38.00771112056344" lon="15.7504128295001"><ele>576.0</ele><time>2026-04-25T08:03:05Z</time></trkpt><trkpt lat="38.00763576711343" lon="15.750335393643015"><ele>576.0</ele><time>2026-04-25T08:03:06Z</time></trkpt><trkpt lat="38.00758834871947" lon="15.750259889572312"><ele>576.0</ele><time>2026-04-25T08:03:07Z</time></trkpt><trkpt lat="38.00754144085342" lon="15.750172961000374"><ele>582.8</ele><time>2026-04-25T08:03:08Z</time></trkpt><trkpt lat="38.00749300337411" lon="15.750107473541126"><ele>589.6</ele><time>2026-04-25T08:03:09Z</time></trkpt><trkpt lat="38.007439567768934" lon="15.750052775498817"><ele>596.4</ele><time>2026-04-25T08:03:10Z</time></trkpt><trkpt lat="38.00731507415732" lon="15.750074833995965"><ele>603.2</ele><time>2026-04-25T08:03:11Z</time></trkpt><trkpt lat="38.007219379445395" lon="15.750113260312222"><ele>610.0</ele><time>2026-04-25T08:03:13Z</time></trkpt><trkpt lat="38.007230898960465" lon="15.750247327864544"><ele>610.0</ele><time>2026-04-25T08:03:14Z</time></trkpt><trkpt lat="38.00724930312733" lon="15.750353083281535"><ele>610.0</ele><time>2026-04-25T08:03:15Z</time></trkpt><trkpt lat="38.00726673002384" lon="15.750468846822947"><ele>610.0</ele><time>2026-04-25T08:03:16Z</time></trkpt><trkpt lat="38.007274497723046" lon="15.750590094766435"><ele>610.0</ele><time>2026-04-25T08:03:17Z</time></trkpt><trkpt lat="38.007288241211526" lon="15.750720743936512"><ele>610.0</ele><time>2026-04-25T08:03:18Z</time></trkpt><trkpt lat="38.007285438033556" lon="15.750853335959045"><ele>610.0</ele><time>2026-04-25T08:03:19Z</time></trkpt><trkpt lat="38.00726963110372" lon="15.750987480276763"><ele>610.0</ele><time>2026-04-25T08:03:20Z</time></trkpt><trkpt lat="38.007245083439926" lon="15.75111424053216"><ele>610.0</ele><time>2026-04-25T08:03:21Z</time></trkpt><trkpt lat="38.00723653010166" lon="15.75125755910228"><ele>610.0</ele><time>2026-04-25T08:03:22Z</time></trkpt><trkpt lat="38.00725942701014" lon="15.751410082786467"><ele>610.0</ele><time>2026-04-25T08:03:23Z</time></trkpt><trkpt lat="38.0072795873934" lon="15.751564892299172"><ele>603.25</ele><time>2026-04-25T08:03:24Z</time></trkpt><trkpt lat="38.00731271197788" lon="15.75172109763764"><ele>596.5</ele><time>2026-04-25T08:03:25Z</time></trkpt><trkpt lat="38.007354069338184" lon="15.751867938523995"><ele>589.75</ele><time>2026-04-25T08:03:26Z</time></trkpt><trkpt lat="38.00739377260575" lon="15.75200586459733"><ele>583.0</ele><time>2026-04-25T08:03:27Z</time></trkpt><trkpt lat="38.00742651814296" lon="15.75213383781012"><ele>579.8</ele><time>2026-04-25T08:03:28Z</time></trkpt><trkpt lat="38.00746302534975" lon="15.752257264202573"><ele>576.5999999999999</ele><time>2026-04-25T08:03:29Z</time></trkpt><trkpt lat="38.007505599345876" lon="15.752359614761316"><ele>573.4000000000001</ele><time>2026-04-25T08:03:30Z</time></trkpt><trkpt lat="38.007540491762654" lon="15.75246142521558"><ele>570.2</ele><time>2026-04-25T08:03:31Z</time></trkpt><trkpt lat="38.007581213500096" lon="15.752572737163852"><ele>567.0</ele><time>2026-04-25T08:03:32Z</time></trkpt><trkpt lat="38.00757290389108" lon="15.752689815614414"><ele>565.2</ele><time>2026-04-25T08:03:33Z</time></trkpt><trkpt lat="38.007557037483764" lon="15.752800231525846"><ele>563.4000000000001</ele><time>2026-04-25T08:03:34Z</time></trkpt><trkpt lat="38.007535261975576" lon="15.752926861836842"><ele>561.5999999999999</ele><time>2026-04-25T08:03:35Z</time></trkpt><trkpt lat="38.00750016975677" lon="15.753058084465364"><ele>559.8</ele><time>2026-04-25T08:03:36Z</time></trkpt><trkpt lat="38.00747398505944" lon="15.75319325005257"><ele>558.0</ele><time>2026-04-25T08:03:37Z</time></trkpt><trkpt lat="38.00744635051864" lon="15.75329661446027"><ele>558.0</ele><time>2026-04-25T08:03:38Z</time></trkpt><trkpt lat="38.00740699636725" lon="15.753375152228264"><ele>558.0</ele><time>2026-04-25T08:03:39Z</time></trkpt><trkpt lat="38.00737742309147" lon="15.753473699242608"><ele>558.0</ele><time>2026-04-25T08:03:40Z</time></trkpt><trkpt lat="38.00735344590072" lon="15.753596444876242"><ele>558.0</ele><time>2026-04-25T08:03:41Z</time></trkpt><trkpt lat="38.007337188004016" lon="15.753738061630708"><ele>558.0</ele><time>2026-04-25T08:03:42Z</time></trkpt><trkpt lat="38.00731223450582" lon="15.75387152080627"><ele>555.0</ele><time>2026-04-25T08:03:43Z</time></trkpt><trkpt lat="38.007284349757185" lon="15.754011454674796"><ele>552.0</ele><time>2026-04-25T08:03:44Z</time></trkpt><trkpt lat="38.00725963051672" lon="15.754166801462562"><ele>549.0</ele><time>2026-04-25T08:03:45Z</time></trkpt><trkpt lat="38.00722527966715" lon="15.754324810299785"><ele>546.0</ele><time>2026-04-25T08:03:46Z</time></trkpt><trkpt lat="38.00718685856517" lon="15.754483960423485"><ele>543.5</ele><time>2026-04-25T08:03:47.001Z</time></trkpt><trkpt lat="38.007152824761405" lon="15.754641396968466"><ele>541.0</ele><time>2026-04-25T08:03:48.001Z</time></trkpt><trkpt lat="38.00711403344763" lon="15.754802361940545"><ele>538.5</ele><time>2026-04-25T08:03:49.001Z</time></trkpt><trkpt lat="38.00708375378206" lon="15.754959640503508"><ele>536.0</ele><time>2026-04-25T08:03:49.999Z</time></trkpt><trkpt lat="38.007064885761636" lon="15.755133028060088"><ele>534.25</ele><time>2026-04-25T08:03:50.999Z</time></trkpt><trkpt lat="38.00704262279129" lon="15.755292495448964"><ele>532.5</ele><time>2026-04-25T08:03:51.999Z</time></trkpt><trkpt lat="38.007027137944036" lon="15.755464802523713"><ele>530.75</ele><time>2026-04-25T08:03:52.999Z</time></trkpt><trkpt lat="38.00699398460971" lon="15.755618730540371"><ele>529.0</ele><time>2026-04-25T08:03:53.999Z</time></trkpt><trkpt lat="38.006954996005746" lon="15.755771814525847"><ele>529.0</ele><time>2026-04-25T08:03:54.999Z</time></trkpt><trkpt lat="38.006920304407814" lon="15.755914858863832"><ele>529.0</ele><time>2026-04-25T08:03:55.999Z</time></trkpt><trkpt lat="38.00688815012192" lon="15.7560554034576"><ele>529.0</ele><time>2026-04-25T08:03:56.999Z</time></trkpt><trkpt lat="38.006854699768155" lon="15.756200766447341"><ele>529.0</ele><time>2026-04-25T08:03:57.999Z</time></trkpt><trkpt lat="38.0068234891031" lon="15.756347112765754"><ele>527.0</ele><time>2026-04-25T08:03:58.999Z</time></trkpt><trkpt lat="38.00678521356673" lon="15.756494469241082"><ele>525.0</ele><time>2026-04-25T08:03:59.999Z</time></trkpt><trkpt lat="38.00674332303454" lon="15.756639982942191"><ele>523.0</ele><time>2026-04-25T08:04:00.999Z</time></trkpt><trkpt lat="38.006687083677015" lon="15.756777237558651"><ele>521.0</ele><time>2026-04-25T08:04:01.999Z</time></trkpt><trkpt lat="38.00663228083133" lon="15.756919849369245"><ele>520.5</ele><time>2026-04-25T08:04:02.999Z</time></trkpt><trkpt lat="38.00657029663304" lon="15.757055871548022"><ele>520.0</ele><time>2026-04-25T08:04:03.999Z</time></trkpt><trkpt lat="38.00649140284583" lon="15.75718543068601"><ele>519.5</ele><time>2026-04-25T08:04:04.999Z</time></trkpt><trkpt lat="38.00641835749409" lon="15.757294062004613"><ele>519.0</ele><time>2026-04-25T08:04:05.999Z</time></trkpt><trkpt lat="38.00632924352908" lon="15.757401322962961"><ele>519.0</ele><time>2026-04-25T08:04:06.999Z</time></trkpt><trkpt lat="38.00624470181806" lon="15.757511767347754"><ele>519.0</ele><time>2026-04-25T08:04:07.999Z</time></trkpt><trkpt lat="38.006182318403035" lon="15.75760592774136"><ele>519.0</ele><time>2026-04-25T08:04:08.999Z</time></trkpt><trkpt lat="38.00610920260155" lon="15.757693791936703"><ele>519.0</ele><time>2026-04-25T08:04:09.999Z</time></trkpt><trkpt lat="38.00605620185324" lon="15.757755550583324"><ele>519.0</ele><time>2026-04-25T08:04:11Z</time></trkpt><trkpt lat="38.006008098035906" lon="15.757810810708383"><ele>517.25</ele><time>2026-04-25T08:04:12Z</time></trkpt><trkpt lat="38.00591772726038" lon="15.757922463869573"><ele>515.5</ele><time>2026-04-25T08:04:14Z</time></trkpt><trkpt lat="38.00583534694405" lon="15.758015307950604"><ele>513.75</ele><time>2026-04-25T08:04:15Z</time></trkpt><trkpt lat="38.005748087466614" lon="15.758118866654218"><ele>512.0</ele><time>2026-04-25T08:04:16Z</time></trkpt><trkpt lat="38.005673181255254" lon="15.758205799023079"><ele>512.2</ele><time>2026-04-25T08:04:17Z</time></trkpt><trkpt lat="38.005624763057064" lon="15.758267946149633"><ele>512.4000000000001</ele><time>2026-04-25T08:04:18Z</time></trkpt><trkpt lat="38.00556155654984" lon="15.758373808634495"><ele>512.5999999999999</ele><time>2026-04-25T08:04:19Z</time></trkpt><trkpt lat="38.00552895390709" lon="15.758466673330854"><ele>512.8</ele><time>2026-04-25T08:04:20Z</time></trkpt><trkpt lat="38.00561352684172" lon="15.758626978147454"><ele>513.0</ele><time>2026-04-25T08:04:24Z</time></trkpt><trkpt lat="38.00567137223458" lon="15.758682117486067"><ele>513.0</ele><time>2026-04-25T08:04:25Z</time></trkpt><trkpt lat="38.005734294894545" lon="15.758753651796976"><ele>513.0</ele><time>2026-04-25T08:04:26Z</time></trkpt><trkpt lat="38.00579819050208" lon="15.758809982289518"><ele>513.0</ele><time>2026-04-25T08:04:27Z</time></trkpt><trkpt lat="38.005855144562354" lon="15.758905587646947"><ele>513.0</ele><time>2026-04-25T08:04:28Z</time></trkpt><trkpt lat="38.005934473583906" lon="15.758986746097676"><ele>513.0</ele><time>2026-04-25T08:04:29Z</time></trkpt><trkpt lat="38.00601463100971" lon="15.7590681393378"><ele>511.59999999999997</ele><time>2026-04-25T08:04:30Z</time></trkpt><trkpt lat="38.00608796422421" lon="15.759171718115686"><ele>510.19999999999993</ele><time>2026-04-25T08:04:31Z</time></trkpt><trkpt lat="38.006177182388036" lon="15.759241520179318"><ele>508.8</ele><time>2026-04-25T08:04:32Z</time></trkpt><trkpt lat="38.0062649849144" lon="15.759325487400647"><ele>507.4</ele><time>2026-04-25T08:04:33Z</time></trkpt><trkpt lat="38.00632663375304" lon="15.759399181295947"><ele>506.0</ele><time>2026-04-25T08:04:34Z</time></trkpt><trkpt lat="38.006426898118036" lon="15.759249161045961"><ele>505.99999999999994</ele><time>2026-04-25T08:04:40Z</time></trkpt><trkpt lat="38.006467439992285" lon="15.75917250230648"><ele>506.0</ele><time>2026-04-25T08:04:41Z</time></trkpt><trkpt lat="38.00652757897532" lon="15.759102102556902"><ele>506.0</ele><time>2026-04-25T08:04:42Z</time></trkpt><trkpt lat="38.006580525389985" lon="15.759014928627662"><ele>506.0</ele><time>2026-04-25T08:04:43Z</time></trkpt><trkpt lat="38.00663905104169" lon="15.758923268745901"><ele>505.99999999999994</ele><time>2026-04-25T08:04:44Z</time></trkpt><trkpt lat="38.00670139017335" lon="15.758827053427048"><ele>506.0</ele><time>2026-04-25T08:04:45Z</time></trkpt><trkpt lat="38.00675106613621" lon="15.758723692206345"><ele>506.6</ele><time>2026-04-25T08:04:46Z</time></trkpt><trkpt lat="38.00682123132256" lon="15.758643421604733"><ele>507.20000000000005</ele><time>2026-04-25T08:04:47Z</time></trkpt><trkpt lat="38.00688993343361" lon="15.758552320257005"><ele>507.79999999999995</ele><time>2026-04-25T08:04:48Z</time></trkpt><trkpt lat="38.006959198781686" lon="15.758454385810907"><ele>508.4</ele><time>2026-04-25T08:04:49Z</time></trkpt><trkpt lat="38.00703597559622" lon="15.758359250824848"><ele>509.0</ele><time>2026-04-25T08:04:50Z</time></trkpt><trkpt lat="38.00711668511428" lon="15.758276921924372"><ele>509.6</ele><time>2026-04-25T08:04:51Z</time></trkpt><trkpt lat="38.00720553229778" lon="15.758200975331905"><ele>510.2</ele><time>2026-04-25T08:04:52Z</time></trkpt><trkpt lat="38.00729560945649" lon="15.758126466028894"><ele>510.80000000000007</ele><time>2026-04-25T08:04:53Z</time></trkpt><trkpt lat="38.00738782238998" lon="15.758044300441995"><ele>511.40000000000003</ele><time>2026-04-25T08:04:54Z</time></trkpt><trkpt lat="38.00747158594978" lon="15.757955679158947"><ele>512.0</ele><time>2026-04-25T08:04:55Z</time></trkpt><trkpt lat="38.007555907174925" lon="15.757864165633563"><ele>513.4</ele><time>2026-04-25T08:04:56Z</time></trkpt><trkpt lat="38.007639111936456" lon="15.757769759008912"><ele>514.8000000000001</ele><time>2026-04-25T08:04:57Z</time></trkpt><trkpt lat="38.00771904190012" lon="15.757673611357003"><ele>516.2</ele><time>2026-04-25T08:04:58Z</time></trkpt><trkpt lat="38.007793306125635" lon="15.757578168526583"><ele>517.6</ele><time>2026-04-25T08:04:59Z</time></trkpt><trkpt lat="38.00786975341612" lon="15.757503951368385"><ele>519.0</ele><time>2026-04-25T08:05:00Z</time></trkpt><trkpt lat="38.00793304971327" lon="15.757417237810909"><ele>519.75</ele><time>2026-04-25T08:05:01Z</time></trkpt><trkpt lat="38.008017958457486" lon="15.757366008547109"><ele>520.5</ele><time>2026-04-25T08:05:02Z</time></trkpt><trkpt lat="38.00812605844222" lon="15.757315824906161"><ele>521.25</ele><time>2026-04-25T08:05:03Z</time></trkpt><trkpt lat="38.008247487461034" lon="15.757268215207432"><ele>522.0</ele><time>2026-04-25T08:05:04Z</time></trkpt><trkpt lat="38.00835333612541" lon="15.757213698412116"><ele>524.0</ele><time>2026-04-25T08:05:05Z</time></trkpt><trkpt lat="38.008468428586376" lon="15.757176623888514"><ele>526.0</ele><time>2026-04-25T08:05:06Z</time></trkpt><trkpt lat="38.00858882427499" lon="15.757136091376527"><ele>528.0</ele><time>2026-04-25T08:05:07Z</time></trkpt><trkpt lat="38.008709612761095" lon="15.75709240450752"><ele>530.0</ele><time>2026-04-25T08:05:08Z</time></trkpt><trkpt lat="38.00882279764439" lon="15.757056288547572"><ele>530.0</ele><time>2026-04-25T08:05:09Z</time></trkpt><trkpt lat="38.00892011122626" lon="15.757015529788745"><ele>530.0</ele><time>2026-04-25T08:05:10Z</time></trkpt><trkpt lat="38.008994506631765" lon="15.756981038791032"><ele>530.0</ele><time>2026-04-25T08:05:11Z</time></trkpt><trkpt lat="38.0090600435342" lon="15.756955442507987"><ele>530.0</ele><time>2026-04-25T08:05:12Z</time></trkpt><trkpt lat="38.009122973878966" lon="15.756947019350735"><ele>530.0</ele><time>2026-04-25T08:05:13Z</time></trkpt><trkpt lat="38.00919560972936" lon="15.756895411167898"><ele>530.0</ele><time>2026-04-25T08:05:15Z</time></trkpt><trkpt lat="38.00918466488556" lon="15.756802650217848"><ele>531.5</ele><time>2026-04-25T08:05:18Z</time></trkpt><trkpt lat="38.009268221228645" lon="15.756671160322398"><ele>533.0</ele><time>2026-04-25T08:05:21Z</time></trkpt><trkpt lat="38.00939429519159" lon="15.756618885914447"><ele>534.5</ele><time>2026-04-25T08:05:23Z</time></trkpt><trkpt lat="38.00952850921878" lon="15.756551548538589"><ele>536.0</ele><time>2026-04-25T08:05:25Z</time></trkpt><trkpt lat="38.00959329226084" lon="15.756501875044076"><ele>536.0</ele><time>2026-04-25T08:05:26Z</time></trkpt><trkpt lat="38.00967016887438" lon="15.756475808096962"><ele>536.0</ele><time>2026-04-25T08:05:27Z</time></trkpt><trkpt lat="38.009738118158914" lon="15.756463020016572"><ele>536.0</ele><time>2026-04-25T08:05:28Z</time></trkpt><trkpt lat="38.0098050879111" lon="15.756465131472483"><ele>536.0</ele><time>2026-04-25T08:05:29Z</time></trkpt><trkpt lat="38.00988138420935" lon="15.756455251794058"><ele>536.0</ele><time>2026-04-25T08:05:30Z</time></trkpt><trkpt lat="38.00994745294614" lon="15.756458658481922"><ele>536.0</ele><time>2026-04-25T08:05:31Z</time></trkpt><trkpt lat="38.01003645555584" lon="15.756483261471939"><ele>536.0</ele><time>2026-04-25T08:05:32Z</time></trkpt><trkpt lat="38.01015188507813" lon="15.756505343644163"><ele>538.5</ele><time>2026-04-25T08:05:34Z</time></trkpt><trkpt lat="38.010218418210805" lon="15.756637988574512"><ele>541.0</ele><time>2026-04-25T08:05:36Z</time></trkpt><trkpt lat="38.01031710049879" lon="15.756632104782707"><ele>543.5</ele><time>2026-04-25T08:05:37Z</time></trkpt><trkpt lat="38.01037261443849" lon="15.756444543700054"><ele>546.0</ele><time>2026-04-25T08:05:39Z</time></trkpt><trkpt lat="38.010378404774784" lon="15.756263374705448"><ele>546.0</ele><time>2026-04-25T08:05:41Z</time></trkpt><trkpt lat="38.01049629186843" lon="15.756191384391064"><ele>546.0</ele><time>2026-04-25T08:05:43Z</time></trkpt><trkpt lat="38.01058080886123" lon="15.756140187311827"><ele>546.0</ele><time>2026-04-25T08:05:44.001Z</time></trkpt><trkpt lat="38.01065045106253" lon="15.756091206449911"><ele>546.0</ele><time>2026-04-25T08:05:45.001Z</time></trkpt><trkpt lat="38.01072146529405" lon="15.756046985386583"><ele>546.0</ele><time>2026-04-25T08:05:46.001Z</time></trkpt><trkpt lat="38.01079985873272" lon="15.756021752773556"><ele>547.1666666666666</ele><time>2026-04-25T08:05:47.001Z</time></trkpt><trkpt lat="38.01086709543171" lon="15.755990295954314"><ele>548.3333333333334</ele><time>2026-04-25T08:05:48.001Z</time></trkpt><trkpt lat="38.01094699704961" lon="15.755987050635177"><ele>549.5</ele><time>2026-04-25T08:05:49.001Z</time></trkpt><trkpt lat="38.011027424030154" lon="15.75595386870349"><ele>550.6666666666667</ele><time>2026-04-25T08:05:50.001Z</time></trkpt><trkpt lat="38.01110416923694" lon="15.75594570326883"><ele>551.8333333333334</ele><time>2026-04-25T08:05:51.001Z</time></trkpt><trkpt lat="38.011181592205205" lon="15.755925944216974"><ele>553.0</ele><time>2026-04-25T08:05:52.001Z</time></trkpt><trkpt lat="38.011316070683975" lon="15.755909081690106"><ele>553.0</ele><time>2026-04-25T08:05:54.001Z</time></trkpt><trkpt lat="38.011415111130084" lon="15.755907157917862"><ele>553.0</ele><time>2026-04-25T08:05:55.999Z</time></trkpt><trkpt lat="38.01148283548756" lon="15.755917422318856"><ele>553.0</ele><time>2026-04-25T08:05:56.999Z</time></trkpt><trkpt lat="38.011549166583066" lon="15.755910891025648"><ele>553.0</ele><time>2026-04-25T08:05:57.999Z</time></trkpt><trkpt lat="38.01168559878892" lon="15.755899448821125"><ele>553.0</ele><time>2026-04-25T08:05:59.999Z</time></trkpt><trkpt lat="38.01175897449914" lon="15.755894666672855"><ele>553.0</ele><time>2026-04-25T08:06:02Z</time></trkpt><trkpt lat="38.01183837763477" lon="15.755898550734576"><ele>554.2857142857143</ele><time>2026-04-25T08:06:03Z</time></trkpt><trkpt lat="38.01190553506976" lon="15.75588794561935"><ele>555.5714285714286</ele><time>2026-04-25T08:06:04Z</time></trkpt><trkpt lat="38.011972944468525" lon="15.755876934638403"><ele>556.8571428571429</ele><time>2026-04-25T08:06:05Z</time></trkpt><trkpt lat="38.012039075194934" lon="15.755863534041099"><ele>558.1428571428571</ele><time>2026-04-25T08:06:06Z</time></trkpt><trkpt lat="38.012116760094685" lon="15.755840913803722"><ele>559.4285714285714</ele><time>2026-04-25T08:06:07Z</time></trkpt><trkpt lat="38.0121855396684" lon="15.755808088172282"><ele>560.7142857142858</ele><time>2026-04-25T08:06:08Z</time></trkpt><trkpt lat="38.01225819889634" lon="15.755779509045201"><ele>562.0</ele><time>2026-04-25T08:06:09Z</time></trkpt><trkpt lat="38.01232666586199" lon="15.755753716140932"><ele>562.0</ele><time>2026-04-25T08:06:10Z</time></trkpt><trkpt lat="38.01239809081884" lon="15.755747302289608"><ele>562.0</ele><time>2026-04-25T08:06:11Z</time></trkpt><trkpt lat="38.012529576251104" lon="15.755685391238961"><ele>562.0</ele><time>2026-04-25T08:06:13Z</time></trkpt><trkpt lat="38.01261283327154" lon="15.755682946211511"><ele>562.0</ele><time>2026-04-25T08:06:14Z</time></trkpt><trkpt lat="38.01269192157214" lon="15.755669106741538"><ele>562.0</ele><time>2026-04-25T08:06:15Z</time></trkpt><trkpt lat="38.01277360101772" lon="15.755663339850363"><ele>563.5</ele><time>2026-04-25T08:06:16Z</time></trkpt><trkpt lat="38.01285569602927" lon="15.755667305273427"><ele>565.0</ele><time>2026-04-25T08:06:17Z</time></trkpt><trkpt lat="38.01293913702965" lon="15.755683218338223"><ele>566.5</ele><time>2026-04-25T08:06:18Z</time></trkpt><trkpt lat="38.013017315516585" lon="15.755722123149287"><ele>568.0</ele><time>2026-04-25T08:06:19Z</time></trkpt><trkpt lat="38.0131078099019" lon="15.755727907623154"><ele>569.5</ele><time>2026-04-25T08:06:20Z</time></trkpt><trkpt lat="38.013206150116716" lon="15.755702204903999"><ele>571.0</ele><time>2026-04-25T08:06:21Z</time></trkpt><trkpt lat="38.013289624685335" lon="15.755716227425362"><ele>572.5</ele><time>2026-04-25T08:06:22Z</time></trkpt><trkpt lat="38.013379336032905" lon="15.755723366505515"><ele>574.0</ele><time>2026-04-25T08:06:23Z</time></trkpt><trkpt lat="38.013460852889295" lon="15.755695117459497"><ele>575.5</ele><time>2026-04-25T08:06:24Z</time></trkpt><trkpt lat="38.013529141531315" lon="15.755678589346072"><ele>577.0</ele><time>2026-04-25T08:06:25Z</time></trkpt><trkpt lat="38.01359507377368" lon="15.755692743143362"><ele>578.5</ele><time>2026-04-25T08:06:26Z</time></trkpt><trkpt lat="38.01368872380485" lon="15.755806627432548"><ele>580.0</ele><time>2026-04-25T08:06:28Z</time></trkpt><trkpt lat="38.013776898742115" lon="15.75583400614495"><ele>580.0</ele><time>2026-04-25T08:06:29Z</time></trkpt><trkpt lat="38.013858422304665" lon="15.755843440680898"><ele>580.0</ele><time>2026-04-25T08:06:30Z</time></trkpt><trkpt lat="38.01392880454261" lon="15.75585196585026"><ele>580.0</ele><time>2026-04-25T08:06:31Z</time></trkpt><trkpt lat="38.014004906445045" lon="15.755861183987353"><ele>580.0</ele><time>2026-04-25T08:06:32Z</time></trkpt><trkpt lat="38.01408746657848" lon="15.755868805687268"><ele>580.0</ele><time>2026-04-25T08:06:33Z</time></trkpt><trkpt lat="38.014161936946685" lon="15.755876271365976"><ele>580.0</ele><time>2026-04-25T08:06:34Z</time></trkpt><trkpt lat="38.01424548987524" lon="15.755879086089235"><ele>582.0</ele><time>2026-04-25T08:06:35Z</time></trkpt><trkpt lat="38.014334134095535" lon="15.755877585628554"><ele>584.0</ele><time>2026-04-25T08:06:36Z</time></trkpt><trkpt lat="38.014425922186604" lon="15.755850014923057"><ele>586.0</ele><time>2026-04-25T08:06:37Z</time></trkpt><trkpt lat="38.01452579764961" lon="15.755841004109083"><ele>588.0</ele><time>2026-04-25T08:06:38Z</time></trkpt><trkpt lat="38.014628586735306" lon="15.755819361213073"><ele>590.0</ele><time>2026-04-25T08:06:39Z</time></trkpt><trkpt lat="38.01472574058341" lon="15.75579841193375"><ele>590.0</ele><time>2026-04-25T08:06:40Z</time></trkpt><trkpt lat="38.01482540664284" lon="15.755775929290659"><ele>590.0</ele><time>2026-04-25T08:06:41Z</time></trkpt><trkpt lat="38.01492706483949" lon="15.755756205449897"><ele>590.0</ele><time>2026-04-25T08:06:42Z</time></trkpt><trkpt lat="38.01501095018066" lon="15.755742788173556"><ele>590.0</ele><time>2026-04-25T08:06:43Z</time></trkpt><trkpt lat="38.01510358770725" lon="15.755712153783245"><ele>590.0</ele><time>2026-04-25T08:06:45Z</time></trkpt><trkpt lat="38.01516702556313" lon="15.755675996617434"><ele>591.5714285714287</ele><time>2026-04-25T08:06:46Z</time></trkpt><trkpt lat="38.015233619415184" lon="15.755646739411699"><ele>593.1428571428571</ele><time>2026-04-25T08:06:47Z</time></trkpt><trkpt lat="38.015297542826616" lon="15.755625278341945"><ele>594.7142857142858</ele><time>2026-04-25T08:06:48Z</time></trkpt><trkpt lat="38.01536013279945" lon="15.755605952203375"><ele>596.2857142857143</ele><time>2026-04-25T08:06:49Z</time></trkpt><trkpt lat="38.01542339356539" lon="15.755594910526657"><ele>597.8571428571429</ele><time>2026-04-25T08:06:50Z</time></trkpt><trkpt lat="38.01548848187348" lon="15.755570353580323"><ele>599.4285714285714</ele><time>2026-04-25T08:06:51Z</time></trkpt><trkpt lat="38.01554063688194" lon="15.755510345277136"><ele>601.0</ele><time>2026-04-25T08:06:52Z</time></trkpt><trkpt lat="38.01558076639591" lon="15.755448759795671"><ele>601.0</ele><time>2026-04-25T08:06:53Z</time></trkpt><trkpt lat="38.015627038681046" lon="15.755385307410789"><ele>601.0</ele><time>2026-04-25T08:06:54Z</time></trkpt><trkpt lat="38.015685465057366" lon="15.755314411304793"><ele>601.0</ele><time>2026-04-25T08:06:55Z</time></trkpt><trkpt lat="38.015743691052826" lon="15.755252898781812"><ele>601.0</ele><time>2026-04-25T08:06:56Z</time></trkpt><trkpt lat="38.01580538152059" lon="15.755191737351206"><ele>601.0</ele><time>2026-04-25T08:06:57Z</time></trkpt><trkpt lat="38.01587048736936" lon="15.755154016133746"><ele>601.0</ele><time>2026-04-25T08:06:58Z</time></trkpt><trkpt lat="38.01592765187912" lon="15.755111037805637"><ele>601.0</ele><time>2026-04-25T08:06:59Z</time></trkpt><trkpt lat="38.01597627628351" lon="15.755052008154546"><ele>602.2</ele><time>2026-04-25T08:07:00Z</time></trkpt><trkpt lat="38.0160892132584" lon="15.75496969163835"><ele>603.4000000000001</ele><time>2026-04-25T08:07:02Z</time></trkpt><trkpt lat="38.01614505355348" lon="15.754914388020945"><ele>604.6</ele><time>2026-04-25T08:07:03Z</time></trkpt><trkpt lat="38.016208941893176" lon="15.75486331051603"><ele>605.8000000000001</ele><time>2026-04-25T08:07:04Z</time></trkpt><trkpt lat="38.016271319662195" lon="15.754825659340025"><ele>607.0</ele><time>2026-04-25T08:07:05Z</time></trkpt><trkpt lat="38.01637541390993" lon="15.754702902431173"><ele>607.0</ele><time>2026-04-25T08:07:07Z</time></trkpt><trkpt lat="38.01642161047122" lon="15.754627016771657"><ele>607.0</ele><time>2026-04-25T08:07:08Z</time></trkpt><trkpt lat="38.01645617767924" lon="15.754539128226735"><ele>607.0</ele><time>2026-04-25T08:07:09Z</time></trkpt><trkpt lat="38.01647551717144" lon="15.754452294848102"><ele>607.0</ele><time>2026-04-25T08:07:10Z</time></trkpt><trkpt lat="38.01649155169034" lon="15.754363408454685"><ele>607.0</ele><time>2026-04-25T08:07:11Z</time></trkpt><trkpt lat="38.01655619328712" lon="15.754232643442124"><ele>607.0</ele><time>2026-04-25T08:07:13Z</time></trkpt><trkpt lat="38.01660883468677" lon="15.754119647111784"><ele>610.4</ele><time>2026-04-25T08:07:16Z</time></trkpt><trkpt lat="38.016661080918844" lon="15.754016236429074"><ele>613.8000000000001</ele><time>2026-04-25T08:07:18Z</time></trkpt><trkpt lat="38.01683450670273" lon="15.754068282037395"><ele>617.2</ele><time>2026-04-25T08:07:19Z</time></trkpt><trkpt lat="38.016896066231645" lon="15.754009969798009"><ele>620.6</ele><time>2026-04-25T08:07:20Z</time></trkpt><trkpt lat="38.01694810074368" lon="15.753947070066944"><ele>624.0</ele><time>2026-04-25T08:07:21Z</time></trkpt><trkpt lat="38.01701049261296" lon="15.753882099937716"><ele>624.0</ele><time>2026-04-25T08:07:22Z</time></trkpt><trkpt lat="38.01706671278574" lon="15.753818360532783"><ele>624.0</ele><time>2026-04-25T08:07:23Z</time></trkpt><trkpt lat="38.01712358490797" lon="15.753756630592786"><ele>624.0</ele><time>2026-04-25T08:07:24Z</time></trkpt><trkpt lat="38.017183394659625" lon="15.75369601597333"><ele>624.0</ele><time>2026-04-25T08:07:25Z</time></trkpt><trkpt lat="38.017246769350464" lon="15.753629894014038"><ele>624.0</ele><time>2026-04-25T08:07:26Z</time></trkpt><trkpt lat="38.017310442859475" lon="15.753553206396091"><ele>624.0</ele><time>2026-04-25T08:07:27.001Z</time></trkpt><trkpt lat="38.01737734020243" lon="15.753489142465739"><ele>626.3333333333334</ele><time>2026-04-25T08:07:28.001Z</time></trkpt><trkpt lat="38.017440321640834" lon="15.753433865470836"><ele>628.6666666666666</ele><time>2026-04-25T08:07:29.001Z</time></trkpt><trkpt lat="38.01750232796969" lon="15.753388245603393"><ele>631.0</ele><time>2026-04-25T08:07:30.001Z</time></trkpt><trkpt lat="38.0175712847475" lon="15.753344721001948"><ele>633.3333333333333</ele><time>2026-04-25T08:07:31.001Z</time></trkpt><trkpt lat="38.017646634586015" lon="15.753305952630663"><ele>635.6666666666666</ele><time>2026-04-25T08:07:32.001Z</time></trkpt><trkpt lat="38.017718051477274" lon="15.753265751758704"><ele>638.0</ele><time>2026-04-25T08:07:33.001Z</time></trkpt><trkpt lat="38.01779121006074" lon="15.75321735060789"><ele>638.6666666666666</ele><time>2026-04-25T08:07:34.001Z</time></trkpt><trkpt lat="38.01785357746865" lon="15.753172836458806"><ele>639.3333333333333</ele><time>2026-04-25T08:07:35.001Z</time></trkpt><trkpt lat="38.017919608355676" lon="15.753129793697376"><ele>640.0</ele><time>2026-04-25T08:07:36.001Z</time></trkpt><trkpt lat="38.017976967084564" lon="15.753082762560203"><ele>640.6666666666666</ele><time>2026-04-25T08:07:37.001Z</time></trkpt><trkpt lat="38.01805184729228" lon="15.752949337518462"><ele>641.3333333333334</ele><time>2026-04-25T08:07:39.001Z</time></trkpt><trkpt lat="38.01809932932467" lon="15.752875381024701"><ele>642.0</ele><time>2026-04-25T08:07:40.001Z</time></trkpt><trkpt lat="38.01815750077197" lon="15.752802919988945"><ele>642.0</ele><time>2026-04-25T08:07:41.001Z</time></trkpt><trkpt lat="38.0182256857065" lon="15.752731102751769"><ele>642.0</ele><time>2026-04-25T08:07:42.001Z</time></trkpt><trkpt lat="38.01829053114155" lon="15.752662417379577"><ele>642.0</ele><time>2026-04-25T08:07:43.001Z</time></trkpt><trkpt lat="38.01835963201548" lon="15.752593495982998"><ele>642.0</ele><time>2026-04-25T08:07:44.001Z</time></trkpt><trkpt lat="38.01842814004198" lon="15.752520939859162"><ele>642.0</ele><time>2026-04-25T08:07:45.001Z</time></trkpt><trkpt lat="38.01849069463206" lon="15.752451465745848"><ele>642.0</ele><time>2026-04-25T08:07:46.001Z</time></trkpt><trkpt lat="38.01854764728199" lon="15.752381051030854"><ele>644.3333333333334</ele><time>2026-04-25T08:07:47.001Z</time></trkpt><trkpt lat="38.01860506380247" lon="15.752311521120939"><ele>646.6666666666666</ele><time>2026-04-25T08:07:48.001Z</time></trkpt><trkpt lat="38.01867128202373" lon="15.75225956884433"><ele>649.0</ele><time>2026-04-25T08:07:49.001Z</time></trkpt><trkpt lat="38.018736964579205" lon="15.752209316199275"><ele>651.3333333333333</ele><time>2026-04-25T08:07:50.001Z</time></trkpt><trkpt lat="38.0188120844117" lon="15.752169198893405"><ele>653.6666666666666</ele><time>2026-04-25T08:07:51.001Z</time></trkpt><trkpt lat="38.01889322461522" lon="15.752122627086221"><ele>656.0</ele><time>2026-04-25T08:07:52.001Z</time></trkpt><trkpt lat="38.01895698440983" lon="15.752081038747695"><ele>656.0</ele><time>2026-04-25T08:07:53.001Z</time></trkpt><trkpt lat="38.019025045332256" lon="15.752032534522288"><ele>656.0</ele><time>2026-04-25T08:07:54.001Z</time></trkpt><trkpt lat="38.01907996560895" lon="15.751981154075855"><ele>656.0</ele><time>2026-04-25T08:07:55.001Z</time></trkpt><trkpt lat="38.019177525644565" lon="15.751904226407868"><ele>656.0</ele><time>2026-04-25T08:07:57.001Z</time></trkpt><trkpt lat="38.01925079280813" lon="15.751824182576721"><ele>656.0</ele><time>2026-04-25T08:07:59.001Z</time></trkpt><trkpt lat="38.0193049583559" lon="15.751705547614147"><ele>657.3333333333333</ele><time>2026-04-25T08:08:01.001Z</time></trkpt><trkpt lat="38.01939917996697" lon="15.751679573967332"><ele>658.6666666666666</ele><time>2026-04-25T08:08:03Z</time></trkpt><trkpt lat="38.0195049310548" lon="15.751747142651338"><ele>660.0</ele><time>2026-04-25T08:08:05Z</time></trkpt><trkpt lat="38.01955065760649" lon="15.751823216477147"><ele>661.3333333333334</ele><time>2026-04-25T08:08:06Z</time></trkpt><trkpt lat="38.01959787055142" lon="15.751883249953103"><ele>662.6666666666667</ele><time>2026-04-25T08:08:07Z</time></trkpt><trkpt lat="38.01966525868925" lon="15.751926119269278"><ele>664.0</ele><time>2026-04-25T08:08:08Z</time></trkpt><trkpt lat="38.0197296329084" lon="15.75194940372554"><ele>665.0</ele><time>2026-04-25T08:08:09Z</time></trkpt><trkpt lat="38.0197974605478" lon="15.75196828325316"><ele>666.0</ele><time>2026-04-25T08:08:10Z</time></trkpt><trkpt lat="38.01990825858569" lon="15.751973792327046"><ele>667.0</ele><time>2026-04-25T08:08:12Z</time></trkpt><trkpt lat="38.02000268654474" lon="15.751945672531582"><ele>668.0</ele><time>2026-04-25T08:08:14Z</time></trkpt><trkpt lat="38.02002902895254" lon="15.752051330443859"><ele>669.0</ele><time>2026-04-25T08:08:18Z</time></trkpt><trkpt lat="38.02003489342937" lon="15.751971255579424"><ele>670.0</ele><time>2026-04-25T08:10:38Z</time></trkpt><trkpt lat="38.02000307114753" lon="15.752077893299408"><ele>670.0</ele><time>2026-04-25T08:11:02.001Z</time></trkpt><trkpt lat="38.01992836631922" lon="15.752136497701114"><ele>670.0</ele><time>2026-04-25T08:11:04.001Z</time></trkpt><trkpt lat="38.0198439063958" lon="15.752133526028471"><ele>670.0</ele><time>2026-04-25T08:11:07.001Z</time></trkpt><trkpt lat="38.01978349822064" lon="15.752161713655351"><ele>670.0</ele><time>2026-04-25T08:11:08.001Z</time></trkpt><trkpt lat="38.01972853614598" lon="15.752244218086146"><ele>670.0</ele><time>2026-04-25T08:11:45.001Z</time></trkpt><trkpt lat="38.01967648550967" lon="15.752343763342152"><ele>670.0</ele><time>2026-04-25T08:11:47.001Z</time></trkpt><trkpt lat="38.01963437919456" lon="15.75243617102162"><ele>670.0</ele><time>2026-04-25T08:11:49.001Z</time></trkpt><trkpt lat="38.01958775200868" lon="15.752568287137272"><ele>670.0</ele><time>2026-04-25T08:11:51.001Z</time></trkpt><trkpt lat="38.019564229418535" lon="15.752643760247581"><ele>670.0</ele><time>2026-04-25T08:11:52.001Z</time></trkpt><trkpt lat="38.01954148641918" lon="15.752788858116464"><ele>670.0</ele><time>2026-04-25T08:11:54.001Z</time></trkpt><trkpt lat="38.019519260150545" lon="15.752929980994614"><ele>670.0</ele><time>2026-04-25T08:11:56.001Z</time></trkpt><trkpt lat="38.01955173993464" lon="15.753026573371995"><ele>673.6666666666667</ele><time>2026-04-25T08:11:58.001Z</time></trkpt><trkpt lat="38.01963362532132" lon="15.753039787800002"><ele>677.3333333333334</ele><time>2026-04-25T08:12:00.001Z</time></trkpt><trkpt lat="38.01970201385314" lon="15.752962443055639"><ele>681.0</ele><time>2026-04-25T08:12:02.001Z</time></trkpt><trkpt lat="38.0197843305833" lon="15.75292969436855"><ele>684.6666666666666</ele><time>2026-04-25T08:12:04.001Z</time></trkpt><trkpt lat="38.01986961024926" lon="15.752900584812448"><ele>688.3333333333333</ele><time>2026-04-25T08:12:06.001Z</time></trkpt><trkpt lat="38.01996128760863" lon="15.75286622799993"><ele>692.0</ele><time>2026-04-25T08:12:08.001Z</time></trkpt><trkpt lat="38.02006795335764" lon="15.752833065980647"><ele>693.4000000000001</ele><time>2026-04-25T08:12:10.001Z</time></trkpt><trkpt lat="38.02017724206669" lon="15.752799067658415"><ele>694.8000000000001</ele><time>2026-04-25T08:12:12.001Z</time></trkpt><trkpt lat="38.020284381395356" lon="15.752767148759007"><ele>696.2</ele><time>2026-04-25T08:12:14.001Z</time></trkpt><trkpt lat="38.020407095232294" lon="15.75272093527444"><ele>697.6</ele><time>2026-04-25T08:12:16.001Z</time></trkpt><trkpt lat="38.020480439487606" lon="15.752690769697436"><ele>699.0</ele><time>2026-04-25T08:12:18.001Z</time></trkpt><trkpt lat="38.020564793097634" lon="15.752641426787976"><ele>699.0</ele><time>2026-04-25T08:12:20.001Z</time></trkpt><trkpt lat="38.02063886756047" lon="15.752608016105588"><ele>699.0</ele><time>2026-04-25T08:12:23.001Z</time></trkpt><trkpt lat="38.02069091951568" lon="15.752562389095418"><ele>699.0</ele><time>2026-04-25T08:12:25.001Z</time></trkpt><trkpt lat="38.02073196160224" lon="15.752493421170676"><ele>699.0</ele><time>2026-04-25T08:12:56Z</time></trkpt><trkpt lat="38.02076986047065" lon="15.752372353100943"><ele>699.0</ele><time>2026-04-25T08:13:27.001Z</time></trkpt><trkpt lat="38.02077883730605" lon="15.75228481917103"><ele>699.0</ele><time>2026-04-25T08:13:29.001Z</time></trkpt><trkpt lat="38.02083453149283" lon="15.752216488841382"><ele>703.3333333333334</ele><time>2026-04-25T08:13:31.001Z</time></trkpt><trkpt lat="38.020909786709915" lon="15.752192288372799"><ele>707.6666666666666</ele><time>2026-04-25T08:13:33.001Z</time></trkpt><trkpt lat="38.02098267180827" lon="15.752193779567042"><ele>712.0</ele><time>2026-04-25T08:13:35.001Z</time></trkpt><trkpt lat="38.02101491699462" lon="15.75226277522908"><ele>716.3333333333333</ele><time>2026-04-25T08:13:37.001Z</time></trkpt><trkpt lat="38.02103282525522" lon="15.752387118070368"><ele>720.6666666666666</ele><time>2026-04-25T08:13:39.001Z</time></trkpt><trkpt lat="38.021053551326084" lon="15.752504203972146"><ele>725.0</ele><time>2026-04-25T08:13:41.001Z</time></trkpt><trkpt lat="38.02105219601778" lon="15.75262712480598"><ele>724.1666666666666</ele><time>2026-04-25T08:13:43.001Z</time></trkpt><trkpt lat="38.0210128693031" lon="15.752750780625474"><ele>723.3333333333333</ele><time>2026-04-25T08:13:45.001Z</time></trkpt><trkpt lat="38.02098056408691" lon="15.7528820912857"><ele>722.5</ele><time>2026-04-25T08:13:47.001Z</time></trkpt><trkpt lat="38.02094342854624" lon="15.752980563752988"><ele>721.6666666666666</ele><time>2026-04-25T08:13:49.001Z</time></trkpt><trkpt lat="38.02091263598012" lon="15.753053882936074"><ele>720.8333333333334</ele><time>2026-04-25T08:13:51.001Z</time></trkpt><trkpt lat="38.02086097821447" lon="15.753136946968105"><ele>720.0</ele><time>2026-04-25T08:13:53.001Z</time></trkpt><trkpt lat="38.020794207303176" lon="15.753230439134839"><ele>720.0</ele><time>2026-04-25T08:13:55.001Z</time></trkpt><trkpt lat="38.020763085755796" lon="15.753348649276328"><ele>720.0</ele><time>2026-04-25T08:13:57.001Z</time></trkpt><trkpt lat="38.02077822258424" lon="15.753438677797213"><ele>720.0</ele><time>2026-04-25T08:13:59.001Z</time></trkpt><trkpt lat="38.02081885951569" lon="15.753546521537292"><ele>720.0</ele><time>2026-04-25T08:14:01.001Z</time></trkpt><trkpt lat="38.02086537866443" lon="15.75364055381541"><ele>720.0</ele><time>2026-04-25T08:14:03.001Z</time></trkpt><trkpt lat="38.0209413462478" lon="15.753715848673249"><ele>720.0</ele><time>2026-04-25T08:14:05.001Z</time></trkpt><trkpt lat="38.02104552702136" lon="15.753756427888973"><ele>724.6</ele><time>2026-04-25T08:14:07.001Z</time></trkpt><trkpt lat="38.02116101176028" lon="15.753773366784195"><ele>729.2</ele><time>2026-04-25T08:14:09.001Z</time></trkpt><trkpt lat="38.02124866178312" lon="15.753784614940189"><ele>733.8</ele><time>2026-04-25T08:14:11.001Z</time></trkpt><trkpt lat="38.02134509230239" lon="15.753795050030353"><ele>738.4</ele><time>2026-04-25T08:14:13.001Z</time></trkpt><trkpt lat="38.02143698927529" lon="15.753755631618816"><ele>743.0</ele><time>2026-04-25T08:14:15.001Z</time></trkpt><trkpt lat="38.02152389193598" lon="15.753674159046662"><ele>743.0</ele><time>2026-04-25T08:14:17.001Z</time></trkpt><trkpt lat="38.021632004608975" lon="15.753636399509206"><ele>743.0</ele><time>2026-04-25T08:14:19.001Z</time></trkpt><trkpt lat="38.021694633169076" lon="15.753626562081381"><ele>743.0</ele><time>2026-04-25T08:14:20Z</time></trkpt><trkpt lat="38.02175930501271" lon="15.753614595724029"><ele>743.0</ele><time>2026-04-25T08:14:21Z</time></trkpt><trkpt lat="38.02183111565187" lon="15.753593239480036"><ele>743.0</ele><time>2026-04-25T08:14:22Z</time></trkpt><trkpt lat="38.02189770590243" lon="15.753585763099702"><ele>743.0</ele><time>2026-04-25T08:14:23Z</time></trkpt><trkpt lat="38.02197008348994" lon="15.753584762485954"><ele>744.5</ele><time>2026-04-25T08:14:24Z</time></trkpt><trkpt lat="38.02203981834801" lon="15.753580167707154"><ele>746.0</ele><time>2026-04-25T08:14:25Z</time></trkpt><trkpt lat="38.02210522094008" lon="15.753565983761401"><ele>747.5</ele><time>2026-04-25T08:14:26Z</time></trkpt><trkpt lat="38.022216388235776" lon="15.753564937166772"><ele>749.0</ele><time>2026-04-25T08:14:28Z</time></trkpt><trkpt lat="38.02232382969652" lon="15.75359729742895"><ele>750.5</ele><time>2026-04-25T08:14:30Z</time></trkpt><trkpt lat="38.0223879580078" lon="15.753604200083986"><ele>752.0</ele><time>2026-04-25T08:14:31Z</time></trkpt><trkpt lat="38.0225186152745" lon="15.753599805376698"><ele>754.2</ele><time>2026-04-25T08:14:33Z</time></trkpt><trkpt lat="38.02258756062593" lon="15.7535889480724"><ele>756.4000000000001</ele><time>2026-04-25T08:14:34Z</time></trkpt><trkpt lat="38.02268992746681" lon="15.753583206288"><ele>758.5999999999999</ele><time>2026-04-25T08:14:36Z</time></trkpt><trkpt lat="38.02280358509054" lon="15.753635202467015"><ele>760.8</ele><time>2026-04-25T08:14:38Z</time></trkpt><trkpt lat="38.02286896702322" lon="15.753663319848181"><ele>763.0</ele><time>2026-04-25T08:14:39Z</time></trkpt><trkpt lat="38.022988816828175" lon="15.75369851964733"><ele>763.0</ele><time>2026-04-25T08:14:41Z</time></trkpt><trkpt lat="38.02308984007475" lon="15.753720733058968"><ele>763.0</ele><time>2026-04-25T08:14:43Z</time></trkpt><trkpt lat="38.02319644505423" lon="15.753722838507722"><ele>763.0</ele><time>2026-04-25T08:14:45Z</time></trkpt><trkpt lat="38.0233066564617" lon="15.753657202125297"><ele>763.0</ele><time>2026-04-25T08:14:47Z</time></trkpt><trkpt lat="38.023396368593666" lon="15.753550197589801"><ele>767.1666666666667</ele><time>2026-04-25T08:14:49Z</time></trkpt><trkpt lat="38.02345489952609" lon="15.753435870832568"><ele>771.3333333333334</ele><time>2026-04-25T08:14:51Z</time></trkpt><trkpt lat="38.0235174860677" lon="15.75340273018719"><ele>775.5</ele><time>2026-04-25T08:14:54Z</time></trkpt><trkpt lat="38.02358792409932" lon="15.753423857522183"><ele>779.6666666666667</ele><time>2026-04-25T08:14:56Z</time></trkpt><trkpt lat="38.02363208764062" lon="15.753512770231382"><ele>783.8333333333334</ele><time>2026-04-25T08:14:58Z</time></trkpt><trkpt lat="38.02369319295638" lon="15.753619426119363"><ele>788.0</ele><time>2026-04-25T08:15:00Z</time></trkpt><trkpt lat="38.02374096087915" lon="15.75368770765682"><ele>788.0</ele><time>2026-04-25T08:15:01Z</time></trkpt><trkpt lat="38.02381621465726" lon="15.753802900085905"><ele>788.0</ele><time>2026-04-25T08:15:03Z</time></trkpt><trkpt lat="38.02390413892734" lon="15.753880870940556"><ele>788.0</ele><time>2026-04-25T08:15:05Z</time></trkpt><trkpt lat="38.0240044231835" lon="15.753936010244997"><ele>788.0</ele><time>2026-04-25T08:15:07Z</time></trkpt><trkpt lat="38.02411656668466" lon="15.753923299390918"><ele>788.0</ele><time>2026-04-25T08:15:09Z</time></trkpt><trkpt lat="38.0242047117344" lon="15.753872637242903"><ele>793.4</ele><time>2026-04-25T08:15:11Z</time></trkpt><trkpt lat="38.02427443795663" lon="15.753945359774592"><ele>798.8</ele><time>2026-04-25T08:15:14Z</time></trkpt><trkpt lat="38.02433319947246" lon="15.754024382138374"><ele>804.2</ele><time>2026-04-25T08:15:16Z</time></trkpt><trkpt lat="38.024433072136496" lon="15.754047704653038"><ele>809.6</ele><time>2026-04-25T08:15:18Z</time></trkpt><trkpt lat="38.02455295568655" lon="15.754036569162848"><ele>815.0</ele><time>2026-04-25T08:15:20Z</time></trkpt><trkpt lat="38.024633644715394" lon="15.754077330882247"><ele>815.0000000000001</ele><time>2026-04-25T08:15:22Z</time></trkpt><trkpt lat="38.02471188367428" lon="15.754079337329692"><ele>815.0</ele><time>2026-04-25T08:15:24Z</time></trkpt><trkpt lat="38.02474613257549" lon="15.753989937052198"><ele>815.0</ele><time>2026-04-25T08:15:26Z</time></trkpt><trkpt lat="38.02472047367015" lon="15.75387718805709"><ele>815.0</ele><time>2026-04-25T08:15:28Z</time></trkpt><trkpt lat="38.0247410392648" lon="15.753794927454903"><ele>815.0000000000001</ele><time>2026-04-25T08:15:30Z</time></trkpt><trkpt lat="38.02479284333499" lon="15.753718369481508"><ele>815.0</ele><time>2026-04-25T08:15:32Z</time></trkpt><trkpt lat="38.02486781950016" lon="15.75369613235861"><ele>815.0000000000001</ele><time>2026-04-25T08:15:34Z</time></trkpt><trkpt lat="38.024937043227325" lon="15.753696441899816"><ele>815.0</ele><time>2026-04-25T08:15:37.001Z</time></trkpt><trkpt lat="38.02499892830263" lon="15.753680373824825"><ele>815.0</ele><time>2026-04-25T08:15:38.001Z</time></trkpt><trkpt lat="38.0250606085079" lon="15.753657855485796"><ele>815.0</ele><time>2026-04-25T08:15:40.001Z</time></trkpt><trkpt lat="38.02513962370677" lon="15.753637211427762"><ele>815.0000000000001</ele><time>2026-04-25T08:15:42.001Z</time></trkpt><trkpt lat="38.02523167049929" lon="15.753669818584642"><ele>815.0</ele><time>2026-04-25T08:15:44.001Z</time></trkpt><trkpt lat="38.02533153192045" lon="15.753705249641412"><ele>818.8</ele><time>2026-04-25T08:15:46.001Z</time></trkpt><trkpt lat="38.02543129017363" lon="15.753691798432872"><ele>822.6</ele><time>2026-04-25T08:15:48.001Z</time></trkpt><trkpt lat="38.025558831325434" lon="15.753576342716066"><ele>826.4000000000001</ele><time>2026-04-25T08:15:51.001Z</time></trkpt><trkpt lat="38.025648621511536" lon="15.753555622471254"><ele>830.2</ele><time>2026-04-25T08:15:53.001Z</time></trkpt><trkpt lat="38.02570483860576" lon="15.753482932111703"><ele>834.0</ele><time>2026-04-25T08:15:54.001Z</time></trkpt><trkpt lat="38.025773913880755" lon="15.753434918466628"><ele>836.4285714285714</ele><time>2026-04-25T08:15:55.001Z</time></trkpt><trkpt lat="38.02583535973323" lon="15.753394576252544"><ele>838.8571428571428</ele><time>2026-04-25T08:15:56.001Z</time></trkpt><trkpt lat="38.02585969795222" lon="15.753305130164259"><ele>841.2857142857142</ele><time>2026-04-25T08:15:57.001Z</time></trkpt><trkpt lat="38.02591414244811" lon="15.753253961342642"><ele>843.7142857142858</ele><time>2026-04-25T08:15:58.001Z</time></trkpt><trkpt lat="38.02597819314795" lon="15.753204270191356"><ele>846.1428571428571</ele><time>2026-04-25T08:15:59.001Z</time></trkpt><trkpt lat="38.02602611323476" lon="15.753146541159275"><ele>848.5714285714286</ele><time>2026-04-25T08:16:00.001Z</time></trkpt><trkpt lat="38.026067393295754" lon="15.753079558591999"><ele>851.0</ele><time>2026-04-25T08:16:01.001Z</time></trkpt><trkpt lat="38.02612600928296" lon="15.752967022500288"><ele>851.0000000000001</ele><time>2026-04-25T08:16:03.001Z</time></trkpt><trkpt lat="38.02617940055765" lon="15.752880394474541"><ele>851.0</ele><time>2026-04-25T08:16:05.001Z</time></trkpt><trkpt lat="38.02624720690683" lon="15.752869829749306"><ele>851.0</ele><time>2026-04-25T08:16:06.001Z</time></trkpt><trkpt lat="38.02631157433659" lon="15.752828339171879"><ele>851.0</ele><time>2026-04-25T08:16:07.001Z</time></trkpt><trkpt lat="38.026375888103644" lon="15.752791571077886"><ele>851.0000000000001</ele><time>2026-04-25T08:16:08.001Z</time></trkpt><trkpt lat="38.02643821554887" lon="15.752763368756568"><ele>851.0</ele><time>2026-04-25T08:16:09.001Z</time></trkpt><trkpt lat="38.02655765772537" lon="15.752705579245413"><ele>852.1428571428571</ele><time>2026-04-25T08:16:11.001Z</time></trkpt><trkpt lat="38.02662342018552" lon="15.752682971924724"><ele>853.2857142857143</ele><time>2026-04-25T08:16:12.001Z</time></trkpt><trkpt lat="38.02668573628987" lon="15.752656350861585"><ele>854.4285714285713</ele><time>2026-04-25T08:16:13.001Z</time></trkpt><trkpt lat="38.02675181278952" lon="15.752636276801269"><ele>855.5714285714286</ele><time>2026-04-25T08:16:14.001Z</time></trkpt><trkpt lat="38.02681792528244" lon="15.752614289455286"><ele>856.7142857142857</ele><time>2026-04-25T08:16:15.001Z</time></trkpt><trkpt lat="38.026881600250235" lon="15.752577398275665"><ele>857.8571428571428</ele><time>2026-04-25T08:16:16.001Z</time></trkpt><trkpt lat="38.026945595940504" lon="15.752527872633987"><ele>859.0</ele><time>2026-04-25T08:16:17.001Z</time></trkpt><trkpt lat="38.02699997313738" lon="15.752486636745903"><ele>858.9999999999999</ele><time>2026-04-25T08:16:18.001Z</time></trkpt><trkpt lat="38.027123605606036" lon="15.752471110818165"><ele>859.0</ele><time>2026-04-25T08:16:20.001Z</time></trkpt><trkpt lat="38.0271921310281" lon="15.752476389741156"><ele>859.0</ele><time>2026-04-25T08:16:21.001Z</time></trkpt><trkpt lat="38.027270117483276" lon="15.752462498198067"><ele>859.0</ele><time>2026-04-25T08:16:22.001Z</time></trkpt><trkpt lat="38.027342944378894" lon="15.752432480394049"><ele>858.9999999999999</ele><time>2026-04-25T08:16:23.001Z</time></trkpt><trkpt lat="38.027411365981685" lon="15.752399130180104"><ele>859.0</ele><time>2026-04-25T08:16:24.001Z</time></trkpt><trkpt lat="38.02747618353512" lon="15.752371567379756"><ele>859.9999999999999</ele><time>2026-04-25T08:16:25.001Z</time></trkpt><trkpt lat="38.02754291560021" lon="15.752350813170215"><ele>861.0</ele><time>2026-04-25T08:16:25.999Z</time></trkpt><trkpt lat="38.027607202735716" lon="15.752319420020934"><ele>862.0</ele><time>2026-04-25T08:16:26.999Z</time></trkpt><trkpt lat="38.02766516304336" lon="15.752274058062289"><ele>863.0</ele><time>2026-04-25T08:16:27.999Z</time></trkpt><trkpt lat="38.02773105481991" lon="15.752232413744185"><ele>864.0</ele><time>2026-04-25T08:16:28.999Z</time></trkpt><trkpt lat="38.02779607149941" lon="15.752198283568168"><ele>864.9999999999999</ele><time>2026-04-25T08:16:29.999Z</time></trkpt><trkpt lat="38.027864689744725" lon="15.752176800427597"><ele>866.0</ele><time>2026-04-25T08:16:30.999Z</time></trkpt><trkpt lat="38.027936749759355" lon="15.752150763597173"><ele>865.9999999999999</ele><time>2026-04-25T08:16:31.999Z</time></trkpt><trkpt lat="38.02800075318436" lon="15.752127203117665"><ele>866.0</ele><time>2026-04-25T08:16:32.999Z</time></trkpt><trkpt lat="38.0280654466352" lon="15.75212634553048"><ele>866.0</ele><time>2026-04-25T08:16:33.999Z</time></trkpt><trkpt lat="38.02808222203961" lon="15.752251415660306"><ele>866.0</ele><time>2026-04-25T08:16:59Z</time></trkpt><trkpt lat="38.02808749164625" lon="15.752347156064044"><ele>866.0</ele><time>2026-04-25T08:17:00Z</time></trkpt><trkpt lat="38.02809607051997" lon="15.752433294268082"><ele>865.9999999999999</ele><time>2026-04-25T08:17:01Z</time></trkpt><trkpt lat="38.02811280773048" lon="15.75251473975192"><ele>866.0</ele><time>2026-04-25T08:17:02Z</time></trkpt><trkpt lat="38.02813526560501" lon="15.752592083552129"><ele>865.9999999999999</ele><time>2026-04-25T08:17:03Z</time></trkpt><trkpt lat="38.02815161878305" lon="15.75267219169322"><ele>866.0</ele><time>2026-04-25T08:17:04Z</time></trkpt><trkpt lat="38.02817295457185" lon="15.75276110378309"><ele>866.0</ele><time>2026-04-25T08:17:05Z</time></trkpt><trkpt lat="38.02818323304482" lon="15.752847614817975"><ele>866.0</ele><time>2026-04-25T08:17:06Z</time></trkpt><trkpt lat="38.0282102942836" lon="15.752946152058408"><ele>866.0</ele><time>2026-04-25T08:17:07Z</time></trkpt><trkpt lat="38.02822304961991" lon="15.753038570159376"><ele>865.9999999999999</ele><time>2026-04-25T08:17:08Z</time></trkpt><trkpt lat="38.02823611879818" lon="15.753119089752962"><ele>866.0</ele><time>2026-04-25T08:17:09Z</time></trkpt><trkpt lat="38.02825586623959" lon="15.753200650745645"><ele>867.0</ele><time>2026-04-25T08:17:10Z</time></trkpt><trkpt lat="38.02835507149374" lon="15.753339784596223"><ele>867.9999999999999</ele><time>2026-04-25T08:17:12Z</time></trkpt><trkpt lat="38.02847806777128" lon="15.753368519596487"><ele>868.9999999999999</ele><time>2026-04-25T08:17:14Z</time></trkpt><trkpt lat="38.028544252316145" lon="15.753413280267019"><ele>870.0</ele><time>2026-04-25T08:17:17Z</time></trkpt><trkpt lat="38.02847228385845" lon="15.753354500606987"><ele>871.0</ele><time>2026-04-25T08:17:33Z</time></trkpt><trkpt lat="38.02838902050542" lon="15.753315998417786"><ele>870.9999999999999</ele><time>2026-04-25T08:17:35Z</time></trkpt><trkpt lat="38.028322455821474" lon="15.753280564770963"><ele>871.0</ele><time>2026-04-25T08:17:37Z</time></trkpt><trkpt lat="38.028254555454645" lon="15.753203429518992"><ele>871.0</ele><time>2026-04-25T08:17:39Z</time></trkpt><trkpt lat="38.02821321932399" lon="15.753095983546237"><ele>871.0</ele><time>2026-04-25T08:17:41Z</time></trkpt><trkpt lat="38.028202157214785" lon="15.753006279858832"><ele>870.9999999999999</ele><time>2026-04-25T08:17:42Z</time></trkpt><trkpt lat="38.02820142008352" lon="15.752894629201702"><ele>871.0</ele><time>2026-04-25T08:17:43Z</time></trkpt><trkpt lat="38.02818652696746" lon="15.752790272595687"><ele>870.2857142857142</ele><time>2026-04-25T08:17:44Z</time></trkpt><trkpt lat="38.02816463659236" lon="15.752697445994905"><ele>869.5714285714286</ele><time>2026-04-25T08:17:45Z</time></trkpt><trkpt lat="38.02814467372565" lon="15.75261841271138"><ele>868.8571428571429</ele><time>2026-04-25T08:17:46Z</time></trkpt><trkpt lat="38.02812852708151" lon="15.752523813725798"><ele>868.1428571428571</ele><time>2026-04-25T08:17:47Z</time></trkpt><trkpt lat="38.02810858424547" lon="15.752434832146125"><ele>867.4285714285714</ele><time>2026-04-25T08:17:48Z</time></trkpt><trkpt lat="38.02809152830688" lon="15.752355127135875"><ele>866.7142857142857</ele><time>2026-04-25T08:17:49Z</time></trkpt><trkpt lat="38.02810731310176" lon="15.752254036465038"><ele>866.0</ele><time>2026-04-25T08:17:51Z</time></trkpt><trkpt lat="38.0281105618046" lon="15.752121766473001"><ele>866.0</ele><time>2026-04-25T08:17:53Z</time></trkpt><trkpt lat="38.02813653367957" lon="15.752027452063976"><ele>865.9999999999999</ele><time>2026-04-25T08:17:55Z</time></trkpt><trkpt lat="38.028180048450594" lon="15.751887156589673"><ele>865.9999999999999</ele><time>2026-04-25T08:17:57.001Z</time></trkpt><trkpt lat="38.028234148013226" lon="15.751755427096414"><ele>866.0</ele><time>2026-04-25T08:17:59.001Z</time></trkpt><trkpt lat="38.02828522360133" lon="15.751691819204638"><ele>866.0</ele><time>2026-04-25T08:18:00.001Z</time></trkpt><trkpt lat="38.0283924360524" lon="15.75165023937924"><ele>867.6666666666667</ele><time>2026-04-25T08:18:02.001Z</time></trkpt><trkpt lat="38.028462006507894" lon="15.751640088550879"><ele>869.3333333333334</ele><time>2026-04-25T08:18:03.001Z</time></trkpt><trkpt lat="38.028525779040756" lon="15.751627841747172"><ele>871.0</ele><time>2026-04-25T08:18:04.001Z</time></trkpt><trkpt lat="38.02859636602883" lon="15.751561175218082"><ele>872.6666666666667</ele><time>2026-04-25T08:18:06.001Z</time></trkpt><trkpt lat="38.02867424890445" lon="15.751488592069093"><ele>874.3333333333334</ele><time>2026-04-25T08:18:08.001Z</time></trkpt><trkpt lat="38.02874273398881" lon="15.751442644479082"><ele>876.0</ele><time>2026-04-25T08:18:09.001Z</time></trkpt><trkpt lat="38.02881506902818" lon="15.751387294542347"><ele>876.0</ele><time>2026-04-25T08:18:10.001Z</time></trkpt><trkpt lat="38.028880159104574" lon="15.751322595005014"><ele>875.9999999999999</ele><time>2026-04-25T08:18:11.001Z</time></trkpt><trkpt lat="38.0289454896382" lon="15.751235705358285"><ele>875.9999999999999</ele><time>2026-04-25T08:18:12.001Z</time></trkpt><trkpt lat="38.02902472296195" lon="15.75115917399919"><ele>876.0</ele><time>2026-04-25T08:18:13.001Z</time></trkpt><trkpt lat="38.029101560447494" lon="15.75106492004767"><ele>876.0</ele><time>2026-04-25T08:18:14.001Z</time></trkpt><trkpt lat="38.02917560195554" lon="15.750956381992772"><ele>874.1999999999999</ele><time>2026-04-25T08:18:15.001Z</time></trkpt><trkpt lat="38.029245422443246" lon="15.750843609468873"><ele>872.3999999999999</ele><time>2026-04-25T08:18:16.001Z</time></trkpt><trkpt lat="38.02930409587825" lon="15.750736148597108"><ele>870.6</ele><time>2026-04-25T08:18:17.001Z</time></trkpt><trkpt lat="38.02935042480862" lon="15.750622901967091"><ele>868.8</ele><time>2026-04-25T08:18:18.001Z</time></trkpt><trkpt lat="38.02941240029524" lon="15.750512168248036"><ele>867.0</ele><time>2026-04-25T08:18:19.001Z</time></trkpt><trkpt lat="38.029473380040635" lon="15.750386002102683"><ele>867.0</ele><time>2026-04-25T08:18:20.001Z</time></trkpt><trkpt lat="38.029507517596265" lon="15.750260511249303"><ele>867.0</ele><time>2026-04-25T08:18:21.001Z</time></trkpt><trkpt lat="38.029546078223895" lon="15.750144501729364"><ele>867.0</ele><time>2026-04-25T08:18:22.001Z</time></trkpt><trkpt lat="38.02958874818031" lon="15.750067571759754"><ele>867.0</ele><time>2026-04-25T08:18:23.001Z</time></trkpt><trkpt lat="38.029670033191614" lon="15.750028247927634"><ele>867.0</ele><time>2026-04-25T08:18:26.001Z</time></trkpt><trkpt lat="38.029787511096124" lon="15.750136630824311"><ele>867.0</ele><time>2026-04-25T08:18:28.001Z</time></trkpt><trkpt lat="38.02987201643882" lon="15.750219331102661"><ele>867.0</ele><time>2026-04-25T08:18:29.001Z</time></trkpt><trkpt lat="38.02995392661328" lon="15.750303830543777"><ele>867.0</ele><time>2026-04-25T08:18:30.001Z</time></trkpt><trkpt lat="38.0300321584164" lon="15.750400828921384"><ele>867.0</ele><time>2026-04-25T08:18:31.001Z</time></trkpt><trkpt lat="38.03012424428999" lon="15.750492237804067"><ele>867.0</ele><time>2026-04-25T08:18:31.999Z</time></trkpt><trkpt lat="38.03022841749561" lon="15.750581394346064"><ele>866.75</ele><time>2026-04-25T08:18:32.999Z</time></trkpt><trkpt lat="38.030331734998235" lon="15.750670285564878"><ele>866.5</ele><time>2026-04-25T08:18:33.999Z</time></trkpt><trkpt lat="38.03042545755063" lon="15.750762600183783"><ele>866.25</ele><time>2026-04-25T08:18:34.999Z</time></trkpt><trkpt lat="38.030516857274925" lon="15.750860358606753"><ele>866.0</ele><time>2026-04-25T08:18:35.999Z</time></trkpt><trkpt lat="38.030615291622944" lon="15.750944068835315"><ele>866.0</ele><time>2026-04-25T08:18:36.999Z</time></trkpt><trkpt lat="38.03072134170135" lon="15.750998701343233"><ele>865.9999999999999</ele><time>2026-04-25T08:18:37.999Z</time></trkpt><trkpt lat="38.03081529999973" lon="15.751033889873044"><ele>865.9999999999999</ele><time>2026-04-25T08:18:38.999Z</time></trkpt><trkpt lat="38.03087959399997" lon="15.751095995565926"><ele>866.0</ele><time>2026-04-25T08:18:39.999Z</time></trkpt><trkpt lat="38.030961084024106" lon="15.751144952817459"><ele>866.0</ele><time>2026-04-25T08:18:40.999Z</time></trkpt><trkpt lat="38.031022937072485" lon="15.751249282061146"><ele>867.3333333333334</ele><time>2026-04-25T08:18:41.999Z</time></trkpt><trkpt lat="38.031110450456936" lon="15.751314985418125"><ele>868.6666666666667</ele><time>2026-04-25T08:18:42.999Z</time></trkpt><trkpt lat="38.03118408864571" lon="15.751395348135308"><ele>870.0</ele><time>2026-04-25T08:18:43.999Z</time></trkpt><trkpt lat="38.0312472185535" lon="15.751473629815925"><ele>871.3333333333333</ele><time>2026-04-25T08:18:44.999Z</time></trkpt><trkpt lat="38.03128481508195" lon="15.751542921708857"><ele>872.6666666666666</ele><time>2026-04-25T08:18:45.999Z</time></trkpt><trkpt lat="38.03135369538181" lon="15.751590603481732"><ele>874.0</ele><time>2026-04-25T08:18:47.999Z</time></trkpt><trkpt lat="38.031457837428924" lon="15.751532216744428"><ele>873.9999999999999</ele><time>2026-04-25T08:18:48.999Z</time></trkpt><trkpt lat="38.03150432248937" lon="15.751474752177328"><ele>874.0</ele><time>2026-04-25T08:18:49.999Z</time></trkpt><trkpt lat="38.03156969412322" lon="15.751424840932449"><ele>874.0</ele><time>2026-04-25T08:18:50.999Z</time></trkpt><trkpt lat="38.03163189888217" lon="15.751377189036297"><ele>874.0</ele><time>2026-04-25T08:18:51.999Z</time></trkpt><trkpt lat="38.031705352282465" lon="15.751325603485567"><ele>873.9999999999999</ele><time>2026-04-25T08:18:52.999Z</time></trkpt><trkpt lat="38.03176941068692" lon="15.751260639706375"><ele>874.0</ele><time>2026-04-25T08:18:54Z</time></trkpt><trkpt lat="38.03184578566587" lon="15.751204461299714"><ele>873.4999999999999</ele><time>2026-04-25T08:18:55Z</time></trkpt><trkpt lat="38.03193463898434" lon="15.751196803848536"><ele>873.0</ele><time>2026-04-25T08:18:56Z</time></trkpt><trkpt lat="38.03201447305901" lon="15.751188682280707"><ele>872.5</ele><time>2026-04-25T08:18:57Z</time></trkpt><trkpt lat="38.03208219593261" lon="15.751226652197452"><ele>872.0</ele><time>2026-04-25T08:18:58Z</time></trkpt><trkpt lat="38.03215369144903" lon="15.751237531969544"><ele>871.4999999999999</ele><time>2026-04-25T08:18:59Z</time></trkpt><trkpt lat="38.03221229145396" lon="15.751292739055152"><ele>871.0</ele><time>2026-04-25T08:19:00Z</time></trkpt><trkpt lat="38.03228183289507" lon="15.751328463827639"><ele>871.0</ele><time>2026-04-25T08:19:01Z</time></trkpt><trkpt lat="38.032353610715326" lon="15.751341115416926"><ele>870.9999999999999</ele><time>2026-04-25T08:19:02Z</time></trkpt><trkpt lat="38.03243625645797" lon="15.751316271769877"><ele>870.9999999999999</ele><time>2026-04-25T08:19:03Z</time></trkpt><trkpt lat="38.03251183180572" lon="15.751266332054097"><ele>871.0</ele><time>2026-04-25T08:19:04Z</time></trkpt><trkpt lat="38.03258158141543" lon="15.751162248496774"><ele>871.0</ele><time>2026-04-25T08:19:05Z</time></trkpt><trkpt lat="38.03266259697513" lon="15.75106052375204"><ele>873.8</ele><time>2026-04-25T08:19:06Z</time></trkpt><trkpt lat="38.03271739455071" lon="15.750949441094395"><ele>876.5999999999999</ele><time>2026-04-25T08:19:07Z</time></trkpt><trkpt lat="38.03278840336987" lon="15.750871114523303"><ele>879.4</ele><time>2026-04-25T08:19:08Z</time></trkpt><trkpt lat="38.03284152389276" lon="15.75075759076721"><ele>882.2</ele><time>2026-04-25T08:19:09Z</time></trkpt><trkpt lat="38.03291520418698" lon="15.750661663107346"><ele>885.0</ele><time>2026-04-25T08:19:10Z</time></trkpt><trkpt lat="38.032957376668705" lon="15.750591178189001"><ele>885.0</ele><time>2026-04-25T08:19:11Z</time></trkpt><trkpt lat="38.03300422136555" lon="15.750531269807958"><ele>885.0</ele><time>2026-04-25T08:19:12Z</time></trkpt><trkpt lat="38.0330666733522" lon="15.75050016477259"><ele>885.0</ele><time>2026-04-25T08:19:13Z</time></trkpt><trkpt lat="38.033133831576336" lon="15.750496161864628"><ele>885.0</ele><time>2026-04-25T08:19:14Z</time></trkpt><trkpt lat="38.033198767668665" lon="15.750518674807864"><ele>885.0</ele><time>2026-04-25T08:19:15Z</time></trkpt><trkpt lat="38.03327118779002" lon="15.750540970641204"><ele>885.0</ele><time>2026-04-25T08:19:16Z</time></trkpt><trkpt lat="38.033338257600754" lon="15.750550305262319"><ele>885.0</ele><time>2026-04-25T08:19:17Z</time></trkpt><trkpt lat="38.033413578285696" lon="15.750520017221897"><ele>886.6666666666666</ele><time>2026-04-25T08:19:18Z</time></trkpt><trkpt lat="38.033485213953895" lon="15.7504913675859"><ele>888.3333333333333</ele><time>2026-04-25T08:19:19Z</time></trkpt><trkpt lat="38.03354776260378" lon="15.750433575446381"><ele>890.0</ele><time>2026-04-25T08:19:20Z</time></trkpt><trkpt lat="38.03358586782713" lon="15.750335665302012"><ele>891.6666666666666</ele><time>2026-04-25T08:19:21Z</time></trkpt><trkpt lat="38.03358202222749" lon="15.750222331854067"><ele>893.3333333333333</ele><time>2026-04-25T08:19:22Z</time></trkpt><trkpt lat="38.03357327286346" lon="15.750126136194991"><ele>895.0</ele><time>2026-04-25T08:19:23Z</time></trkpt><trkpt lat="38.03357200716311" lon="15.750044624499328"><ele>894.9999999999999</ele><time>2026-04-25T08:19:24Z</time></trkpt><trkpt lat="38.03365071178814" lon="15.750000794249296"><ele>895.0</ele><time>2026-04-25T08:19:28Z</time></trkpt><trkpt lat="38.033717648222385" lon="15.750144723112122"><ele>895.0</ele><time>2026-04-25T08:19:30Z</time></trkpt><trkpt lat="38.033724061336194" lon="15.750244036297474"><ele>895.0</ele><time>2026-04-25T08:19:31Z</time></trkpt><trkpt lat="38.0337014968916" lon="15.750336795472373"><ele>894.9999999999999</ele><time>2026-04-25T08:19:32Z</time></trkpt><trkpt lat="38.0336868469418" lon="15.750423786649327"><ele>895.0</ele><time>2026-04-25T08:19:33Z</time></trkpt><trkpt lat="38.033754735539134" lon="15.750552317878691"><ele>894.9999999999999</ele><time>2026-04-25T08:19:35Z</time></trkpt><trkpt lat="38.03384817156366" lon="15.75065289510593"><ele>895.0</ele><time>2026-04-25T08:19:37Z</time></trkpt><trkpt lat="38.03389814491282" lon="15.75070802245542"><ele>895.0</ele><time>2026-04-25T08:19:38Z</time></trkpt><trkpt lat="38.03394779562601" lon="15.750777714165"><ele>895.0</ele><time>2026-04-25T08:19:39Z</time></trkpt><trkpt lat="38.034015069228765" lon="15.750842048282253"><ele>894.9999999999999</ele><time>2026-04-25T08:19:40Z</time></trkpt><trkpt lat="38.03406777124237" lon="15.75092018646871"><ele>895.0</ele><time>2026-04-25T08:19:41Z</time></trkpt><trkpt lat="38.03409862175044" lon="15.75099041559838"><ele>895.9999999999999</ele><time>2026-04-25T08:19:42Z</time></trkpt><trkpt lat="38.0341414896809" lon="15.751049012068329"><ele>897.0</ele><time>2026-04-25T08:19:43Z</time></trkpt><trkpt lat="38.03424306759949" lon="15.751155780929096"><ele>898.0</ele><time>2026-04-25T08:19:45Z</time></trkpt><trkpt lat="38.03428717692451" lon="15.751231335097513"><ele>899.0</ele><time>2026-04-25T08:19:46Z</time></trkpt><trkpt lat="38.03435874426764" lon="15.751286413411108"><ele>899.9999999999999</ele><time>2026-04-25T08:19:47Z</time></trkpt><trkpt lat="38.03441730429994" lon="15.75135707611665"><ele>901.0</ele><time>2026-04-25T08:19:48Z</time></trkpt><trkpt lat="38.0344895747223" lon="15.751437550024702"><ele>901.0</ele><time>2026-04-25T08:19:49Z</time></trkpt><trkpt lat="38.0345558456899" lon="15.751517576892637"><ele>900.9999999999999</ele><time>2026-04-25T08:19:50Z</time></trkpt><trkpt lat="38.034636887675454" lon="15.751599298777979"><ele>900.9999999999999</ele><time>2026-04-25T08:19:51Z</time></trkpt><trkpt lat="38.03469957747665" lon="15.751702875770118"><ele>901.0</ele><time>2026-04-25T08:19:52Z</time></trkpt><trkpt lat="38.03475649566294" lon="15.751801951585994"><ele>901.0</ele><time>2026-04-25T08:19:53.001Z</time></trkpt><trkpt lat="38.0348061286489" lon="15.75187066181594"><ele>900.4999999999999</ele><time>2026-04-25T08:19:54.001Z</time></trkpt><trkpt lat="38.03486084619412" lon="15.751942922703225"><ele>900.0</ele><time>2026-04-25T08:19:55.001Z</time></trkpt><trkpt lat="38.03492088943331" lon="15.752006058357498"><ele>899.5</ele><time>2026-04-25T08:19:56.001Z</time></trkpt><trkpt lat="38.03499207983942" lon="15.752035928093035"><ele>899.0</ele><time>2026-04-25T08:19:57.001Z</time></trkpt><trkpt lat="38.03507562895357" lon="15.752045614999876"><ele>898.4999999999999</ele><time>2026-04-25T08:19:58.001Z</time></trkpt><trkpt lat="38.0351751240176" lon="15.752043145392047"><ele>898.0</ele><time>2026-04-25T08:19:59.001Z</time></trkpt><trkpt lat="38.0352793752722" lon="15.752036565029092"><ele>898.0</ele><time>2026-04-25T08:20:00.001Z</time></trkpt><trkpt lat="38.03538475919141" lon="15.752035644516312"><ele>898.0</ele><time>2026-04-25T08:20:01.001Z</time></trkpt><trkpt lat="38.03549224625911" lon="15.752028337416567"><ele>898.0</ele><time>2026-04-25T08:20:02.001Z</time></trkpt><trkpt lat="38.03559748629735" lon="15.752013798104288"><ele>898.0</ele><time>2026-04-25T08:20:03.001Z</time></trkpt><trkpt lat="38.03569734144604" lon="15.75198461503982"><ele>898.0</ele><time>2026-04-25T08:20:04.001Z</time></trkpt><trkpt lat="38.0357860406331" lon="15.751937957095505"><ele>898.8333333333333</ele><time>2026-04-25T08:20:05.001Z</time></trkpt><trkpt lat="38.03587528659186" lon="15.75191228141006"><ele>899.6666666666666</ele><time>2026-04-25T08:20:06.001Z</time></trkpt><trkpt lat="38.03594823634257" lon="15.751886035228335"><ele>900.5</ele><time>2026-04-25T08:20:07.001Z</time></trkpt><trkpt lat="38.03601192315672" lon="15.75187516336788"><ele>901.3333333333333</ele><time>2026-04-25T08:20:08.001Z</time></trkpt><trkpt lat="38.036088252929126" lon="15.751877969225268"><ele>902.1666666666666</ele><time>2026-04-25T08:20:09.001Z</time></trkpt><trkpt lat="38.03618255571609" lon="15.751903436824588"><ele>903.0</ele><time>2026-04-25T08:20:10.001Z</time></trkpt><trkpt lat="38.03628800726319" lon="15.75193347440241"><ele>903.0</ele><time>2026-04-25T08:20:11.001Z</time></trkpt><trkpt lat="38.036392380683615" lon="15.75194214419079"><ele>903.0</ele><time>2026-04-25T08:20:12.001Z</time></trkpt><trkpt lat="38.03649784553021" lon="15.751980904512285"><ele>903.0</ele><time>2026-04-25T08:20:13.001Z</time></trkpt><trkpt lat="38.03660626368231" lon="15.751991719651759"><ele>903.0</ele><time>2026-04-25T08:20:14.001Z</time></trkpt><trkpt lat="38.036713223101394" lon="15.752010086781354"><ele>903.0</ele><time>2026-04-25T08:20:15.001Z</time></trkpt><trkpt lat="38.03681305662688" lon="15.752041980718321"><ele>905.4</ele><time>2026-04-25T08:20:16.001Z</time></trkpt><trkpt lat="38.036917525241584" lon="15.752055715056224"><ele>907.8</ele><time>2026-04-25T08:20:17.001Z</time></trkpt><trkpt lat="38.037022674077015" lon="15.752075385340612"><ele>910.2</ele><time>2026-04-25T08:20:18.001Z</time></trkpt><trkpt lat="38.037128151125046" lon="15.752118126993665"><ele>912.6</ele><time>2026-04-25T08:20:19.001Z</time></trkpt><trkpt lat="38.03722369740935" lon="15.752162269855921"><ele>915.0</ele><time>2026-04-25T08:20:20.001Z</time></trkpt><trkpt lat="38.037324422445636" lon="15.75220968616767"><ele>915.0</ele><time>2026-04-25T08:20:21.001Z</time></trkpt><trkpt lat="38.03743380262359" lon="15.752249778372603"><ele>915.0</ele><time>2026-04-25T08:20:22.001Z</time></trkpt><trkpt lat="38.037542083970166" lon="15.752242611544775"><ele>915.0</ele><time>2026-04-25T08:20:23.001Z</time></trkpt><trkpt lat="38.037645221762695" lon="15.752235785358234"><ele>915.0</ele><time>2026-04-25T08:20:24.001Z</time></trkpt><trkpt lat="38.037737871480005" lon="15.75223934819023"><ele>915.0</ele><time>2026-04-25T08:20:25.001Z</time></trkpt><trkpt lat="38.037803652241294" lon="15.752229252857713"><ele>916.4</ele><time>2026-04-25T08:20:26.001Z</time></trkpt><trkpt lat="38.03791782753584" lon="15.75226116523692"><ele>917.8</ele><time>2026-04-25T08:20:28.001Z</time></trkpt><trkpt lat="38.03797612722633" lon="15.752326169712"><ele>919.2</ele><time>2026-04-25T08:20:29.001Z</time></trkpt><trkpt lat="38.03801337116967" lon="15.752420304117718"><ele>920.6</ele><time>2026-04-25T08:20:30.001Z</time></trkpt><trkpt lat="38.03803863635061" lon="15.752537915687205"><ele>922.0</ele><time>2026-04-25T08:20:31.001Z</time></trkpt><trkpt lat="38.03806503651004" lon="15.752671497530004"><ele>920.4000000000001</ele><time>2026-04-25T08:20:32.001Z</time></trkpt><trkpt lat="38.038095124680765" lon="15.752792920216859"><ele>918.8000000000001</ele><time>2026-04-25T08:20:33.001Z</time></trkpt><trkpt lat="38.038144123850564" lon="15.75291494644941"><ele>917.2</ele><time>2026-04-25T08:20:34.001Z</time></trkpt><trkpt lat="38.038191228037114" lon="15.753042727550563"><ele>915.6</ele><time>2026-04-25T08:20:35.001Z</time></trkpt><trkpt lat="38.03824607676159" lon="15.753163335775884"><ele>914.0</ele><time>2026-04-25T08:20:36.001Z</time></trkpt><trkpt lat="38.038299523505415" lon="15.753289995119795"><ele>915.2</ele><time>2026-04-25T08:20:37.001Z</time></trkpt><trkpt lat="38.03834393471917" lon="15.75341861562098"><ele>916.4000000000001</ele><time>2026-04-25T08:20:37.999Z</time></trkpt><trkpt lat="38.038406967388674" lon="15.753539562011882"><ele>917.6</ele><time>2026-04-25T08:20:38.999Z</time></trkpt><trkpt lat="38.038462341313725" lon="15.753658278181693"><ele>918.8</ele><time>2026-04-25T08:20:39.999Z</time></trkpt><trkpt lat="38.038533801704034" lon="15.75376542111499"><ele>920.0</ele><time>2026-04-25T08:20:40.999Z</time></trkpt><trkpt lat="38.038615207110695" lon="15.753868425817851"><ele>920.0</ele><time>2026-04-25T08:20:41.999Z</time></trkpt><trkpt lat="38.03869103708806" lon="15.75394551214388"><ele>920.0</ele><time>2026-04-25T08:20:42.999Z</time></trkpt><trkpt lat="38.0387529502096" lon="15.754010195264222"><ele>920.0</ele><time>2026-04-25T08:20:43.999Z</time></trkpt><trkpt lat="38.038828053053024" lon="15.754087800412973"><ele>920.0</ele><time>2026-04-25T08:20:44.999Z</time></trkpt><trkpt lat="38.03890412101466" lon="15.754169139743095"><ele>920.0</ele><time>2026-04-25T08:20:45.999Z</time></trkpt><trkpt lat="38.03897410434253" lon="15.754252446767618"><ele>920.0</ele><time>2026-04-25T08:20:46.999Z</time></trkpt><trkpt lat="38.03902517627904" lon="15.75436001187765"><ele>920.0</ele><time>2026-04-25T08:20:47.999Z</time></trkpt><trkpt lat="38.03907857811847" lon="15.754478897875055"><ele>920.0</ele><time>2026-04-25T08:20:48.999Z</time></trkpt><trkpt lat="38.03911088605986" lon="15.75459301689247"><ele>920.0</ele><time>2026-04-25T08:20:49.999Z</time></trkpt><trkpt lat="38.03912123169123" lon="15.754709288846142"><ele>920.0</ele><time>2026-04-25T08:20:50.999Z</time></trkpt><trkpt lat="38.03912232215883" lon="15.75484415818853"><ele>920.6</ele><time>2026-04-25T08:20:51.999Z</time></trkpt><trkpt lat="38.03914558661919" lon="15.754954605671411"><ele>921.2</ele><time>2026-04-25T08:20:52.999Z</time></trkpt><trkpt lat="38.039190332582535" lon="15.75507090987067"><ele>921.8</ele><time>2026-04-25T08:20:53.999Z</time></trkpt><trkpt lat="38.03924420269053" lon="15.755194365943286"><ele>922.4</ele><time>2026-04-25T08:20:54.999Z</time></trkpt><trkpt lat="38.03931265646271" lon="15.755315409194875"><ele>923.0</ele><time>2026-04-25T08:20:56Z</time></trkpt><trkpt lat="38.03935064018168" lon="15.755449543936237"><ele>923.0</ele><time>2026-04-25T08:20:57Z</time></trkpt><trkpt lat="38.039384044992914" lon="15.7555416082485"><ele>923.0</ele><time>2026-04-25T08:20:58Z</time></trkpt><trkpt lat="38.03941038162767" lon="15.755615998133942"><ele>923.0</ele><time>2026-04-25T08:20:59Z</time></trkpt><trkpt lat="38.039436965762846" lon="15.755693213591092"><ele>923.0</ele><time>2026-04-25T08:21:00Z</time></trkpt><trkpt lat="38.039563697995064" lon="15.756105930524955"><ele>922.8</ele><time>2026-04-25T08:21:02Z</time></trkpt><trkpt lat="38.03960791322575" lon="15.756232349632354"><ele>922.5999999999999</ele><time>2026-04-25T08:21:03Z</time></trkpt><trkpt lat="38.03964793225484" lon="15.756350568796835"><ele>922.4000000000001</ele><time>2026-04-25T08:21:04Z</time></trkpt><trkpt lat="38.03969234569915" lon="15.756477903230643"><ele>922.2</ele><time>2026-04-25T08:21:05Z</time></trkpt><trkpt lat="38.039762352890726" lon="15.756591589603163"><ele>922.0</ele><time>2026-04-25T08:21:06Z</time></trkpt><trkpt lat="38.03980753468675" lon="15.756705701355113"><ele>922.0</ele><time>2026-04-25T08:21:07Z</time></trkpt><trkpt lat="38.039889930663136" lon="15.756783497677104"><ele>922.0</ele><time>2026-04-25T08:21:08Z</time></trkpt><trkpt lat="38.03996812653271" lon="15.75686257239896"><ele>922.0</ele><time>2026-04-25T08:21:09Z</time></trkpt><trkpt lat="38.04005499284698" lon="15.756952434111524"><ele>922.0</ele><time>2026-04-25T08:21:10Z</time></trkpt><trkpt lat="38.04014531098141" lon="15.757041929634248"><ele>922.0</ele><time>2026-04-25T08:21:11Z</time></trkpt><trkpt lat="38.04023412557151" lon="15.757128760124836"><ele>924.25</ele><time>2026-04-25T08:21:12Z</time></trkpt><trkpt lat="38.04031568836561" lon="15.757233667504149"><ele>926.5</ele><time>2026-04-25T08:21:13Z</time></trkpt><trkpt lat="38.04040824552183" lon="15.757322430588726"><ele>928.75</ele><time>2026-04-25T08:21:14Z</time></trkpt><trkpt lat="38.04049398860196" lon="15.757413586210653"><ele>931.0</ele><time>2026-04-25T08:21:15Z</time></trkpt><trkpt lat="38.04056780917553" lon="15.757510142599873"><ele>931.0</ele><time>2026-04-25T08:21:16Z</time></trkpt><trkpt lat="38.0406284844708" lon="15.757610443241758"><ele>930.9999999999999</ele><time>2026-04-25T08:21:17Z</time></trkpt><trkpt lat="38.04067365993983" lon="15.75772318462702"><ele>930.9999999999999</ele><time>2026-04-25T08:21:18Z</time></trkpt><trkpt lat="38.04070323389748" lon="15.757845801342995"><ele>931.0</ele><time>2026-04-25T08:21:19Z</time></trkpt><trkpt lat="38.04072504298154" lon="15.757979090825865"><ele>931.0</ele><time>2026-04-25T08:21:20Z</time></trkpt><trkpt lat="38.040725735376206" lon="15.758094551177653"><ele>932.5999999999999</ele><time>2026-04-25T08:21:21Z</time></trkpt><trkpt lat="38.04070822380065" lon="15.758217587016949"><ele>934.1999999999999</ele><time>2026-04-25T08:21:22Z</time></trkpt><trkpt lat="38.040663093089485" lon="15.758339674056451"><ele>935.8000000000001</ele><time>2026-04-25T08:21:23Z</time></trkpt><trkpt lat="38.040614604273856" lon="15.758445167360824"><ele>937.4000000000001</ele><time>2026-04-25T08:21:24Z</time></trkpt><trkpt lat="38.040551218091956" lon="15.758545981610578"><ele>939.0</ele><time>2026-04-25T08:21:25Z</time></trkpt><trkpt lat="38.04047343021832" lon="15.758629927713294"><ele>939.0</ele><time>2026-04-25T08:21:26Z</time></trkpt><trkpt lat="38.04041188803834" lon="15.758697228650167"><ele>939.0</ele><time>2026-04-25T08:21:27Z</time></trkpt><trkpt lat="38.04036535452731" lon="15.758765008397791"><ele>939.0</ele><time>2026-04-25T08:21:28Z</time></trkpt><trkpt lat="38.04031534578711" lon="15.758831292539677"><ele>939.0</ele><time>2026-04-25T08:21:29Z</time></trkpt><trkpt lat="38.040246135845" lon="15.758859175918142"><ele>939.0</ele><time>2026-04-25T08:21:30Z</time></trkpt><trkpt lat="38.04019688341312" lon="15.758920669087201"><ele>939.0</ele><time>2026-04-25T08:22:13.001Z</time></trkpt><trkpt lat="38.040123454889205" lon="15.758977821204038"><ele>939.0</ele><time>2026-04-25T08:22:15.001Z</time></trkpt><trkpt lat="38.0400602687074" lon="15.759126409527013"><ele>939.0000000000001</ele><time>2026-04-25T08:22:17.001Z</time></trkpt><trkpt lat="38.04002360627807" lon="15.759217728148492"><ele>939.0000000000001</ele><time>2026-04-25T08:22:18.001Z</time></trkpt><trkpt lat="38.03998690903169" lon="15.759306004502772"><ele>939.0</ele><time>2026-04-25T08:22:19.001Z</time></trkpt><trkpt lat="38.039949919079" lon="15.75937422150223"><ele>939.0</ele><time>2026-04-25T08:22:20.001Z</time></trkpt><trkpt lat="38.039847874851716" lon="15.759431603408013"><ele>938.2</ele><time>2026-04-25T08:22:22.001Z</time></trkpt><trkpt lat="38.03978144052811" lon="15.75938115780881"><ele>937.4000000000001</ele><time>2026-04-25T08:22:23.001Z</time></trkpt><trkpt lat="38.0397075576469" lon="15.759367779002764"><ele>936.6</ele><time>2026-04-25T08:22:24.001Z</time></trkpt><trkpt lat="38.039584811232466" lon="15.759377260529213"><ele>935.8</ele><time>2026-04-25T08:22:26.001Z</time></trkpt><trkpt lat="38.039549855491394" lon="15.759458977782577"><ele>935.0</ele><time>2026-04-25T08:22:27.001Z</time></trkpt><trkpt lat="38.03949806599033" lon="15.759575336310927"><ele>935.0000000000001</ele><time>2026-04-25T08:22:29.001Z</time></trkpt><trkpt lat="38.03946276068597" lon="15.759644336522927"><ele>935.0</ele><time>2026-04-25T08:22:30.001Z</time></trkpt><trkpt lat="38.03942263426255" lon="15.759719157821113"><ele>935.0000000000001</ele><time>2026-04-25T08:22:31.001Z</time></trkpt><trkpt lat="38.03938989848096" lon="15.759802401876978"><ele>935.0000000000001</ele><time>2026-04-25T08:22:32.001Z</time></trkpt><trkpt lat="38.03936764355719" lon="15.759888351687499"><ele>935.0</ele><time>2026-04-25T08:22:33.001Z</time></trkpt><trkpt lat="38.03935439534745" lon="15.759975112418454"><ele>935.0000000000001</ele><time>2026-04-25T08:22:34.001Z</time></trkpt><trkpt lat="38.039343352457315" lon="15.760058476753963"><ele>935.0000000000001</ele><time>2026-04-25T08:22:35.001Z</time></trkpt><trkpt lat="38.0393207105396" lon="15.760208876051378"><ele>934.25</ele><time>2026-04-25T08:22:37.001Z</time></trkpt><trkpt lat="38.039307188196915" lon="15.76035569058721"><ele>933.5</ele><time>2026-04-25T08:22:39.001Z</time></trkpt><trkpt lat="38.039137934386126" lon="15.76037632129129"><ele>932.75</ele><time>2026-04-25T08:22:40.001Z</time></trkpt><trkpt lat="38.039030747618526" lon="15.760388051715644"><ele>932.0</ele><time>2026-04-25T08:22:42.001Z</time></trkpt><trkpt lat="38.03896562324782" lon="15.760385942214418"><ele>932.0000000000001</ele><time>2026-04-25T08:22:43.001Z</time></trkpt><trkpt lat="38.03889165790796" lon="15.76039046929485"><ele>932.0</ele><time>2026-04-25T08:22:43.999Z</time></trkpt><trkpt lat="38.03880971779967" lon="15.760385578498978"><ele>932.0</ele><time>2026-04-25T08:22:44.999Z</time></trkpt><trkpt lat="38.038732096110536" lon="15.76038413918812"><ele>932.0</ele><time>2026-04-25T08:22:45.999Z</time></trkpt><trkpt lat="38.03866161910354" lon="15.760378372560792"><ele>932.0000000000001</ele><time>2026-04-25T08:22:46.999Z</time></trkpt><trkpt lat="38.03858972945444" lon="15.760364049797351"><ele>932.0</ele><time>2026-04-25T08:22:47.999Z</time></trkpt><trkpt lat="38.03851727580138" lon="15.760348164976065"><ele>932.0000000000001</ele><time>2026-04-25T08:22:48.999Z</time></trkpt><trkpt lat="38.038439578519444" lon="15.76031634823014"><ele>932.0</ele><time>2026-04-25T08:22:49.999Z</time></trkpt><trkpt lat="38.03836781220033" lon="15.760285073461393"><ele>932.0</ele><time>2026-04-25T08:22:50.999Z</time></trkpt><trkpt lat="38.038304211703036" lon="15.760271943603467"><ele>932.0</ele><time>2026-04-25T08:22:51.999Z</time></trkpt><trkpt lat="38.03823658263081" lon="15.76026417720415"><ele>932.0000000000001</ele><time>2026-04-25T08:22:52.999Z</time></trkpt><trkpt lat="38.038172183246495" lon="15.76025200305862"><ele>932.0</ele><time>2026-04-25T08:22:53.999Z</time></trkpt><trkpt lat="38.03807117809456" lon="15.760248786430077"><ele>934.0000000000001</ele><time>2026-04-25T08:22:56Z</time></trkpt><trkpt lat="38.038032246997126" lon="15.760356578987992"><ele>936.0</ele><time>2026-04-25T08:22:58Z</time></trkpt><trkpt lat="38.038057998071565" lon="15.760466507510166"><ele>938.0</ele><time>2026-04-25T08:23:00Z</time></trkpt><trkpt lat="38.03806569019559" lon="15.760591457567998"><ele>940.0</ele><time>2026-04-25T08:23:03Z</time></trkpt><trkpt lat="38.03808918928715" lon="15.760686013117061"><ele>942.0000000000001</ele><time>2026-04-25T08:23:05Z</time></trkpt><trkpt lat="38.03816698131352" lon="15.760739450670567"><ele>944.0</ele><time>2026-04-25T08:23:07Z</time></trkpt><trkpt lat="38.0382435713073" lon="15.760785492918004"><ele>944.0000000000001</ele><time>2026-04-25T08:23:09Z</time></trkpt><trkpt lat="38.038277721469754" lon="15.76085657060388"><ele>944.0</ele><time>2026-04-25T08:23:11Z</time></trkpt><trkpt lat="38.038292635954505" lon="15.760939794627824"><ele>944.0</ele><time>2026-04-25T08:23:13Z</time></trkpt><trkpt lat="38.03831010633577" lon="15.761035462981082"><ele>944.0</ele><time>2026-04-25T08:23:15Z</time></trkpt><trkpt lat="38.03833918674185" lon="15.761119856790508"><ele>944.0000000000001</ele><time>2026-04-25T08:23:17Z</time></trkpt><trkpt lat="38.03839030702621" lon="15.761211526365752"><ele>944.0</ele><time>2026-04-25T08:23:19Z</time></trkpt><trkpt lat="38.03842288748154" lon="15.761319493733716"><ele>945.0</ele><time>2026-04-25T08:23:21Z</time></trkpt><trkpt lat="38.03837955789263" lon="15.76144670232326"><ele>946.0000000000001</ele><time>2026-04-25T08:23:23Z</time></trkpt><trkpt lat="38.038322996797966" lon="15.761571405903819"><ele>947.0000000000001</ele><time>2026-04-25T08:23:25Z</time></trkpt><trkpt lat="38.03823194951209" lon="15.761657398906484"><ele>948.0</ele><time>2026-04-25T08:23:27Z</time></trkpt><trkpt lat="38.038154990906065" lon="15.761730416933807"><ele>949.0</ele><time>2026-04-25T08:23:29Z</time></trkpt><trkpt lat="38.038099638687285" lon="15.761778183540356"><ele>949.0</ele><time>2026-04-25T08:23:31Z</time></trkpt><trkpt lat="38.03803254801104" lon="15.76184020657258"><ele>949.0000000000001</ele><time>2026-04-25T08:23:33Z</time></trkpt><trkpt lat="38.037957317110674" lon="15.761909358642262"><ele>949.0000000000001</ele><time>2026-04-25T08:23:35Z</time></trkpt><trkpt lat="38.03786755576731" lon="15.761987758738698"><ele>949.0</ele><time>2026-04-25T08:23:37Z</time></trkpt><trkpt lat="38.03775284531181" lon="15.76204883984169"><ele>949.0</ele><time>2026-04-25T08:23:39Z</time></trkpt><trkpt lat="38.037655357680975" lon="15.762053070647044"><ele>949.2</ele><time>2026-04-25T08:23:41Z</time></trkpt><trkpt lat="38.03756379163768" lon="15.762063956665049"><ele>949.4000000000001</ele><time>2026-04-25T08:23:43.001Z</time></trkpt><trkpt lat="38.03746681743745" lon="15.762122441505005"><ele>949.6</ele><time>2026-04-25T08:23:45.001Z</time></trkpt><trkpt lat="38.037371307957926" lon="15.762151004158419"><ele>949.8</ele><time>2026-04-25T08:23:47.001Z</time></trkpt><trkpt lat="38.037274112356535" lon="15.762130546964807"><ele>950.0</ele><time>2026-04-25T08:23:49.001Z</time></trkpt><trkpt lat="38.03716649374551" lon="15.762141959015953"><ele>950.0</ele><time>2026-04-25T08:23:51.001Z</time></trkpt><trkpt lat="38.037079767375054" lon="15.762195990368186"><ele>950.0</ele><time>2026-04-25T08:23:53.001Z</time></trkpt><trkpt lat="38.037005122255614" lon="15.76222835434259"><ele>950.0</ele><time>2026-04-25T08:23:55.001Z</time></trkpt><trkpt lat="38.03692282963894" lon="15.7623034196548"><ele>950.0</ele><time>2026-04-25T08:23:57.001Z</time></trkpt><trkpt lat="38.036828718196745" lon="15.76238801819931"><ele>950.0</ele><time>2026-04-25T08:23:59.001Z</time></trkpt><trkpt lat="38.0367384918815" lon="15.762466789088338"><ele>950.0</ele><time>2026-04-25T08:24:01.001Z</time></trkpt><trkpt lat="38.03664678429923" lon="15.76252858127748"><ele>950.0</ele><time>2026-04-25T08:24:03.001Z</time></trkpt><trkpt lat="38.0365274220331" lon="15.76257104428659"><ele>950.0</ele><time>2026-04-25T08:24:05.001Z</time></trkpt><trkpt lat="38.03641184364311" lon="15.762600274745296"><ele>950.0</ele><time>2026-04-25T08:24:07.001Z</time></trkpt><trkpt lat="38.036348670566575" lon="15.762621536431904"><ele>950.0</ele><time>2026-04-25T08:24:08.001Z</time></trkpt><trkpt lat="38.036232290819875" lon="15.762657622782541"><ele>950.0000000000001</ele><time>2026-04-25T08:24:10.001Z</time></trkpt><trkpt lat="38.03617295842951" lon="15.762691041902317"><ele>950.0</ele><time>2026-04-25T08:24:11.001Z</time></trkpt><trkpt lat="38.036089415173464" lon="15.762743089825978"><ele>950.0</ele><time>2026-04-25T08:24:13.001Z</time></trkpt><trkpt lat="38.03600162772247" lon="15.76280850502676"><ele>950.0</ele><time>2026-04-25T08:24:15.001Z</time></trkpt><trkpt lat="38.03592275655675" lon="15.762845725465894"><ele>950.0000000000001</ele><time>2026-04-25T08:24:17.001Z</time></trkpt><trkpt lat="38.035840387357766" lon="15.762873717021959"><ele>950.0</ele><time>2026-04-25T08:24:19.001Z</time></trkpt><trkpt lat="38.03575166124719" lon="15.762868868659746"><ele>950.0000000000001</ele><time>2026-04-25T08:24:21.001Z</time></trkpt><trkpt lat="38.03569968976829" lon="15.762925748495668"><ele>950.0</ele><time>2026-04-25T08:25:43.001Z</time></trkpt><trkpt lat="38.03566120197991" lon="15.7630048662908"><ele>950.0</ele><time>2026-04-25T08:27:03.001Z</time></trkpt><trkpt lat="38.03561054696873" lon="15.763147626902512"><ele>950.0</ele><time>2026-04-25T08:27:05.001Z</time></trkpt><trkpt lat="38.035561717472376" lon="15.763218870871546"><ele>950.0000000000001</ele><time>2026-04-25T08:27:06.001Z</time></trkpt><trkpt lat="38.035504883578575" lon="15.763285162308891"><ele>950.0</ele><time>2026-04-25T08:27:07.001Z</time></trkpt><trkpt lat="38.03544703017245" lon="15.763363680464222"><ele>950.0000000000001</ele><time>2026-04-25T08:27:08.001Z</time></trkpt><trkpt lat="38.03539574264058" lon="15.763450150303557"><ele>950.0</ele><time>2026-04-25T08:27:09.001Z</time></trkpt><trkpt lat="38.03535771555517" lon="15.76353838649739"><ele>950.0</ele><time>2026-04-25T08:27:10.001Z</time></trkpt><trkpt lat="38.0353296084764" lon="15.763634354814664"><ele>950.0</ele><time>2026-04-25T08:27:11.001Z</time></trkpt><trkpt lat="38.035330967879766" lon="15.763740031406334"><ele>950.0000000000001</ele><time>2026-04-25T08:27:12.001Z</time></trkpt><trkpt lat="38.03534147989579" lon="15.76385548553993"><ele>950.0</ele><time>2026-04-25T08:27:13.001Z</time></trkpt><trkpt lat="38.03536571424202" lon="15.763967924585954"><ele>950.3333333333334</ele><time>2026-04-25T08:27:14.001Z</time></trkpt><trkpt lat="38.035371610443256" lon="15.764073423620754"><ele>950.6666666666667</ele><time>2026-04-25T08:27:15.001Z</time></trkpt><trkpt lat="38.03535642160671" lon="15.764168738553337"><ele>951.0</ele><time>2026-04-25T08:27:16.001Z</time></trkpt><trkpt lat="38.0353213036839" lon="15.764265680179674"><ele>951.3333333333333</ele><time>2026-04-25T08:27:17.001Z</time></trkpt><trkpt lat="38.03527472620649" lon="15.764371089757724"><ele>951.6666666666666</ele><time>2026-04-25T08:27:18.001Z</time></trkpt><trkpt lat="38.03523341014396" lon="15.764472042495017"><ele>952.0</ele><time>2026-04-25T08:27:19.001Z</time></trkpt><trkpt lat="38.03519213817658" lon="15.76457507258969"><ele>952.3333333333333</ele><time>2026-04-25T08:27:20.001Z</time></trkpt><trkpt lat="38.03520174481202" lon="15.764858355161582"><ele>952.6666666666667</ele><time>2026-04-25T08:27:21.001Z</time></trkpt><trkpt lat="38.035161335730095" lon="15.764999982086005"><ele>953.0</ele><time>2026-04-25T08:27:22.001Z</time></trkpt><trkpt lat="38.035131736747026" lon="15.765151199952221"><ele>954.5</ele><time>2026-04-25T08:27:23.001Z</time></trkpt><trkpt lat="38.035103905858165" lon="15.765287088648307"><ele>956.0</ele><time>2026-04-25T08:27:24.001Z</time></trkpt><trkpt lat="38.03507998201061" lon="15.76542945426389"><ele>957.5</ele><time>2026-04-25T08:27:25.001Z</time></trkpt><trkpt lat="38.035047639799075" lon="15.765586260850657"><ele>959.0</ele><time>2026-04-25T08:27:26.001Z</time></trkpt><trkpt lat="38.035015960480635" lon="15.765733739347358"><ele>959.0</ele><time>2026-04-25T08:27:27.001Z</time></trkpt><trkpt lat="38.03498341583967" lon="15.765876502895171"><ele>959.0</ele><time>2026-04-25T08:27:28.001Z</time></trkpt><trkpt lat="38.03494320371084" lon="15.766018434041962"><ele>959.0</ele><time>2026-04-25T08:27:29.001Z</time></trkpt><trkpt lat="38.03491706129156" lon="15.766168286463262"><ele>959.0</ele><time>2026-04-25T08:27:30.001Z</time></trkpt><trkpt lat="38.0348926011672" lon="15.766321982971746"><ele>958.8000000000001</ele><time>2026-04-25T08:27:31.001Z</time></trkpt><trkpt lat="38.034867159374556" lon="15.766478474591622"><ele>958.6000000000001</ele><time>2026-04-25T08:27:32.001Z</time></trkpt><trkpt lat="38.03483850436301" lon="15.766631302756444"><ele>958.4</ele><time>2026-04-25T08:27:33.001Z</time></trkpt><trkpt lat="38.03481790849681" lon="15.766762165103291"><ele>958.2</ele><time>2026-04-25T08:27:34.001Z</time></trkpt><trkpt lat="38.03479998910644" lon="15.76687411446692"><ele>958.0</ele><time>2026-04-25T08:27:35.001Z</time></trkpt><trkpt lat="38.0347790520641" lon="15.76699189821866"><ele>959.2</ele><time>2026-04-25T08:27:36.001Z</time></trkpt><trkpt lat="38.03476055009501" lon="15.767124689963278"><ele>960.4</ele><time>2026-04-25T08:27:37.001Z</time></trkpt><trkpt lat="38.0347443778718" lon="15.767244164457919"><ele>961.6000000000001</ele><time>2026-04-25T08:27:38.001Z</time></trkpt><trkpt lat="38.03474259818287" lon="15.767366088910727"><ele>962.8000000000001</ele><time>2026-04-25T08:27:39.001Z</time></trkpt><trkpt lat="38.03467605159016" lon="15.76748153988628"><ele>964.0</ele><time>2026-04-25T08:27:40.001Z</time></trkpt><trkpt lat="38.034600851200885" lon="15.76761043886355"><ele>965.75</ele><time>2026-04-25T08:27:41.001Z</time></trkpt><trkpt lat="38.03453237722701" lon="15.767750324678463"><ele>967.5</ele><time>2026-04-25T08:27:42.001Z</time></trkpt><trkpt lat="38.03446291238937" lon="15.76789249554885"><ele>969.25</ele><time>2026-04-25T08:27:43.001Z</time></trkpt><trkpt lat="38.03439476774625" lon="15.768047989886183"><ele>971.0</ele><time>2026-04-25T08:27:44.001Z</time></trkpt><trkpt lat="38.034334360830364" lon="15.76816394081252"><ele>971.0</ele><time>2026-04-25T08:27:45.001Z</time></trkpt><trkpt lat="38.03426444758075" lon="15.768294663122859"><ele>971.0</ele><time>2026-04-25T08:27:46.001Z</time></trkpt><trkpt lat="38.034208996625615" lon="15.768435827116232"><ele>971.0</ele><time>2026-04-25T08:27:47.001Z</time></trkpt><trkpt lat="38.03416612120422" lon="15.768578835889237"><ele>971.0</ele><time>2026-04-25T08:27:48.001Z</time></trkpt><trkpt lat="38.03412560312526" lon="15.76872819206737"><ele>971.1999999999999</ele><time>2026-04-25T08:27:49.001Z</time></trkpt><trkpt lat="38.03409860805554" lon="15.76886972362842"><ele>971.3999999999999</ele><time>2026-04-25T08:27:50.001Z</time></trkpt><trkpt lat="38.03403391430143" lon="15.769019128929791"><ele>971.6</ele><time>2026-04-25T08:27:51.001Z</time></trkpt><trkpt lat="38.03399297420562" lon="15.769145489616925"><ele>971.8</ele><time>2026-04-25T08:27:52.001Z</time></trkpt><trkpt lat="38.03395561221996" lon="15.769243821155422"><ele>972.0</ele><time>2026-04-25T08:27:53.001Z</time></trkpt><trkpt lat="38.03392522530831" lon="15.769342895203264"><ele>973.0</ele><time>2026-04-25T08:27:54.001Z</time></trkpt><trkpt lat="38.033891651697594" lon="15.769427156985545"><ele>974.0</ele><time>2026-04-25T08:27:55.001Z</time></trkpt><trkpt lat="38.0338578994176" lon="15.769520124789281"><ele>975.0</ele><time>2026-04-25T08:27:56.001Z</time></trkpt><trkpt lat="38.03382984014242" lon="15.769615981509311"><ele>976.0</ele><time>2026-04-25T08:27:57.001Z</time></trkpt><trkpt lat="38.03380798189233" lon="15.769707465196698"><ele>977.0</ele><time>2026-04-25T08:27:58.001Z</time></trkpt><trkpt lat="38.03378249297796" lon="15.769786008128587"><ele>978.0</ele><time>2026-04-25T08:27:59.001Z</time></trkpt><trkpt lat="38.03374918355911" lon="15.769919069086049"><ele>978.0</ele><time>2026-04-25T08:28:01.001Z</time></trkpt><trkpt lat="38.033727874192024" lon="15.76999922522118"><ele>978.0</ele><time>2026-04-25T08:28:02.001Z</time></trkpt><trkpt lat="38.03369963996624" lon="15.770085294549286"><ele>978.0</ele><time>2026-04-25T08:28:03.001Z</time></trkpt><trkpt lat="38.03366470839491" lon="15.770187034432288"><ele>978.0</ele><time>2026-04-25T08:28:04.001Z</time></trkpt><trkpt lat="38.03363021304061" lon="15.770303360748029"><ele>978.0</ele><time>2026-04-25T08:28:05.001Z</time></trkpt><trkpt lat="38.03360441770663" lon="15.770420535470288"><ele>978.0</ele><time>2026-04-25T08:28:06.001Z</time></trkpt><trkpt lat="38.033557347167054" lon="15.770540540520285"><ele>978.5</ele><time>2026-04-25T08:28:07.001Z</time></trkpt><trkpt lat="38.03349411828112" lon="15.77066918020116"><ele>979.0</ele><time>2026-04-25T08:28:08.001Z</time></trkpt><trkpt lat="38.033431447004666" lon="15.770799838687743"><ele>979.5</ele><time>2026-04-25T08:28:09.001Z</time></trkpt><trkpt lat="38.0333707181438" lon="15.770927441818513"><ele>980.0</ele><time>2026-04-25T08:28:10.001Z</time></trkpt><trkpt lat="38.03330175586992" lon="15.771063633745358"><ele>985.0</ele><time>2026-04-25T08:28:11.001Z</time></trkpt><trkpt lat="38.03323054539995" lon="15.771204967778417"><ele>990.0</ele><time>2026-04-25T08:28:12.001Z</time></trkpt><trkpt lat="38.033172427433435" lon="15.77134568254433"><ele>995.0</ele><time>2026-04-25T08:28:13.001Z</time></trkpt><trkpt lat="38.03308409589832" lon="15.77164079798112"><ele>995.0</ele><time>2026-04-25T08:28:15.001Z</time></trkpt><trkpt lat="38.033044564217946" lon="15.7717781906549"><ele>995.0</ele><time>2026-04-25T08:28:16.001Z</time></trkpt><trkpt lat="38.033000442344786" lon="15.771915027937103"><ele>995.0</ele><time>2026-04-25T08:28:17.001Z</time></trkpt><trkpt lat="38.03295057691286" lon="15.772051397266157"><ele>995.0</ele><time>2026-04-25T08:28:18.001Z</time></trkpt><trkpt lat="38.03289909374805" lon="15.772192734461013"><ele>995.0</ele><time>2026-04-25T08:28:19.001Z</time></trkpt><trkpt lat="38.03284445812405" lon="15.772336163902013"><ele>995.0</ele><time>2026-04-25T08:28:20.001Z</time></trkpt><trkpt lat="38.032786222461795" lon="15.772473853990801"><ele>995.0</ele><time>2026-04-25T08:28:21.001Z</time></trkpt><trkpt lat="38.03272777560502" lon="15.772609382465285"><ele>995.0</ele><time>2026-04-25T08:28:22.001Z</time></trkpt><trkpt lat="38.03265959935672" lon="15.772747064358189"><ele>994.4</ele><time>2026-04-25T08:28:23.001Z</time></trkpt><trkpt lat="38.032596016534434" lon="15.772865331098679"><ele>993.8</ele><time>2026-04-25T08:28:24.001Z</time></trkpt><trkpt lat="38.03254071901003" lon="15.7729822140864"><ele>993.2</ele><time>2026-04-25T08:28:25.001Z</time></trkpt><trkpt lat="38.03249493455993" lon="15.773098250122814"><ele>992.6</ele><time>2026-04-25T08:28:26.002Z</time></trkpt><trkpt lat="38.032495100437785" lon="15.77325061366531"><ele>992.0</ele><time>2026-04-25T08:28:27.002Z</time></trkpt><trkpt lat="38.0325286004188" lon="15.773382935285888"><ele>992.0</ele><time>2026-04-25T08:28:28.002Z</time></trkpt><trkpt lat="38.032572917490846" lon="15.773506941487152"><ele>992.0</ele><time>2026-04-25T08:28:29.002Z</time></trkpt><trkpt lat="38.03260564383012" lon="15.773635513768893"><ele>992.0</ele><time>2026-04-25T08:28:30.002Z</time></trkpt><trkpt lat="38.03263753387326" lon="15.773777643541008"><ele>992.0</ele><time>2026-04-25T08:28:31.002Z</time></trkpt><trkpt lat="38.03266684975627" lon="15.773926836581"><ele>992.25</ele><time>2026-04-25T08:28:32.002Z</time></trkpt><trkpt lat="38.03268870751167" lon="15.774082769943458"><ele>992.5</ele><time>2026-04-25T08:28:33.002Z</time></trkpt><trkpt lat="38.03270989360268" lon="15.774241390488037"><ele>992.75</ele><time>2026-04-25T08:28:34.002Z</time></trkpt><trkpt lat="38.03273604008477" lon="15.774403080509092"><ele>993.0</ele><time>2026-04-25T08:28:35.002Z</time></trkpt><trkpt lat="38.032761515890904" lon="15.774565214040184"><ele>993.0</ele><time>2026-04-25T08:28:36.002Z</time></trkpt><trkpt lat="38.032780531637314" lon="15.774732885983077"><ele>993.0</ele><time>2026-04-25T08:28:37.002Z</time></trkpt><trkpt lat="38.032799869922144" lon="15.774903825873505"><ele>993.0</ele><time>2026-04-25T08:28:38.002Z</time></trkpt><trkpt lat="38.032817921163044" lon="15.775071243394049"><ele>993.0</ele><time>2026-04-25T08:28:39.002Z</time></trkpt><trkpt lat="38.03283298777332" lon="15.775243404197619"><ele>995.25</ele><time>2026-04-25T08:28:40.002Z</time></trkpt><trkpt lat="38.032849118222266" lon="15.775410300821637"><ele>997.5</ele><time>2026-04-25T08:28:41.002Z</time></trkpt><trkpt lat="38.032862243806385" lon="15.775579051300666"><ele>999.75</ele><time>2026-04-25T08:28:42.002Z</time></trkpt><trkpt lat="38.032875472041155" lon="15.77575823606835"><ele>1002.0</ele><time>2026-04-25T08:28:43.002Z</time></trkpt><trkpt lat="38.032893280998664" lon="15.775928890719966"><ele>1003.75</ele><time>2026-04-25T08:28:44.002Z</time></trkpt><trkpt lat="38.032917442957554" lon="15.776096229778013"><ele>1005.5</ele><time>2026-04-25T08:28:45.002Z</time></trkpt><trkpt lat="38.032946650363826" lon="15.776258600168166"><ele>1007.25</ele><time>2026-04-25T08:28:46.002Z</time></trkpt><trkpt lat="38.0329818844267" lon="15.776414761918582"><ele>1009.0</ele><time>2026-04-25T08:28:47.002Z</time></trkpt><trkpt lat="38.033026588228964" lon="15.776567119127753"><ele>1009.0</ele><time>2026-04-25T08:28:48.002Z</time></trkpt><trkpt lat="38.033064773708304" lon="15.776719934993762"><ele>1009.0</ele><time>2026-04-25T08:28:49.002Z</time></trkpt><trkpt lat="38.03309304428638" lon="15.77686332462626"><ele>1009.0</ele><time>2026-04-25T08:28:50.002Z</time></trkpt><trkpt lat="38.033111167443394" lon="15.77700216680708"><ele>1009.0</ele><time>2026-04-25T08:28:51.002Z</time></trkpt><trkpt lat="38.03311599849848" lon="15.777160551990747"><ele>1009.25</ele><time>2026-04-25T08:28:52.002Z</time></trkpt><trkpt lat="38.03311312347722" lon="15.777302063976833"><ele>1009.5</ele><time>2026-04-25T08:28:53.002Z</time></trkpt><trkpt lat="38.033098677466626" lon="15.777448916669483"><ele>1009.75</ele><time>2026-04-25T08:28:54.002Z</time></trkpt><trkpt lat="38.0330811303374" lon="15.77759907347478"><ele>1010.0</ele><time>2026-04-25T08:28:55.002Z</time></trkpt><trkpt lat="38.033059343856245" lon="15.777758294883016"><ele>1009.5</ele><time>2026-04-25T08:28:56.002Z</time></trkpt><trkpt lat="38.03304195320528" lon="15.777923412507494"><ele>1009.0</ele><time>2026-04-25T08:28:57.002Z</time></trkpt><trkpt lat="38.03302841285914" lon="15.778093910952492"><ele>1008.5</ele><time>2026-04-25T08:28:58.002Z</time></trkpt><trkpt lat="38.03300878512961" lon="15.778252723280712"><ele>1008.0</ele><time>2026-04-25T08:28:59.002Z</time></trkpt><trkpt lat="38.03298226379649" lon="15.778415797288051"><ele>1008.25</ele><time>2026-04-25T08:29:00.002Z</time></trkpt><trkpt lat="38.03295940541176" lon="15.77858041797398"><ele>1008.5</ele><time>2026-04-25T08:29:01.002Z</time></trkpt><trkpt lat="38.03293626046338" lon="15.77874774497456"><ele>1008.75</ele><time>2026-04-25T08:29:02.001Z</time></trkpt><trkpt lat="38.03291232350904" lon="15.778920062523296"><ele>1009.0</ele><time>2026-04-25T08:29:03.001Z</time></trkpt><trkpt lat="38.03289058886938" lon="15.779093404378848"><ele>1009.0</ele><time>2026-04-25T08:29:04.001Z</time></trkpt><trkpt lat="38.03286788361805" lon="15.779259612758853"><ele>1009.0</ele><time>2026-04-25T08:29:05.001Z</time></trkpt><trkpt lat="38.03283943771106" lon="15.779420446502266"><ele>1009.0</ele><time>2026-04-25T08:29:06.001Z</time></trkpt><trkpt lat="38.03281048371968" lon="15.77956714176403"><ele>1009.0</ele><time>2026-04-25T08:29:07.001Z</time></trkpt><trkpt lat="38.03280807387821" lon="15.779697764800678"><ele>1009.8000000000001</ele><time>2026-04-25T08:29:08.001Z</time></trkpt><trkpt lat="38.03281872536865" lon="15.779824431465265"><ele>1010.6000000000001</ele><time>2026-04-25T08:29:09.001Z</time></trkpt><trkpt lat="38.032847229851335" lon="15.779959836905974"><ele>1011.4</ele><time>2026-04-25T08:29:10.001Z</time></trkpt><trkpt lat="38.032885245439" lon="15.78010470988114"><ele>1012.2</ele><time>2026-04-25T08:29:11.001Z</time></trkpt><trkpt lat="38.03291541595946" lon="15.780229526156003"><ele>1013.0</ele><time>2026-04-25T08:29:12.001Z</time></trkpt><trkpt lat="38.03292806742095" lon="15.780350568818616"><ele>1013.2</ele><time>2026-04-25T08:29:13.001Z</time></trkpt><trkpt lat="38.0329196089559" lon="15.780469802669392"><ele>1013.4</ele><time>2026-04-25T08:29:14.001Z</time></trkpt><trkpt lat="38.03290031151368" lon="15.78059402033118"><ele>1013.6000000000001</ele><time>2026-04-25T08:29:15.001Z</time></trkpt><trkpt lat="38.03290386209719" lon="15.78072298795122"><ele>1013.8000000000001</ele><time>2026-04-25T08:29:16.001Z</time></trkpt><trkpt lat="38.03295156383079" lon="15.78084370302226"><ele>1014.0</ele><time>2026-04-25T08:29:17.001Z</time></trkpt><trkpt lat="38.03300123150078" lon="15.780965031534784"><ele>1013.5</ele><time>2026-04-25T08:29:18.001Z</time></trkpt><trkpt lat="38.033034223717436" lon="15.781072604605885"><ele>1013.0</ele><time>2026-04-25T08:29:19.001Z</time></trkpt><trkpt lat="38.03305324724399" lon="15.781186142425721"><ele>1012.5</ele><time>2026-04-25T08:29:20.001Z</time></trkpt><trkpt lat="38.03307846632724" lon="15.78129832938786"><ele>1012.0</ele><time>2026-04-25T08:29:21.001Z</time></trkpt><trkpt lat="38.033100470249714" lon="15.781391391924187"><ele>1011.5</ele><time>2026-04-25T08:29:22.001Z</time></trkpt><trkpt lat="38.03313981479692" lon="15.781477794458997"><ele>1011.0</ele><time>2026-04-25T08:29:23.001Z</time></trkpt><trkpt lat="38.03319097620151" lon="15.781564925151136"><ele>1011.0</ele><time>2026-04-25T08:29:24.001Z</time></trkpt><trkpt lat="38.033259864347286" lon="15.781635603611958"><ele>1010.9999999999999</ele><time>2026-04-25T08:29:25.001Z</time></trkpt><trkpt lat="38.03335041976985" lon="15.781686933604473"><ele>1010.9999999999999</ele><time>2026-04-25T08:29:26.001Z</time></trkpt><trkpt lat="38.033444457826526" lon="15.781736015507178"><ele>1011.0</ele><time>2026-04-25T08:29:27.001Z</time></trkpt><trkpt lat="38.033542925848955" lon="15.781792432153457"><ele>1011.0</ele><time>2026-04-25T08:29:28.001Z</time></trkpt><trkpt lat="38.03363798508159" lon="15.78184448116345"><ele>1003.75</ele><time>2026-04-25T08:29:29.001Z</time></trkpt><trkpt lat="38.03374292981635" lon="15.781897569462219"><ele>996.5</ele><time>2026-04-25T08:29:30.001Z</time></trkpt><trkpt lat="38.0338579141616" lon="15.781953548197464"><ele>989.25</ele><time>2026-04-25T08:29:31.001Z</time></trkpt><trkpt lat="38.03397395390348" lon="15.781997659073394"><ele>982.0</ele><time>2026-04-25T08:29:32.001Z</time></trkpt><trkpt lat="38.03409126665655" lon="15.782053185168024"><ele>984.5</ele><time>2026-04-25T08:29:33.001Z</time></trkpt><trkpt lat="38.03420904921171" lon="15.782115555580887"><ele>987.0</ele><time>2026-04-25T08:29:34.001Z</time></trkpt><trkpt lat="38.034320832733314" lon="15.782179814517193"><ele>989.5</ele><time>2026-04-25T08:29:35.001Z</time></trkpt><trkpt lat="38.034428819990474" lon="15.782253104424344"><ele>992.0</ele><time>2026-04-25T08:29:36.001Z</time></trkpt><trkpt lat="38.03453413966022" lon="15.78234082069869"><ele>992.0</ele><time>2026-04-25T08:29:37.001Z</time></trkpt><trkpt lat="38.03463722559052" lon="15.782433862242321"><ele>992.0</ele><time>2026-04-25T08:29:38.001Z</time></trkpt><trkpt lat="38.03474759875648" lon="15.782524957999533"><ele>992.0</ele><time>2026-04-25T08:29:39.001Z</time></trkpt><trkpt lat="38.034863773425286" lon="15.782618681817356"><ele>992.0</ele><time>2026-04-25T08:29:40.001Z</time></trkpt><trkpt lat="38.03497923436616" lon="15.782702844434963"><ele>988.0</ele><time>2026-04-25T08:29:41.001Z</time></trkpt><trkpt lat="38.03509182918942" lon="15.782800963039692"><ele>984.0</ele><time>2026-04-25T08:29:42.001Z</time></trkpt><trkpt lat="38.03520175770701" lon="15.782908646886037"><ele>980.0</ele><time>2026-04-25T08:29:43.001Z</time></trkpt><trkpt lat="38.03530888122787" lon="15.783018504908021"><ele>976.0</ele><time>2026-04-25T08:29:44.001Z</time></trkpt><trkpt lat="38.03541105296107" lon="15.783134206139817"><ele>976.0</ele><time>2026-04-25T08:29:45.001Z</time></trkpt><trkpt lat="38.035511474877694" lon="15.783242850941273"><ele>976.0</ele><time>2026-04-25T08:29:46.001Z</time></trkpt><trkpt lat="38.03561462279497" lon="15.783350014530816"><ele>976.0</ele><time>2026-04-25T08:29:47.001Z</time></trkpt><trkpt lat="38.03571654283828" lon="15.78345853697161"><ele>976.0</ele><time>2026-04-25T08:29:48.001Z</time></trkpt><trkpt lat="38.03582295451283" lon="15.783569002149987"><ele>977.0</ele><time>2026-04-25T08:29:49.001Z</time></trkpt><trkpt lat="38.03592710495581" lon="15.783680091314041"><ele>978.0</ele><time>2026-04-25T08:29:50.001Z</time></trkpt><trkpt lat="38.03603309355899" lon="15.78378611251106"><ele>979.0</ele><time>2026-04-25T08:29:51.001Z</time></trkpt><trkpt lat="38.03613071083926" lon="15.783893085575343"><ele>980.0</ele><time>2026-04-25T08:29:52.001Z</time></trkpt><trkpt lat="38.03623487889205" lon="15.783988695622254"><ele>980.0</ele><time>2026-04-25T08:29:53.001Z</time></trkpt><trkpt lat="38.03634839641307" lon="15.784070739255291"><ele>980.0</ele><time>2026-04-25T08:29:54.001Z</time></trkpt><trkpt lat="38.036460185391796" lon="15.784148584855998"><ele>980.0</ele><time>2026-04-25T08:29:55.001Z</time></trkpt><trkpt lat="38.036573275442855" lon="15.784209926604108"><ele>980.0</ele><time>2026-04-25T08:29:56.001Z</time></trkpt><trkpt lat="38.03667942060686" lon="15.78425578516879"><ele>981.5000000000001</ele><time>2026-04-25T08:29:57.001Z</time></trkpt><trkpt lat="38.03675642848757" lon="15.784282770953613"><ele>983.0</ele><time>2026-04-25T08:29:58.001Z</time></trkpt><trkpt lat="38.03684890265065" lon="15.784296443616949"><ele>984.5</ele><time>2026-04-25T08:30:00.001Z</time></trkpt><trkpt lat="38.03695297085305" lon="15.78427098701238"><ele>986.0</ele><time>2026-04-25T08:30:03.001Z</time></trkpt><trkpt lat="38.0370181330779" lon="15.784277762932373"><ele>987.5000000000001</ele><time>2026-04-25T08:30:04.001Z</time></trkpt><trkpt lat="38.03709353514887" lon="15.784284736644585"><ele>989.0</ele><time>2026-04-25T08:30:05.001Z</time></trkpt><trkpt lat="38.037181700712075" lon="15.784282520924613"><ele>989.0</ele><time>2026-04-25T08:30:06.001Z</time></trkpt><trkpt lat="38.03726939232861" lon="15.784273454679987"><ele>989.0</ele><time>2026-04-25T08:30:07.001Z</time></trkpt><trkpt lat="38.037380937260274" lon="15.784262858370228"><ele>989.0</ele><time>2026-04-25T08:30:08.001Z</time></trkpt><trkpt lat="38.037518233804384" lon="15.784247069356255"><ele>989.0</ele><time>2026-04-25T08:30:09.001Z</time></trkpt><trkpt lat="38.037659763804555" lon="15.78420953656225"><ele>989.0</ele><time>2026-04-25T08:30:10.001Z</time></trkpt><trkpt lat="38.03781092996378" lon="15.784216796250066"><ele>989.0</ele><time>2026-04-25T08:30:11.001Z</time></trkpt><trkpt lat="38.037932712050576" lon="15.784197439943446"><ele>989.0</ele><time>2026-04-25T08:30:12.001Z</time></trkpt><trkpt lat="38.03802862010149" lon="15.784184073658542"><ele>989.0</ele><time>2026-04-25T08:30:13.001Z</time></trkpt><trkpt lat="38.03818633087155" lon="15.78416469691361"><ele>989.0</ele><time>2026-04-25T08:30:15.001Z</time></trkpt><trkpt lat="38.038300721650465" lon="15.78415113012467"><ele>989.0</ele><time>2026-04-25T08:30:16.001Z</time></trkpt><trkpt lat="38.03841737338269" lon="15.784138338625166"><ele>989.0</ele><time>2026-04-25T08:30:17.001Z</time></trkpt><trkpt lat="38.038538193702145" lon="15.784125490760733"><ele>989.0</ele><time>2026-04-25T08:30:18.001Z</time></trkpt><trkpt lat="38.03865818356979" lon="15.784101929491158"><ele>989.5</ele><time>2026-04-25T08:30:19.001Z</time></trkpt><trkpt lat="38.038778852227274" lon="15.784099284626459"><ele>990.0</ele><time>2026-04-25T08:30:20.001Z</time></trkpt><trkpt lat="38.038901568617966" lon="15.784095652126853"><ele>990.5</ele><time>2026-04-25T08:30:21.001Z</time></trkpt><trkpt lat="38.039021079623446" lon="15.784083531390236"><ele>991.0</ele><time>2026-04-25T08:30:22.001Z</time></trkpt><trkpt lat="38.03913450262637" lon="15.78405185489757"><ele>989.75</ele><time>2026-04-25T08:30:23.001Z</time></trkpt><trkpt lat="38.0392428985943" lon="15.784020744462314"><ele>988.5</ele><time>2026-04-25T08:30:24.001Z</time></trkpt><trkpt lat="38.039355493106875" lon="15.783975670937934"><ele>987.25</ele><time>2026-04-25T08:30:25.001Z</time></trkpt><trkpt lat="38.039474040995565" lon="15.783932959779232"><ele>986.0</ele><time>2026-04-25T08:30:26.001Z</time></trkpt><trkpt lat="38.0395946391165" lon="15.783870754729438"><ele>986.0</ele><time>2026-04-25T08:30:27.001Z</time></trkpt><trkpt lat="38.03971326250507" lon="15.783806887985318"><ele>986.0</ele><time>2026-04-25T08:30:28.001Z</time></trkpt><trkpt lat="38.03982794507254" lon="15.783737097831741"><ele>986.0</ele><time>2026-04-25T08:30:29.001Z</time></trkpt><trkpt lat="38.039936267456476" lon="15.783658644034627"><ele>986.0</ele><time>2026-04-25T08:30:30.001Z</time></trkpt><trkpt lat="38.04004685133973" lon="15.783570125626985"><ele>986.25</ele><time>2026-04-25T08:30:31.001Z</time></trkpt><trkpt lat="38.04015309982934" lon="15.78348183199599"><ele>986.5</ele><time>2026-04-25T08:30:32.001Z</time></trkpt><trkpt lat="38.04026401685838" lon="15.783392012930676"><ele>986.75</ele><time>2026-04-25T08:30:33.001Z</time></trkpt><trkpt lat="38.040377273381885" lon="15.78330287674515"><ele>987.0</ele><time>2026-04-25T08:30:34.001Z</time></trkpt><trkpt lat="38.04049285791248" lon="15.7832099469859"><ele>987.0</ele><time>2026-04-25T08:30:35.001Z</time></trkpt><trkpt lat="38.040610949392004" lon="15.783122388016338"><ele>987.0</ele><time>2026-04-25T08:30:36.001Z</time></trkpt><trkpt lat="38.04072457986856" lon="15.783022913060014"><ele>987.0</ele><time>2026-04-25T08:30:37.001Z</time></trkpt><trkpt lat="38.04083249858112" lon="15.782930148839915"><ele>987.0</ele><time>2026-04-25T08:30:38.001Z</time></trkpt><trkpt lat="38.04094297324614" lon="15.782841642624735"><ele>987.25</ele><time>2026-04-25T08:30:39.001Z</time></trkpt><trkpt lat="38.04104953668722" lon="15.782745253142163"><ele>987.5</ele><time>2026-04-25T08:30:40.001Z</time></trkpt><trkpt lat="38.04115558781514" lon="15.782645702117946"><ele>987.75</ele><time>2026-04-25T08:30:41.001Z</time></trkpt><trkpt lat="38.04126553691296" lon="15.782552229254836"><ele>988.0</ele><time>2026-04-25T08:30:42.001Z</time></trkpt><trkpt lat="38.04137561713635" lon="15.782452852949437"><ele>989.75</ele><time>2026-04-25T08:30:43.001Z</time></trkpt><trkpt lat="38.041497849873615" lon="15.782344239153321"><ele>991.5</ele><time>2026-04-25T08:30:44.002Z</time></trkpt><trkpt lat="38.04157996566251" lon="15.782261074703444"><ele>993.25</ele><time>2026-04-25T08:30:45.002Z</time></trkpt><trkpt lat="38.04167278642121" lon="15.7821610725514"><ele>995.0</ele><time>2026-04-25T08:30:46.002Z</time></trkpt><trkpt lat="38.04176922263424" lon="15.782070621772219"><ele>995.0</ele><time>2026-04-25T08:30:47.002Z</time></trkpt><trkpt lat="38.04187304683724" lon="15.781994315693332"><ele>995.0</ele><time>2026-04-25T08:30:48.002Z</time></trkpt><trkpt lat="38.042001501884265" lon="15.781941818533438"><ele>995.0</ele><time>2026-04-25T08:30:49.002Z</time></trkpt><trkpt lat="38.04212974228381" lon="15.781899206093703"><ele>995.0</ele><time>2026-04-25T08:30:50.002Z</time></trkpt><trkpt lat="38.04225309901169" lon="15.781859410380932"><ele>995.75</ele><time>2026-04-25T08:30:51.002Z</time></trkpt><trkpt lat="38.04237127652974" lon="15.781817210971752"><ele>996.5</ele><time>2026-04-25T08:30:52.002Z</time></trkpt><trkpt lat="38.0424891769056" lon="15.781771841098882"><ele>997.25</ele><time>2026-04-25T08:30:53.002Z</time></trkpt><trkpt lat="38.04260736847758" lon="15.781732865902171"><ele>998.0</ele><time>2026-04-25T08:30:54.002Z</time></trkpt><trkpt lat="38.04271986005499" lon="15.78167895743406"><ele>998.0</ele><time>2026-04-25T08:30:55.002Z</time></trkpt><trkpt lat="38.04282926477514" lon="15.781621727566929"><ele>998.0</ele><time>2026-04-25T08:30:56.002Z</time></trkpt><trkpt lat="38.04294267656409" lon="15.781585185366072"><ele>998.0</ele><time>2026-04-25T08:30:57.002Z</time></trkpt><trkpt lat="38.043040801076415" lon="15.781537320941176"><ele>998.0</ele><time>2026-04-25T08:30:58.002Z</time></trkpt><trkpt lat="38.04312719476369" lon="15.781493404899123"><ele>998.0</ele><time>2026-04-25T08:30:59.002Z</time></trkpt><trkpt lat="38.04321440034798" lon="15.781431330140379"><ele>997.8</ele><time>2026-04-25T08:31:00.002Z</time></trkpt><trkpt lat="38.04331632608337" lon="15.781385254577115"><ele>997.5999999999999</ele><time>2026-04-25T08:31:01.002Z</time></trkpt><trkpt lat="38.04340736526822" lon="15.781317712679217"><ele>997.4000000000001</ele><time>2026-04-25T08:31:02.002Z</time></trkpt><trkpt lat="38.043478820120434" lon="15.781253741106775"><ele>997.2</ele><time>2026-04-25T08:31:03.002Z</time></trkpt><trkpt lat="38.04356520944691" lon="15.781224454037654"><ele>997.0</ele><time>2026-04-25T08:31:04.002Z</time></trkpt><trkpt lat="38.04366862560709" lon="15.781180505619785"><ele>997.0</ele><time>2026-04-25T08:31:05.002Z</time></trkpt><trkpt lat="38.04377195906666" lon="15.781122824693247"><ele>997.0</ele><time>2026-04-25T08:31:06.002Z</time></trkpt><trkpt lat="38.04388904407758" lon="15.781107342051568"><ele>997.0</ele><time>2026-04-25T08:31:07.002Z</time></trkpt><trkpt lat="38.044009766256075" lon="15.781120237098412"><ele>997.0</ele><time>2026-04-25T08:31:08.001Z</time></trkpt><trkpt lat="38.04410817940298" lon="15.781087353158483"><ele>995.2</ele><time>2026-04-25T08:31:09.001Z</time></trkpt><trkpt lat="38.044212672439414" lon="15.78108242649727"><ele>993.4000000000001</ele><time>2026-04-25T08:31:10.001Z</time></trkpt><trkpt lat="38.044324502287104" lon="15.781086919838511"><ele>991.5999999999999</ele><time>2026-04-25T08:31:11.001Z</time></trkpt><trkpt lat="38.044419476743464" lon="15.781098816430307"><ele>989.8</ele><time>2026-04-25T08:31:12.001Z</time></trkpt><trkpt lat="38.04448799719788" lon="15.781133223046982"><ele>988.0</ele><time>2026-04-25T08:31:13.001Z</time></trkpt><trkpt lat="38.04453535491248" lon="15.78120573526058"><ele>988.0</ele><time>2026-04-25T08:31:14.001Z</time></trkpt><trkpt lat="38.04454782850797" lon="15.781293146628409"><ele>988.0</ele><time>2026-04-25T08:31:15.001Z</time></trkpt><trkpt lat="38.04451530958357" lon="15.781404018788093"><ele>988.0</ele><time>2026-04-25T08:31:16.001Z</time></trkpt><trkpt lat="38.04444373475274" lon="15.781489866928945"><ele>988.0</ele><time>2026-04-25T08:31:17.001Z</time></trkpt><trkpt lat="38.04437065391139" lon="15.7816003288228"><ele>988.0</ele><time>2026-04-25T08:31:18.001Z</time></trkpt><trkpt lat="38.044284119709616" lon="15.781699467072164"><ele>988.0</ele><time>2026-04-25T08:31:19.001Z</time></trkpt><trkpt lat="38.044214908095306" lon="15.781796066400046"><ele>988.0</ele><time>2026-04-25T08:31:20Z</time></trkpt><trkpt lat="38.04417094505973" lon="15.78187648744936"><ele>988.0</ele><time>2026-04-25T08:31:21Z</time></trkpt><trkpt lat="38.044214477527184" lon="15.782027048067832"><ele>988.0</ele><time>2026-04-25T08:31:23Z</time></trkpt><trkpt lat="38.04428830323581" lon="15.782072615122402"><ele>988.0</ele><time>2026-04-25T08:31:24Z</time></trkpt><trkpt lat="38.04438815062581" lon="15.7820846432206"><ele>985.8</ele><time>2026-04-25T08:31:25Z</time></trkpt><trkpt lat="38.04448646220726" lon="15.782082796409604"><ele>983.5999999999999</ele><time>2026-04-25T08:31:26Z</time></trkpt><trkpt lat="38.044590661942124" lon="15.782096671746192"><ele>981.4000000000001</ele><time>2026-04-25T08:31:27Z</time></trkpt><trkpt lat="38.04469784841117" lon="15.782096671747706"><ele>979.2</ele><time>2026-04-25T08:31:28Z</time></trkpt><trkpt lat="38.04480807670356" lon="15.78209493512569"><ele>977.0</ele><time>2026-04-25T08:31:29Z</time></trkpt><trkpt lat="38.04491824335814" lon="15.782083701052576"><ele>977.6</ele><time>2026-04-25T08:31:30Z</time></trkpt><trkpt lat="38.04502280262955" lon="15.782050874676507"><ele>978.2</ele><time>2026-04-25T08:31:31Z</time></trkpt><trkpt lat="38.04511219418703" lon="15.78197404390801"><ele>978.8</ele><time>2026-04-25T08:31:32Z</time></trkpt><trkpt lat="38.0451953054882" lon="15.781901629661578"><ele>979.4</ele><time>2026-04-25T08:31:33Z</time></trkpt><trkpt lat="38.04527633378354" lon="15.781810218892174"><ele>980.0</ele><time>2026-04-25T08:31:34Z</time></trkpt><trkpt lat="38.04535229443451" lon="15.78171968071091"><ele>980.25</ele><time>2026-04-25T08:31:35Z</time></trkpt><trkpt lat="38.045450819071156" lon="15.781652555478356"><ele>980.5</ele><time>2026-04-25T08:31:36Z</time></trkpt><trkpt lat="38.045539386901744" lon="15.781573988711916"><ele>980.75</ele><time>2026-04-25T08:31:37Z</time></trkpt><trkpt lat="38.04564884975592" lon="15.781532665022729"><ele>981.0</ele><time>2026-04-25T08:31:38Z</time></trkpt><trkpt lat="38.04576855870239" lon="15.78149859537567"><ele>979.75</ele><time>2026-04-25T08:31:39Z</time></trkpt><trkpt lat="38.04588880030054" lon="15.781475923301405"><ele>978.5</ele><time>2026-04-25T08:31:40Z</time></trkpt><trkpt lat="38.046008507137735" lon="15.781447431645882"><ele>977.25</ele><time>2026-04-25T08:31:41Z</time></trkpt><trkpt lat="38.046125709701144" lon="15.781429459344887"><ele>976.0</ele><time>2026-04-25T08:31:42Z</time></trkpt><trkpt lat="38.04624317446729" lon="15.781446824815209"><ele>976.0</ele><time>2026-04-25T08:31:43Z</time></trkpt><trkpt lat="38.04635842095094" lon="15.78145531070508"><ele>976.0</ele><time>2026-04-25T08:31:44Z</time></trkpt><trkpt lat="38.046475175011615" lon="15.781471464424065"><ele>976.0</ele><time>2026-04-25T08:31:45Z</time></trkpt><trkpt lat="38.04659927926809" lon="15.781471707130974"><ele>976.0</ele><time>2026-04-25T08:31:46Z</time></trkpt><trkpt lat="38.04673001326417" lon="15.781475719690938"><ele>975.25</ele><time>2026-04-25T08:31:47Z</time></trkpt><trkpt lat="38.04685110488254" lon="15.781481245325697"><ele>974.5</ele><time>2026-04-25T08:31:48Z</time></trkpt><trkpt lat="38.04696910742224" lon="15.78149032920514"><ele>973.75</ele><time>2026-04-25T08:31:49Z</time></trkpt><trkpt lat="38.04708187454721" lon="15.781464839131814"><ele>973.0</ele><time>2026-04-25T08:31:50Z</time></trkpt><trkpt lat="38.04717825404872" lon="15.781413846223833"><ele>973.0</ele><time>2026-04-25T08:31:51.001Z</time></trkpt><trkpt lat="38.0472493669949" lon="15.781354309314416"><ele>973.0</ele><time>2026-04-25T08:31:52.001Z</time></trkpt><trkpt lat="38.04732364422349" lon="15.781312561199938"><ele>973.0</ele><time>2026-04-25T08:31:53.001Z</time></trkpt><trkpt lat="38.047357665300076" lon="15.781161492532522"><ele>973.0</ele><time>2026-04-25T08:31:54.001Z</time></trkpt><trkpt lat="38.047391272152716" lon="15.781036363573781"><ele>973.0</ele><time>2026-04-25T08:31:55.001Z</time></trkpt><trkpt lat="38.04744030955955" lon="15.780938655474294"><ele>973.8333333333333</ele><time>2026-04-25T08:31:56.001Z</time></trkpt><trkpt lat="38.04746466200395" lon="15.780862015685196"><ele>974.6666666666666</ele><time>2026-04-25T08:31:57.001Z</time></trkpt><trkpt lat="38.04754019400709" lon="15.780759606491792"><ele>975.5</ele><time>2026-04-25T08:31:59.001Z</time></trkpt><trkpt lat="38.047604716216426" lon="15.780756497429524"><ele>976.3333333333333</ele><time>2026-04-25T08:32:00.001Z</time></trkpt><trkpt lat="38.047674545920145" lon="15.780778979357974"><ele>977.1666666666666</ele><time>2026-04-25T08:32:01.001Z</time></trkpt><trkpt lat="38.04774421463271" lon="15.780839958126863"><ele>978.0</ele><time>2026-04-25T08:32:02.001Z</time></trkpt><trkpt lat="38.04776887133549" lon="15.780927003952671"><ele>978.3333333333334</ele><time>2026-04-25T08:32:03.001Z</time></trkpt><trkpt lat="38.0477573377535" lon="15.781097620136178"><ele>978.6666666666667</ele><time>2026-04-25T08:32:05.001Z</time></trkpt><trkpt lat="38.04775337525617" lon="15.781190741937928"><ele>979.0</ele><time>2026-04-25T08:32:06.001Z</time></trkpt><trkpt lat="38.047747362824154" lon="15.781285133430712"><ele>979.3333333333334</ele><time>2026-04-25T08:32:07.001Z</time></trkpt><trkpt lat="38.04773218321219" lon="15.781374465267158"><ele>979.6666666666667</ele><time>2026-04-25T08:32:08.001Z</time></trkpt><trkpt lat="38.04770782275032" lon="15.781473332916052"><ele>980.0</ele><time>2026-04-25T08:32:09.001Z</time></trkpt><trkpt lat="38.04769303987694" lon="15.781564900214699"><ele>980.0000000000001</ele><time>2026-04-25T08:32:10.001Z</time></trkpt><trkpt lat="38.04769321340296" lon="15.78166306624062"><ele>980.0</ele><time>2026-04-25T08:32:11.001Z</time></trkpt><trkpt lat="38.0477199405673" lon="15.781755604976045"><ele>980.0</ele><time>2026-04-25T08:32:12.001Z</time></trkpt><trkpt lat="38.047762195458944" lon="15.781847613543876"><ele>980.0</ele><time>2026-04-25T08:32:13.001Z</time></trkpt><trkpt lat="38.04779720259237" lon="15.781932621346808"><ele>980.0000000000001</ele><time>2026-04-25T08:32:14.001Z</time></trkpt><trkpt lat="38.047837007149035" lon="15.782022891988326"><ele>980.0</ele><time>2026-04-25T08:32:15.001Z</time></trkpt><trkpt lat="38.04787776411623" lon="15.782120761174182"><ele>980.3333333333334</ele><time>2026-04-25T08:32:16.001Z</time></trkpt><trkpt lat="38.047926675988464" lon="15.782226050987376"><ele>980.6666666666667</ele><time>2026-04-25T08:32:17.001Z</time></trkpt><trkpt lat="38.04798215271039" lon="15.782320451410921"><ele>981.0</ele><time>2026-04-25T08:32:18.001Z</time></trkpt><trkpt lat="38.04805408037311" lon="15.782395165399354"><ele>981.3333333333333</ele><time>2026-04-25T08:32:19.001Z</time></trkpt><trkpt lat="38.048111403117154" lon="15.782456046751014"><ele>981.6666666666666</ele><time>2026-04-25T08:32:20.001Z</time></trkpt><trkpt lat="38.04815911161096" lon="15.782508404126965"><ele>982.0</ele><time>2026-04-25T08:32:21.001Z</time></trkpt><trkpt lat="38.04821538486521" lon="15.782580739717952"><ele>984.0</ele><time>2026-04-25T08:32:28.001Z</time></trkpt><trkpt lat="38.04829457272253" lon="15.782710328584168"><ele>986.0</ele><time>2026-04-25T08:32:30.001Z</time></trkpt><trkpt lat="38.048343720802045" lon="15.78280643549715"><ele>988.0</ele><time>2026-04-25T08:32:41.001Z</time></trkpt><trkpt lat="38.048393791675856" lon="15.782881357698999"><ele>990.0</ele><time>2026-04-25T08:32:42.001Z</time></trkpt><trkpt lat="38.048463630493124" lon="15.782959815810052"><ele>992.0</ele><time>2026-04-25T08:32:43.001Z</time></trkpt><trkpt lat="38.048531592597215" lon="15.783044008299841"><ele>992.0</ele><time>2026-04-25T08:32:44.001Z</time></trkpt><trkpt lat="38.04860216241679" lon="15.783124837136887"><ele>992.0</ele><time>2026-04-25T08:32:45.001Z</time></trkpt><trkpt lat="38.048687883861184" lon="15.783210795896279"><ele>992.0</ele><time>2026-04-25T08:32:46.001Z</time></trkpt><trkpt lat="38.048776065992406" lon="15.783317125910273"><ele>992.0</ele><time>2026-04-25T08:32:47.001Z</time></trkpt><trkpt lat="38.04885429428667" lon="15.78342710529651"><ele>992.0</ele><time>2026-04-25T08:32:48.001Z</time></trkpt><trkpt lat="38.04892558814" lon="15.783548371680022"><ele>992.6</ele><time>2026-04-25T08:32:49.001Z</time></trkpt><trkpt lat="38.04899279622293" lon="15.783668211238085"><ele>993.2</ele><time>2026-04-25T08:32:50.001Z</time></trkpt><trkpt lat="38.049054410578535" lon="15.783786179361421"><ele>993.8</ele><time>2026-04-25T08:32:51.001Z</time></trkpt><trkpt lat="38.049126555842186" lon="15.783911588032257"><ele>994.4</ele><time>2026-04-25T08:32:52.001Z</time></trkpt><trkpt lat="38.04919774830907" lon="15.783998376439538"><ele>995.0</ele><time>2026-04-25T08:32:53.001Z</time></trkpt><trkpt lat="38.04928681151875" lon="15.784062023345657"><ele>996.25</ele><time>2026-04-25T08:32:54.001Z</time></trkpt><trkpt lat="38.04940205231004" lon="15.784109438451061"><ele>997.5</ele><time>2026-04-25T08:32:55.001Z</time></trkpt><trkpt lat="38.049532590617" lon="15.784141406060657"><ele>998.75</ele><time>2026-04-25T08:32:56.001Z</time></trkpt><trkpt lat="38.049669883182766" lon="15.784157098127972"><ele>1000.0</ele><time>2026-04-25T08:32:57.001Z</time></trkpt><trkpt lat="38.049802485121866" lon="15.784180995799808"><ele>1000.0</ele><time>2026-04-25T08:32:58.001Z</time></trkpt><trkpt lat="38.04993809123389" lon="15.784196470165082"><ele>1000.0</ele><time>2026-04-25T08:32:59.001Z</time></trkpt><trkpt lat="38.05006607857211" lon="15.784206014853687"><ele>1000.0</ele><time>2026-04-25T08:33:00.001Z</time></trkpt><trkpt lat="38.050200377050004" lon="15.784217909548536"><ele>1000.0</ele><time>2026-04-25T08:33:01.001Z</time></trkpt><trkpt lat="38.05033747267476" lon="15.78423254450931"><ele>1002.0</ele><time>2026-04-25T08:33:02.001Z</time></trkpt><trkpt lat="38.05047961170806" lon="15.784260749484089"><ele>1004.0</ele><time>2026-04-25T08:33:03.001Z</time></trkpt><trkpt lat="38.050625411040684" lon="15.784295695300921"><ele>1006.0</ele><time>2026-04-25T08:33:04.001Z</time></trkpt><trkpt lat="38.0507769199457" lon="15.784352175885203"><ele>1008.0</ele><time>2026-04-25T08:33:05.001Z</time></trkpt><trkpt lat="38.050932288857624" lon="15.784393721237755"><ele>1010.0</ele><time>2026-04-25T08:33:06.001Z</time></trkpt><trkpt lat="38.05109006851455" lon="15.784400741663948"><ele>1012.0</ele><time>2026-04-25T08:33:07.001Z</time></trkpt><trkpt lat="38.051251228229134" lon="15.78440223707451"><ele>1012.0</ele><time>2026-04-25T08:33:08.001Z</time></trkpt><trkpt lat="38.05141547487524" lon="15.784398684533015"><ele>1012.0</ele><time>2026-04-25T08:33:09.001Z</time></trkpt><trkpt lat="38.05157390575819" lon="15.78439131528391"><ele>1012.0</ele><time>2026-04-25T08:33:10.001Z</time></trkpt><trkpt lat="38.05172936586895" lon="15.784383159756967"><ele>1014.3333333333333</ele><time>2026-04-25T08:33:11.001Z</time></trkpt><trkpt lat="38.05188490971448" lon="15.784383001188504"><ele>1016.6666666666667</ele><time>2026-04-25T08:33:12.001Z</time></trkpt><trkpt lat="38.05204175886734" lon="15.784379320023211"><ele>1019.0</ele><time>2026-04-25T08:33:13.001Z</time></trkpt><trkpt lat="38.05220043630523" lon="15.78440798013331"><ele>1019.0</ele><time>2026-04-25T08:33:13.999Z</time></trkpt><trkpt lat="38.052363073669504" lon="15.78444261811258"><ele>1019.0</ele><time>2026-04-25T08:33:14.999Z</time></trkpt><trkpt lat="38.05253191787331" lon="15.784482049942419"><ele>1019.0</ele><time>2026-04-25T08:33:15.999Z</time></trkpt><trkpt lat="38.052697463130066" lon="15.784517282064355"><ele>1021.6666666666667</ele><time>2026-04-25T08:33:16.999Z</time></trkpt><trkpt lat="38.05285698862547" lon="15.78454558032476"><ele>1024.3333333333333</ele><time>2026-04-25T08:33:17.999Z</time></trkpt><trkpt lat="38.05301301928138" lon="15.784560169301264"><ele>1027.0</ele><time>2026-04-25T08:33:18.999Z</time></trkpt><trkpt lat="38.05316784120135" lon="15.784550058007486"><ele>1029.5</ele><time>2026-04-25T08:33:19.999Z</time></trkpt><trkpt lat="38.05330442740259" lon="15.784525845313965"><ele>1032.0</ele><time>2026-04-25T08:33:20.999Z</time></trkpt><trkpt lat="38.05342121742508" lon="15.784490244721255"><ele>1034.5</ele><time>2026-04-25T08:33:21.999Z</time></trkpt><trkpt lat="38.05354277999386" lon="15.784471466912432"><ele>1037.0</ele><time>2026-04-25T08:33:22.999Z</time></trkpt><trkpt lat="38.05364985379746" lon="15.7844836791879"><ele>1037.0</ele><time>2026-04-25T08:33:23.999Z</time></trkpt><trkpt lat="38.05375551000241" lon="15.784521360995463"><ele>1037.0</ele><time>2026-04-25T08:33:24.999Z</time></trkpt><trkpt lat="38.05386473448643" lon="15.78458190269765"><ele>1037.0</ele><time>2026-04-25T08:33:25.999Z</time></trkpt><trkpt lat="38.053982441826534" lon="15.784670131982477"><ele>1037.0</ele><time>2026-04-25T08:33:26.999Z</time></trkpt><trkpt lat="38.054106020850156" lon="15.784746640942004"><ele>1038.5</ele><time>2026-04-25T08:33:27.999Z</time></trkpt><trkpt lat="38.054242372533594" lon="15.784801161122056"><ele>1040.0</ele><time>2026-04-25T08:33:28.999Z</time></trkpt><trkpt lat="38.0543853910709" lon="15.784843996381532"><ele>1041.5</ele><time>2026-04-25T08:33:29.999Z</time></trkpt><trkpt lat="38.05453362961981" lon="15.784895164593781"><ele>1043.0</ele><time>2026-04-25T08:33:30.999Z</time></trkpt><trkpt lat="38.05468251762461" lon="15.784931762880053"><ele>1043.0</ele><time>2026-04-25T08:33:31.999Z</time></trkpt><trkpt lat="38.05483400583272" lon="15.784971263942879"><ele>1043.0</ele><time>2026-04-25T08:33:33Z</time></trkpt><trkpt lat="38.054974601753905" lon="15.785011926267082"><ele>1043.0</ele><time>2026-04-25T08:33:34Z</time></trkpt><trkpt lat="38.05511530001462" lon="15.785047031876166"><ele>1043.0</ele><time>2026-04-25T08:33:35Z</time></trkpt><trkpt lat="38.055265153749446" lon="15.785079487244227"><ele>1042.6666666666667</ele><time>2026-04-25T08:33:36Z</time></trkpt><trkpt lat="38.05542334116025" lon="15.785104543664232"><ele>1042.3333333333333</ele><time>2026-04-25T08:33:37Z</time></trkpt><trkpt lat="38.05558325863342" lon="15.78513482324091"><ele>1042.0</ele><time>2026-04-25T08:33:38Z</time></trkpt><trkpt lat="38.055741027449194" lon="15.78516838894058"><ele>1036.5</ele><time>2026-04-25T08:33:39Z</time></trkpt><trkpt lat="38.05588913283253" lon="15.785198679788353"><ele>1031.0</ele><time>2026-04-25T08:33:40Z</time></trkpt><trkpt lat="38.05602413079729" lon="15.785219857566386"><ele>1025.5</ele><time>2026-04-25T08:33:41Z</time></trkpt><trkpt lat="38.056153560095225" lon="15.785223296026833"><ele>1020.0</ele><time>2026-04-25T08:33:42Z</time></trkpt><trkpt lat="38.056287029088566" lon="15.78520917024541"><ele>1020.0</ele><time>2026-04-25T08:33:43Z</time></trkpt><trkpt lat="38.05641872500853" lon="15.78519470546252"><ele>1020.0</ele><time>2026-04-25T08:33:44Z</time></trkpt><trkpt lat="38.056547224053645" lon="15.785182259801916"><ele>1020.0</ele><time>2026-04-25T08:33:45Z</time></trkpt><trkpt lat="38.056676139392444" lon="15.785184605391356"><ele>1020.0</ele><time>2026-04-25T08:33:46Z</time></trkpt><trkpt lat="38.056812671338" lon="15.785212960266794"><ele>1019.3333333333333</ele><time>2026-04-25T08:33:47Z</time></trkpt><trkpt lat="38.056955090967534" lon="15.785266975636635"><ele>1018.6666666666666</ele><time>2026-04-25T08:33:48Z</time></trkpt><trkpt lat="38.057117965594195" lon="15.785311292692567"><ele>1018.0</ele><time>2026-04-25T08:33:49Z</time></trkpt><trkpt lat="38.057286586387356" lon="15.785324616378835"><ele>1020.6666666666666</ele><time>2026-04-25T08:33:50Z</time></trkpt><trkpt lat="38.057453675851036" lon="15.785329635898561"><ele>1023.3333333333333</ele><time>2026-04-25T08:33:51Z</time></trkpt><trkpt lat="38.057622721462515" lon="15.785327598956698"><ele>1026.0</ele><time>2026-04-25T08:33:52Z</time></trkpt><trkpt lat="38.057790909001085" lon="15.785320932045996"><ele>1026.0</ele><time>2026-04-25T08:33:53Z</time></trkpt><trkpt lat="38.05795311359213" lon="15.78531509286713"><ele>1026.0</ele><time>2026-04-25T08:33:54Z</time></trkpt><trkpt lat="38.05811190592715" lon="15.785327016532268"><ele>1026.0</ele><time>2026-04-25T08:33:55Z</time></trkpt><trkpt lat="38.05828005198328" lon="15.785358129433968"><ele>1028.0</ele><time>2026-04-25T08:33:56Z</time></trkpt><trkpt lat="38.0584538923448" lon="15.785398730676683"><ele>1030.0</ele><time>2026-04-25T08:33:57Z</time></trkpt><trkpt lat="38.058627021026446" lon="15.78543840413232"><ele>1032.0</ele><time>2026-04-25T08:33:58Z</time></trkpt><trkpt lat="38.058795407505805" lon="15.785472579735897"><ele>1032.0</ele><time>2026-04-25T08:33:59Z</time></trkpt><trkpt lat="38.058964161496235" lon="15.785506436607019"><ele>1032.0</ele><time>2026-04-25T08:34:00Z</time></trkpt><trkpt lat="38.05913282346804" lon="15.785514633042531"><ele>1032.0</ele><time>2026-04-25T08:34:01Z</time></trkpt><trkpt lat="38.05930640870611" lon="15.785472847872159"><ele>1035.3333333333333</ele><time>2026-04-25T08:34:02Z</time></trkpt><trkpt lat="38.059492132849925" lon="15.785436860823657"><ele>1038.6666666666665</ele><time>2026-04-25T08:34:03Z</time></trkpt><trkpt lat="38.05966900716514" lon="15.785396865359376"><ele>1042.0</ele><time>2026-04-25T08:34:04Z</time></trkpt><trkpt lat="38.05982133317316" lon="15.785360497911476"><ele>1042.0</ele><time>2026-04-25T08:34:05Z</time></trkpt><trkpt lat="38.05994517002318" lon="15.785303054853488"><ele>1042.0</ele><time>2026-04-25T08:34:06Z</time></trkpt><trkpt lat="38.060054783624146" lon="15.785297320987162"><ele>1042.0</ele><time>2026-04-25T08:34:07Z</time></trkpt><trkpt lat="38.060150882666186" lon="15.785330896682636"><ele>1042.0</ele><time>2026-04-25T08:34:08Z</time></trkpt><trkpt lat="38.06022558969844" lon="15.785367262874495"><ele>1042.0</ele><time>2026-04-25T08:34:09Z</time></trkpt><trkpt lat="38.06028466050181" lon="15.785434959429207"><ele>1043.8</ele><time>2026-04-25T08:34:10Z</time></trkpt><trkpt lat="38.06035843032554" lon="15.78551193610081"><ele>1045.6</ele><time>2026-04-25T08:34:11Z</time></trkpt><trkpt lat="38.06042287624367" lon="15.785602330319001"><ele>1047.3999999999999</ele><time>2026-04-25T08:34:12Z</time></trkpt><trkpt lat="38.0605303688339" lon="15.785691087736623"><ele>1049.2</ele><time>2026-04-25T08:34:13Z</time></trkpt><trkpt lat="38.060625178032275" lon="15.785783061008372"><ele>1051.0</ele><time>2026-04-25T08:34:14Z</time></trkpt><trkpt lat="38.06071546931705" lon="15.785875668171382"><ele>1052.25</ele><time>2026-04-25T08:34:15Z</time></trkpt><trkpt lat="38.060797189841544" lon="15.785979435738241"><ele>1053.5</ele><time>2026-04-25T08:34:16Z</time></trkpt><trkpt lat="38.06085235785767" lon="15.78611554562562"><ele>1054.75</ele><time>2026-04-25T08:34:17Z</time></trkpt><trkpt lat="38.060930101582066" lon="15.786252492004497"><ele>1056.0</ele><time>2026-04-25T08:34:18Z</time></trkpt><trkpt lat="38.060989470481665" lon="15.786376852210044"><ele>1056.0</ele><time>2026-04-25T08:34:19Z</time></trkpt><trkpt lat="38.061032832490035" lon="15.786514233167283"><ele>1056.0</ele><time>2026-04-25T08:34:20Z</time></trkpt><trkpt lat="38.06107255874477" lon="15.786666283551323"><ele>1056.0</ele><time>2026-04-25T08:34:21Z</time></trkpt><trkpt lat="38.06109650800881" lon="15.786819671865102"><ele>1056.0</ele><time>2026-04-25T08:34:22Z</time></trkpt><trkpt lat="38.06110404790001" lon="15.786970878793932"><ele>1054.25</ele><time>2026-04-25T08:34:23Z</time></trkpt><trkpt lat="38.06111515429848" lon="15.78714775099637"><ele>1052.5</ele><time>2026-04-25T08:34:24Z</time></trkpt><trkpt lat="38.06110404733426" lon="15.787314526107439"><ele>1050.75</ele><time>2026-04-25T08:34:25Z</time></trkpt><trkpt lat="38.0610991660633" lon="15.787474724884897"><ele>1049.0</ele><time>2026-04-25T08:34:26Z</time></trkpt><trkpt lat="38.06109332945167" lon="15.787560166458933"><ele>1049.0</ele><time>2026-04-25T08:34:27Z</time></trkpt><trkpt lat="38.06108599567638" lon="15.787669498484762"><ele>1049.0</ele><time>2026-04-25T08:34:28Z</time></trkpt><trkpt lat="38.06107511895736" lon="15.78775333871747"><ele>1049.0</ele><time>2026-04-25T08:34:29Z</time></trkpt><trkpt lat="38.06108717936502" lon="15.78787725989364"><ele>1049.0</ele><time>2026-04-25T08:34:30Z</time></trkpt><trkpt lat="38.06109656463228" lon="15.78805221059369"><ele>1049.0</ele><time>2026-04-25T08:34:31Z</time></trkpt><trkpt lat="38.061101952348054" lon="15.78823842294198"><ele>1052.6666666666667</ele><time>2026-04-25T08:34:32Z</time></trkpt><trkpt lat="38.06110210781757" lon="15.788477789504464"><ele>1056.3333333333333</ele><time>2026-04-25T08:34:33Z</time></trkpt><trkpt lat="38.0611107091215" lon="15.788700946911378"><ele>1060.0</ele><time>2026-04-25T08:34:34Z</time></trkpt><trkpt lat="38.06110593092128" lon="15.788855599373356"><ele>1063.0</ele><time>2026-04-25T08:34:35Z</time></trkpt><trkpt lat="38.061115640607916" lon="15.788962733817012"><ele>1066.0</ele><time>2026-04-25T08:34:36Z</time></trkpt><trkpt lat="38.06106880580782" lon="15.789115185939695"><ele>1069.0</ele><time>2026-04-25T08:34:38Z</time></trkpt><trkpt lat="38.060986970308974" lon="15.789142832153404"><ele>1072.0</ele><time>2026-04-25T08:34:39Z</time></trkpt><trkpt lat="38.0608926322036" lon="15.789123484390771"><ele>1075.0</ele><time>2026-04-25T08:34:40Z</time></trkpt><trkpt lat="38.06080981854769" lon="15.789074268321698"><ele>1074.0</ele><time>2026-04-25T08:34:41Z</time></trkpt><trkpt lat="38.06077879222101" lon="15.78893058878419"><ele>1073.0</ele><time>2026-04-25T08:34:42.001Z</time></trkpt><trkpt lat="38.06069064554744" lon="15.788854046859596"><ele>1072.0</ele><time>2026-04-25T08:34:43.001Z</time></trkpt><trkpt lat="38.06061147804609" lon="15.788832565540941"><ele>1071.0</ele><time>2026-04-25T08:34:44.001Z</time></trkpt><trkpt lat="38.060506897751466" lon="15.788830375931903"><ele>1070.0</ele><time>2026-04-25T08:34:45.001Z</time></trkpt><trkpt lat="38.06040821755861" lon="15.788890554617526"><ele>1070.0</ele><time>2026-04-25T08:34:46.001Z</time></trkpt><trkpt lat="38.06031184528005" lon="15.78897003693742"><ele>1070.0</ele><time>2026-04-25T08:34:47.001Z</time></trkpt><trkpt lat="38.06021667354293" lon="15.789069934604141"><ele>1070.0</ele><time>2026-04-25T08:34:48.001Z</time></trkpt><trkpt lat="38.06012516219743" lon="15.789192160701134"><ele>1070.0</ele><time>2026-04-25T08:34:49.001Z</time></trkpt><trkpt lat="38.06005304041574" lon="15.789333564731958"><ele>1065.6666666666667</ele><time>2026-04-25T08:34:50.001Z</time></trkpt><trkpt lat="38.05998132559985" lon="15.78949618700352"><ele>1061.3333333333333</ele><time>2026-04-25T08:34:51.001Z</time></trkpt><trkpt lat="38.059916218897186" lon="15.789672101978248"><ele>1057.0</ele><time>2026-04-25T08:34:52.001Z</time></trkpt><trkpt lat="38.059814880882094" lon="15.789844995117452"><ele>1057.0</ele><time>2026-04-25T08:34:53.001Z</time></trkpt><trkpt lat="38.05972993126655" lon="15.790048062896041"><ele>1057.0</ele><time>2026-04-25T08:34:54.001Z</time></trkpt><trkpt lat="38.059625539114116" lon="15.790234787068567"><ele>1057.0</ele><time>2026-04-25T08:34:55.001Z</time></trkpt><trkpt lat="38.05952581488591" lon="15.790423064850035"><ele>1064.0</ele><time>2026-04-25T08:34:56.001Z</time></trkpt><trkpt lat="38.05941899151882" lon="15.790629862976646"><ele>1071.0</ele><time>2026-04-25T08:34:57.001Z</time></trkpt><trkpt lat="38.05931927059515" lon="15.79083915419776"><ele>1078.0</ele><time>2026-04-25T08:34:58.001Z</time></trkpt><trkpt lat="38.05921975428875" lon="15.791048135004566"><ele>1081.3333333333333</ele><time>2026-04-25T08:34:59.001Z</time></trkpt><trkpt lat="38.05912752229995" lon="15.791258156496617"><ele>1084.6666666666667</ele><time>2026-04-25T08:35:00.001Z</time></trkpt><trkpt lat="38.059039703209336" lon="15.791458214583656"><ele>1088.0</ele><time>2026-04-25T08:35:01.001Z</time></trkpt><trkpt lat="38.05896334658143" lon="15.791634049400596"><ele>1083.25</ele><time>2026-04-25T08:35:02.001Z</time></trkpt><trkpt lat="38.05888776389339" lon="15.791797926665062"><ele>1078.5</ele><time>2026-04-25T08:35:03.001Z</time></trkpt><trkpt lat="38.05882235927862" lon="15.791943413532973"><ele>1073.75</ele><time>2026-04-25T08:35:04.001Z</time></trkpt><trkpt lat="38.05876003786792" lon="15.792080030595187"><ele>1069.0</ele><time>2026-04-25T08:35:05.001Z</time></trkpt><trkpt lat="38.05871716475339" lon="15.792201145683388"><ele>1069.0</ele><time>2026-04-25T08:35:06.001Z</time></trkpt><trkpt lat="38.05869964456317" lon="15.792331099213532"><ele>1069.0</ele><time>2026-04-25T08:35:07.001Z</time></trkpt><trkpt lat="38.058729326388416" lon="15.792467499672506"><ele>1069.0</ele><time>2026-04-25T08:35:08.001Z</time></trkpt><trkpt lat="38.058782849701224" lon="15.792600455743386"><ele>1069.0</ele><time>2026-04-25T08:35:09.001Z</time></trkpt><trkpt lat="38.05883739131105" lon="15.792743202142177"><ele>1064.5</ele><time>2026-04-25T08:35:10.001Z</time></trkpt><trkpt lat="38.0588979827219" lon="15.792898503874225"><ele>1060.0</ele><time>2026-04-25T08:35:11.001Z</time></trkpt><trkpt lat="38.058966318429974" lon="15.793069861588966"><ele>1055.5</ele><time>2026-04-25T08:35:12.001Z</time></trkpt><trkpt lat="38.05903627301768" lon="15.793240723059322"><ele>1051.0</ele><time>2026-04-25T08:35:13.001Z</time></trkpt><trkpt lat="38.05910221651267" lon="15.793414860611067"><ele>1064.0</ele><time>2026-04-25T08:35:14.001Z</time></trkpt><trkpt lat="38.05917342515081" lon="15.793588163268815"><ele>1077.0</ele><time>2026-04-25T08:35:15.001Z</time></trkpt><trkpt lat="38.05924494014966" lon="15.793772008685972"><ele>1090.0</ele><time>2026-04-25T08:35:16.001Z</time></trkpt><trkpt lat="38.059316515899255" lon="15.793960693963907"><ele>1090.0</ele><time>2026-04-25T08:35:17.001Z</time></trkpt><trkpt lat="38.05939316947317" lon="15.794147416694509"><ele>1090.0</ele><time>2026-04-25T08:35:18.001Z</time></trkpt><trkpt lat="38.05947020649289" lon="15.794332758726064"><ele>1090.0</ele><time>2026-04-25T08:35:19.001Z</time></trkpt><trkpt lat="38.0595457241963" lon="15.794511143986306"><ele>1087.0</ele><time>2026-04-25T08:35:19.999Z</time></trkpt><trkpt lat="38.05961625647225" lon="15.794692589166472"><ele>1084.0</ele><time>2026-04-25T08:35:20.999Z</time></trkpt><trkpt lat="38.05968887444052" lon="15.794872413993803"><ele>1081.0</ele><time>2026-04-25T08:35:21.999Z</time></trkpt><trkpt lat="38.05975540334" lon="15.79503072926676"><ele>1081.0</ele><time>2026-04-25T08:35:22.999Z</time></trkpt><trkpt lat="38.05980433930702" lon="15.795160626772049"><ele>1081.0</ele><time>2026-04-25T08:35:23.999Z</time></trkpt><trkpt lat="38.05982729686757" lon="15.795284407018311"><ele>1081.0</ele><time>2026-04-25T08:35:24.999Z</time></trkpt><trkpt lat="38.05982662090905" lon="15.795407293430113"><ele>1081.0</ele><time>2026-04-25T08:35:25.999Z</time></trkpt><trkpt lat="38.059800241743325" lon="15.795511874417814"><ele>1081.0</ele><time>2026-04-25T08:35:26.999Z</time></trkpt><trkpt lat="38.0597344891403" lon="15.795607994550256"><ele>1085.25</ele><time>2026-04-25T08:35:27.999Z</time></trkpt><trkpt lat="38.05964460949193" lon="15.795688839165681"><ele>1089.5</ele><time>2026-04-25T08:35:28.999Z</time></trkpt><trkpt lat="38.059545076844536" lon="15.795783180457674"><ele>1093.75</ele><time>2026-04-25T08:35:29.999Z</time></trkpt><trkpt lat="38.05946349469575" lon="15.795889854467688"><ele>1098.0</ele><time>2026-04-25T08:35:30.999Z</time></trkpt><trkpt lat="38.05940702255635" lon="15.796021135072698"><ele>1100.75</ele><time>2026-04-25T08:35:31.999Z</time></trkpt><trkpt lat="38.05936400553036" lon="15.796192361440346"><ele>1103.5</ele><time>2026-04-25T08:35:32.999Z</time></trkpt><trkpt lat="38.0593112733549" lon="15.796365411992712"><ele>1106.25</ele><time>2026-04-25T08:35:33.999Z</time></trkpt><trkpt lat="38.05928727893124" lon="15.796537811153256"><ele>1109.0</ele><time>2026-04-25T08:35:34.999Z</time></trkpt><trkpt lat="38.059263891514426" lon="15.796712988567549"><ele>1109.75</ele><time>2026-04-25T08:35:35.999Z</time></trkpt><trkpt lat="38.05923745998513" lon="15.796897028487663"><ele>1110.5</ele><time>2026-04-25T08:35:37Z</time></trkpt><trkpt lat="38.05921468465744" lon="15.797085266435305"><ele>1111.25</ele><time>2026-04-25T08:35:38Z</time></trkpt><trkpt lat="38.059191063858485" lon="15.797265336963251"><ele>1112.0</ele><time>2026-04-25T08:35:39Z</time></trkpt><trkpt lat="38.05916162915935" lon="15.797451160213166"><ele>1112.0</ele><time>2026-04-25T08:35:40Z</time></trkpt><trkpt lat="38.05913930587349" lon="15.79764365163033"><ele>1112.0</ele><time>2026-04-25T08:35:41Z</time></trkpt><trkpt lat="38.05911226738471" lon="15.79783923659393"><ele>1112.0</ele><time>2026-04-25T08:35:42Z</time></trkpt><trkpt lat="38.059083951877625" lon="15.79803956062793"><ele>1108.0</ele><time>2026-04-25T08:35:43Z</time></trkpt><trkpt lat="38.05905586164585" lon="15.798234652895488"><ele>1104.0</ele><time>2026-04-25T08:35:44Z</time></trkpt><trkpt lat="38.059026585156076" lon="15.798436006170883"><ele>1100.0</ele><time>2026-04-25T08:35:45Z</time></trkpt><trkpt lat="38.05900280019008" lon="15.798623761626368"><ele>1096.75</ele><time>2026-04-25T08:35:46Z</time></trkpt><trkpt lat="38.0589885449561" lon="15.79879522895227"><ele>1093.5</ele><time>2026-04-25T08:35:47Z</time></trkpt><trkpt lat="38.05900167415298" lon="15.79895890806599"><ele>1090.25</ele><time>2026-04-25T08:35:48Z</time></trkpt><trkpt lat="38.059019683093254" lon="15.799109389966354"><ele>1087.0</ele><time>2026-04-25T08:35:49Z</time></trkpt><trkpt lat="38.05906716846792" lon="15.799266869601857"><ele>1087.6</ele><time>2026-04-25T08:35:50Z</time></trkpt><trkpt lat="38.05910037877635" lon="15.799409693439316"><ele>1088.2</ele><time>2026-04-25T08:35:51Z</time></trkpt><trkpt lat="38.05912223457942" lon="15.799535688583365"><ele>1088.8</ele><time>2026-04-25T08:35:52Z</time></trkpt><trkpt lat="38.05915312992634" lon="15.799671660961653"><ele>1089.4</ele><time>2026-04-25T08:35:53Z</time></trkpt><trkpt lat="38.059161177257245" lon="15.799822368007675"><ele>1090.0</ele><time>2026-04-25T08:35:54Z</time></trkpt><trkpt lat="38.05915979538392" lon="15.800002935649847"><ele>1094.25</ele><time>2026-04-25T08:35:55Z</time></trkpt><trkpt lat="38.059178997824645" lon="15.800199735116143"><ele>1098.5</ele><time>2026-04-25T08:35:56Z</time></trkpt><trkpt lat="38.059146338271404" lon="15.800381118816235"><ele>1102.75</ele><time>2026-04-25T08:35:57Z</time></trkpt><trkpt lat="38.05913217859434" lon="15.800566723552036"><ele>1107.0</ele><time>2026-04-25T08:35:58Z</time></trkpt><trkpt lat="38.05911656022202" lon="15.80073978414616"><ele>1107.0</ele><time>2026-04-25T08:35:59Z</time></trkpt><trkpt lat="38.059097097563516" lon="15.800886575141327"><ele>1107.0</ele><time>2026-04-25T08:36:00Z</time></trkpt><trkpt lat="38.059065643968964" lon="15.801016617940308"><ele>1107.0</ele><time>2026-04-25T08:36:01Z</time></trkpt><trkpt lat="38.05900926570574" lon="15.801127814414219"><ele>1107.0</ele><time>2026-04-25T08:36:02Z</time></trkpt><trkpt lat="38.058927002994075" lon="15.801224399314062"><ele>1107.0</ele><time>2026-04-25T08:36:03Z</time></trkpt><trkpt lat="38.05878775561737" lon="15.801303346468254"><ele>1109.5</ele><time>2026-04-25T08:36:04Z</time></trkpt><trkpt lat="38.058681847063276" lon="15.801408037528775"><ele>1112.0</ele><time>2026-04-25T08:36:05Z</time></trkpt><trkpt lat="38.05858063635517" lon="15.801518925361195"><ele>1114.5</ele><time>2026-04-25T08:36:06Z</time></trkpt><trkpt lat="38.058479849627396" lon="15.801636912099939"><ele>1117.0</ele><time>2026-04-25T08:36:07Z</time></trkpt><trkpt lat="38.058373484901296" lon="15.801757259690936"><ele>1116.5</ele><time>2026-04-25T08:36:08Z</time></trkpt><trkpt lat="38.05827532072242" lon="15.801878184059525"><ele>1116.0</ele><time>2026-04-25T08:36:09Z</time></trkpt><trkpt lat="38.05817824724419" lon="15.801990674935375"><ele>1115.5</ele><time>2026-04-25T08:36:10Z</time></trkpt><trkpt lat="38.05807501287156" lon="15.802110157313097"><ele>1115.0</ele><time>2026-04-25T08:36:11Z</time></trkpt><trkpt lat="38.05796718284597" lon="15.802232052805056"><ele>1115.0</ele><time>2026-04-25T08:36:12Z</time></trkpt><trkpt lat="38.057850402496314" lon="15.80235184072946"><ele>1115.0</ele><time>2026-04-25T08:36:13Z</time></trkpt><trkpt lat="38.05772774494271" lon="15.802486694077022"><ele>1115.0</ele><time>2026-04-25T08:36:14Z</time></trkpt><trkpt lat="38.05762679279445" lon="15.802585996297971"><ele>1115.0</ele><time>2026-04-25T08:36:15Z</time></trkpt><trkpt lat="38.05749424067678" lon="15.802754014671052"><ele>1114.75</ele><time>2026-04-25T08:36:16Z</time></trkpt><trkpt lat="38.057385328545074" lon="15.802873468322638"><ele>1114.5</ele><time>2026-04-25T08:36:17Z</time></trkpt><trkpt lat="38.05728778515291" lon="15.802985295937983"><ele>1114.25</ele><time>2026-04-25T08:36:18Z</time></trkpt><trkpt lat="38.05718795661868" lon="15.80309405299483"><ele>1114.0</ele><time>2026-04-25T08:36:19Z</time></trkpt><trkpt lat="38.05709847118784" lon="15.803237844196355"><ele>1114.0</ele><time>2026-04-25T08:36:20Z</time></trkpt><trkpt lat="38.0570264419886" lon="15.803407485730089"><ele>1114.0</ele><time>2026-04-25T08:36:21Z</time></trkpt><trkpt lat="38.05696000899968" lon="15.80356533360665"><ele>1114.0</ele><time>2026-04-25T08:36:22Z</time></trkpt><trkpt lat="38.05690872054215" lon="15.803720116045914"><ele>1114.0</ele><time>2026-04-25T08:36:23Z</time></trkpt><trkpt lat="38.05687008641248" lon="15.80389675381603"><ele>1114.0</ele><time>2026-04-25T08:36:24Z</time></trkpt><trkpt lat="38.05683714648809" lon="15.804067780160672"><ele>1114.0</ele><time>2026-04-25T08:36:25Z</time></trkpt><trkpt lat="38.05680683174717" lon="15.804232268674273"><ele>1114.0</ele><time>2026-04-25T08:36:26Z</time></trkpt><trkpt lat="38.05677526797147" lon="15.80436172587939"><ele>1114.0</ele><time>2026-04-25T08:36:27Z</time></trkpt><trkpt lat="38.056756751085345" lon="15.80450218553134"><ele>1115.4</ele><time>2026-04-25T08:36:28Z</time></trkpt><trkpt lat="38.056727566787146" lon="15.80464904209227"><ele>1116.8000000000002</ele><time>2026-04-25T08:36:29Z</time></trkpt><trkpt lat="38.05670090112266" lon="15.80477873758056"><ele>1118.1999999999998</ele><time>2026-04-25T08:36:30Z</time></trkpt><trkpt lat="38.05668317628519" lon="15.80489408646814"><ele>1119.6</ele><time>2026-04-25T08:36:31Z</time></trkpt><trkpt lat="38.05667391345997" lon="15.805005451250194"><ele>1121.0</ele><time>2026-04-25T08:36:32Z</time></trkpt><trkpt lat="38.05666427271941" lon="15.805093130223497"><ele>1121.2</ele><time>2026-04-25T08:36:33.001Z</time></trkpt><trkpt lat="38.05664694314971" lon="15.805223615484993"><ele>1121.3999999999999</ele><time>2026-04-25T08:36:34.001Z</time></trkpt><trkpt lat="38.05664413827217" lon="15.8053674648122"><ele>1121.6</ele><time>2026-04-25T08:36:35.001Z</time></trkpt><trkpt lat="38.05663892323796" lon="15.805503222697487"><ele>1121.8</ele><time>2026-04-25T08:36:36.001Z</time></trkpt><trkpt lat="38.05661041467279" lon="15.805654119335502"><ele>1122.0</ele><time>2026-04-25T08:36:37.001Z</time></trkpt><trkpt lat="38.05663221371628" lon="15.80580916057977"><ele>1122.0</ele><time>2026-04-25T08:36:38.001Z</time></trkpt><trkpt lat="38.05665675924841" lon="15.805971844372165"><ele>1122.0</ele><time>2026-04-25T08:36:39.001Z</time></trkpt><trkpt lat="38.05667953593852" lon="15.806149071639094"><ele>1122.0</ele><time>2026-04-25T08:36:40.001Z</time></trkpt><trkpt lat="38.05669853482122" lon="15.80632990084385"><ele>1122.0</ele><time>2026-04-25T08:36:41.001Z</time></trkpt><trkpt lat="38.05669134433169" lon="15.806513155213091"><ele>1123.6666666666667</ele><time>2026-04-25T08:36:42.001Z</time></trkpt><trkpt lat="38.05665499731676" lon="15.806701913805618"><ele>1125.3333333333335</ele><time>2026-04-25T08:36:43.001Z</time></trkpt><trkpt lat="38.05663438374198" lon="15.806889712174428"><ele>1127.0</ele><time>2026-04-25T08:36:44.001Z</time></trkpt><trkpt lat="38.05665424269408" lon="15.807081433161342"><ele>1127.6666666666667</ele><time>2026-04-25T08:36:45.001Z</time></trkpt><trkpt lat="38.056689095477296" lon="15.807272614790284"><ele>1128.3333333333333</ele><time>2026-04-25T08:36:46.001Z</time></trkpt><trkpt lat="38.05670087409869" lon="15.807468901059682"><ele>1129.0</ele><time>2026-04-25T08:36:47.001Z</time></trkpt><trkpt lat="38.05669427187367" lon="15.807664913357486"><ele>1129.25</ele><time>2026-04-25T08:36:48.001Z</time></trkpt><trkpt lat="38.0566815019794" lon="15.807862809707833"><ele>1129.5</ele><time>2026-04-25T08:36:49.001Z</time></trkpt><trkpt lat="38.05667218217085" lon="15.808027344073029"><ele>1129.75</ele><time>2026-04-25T08:36:50.001Z</time></trkpt><trkpt lat="38.056652527971906" lon="15.808171542909479"><ele>1130.0</ele><time>2026-04-25T08:36:51.001Z</time></trkpt><trkpt lat="38.05664053426739" lon="15.808272053595777"><ele>1130.0</ele><time>2026-04-25T08:36:52.001Z</time></trkpt><trkpt lat="38.05664293724483" lon="15.808371600423223"><ele>1130.0</ele><time>2026-04-25T08:36:54.001Z</time></trkpt><trkpt lat="38.05671405626985" lon="15.80839500460358"><ele>1130.0</ele><time>2026-04-25T08:36:57.001Z</time></trkpt><trkpt lat="38.05679825792074" lon="15.808277061112166"><ele>1130.0</ele><time>2026-04-25T08:36:59.001Z</time></trkpt><trkpt lat="38.056838077938764" lon="15.80816989072767"><ele>1130.0</ele><time>2026-04-25T08:37:00.001Z</time></trkpt><trkpt lat="38.056897980837014" lon="15.808075487864302"><ele>1130.0</ele><time>2026-04-25T08:37:01.001Z</time></trkpt><trkpt lat="38.05699116097152" lon="15.808001250783036"><ele>1130.0</ele><time>2026-04-25T08:37:02.001Z</time></trkpt><trkpt lat="38.05710084353788" lon="15.807944334541128"><ele>1130.0</ele><time>2026-04-25T08:37:03.001Z</time></trkpt><trkpt lat="38.05721678179495" lon="15.80788681009197"><ele>1130.0</ele><time>2026-04-25T08:37:04.001Z</time></trkpt><trkpt lat="38.05733914595448" lon="15.807814978903426"><ele>1131.75</ele><time>2026-04-25T08:37:05.001Z</time></trkpt><trkpt lat="38.05746078160359" lon="15.80774092557179"><ele>1133.5</ele><time>2026-04-25T08:37:06.001Z</time></trkpt><trkpt lat="38.05758857177736" lon="15.807671372642496"><ele>1135.25</ele><time>2026-04-25T08:37:07.001Z</time></trkpt><trkpt lat="38.05772141711405" lon="15.807607748010687"><ele>1137.0</ele><time>2026-04-25T08:37:08.001Z</time></trkpt><trkpt lat="38.057861916256776" lon="15.807552422644525"><ele>1137.0</ele><time>2026-04-25T08:37:09.001Z</time></trkpt><trkpt lat="38.05802072602532" lon="15.807523030536554"><ele>1137.0</ele><time>2026-04-25T08:37:10.001Z</time></trkpt><trkpt lat="38.058192009495365" lon="15.807499777018254"><ele>1137.0</ele><time>2026-04-25T08:37:11.001Z</time></trkpt><trkpt lat="38.05836492318334" lon="15.807473994930424"><ele>1138.6666666666667</ele><time>2026-04-25T08:37:12.001Z</time></trkpt><trkpt lat="38.058531954774324" lon="15.807442898097337"><ele>1140.3333333333335</ele><time>2026-04-25T08:37:13.001Z</time></trkpt><trkpt lat="38.05869865856492" lon="15.807421827966653"><ele>1142.0</ele><time>2026-04-25T08:37:14.001Z</time></trkpt><trkpt lat="38.05886228826945" lon="15.807396169840336"><ele>1142.0</ele><time>2026-04-25T08:37:15.001Z</time></trkpt><trkpt lat="38.0590221714089" lon="15.807374286112838"><ele>1142.0</ele><time>2026-04-25T08:37:16.001Z</time></trkpt><trkpt lat="38.05917814725499" lon="15.807352875330272"><ele>1142.0</ele><time>2026-04-25T08:37:17.001Z</time></trkpt><trkpt lat="38.05932965369853" lon="15.807327504219344"><ele>1143.5</ele><time>2026-04-25T08:37:18.001Z</time></trkpt><trkpt lat="38.05947350914757" lon="15.807304951187726"><ele>1145.0</ele><time>2026-04-25T08:37:19.001Z</time></trkpt><trkpt lat="38.059614565209614" lon="15.807301468310936"><ele>1146.5</ele><time>2026-04-25T08:37:20.001Z</time></trkpt><trkpt lat="38.05976518839823" lon="15.807316452651314"><ele>1148.0</ele><time>2026-04-25T08:37:21.001Z</time></trkpt><trkpt lat="38.0599234326005" lon="15.807360623046689"><ele>1149.0</ele><time>2026-04-25T08:37:22.001Z</time></trkpt><trkpt lat="38.06007786513391" lon="15.807418648837855"><ele>1150.0</ele><time>2026-04-25T08:37:23.001Z</time></trkpt><trkpt lat="38.060236537933015" lon="15.807494021917112"><ele>1151.0</ele><time>2026-04-25T08:37:24.001Z</time></trkpt><trkpt lat="38.06039652446896" lon="15.807572393667645"><ele>1151.0</ele><time>2026-04-25T08:37:25.001Z</time></trkpt><trkpt lat="38.060553109355055" lon="15.807655441054363"><ele>1151.0</ele><time>2026-04-25T08:37:26Z</time></trkpt><trkpt lat="38.06071222501523" lon="15.807747713921836"><ele>1151.0</ele><time>2026-04-25T08:37:27Z</time></trkpt><trkpt lat="38.06087155242674" lon="15.807847891932346"><ele>1153.0</ele><time>2026-04-25T08:37:28Z</time></trkpt><trkpt lat="38.06102820680395" lon="15.807963227963644"><ele>1155.0</ele><time>2026-04-25T08:37:29Z</time></trkpt><trkpt lat="38.06117461785845" lon="15.808099652178992"><ele>1157.0</ele><time>2026-04-25T08:37:30Z</time></trkpt><trkpt lat="38.06131690606205" lon="15.80824571370345"><ele>1157.0</ele><time>2026-04-25T08:37:31Z</time></trkpt><trkpt lat="38.06145101890019" lon="15.80839928276185"><ele>1157.0</ele><time>2026-04-25T08:37:32Z</time></trkpt><trkpt lat="38.06157932026528" lon="15.808555539807234"><ele>1157.0</ele><time>2026-04-25T08:37:33Z</time></trkpt><trkpt lat="38.06167066902255" lon="15.808700350383178"><ele>1158.0</ele><time>2026-04-25T08:37:34Z</time></trkpt><trkpt lat="38.0617209849627" lon="15.808868099399934"><ele>1159.0</ele><time>2026-04-25T08:37:35Z</time></trkpt><trkpt lat="38.0617376978714" lon="15.809064262727102"><ele>1160.0</ele><time>2026-04-25T08:37:36Z</time></trkpt><trkpt lat="38.06172782144112" lon="15.809258422785964"><ele>1161.0</ele><time>2026-04-25T08:37:37Z</time></trkpt><trkpt lat="38.06172074716407" lon="15.809440947885841"><ele>1162.0</ele><time>2026-04-25T08:37:38Z</time></trkpt><trkpt lat="38.06171989025998" lon="15.809630277994334"><ele>1163.0</ele><time>2026-04-25T08:37:39Z</time></trkpt><trkpt lat="38.06171518957016" lon="15.809817056861354"><ele>1164.0</ele><time>2026-04-25T08:37:40Z</time></trkpt><trkpt lat="38.061713590889674" lon="15.810001393215812"><ele>1163.75</ele><time>2026-04-25T08:37:41Z</time></trkpt><trkpt lat="38.061721357683815" lon="15.810176943726544"><ele>1163.5</ele><time>2026-04-25T08:37:42Z</time></trkpt><trkpt lat="38.06173435552091" lon="15.810330928121624"><ele>1163.25</ele><time>2026-04-25T08:37:43Z</time></trkpt><trkpt lat="38.06176884131683" lon="15.810454014500666"><ele>1163.0</ele><time>2026-04-25T08:37:44Z</time></trkpt><trkpt lat="38.06179664399019" lon="15.810572652600836"><ele>1163.0</ele><time>2026-04-25T08:37:45Z</time></trkpt><trkpt lat="38.06183181609126" lon="15.810691629814125"><ele>1163.0</ele><time>2026-04-25T08:37:46Z</time></trkpt><trkpt lat="38.06187401334697" lon="15.810813665684094"><ele>1163.0</ele><time>2026-04-25T08:37:47Z</time></trkpt><trkpt lat="38.06192212653309" lon="15.810941221950175"><ele>1163.0</ele><time>2026-04-25T08:37:48Z</time></trkpt><trkpt lat="38.06197237394416" lon="15.811076662017326"><ele>1163.0</ele><time>2026-04-25T08:37:49Z</time></trkpt><trkpt lat="38.062030525463555" lon="15.81124844949213"><ele>1164.3333333333335</ele><time>2026-04-25T08:37:50Z</time></trkpt><trkpt lat="38.06210654589042" lon="15.811457919557393"><ele>1165.6666666666667</ele><time>2026-04-25T08:37:51Z</time></trkpt><trkpt lat="38.06220290753394" lon="15.811704381606463"><ele>1167.0</ele><time>2026-04-25T08:37:52Z</time></trkpt><trkpt lat="38.062283453803836" lon="15.811908062183683"><ele>1167.0</ele><time>2026-04-25T08:37:53Z</time></trkpt><trkpt lat="38.06235318695098" lon="15.81207898951798"><ele>1167.0</ele><time>2026-04-25T08:37:54Z</time></trkpt><trkpt lat="38.062421302777615" lon="15.812247426860537"><ele>1167.0</ele><time>2026-04-25T08:37:55Z</time></trkpt><trkpt lat="38.062484727067144" lon="15.812411220714656"><ele>1167.0</ele><time>2026-04-25T08:37:56.001Z</time></trkpt><trkpt lat="38.06253423004502" lon="15.812561265853507"><ele>1167.5</ele><time>2026-04-25T08:37:57.001Z</time></trkpt><trkpt lat="38.06257740122994" lon="15.812692974937498"><ele>1168.0</ele><time>2026-04-25T08:37:58.001Z</time></trkpt><trkpt lat="38.06261665844186" lon="15.812803903914977"><ele>1168.5</ele><time>2026-04-25T08:37:59.001Z</time></trkpt><trkpt lat="38.0626488991984" lon="15.812877237572701"><ele>1169.0</ele><time>2026-04-25T08:38:00.001Z</time></trkpt><trkpt lat="38.062697356842186" lon="15.812964442713907"><ele>1169.5</ele><time>2026-04-25T08:38:02.001Z</time></trkpt><trkpt lat="38.06270747956367" lon="15.813058189830155"><ele>1170.0</ele><time>2026-04-25T08:38:08.001Z</time></trkpt><trkpt lat="38.0627467984149" lon="15.812983024417498"><ele>1170.0</ele><time>2026-04-25T08:38:14.001Z</time></trkpt><trkpt lat="38.062636872263354" lon="15.812850729658571"><ele>1170.0</ele><time>2026-04-25T08:38:16.001Z</time></trkpt><trkpt lat="38.06260539459525" lon="15.812753509851504"><ele>1170.0</ele><time>2026-04-25T08:38:17.001Z</time></trkpt><trkpt lat="38.06257053271734" lon="15.812654467151733"><ele>1170.0</ele><time>2026-04-25T08:38:18.001Z</time></trkpt><trkpt lat="38.06253468709422" lon="15.81253810928405"><ele>1170.0</ele><time>2026-04-25T08:38:19.001Z</time></trkpt><trkpt lat="38.062483740696536" lon="15.81239598658503"><ele>1169.75</ele><time>2026-04-25T08:38:20.001Z</time></trkpt><trkpt lat="38.06242977745458" lon="15.812243070104362"><ele>1169.5</ele><time>2026-04-25T08:38:21.001Z</time></trkpt><trkpt lat="38.0623705772034" lon="15.812082783603813"><ele>1169.25</ele><time>2026-04-25T08:38:22.001Z</time></trkpt><trkpt lat="38.06231222539689" lon="15.8119280440951"><ele>1169.0</ele><time>2026-04-25T08:38:23.001Z</time></trkpt><trkpt lat="38.06225006331638" lon="15.811760069302835"><ele>1168.3333333333335</ele><time>2026-04-25T08:38:24.001Z</time></trkpt><trkpt lat="38.06218481752012" lon="15.811558084269816"><ele>1167.6666666666667</ele><time>2026-04-25T08:38:25.001Z</time></trkpt><trkpt lat="38.06212638879717" lon="15.811337986088594"><ele>1167.0</ele><time>2026-04-25T08:38:26.001Z</time></trkpt><trkpt lat="38.06205583928034" lon="15.81111331967342"><ele>1166.0</ele><time>2026-04-25T08:38:27.001Z</time></trkpt><trkpt lat="38.06197231204049" lon="15.810898009367408"><ele>1165.0</ele><time>2026-04-25T08:38:28.001Z</time></trkpt><trkpt lat="38.06190639878332" lon="15.810853279159744"><ele>1164.0</ele><time>2026-04-25T08:38:29.001Z</time></trkpt><trkpt lat="38.061840724034816" lon="15.810680723833816"><ele>1163.0</ele><time>2026-04-25T08:38:30.001Z</time></trkpt><trkpt lat="38.0617889507605" lon="15.810517688672135"><ele>1163.0</ele><time>2026-04-25T08:38:31.001Z</time></trkpt><trkpt lat="38.0617458987153" lon="15.810364936513391"><ele>1163.0</ele><time>2026-04-25T08:38:32.001Z</time></trkpt><trkpt lat="38.06172786391324" lon="15.810214803068403"><ele>1163.0</ele><time>2026-04-25T08:38:33.001Z</time></trkpt><trkpt lat="38.06172617895097" lon="15.810061772273286"><ele>1163.0</ele><time>2026-04-25T08:38:34.001Z</time></trkpt><trkpt lat="38.06172305905018" lon="15.8099277388553"><ele>1163.2</ele><time>2026-04-25T08:38:35.001Z</time></trkpt><trkpt lat="38.061722869222514" lon="15.809812604199092"><ele>1163.4</ele><time>2026-04-25T08:38:36.001Z</time></trkpt><trkpt lat="38.06172290183773" lon="15.809704785431407"><ele>1163.6000000000001</ele><time>2026-04-25T08:38:37.001Z</time></trkpt><trkpt lat="38.061730798103405" lon="15.809595459906971"><ele>1163.8</ele><time>2026-04-25T08:38:38.001Z</time></trkpt><trkpt lat="38.06173559139576" lon="15.809463226635009"><ele>1164.0</ele><time>2026-04-25T08:38:39.001Z</time></trkpt><trkpt lat="38.06173529817668" lon="15.809314586152485"><ele>1163.2</ele><time>2026-04-25T08:38:40.001Z</time></trkpt><trkpt lat="38.06173363748492" lon="15.809180782898892"><ele>1162.4</ele><time>2026-04-25T08:38:41.001Z</time></trkpt><trkpt lat="38.061730753430226" lon="15.809066532803387"><ele>1161.6</ele><time>2026-04-25T08:38:42.001Z</time></trkpt><trkpt lat="38.06174148409834" lon="15.80897127157099"><ele>1160.8</ele><time>2026-04-25T08:38:43.001Z</time></trkpt><trkpt lat="38.06178363135428" lon="15.808860000219912"><ele>1160.0</ele><time>2026-04-25T08:38:45.001Z</time></trkpt><trkpt lat="38.06188105602313" lon="15.80874469931021"><ele>1160.0</ele><time>2026-04-25T08:38:47.001Z</time></trkpt><trkpt lat="38.0619243977519" lon="15.80865036916036"><ele>1160.0</ele><time>2026-04-25T08:38:48.001Z</time></trkpt><trkpt lat="38.061961085084995" lon="15.808524073916015"><ele>1160.0</ele><time>2026-04-25T08:38:49.001Z</time></trkpt><trkpt lat="38.06197229491304" lon="15.808390954730314"><ele>1160.0</ele><time>2026-04-25T08:38:50.001Z</time></trkpt><trkpt lat="38.061971327879434" lon="15.808266319014876"><ele>1160.0</ele><time>2026-04-25T08:38:51.001Z</time></trkpt><trkpt lat="38.061973523932664" lon="15.808127181085254"><ele>1159.6666666666667</ele><time>2026-04-25T08:38:52.001Z</time></trkpt><trkpt lat="38.061987753992014" lon="15.807993620816008"><ele>1159.3333333333335</ele><time>2026-04-25T08:38:53.001Z</time></trkpt><trkpt lat="38.06199968686481" lon="15.807872903128834"><ele>1159.0</ele><time>2026-04-25T08:38:54.001Z</time></trkpt><trkpt lat="38.062001827104105" lon="15.807767162199038"><ele>1158.6666666666667</ele><time>2026-04-25T08:38:55.001Z</time></trkpt><trkpt lat="38.06199817204494" lon="15.807666788818983"><ele>1158.3333333333333</ele><time>2026-04-25T08:38:56.001Z</time></trkpt><trkpt lat="38.061991432881634" lon="15.807582063473893"><ele>1158.0</ele><time>2026-04-25T08:38:57.001Z</time></trkpt><trkpt lat="38.06205963760445" lon="15.807538041492213"><ele>1158.0</ele><time>2026-04-25T08:39:00.001Z</time></trkpt><trkpt lat="38.06215836474473" lon="15.80758937835462"><ele>1158.0</ele><time>2026-04-25T08:39:02.001Z</time></trkpt><trkpt lat="38.06222042813563" lon="15.807654687533262"><ele>1158.0</ele><time>2026-04-25T08:39:03.001Z</time></trkpt><trkpt lat="38.062278272685845" lon="15.807717219163845"><ele>1158.0</ele><time>2026-04-25T08:39:04.001Z</time></trkpt><trkpt lat="38.062327388667875" lon="15.807778664894306"><ele>1158.0</ele><time>2026-04-25T08:39:05.001Z</time></trkpt><trkpt lat="38.06237513253996" lon="15.807837651155932"><ele>1158.0</ele><time>2026-04-25T08:39:06.001Z</time></trkpt><trkpt lat="38.062427417616036" lon="15.807897703876208"><ele>1157.5</ele><time>2026-04-25T08:39:07.001Z</time></trkpt><trkpt lat="38.062477011466676" lon="15.80795497858289"><ele>1157.0</ele><time>2026-04-25T08:39:08.001Z</time></trkpt><trkpt lat="38.06253560829046" lon="15.808014028494844"><ele>1156.5</ele><time>2026-04-25T08:39:09.001Z</time></trkpt><trkpt lat="38.06259227549601" lon="15.808067688905759"><ele>1156.0</ele><time>2026-04-25T08:39:10.001Z</time></trkpt><trkpt lat="38.06268227216636" lon="15.80815040727815"><ele>1155.5</ele><time>2026-04-25T08:39:12.001Z</time></trkpt><trkpt lat="38.06277867294564" lon="15.808253233611977"><ele>1155.0</ele><time>2026-04-25T08:39:14.001Z</time></trkpt><trkpt lat="38.06284538333294" lon="15.80833527766411"><ele>1155.0</ele><time>2026-04-25T08:39:16.001Z</time></trkpt><trkpt lat="38.06290446795661" lon="15.80841123905338"><ele>1155.0</ele><time>2026-04-25T08:39:19.002Z</time></trkpt><trkpt lat="38.06288734630207" lon="15.808334060956879"><ele>1155.0</ele><time>2026-04-25T08:39:49.001Z</time></trkpt><trkpt lat="38.06279608973886" lon="15.808229717716392"><ele>1155.0</ele><time>2026-04-25T08:39:52.001Z</time></trkpt><trkpt lat="38.06273247704103" lon="15.808181599860566"><ele>1155.0</ele><time>2026-04-25T08:39:53.001Z</time></trkpt><trkpt lat="38.062668781026325" lon="15.8081182364356"><ele>1155.0</ele><time>2026-04-25T08:39:55.001Z</time></trkpt><trkpt lat="38.062628649764726" lon="15.808054716854315"><ele>1155.0</ele><time>2026-04-25T08:39:56.001Z</time></trkpt><trkpt lat="38.06257277589846" lon="15.807996320084735"><ele>1155.0</ele><time>2026-04-25T08:39:57.001Z</time></trkpt><trkpt lat="38.062523174389035" lon="15.80794447879802"><ele>1155.0</ele><time>2026-04-25T08:39:58.001Z</time></trkpt><trkpt lat="38.06243717127689" lon="15.807854592206434"><ele>1155.0</ele><time>2026-04-25T08:40:00.001Z</time></trkpt><trkpt lat="38.06237259870758" lon="15.807813901637068"><ele>1155.0</ele><time>2026-04-25T08:40:01.001Z</time></trkpt><trkpt lat="38.062317671078084" lon="15.807745929769483"><ele>1155.0</ele><time>2026-04-25T08:40:02.001Z</time></trkpt><trkpt lat="38.06225255864893" lon="15.80768165678505"><ele>1155.1666666666667</ele><time>2026-04-25T08:40:03.001Z</time></trkpt><trkpt lat="38.06219039782645" lon="15.807621581086677"><ele>1155.3333333333333</ele><time>2026-04-25T08:40:04.001Z</time></trkpt><trkpt lat="38.06214217860008" lon="15.807569914987901"><ele>1155.5</ele><time>2026-04-25T08:40:05.001Z</time></trkpt><trkpt lat="38.06208696200122" lon="15.80752485553427"><ele>1155.6666666666665</ele><time>2026-04-25T08:40:07.001Z</time></trkpt><trkpt lat="38.06199422181099" lon="15.807479886377722"><ele>1155.8333333333333</ele><time>2026-04-25T08:40:10.001Z</time></trkpt><trkpt lat="38.06194598181378" lon="15.807340769189826"><ele>1156.0</ele><time>2026-04-25T08:40:12.001Z</time></trkpt><trkpt lat="38.06190567088494" lon="15.807260042947494"><ele>1156.0</ele><time>2026-04-25T08:40:13.001Z</time></trkpt><trkpt lat="38.06188072255383" lon="15.807174490810118"><ele>1156.0</ele><time>2026-04-25T08:40:14.001Z</time></trkpt><trkpt lat="38.061928098683175" lon="15.807059692606419"><ele>1156.0</ele><time>2026-04-25T08:40:16.001Z</time></trkpt><trkpt lat="38.06202818426687" lon="15.806994178900787"><ele>1156.0</ele><time>2026-04-25T08:40:18.001Z</time></trkpt><trkpt lat="38.06210053235403" lon="15.806945847208057"><ele>1156.0</ele><time>2026-04-25T08:40:19.001Z</time></trkpt><trkpt lat="38.062182979592215" lon="15.806894167667208"><ele>1154.75</ele><time>2026-04-25T08:40:20.001Z</time></trkpt><trkpt lat="38.06226929068145" lon="15.806818523490858"><ele>1153.5</ele><time>2026-04-25T08:40:21.001Z</time></trkpt><trkpt lat="38.06237443121932" lon="15.806757186182411"><ele>1152.25</ele><time>2026-04-25T08:40:22.001Z</time></trkpt><trkpt lat="38.06248635666093" lon="15.806687806325884"><ele>1151.0</ele><time>2026-04-25T08:40:23.001Z</time></trkpt><trkpt lat="38.06259799851203" lon="15.806612232178532"><ele>1150.3999999999999</ele><time>2026-04-25T08:40:24.001Z</time></trkpt><trkpt lat="38.062708721901295" lon="15.806534033848086"><ele>1149.8</ele><time>2026-04-25T08:40:25.001Z</time></trkpt><trkpt lat="38.06280821506015" lon="15.806472478951104"><ele>1149.1999999999998</ele><time>2026-04-25T08:40:26.001Z</time></trkpt><trkpt lat="38.062899328423946" lon="15.806410686003607"><ele>1148.6</ele><time>2026-04-25T08:40:27.001Z</time></trkpt><trkpt lat="38.062986001547934" lon="15.806357078927785"><ele>1148.0</ele><time>2026-04-25T08:40:28.001Z</time></trkpt><trkpt lat="38.06308650223306" lon="15.806322941106528"><ele>1148.0</ele><time>2026-04-25T08:40:29.001Z</time></trkpt><trkpt lat="38.06319207872654" lon="15.806256501766372"><ele>1148.0</ele><time>2026-04-25T08:40:30.001Z</time></trkpt><trkpt lat="38.06331325913194" lon="15.806217580327454"><ele>1148.0</ele><time>2026-04-25T08:40:31.001Z</time></trkpt><trkpt lat="38.06341332532445" lon="15.806190710606124"><ele>1148.0</ele><time>2026-04-25T08:40:32.001Z</time></trkpt><trkpt lat="38.06351203306041" lon="15.806126933014045"><ele>1146.4</ele><time>2026-04-25T08:40:33.001Z</time></trkpt><trkpt lat="38.063603918323025" lon="15.80607905968255"><ele>1144.8</ele><time>2026-04-25T08:40:34.001Z</time></trkpt><trkpt lat="38.063694083504735" lon="15.806045363254038"><ele>1143.2</ele><time>2026-04-25T08:40:35.001Z</time></trkpt><trkpt lat="38.063789941244856" lon="15.80601731878949"><ele>1141.6</ele><time>2026-04-25T08:40:36.001Z</time></trkpt><trkpt lat="38.06388263790134" lon="15.805982858122784"><ele>1140.0</ele><time>2026-04-25T08:40:37.001Z</time></trkpt><trkpt lat="38.06397865266021" lon="15.805945675518316"><ele>1140.0</ele><time>2026-04-25T08:40:38.001Z</time></trkpt><trkpt lat="38.064064522406724" lon="15.805912530951339"><ele>1140.0</ele><time>2026-04-25T08:40:39.001Z</time></trkpt><trkpt lat="38.064147095080145" lon="15.805867945148268"><ele>1140.0</ele><time>2026-04-25T08:40:40.001Z</time></trkpt><trkpt lat="38.06421746013538" lon="15.805814478235266"><ele>1140.0</ele><time>2026-04-25T08:40:41.001Z</time></trkpt><trkpt lat="38.064291732320946" lon="15.805739935010608"><ele>1140.0</ele><time>2026-04-25T08:40:42.001Z</time></trkpt><trkpt lat="38.064373748396264" lon="15.805672612762018"><ele>1138.1666666666667</ele><time>2026-04-25T08:40:43.001Z</time></trkpt><trkpt lat="38.06444001423517" lon="15.805626137450645"><ele>1136.3333333333333</ele><time>2026-04-25T08:40:44.001Z</time></trkpt><trkpt lat="38.06449756590923" lon="15.80558719324276"><ele>1134.5</ele><time>2026-04-25T08:40:45.001Z</time></trkpt><trkpt lat="38.06455722207868" lon="15.805512665893595"><ele>1132.6666666666665</ele><time>2026-04-25T08:40:47.001Z</time></trkpt><trkpt lat="38.064486140665934" lon="15.805364157278659"><ele>1130.8333333333333</ele><time>2026-04-25T08:40:49.001Z</time></trkpt><trkpt lat="38.06444257456595" lon="15.805288280275393"><ele>1129.0</ele><time>2026-04-25T08:40:50.001Z</time></trkpt><trkpt lat="38.06441386760489" lon="15.805211657051158"><ele>1128.6666666666665</ele><time>2026-04-25T08:40:51.001Z</time></trkpt><trkpt lat="38.064423084642875" lon="15.805064161892046"><ele>1128.3333333333333</ele><time>2026-04-25T08:40:53.001Z</time></trkpt><trkpt lat="38.064410521418765" lon="15.8049806291779"><ele>1128.0</ele><time>2026-04-25T08:40:54.001Z</time></trkpt><trkpt lat="38.064414153850585" lon="15.80489201884642"><ele>1127.6666666666667</ele><time>2026-04-25T08:40:55.001Z</time></trkpt><trkpt lat="38.0644217027189" lon="15.804801476717838"><ele>1127.3333333333335</ele><time>2026-04-25T08:40:56.001Z</time></trkpt><trkpt lat="38.06443483242431" lon="15.80470743654484"><ele>1127.0</ele><time>2026-04-25T08:40:57.001Z</time></trkpt><trkpt lat="38.06445589411012" lon="15.804607131918278"><ele>1127.0</ele><time>2026-04-25T08:40:58.001Z</time></trkpt><trkpt lat="38.064461962159065" lon="15.80451068276293"><ele>1127.0</ele><time>2026-04-25T08:40:59.001Z</time></trkpt><trkpt lat="38.06446883320703" lon="15.804422933239682"><ele>1127.0</ele><time>2026-04-25T08:41:00.001Z</time></trkpt><trkpt lat="38.06448296579361" lon="15.804314281461947"><ele>1127.0</ele><time>2026-04-25T08:41:03.001Z</time></trkpt><trkpt lat="38.064521214975194" lon="15.804244680425736"><ele>1127.0</ele><time>2026-04-25T08:41:05.001Z</time></trkpt><trkpt lat="38.06451168191375" lon="15.804149922650778"><ele>1127.0</ele><time>2026-04-25T08:41:08.001Z</time></trkpt><trkpt lat="38.064729685507984" lon="15.804083703114934"><ele>1126.8333333333335</ele><time>2026-04-25T08:41:10.001Z</time></trkpt><trkpt lat="38.06483317703997" lon="15.804015764429815"><ele>1126.6666666666667</ele><time>2026-04-25T08:41:12.001Z</time></trkpt><trkpt lat="38.06489701272408" lon="15.803975315242031"><ele>1126.5</ele><time>2026-04-25T08:41:16.001Z</time></trkpt><trkpt lat="38.064957208201534" lon="15.803930437278414"><ele>1126.3333333333333</ele><time>2026-04-25T08:41:18.001Z</time></trkpt><trkpt lat="38.065018737031885" lon="15.803898071039123"><ele>1126.1666666666665</ele><time>2026-04-25T08:41:20.001Z</time></trkpt><trkpt lat="38.06496390946639" lon="15.803945738364218"><ele>1126.0</ele><time>2026-04-25T08:41:41.001Z</time></trkpt><trkpt lat="38.06487281661412" lon="15.803991055681964"><ele>1126.0</ele><time>2026-04-25T08:41:43.001Z</time></trkpt><trkpt lat="38.06480000010136" lon="15.804036923907516"><ele>1126.0</ele><time>2026-04-25T08:41:45.001Z</time></trkpt><trkpt lat="38.06473676826333" lon="15.804065414507171"><ele>1126.0</ele><time>2026-04-25T08:41:46.001Z</time></trkpt><trkpt lat="38.06464878797585" lon="15.804116987741144"><ele>1126.0</ele><time>2026-04-25T08:41:48.001Z</time></trkpt><trkpt lat="38.06456297946718" lon="15.804185031079466"><ele>1126.0</ele><time>2026-04-25T08:41:50.001Z</time></trkpt><trkpt lat="38.06449324087998" lon="15.804246383324386"><ele>1126.0</ele><time>2026-04-25T08:41:52.001Z</time></trkpt><trkpt lat="38.06443775384498" lon="15.804304535847695"><ele>1126.0</ele><time>2026-04-25T08:41:55.001Z</time></trkpt><trkpt lat="38.06435569974725" lon="15.804249118022694"><ele>1126.0</ele><time>2026-04-25T08:42:14.001Z</time></trkpt><trkpt lat="38.06430826273651" lon="15.804184638874185"><ele>1126.0</ele><time>2026-04-25T08:42:16.001Z</time></trkpt><trkpt lat="38.06426730274837" lon="15.804079988545503"><ele>1126.0</ele><time>2026-04-25T08:42:18.001Z</time></trkpt><trkpt lat="38.06421487378497" lon="15.803965551694674"><ele>1126.0</ele><time>2026-04-25T08:42:20.001Z</time></trkpt><trkpt lat="38.064175836532456" lon="15.803850193007031"><ele>1126.0</ele><time>2026-04-25T08:42:22.001Z</time></trkpt><trkpt lat="38.06414166841004" lon="15.803730015132611"><ele>1126.0</ele><time>2026-04-25T08:42:24.001Z</time></trkpt><trkpt lat="38.0641282153842" lon="15.803610796131098"><ele>1126.0</ele><time>2026-04-25T08:42:26.001Z</time></trkpt><trkpt lat="38.06417130064418" lon="15.803534845393061"><ele>1126.0</ele><time>2026-04-25T08:42:28.001Z</time></trkpt><trkpt lat="38.06428127987472" lon="15.80347553957666"><ele>1126.0</ele><time>2026-04-25T08:42:30.001Z</time></trkpt><trkpt lat="38.064391329032695" lon="15.803410605691136"><ele>1125.8333333333333</ele><time>2026-04-25T08:42:32.001Z</time></trkpt><trkpt lat="38.06450702884066" lon="15.803364649763276"><ele>1125.6666666666665</ele><time>2026-04-25T08:42:34.001Z</time></trkpt><trkpt lat="38.06456711664131" lon="15.803340081767237"><ele>1125.5</ele><time>2026-04-25T08:42:35.001Z</time></trkpt><trkpt lat="38.064694265992316" lon="15.803302253628555"><ele>1125.3333333333333</ele><time>2026-04-25T08:42:37.001Z</time></trkpt><trkpt lat="38.06474774770681" lon="15.803256069949251"><ele>1125.1666666666667</ele><time>2026-04-25T08:42:38.001Z</time></trkpt><trkpt lat="38.06480548011988" lon="15.803220050847514"><ele>1125.0</ele><time>2026-04-25T08:42:39.001Z</time></trkpt><trkpt lat="38.06486472258342" lon="15.803189699018379"><ele>1125.0</ele><time>2026-04-25T08:42:40.001Z</time></trkpt><trkpt lat="38.06493249879545" lon="15.803156599777436"><ele>1125.0</ele><time>2026-04-25T08:42:41.001Z</time></trkpt><trkpt lat="38.06503504697334" lon="15.80310755691"><ele>1125.0</ele><time>2026-04-25T08:42:43.001Z</time></trkpt><trkpt lat="38.0651121919705" lon="15.803040563526181"><ele>1125.0</ele><time>2026-04-25T08:42:52.001Z</time></trkpt><trkpt lat="38.065224526945286" lon="15.802982949402287"><ele>1125.0</ele><time>2026-04-25T08:42:54.001Z</time></trkpt><trkpt lat="38.06529134503508" lon="15.802941429456983"><ele>1125.6666666666667</ele><time>2026-04-25T08:42:55.001Z</time></trkpt><trkpt lat="38.065361190060884" lon="15.802897197231236"><ele>1126.3333333333333</ele><time>2026-04-25T08:42:56.001Z</time></trkpt><trkpt lat="38.0654218095841" lon="15.802856080865471"><ele>1127.0</ele><time>2026-04-25T08:42:57.001Z</time></trkpt><trkpt lat="38.065480107521985" lon="15.802814505674776"><ele>1127.6666666666665</ele><time>2026-04-25T08:42:58.001Z</time></trkpt><trkpt lat="38.06557097397749" lon="15.802751964842441"><ele>1128.3333333333333</ele><time>2026-04-25T08:43:00.001Z</time></trkpt><trkpt lat="38.06563703380254" lon="15.802774771983119"><ele>1129.0</ele><time>2026-04-25T08:43:03.001Z</time></trkpt><trkpt lat="38.06565648963335" lon="15.802905714829134"><ele>1129.0</ele><time>2026-04-25T08:43:05.001Z</time></trkpt><trkpt lat="38.06569597984731" lon="15.80304217082311"><ele>1129.0</ele><time>2026-04-25T08:43:07.001Z</time></trkpt><trkpt lat="38.06571924144664" lon="15.80312346531301"><ele>1129.0</ele><time>2026-04-25T08:43:08.001Z</time></trkpt><trkpt lat="38.065741094039815" lon="15.803206738879187"><ele>1129.0</ele><time>2026-04-25T08:43:09.001Z</time></trkpt><trkpt lat="38.06576373263777" lon="15.803296338342808"><ele>1129.0</ele><time>2026-04-25T08:43:10.001Z</time></trkpt><trkpt lat="38.06579132266613" lon="15.80338396988795"><ele>1129.0</ele><time>2026-04-25T08:43:11.001Z</time></trkpt><trkpt lat="38.06581962715358" lon="15.803473179502715"><ele>1130.1666666666665</ele><time>2026-04-25T08:43:12.001Z</time></trkpt><trkpt lat="38.06583959499989" lon="15.803553230562311"><ele>1131.3333333333333</ele><time>2026-04-25T08:43:13.001Z</time></trkpt><trkpt lat="38.06587055571606" lon="15.80369609580443"><ele>1132.5</ele><time>2026-04-25T08:43:15.001Z</time></trkpt><trkpt lat="38.0658872912581" lon="15.803778860034392"><ele>1133.6666666666667</ele><time>2026-04-25T08:43:17.001Z</time></trkpt><trkpt lat="38.065921986213354" lon="15.80388837328263"><ele>1134.8333333333335</ele><time>2026-04-25T08:43:19.001Z</time></trkpt><trkpt lat="38.065946590628656" lon="15.803966219244293"><ele>1136.0</ele><time>2026-04-25T08:43:20.001Z</time></trkpt><trkpt lat="38.065970985752706" lon="15.804106222575632"><ele>1136.0</ele><time>2026-04-25T08:43:22.001Z</time></trkpt><trkpt lat="38.06599696554218" lon="15.804225154615043"><ele>1136.0</ele><time>2026-04-25T08:43:24.001Z</time></trkpt><trkpt lat="38.06601855596226" lon="15.804349332582456"><ele>1136.0</ele><time>2026-04-25T08:43:26.001Z</time></trkpt><trkpt lat="38.066036058974085" lon="15.804488869099325"><ele>1136.0</ele><time>2026-04-25T08:43:28.001Z</time></trkpt><trkpt lat="38.06603443884152" lon="15.804609458608036"><ele>1136.0</ele><time>2026-04-25T08:43:30.001Z</time></trkpt><trkpt lat="38.066039117679225" lon="15.804692869617089"><ele>1136.6</ele><time>2026-04-25T08:43:31.001Z</time></trkpt><trkpt lat="38.06606237512827" lon="15.804842083453199"><ele>1137.1999999999998</ele><time>2026-04-25T08:43:33.001Z</time></trkpt><trkpt lat="38.06607649727981" lon="15.804991423122257"><ele>1137.8000000000002</ele><time>2026-04-25T08:43:35.001Z</time></trkpt><trkpt lat="38.06606789346369" lon="15.80511240467886"><ele>1138.4</ele><time>2026-04-25T08:43:37.001Z</time></trkpt><trkpt lat="38.06606133974898" lon="15.805194692930977"><ele>1139.0</ele><time>2026-04-25T08:43:38.001Z</time></trkpt><trkpt lat="38.066061416736225" lon="15.805339405106805"><ele>1139.4</ele><time>2026-04-25T08:43:40.001Z</time></trkpt><trkpt lat="38.06609095464613" lon="15.805499346958136"><ele>1139.8000000000002</ele><time>2026-04-25T08:43:42.001Z</time></trkpt><trkpt lat="38.06611472328274" lon="15.805652077050736"><ele>1140.1999999999998</ele><time>2026-04-25T08:43:44Z</time></trkpt><trkpt lat="38.066131646420935" lon="15.8057436389942"><ele>1140.6</ele><time>2026-04-25T08:43:45Z</time></trkpt><trkpt lat="38.06614643823719" lon="15.805833274616777"><ele>1141.0</ele><time>2026-04-25T08:43:46Z</time></trkpt><trkpt lat="38.06615959612602" lon="15.805915916476684"><ele>1141.2857142857142</ele><time>2026-04-25T08:43:47Z</time></trkpt><trkpt lat="38.06617171868696" lon="15.806003668610053"><ele>1141.5714285714284</ele><time>2026-04-25T08:43:48Z</time></trkpt><trkpt lat="38.06618589605033" lon="15.806095242989484"><ele>1141.857142857143</ele><time>2026-04-25T08:43:49Z</time></trkpt><trkpt lat="38.06620220386552" lon="15.806185767860125"><ele>1142.142857142857</ele><time>2026-04-25T08:43:50Z</time></trkpt><trkpt lat="38.06620837124627" lon="15.806281932861657"><ele>1142.4285714285713</ele><time>2026-04-25T08:43:51Z</time></trkpt><trkpt lat="38.066220928288054" lon="15.80636754080797"><ele>1142.7142857142858</ele><time>2026-04-25T08:43:52Z</time></trkpt><trkpt lat="38.06623274173232" lon="15.806450109872003"><ele>1143.0</ele><time>2026-04-25T08:43:53Z</time></trkpt><trkpt lat="38.066271708734064" lon="15.806583486900127"><ele>1143.0</ele><time>2026-04-25T08:43:55Z</time></trkpt><trkpt lat="38.06633834597494" lon="15.806699353593581"><ele>1143.0</ele><time>2026-04-25T08:43:57Z</time></trkpt><trkpt lat="38.066373033441906" lon="15.806858184324492"><ele>1143.0</ele><time>2026-04-25T08:43:59Z</time></trkpt><trkpt lat="38.06637554414101" lon="15.806942296225646"><ele>1143.0</ele><time>2026-04-25T08:44:00Z</time></trkpt><trkpt lat="38.06638765038419" lon="15.807035225749852"><ele>1143.0</ele><time>2026-04-25T08:44:01Z</time></trkpt><trkpt lat="38.0664057590062" lon="15.807121210320743"><ele>1143.4285714285713</ele><time>2026-04-25T08:44:02Z</time></trkpt><trkpt lat="38.06642683558567" lon="15.807213448282422"><ele>1143.8571428571427</ele><time>2026-04-25T08:44:03Z</time></trkpt><trkpt lat="38.066444153214874" lon="15.807302853520998"><ele>1144.2857142857142</ele><time>2026-04-25T08:44:04Z</time></trkpt><trkpt lat="38.06645495279265" lon="15.807387869876528"><ele>1144.7142857142858</ele><time>2026-04-25T08:44:05Z</time></trkpt><trkpt lat="38.06646902177324" lon="15.807468568088538"><ele>1145.1428571428573</ele><time>2026-04-25T08:44:06Z</time></trkpt><trkpt lat="38.06648795090168" lon="15.807549297401833"><ele>1145.5714285714287</ele><time>2026-04-25T08:44:07Z</time></trkpt><trkpt lat="38.06650950242203" lon="15.807632972758725"><ele>1146.0</ele><time>2026-04-25T08:44:08Z</time></trkpt><trkpt lat="38.06652871467129" lon="15.807718910746782"><ele>1146.5714285714287</ele><time>2026-04-25T08:44:09Z</time></trkpt><trkpt lat="38.06654822982159" lon="15.807807480869785"><ele>1147.1428571428573</ele><time>2026-04-25T08:44:10Z</time></trkpt><trkpt lat="38.06656492965861" lon="15.807899077364546"><ele>1147.7142857142858</ele><time>2026-04-25T08:44:11Z</time></trkpt><trkpt lat="38.06657255327268" lon="15.8079903616344"><ele>1148.2857142857142</ele><time>2026-04-25T08:44:12Z</time></trkpt><trkpt lat="38.06658740921785" lon="15.80808902754174"><ele>1148.8571428571427</ele><time>2026-04-25T08:44:13Z</time></trkpt><trkpt lat="38.06660009962745" lon="15.808179734991258"><ele>1149.4285714285713</ele><time>2026-04-25T08:44:14Z</time></trkpt><trkpt lat="38.06660657124901" lon="15.808279884901555"><ele>1150.0</ele><time>2026-04-25T08:44:15Z</time></trkpt><trkpt lat="38.06662129017095" lon="15.808378942606721"><ele>1150.0</ele><time>2026-04-25T08:44:16Z</time></trkpt><trkpt lat="38.066633930700085" lon="15.808473973448475"><ele>1150.0</ele><time>2026-04-25T08:44:17Z</time></trkpt><trkpt lat="38.0666493088031" lon="15.808571118596218"><ele>1150.0</ele><time>2026-04-25T08:44:18Z</time></trkpt><trkpt lat="38.06666408522747" lon="15.808657258857197"><ele>1150.0</ele><time>2026-04-25T08:44:19Z</time></trkpt><trkpt lat="38.066687499298496" lon="15.808750112356075"><ele>1150.0</ele><time>2026-04-25T08:44:20Z</time></trkpt><trkpt lat="38.066716074054305" lon="15.80884299822634"><ele>1150.0</ele><time>2026-04-25T08:44:21Z</time></trkpt><trkpt lat="38.06674531752987" lon="15.808941944887534"><ele>1150.0</ele><time>2026-04-25T08:44:22Z</time></trkpt><trkpt lat="38.066767099227945" lon="15.809024649145467"><ele>1150.0</ele><time>2026-04-25T08:44:23Z</time></trkpt><trkpt lat="38.066785335522276" lon="15.809111094211826"><ele>1150.0</ele><time>2026-04-25T08:44:24Z</time></trkpt><trkpt lat="38.0668196114104" lon="15.809207324522013"><ele>1150.0</ele><time>2026-04-25T08:44:25Z</time></trkpt><trkpt lat="38.066855287130416" lon="15.809321267204467"><ele>1150.0</ele><time>2026-04-25T08:44:26Z</time></trkpt><trkpt lat="38.06688938375082" lon="15.809445249335646"><ele>1150.0</ele><time>2026-04-25T08:44:27Z</time></trkpt><trkpt lat="38.06693536606797" lon="15.8095824657221"><ele>1150.2</ele><time>2026-04-25T08:44:28Z</time></trkpt><trkpt lat="38.06698678712218" lon="15.809716774285754"><ele>1150.4</ele><time>2026-04-25T08:44:29Z</time></trkpt><trkpt lat="38.06703459363124" lon="15.8098403117474"><ele>1150.6</ele><time>2026-04-25T08:44:30Z</time></trkpt><trkpt lat="38.067077349668736" lon="15.809936868543195"><ele>1150.8</ele><time>2026-04-25T08:44:31Z</time></trkpt><trkpt lat="38.06711968313025" lon="15.810029654514084"><ele>1151.0</ele><time>2026-04-25T08:44:32Z</time></trkpt><trkpt lat="38.0671501026637" lon="15.810099903573807"><ele>1152.2</ele><time>2026-04-25T08:44:33Z</time></trkpt><trkpt lat="38.067200234229105" lon="15.810212701246785"><ele>1153.3999999999999</ele><time>2026-04-25T08:44:35Z</time></trkpt><trkpt lat="38.06724906154269" lon="15.810321432868493"><ele>1154.6</ele><time>2026-04-25T08:44:38Z</time></trkpt><trkpt lat="38.06732598337151" lon="15.810423073426099"><ele>1155.8</ele><time>2026-04-25T08:44:40Z</time></trkpt><trkpt lat="38.06736534367168" lon="15.810508252699734"><ele>1157.0</ele><time>2026-04-25T08:44:42Z</time></trkpt><trkpt lat="38.06743877623898" lon="15.810595632793317"><ele>1157.142857142857</ele><time>2026-04-25T08:44:44.001Z</time></trkpt><trkpt lat="38.06750663372514" lon="15.810658015678664"><ele>1157.2857142857142</ele><time>2026-04-25T08:44:46.001Z</time></trkpt><trkpt lat="38.067573063791585" lon="15.810733748016412"><ele>1157.4285714285713</ele><time>2026-04-25T08:44:48.001Z</time></trkpt><trkpt lat="38.06761645206326" lon="15.810795588732057"><ele>1157.5714285714284</ele><time>2026-04-25T08:44:49.001Z</time></trkpt><trkpt lat="38.06767475548569" lon="15.810828085221903"><ele>1157.7142857142858</ele><time>2026-04-25T08:44:50.001Z</time></trkpt><trkpt lat="38.06772744265886" lon="15.810873361505172"><ele>1157.8571428571427</ele><time>2026-04-25T08:44:51.001Z</time></trkpt><trkpt lat="38.06778321206976" lon="15.810922803020018"><ele>1158.0</ele><time>2026-04-25T08:44:52.001Z</time></trkpt><trkpt lat="38.06784182948399" lon="15.81096984203902"><ele>1158.3333333333333</ele><time>2026-04-25T08:44:53.001Z</time></trkpt><trkpt lat="38.067895519687674" lon="15.811011681194545"><ele>1158.6666666666667</ele><time>2026-04-25T08:44:54.001Z</time></trkpt><trkpt lat="38.06794370488058" lon="15.811073077088151"><ele>1159.0</ele><time>2026-04-25T08:44:55.001Z</time></trkpt><trkpt lat="38.06805793254438" lon="15.811163386197292"><ele>1159.3333333333335</ele><time>2026-04-25T08:44:57.001Z</time></trkpt><trkpt lat="38.06812087863662" lon="15.811217920881653"><ele>1159.6666666666667</ele><time>2026-04-25T08:44:58.001Z</time></trkpt><trkpt lat="38.06819431246972" lon="15.811286311650488"><ele>1160.0</ele><time>2026-04-25T08:44:59.001Z</time></trkpt><trkpt lat="38.06829134632775" lon="15.811376314024155"><ele>1160.2857142857142</ele><time>2026-04-25T08:45:01.001Z</time></trkpt><trkpt lat="38.068327772393516" lon="15.811454008643292"><ele>1160.5714285714287</ele><time>2026-04-25T08:45:02.001Z</time></trkpt><trkpt lat="38.06836094279388" lon="15.81153020763609"><ele>1160.857142857143</ele><time>2026-04-25T08:45:03.001Z</time></trkpt><trkpt lat="38.06838319627057" lon="15.811610977113443"><ele>1161.142857142857</ele><time>2026-04-25T08:45:04.001Z</time></trkpt><trkpt lat="38.06840157947478" lon="15.811715390642439"><ele>1161.4285714285716</ele><time>2026-04-25T08:45:05.001Z</time></trkpt><trkpt lat="38.0684094352239" lon="15.811799602886142"><ele>1161.7142857142858</ele><time>2026-04-25T08:45:06.001Z</time></trkpt><trkpt lat="38.0684273134576" lon="15.811907437761164"><ele>1162.0</ele><time>2026-04-25T08:45:07.001Z</time></trkpt><trkpt lat="38.068451938149295" lon="15.812000040055134"><ele>1162.3333333333333</ele><time>2026-04-25T08:45:08.001Z</time></trkpt><trkpt lat="38.06847665995807" lon="15.812093072438872"><ele>1162.6666666666665</ele><time>2026-04-25T08:45:09.001Z</time></trkpt><trkpt lat="38.068515229979646" lon="15.812175531955159"><ele>1163.0</ele><time>2026-04-25T08:45:10.001Z</time></trkpt><trkpt lat="38.068566663454654" lon="15.812253473252662"><ele>1163.3333333333333</ele><time>2026-04-25T08:45:11.001Z</time></trkpt><trkpt lat="38.06861339941728" lon="15.812325625211129"><ele>1163.6666666666667</ele><time>2026-04-25T08:45:12.001Z</time></trkpt><trkpt lat="38.068661090372096" lon="15.812405994326214"><ele>1164.0</ele><time>2026-04-25T08:45:13.001Z</time></trkpt><trkpt lat="38.06871003761731" lon="15.81248109952571"><ele>1164.0</ele><time>2026-04-25T08:45:14.001Z</time></trkpt><trkpt lat="38.06876123147354" lon="15.81256523015777"><ele>1164.0</ele><time>2026-04-25T08:45:15.001Z</time></trkpt><trkpt lat="38.0688055691026" lon="15.812648701130659"><ele>1164.0</ele><time>2026-04-25T08:45:16.001Z</time></trkpt><trkpt lat="38.06884448331461" lon="15.812734574090943"><ele>1164.0</ele><time>2026-04-25T08:45:17.001Z</time></trkpt><trkpt lat="38.06889120103622" lon="15.812890307679531"><ele>1164.0</ele><time>2026-04-25T08:45:19.001Z</time></trkpt><trkpt lat="38.06895166223641" lon="15.813042863196792"><ele>1164.1666666666667</ele><time>2026-04-25T08:45:21.001Z</time></trkpt><trkpt lat="38.06899227859461" lon="15.813129477540288"><ele>1164.3333333333333</ele><time>2026-04-25T08:45:22.001Z</time></trkpt><trkpt lat="38.069035605795136" lon="15.81319951486618"><ele>1164.5</ele><time>2026-04-25T08:45:23.001Z</time></trkpt><trkpt lat="38.06908756676692" lon="15.813292046760342"><ele>1164.6666666666665</ele><time>2026-04-25T08:45:24.001Z</time></trkpt><trkpt lat="38.06914808605618" lon="15.813390314436326"><ele>1164.8333333333333</ele><time>2026-04-25T08:45:25.001Z</time></trkpt><trkpt lat="38.06922395793577" lon="15.813493425154567"><ele>1165.0</ele><time>2026-04-25T08:45:26.001Z</time></trkpt><trkpt lat="38.069298030383" lon="15.813576392633786"><ele>1165.8333333333333</ele><time>2026-04-25T08:45:27.001Z</time></trkpt><trkpt lat="38.06936545932451" lon="15.813647549831005"><ele>1166.6666666666665</ele><time>2026-04-25T08:45:28.001Z</time></trkpt><trkpt lat="38.069426125680096" lon="15.813725340828213"><ele>1167.5</ele><time>2026-04-25T08:45:29.001Z</time></trkpt><trkpt lat="38.06948604072325" lon="15.813804085344405"><ele>1168.3333333333333</ele><time>2026-04-25T08:45:30.001Z</time></trkpt><trkpt lat="38.069535843515" lon="15.813901529107804"><ele>1169.1666666666667</ele><time>2026-04-25T08:45:31.001Z</time></trkpt><trkpt lat="38.06958556286065" lon="15.813986728446965"><ele>1170.0</ele><time>2026-04-25T08:45:32.001Z</time></trkpt><trkpt lat="38.06963780156522" lon="15.814077344238214"><ele>1170.0</ele><time>2026-04-25T08:45:33.001Z</time></trkpt><trkpt lat="38.069690588633456" lon="15.814157531960838"><ele>1170.0</ele><time>2026-04-25T08:45:34.001Z</time></trkpt><trkpt lat="38.06972610939171" lon="15.814266032725586"><ele>1170.0</ele><time>2026-04-25T08:45:35.001Z</time></trkpt><trkpt lat="38.069772472698176" lon="15.814369906950992"><ele>1170.0</ele><time>2026-04-25T08:45:36.001Z</time></trkpt><trkpt lat="38.06980368431359" lon="15.814475591736887"><ele>1170.0</ele><time>2026-04-25T08:45:37.001Z</time></trkpt><trkpt lat="38.06986392533358" lon="15.814576944597322"><ele>1170.2</ele><time>2026-04-25T08:45:39.001Z</time></trkpt><trkpt lat="38.069891461474235" lon="15.814689772957873"><ele>1170.4</ele><time>2026-04-25T08:45:41.001Z</time></trkpt><trkpt lat="38.06990458971601" lon="15.814790045187287"><ele>1170.6</ele><time>2026-04-25T08:45:43.001Z</time></trkpt><trkpt lat="38.069936002642315" lon="15.81489978468352"><ele>1170.8</ele><time>2026-04-25T08:45:45.001Z</time></trkpt><trkpt lat="38.069967540633925" lon="15.815014364448697"><ele>1171.0</ele><time>2026-04-25T08:45:47.001Z</time></trkpt><trkpt lat="38.070011004884" lon="15.815172866379429"><ele>1171.6666666666665</ele><time>2026-04-25T08:45:49.001Z</time></trkpt><trkpt lat="38.070039776006325" lon="15.815276867129189"><ele>1172.3333333333333</ele><time>2026-04-25T08:45:50Z</time></trkpt><trkpt lat="38.070074375103616" lon="15.815365903131973"><ele>1173.0</ele><time>2026-04-25T08:45:51Z</time></trkpt><trkpt lat="38.07010690115934" lon="15.81544849053705"><ele>1173.6666666666667</ele><time>2026-04-25T08:45:52Z</time></trkpt><trkpt lat="38.07013537248641" lon="15.815563202626754"><ele>1174.3333333333335</ele><time>2026-04-25T08:45:53Z</time></trkpt><trkpt lat="38.070168328249366" lon="15.815669764342308"><ele>1175.0</ele><time>2026-04-25T08:45:54Z</time></trkpt><trkpt lat="38.07021239533237" lon="15.81578082875522"><ele>1175.0</ele><time>2026-04-25T08:45:55Z</time></trkpt><trkpt lat="38.070264526968906" lon="15.815896038364771"><ele>1175.0</ele><time>2026-04-25T08:45:56Z</time></trkpt><trkpt lat="38.07030527961054" lon="15.816011211675425"><ele>1175.0</ele><time>2026-04-25T08:45:57Z</time></trkpt><trkpt lat="38.07035458276812" lon="15.816145652036317"><ele>1175.0</ele><time>2026-04-25T08:45:59Z</time></trkpt><trkpt lat="38.07039004097686" lon="15.816223433524677"><ele>1175.0</ele><time>2026-04-25T08:46:02Z</time></trkpt><trkpt lat="38.07038569981394" lon="15.81634365818604"><ele>1175.0</ele><time>2026-04-25T08:46:04Z</time></trkpt><trkpt lat="38.0703468466575" lon="15.816475021725267"><ele>1175.0</ele><time>2026-04-25T08:46:05Z</time></trkpt><trkpt lat="38.07032073839209" lon="15.816597958123788"><ele>1175.0</ele><time>2026-04-25T08:46:06Z</time></trkpt><trkpt lat="38.070329080140915" lon="15.8167372128648"><ele>1175.0</ele><time>2026-04-25T08:46:07Z</time></trkpt><trkpt lat="38.070348952004636" lon="15.816874802337715"><ele>1175.0</ele><time>2026-04-25T08:46:08Z</time></trkpt><trkpt lat="38.070377351028625" lon="15.817021823767625"><ele>1175.75</ele><time>2026-04-25T08:46:09Z</time></trkpt><trkpt lat="38.07041917557923" lon="15.817180195858102"><ele>1176.5</ele><time>2026-04-25T08:46:10Z</time></trkpt><trkpt lat="38.0704696856713" lon="15.817356016305514"><ele>1177.25</ele><time>2026-04-25T08:46:11Z</time></trkpt><trkpt lat="38.07050842733827" lon="15.81752933452236"><ele>1178.0</ele><time>2026-04-25T08:46:12Z</time></trkpt><trkpt lat="38.070546732603844" lon="15.817703955908213"><ele>1178.75</ele><time>2026-04-25T08:46:13Z</time></trkpt><trkpt lat="38.07058429160392" lon="15.817880827706803"><ele>1179.5</ele><time>2026-04-25T08:46:14Z</time></trkpt><trkpt lat="38.070624821062935" lon="15.818057896099088"><ele>1180.25</ele><time>2026-04-25T08:46:15Z</time></trkpt><trkpt lat="38.070673525796934" lon="15.81823886397401"><ele>1181.0</ele><time>2026-04-25T08:46:16Z</time></trkpt><trkpt lat="38.070714649757946" lon="15.818414658036058"><ele>1181.0</ele><time>2026-04-25T08:46:17Z</time></trkpt><trkpt lat="38.07075448515557" lon="15.818586460084036"><ele>1181.0</ele><time>2026-04-25T08:46:18Z</time></trkpt><trkpt lat="38.07079282413935" lon="15.818755040611716"><ele>1181.0</ele><time>2026-04-25T08:46:19Z</time></trkpt><trkpt lat="38.07083408024531" lon="15.818921898968807"><ele>1181.0</ele><time>2026-04-25T08:46:20Z</time></trkpt><trkpt lat="38.07087570831698" lon="15.819085249485848"><ele>1181.0</ele><time>2026-04-25T08:46:21Z</time></trkpt><trkpt lat="38.070916193481665" lon="15.81925772394982"><ele>1181.0</ele><time>2026-04-25T08:46:22Z</time></trkpt><trkpt lat="38.07095169284698" lon="15.819427830469541"><ele>1181.0</ele><time>2026-04-25T08:46:23Z</time></trkpt><trkpt lat="38.07097917776828" lon="15.819593316875395"><ele>1181.0</ele><time>2026-04-25T08:46:24Z</time></trkpt><trkpt lat="38.07100343592235" lon="15.81976451499016"><ele>1182.25</ele><time>2026-04-25T08:46:25Z</time></trkpt><trkpt lat="38.071030239277825" lon="15.81994278035772"><ele>1183.5</ele><time>2026-04-25T08:46:26Z</time></trkpt><trkpt lat="38.071059143209624" lon="15.820122886621084"><ele>1184.75</ele><time>2026-04-25T08:46:27Z</time></trkpt><trkpt lat="38.07108698299955" lon="15.820299161047444"><ele>1186.0</ele><time>2026-04-25T08:46:28Z</time></trkpt><trkpt lat="38.071104767914335" lon="15.820479293208482"><ele>1186.0</ele><time>2026-04-25T08:46:29Z</time></trkpt><trkpt lat="38.07113162933677" lon="15.820657881236073"><ele>1186.0</ele><time>2026-04-25T08:46:30Z</time></trkpt><trkpt lat="38.071159546121585" lon="15.820838468000362"><ele>1186.0</ele><time>2026-04-25T08:46:31Z</time></trkpt><trkpt lat="38.071191748459576" lon="15.82100371489107"><ele>1186.0</ele><time>2026-04-25T08:46:32Z</time></trkpt><trkpt lat="38.07123047048797" lon="15.821159634443022"><ele>1186.75</ele><time>2026-04-25T08:46:33Z</time></trkpt><trkpt lat="38.071299405471606" lon="15.821278891330145"><ele>1187.5</ele><time>2026-04-25T08:46:34Z</time></trkpt><trkpt lat="38.07138593122954" lon="15.821420836842975"><ele>1188.25</ele><time>2026-04-25T08:46:35Z</time></trkpt><trkpt lat="38.07147931877912" lon="15.82156975967838"><ele>1189.0</ele><time>2026-04-25T08:46:36Z</time></trkpt><trkpt lat="38.07157681823224" lon="15.821722393573618"><ele>1190.8</ele><time>2026-04-25T08:46:37Z</time></trkpt><trkpt lat="38.0716507805547" lon="15.821828114897459"><ele>1192.6000000000001</ele><time>2026-04-25T08:46:38Z</time></trkpt><trkpt lat="38.07172073156109" lon="15.821956088540174"><ele>1194.4</ele><time>2026-04-25T08:46:39Z</time></trkpt><trkpt lat="38.07179024044607" lon="15.822088645814043"><ele>1196.2</ele><time>2026-04-25T08:46:41Z</time></trkpt><trkpt lat="38.07181869438858" lon="15.822185614384269"><ele>1198.0</ele><time>2026-04-25T08:46:43Z</time></trkpt><trkpt lat="38.0718036269331" lon="15.822275591262713"><ele>1198.0</ele><time>2026-04-25T08:46:47Z</time></trkpt><trkpt lat="38.071686496988306" lon="15.822277861140527"><ele>1198.0</ele><time>2026-04-25T08:46:49Z</time></trkpt><trkpt lat="38.071577722754974" lon="15.822227624550123"><ele>1198.0</ele><time>2026-04-25T08:46:51Z</time></trkpt><trkpt lat="38.0714956669735" lon="15.822187797525494"><ele>1198.0</ele><time>2026-04-25T08:46:53Z</time></trkpt><trkpt lat="38.07140596367434" lon="15.822158742073153"><ele>1198.0</ele><time>2026-04-25T08:46:55Z</time></trkpt><trkpt lat="38.071319362625374" lon="15.822124704463162"><ele>1193.0</ele><time>2026-04-25T08:46:58Z</time></trkpt><trkpt lat="38.071260316373056" lon="15.822078218712525"><ele>1193.0</ele><time>2026-04-25T08:47:00Z</time></trkpt><trkpt lat="38.07123395121614" lon="15.8219829789446"><ele>1193.0</ele><time>2026-04-25T08:47:34.001Z</time></trkpt><trkpt lat="38.071193913759124" lon="15.821918421633494"><ele>1193.0</ele><time>2026-04-25T08:47:39.001Z</time></trkpt><trkpt lat="38.0712487459531" lon="15.821979151739283"><ele>1193.0</ele><time>2026-04-25T08:47:45.001Z</time></trkpt></trkseg><trkseg><trkpt lat="38.07127902352263" lon="15.822093342636018"><ele>1193.0</ele><time>2026-04-25T09:03:24Z</time></trkpt><trkpt lat="38.07135258115727" lon="15.822072993130288"><ele>1193.0</ele><time>2026-04-25T09:04:20.999Z</time></trkpt><trkpt lat="38.07145685952423" lon="15.822121295175911"><ele>1193.0</ele><time>2026-04-25T09:04:22.999Z</time></trkpt><trkpt lat="38.071579399200786" lon="15.822172941986683"><ele>1193.0</ele><time>2026-04-25T09:04:24.999Z</time></trkpt><trkpt lat="38.07163983630057" lon="15.822203968897822"><ele>1193.0</ele><time>2026-04-25T09:04:25.999Z</time></trkpt><trkpt lat="38.071703727571496" lon="15.822232199892218"><ele>1193.0</ele><time>2026-04-25T09:04:26.999Z</time></trkpt><trkpt lat="38.07180571118622" lon="15.822269624869305"><ele>1194.0</ele><time>2026-04-25T09:04:28.999Z</time></trkpt><trkpt lat="38.07187269819152" lon="15.82232363134216"><ele>1195.0</ele><time>2026-04-25T09:04:31.999Z</time></trkpt><trkpt lat="38.0719320961275" lon="15.822408904681074"><ele>1196.0</ele><time>2026-04-25T09:04:34.999Z</time></trkpt><trkpt lat="38.07191035969169" lon="15.822521463413647"><ele>1197.0</ele><time>2026-04-25T09:04:36.999Z</time></trkpt><trkpt lat="38.071848444668625" lon="15.822641427480804"><ele>1198.0</ele><time>2026-04-25T09:04:38.999Z</time></trkpt><trkpt lat="38.07176814546291" lon="15.822713701795438"><ele>1198.0</ele><time>2026-04-25T09:04:39.999Z</time></trkpt><trkpt lat="38.07172328022001" lon="15.822823531088089"><ele>1198.0</ele><time>2026-04-25T09:04:40.999Z</time></trkpt><trkpt lat="38.07166689188337" lon="15.82289639081368"><ele>1198.0</ele><time>2026-04-25T09:04:41.999Z</time></trkpt><trkpt lat="38.07160743413412" lon="15.822999003543927"><ele>1198.0</ele><time>2026-04-25T09:04:42.999Z</time></trkpt><trkpt lat="38.07154427569058" lon="15.823102461200444"><ele>1198.0</ele><time>2026-04-25T09:04:43.999Z</time></trkpt><trkpt lat="38.07148093812776" lon="15.823196274402669"><ele>1198.0</ele><time>2026-04-25T09:04:45Z</time></trkpt><trkpt lat="38.071413412672406" lon="15.823302310172672"><ele>1198.0</ele><time>2026-04-25T09:04:46Z</time></trkpt><trkpt lat="38.07135188224286" lon="15.823379610801576"><ele>1198.0</ele><time>2026-04-25T09:04:47Z</time></trkpt><trkpt lat="38.07126826767657" lon="15.823505813134132"><ele>1198.0</ele><time>2026-04-25T09:04:49Z</time></trkpt><trkpt lat="38.07121897154513" lon="15.82358692914012"><ele>1198.0</ele><time>2026-04-25T09:04:50Z</time></trkpt><trkpt lat="38.07116775483476" lon="15.823683079257538"><ele>1199.0</ele><time>2026-04-25T09:04:51Z</time></trkpt><trkpt lat="38.07112183175062" lon="15.8237605678134"><ele>1200.0</ele><time>2026-04-25T09:04:52Z</time></trkpt><trkpt lat="38.07106836862044" lon="15.823854760114886"><ele>1201.0</ele><time>2026-04-25T09:04:53Z</time></trkpt><trkpt lat="38.071032340793764" lon="15.823941670633886"><ele>1202.0</ele><time>2026-04-25T09:04:54Z</time></trkpt><trkpt lat="38.07098875518816" lon="15.82405757552875"><ele>1203.0</ele><time>2026-04-25T09:04:55Z</time></trkpt><trkpt lat="38.07092738036095" lon="15.824177792199972"><ele>1203.0</ele><time>2026-04-25T09:04:56Z</time></trkpt><trkpt lat="38.07087787768491" lon="15.824278624279861"><ele>1203.0</ele><time>2026-04-25T09:04:57Z</time></trkpt><trkpt lat="38.070831479521935" lon="15.82439091723873"><ele>1203.0</ele><time>2026-04-25T09:04:58Z</time></trkpt><trkpt lat="38.07078231045086" lon="15.82449809604486"><ele>1203.0</ele><time>2026-04-25T09:04:59Z</time></trkpt><trkpt lat="38.07074329540743" lon="15.824619874201948"><ele>1203.0</ele><time>2026-04-25T09:05:00Z</time></trkpt><trkpt lat="38.070721559072986" lon="15.824739508182965"><ele>1203.0</ele><time>2026-04-25T09:05:01Z</time></trkpt><trkpt lat="38.07070407878592" lon="15.824859281190655"><ele>1203.0</ele><time>2026-04-25T09:05:02Z</time></trkpt><trkpt lat="38.07068374936347" lon="15.824969125659266"><ele>1203.0</ele><time>2026-04-25T09:05:03Z</time></trkpt><trkpt lat="38.07065896057993" lon="15.825085564593502"><ele>1203.0</ele><time>2026-04-25T09:05:04Z</time></trkpt><trkpt lat="38.07062359357548" lon="15.825212066227081"><ele>1203.0</ele><time>2026-04-25T09:05:05Z</time></trkpt><trkpt lat="38.07059404706106" lon="15.8253249130657"><ele>1204.3333333333333</ele><time>2026-04-25T09:05:06Z</time></trkpt><trkpt lat="38.070582070770726" lon="15.825418173157066"><ele>1205.6666666666667</ele><time>2026-04-25T09:05:07Z</time></trkpt><trkpt lat="38.070555219802095" lon="15.825514627374892"><ele>1207.0</ele><time>2026-04-25T09:05:08Z</time></trkpt><trkpt lat="38.07053235843778" lon="15.825624316339713"><ele>1208.3333333333335</ele><time>2026-04-25T09:05:09Z</time></trkpt><trkpt lat="38.070504583423" lon="15.825736374733653"><ele>1209.6666666666667</ele><time>2026-04-25T09:05:10Z</time></trkpt><trkpt lat="38.07047568414757" lon="15.825829253449319"><ele>1211.0</ele><time>2026-04-25T09:05:11Z</time></trkpt><trkpt lat="38.07046385554668" lon="15.825917420662364"><ele>1212.6</ele><time>2026-04-25T09:05:12Z</time></trkpt><trkpt lat="38.070432833773374" lon="15.826026892119438"><ele>1214.1999999999998</ele><time>2026-04-25T09:05:13Z</time></trkpt><trkpt lat="38.07041068498823" lon="15.826150606296306"><ele>1215.8000000000002</ele><time>2026-04-25T09:05:14Z</time></trkpt><trkpt lat="38.07038866040371" lon="15.826256070099664"><ele>1217.4</ele><time>2026-04-25T09:05:15Z</time></trkpt><trkpt lat="38.07036642161577" lon="15.826358567012985"><ele>1219.0</ele><time>2026-04-25T09:05:16Z</time></trkpt><trkpt lat="38.07037182960241" lon="15.826500817113827"><ele>1219.0</ele><time>2026-04-25T09:05:18Z</time></trkpt><trkpt lat="38.07038772553504" lon="15.826580717906738"><ele>1219.0</ele><time>2026-04-25T09:05:20Z</time></trkpt><trkpt lat="38.07039520452894" lon="15.826668574326675"><ele>1219.0</ele><time>2026-04-25T09:05:21Z</time></trkpt><trkpt lat="38.07038190888673" lon="15.826832265568454"><ele>1219.0</ele><time>2026-04-25T09:05:22Z</time></trkpt><trkpt lat="38.07037937977778" lon="15.82694638855063"><ele>1219.0</ele><time>2026-04-25T09:05:23Z</time></trkpt><trkpt lat="38.070370480384504" lon="15.82703201816754"><ele>1219.0</ele><time>2026-04-25T09:05:24Z</time></trkpt><trkpt lat="38.07041617456889" lon="15.827121905615547"><ele>1218.3333333333333</ele><time>2026-04-25T09:05:25Z</time></trkpt><trkpt lat="38.070517959680835" lon="15.827205289845049"><ele>1217.6666666666665</ele><time>2026-04-25T09:05:27Z</time></trkpt><trkpt lat="38.07058056205799" lon="15.82722241138521"><ele>1217.0</ele><time>2026-04-25T09:05:28Z</time></trkpt><trkpt lat="38.070644448291475" lon="15.82722354274965"><ele>1216.3333333333333</ele><time>2026-04-25T09:05:29Z</time></trkpt><trkpt lat="38.070705532496795" lon="15.827258345069305"><ele>1215.6666666666667</ele><time>2026-04-25T09:05:30Z</time></trkpt><trkpt lat="38.07078495674254" lon="15.827256963198208"><ele>1215.0</ele><time>2026-04-25T09:05:31Z</time></trkpt><trkpt lat="38.07085869121785" lon="15.827262779147633"><ele>1215.0</ele><time>2026-04-25T09:05:32Z</time></trkpt><trkpt lat="38.07091035613165" lon="15.827322564047417"><ele>1215.0</ele><time>2026-04-25T09:05:33Z</time></trkpt><trkpt lat="38.07098878089894" lon="15.827395578867288"><ele>1215.0</ele><time>2026-04-25T09:05:35Z</time></trkpt><trkpt lat="38.071006366693126" lon="15.827492933765631"><ele>1215.0</ele><time>2026-04-25T09:05:37Z</time></trkpt><trkpt lat="38.07090615895619" lon="15.827502481028894"><ele>1215.0</ele><time>2026-04-25T09:05:39Z</time></trkpt><trkpt lat="38.07085537552686" lon="15.827568201903516"><ele>1215.0</ele><time>2026-04-25T09:05:41Z</time></trkpt><trkpt lat="38.070786805392004" lon="15.8276231640203"><ele>1212.5</ele><time>2026-04-25T09:05:42Z</time></trkpt><trkpt lat="38.07074700499163" lon="15.827693243050502"><ele>1210.0</ele><time>2026-04-25T09:05:42.999Z</time></trkpt><trkpt lat="38.07072372962636" lon="15.827786499926287"><ele>1207.5</ele><time>2026-04-25T09:05:43.999Z</time></trkpt><trkpt lat="38.07071369983146" lon="15.827897933947341"><ele>1205.0</ele><time>2026-04-25T09:05:44.999Z</time></trkpt><trkpt lat="38.07068346596687" lon="15.82797156772543"><ele>1202.5</ele><time>2026-04-25T09:05:45.999Z</time></trkpt><trkpt lat="38.07069892023715" lon="15.828075103428468"><ele>1200.0</ele><time>2026-04-25T09:05:46.999Z</time></trkpt><trkpt lat="38.07070478605141" lon="15.8282200288651"><ele>1200.0</ele><time>2026-04-25T09:05:47.999Z</time></trkpt><trkpt lat="38.07070420726032" lon="15.828355416822593"><ele>1200.0</ele><time>2026-04-25T09:05:48.999Z</time></trkpt><trkpt lat="38.070714408785534" lon="15.828476215784983"><ele>1200.0</ele><time>2026-04-25T09:05:49.999Z</time></trkpt><trkpt lat="38.070713720555105" lon="15.828578999587188"><ele>1200.0</ele><time>2026-04-25T09:05:50.999Z</time></trkpt><trkpt lat="38.070710978696255" lon="15.8286667814709"><ele>1200.0</ele><time>2026-04-25T09:05:51.999Z</time></trkpt><trkpt lat="38.070686243013014" lon="15.82874031905385"><ele>1200.0</ele><time>2026-04-25T09:05:52.999Z</time></trkpt><trkpt lat="38.07075922693273" lon="15.828812153333528"><ele>1199.5</ele><time>2026-04-25T09:05:53.999Z</time></trkpt><trkpt lat="38.070801756816685" lon="15.82887857338104"><ele>1199.0</ele><time>2026-04-25T09:05:54.999Z</time></trkpt><trkpt lat="38.0708638978621" lon="15.828943647344818"><ele>1198.5</ele><time>2026-04-25T09:05:55.999Z</time></trkpt><trkpt lat="38.07095050227824" lon="15.828931227722684"><ele>1198.0</ele><time>2026-04-25T09:05:56.999Z</time></trkpt><trkpt lat="38.07102009162437" lon="15.828896078540634"><ele>1197.5</ele><time>2026-04-25T09:05:57.999Z</time></trkpt><trkpt lat="38.07107798289486" lon="15.82885536453191"><ele>1197.0</ele><time>2026-04-25T09:05:58.999Z</time></trkpt><trkpt lat="38.07119585728635" lon="15.828826589099405"><ele>1197.0</ele><time>2026-04-25T09:06:00.999Z</time></trkpt><trkpt lat="38.07130941716247" lon="15.828839818951502"><ele>1197.0</ele><time>2026-04-25T09:06:02.999Z</time></trkpt><trkpt lat="38.07140327594291" lon="15.828847220165441"><ele>1197.0</ele><time>2026-04-25T09:06:03.999Z</time></trkpt><trkpt lat="38.071528469206335" lon="15.828866358011442"><ele>1197.0</ele><time>2026-04-25T09:06:05.999Z</time></trkpt><trkpt lat="38.07157855545104" lon="15.82894009764409"><ele>1197.0</ele><time>2026-04-25T09:06:07.999Z</time></trkpt><trkpt lat="38.07160113308709" lon="15.829040282110416"><ele>1197.0</ele><time>2026-04-25T09:06:09.999Z</time></trkpt><trkpt lat="38.07157281072555" lon="15.829124594752194"><ele>1197.0</ele><time>2026-04-25T09:06:11.999Z</time></trkpt><trkpt lat="38.071514881435895" lon="15.829181240766031"><ele>1197.0</ele><time>2026-04-25T09:06:13.999Z</time></trkpt><trkpt lat="38.071448109631746" lon="15.829205426935623"><ele>1197.0</ele><time>2026-04-25T09:06:14.999Z</time></trkpt><trkpt lat="38.07133540720208" lon="15.829192058475664"><ele>1197.0</ele><time>2026-04-25T09:06:16.999Z</time></trkpt><trkpt lat="38.071219725389476" lon="15.829193000310292"><ele>1197.0</ele><time>2026-04-25T09:06:18.999Z</time></trkpt><trkpt lat="38.0710972438599" lon="15.829230107101054"><ele>1195.4</ele><time>2026-04-25T09:06:20.999Z</time></trkpt><trkpt lat="38.071020706568696" lon="15.829316469324475"><ele>1193.8000000000002</ele><time>2026-04-25T09:06:22.999Z</time></trkpt><trkpt lat="38.07097859528235" lon="15.829478604480872"><ele>1192.2</ele><time>2026-04-25T09:06:24.999Z</time></trkpt><trkpt lat="38.0709615156031" lon="15.829573991537508"><ele>1190.6000000000001</ele><time>2026-04-25T09:06:25.999Z</time></trkpt><trkpt lat="38.07090185452911" lon="15.829625186006172"><ele>1189.0</ele><time>2026-04-25T09:06:26.999Z</time></trkpt><trkpt lat="38.07084735121895" lon="15.829689139490467"><ele>1189.0</ele><time>2026-04-25T09:06:27.999Z</time></trkpt><trkpt lat="38.0708120987164" lon="15.829784348860901"><ele>1189.0</ele><time>2026-04-25T09:06:28.999Z</time></trkpt><trkpt lat="38.07075193182948" lon="15.829926931833686"><ele>1189.0</ele><time>2026-04-25T09:06:30.999Z</time></trkpt><trkpt lat="38.0706478212921" lon="15.829975522575605"><ele>1189.0</ele><time>2026-04-25T09:06:32.999Z</time></trkpt><trkpt lat="38.07052143582166" lon="15.829918402701011"><ele>1187.8333333333333</ele><time>2026-04-25T09:06:34.999Z</time></trkpt><trkpt lat="38.070443013105184" lon="15.82987934346135"><ele>1186.6666666666665</ele><time>2026-04-25T09:06:35.999Z</time></trkpt><trkpt lat="38.070368665368825" lon="15.829844193618692"><ele>1185.5</ele><time>2026-04-25T09:06:36.999Z</time></trkpt><trkpt lat="38.07029482851771" lon="15.829804636712554"><ele>1184.3333333333333</ele><time>2026-04-25T09:06:37.999Z</time></trkpt><trkpt lat="38.07022078845665" lon="15.829779688881652"><ele>1183.1666666666667</ele><time>2026-04-25T09:06:38.999Z</time></trkpt><trkpt lat="38.07014505091913" lon="15.829784398188627"><ele>1182.0</ele><time>2026-04-25T09:06:39.999Z</time></trkpt><trkpt lat="38.07005783512495" lon="15.829811349549974"><ele>1182.0</ele><time>2026-04-25T09:06:40.999Z</time></trkpt><trkpt lat="38.06997932287377" lon="15.829833703071007"><ele>1182.0</ele><time>2026-04-25T09:06:41.999Z</time></trkpt><trkpt lat="38.06989016430722" lon="15.82983895224277"><ele>1182.0</ele><time>2026-04-25T09:06:42.999Z</time></trkpt><trkpt lat="38.06982191608558" lon="15.829858561159979"><ele>1182.0</ele><time>2026-04-25T09:06:43.999Z</time></trkpt><trkpt lat="38.069749368867235" lon="15.829873318586808"><ele>1182.0</ele><time>2026-04-25T09:06:44.999Z</time></trkpt><trkpt lat="38.06967309147764" lon="15.829862017612413"><ele>1182.0</ele><time>2026-04-25T09:06:45.999Z</time></trkpt><trkpt lat="38.06959422664779" lon="15.82985588475984"><ele>1179.8333333333333</ele><time>2026-04-25T09:06:46.999Z</time></trkpt><trkpt lat="38.069497171267116" lon="15.829837584180327"><ele>1177.6666666666667</ele><time>2026-04-25T09:06:47.999Z</time></trkpt><trkpt lat="38.069423503059156" lon="15.829826887461348"><ele>1175.5</ele><time>2026-04-25T09:06:48.999Z</time></trkpt><trkpt lat="38.06933353766976" lon="15.829831537572598"><ele>1173.3333333333335</ele><time>2026-04-25T09:06:49.999Z</time></trkpt><trkpt lat="38.06924836267725" lon="15.82983131761744"><ele>1171.1666666666667</ele><time>2026-04-25T09:06:50.999Z</time></trkpt><trkpt lat="38.069157133717326" lon="15.829853540679226"><ele>1169.0</ele><time>2026-04-25T09:06:51.999Z</time></trkpt><trkpt lat="38.06907974451068" lon="15.829900848348244"><ele>1166.3333333333335</ele><time>2026-04-25T09:06:52.999Z</time></trkpt><trkpt lat="38.06901623961421" lon="15.829949523494797"><ele>1163.6666666666667</ele><time>2026-04-25T09:06:53.999Z</time></trkpt><trkpt lat="38.06893270068159" lon="15.829959078239423"><ele>1161.0</ele><time>2026-04-25T09:06:54.999Z</time></trkpt><trkpt lat="38.06890427802834" lon="15.830057042430283"><ele>1158.3333333333333</ele><time>2026-04-25T09:06:56.999Z</time></trkpt><trkpt lat="38.068986338094014" lon="15.83018276152216"><ele>1155.6666666666665</ele><time>2026-04-25T09:06:58.999Z</time></trkpt><trkpt lat="38.06905064488101" lon="15.830240061366995"><ele>1153.0</ele><time>2026-04-25T09:06:59.999Z</time></trkpt><trkpt lat="38.069111170040166" lon="15.830306899811001"><ele>1153.0</ele><time>2026-04-25T09:07:00.999Z</time></trkpt><trkpt lat="38.0691592934037" lon="15.830392875036866"><ele>1153.0</ele><time>2026-04-25T09:07:01.999Z</time></trkpt><trkpt lat="38.069202540216914" lon="15.830482035542452"><ele>1153.0</ele><time>2026-04-25T09:07:02.999Z</time></trkpt><trkpt lat="38.06925207774053" lon="15.830554849854408"><ele>1153.0</ele><time>2026-04-25T09:07:03.999Z</time></trkpt><trkpt lat="38.06930027867385" lon="15.830615313260827"><ele>1153.0</ele><time>2026-04-25T09:07:04.999Z</time></trkpt><trkpt lat="38.069352483291794" lon="15.830673274675682"><ele>1153.0</ele><time>2026-04-25T09:07:05.999Z</time></trkpt><trkpt lat="38.06935642000871" lon="15.830843946956447"><ele>1153.0</ele><time>2026-04-25T09:07:07.999Z</time></trkpt><trkpt lat="38.06933302669191" lon="15.830957167577399"><ele>1153.0</ele><time>2026-04-25T09:07:08.999Z</time></trkpt><trkpt lat="38.06931021074282" lon="15.831061024793248"><ele>1153.0</ele><time>2026-04-25T09:07:09.999Z</time></trkpt><trkpt lat="38.069294459841636" lon="15.831159099572446"><ele>1153.0</ele><time>2026-04-25T09:07:10.999Z</time></trkpt><trkpt lat="38.06930407931592" lon="15.831254667290555"><ele>1153.0</ele><time>2026-04-25T09:07:11.999Z</time></trkpt><trkpt lat="38.06935262748359" lon="15.831326983518506"><ele>1153.0</ele><time>2026-04-25T09:07:12.999Z</time></trkpt><trkpt lat="38.06944407345466" lon="15.831356044472724"><ele>1148.4</ele><time>2026-04-25T09:07:14.999Z</time></trkpt><trkpt lat="38.069557559366125" lon="15.831362806007737"><ele>1143.8</ele><time>2026-04-25T09:07:16.999Z</time></trkpt><trkpt lat="38.06965536699363" lon="15.831332228025419"><ele>1139.2</ele><time>2026-04-25T09:07:18.999Z</time></trkpt><trkpt lat="38.0697355583657" lon="15.831314054361732"><ele>1134.6</ele><time>2026-04-25T09:07:20.999Z</time></trkpt><trkpt lat="38.06981309989274" lon="15.83134388654172"><ele>1130.0</ele><time>2026-04-25T09:07:22.999Z</time></trkpt><trkpt lat="38.069826650187736" lon="15.831437542286297"><ele>1130.0</ele><time>2026-04-25T09:07:24.999Z</time></trkpt><trkpt lat="38.06974041297492" lon="15.831496948898291"><ele>1130.0</ele><time>2026-04-25T09:07:26.999Z</time></trkpt><trkpt lat="38.069637015254365" lon="15.83152180292265"><ele>1130.0</ele><time>2026-04-25T09:07:28.999Z</time></trkpt><trkpt lat="38.06957044600399" lon="15.831587246047972"><ele>1130.0</ele><time>2026-04-25T09:07:30.999Z</time></trkpt><trkpt lat="38.06958881862106" lon="15.831689050156575"><ele>1130.0</ele><time>2026-04-25T09:07:32.999Z</time></trkpt><trkpt lat="38.069657011078874" lon="15.831733267063841"><ele>1130.0</ele><time>2026-04-25T09:07:34.999Z</time></trkpt><trkpt lat="38.0697285693563" lon="15.831664518916723"><ele>1130.0</ele><time>2026-04-25T09:07:36.999Z</time></trkpt><trkpt lat="38.06982065176439" lon="15.831580834154689"><ele>1130.0</ele><time>2026-04-25T09:07:38.999Z</time></trkpt><trkpt lat="38.06988099294058" lon="15.831556027435832"><ele>1130.0</ele><time>2026-04-25T09:07:39.999Z</time></trkpt><trkpt lat="38.069961211246685" lon="15.831486770083032"><ele>1130.0</ele><time>2026-04-25T09:07:41.999Z</time></trkpt><trkpt lat="38.070059344247476" lon="15.831394441476274"><ele>1130.0</ele><time>2026-04-25T09:07:43.999Z</time></trkpt><trkpt lat="38.07016151725367" lon="15.83131174637697"><ele>1131.0</ele><time>2026-04-25T09:07:45.999Z</time></trkpt><trkpt lat="38.070280666867625" lon="15.831254234654025"><ele>1132.0</ele><time>2026-04-25T09:07:47.999Z</time></trkpt><trkpt lat="38.07034186164574" lon="15.831227236839228"><ele>1133.0</ele><time>2026-04-25T09:07:48.999Z</time></trkpt><trkpt lat="38.07040915401142" lon="15.831197612535897"><ele>1134.0</ele><time>2026-04-25T09:07:49.999Z</time></trkpt><trkpt lat="38.07049124793138" lon="15.831170280268328"><ele>1135.0</ele><time>2026-04-25T09:07:50.999Z</time></trkpt><trkpt lat="38.070566900480074" lon="15.831133998856263"><ele>1136.0</ele><time>2026-04-25T09:07:51.999Z</time></trkpt><trkpt lat="38.07066261670487" lon="15.831122451996851"><ele>1136.0</ele><time>2026-04-25T09:07:53.999Z</time></trkpt><trkpt lat="38.07076064518961" lon="15.83114084171894"><ele>1136.0</ele><time>2026-04-25T09:07:55.999Z</time></trkpt><trkpt lat="38.07089494283137" lon="15.831162504906379"><ele>1136.0</ele><time>2026-04-25T09:07:57.999Z</time></trkpt><trkpt lat="38.07100152926063" lon="15.831187457902807"><ele>1136.0</ele><time>2026-04-25T09:07:59.999Z</time></trkpt><trkpt lat="38.071097098408224" lon="15.83122063970878"><ele>1136.0</ele><time>2026-04-25T09:08:01.999Z</time></trkpt><trkpt lat="38.07120246678008" lon="15.831245979842368"><ele>1131.2</ele><time>2026-04-25T09:08:03.999Z</time></trkpt><trkpt lat="38.071307122785655" lon="15.831319828827978"><ele>1126.3999999999999</ele><time>2026-04-25T09:08:05.999Z</time></trkpt><trkpt lat="38.071401335487096" lon="15.831394772227645"><ele>1121.6</ele><time>2026-04-25T09:08:07.999Z</time></trkpt><trkpt lat="38.071480771283426" lon="15.831442617140198"><ele>1116.8</ele><time>2026-04-25T09:08:09.999Z</time></trkpt><trkpt lat="38.07151061826779" lon="15.831526884166678"><ele>1112.0</ele><time>2026-04-25T09:08:11.999Z</time></trkpt><trkpt lat="38.07144742457435" lon="15.831578578010221"><ele>1112.0</ele><time>2026-04-25T09:08:13.999Z</time></trkpt><trkpt lat="38.07134008534408" lon="15.831524225156462"><ele>1112.0</ele><time>2026-04-25T09:08:15.999Z</time></trkpt><trkpt lat="38.071240792523504" lon="15.831463355138224"><ele>1112.0</ele><time>2026-04-25T09:08:17.999Z</time></trkpt><trkpt lat="38.07113988908038" lon="15.831481066752415"><ele>1112.0</ele><time>2026-04-25T09:08:19.999Z</time></trkpt><trkpt lat="38.07104614830912" lon="15.831538887126465"><ele>1112.0</ele><time>2026-04-25T09:08:21.999Z</time></trkpt><trkpt lat="38.07099024055572" lon="15.831613533395068"><ele>1112.0</ele><time>2026-04-25T09:08:23.999Z</time></trkpt><trkpt lat="38.0709177918338" lon="15.831690531943035"><ele>1112.0</ele><time>2026-04-25T09:08:25.999Z</time></trkpt><trkpt lat="38.07086166927468" lon="15.831766655532103"><ele>1112.0</ele><time>2026-04-25T09:08:27.999Z</time></trkpt><trkpt lat="38.07081471009646" lon="15.831846435761959"><ele>1112.0</ele><time>2026-04-25T09:08:29.999Z</time></trkpt><trkpt lat="38.070750239117736" lon="15.831902773778847"><ele>1112.0</ele><time>2026-04-25T09:08:31.999Z</time></trkpt><trkpt lat="38.070652283987314" lon="15.832025139982104"><ele>1107.0</ele><time>2026-04-25T09:08:34.999Z</time></trkpt><trkpt lat="38.070563141950686" lon="15.832128676826606"><ele>1102.0</ele><time>2026-04-25T09:08:36.999Z</time></trkpt><trkpt lat="38.07046040143812" lon="15.83219624350454"><ele>1097.0</ele><time>2026-04-25T09:08:38.999Z</time></trkpt><trkpt lat="38.07039556053492" lon="15.832283828878397"><ele>1092.0</ele><time>2026-04-25T09:08:40.999Z</time></trkpt><trkpt lat="38.07047152861586" lon="15.83237462869567"><ele>1087.0</ele><time>2026-04-25T09:08:42.999Z</time></trkpt><trkpt lat="38.070554990261684" lon="15.83237460010188"><ele>1087.0</ele><time>2026-04-25T09:08:43.999Z</time></trkpt><trkpt lat="38.0706333984941" lon="15.832403209784314"><ele>1087.0</ele><time>2026-04-25T09:08:44.999Z</time></trkpt><trkpt lat="38.070694955987456" lon="15.832444265347712"><ele>1087.0</ele><time>2026-04-25T09:08:45.999Z</time></trkpt><trkpt lat="38.07081953109134" lon="15.832552021247842"><ele>1087.0</ele><time>2026-04-25T09:08:47.999Z</time></trkpt><trkpt lat="38.07088343614519" lon="15.832574640993636"><ele>1087.0</ele><time>2026-04-25T09:08:48.999Z</time></trkpt><trkpt lat="38.07093328581125" lon="15.832657427001687"><ele>1087.0</ele><time>2026-04-25T09:08:50.999Z</time></trkpt><trkpt lat="38.07083078116574" lon="15.832736471996744"><ele>1087.0</ele><time>2026-04-25T09:08:52.999Z</time></trkpt><trkpt lat="38.0707578995999" lon="15.832716142550327"><ele>1087.0</ele><time>2026-04-25T09:08:53.999Z</time></trkpt><trkpt lat="38.07069313626761" lon="15.832659594962937"><ele>1087.0</ele><time>2026-04-25T09:08:54.999Z</time></trkpt><trkpt lat="38.070631688995256" lon="15.832637748240321"><ele>1087.0</ele><time>2026-04-25T09:08:55.999Z</time></trkpt><trkpt lat="38.070593421309354" lon="15.832760385327251"><ele>1087.0</ele><time>2026-04-25T09:08:57.998Z</time></trkpt><trkpt lat="38.070701917146486" lon="15.832832884338615"><ele>1081.5</ele><time>2026-04-25T09:08:59.998Z</time></trkpt><trkpt lat="38.07079821415936" lon="15.832852940077224"><ele>1076.0</ele><time>2026-04-25T09:09:01.998Z</time></trkpt><trkpt lat="38.070772110038256" lon="15.832951700655837"><ele>1070.5</ele><time>2026-04-25T09:09:03.998Z</time></trkpt><trkpt lat="38.070659537722335" lon="15.832927273071792"><ele>1065.0</ele><time>2026-04-25T09:09:05.998Z</time></trkpt><trkpt lat="38.0706018366363" lon="15.832895118422549"><ele>1059.5</ele><time>2026-04-25T09:09:06.998Z</time></trkpt><trkpt lat="38.07054142400296" lon="15.832868812712036"><ele>1054.0</ele><time>2026-04-25T09:09:07.999Z</time></trkpt><trkpt lat="38.07048043417943" lon="15.832846520368419"><ele>1052.8</ele><time>2026-04-25T09:09:08.999Z</time></trkpt><trkpt lat="38.07040900067202" lon="15.8328239454189"><ele>1051.6000000000001</ele><time>2026-04-25T09:09:09.999Z</time></trkpt><trkpt lat="38.07029296773499" lon="15.8328364153836"><ele>1050.4</ele><time>2026-04-25T09:09:11.999Z</time></trkpt><trkpt lat="38.07016786318488" lon="15.83288130114023"><ele>1049.2</ele><time>2026-04-25T09:09:13.999Z</time></trkpt><trkpt lat="38.07009758863122" lon="15.83291250134234"><ele>1048.0</ele><time>2026-04-25T09:09:14.999Z</time></trkpt><trkpt lat="38.06996844454436" lon="15.832947572308882"><ele>1050.3333333333333</ele><time>2026-04-25T09:09:16.999Z</time></trkpt><trkpt lat="38.06990993696249" lon="15.832984808159397"><ele>1052.6666666666665</ele><time>2026-04-25T09:09:17.999Z</time></trkpt><trkpt lat="38.06984871339154" lon="15.833023904366051"><ele>1055.0</ele><time>2026-04-25T09:09:18.999Z</time></trkpt><trkpt lat="38.06977686122259" lon="15.833043300557126"><ele>1057.3333333333333</ele><time>2026-04-25T09:09:19.999Z</time></trkpt><trkpt lat="38.06969558529239" lon="15.833089333564768"><ele>1059.6666666666667</ele><time>2026-04-25T09:09:20.999Z</time></trkpt><trkpt lat="38.06963157224188" lon="15.833144435720978"><ele>1062.0</ele><time>2026-04-25T09:09:21.999Z</time></trkpt><trkpt lat="38.06955806922986" lon="15.833191522550724"><ele>1062.0</ele><time>2026-04-25T09:09:22.999Z</time></trkpt><trkpt lat="38.069488422808966" lon="15.833231708946233"><ele>1062.0</ele><time>2026-04-25T09:09:23.999Z</time></trkpt><trkpt lat="38.06941496606822" lon="15.833257215924363"><ele>1062.0</ele><time>2026-04-25T09:09:24.999Z</time></trkpt><trkpt lat="38.069342921021025" lon="15.833273148894634"><ele>1062.0</ele><time>2026-04-25T09:09:25.999Z</time></trkpt><trkpt lat="38.06928134444523" lon="15.833317542587954"><ele>1062.0</ele><time>2026-04-25T09:09:26.999Z</time></trkpt><trkpt lat="38.06920891302001" lon="15.833324746998287"><ele>1062.0</ele><time>2026-04-25T09:09:27.999Z</time></trkpt><trkpt lat="38.06915350259773" lon="15.833382470416765"><ele>1062.0</ele><time>2026-04-25T09:09:28.999Z</time></trkpt><trkpt lat="38.06908676815159" lon="15.833415375813901"><ele>1060.5</ele><time>2026-04-25T09:09:29.999Z</time></trkpt><trkpt lat="38.06901553283965" lon="15.833469953988475"><ele>1059.0</ele><time>2026-04-25T09:09:30.999Z</time></trkpt><trkpt lat="38.06894793607606" lon="15.833518656660166"><ele>1057.5</ele><time>2026-04-25T09:09:31.999Z</time></trkpt><trkpt lat="38.06888896719003" lon="15.833597295170268"><ele>1056.0</ele><time>2026-04-25T09:09:32.999Z</time></trkpt><trkpt lat="38.06882921761884" lon="15.833635513386305"><ele>1054.5</ele><time>2026-04-25T09:09:33.999Z</time></trkpt><trkpt lat="38.06875999266068" lon="15.833705477071282"><ele>1053.0</ele><time>2026-04-25T09:09:34.999Z</time></trkpt><trkpt lat="38.06870091028682" lon="15.833767578398762"><ele>1051.1666666666667</ele><time>2026-04-25T09:09:35.999Z</time></trkpt><trkpt lat="38.06863476745104" lon="15.833874449524474"><ele>1049.3333333333333</ele><time>2026-04-25T09:09:36.999Z</time></trkpt><trkpt lat="38.068585909744854" lon="15.833958322114082"><ele>1047.5</ele><time>2026-04-25T09:09:37.999Z</time></trkpt><trkpt lat="38.0685443703925" lon="15.834021090749753"><ele>1045.6666666666665</ele><time>2026-04-25T09:09:38.999Z</time></trkpt><trkpt lat="38.06849718589152" lon="15.834099144373695"><ele>1043.8333333333333</ele><time>2026-04-25T09:09:39.999Z</time></trkpt><trkpt lat="38.06846293655618" lon="15.834194075828572"><ele>1042.0</ele><time>2026-04-25T09:09:40.999Z</time></trkpt><trkpt lat="38.06844385676619" lon="15.83427321426596"><ele>1037.8333333333333</ele><time>2026-04-25T09:09:41.999Z</time></trkpt><trkpt lat="38.06839632754888" lon="15.834347630733701"><ele>1033.6666666666665</ele><time>2026-04-25T09:09:42.999Z</time></trkpt><trkpt lat="38.068355944831346" lon="15.83441923721627"><ele>1029.5</ele><time>2026-04-25T09:09:43.999Z</time></trkpt><trkpt lat="38.068319823188915" lon="15.834492889573374"><ele>1025.3333333333333</ele><time>2026-04-25T09:09:44.999Z</time></trkpt><trkpt lat="38.06827555880092" lon="15.834572819933197"><ele>1021.1666666666666</ele><time>2026-04-25T09:09:45.999Z</time></trkpt><trkpt lat="38.06820303240789" lon="15.8346710285658"><ele>1017.0</ele><time>2026-04-25T09:09:47.999Z</time></trkpt><trkpt lat="38.06814359620791" lon="15.834714932214315"><ele>1014.6666666666666</ele><time>2026-04-25T09:09:48.999Z</time></trkpt><trkpt lat="38.06806025715806" lon="15.834807192804462"><ele>1012.3333333333333</ele><time>2026-04-25T09:09:50.999Z</time></trkpt><trkpt lat="38.06798478151097" lon="15.834873295465759"><ele>1010.0</ele><time>2026-04-25T09:09:52.999Z</time></trkpt><trkpt lat="38.06792093987095" lon="15.834858104647127"><ele>1007.6666666666666</ele><time>2026-04-25T09:09:54.999Z</time></trkpt><trkpt lat="38.06783948450695" lon="15.83483049431517"><ele>1005.3333333333333</ele><time>2026-04-25T09:09:56.999Z</time></trkpt><trkpt lat="38.06777524136627" lon="15.834752919757593"><ele>1003.0</ele><time>2026-04-25T09:09:58.999Z</time></trkpt><trkpt lat="38.067725338295666" lon="15.834650599966656"><ele>1002.9999999999999</ele><time>2026-04-25T09:10:00.999Z</time></trkpt><trkpt lat="38.06766903744898" lon="15.834576481297406"><ele>1003.0</ele><time>2026-04-25T09:10:03.999Z</time></trkpt><trkpt lat="38.06763445140423" lon="15.834489302763444"><ele>1003.0</ele><time>2026-04-25T09:10:04.999Z</time></trkpt><trkpt lat="38.067565064922505" lon="15.834374247375802"><ele>1003.0</ele><time>2026-04-25T09:10:06.999Z</time></trkpt><trkpt lat="38.0675088170781" lon="15.83432353442732"><ele>1002.9999999999999</ele><time>2026-04-25T09:10:09.999Z</time></trkpt><trkpt lat="38.06747130348913" lon="15.834390249244372"><ele>1003.0</ele><time>2026-04-25T09:10:13.999Z</time></trkpt><trkpt lat="38.06746464975157" lon="15.83447869761096"><ele>1003.0</ele><time>2026-04-25T09:10:15.999Z</time></trkpt><trkpt lat="38.06747061347383" lon="15.834570515378092"><ele>1003.0</ele><time>2026-04-25T09:10:16.999Z</time></trkpt><trkpt lat="38.0675094171911" lon="15.83467633890336"><ele>1003.0</ele><time>2026-04-25T09:10:18.999Z</time></trkpt><trkpt lat="38.06752757210131" lon="15.834773260630678"><ele>1003.0</ele><time>2026-04-25T09:10:20.999Z</time></trkpt><trkpt lat="38.06753497057087" lon="15.834874163119828"><ele>1003.0</ele><time>2026-04-25T09:10:23.999Z</time></trkpt><trkpt lat="38.067612368732064" lon="15.83502729217427"><ele>1003.0</ele><time>2026-04-25T09:10:25.999Z</time></trkpt><trkpt lat="38.06774785240534" lon="15.835135417724043"><ele>1003.0</ele><time>2026-04-25T09:10:27.999Z</time></trkpt><trkpt lat="38.06781412037866" lon="15.83512486397599"><ele>1003.0</ele><time>2026-04-25T09:10:28.999Z</time></trkpt><trkpt lat="38.067865526415524" lon="15.835231407786013"><ele>1003.0</ele><time>2026-04-25T09:10:31.999Z</time></trkpt><trkpt lat="38.067943842605075" lon="15.835300710092799"><ele>1003.0</ele><time>2026-04-25T09:10:33.999Z</time></trkpt><trkpt lat="38.067866522052725" lon="15.83534680780219"><ele>1003.0</ele><time>2026-04-25T09:10:34.999Z</time></trkpt><trkpt lat="38.06779731186812" lon="15.835376652797573"><ele>1003.0</ele><time>2026-04-25T09:10:36.999Z</time></trkpt><trkpt lat="38.06773330023644" lon="15.835313179457021"><ele>1003.0</ele><time>2026-04-25T09:10:38.999Z</time></trkpt><trkpt lat="38.06765313918885" lon="15.835229152878433"><ele>1003.0</ele><time>2026-04-25T09:10:40.999Z</time></trkpt><trkpt lat="38.06760465398592" lon="15.835143062593891"><ele>1003.0</ele><time>2026-04-25T09:10:42.999Z</time></trkpt><trkpt lat="38.0674896763383" lon="15.835102342278732"><ele>993.8</ele><time>2026-04-25T09:10:44.999Z</time></trkpt><trkpt lat="38.06742847048296" lon="15.83505860758342"><ele>984.5999999999999</ele><time>2026-04-25T09:10:45.999Z</time></trkpt><trkpt lat="38.06734367442038" lon="15.834986984094638"><ele>975.4000000000001</ele><time>2026-04-25T09:10:47.999Z</time></trkpt><trkpt lat="38.06728140075889" lon="15.834878812321959"><ele>966.2</ele><time>2026-04-25T09:10:49.999Z</time></trkpt><trkpt lat="38.067254893090656" lon="15.834760221981595"><ele>957.0</ele><time>2026-04-25T09:10:51.999Z</time></trkpt><trkpt lat="38.06716941114332" lon="15.834782065520146"><ele>957.0</ele><time>2026-04-25T09:10:54.999Z</time></trkpt><trkpt lat="38.06715786877576" lon="15.834869712203167"><ele>957.0</ele><time>2026-04-25T09:10:56.999Z</time></trkpt><trkpt lat="38.06720700197141" lon="15.83493087928826"><ele>957.0</ele><time>2026-04-25T09:10:58.999Z</time></trkpt><trkpt lat="38.06730241688596" lon="15.835042266903255"><ele>957.0</ele><time>2026-04-25T09:11:00.999Z</time></trkpt><trkpt lat="38.06734280228086" lon="15.835112046047742"><ele>957.0</ele><time>2026-04-25T09:11:01.999Z</time></trkpt><trkpt lat="38.06741503256203" lon="15.835248998983122"><ele>960.2</ele><time>2026-04-25T09:11:03.998Z</time></trkpt><trkpt lat="38.06746649738388" lon="15.835300558531772"><ele>963.4000000000001</ele><time>2026-04-25T09:11:04.998Z</time></trkpt><trkpt lat="38.067534413082925" lon="15.835386422377013"><ele>966.5999999999999</ele><time>2026-04-25T09:11:06.998Z</time></trkpt><trkpt lat="38.06758206641285" lon="15.835508087454434"><ele>969.8</ele><time>2026-04-25T09:11:08.999Z</time></trkpt><trkpt lat="38.067617038064036" lon="15.835663448509342"><ele>973.0</ele><time>2026-04-25T09:11:10.999Z</time></trkpt><trkpt lat="38.067638617081414" lon="15.835743440883475"><ele>972.9999999999999</ele><time>2026-04-25T09:11:11.999Z</time></trkpt><trkpt lat="38.067696316979585" lon="15.835852579896672"><ele>973.0</ele><time>2026-04-25T09:11:13.999Z</time></trkpt><trkpt lat="38.06780210746363" lon="15.835838876590762"><ele>973.0</ele><time>2026-04-25T09:11:15.999Z</time></trkpt><trkpt lat="38.06784595603461" lon="15.835899933477997"><ele>973.0</ele><time>2026-04-25T09:11:18.999Z</time></trkpt><trkpt lat="38.06779798271174" lon="15.835956386822698"><ele>972.9999999999999</ele><time>2026-04-25T09:11:21.999Z</time></trkpt><trkpt lat="38.06771001116388" lon="15.835938273959522"><ele>973.0</ele><time>2026-04-25T09:11:23.999Z</time></trkpt><trkpt lat="38.067607837230085" lon="15.835886575703563"><ele>973.0</ele><time>2026-04-25T09:11:25.999Z</time></trkpt><trkpt lat="38.06751044094461" lon="15.835837434125354"><ele>973.0</ele><time>2026-04-25T09:11:27.999Z</time></trkpt><trkpt lat="38.06743370493125" lon="15.835759860815102"><ele>973.0</ele><time>2026-04-25T09:11:29.999Z</time></trkpt><trkpt lat="38.06742033949439" lon="15.835655558574159"><ele>973.0</ele><time>2026-04-25T09:11:30.999Z</time></trkpt><trkpt lat="38.06734152601157" lon="15.835586319092732"><ele>973.0</ele><time>2026-04-25T09:11:32.999Z</time></trkpt><trkpt lat="38.06728546983885" lon="15.835479831967008"><ele>967.4999999999999</ele><time>2026-04-25T09:11:33.999Z</time></trkpt><trkpt lat="38.06721237988571" lon="15.835379608564955"><ele>962.0</ele><time>2026-04-25T09:11:35.999Z</time></trkpt><trkpt lat="38.06713766037791" lon="15.835354044638752"><ele>956.5</ele><time>2026-04-25T09:11:36.999Z</time></trkpt><trkpt lat="38.06704790572521" lon="15.83531614278836"><ele>951.0</ele><time>2026-04-25T09:11:38.999Z</time></trkpt><trkpt lat="38.06698102197595" lon="15.835305806360763"><ele>945.4999999999999</ele><time>2026-04-25T09:11:39.999Z</time></trkpt><trkpt lat="38.066917072846664" lon="15.835303611197283"><ele>940.0</ele><time>2026-04-25T09:11:40.999Z</time></trkpt><trkpt lat="38.06680812878771" lon="15.835252052278207"><ele>940.0</ele><time>2026-04-25T09:11:42.999Z</time></trkpt><trkpt lat="38.066728312287324" lon="15.835162094232745"><ele>940.0</ele><time>2026-04-25T09:11:44.999Z</time></trkpt><trkpt lat="38.06670174617769" lon="15.835022767389239"><ele>940.0</ele><time>2026-04-25T09:11:46.999Z</time></trkpt><trkpt lat="38.06670237424217" lon="15.834920896126942"><ele>940.0</ele><time>2026-04-25T09:11:48.999Z</time></trkpt><trkpt lat="38.066758972723065" lon="15.834852459089202"><ele>940.0</ele><time>2026-04-25T09:11:50.999Z</time></trkpt><trkpt lat="38.06678078465919" lon="15.834754247877466"><ele>942.3333333333333</ele><time>2026-04-25T09:11:51.999Z</time></trkpt><trkpt lat="38.06679514723404" lon="15.834673620865109"><ele>944.6666666666666</ele><time>2026-04-25T09:11:52.999Z</time></trkpt><trkpt lat="38.06681103590967" lon="15.83456791770224"><ele>947.0</ele><time>2026-04-25T09:11:53.999Z</time></trkpt><trkpt lat="38.06683263657479" lon="15.83442594368498"><ele>949.3333333333333</ele><time>2026-04-25T09:11:55.999Z</time></trkpt><trkpt lat="38.0668354056163" lon="15.834306020251853"><ele>951.6666666666666</ele><time>2026-04-25T09:11:57.999Z</time></trkpt><trkpt lat="38.06679954935274" lon="15.834219416689965"><ele>954.0</ele><time>2026-04-25T09:12:00.999Z</time></trkpt><trkpt lat="38.06673772380236" lon="15.834262944718612"><ele>954.6</ele><time>2026-04-25T09:12:51Z</time></trkpt><trkpt lat="38.0667305291248" lon="15.834384223168891"><ele>955.2</ele><time>2026-04-25T09:12:53Z</time></trkpt><trkpt lat="38.06668594165799" lon="15.834514951722394"><ele>955.8000000000001</ele><time>2026-04-25T09:12:55Z</time></trkpt><trkpt lat="38.06661272562118" lon="15.83463522513804"><ele>956.4000000000001</ele><time>2026-04-25T09:12:57Z</time></trkpt><trkpt lat="38.06655278255799" lon="15.834727269024498"><ele>957.0</ele><time>2026-04-25T09:12:59Z</time></trkpt><trkpt lat="38.066516611330435" lon="15.834803883515216"><ele>954.1666666666666</ele><time>2026-04-25T09:13:01Z</time></trkpt><trkpt lat="38.066500785314" lon="15.834901749914666"><ele>951.3333333333333</ele><time>2026-04-25T09:13:03Z</time></trkpt><trkpt lat="38.06651476638565" lon="15.834982196832048"><ele>948.5</ele><time>2026-04-25T09:13:05Z</time></trkpt><trkpt lat="38.06654638654138" lon="15.835114422288438"><ele>945.6666666666666</ele><time>2026-04-25T09:13:07Z</time></trkpt><trkpt lat="38.06660999599664" lon="15.835220518919455"><ele>942.8333333333333</ele><time>2026-04-25T09:13:08.999Z</time></trkpt><trkpt lat="38.066616297647705" lon="15.835317689523249"><ele>940.0</ele><time>2026-04-25T09:13:10.999Z</time></trkpt><trkpt lat="38.06673264751258" lon="15.835382303075734"><ele>939.9999999999999</ele><time>2026-04-25T09:13:12.999Z</time></trkpt><trkpt lat="38.06679910869311" lon="15.835408480622391"><ele>940.0</ele><time>2026-04-25T09:13:13.999Z</time></trkpt><trkpt lat="38.066863760686424" lon="15.8354242048268"><ele>940.0</ele><time>2026-04-25T09:13:15.999Z</time></trkpt><trkpt lat="38.066934760502484" lon="15.835465913404045"><ele>940.0</ele><time>2026-04-25T09:13:16.999Z</time></trkpt><trkpt lat="38.06698828610045" lon="15.835540739673021"><ele>939.9999999999999</ele><time>2026-04-25T09:13:18.999Z</time></trkpt><trkpt lat="38.067052731016304" lon="15.835620823337214"><ele>940.0</ele><time>2026-04-25T09:13:20.999Z</time></trkpt><trkpt lat="38.06709781832134" lon="15.835721765983838"><ele>940.0</ele><time>2026-04-25T09:13:22.999Z</time></trkpt><trkpt lat="38.06712122728714" lon="15.83583278914667"><ele>940.0</ele><time>2026-04-25T09:13:24.999Z</time></trkpt><trkpt lat="38.06717020548287" lon="15.835965346439886"><ele>940.0</ele><time>2026-04-25T09:13:26.999Z</time></trkpt><trkpt lat="38.0672113846066" lon="15.83603837041812"><ele>940.0</ele><time>2026-04-25T09:13:27.999Z</time></trkpt><trkpt lat="38.06727366140282" lon="15.836149275566965"><ele>940.0</ele><time>2026-04-25T09:13:29.999Z</time></trkpt><trkpt lat="38.06734298679822" lon="15.836229123317805"><ele>937.0</ele><time>2026-04-25T09:13:31.999Z</time></trkpt><trkpt lat="38.06743267493172" lon="15.8362801990439"><ele>934.0</ele><time>2026-04-25T09:13:33.999Z</time></trkpt><trkpt lat="38.06754703446554" lon="15.836287000356824"><ele>931.0</ele><time>2026-04-25T09:13:35.999Z</time></trkpt><trkpt lat="38.06763953946915" lon="15.836308337715717"><ele>928.0</ele><time>2026-04-25T09:13:37.999Z</time></trkpt><trkpt lat="38.067716915132266" lon="15.836408682900085"><ele>925.0</ele><time>2026-04-25T09:13:39.999Z</time></trkpt><trkpt lat="38.06778684689953" lon="15.836503648758407"><ele>925.0</ele><time>2026-04-25T09:13:41.999Z</time></trkpt><trkpt lat="38.067874744954864" lon="15.836497056084099"><ele>925.0</ele><time>2026-04-25T09:13:43.999Z</time></trkpt><trkpt lat="38.06794557039326" lon="15.836454555585808"><ele>925.0</ele><time>2026-04-25T09:13:44.999Z</time></trkpt><trkpt lat="38.06800928942428" lon="15.836417085073133"><ele>925.0</ele><time>2026-04-25T09:13:45.999Z</time></trkpt><trkpt lat="38.06812231199681" lon="15.836413298803274"><ele>925.0</ele><time>2026-04-25T09:13:47.999Z</time></trkpt><trkpt lat="38.06822655954833" lon="15.836430797792408"><ele>925.5</ele><time>2026-04-25T09:13:50Z</time></trkpt><trkpt lat="38.06831714445524" lon="15.836367402351398"><ele>926.0</ele><time>2026-04-25T09:13:52Z</time></trkpt><trkpt lat="38.0684284977614" lon="15.83629255937873"><ele>926.5</ele><time>2026-04-25T09:13:54Z</time></trkpt><trkpt lat="38.068529190830475" lon="15.836215441412092"><ele>927.0</ele><time>2026-04-25T09:13:56Z</time></trkpt><trkpt lat="38.06861896445761" lon="15.836127652478908"><ele>927.0</ele><time>2026-04-25T09:13:58Z</time></trkpt><trkpt lat="38.06866496975935" lon="15.836059580168945"><ele>927.0</ele><time>2026-04-25T09:14:00Z</time></trkpt><trkpt lat="38.06870841940725" lon="15.835978890065677"><ele>927.0</ele><time>2026-04-25T09:14:02Z</time></trkpt><trkpt lat="38.06876107912883" lon="15.83591641917863"><ele>927.0</ele><time>2026-04-25T09:14:04Z</time></trkpt><trkpt lat="38.06885297303726" lon="15.835866326429203"><ele>927.0</ele><time>2026-04-25T09:14:07Z</time></trkpt><trkpt lat="38.06892445682172" lon="15.835925627038288"><ele>927.0</ele><time>2026-04-25T09:14:09Z</time></trkpt><trkpt lat="38.068974205579735" lon="15.836036262277885"><ele>927.0</ele><time>2026-04-25T09:14:11Z</time></trkpt><trkpt lat="38.0690186128467" lon="15.836117928262032"><ele>927.0</ele><time>2026-04-25T09:14:12Z</time></trkpt><trkpt lat="38.069094966179755" lon="15.836143571203962"><ele>927.0</ele><time>2026-04-25T09:14:14Z</time></trkpt><trkpt lat="38.069158801709754" lon="15.83617138784631"><ele>927.0</ele><time>2026-04-25T09:14:15Z</time></trkpt><trkpt lat="38.06922333372746" lon="15.836237596430248"><ele>927.0</ele><time>2026-04-25T09:14:17Z</time></trkpt><trkpt lat="38.06933016106246" lon="15.836272504506548"><ele>927.0</ele><time>2026-04-25T09:14:19Z</time></trkpt><trkpt lat="38.06944068083539" lon="15.836264872915438"><ele>925.4000000000001</ele><time>2026-04-25T09:14:21Z</time></trkpt><trkpt lat="38.0695176425767" lon="15.8361738633617"><ele>923.8000000000001</ele><time>2026-04-25T09:14:23Z</time></trkpt><trkpt lat="38.06959042598561" lon="15.836123454430323"><ele>922.2</ele><time>2026-04-25T09:14:25Z</time></trkpt><trkpt lat="38.069707381031314" lon="15.83611427570249"><ele>920.6</ele><time>2026-04-25T09:14:27Z</time></trkpt><trkpt lat="38.06977410489302" lon="15.836108064213528"><ele>919.0</ele><time>2026-04-25T09:14:28Z</time></trkpt><trkpt lat="38.06989871412226" lon="15.836125121113836"><ele>919.1666666666666</ele><time>2026-04-25T09:14:30Z</time></trkpt><trkpt lat="38.06996501854031" lon="15.836144172177729"><ele>919.3333333333333</ele><time>2026-04-25T09:14:31Z</time></trkpt><trkpt lat="38.070070146106495" lon="15.836208645131384"><ele>919.5</ele><time>2026-04-25T09:14:33Z</time></trkpt><trkpt lat="38.070121187717916" lon="15.8362623406105"><ele>919.6666666666667</ele><time>2026-04-25T09:14:34Z</time></trkpt><trkpt lat="38.070214474428504" lon="15.83634675084206"><ele>919.8333333333334</ele><time>2026-04-25T09:14:36Z</time></trkpt><trkpt lat="38.07027547185298" lon="15.836378281434635"><ele>920.0</ele><time>2026-04-25T09:14:38Z</time></trkpt><trkpt lat="38.0703437378351" lon="15.836411413950936"><ele>920.0000000000001</ele><time>2026-04-25T09:14:40Z</time></trkpt><trkpt lat="38.070387999610965" lon="15.836478346479804"><ele>920.0</ele><time>2026-04-25T09:14:42Z</time></trkpt><trkpt lat="38.07043854652102" lon="15.836573973437"><ele>920.0</ele><time>2026-04-25T09:14:44Z</time></trkpt><trkpt lat="38.07047729299303" lon="15.83666420461908"><ele>920.0</ele><time>2026-04-25T09:14:46Z</time></trkpt><trkpt lat="38.07048272745113" lon="15.836773504175586"><ele>920.0000000000001</ele><time>2026-04-25T09:14:48Z</time></trkpt><trkpt lat="38.070533688714846" lon="15.83685904616447"><ele>920.0</ele><time>2026-04-25T09:14:51Z</time></trkpt><trkpt lat="38.07061658152114" lon="15.836900717975135"><ele>920.8333333333334</ele><time>2026-04-25T09:14:53Z</time></trkpt><trkpt lat="38.070703063121506" lon="15.8369532350792"><ele>921.6666666666667</ele><time>2026-04-25T09:14:55Z</time></trkpt><trkpt lat="38.07079203064535" lon="15.83701157042937"><ele>922.5</ele><time>2026-04-25T09:14:57Z</time></trkpt><trkpt lat="38.07085258431287" lon="15.837078212032036"><ele>923.3333333333333</ele><time>2026-04-25T09:14:59Z</time></trkpt><trkpt lat="38.070882691301286" lon="15.837163656909361"><ele>924.1666666666666</ele><time>2026-04-25T09:15:02Z</time></trkpt><trkpt lat="38.07094744089263" lon="15.837203093019959"><ele>925.0</ele><time>2026-04-25T09:15:05Z</time></trkpt><trkpt lat="38.07102220791013" lon="15.83720271952421"><ele>924.9999999999999</ele><time>2026-04-25T09:15:08Z</time></trkpt><trkpt lat="38.07099093874185" lon="15.837285641641174"><ele>925.0</ele><time>2026-04-25T09:15:14Z</time></trkpt><trkpt lat="38.070935143501266" lon="15.837348347094347"><ele>925.0</ele><time>2026-04-25T09:15:16.998Z</time></trkpt><trkpt lat="38.07086953193671" lon="15.837405017567361"><ele>925.0</ele><time>2026-04-25T09:15:19.998Z</time></trkpt><trkpt lat="38.07078962780368" lon="15.837425554207528"><ele>924.9999999999999</ele><time>2026-04-25T09:15:22.999Z</time></trkpt><trkpt lat="38.070699961511245" lon="15.837382453635728"><ele>925.0</ele><time>2026-04-25T09:15:24.999Z</time></trkpt><trkpt lat="38.07060538303495" lon="15.837393038881004"><ele>925.0</ele><time>2026-04-25T09:15:26.999Z</time></trkpt><trkpt lat="38.070513995305255" lon="15.837301274386817"><ele>925.0</ele><time>2026-04-25T09:15:28.999Z</time></trkpt><trkpt lat="38.070412447843225" lon="15.837261746276203"><ele>925.0</ele><time>2026-04-25T09:15:30.999Z</time></trkpt><trkpt lat="38.07031353628661" lon="15.837268177859324"><ele>925.0</ele><time>2026-04-25T09:15:32.999Z</time></trkpt><trkpt lat="38.07023007085387" lon="15.837227885255116"><ele>925.0</ele><time>2026-04-25T09:15:34.999Z</time></trkpt><trkpt lat="38.07014837597227" lon="15.837170675141302"><ele>924.9999999999999</ele><time>2026-04-25T09:15:36.999Z</time></trkpt><trkpt lat="38.07009246423606" lon="15.837113037217438"><ele>925.0</ele><time>2026-04-25T09:15:38.999Z</time></trkpt><trkpt lat="38.07002273602183" lon="15.837154310478903"><ele>925.0</ele><time>2026-04-25T09:15:40.999Z</time></trkpt><trkpt lat="38.069997717135514" lon="15.837262000642072"><ele>925.0</ele><time>2026-04-25T09:15:42.999Z</time></trkpt><trkpt lat="38.06996766487316" lon="15.837363402946874"><ele>924.9999999999999</ele><time>2026-04-25T09:15:44.999Z</time></trkpt><trkpt lat="38.06990804204242" lon="15.837504397878282"><ele>925.0</ele><time>2026-04-25T09:15:46.999Z</time></trkpt><trkpt lat="38.069892620946106" lon="15.83758410321989"><ele>923.6</ele><time>2026-04-25T09:15:47.999Z</time></trkpt><trkpt lat="38.06986723455283" lon="15.837658377043494"><ele>922.2</ele><time>2026-04-25T09:15:48.999Z</time></trkpt><trkpt lat="38.06983623463213" lon="15.837729104387213"><ele>920.8</ele><time>2026-04-25T09:15:49.999Z</time></trkpt><trkpt lat="38.06978408162227" lon="15.837856109765239"><ele>919.4</ele><time>2026-04-25T09:15:51.999Z</time></trkpt><trkpt lat="38.06972579100855" lon="15.83797430164154"><ele>918.0</ele><time>2026-04-25T09:15:54Z</time></trkpt><trkpt lat="38.06963893829605" lon="15.838056327277707"><ele>918.0</ele><time>2026-04-25T09:15:56Z</time></trkpt><trkpt lat="38.069537231657065" lon="15.838101362353571"><ele>918.0</ele><time>2026-04-25T09:15:58Z</time></trkpt><trkpt lat="38.06948234302608" lon="15.838206471892976"><ele>918.0</ele><time>2026-04-25T09:16:00Z</time></trkpt><trkpt lat="38.069472761111776" lon="15.838295230947958"><ele>918.0</ele><time>2026-04-25T09:16:01Z</time></trkpt><trkpt lat="38.06945037733723" lon="15.838378476610224"><ele>918.0</ele><time>2026-04-25T09:16:02Z</time></trkpt><trkpt lat="38.06941306330403" lon="15.838445241040874"><ele>918.0</ele><time>2026-04-25T09:16:03Z</time></trkpt><trkpt lat="38.069361462313644" lon="15.83856225243466"><ele>918.0</ele><time>2026-04-25T09:16:05Z</time></trkpt><trkpt lat="38.06931368144292" lon="15.838662721314272"><ele>918.0</ele><time>2026-04-25T09:16:07Z</time></trkpt><trkpt lat="38.06919425334803" lon="15.838701410368985"><ele>918.0</ele><time>2026-04-25T09:16:09Z</time></trkpt><trkpt lat="38.0691267558289" lon="15.838753066380152"><ele>918.0</ele><time>2026-04-25T09:16:11Z</time></trkpt><trkpt lat="38.069072816326184" lon="15.838880308247417"><ele>918.0</ele><time>2026-04-25T09:16:13Z</time></trkpt><trkpt lat="38.06900103428769" lon="15.839020676769405"><ele>918.0</ele><time>2026-04-25T09:16:15Z</time></trkpt><trkpt lat="38.068977952710426" lon="15.83909771517951"><ele>918.0</ele><time>2026-04-25T09:16:16Z</time></trkpt><trkpt lat="38.06897198144694" lon="15.83921680530055"><ele>918.0</ele><time>2026-04-25T09:16:18Z</time></trkpt><trkpt lat="38.06893651832294" lon="15.839349141338907"><ele>918.0</ele><time>2026-04-25T09:16:20Z</time></trkpt><trkpt lat="38.068940830512425" lon="15.839431844804523"><ele>918.0</ele><time>2026-04-25T09:16:22Z</time></trkpt><trkpt lat="38.06891567759292" lon="15.839541868925258"><ele>918.0</ele><time>2026-04-25T09:16:24Z</time></trkpt><trkpt lat="38.06886026427365" lon="15.839589998915264"><ele>926.8</ele><time>2026-04-25T09:16:26Z</time></trkpt><trkpt lat="38.0687673540789" lon="15.839581379181595"><ele>935.5999999999999</ele><time>2026-04-25T09:16:28Z</time></trkpt><trkpt lat="38.06867487039315" lon="15.839498664230158"><ele>944.4000000000001</ele><time>2026-04-25T09:16:30Z</time></trkpt><trkpt lat="38.06857163042301" lon="15.839460264951533"><ele>953.2</ele><time>2026-04-25T09:16:32Z</time></trkpt><trkpt lat="38.0684760646244" lon="15.839405392516468"><ele>962.0</ele><time>2026-04-25T09:16:34Z</time></trkpt><trkpt lat="38.06838776089212" lon="15.839334402291941"><ele>955.4000000000001</ele><time>2026-04-25T09:16:36Z</time></trkpt><trkpt lat="38.06828180309275" lon="15.839257979010263"><ele>948.8000000000001</ele><time>2026-04-25T09:16:38Z</time></trkpt><trkpt lat="38.06821135929272" lon="15.839215023044506"><ele>942.2</ele><time>2026-04-25T09:16:39Z</time></trkpt><trkpt lat="38.06814489031952" lon="15.839175500841137"><ele>935.6</ele><time>2026-04-25T09:16:40Z</time></trkpt><trkpt lat="38.06802910109061" lon="15.839113864839963"><ele>929.0</ele><time>2026-04-25T09:16:42Z</time></trkpt><trkpt lat="38.06792266295089" lon="15.83905402277096"><ele>929.0</ele><time>2026-04-25T09:16:44Z</time></trkpt><trkpt lat="38.0678235338291" lon="15.838987358507216"><ele>929.0000000000001</ele><time>2026-04-25T09:16:46Z</time></trkpt><trkpt lat="38.06772511092407" lon="15.838911520552204"><ele>929.0000000000001</ele><time>2026-04-25T09:16:48Z</time></trkpt><trkpt lat="38.06764525495235" lon="15.838846627006228"><ele>929.0</ele><time>2026-04-25T09:16:50Z</time></trkpt><trkpt lat="38.06757653733312" lon="15.838811822167946"><ele>929.0</ele><time>2026-04-25T09:16:51Z</time></trkpt><trkpt lat="38.06748593793672" lon="15.838751842579809"><ele>931.8000000000001</ele><time>2026-04-25T09:16:53Z</time></trkpt><trkpt lat="38.06741129644439" lon="15.838656834272095"><ele>934.6000000000001</ele><time>2026-04-25T09:16:55Z</time></trkpt><trkpt lat="38.06735468422613" lon="15.838543827113515"><ele>937.4</ele><time>2026-04-25T09:16:57Z</time></trkpt><trkpt lat="38.067286934000904" lon="15.838483928279139"><ele>940.2</ele><time>2026-04-25T09:16:59Z</time></trkpt><trkpt lat="38.067194723491085" lon="15.838466075699378"><ele>943.0</ele><time>2026-04-25T09:17:01Z</time></trkpt><trkpt lat="38.06710539498286" lon="15.838453240006844"><ele>934.9999999999999</ele><time>2026-04-25T09:17:03Z</time></trkpt><trkpt lat="38.067034295656626" lon="15.838384181450719"><ele>927.0</ele><time>2026-04-25T09:17:05Z</time></trkpt><trkpt lat="38.06700165637072" lon="15.838275638275757"><ele>919.0</ele><time>2026-04-25T09:17:07Z</time></trkpt><trkpt lat="38.06694673238164" lon="15.838224339314996"><ele>911.0</ele><time>2026-04-25T09:17:09Z</time></trkpt><trkpt lat="38.06684453372037" lon="15.838255188023611"><ele>902.9999999999999</ele><time>2026-04-25T09:17:11Z</time></trkpt><trkpt lat="38.066769441693" lon="15.83830913695116"><ele>895.0</ele><time>2026-04-25T09:17:13Z</time></trkpt><trkpt lat="38.06669437537912" lon="15.838334664359008"><ele>896.25</ele><time>2026-04-25T09:17:15Z</time></trkpt><trkpt lat="38.066600901929895" lon="15.838358197876182"><ele>897.5</ele><time>2026-04-25T09:17:17.001Z</time></trkpt><trkpt lat="38.06648329712256" lon="15.838368063440944"><ele>898.75</ele><time>2026-04-25T09:17:19.001Z</time></trkpt><trkpt lat="38.06636596646007" lon="15.838329842574543"><ele>900.0</ele><time>2026-04-25T09:17:20.999Z</time></trkpt><trkpt lat="38.066266049471004" lon="15.838253104204215"><ele>900.0</ele><time>2026-04-25T09:17:22.999Z</time></trkpt><trkpt lat="38.06621265291732" lon="15.838206294220274"><ele>900.0</ele><time>2026-04-25T09:17:23.999Z</time></trkpt><trkpt lat="38.06611723069729" lon="15.838093244069903"><ele>900.0</ele><time>2026-04-25T09:17:25.999Z</time></trkpt><trkpt lat="38.06606058266561" lon="15.838055308386652"><ele>900.0</ele><time>2026-04-25T09:17:26.999Z</time></trkpt><trkpt lat="38.06595518603344" lon="15.837962764910168"><ele>900.0</ele><time>2026-04-25T09:17:28.999Z</time></trkpt><trkpt lat="38.06590464867279" lon="15.83790739583441"><ele>900.0</ele><time>2026-04-25T09:17:29.999Z</time></trkpt><trkpt lat="38.06582625935375" lon="15.83783981463631"><ele>900.0</ele><time>2026-04-25T09:17:31.999Z</time></trkpt><trkpt lat="38.06573982675658" lon="15.837841091600446"><ele>900.0</ele><time>2026-04-25T09:17:33.999Z</time></trkpt><trkpt lat="38.065669266557855" lon="15.837929781907139"><ele>900.0</ele><time>2026-04-25T09:17:35.999Z</time></trkpt><trkpt lat="38.06558120168985" lon="15.837993204602453"><ele>900.0</ele><time>2026-04-25T09:17:37.999Z</time></trkpt><trkpt lat="38.06553249714642" lon="15.83808116341082"><ele>899.0</ele><time>2026-04-25T09:17:39.999Z</time></trkpt><trkpt lat="38.065521180115226" lon="15.83823734695218"><ele>898.0</ele><time>2026-04-25T09:17:41.999Z</time></trkpt><trkpt lat="38.0654981880005" lon="15.838364411434135"><ele>897.0</ele><time>2026-04-25T09:17:43.999Z</time></trkpt><trkpt lat="38.0654672465306" lon="15.838453437133929"><ele>896.0</ele><time>2026-04-25T09:17:45.999Z</time></trkpt><trkpt lat="38.06541709574539" lon="15.838530263750766"><ele>895.0</ele><time>2026-04-25T09:17:47.999Z</time></trkpt><trkpt lat="38.06533008327737" lon="15.838559320183771"><ele>895.0</ele><time>2026-04-25T09:17:50Z</time></trkpt><trkpt lat="38.06524218091896" lon="15.838550469361424"><ele>895.0</ele><time>2026-04-25T09:17:52Z</time></trkpt><trkpt lat="38.06517545004751" lon="15.838467295075965"><ele>895.0</ele><time>2026-04-25T09:17:54Z</time></trkpt><trkpt lat="38.065113910113475" lon="15.838332684468279"><ele>895.0</ele><time>2026-04-25T09:17:56Z</time></trkpt><trkpt lat="38.0650743106288" lon="15.83822250839082"><ele>895.0</ele><time>2026-04-25T09:17:58Z</time></trkpt><trkpt lat="38.06502601626696" lon="15.838103041454625"><ele>902.4999999999999</ele><time>2026-04-25T09:18:00Z</time></trkpt><trkpt lat="38.064941615657325" lon="15.838019735207194"><ele>910.0</ele><time>2026-04-25T09:18:02Z</time></trkpt><trkpt lat="38.064866760853015" lon="15.83794502238688"><ele>917.5</ele><time>2026-04-25T09:18:04Z</time></trkpt><trkpt lat="38.06486241178466" lon="15.837863331503755"><ele>925.0</ele><time>2026-04-25T09:18:47Z</time></trkpt><trkpt lat="38.06479857710345" lon="15.837819449993887"><ele>932.4999999999999</ele><time>2026-04-25T09:18:49.001Z</time></trkpt><trkpt lat="38.06470302136833" lon="15.837772608891287"><ele>940.0</ele><time>2026-04-25T09:18:51.001Z</time></trkpt><trkpt lat="38.06463790273717" lon="15.837690889870247"><ele>940.0</ele><time>2026-04-25T09:18:53.001Z</time></trkpt><trkpt lat="38.064554880381436" lon="15.837650575494983"><ele>940.0</ele><time>2026-04-25T09:18:55.001Z</time></trkpt><trkpt lat="38.064469796305325" lon="15.837635183798447"><ele>940.0</ele><time>2026-04-25T09:18:57.001Z</time></trkpt><trkpt lat="38.064369553660214" lon="15.837618999186972"><ele>940.0</ele><time>2026-04-25T09:18:59.001Z</time></trkpt><trkpt lat="38.06428721838334" lon="15.837600823515086"><ele>940.0</ele><time>2026-04-25T09:19:01.001Z</time></trkpt><trkpt lat="38.06419409269511" lon="15.837617046965551"><ele>938.1666666666666</ele><time>2026-04-25T09:19:03.001Z</time></trkpt><trkpt lat="38.06410417216797" lon="15.837617321365471"><ele>936.3333333333333</ele><time>2026-04-25T09:19:05.001Z</time></trkpt><trkpt lat="38.06401703198883" lon="15.837606540633729"><ele>934.5</ele><time>2026-04-25T09:19:07.001Z</time></trkpt><trkpt lat="38.06392985274358" lon="15.837597607754681"><ele>932.6666666666667</ele><time>2026-04-25T09:19:09.001Z</time></trkpt><trkpt lat="38.0638659848229" lon="15.837564202220433"><ele>930.8333333333334</ele><time>2026-04-25T09:19:11.001Z</time></trkpt><trkpt lat="38.0637945916238" lon="15.837533474416524"><ele>929.0</ele><time>2026-04-25T09:19:13.001Z</time></trkpt><trkpt lat="38.06371442003177" lon="15.837505128325526"><ele>929.0000000000001</ele><time>2026-04-25T09:19:15.001Z</time></trkpt><trkpt lat="38.06365065668676" lon="15.837443928903362"><ele>929.0</ele><time>2026-04-25T09:19:17.001Z</time></trkpt><trkpt lat="38.063615920417654" lon="15.837326497420998"><ele>929.0</ele><time>2026-04-25T09:19:19.001Z</time></trkpt><trkpt lat="38.06357661146223" lon="15.837213064959094"><ele>929.0</ele><time>2026-04-25T09:19:21.001Z</time></trkpt><trkpt lat="38.063517690729405" lon="15.837241853949433"><ele>929.0000000000001</ele><time>2026-04-25T09:20:01Z</time></trkpt><trkpt lat="38.06350368480875" lon="15.837149820742084"><ele>929.0</ele><time>2026-04-25T09:20:43.001Z</time></trkpt><trkpt lat="38.063454473178886" lon="15.837051098143492"><ele>929.0000000000001</ele><time>2026-04-25T09:20:45.001Z</time></trkpt><trkpt lat="38.063421110575504" lon="15.836968626468868"><ele>929.0</ele><time>2026-04-25T09:20:47.001Z</time></trkpt><trkpt lat="38.063350246185784" lon="15.836913124542372"><ele>929.0</ele><time>2026-04-25T09:22:08Z</time></trkpt><trkpt lat="38.06327242114722" lon="15.836887168378697"><ele>929.0</ele><time>2026-04-25T09:22:11Z</time></trkpt><trkpt lat="38.063211256143674" lon="15.836816539804417"><ele>929.0000000000001</ele><time>2026-04-25T09:22:13Z</time></trkpt><trkpt lat="38.063166873567425" lon="15.836741083791969"><ele>929.0</ele><time>2026-04-25T09:22:15Z</time></trkpt><trkpt lat="38.06309560170343" lon="15.836644134927539"><ele>925.4000000000001</ele><time>2026-04-25T09:22:17Z</time></trkpt><trkpt lat="38.0630173953581" lon="15.836593334125372"><ele>921.8000000000001</ele><time>2026-04-25T09:22:19Z</time></trkpt><trkpt lat="38.06293691450282" lon="15.836601987451049"><ele>918.1999999999999</ele><time>2026-04-25T09:22:21Z</time></trkpt><trkpt lat="38.062834804916356" lon="15.836628272590684"><ele>914.5999999999999</ele><time>2026-04-25T09:22:23Z</time></trkpt><trkpt lat="38.06271711711345" lon="15.836644979658262"><ele>911.0</ele><time>2026-04-25T09:22:25Z</time></trkpt><trkpt lat="38.06260014103308" lon="15.836676308209704"><ele>911.0</ele><time>2026-04-25T09:22:27Z</time></trkpt><trkpt lat="38.0624870596185" lon="15.836705395557544"><ele>910.9999999999999</ele><time>2026-04-25T09:22:29Z</time></trkpt><trkpt lat="38.06238245649918" lon="15.836701084142442"><ele>910.9999999999999</ele><time>2026-04-25T09:22:31Z</time></trkpt><trkpt lat="38.06232096081409" lon="15.8367401262821"><ele>911.0</ele><time>2026-04-25T09:22:34Z</time></trkpt><trkpt lat="38.06235492915841" lon="15.836811364496846"><ele>911.0</ele><time>2026-04-25T09:22:36Z</time></trkpt><trkpt lat="38.062448762209605" lon="15.836840124485116"><ele>918.0000000000001</ele><time>2026-04-25T09:22:38Z</time></trkpt><trkpt lat="38.062544758117" lon="15.836818969862895"><ele>925.0</ele><time>2026-04-25T09:22:40Z</time></trkpt><trkpt lat="38.06260869890745" lon="15.836845439792198"><ele>932.0</ele><time>2026-04-25T09:22:42Z</time></trkpt><trkpt lat="38.06267886738879" lon="15.83686067011171"><ele>939.0</ele><time>2026-04-25T09:22:43Z</time></trkpt><trkpt lat="38.06277598427318" lon="15.836896985347972"><ele>946.0000000000001</ele><time>2026-04-25T09:22:45.001Z</time></trkpt><trkpt lat="38.06288238386113" lon="15.8369220100206"><ele>953.0</ele><time>2026-04-25T09:22:47.001Z</time></trkpt><trkpt lat="38.06297960630492" lon="15.836968644479974"><ele>953.0</ele><time>2026-04-25T09:22:49.001Z</time></trkpt><trkpt lat="38.06307978002981" lon="15.83701747993754"><ele>953.0</ele><time>2026-04-25T09:22:51.001Z</time></trkpt><trkpt lat="38.063151874403815" lon="15.837054912507886"><ele>953.0</ele><time>2026-04-25T09:22:53.001Z</time></trkpt><trkpt lat="38.063120763002345" lon="15.837138851149367"><ele>953.0</ele><time>2026-04-25T09:22:57.001Z</time></trkpt><trkpt lat="38.06302124924731" lon="15.83711847156053"><ele>953.0</ele><time>2026-04-25T09:23:00.001Z</time></trkpt><trkpt lat="38.062924599357174" lon="15.83706557565234"><ele>953.0</ele><time>2026-04-25T09:23:02.001Z</time></trkpt><trkpt lat="38.06281641234124" lon="15.837076580560268"><ele>953.0</ele><time>2026-04-25T09:23:04.001Z</time></trkpt><trkpt lat="38.06272109108699" lon="15.83709907073184"><ele>953.0</ele><time>2026-04-25T09:23:06.001Z</time></trkpt><trkpt lat="38.062662821680654" lon="15.837132319696911"><ele>953.0</ele><time>2026-04-25T09:23:07.001Z</time></trkpt><trkpt lat="38.062556609595426" lon="15.837186351448596"><ele>953.0</ele><time>2026-04-25T09:23:09.001Z</time></trkpt><trkpt lat="38.062456807286424" lon="15.837196321290872"><ele>953.5999999999999</ele><time>2026-04-25T09:23:11.001Z</time></trkpt><trkpt lat="38.062334908534396" lon="15.837190303426341"><ele>954.1999999999999</ele><time>2026-04-25T09:23:13.001Z</time></trkpt><trkpt lat="38.06222733218081" lon="15.837169551163822"><ele>954.8</ele><time>2026-04-25T09:23:15.001Z</time></trkpt><trkpt lat="38.06210935227171" lon="15.83715626749946"><ele>955.4</ele><time>2026-04-25T09:23:17.001Z</time></trkpt><trkpt lat="38.06204642635421" lon="15.83713710924423"><ele>956.0</ele><time>2026-04-25T09:23:18.001Z</time></trkpt><trkpt lat="38.06192616885207" lon="15.83711198741123"><ele>956.0000000000001</ele><time>2026-04-25T09:23:20.001Z</time></trkpt><trkpt lat="38.06186255903595" lon="15.837115014598083"><ele>956.0</ele><time>2026-04-25T09:23:21.001Z</time></trkpt><trkpt lat="38.061750992476625" lon="15.837112043852533"><ele>956.0</ele><time>2026-04-25T09:23:23.001Z</time></trkpt><trkpt lat="38.06168019150078" lon="15.83709983068743"><ele>956.0</ele><time>2026-04-25T09:23:25.001Z</time></trkpt><trkpt lat="38.06161499836674" lon="15.837170113592213"><ele>956.0000000000001</ele><time>2026-04-25T09:23:27.001Z</time></trkpt><trkpt lat="38.061539823821" lon="15.837250225170646"><ele>956.0</ele><time>2026-04-25T09:23:29.001Z</time></trkpt><trkpt lat="38.061435698445294" lon="15.837319671881058"><ele>958.0</ele><time>2026-04-25T09:23:31.002Z</time></trkpt><trkpt lat="38.06134950206311" lon="15.837405940701508"><ele>959.9999999999999</ele><time>2026-04-25T09:23:33.002Z</time></trkpt><trkpt lat="38.06125273017185" lon="15.837504716784187"><ele>961.9999999999999</ele><time>2026-04-25T09:23:35.002Z</time></trkpt><trkpt lat="38.06114677660131" lon="15.837558653964942"><ele>964.0</ele><time>2026-04-25T09:23:37.002Z</time></trkpt><trkpt lat="38.061061805595195" lon="15.837598495034367"><ele>966.0</ele><time>2026-04-25T09:23:38.999Z</time></trkpt><trkpt lat="38.060977325654555" lon="15.837652523406112"><ele>966.0</ele><time>2026-04-25T09:23:40.999Z</time></trkpt><trkpt lat="38.060871361739274" lon="15.837652841464367"><ele>965.9999999999999</ele><time>2026-04-25T09:23:42.999Z</time></trkpt><trkpt lat="38.06076651627305" lon="15.837658254681276"><ele>965.9999999999999</ele><time>2026-04-25T09:23:44.999Z</time></trkpt><trkpt lat="38.06070306143736" lon="15.837709458822184"><ele>966.0</ele><time>2026-04-25T09:23:46.999Z</time></trkpt><trkpt lat="38.06064912016937" lon="15.837785469799288"><ele>966.0</ele><time>2026-04-25T09:23:48.999Z</time></trkpt><trkpt lat="38.06060544549093" lon="15.837897262150486"><ele>954.5999999999999</ele><time>2026-04-25T09:23:50.999Z</time></trkpt><trkpt lat="38.06063041073849" lon="15.83798067151732"><ele>943.1999999999999</ele><time>2026-04-25T09:23:53Z</time></trkpt><trkpt lat="38.060650133777706" lon="15.838111819370635"><ele>931.8000000000001</ele><time>2026-04-25T09:23:55Z</time></trkpt><trkpt lat="38.06064577651713" lon="15.83825563123763"><ele>920.4000000000001</ele><time>2026-04-25T09:23:57Z</time></trkpt><trkpt lat="38.06060975491304" lon="15.83837527464625"><ele>909.0</ele><time>2026-04-25T09:23:59Z</time></trkpt><trkpt lat="38.06061168806303" lon="15.838484595473796"><ele>908.4000000000001</ele><time>2026-04-25T09:24:02Z</time></trkpt><trkpt lat="38.060667246137484" lon="15.838587840279855"><ele>907.8000000000001</ele><time>2026-04-25T09:24:04Z</time></trkpt><trkpt lat="38.06073836323549" lon="15.838672829462924"><ele>907.1999999999999</ele><time>2026-04-25T09:24:06Z</time></trkpt><trkpt lat="38.06080814966756" lon="15.838767884324554"><ele>906.5999999999999</ele><time>2026-04-25T09:24:08Z</time></trkpt><trkpt lat="38.06087524623783" lon="15.838861813924636"><ele>906.0</ele><time>2026-04-25T09:24:10Z</time></trkpt><trkpt lat="38.060941115032364" lon="15.838927024342084"><ele>916.4</ele><time>2026-04-25T09:24:12Z</time></trkpt><trkpt lat="38.06102164841076" lon="15.839012383809663"><ele>926.8</ele><time>2026-04-25T09:24:14Z</time></trkpt><trkpt lat="38.061119449247464" lon="15.839078150055535"><ele>937.1999999999999</ele><time>2026-04-25T09:24:16Z</time></trkpt><trkpt lat="38.061209660581405" lon="15.839152601001093"><ele>947.5999999999999</ele><time>2026-04-25T09:24:18Z</time></trkpt><trkpt lat="38.061304891528046" lon="15.839231168672809"><ele>958.0</ele><time>2026-04-25T09:24:20Z</time></trkpt><trkpt lat="38.061349588376636" lon="15.839288777932582"><ele>953.25</ele><time>2026-04-25T09:24:21Z</time></trkpt><trkpt lat="38.061429264095736" lon="15.839395428210182"><ele>948.5</ele><time>2026-04-25T09:24:23Z</time></trkpt><trkpt lat="38.06151238685276" lon="15.839500708134201"><ele>943.75</ele><time>2026-04-25T09:24:25Z</time></trkpt><trkpt lat="38.06158745338252" lon="15.839605537886284"><ele>939.0</ele><time>2026-04-25T09:24:27Z</time></trkpt><trkpt lat="38.06165559408554" lon="15.839708223819663"><ele>948.4000000000001</ele><time>2026-04-25T09:24:29.001Z</time></trkpt><trkpt lat="38.061736677525495" lon="15.839803467512809"><ele>957.8000000000001</ele><time>2026-04-25T09:24:31.001Z</time></trkpt><trkpt lat="38.061800921887745" lon="15.839928421364823"><ele>967.1999999999999</ele><time>2026-04-25T09:24:33.001Z</time></trkpt><trkpt lat="38.0618620261671" lon="15.840034511121882"><ele>976.5999999999999</ele><time>2026-04-25T09:24:35.001Z</time></trkpt><trkpt lat="38.06190310596512" lon="15.840123148349976"><ele>986.0</ele><time>2026-04-25T09:24:38.001Z</time></trkpt><trkpt lat="38.06193391850516" lon="15.840256464148206"><ele>988.0000000000001</ele><time>2026-04-25T09:24:40.001Z</time></trkpt><trkpt lat="38.06194655613239" lon="15.840337401223103"><ele>990.0</ele><time>2026-04-25T09:24:41.001Z</time></trkpt><trkpt lat="38.06196541540516" lon="15.840425132064139"><ele>992.0</ele><time>2026-04-25T09:24:42.001Z</time></trkpt><trkpt lat="38.06198345202926" lon="15.840556042178084"><ele>994.0</ele><time>2026-04-25T09:24:44.001Z</time></trkpt><trkpt lat="38.062002601404416" lon="15.840645577641785"><ele>996.0000000000001</ele><time>2026-04-25T09:24:46.001Z</time></trkpt><trkpt lat="38.06202119254808" lon="15.840728430886035"><ele>998.0</ele><time>2026-04-25T09:25:13.002Z</time></trkpt><trkpt lat="38.06203615038085" lon="15.840830124209697"><ele>998.0</ele><time>2026-04-25T09:25:15.002Z</time></trkpt><trkpt lat="38.062001103369646" lon="15.840931315692226"><ele>998.0</ele><time>2026-04-25T09:25:17.002Z</time></trkpt><trkpt lat="38.061908044467216" lon="15.840981409423296"><ele>998.0</ele><time>2026-04-25T09:25:19.002Z</time></trkpt><trkpt lat="38.061795059280165" lon="15.840994236910037"><ele>998.0</ele><time>2026-04-25T09:25:21.002Z</time></trkpt><trkpt lat="38.061696925453035" lon="15.840973586316201"><ele>998.0</ele><time>2026-04-25T09:25:23.002Z</time></trkpt><trkpt lat="38.06157742715495" lon="15.840966036975225"><ele>998.8</ele><time>2026-04-25T09:25:25.002Z</time></trkpt><trkpt lat="38.06146756991078" lon="15.840990148901248"><ele>999.5999999999999</ele><time>2026-04-25T09:25:27.002Z</time></trkpt><trkpt lat="38.061385909466615" lon="15.84103943032298"><ele>1000.4000000000001</ele><time>2026-04-25T09:25:29.002Z</time></trkpt><trkpt lat="38.06130176561322" lon="15.84110206475633"><ele>1001.2</ele><time>2026-04-25T09:25:31.002Z</time></trkpt><trkpt lat="38.061213631687785" lon="15.841127644346281"><ele>1002.0</ele><time>2026-04-25T09:25:33.002Z</time></trkpt><trkpt lat="38.06111626244773" lon="15.84113198411036"><ele>1002.0</ele><time>2026-04-25T09:25:35.002Z</time></trkpt><trkpt lat="38.06104826094824" lon="15.841165466543432"><ele>1002.0</ele><time>2026-04-25T09:25:38.002Z</time></trkpt><trkpt lat="38.06101741590599" lon="15.84123648363968"><ele>1002.0</ele><time>2026-04-25T09:25:43.002Z</time></trkpt><trkpt lat="38.060984058206685" lon="15.84136701888815"><ele>1002.0</ele><time>2026-04-25T09:25:45Z</time></trkpt><trkpt lat="38.060966508595854" lon="15.841445947537196"><ele>1002.0</ele><time>2026-04-25T09:25:46Z</time></trkpt><trkpt lat="38.06093776677401" lon="15.841610322532803"><ele>1002.0</ele><time>2026-04-25T09:25:48Z</time></trkpt><trkpt lat="38.060902520579276" lon="15.841764359911524"><ele>1008.0</ele><time>2026-04-25T09:25:50Z</time></trkpt><trkpt lat="38.06084449359735" lon="15.841910155942214"><ele>1014.0</ele><time>2026-04-25T09:25:52Z</time></trkpt><trkpt lat="38.06080368946116" lon="15.842051707693328"><ele>1020.0</ele><time>2026-04-25T09:25:54Z</time></trkpt><trkpt lat="38.06080232600386" lon="15.842197286362152"><ele>1026.0</ele><time>2026-04-25T09:25:56Z</time></trkpt><trkpt lat="38.060838174833435" lon="15.842314615370144"><ele>1026.0</ele><time>2026-04-25T09:25:58Z</time></trkpt><trkpt lat="38.06082390707627" lon="15.842428049307248"><ele>1026.0</ele><time>2026-04-25T09:26:00Z</time></trkpt><trkpt lat="38.06075395570235" lon="15.84250307834138"><ele>1026.0</ele><time>2026-04-25T09:26:02Z</time></trkpt><trkpt lat="38.060704824118666" lon="15.842562663342843"><ele>1026.0</ele><time>2026-04-25T09:26:03Z</time></trkpt><trkpt lat="38.06064344811155" lon="15.842597135206582"><ele>1026.0</ele><time>2026-04-25T09:26:04Z</time></trkpt><trkpt lat="38.06052504161414" lon="15.842694357405152"><ele>1025.4285714285716</ele><time>2026-04-25T09:26:06Z</time></trkpt><trkpt lat="38.06046706247691" lon="15.842751844127584"><ele>1024.857142857143</ele><time>2026-04-25T09:26:07Z</time></trkpt><trkpt lat="38.06041154514389" lon="15.842794761197615"><ele>1024.2857142857142</ele><time>2026-04-25T09:26:08Z</time></trkpt><trkpt lat="38.06034659502527" lon="15.84282769708366"><ele>1023.7142857142858</ele><time>2026-04-25T09:26:09Z</time></trkpt><trkpt lat="38.06028442326943" lon="15.842863582850542"><ele>1023.1428571428571</ele><time>2026-04-25T09:26:10Z</time></trkpt><trkpt lat="38.060232658097405" lon="15.842912010718665"><ele>1022.5714285714286</ele><time>2026-04-25T09:26:11Z</time></trkpt><trkpt lat="38.06017366073817" lon="15.842958535377164"><ele>1022.0</ele><time>2026-04-25T09:26:12Z</time></trkpt><trkpt lat="38.060106019545984" lon="15.842993354180447"><ele>1022.0</ele><time>2026-04-25T09:26:13Z</time></trkpt><trkpt lat="38.06003507273274" lon="15.843030395427826"><ele>1022.0</ele><time>2026-04-25T09:26:14Z</time></trkpt><trkpt lat="38.05993832590256" lon="15.8431291997916"><ele>1022.0</ele><time>2026-04-25T09:26:16Z</time></trkpt><trkpt lat="38.059901131308834" lon="15.843210475254345"><ele>1022.0</ele><time>2026-04-25T09:26:17Z</time></trkpt><trkpt lat="38.05986531615686" lon="15.84329185207644"><ele>1022.0</ele><time>2026-04-25T09:26:18Z</time></trkpt><trkpt lat="38.05981766288258" lon="15.843420369126573"><ele>1022.4000000000001</ele><time>2026-04-25T09:26:20Z</time></trkpt><trkpt lat="38.059824139817884" lon="15.843512573078371"><ele>1022.8000000000001</ele><time>2026-04-25T09:26:22.001Z</time></trkpt><trkpt lat="38.05984992032786" lon="15.843618039437015"><ele>1023.2</ele><time>2026-04-25T09:26:24.001Z</time></trkpt><trkpt lat="38.05987455216738" lon="15.843740414571778"><ele>1023.6</ele><time>2026-04-25T09:26:26.001Z</time></trkpt><trkpt lat="38.0598971840237" lon="15.84387374750356"><ele>1024.0</ele><time>2026-04-25T09:26:28.001Z</time></trkpt><trkpt lat="38.05995353516346" lon="15.844007231819873"><ele>1024.0</ele><time>2026-04-25T09:26:30.001Z</time></trkpt><trkpt lat="38.05999700841985" lon="15.844135268103797"><ele>1024.0</ele><time>2026-04-25T09:26:32.001Z</time></trkpt><trkpt lat="38.060031792191076" lon="15.844256464679576"><ele>1024.0</ele><time>2026-04-25T09:26:34.001Z</time></trkpt><trkpt lat="38.06006275579094" lon="15.844386172080673"><ele>1024.0</ele><time>2026-04-25T09:26:36.001Z</time></trkpt><trkpt lat="38.06008615829753" lon="15.84450535555719"><ele>1024.0</ele><time>2026-04-25T09:26:38.001Z</time></trkpt><trkpt lat="38.060061606276726" lon="15.844597394557487"><ele>1022.6</ele><time>2026-04-25T09:26:40.001Z</time></trkpt><trkpt lat="38.05999247749591" lon="15.844707697844399"><ele>1021.2</ele><time>2026-04-25T09:26:42.001Z</time></trkpt><trkpt lat="38.05996464181722" lon="15.844829588076509"><ele>1019.8000000000001</ele><time>2026-04-25T09:26:44.001Z</time></trkpt><trkpt lat="38.06000859786511" lon="15.844919828283347"><ele>1018.4000000000001</ele><time>2026-04-25T09:26:46.001Z</time></trkpt><trkpt lat="38.060123418854204" lon="15.844959018617526"><ele>1017.0</ele><time>2026-04-25T09:26:48.001Z</time></trkpt><trkpt lat="38.0602209354063" lon="15.845017992953272"><ele>1017.0</ele><time>2026-04-25T09:26:50.001Z</time></trkpt><trkpt lat="38.06030623668225" lon="15.84512515834898"><ele>1017.0</ele><time>2026-04-25T09:26:52.001Z</time></trkpt><trkpt lat="38.060342778334466" lon="15.84519614740813"><ele>1017.0</ele><time>2026-04-25T09:26:53.001Z</time></trkpt><trkpt lat="38.06038019086275" lon="15.845343440290442"><ele>1017.0</ele><time>2026-04-25T09:26:55.001Z</time></trkpt><trkpt lat="38.060445032221914" lon="15.845418839638434"><ele>1017.0</ele><time>2026-04-25T09:26:57.001Z</time></trkpt><trkpt lat="38.06047894018317" lon="15.845511721539205"><ele>1018.8333333333334</ele><time>2026-04-25T09:26:59.001Z</time></trkpt><trkpt lat="38.06042795408899" lon="15.845588478256168"><ele>1020.6666666666667</ele><time>2026-04-25T09:27:01.002Z</time></trkpt><trkpt lat="38.0603257119177" lon="15.845595189663117"><ele>1022.5</ele><time>2026-04-25T09:27:03.002Z</time></trkpt><trkpt lat="38.06026098502844" lon="15.845578350084944"><ele>1024.3333333333335</ele><time>2026-04-25T09:27:04.002Z</time></trkpt><trkpt lat="38.06013574872974" lon="15.845540972513515"><ele>1026.1666666666667</ele><time>2026-04-25T09:27:06.002Z</time></trkpt><trkpt lat="38.060072480000116" lon="15.845533836725865"><ele>1028.0</ele><time>2026-04-25T09:27:07.002Z</time></trkpt><trkpt lat="38.059992493842074" lon="15.845583208500775"><ele>1025.75</ele><time>2026-04-25T09:27:09.002Z</time></trkpt><trkpt lat="38.059934220738064" lon="15.845722745558428"><ele>1023.5</ele><time>2026-04-25T09:27:11.002Z</time></trkpt><trkpt lat="38.05987719372732" lon="15.845853061409048"><ele>1021.25</ele><time>2026-04-25T09:27:13.002Z</time></trkpt><trkpt lat="38.059816032837425" lon="15.845954979273369"><ele>1019.0</ele><time>2026-04-25T09:27:15.002Z</time></trkpt><trkpt lat="38.05972053810998" lon="15.846020952088615"><ele>1028.6000000000001</ele><time>2026-04-25T09:27:17.002Z</time></trkpt><trkpt lat="38.05966408768657" lon="15.846056820308451"><ele>1038.2</ele><time>2026-04-25T09:27:18.002Z</time></trkpt><trkpt lat="38.05955633600167" lon="15.846122237986512"><ele>1047.8000000000002</ele><time>2026-04-25T09:27:20.002Z</time></trkpt><trkpt lat="38.059458949161034" lon="15.846130243772329"><ele>1057.4</ele><time>2026-04-25T09:27:22.002Z</time></trkpt><trkpt lat="38.05936023369863" lon="15.846110833817567"><ele>1067.0</ele><time>2026-04-25T09:27:24.002Z</time></trkpt><trkpt lat="38.05924622116869" lon="15.846115582018191"><ele>1067.0</ele><time>2026-04-25T09:27:26.002Z</time></trkpt><trkpt lat="38.05913836676184" lon="15.84610259673296"><ele>1067.0</ele><time>2026-04-25T09:27:28.002Z</time></trkpt><trkpt lat="38.05908247812012" lon="15.846054517986794"><ele>1067.0</ele><time>2026-04-25T09:27:30.002Z</time></trkpt><trkpt lat="38.059028898656834" lon="15.845959177926748"><ele>1067.0</ele><time>2026-04-25T09:27:32.002Z</time></trkpt><trkpt lat="38.05894381741036" lon="15.845843276730566"><ele>1067.0</ele><time>2026-04-25T09:27:34.002Z</time></trkpt><trkpt lat="38.05886101879691" lon="15.845783909211082"><ele>1068.0</ele><time>2026-04-25T09:27:36.002Z</time></trkpt><trkpt lat="38.05879529379746" lon="15.845837660272778"><ele>1069.0</ele><time>2026-04-25T09:27:38.002Z</time></trkpt><trkpt lat="38.05873844740444" lon="15.845929891536336"><ele>1070.0</ele><time>2026-04-25T09:27:40.002Z</time></trkpt><trkpt lat="38.058678119738246" lon="15.846037104973608"><ele>1071.0</ele><time>2026-04-25T09:27:42.002Z</time></trkpt><trkpt lat="38.05860606725724" lon="15.846121442341694"><ele>1072.0</ele><time>2026-04-25T09:27:44.003Z</time></trkpt><trkpt lat="38.05853282816743" lon="15.84615627573358"><ele>1072.0</ele><time>2026-04-25T09:27:46.003Z</time></trkpt><trkpt lat="38.0584693688913" lon="15.846136670774177"><ele>1072.0</ele><time>2026-04-25T09:27:48.003Z</time></trkpt><trkpt lat="38.058418781248726" lon="15.846071728748635"><ele>1072.0</ele><time>2026-04-25T09:27:50.003Z</time></trkpt><trkpt lat="38.0584085868932" lon="15.845957841406955"><ele>1072.0</ele><time>2026-04-25T09:27:52Z</time></trkpt><trkpt lat="38.05837467830487" lon="15.845851711771575"><ele>1072.0</ele><time>2026-04-25T09:27:54Z</time></trkpt><trkpt lat="38.05829177808728" lon="15.845753648437364"><ele>1072.0</ele><time>2026-04-25T09:27:56Z</time></trkpt><trkpt lat="38.058173627906484" lon="15.845693547639863"><ele>1069.0</ele><time>2026-04-25T09:27:58Z</time></trkpt><trkpt lat="38.05810372372273" lon="15.845675155104601"><ele>1066.0</ele><time>2026-04-25T09:27:59Z</time></trkpt><trkpt lat="38.058036022661085" lon="15.845663241315062"><ele>1063.0</ele><time>2026-04-25T09:28:00Z</time></trkpt><trkpt lat="38.057970154406526" lon="15.845655109498923"><ele>1060.0</ele><time>2026-04-25T09:28:01Z</time></trkpt><trkpt lat="38.05790193323041" lon="15.845634095495917"><ele>1057.0</ele><time>2026-04-25T09:28:02Z</time></trkpt><trkpt lat="38.05783969664682" lon="15.845583468420427"><ele>1054.0</ele><time>2026-04-25T09:28:03Z</time></trkpt><trkpt lat="38.05777896150051" lon="15.845534219930569"><ele>1051.0</ele><time>2026-04-25T09:28:04Z</time></trkpt><trkpt lat="38.05772171376226" lon="15.8454805878369"><ele>1051.0</ele><time>2026-04-25T09:28:05Z</time></trkpt><trkpt lat="38.057672756132526" lon="15.84542923991399"><ele>1051.0</ele><time>2026-04-25T09:28:06Z</time></trkpt><trkpt lat="38.05761425369592" lon="15.845366576239794"><ele>1051.0</ele><time>2026-04-25T09:28:07Z</time></trkpt><trkpt lat="38.057525265848604" lon="15.845254157113994"><ele>1051.0</ele><time>2026-04-25T09:28:09Z</time></trkpt><trkpt lat="38.05749008482714" lon="15.845171644392028"><ele>1051.0</ele><time>2026-04-25T09:28:10Z</time></trkpt><trkpt lat="38.057468291692786" lon="15.84506324731765"><ele>1051.0</ele><time>2026-04-25T09:28:11Z</time></trkpt><trkpt lat="38.057453342825234" lon="15.84496065147932"><ele>1047.5</ele><time>2026-04-25T09:28:12Z</time></trkpt><trkpt lat="38.05743745275089" lon="15.8448491264438"><ele>1044.0</ele><time>2026-04-25T09:28:13Z</time></trkpt><trkpt lat="38.05742674835602" lon="15.844738035252105"><ele>1040.5</ele><time>2026-04-25T09:28:14Z</time></trkpt><trkpt lat="38.057412036985994" lon="15.844623631267318"><ele>1037.0</ele><time>2026-04-25T09:28:15Z</time></trkpt><trkpt lat="38.05740674050833" lon="15.844531438361157"><ele>1033.5</ele><time>2026-04-25T09:28:16.001Z</time></trkpt><trkpt lat="38.05739764394308" lon="15.844450564199215"><ele>1030.0</ele><time>2026-04-25T09:28:17.001Z</time></trkpt><trkpt lat="38.05738630514324" lon="15.8443685826742"><ele>1030.0</ele><time>2026-04-25T09:28:18.001Z</time></trkpt><trkpt lat="38.05730688528143" lon="15.844264525326556"><ele>1030.0</ele><time>2026-04-25T09:28:20.001Z</time></trkpt><trkpt lat="38.05724513852987" lon="15.844217186155262"><ele>1030.0</ele><time>2026-04-25T09:28:21.001Z</time></trkpt><trkpt lat="38.05713918295753" lon="15.844154564949385"><ele>1030.0</ele><time>2026-04-25T09:28:23.001Z</time></trkpt><trkpt lat="38.057027177341794" lon="15.844197294656922"><ele>1030.0</ele><time>2026-04-25T09:28:25.001Z</time></trkpt><trkpt lat="38.05694665243426" lon="15.844303459571845"><ele>1030.0</ele><time>2026-04-25T09:28:27.001Z</time></trkpt><trkpt lat="38.05685420194869" lon="15.844317667242068"><ele>1030.0</ele><time>2026-04-25T09:28:29.001Z</time></trkpt><trkpt lat="38.05678802253857" lon="15.844323335318512"><ele>1030.0</ele><time>2026-04-25T09:28:30.001Z</time></trkpt><trkpt lat="38.056719808433925" lon="15.844368134865789"><ele>1030.0</ele><time>2026-04-25T09:28:31.001Z</time></trkpt><trkpt lat="38.05660907997946" lon="15.84442635990514"><ele>1030.0</ele><time>2026-04-25T09:28:33.001Z</time></trkpt><trkpt lat="38.05654288497797" lon="15.844537507014344"><ele>1030.3333333333333</ele><time>2026-04-25T09:28:35.001Z</time></trkpt><trkpt lat="38.05654076345303" lon="15.844705494522207"><ele>1030.6666666666665</ele><time>2026-04-25T09:28:37.001Z</time></trkpt><trkpt lat="38.05655630610117" lon="15.844796008178497"><ele>1031.0</ele><time>2026-04-25T09:28:38.001Z</time></trkpt><trkpt lat="38.05655952775574" lon="15.84488318379262"><ele>1031.3333333333333</ele><time>2026-04-25T09:28:39.001Z</time></trkpt><trkpt lat="38.0565483255029" lon="15.844964975714486"><ele>1031.6666666666667</ele><time>2026-04-25T09:28:40.001Z</time></trkpt><trkpt lat="38.05650852619784" lon="15.845079255837454"><ele>1032.0</ele><time>2026-04-25T09:28:42.001Z</time></trkpt><trkpt lat="38.05646833097634" lon="15.845163430953345"><ele>1032.0</ele><time>2026-04-25T09:28:44.001Z</time></trkpt><trkpt lat="38.0563984257282" lon="15.845217056510094"><ele>1032.0</ele><time>2026-04-25T09:28:46.001Z</time></trkpt><trkpt lat="38.0562907269559" lon="15.845274848162763"><ele>1032.0</ele><time>2026-04-25T09:28:48.001Z</time></trkpt><trkpt lat="38.056213122902214" lon="15.845313866683233"><ele>1032.0</ele><time>2026-04-25T09:28:50.001Z</time></trkpt><trkpt lat="38.056129539862646" lon="15.845355162612003"><ele>1032.0</ele><time>2026-04-25T09:28:52.001Z</time></trkpt><trkpt lat="38.05604332781587" lon="15.845417531564754"><ele>1032.0</ele><time>2026-04-25T09:28:54.001Z</time></trkpt><trkpt lat="38.055977663532964" lon="15.845534787848964"><ele>1032.0</ele><time>2026-04-25T09:28:56.001Z</time></trkpt><trkpt lat="38.055945352532724" lon="15.845667469612614"><ele>1032.0</ele><time>2026-04-25T09:28:58.001Z</time></trkpt><trkpt lat="38.055930860989136" lon="15.845801064778618"><ele>1032.0</ele><time>2026-04-25T09:29:00.001Z</time></trkpt><trkpt lat="38.05585364618261" lon="15.845899579999895"><ele>1032.0</ele><time>2026-04-25T09:29:02.002Z</time></trkpt><trkpt lat="38.05574056940757" lon="15.84594091754933"><ele>1031.5</ele><time>2026-04-25T09:29:04.002Z</time></trkpt><trkpt lat="38.05568057076876" lon="15.845969863436887"><ele>1031.0</ele><time>2026-04-25T09:29:05.002Z</time></trkpt><trkpt lat="38.055575320464435" lon="15.84605593810215"><ele>1030.5</ele><time>2026-04-25T09:29:07.002Z</time></trkpt><trkpt lat="38.05550312413006" lon="15.846099962841608"><ele>1030.0</ele><time>2026-04-25T09:29:09.002Z</time></trkpt><trkpt lat="38.05543324045392" lon="15.846071033497008"><ele>1029.5</ele><time>2026-04-25T09:29:12.002Z</time></trkpt><trkpt lat="38.055373333232936" lon="15.845986570794226"><ele>1029.0</ele><time>2026-04-25T09:29:14.002Z</time></trkpt><trkpt lat="38.055332600916955" lon="15.845868080436496"><ele>1029.0</ele><time>2026-04-25T09:29:16.002Z</time></trkpt><trkpt lat="38.05529798105333" lon="15.845753534237284"><ele>1029.0</ele><time>2026-04-25T09:29:18.002Z</time></trkpt><trkpt lat="38.05523166216953" lon="15.845643478621374"><ele>1029.0</ele><time>2026-04-25T09:29:20.002Z</time></trkpt><trkpt lat="38.05514812845192" lon="15.845570081440377"><ele>1029.0</ele><time>2026-04-25T09:29:22.002Z</time></trkpt><trkpt lat="38.05506981423448" lon="15.845577183677369"><ele>1029.0</ele><time>2026-04-25T09:29:24.002Z</time></trkpt><trkpt lat="38.05498117187989" lon="15.8456430439609"><ele>1032.4</ele><time>2026-04-25T09:29:26.002Z</time></trkpt><trkpt lat="38.05493171759914" lon="15.84574339751836"><ele>1035.8000000000002</ele><time>2026-04-25T09:29:28.002Z</time></trkpt><trkpt lat="38.05488674717398" lon="15.845877495476183"><ele>1039.1999999999998</ele><time>2026-04-25T09:29:30.002Z</time></trkpt><trkpt lat="38.054875774639065" lon="15.845957226855248"><ele>1042.6</ele><time>2026-04-25T09:29:31.002Z</time></trkpt><trkpt lat="38.054836644075806" lon="15.846080811792419"><ele>1046.0</ele><time>2026-04-25T09:29:33.002Z</time></trkpt><trkpt lat="38.05474905626664" lon="15.8461234637731"><ele>1046.0</ele><time>2026-04-25T09:29:35.002Z</time></trkpt><trkpt lat="38.05462291411874" lon="15.846154715534954"><ele>1046.0</ele><time>2026-04-25T09:29:37.002Z</time></trkpt><trkpt lat="38.054561151403036" lon="15.846176104819675"><ele>1046.0</ele><time>2026-04-25T09:29:38.002Z</time></trkpt><trkpt lat="38.054501472048734" lon="15.846213735037866"><ele>1046.0</ele><time>2026-04-25T09:29:39.002Z</time></trkpt><trkpt lat="38.05445181458483" lon="15.846266211473887"><ele>1046.0</ele><time>2026-04-25T09:29:40.002Z</time></trkpt><trkpt lat="38.054404473253925" lon="15.846324492656334"><ele>1046.0</ele><time>2026-04-25T09:29:41.002Z</time></trkpt><trkpt lat="38.054322298365676" lon="15.8464328859357"><ele>1046.0</ele><time>2026-04-25T09:29:43.003Z</time></trkpt><trkpt lat="38.05423056533396" lon="15.846541343003329"><ele>1046.0</ele><time>2026-04-25T09:29:45.003Z</time></trkpt><trkpt lat="38.05418324781175" lon="15.846595160178916"><ele>1046.0</ele><time>2026-04-25T09:29:46.003Z</time></trkpt><trkpt lat="38.054082768646644" lon="15.846686414048305"><ele>1046.0</ele><time>2026-04-25T09:29:48.003Z</time></trkpt><trkpt lat="38.05396328685865" lon="15.846693928522877"><ele>1046.0</ele><time>2026-04-25T09:29:50.003Z</time></trkpt><trkpt lat="38.0538906951354" lon="15.846674794931022"><ele>1044.0</ele><time>2026-04-25T09:29:51.003Z</time></trkpt><trkpt lat="38.053776397681276" lon="15.846671170760567"><ele>1042.0</ele><time>2026-04-25T09:29:53.003Z</time></trkpt><trkpt lat="38.05373693557553" lon="15.84674209488986"><ele>1040.0</ele><time>2026-04-25T09:29:55.003Z</time></trkpt><trkpt lat="38.05369320721333" lon="15.846860017101939"><ele>1038.0</ele><time>2026-04-25T09:29:57.001Z</time></trkpt><trkpt lat="38.053642327530255" lon="15.846908669819626"><ele>1036.0</ele><time>2026-04-25T09:29:58.001Z</time></trkpt><trkpt lat="38.0535825373174" lon="15.846941244703157"><ele>1034.0</ele><time>2026-04-25T09:29:59.001Z</time></trkpt><trkpt lat="38.05352395344037" lon="15.84698695338117"><ele>1034.0</ele><time>2026-04-25T09:30:00.001Z</time></trkpt><trkpt lat="38.05347057163419" lon="15.847033977642573"><ele>1034.0</ele><time>2026-04-25T09:30:01.001Z</time></trkpt><trkpt lat="38.053381405075264" lon="15.847120890759829"><ele>1034.0</ele><time>2026-04-25T09:30:03.001Z</time></trkpt><trkpt lat="38.05333345504898" lon="15.84719019182476"><ele>1034.0</ele><time>2026-04-25T09:30:05.001Z</time></trkpt><trkpt lat="38.05334852728288" lon="15.84729859433914"><ele>1034.0</ele><time>2026-04-25T09:30:07.001Z</time></trkpt><trkpt lat="38.05339047226017" lon="15.847419316384673"><ele>1034.0</ele><time>2026-04-25T09:30:09.001Z</time></trkpt><trkpt lat="38.05341871461995" lon="15.84753881325932"><ele>1035.8</ele><time>2026-04-25T09:30:11.001Z</time></trkpt><trkpt lat="38.05342877344955" lon="15.847655719465237"><ele>1037.6000000000001</ele><time>2026-04-25T09:30:13.001Z</time></trkpt><trkpt lat="38.05340905692854" lon="15.847792986564972"><ele>1039.4</ele><time>2026-04-25T09:30:15.001Z</time></trkpt><trkpt lat="38.05344821802561" lon="15.847915463629137"><ele>1041.2</ele><time>2026-04-25T09:30:17.001Z</time></trkpt><trkpt lat="38.05351830531145" lon="15.848006098531778"><ele>1043.0</ele><time>2026-04-25T09:30:19.001Z</time></trkpt><trkpt lat="38.053598518353134" lon="15.848075651181883"><ele>1043.0</ele><time>2026-04-25T09:30:21.001Z</time></trkpt><trkpt lat="38.053671293583974" lon="15.848138947086774"><ele>1043.0</ele><time>2026-04-25T09:30:23.001Z</time></trkpt><trkpt lat="38.05368127074391" lon="15.848245150061112"><ele>1043.0</ele><time>2026-04-25T09:30:25.001Z</time></trkpt><trkpt lat="38.05362173633603" lon="15.848346365357672"><ele>1043.0</ele><time>2026-04-25T09:30:27.001Z</time></trkpt><trkpt lat="38.05354832329197" lon="15.84844920553633"><ele>1043.0</ele><time>2026-04-25T09:30:29.001Z</time></trkpt><trkpt lat="38.053505193277026" lon="15.848530986862846"><ele>1040.8</ele><time>2026-04-25T09:30:31.001Z</time></trkpt><trkpt lat="38.05342540716635" lon="15.848582374965753"><ele>1038.6</ele><time>2026-04-25T09:30:33.001Z</time></trkpt><trkpt lat="38.05335573430367" lon="15.84861073348899"><ele>1036.4</ele><time>2026-04-25T09:30:35.001Z</time></trkpt><trkpt lat="38.0532777966513" lon="15.848669626722035"><ele>1034.2</ele><time>2026-04-25T09:30:37.001Z</time></trkpt><trkpt lat="38.053259906303126" lon="15.848776841452551"><ele>1032.0</ele><time>2026-04-25T09:30:39.001Z</time></trkpt><trkpt lat="38.053281969520455" lon="15.84892313404192"><ele>1038.3333333333333</ele><time>2026-04-25T09:30:41.001Z</time></trkpt><trkpt lat="38.053293135149474" lon="15.849006235919067"><ele>1044.6666666666667</ele><time>2026-04-25T09:30:42.001Z</time></trkpt><trkpt lat="38.05332248954969" lon="15.849129686187199"><ele>1051.0</ele><time>2026-04-25T09:30:44.001Z</time></trkpt><trkpt lat="38.05337294547231" lon="15.849270129854355"><ele>1057.3333333333335</ele><time>2026-04-25T09:30:46.001Z</time></trkpt><trkpt lat="38.05336296403721" lon="15.849357160456677"><ele>1063.6666666666667</ele><time>2026-04-25T09:30:48.001Z</time></trkpt><trkpt lat="38.0533146106452" lon="15.849451054031716"><ele>1070.0</ele><time>2026-04-25T09:30:50.001Z</time></trkpt><trkpt lat="38.053239811556864" lon="15.84944086910202"><ele>1070.0</ele><time>2026-04-25T09:30:52.001Z</time></trkpt><trkpt lat="38.053129328072146" lon="15.849424266710232"><ele>1070.0</ele><time>2026-04-25T09:30:54.001Z</time></trkpt><trkpt lat="38.053015764463424" lon="15.849474903834082"><ele>1070.0</ele><time>2026-04-25T09:30:56.001Z</time></trkpt><trkpt lat="38.05296027376467" lon="15.849592166378322"><ele>1070.0</ele><time>2026-04-25T09:30:58.001Z</time></trkpt><trkpt lat="38.05293546519428" lon="15.849696250646478"><ele>1070.0</ele><time>2026-04-25T09:31:00.001Z</time></trkpt><trkpt lat="38.05288359575356" lon="15.84981484767384"><ele>1070.0</ele><time>2026-04-25T09:31:02.001Z</time></trkpt><trkpt lat="38.0528301513674" lon="15.849939904701376"><ele>1070.0</ele><time>2026-04-25T09:31:04.001Z</time></trkpt><trkpt lat="38.0527837625383" lon="15.850076806402623"><ele>1070.0</ele><time>2026-04-25T09:31:06.001Z</time></trkpt><trkpt lat="38.05275575673247" lon="15.850151556626447"><ele>1070.0</ele><time>2026-04-25T09:31:07.001Z</time></trkpt><trkpt lat="38.05270616158814" lon="15.850272262893391"><ele>1070.0</ele><time>2026-04-25T09:31:09.002Z</time></trkpt><trkpt lat="38.052696127071385" lon="15.850398733539235"><ele>1077.3333333333335</ele><time>2026-04-25T09:31:11.002Z</time></trkpt><trkpt lat="38.05268325504605" lon="15.85048651419057"><ele>1084.6666666666667</ele><time>2026-04-25T09:31:14.002Z</time></trkpt><trkpt lat="38.05260620824516" lon="15.850525209120887"><ele>1092.0</ele><time>2026-04-25T09:31:16.002Z</time></trkpt><trkpt lat="38.05250334026629" lon="15.850497402893192"><ele>1099.3333333333333</ele><time>2026-04-25T09:31:18.002Z</time></trkpt><trkpt lat="38.052414204045526" lon="15.850402227456357"><ele>1106.6666666666665</ele><time>2026-04-25T09:31:20.002Z</time></trkpt><trkpt lat="38.05237094238695" lon="15.850340218121275"><ele>1114.0</ele><time>2026-04-25T09:31:21.002Z</time></trkpt><trkpt lat="38.05232307493196" lon="15.850286656661309"><ele>1117.2</ele><time>2026-04-25T09:31:22.002Z</time></trkpt><trkpt lat="38.05221387064357" lon="15.850221199093394"><ele>1120.4</ele><time>2026-04-25T09:31:24.002Z</time></trkpt><trkpt lat="38.052150807154916" lon="15.850207092356076"><ele>1123.6</ele><time>2026-04-25T09:31:25.002Z</time></trkpt><trkpt lat="38.052040255160065" lon="15.850219452395086"><ele>1126.8</ele><time>2026-04-25T09:31:27.002Z</time></trkpt><trkpt lat="38.05195436297103" lon="15.850149839358652"><ele>1130.0</ele><time>2026-04-25T09:31:29.002Z</time></trkpt><trkpt lat="38.05191499072815" lon="15.850085788851498"><ele>1126.7142857142856</ele><time>2026-04-25T09:31:30.002Z</time></trkpt><trkpt lat="38.05188249147448" lon="15.850017082730592"><ele>1123.4285714285713</ele><time>2026-04-25T09:31:31.002Z</time></trkpt><trkpt lat="38.051830948906556" lon="15.849937613491212"><ele>1120.142857142857</ele><time>2026-04-25T09:31:32.002Z</time></trkpt><trkpt lat="38.0517776495426" lon="15.84987726129419"><ele>1116.8571428571427</ele><time>2026-04-25T09:31:33.002Z</time></trkpt><trkpt lat="38.05171939957001" lon="15.849819393592153"><ele>1113.5714285714284</ele><time>2026-04-25T09:31:34.002Z</time></trkpt><trkpt lat="38.0516622185111" lon="15.849762825300383"><ele>1110.2857142857142</ele><time>2026-04-25T09:31:35.002Z</time></trkpt><trkpt lat="38.051607669085065" lon="15.849705804755892"><ele>1107.0</ele><time>2026-04-25T09:31:36.002Z</time></trkpt><trkpt lat="38.05155830536995" lon="15.849637613433721"><ele>1107.0</ele><time>2026-04-25T09:31:37.002Z</time></trkpt><trkpt lat="38.05152245718672" lon="15.849570091291206"><ele>1107.0</ele><time>2026-04-25T09:31:38.002Z</time></trkpt><trkpt lat="38.05143643391885" lon="15.849460914455607"><ele>1107.0</ele><time>2026-04-25T09:31:40.002Z</time></trkpt><trkpt lat="38.05137514997882" lon="15.849434558899283"><ele>1107.0</ele><time>2026-04-25T09:31:41.002Z</time></trkpt><trkpt lat="38.051304456645745" lon="15.849434258014565"><ele>1107.0</ele><time>2026-04-25T09:31:42.002Z</time></trkpt><trkpt lat="38.05123653428039" lon="15.849452842708823"><ele>1107.0</ele><time>2026-04-25T09:31:43.002Z</time></trkpt><trkpt lat="38.05111930066192" lon="15.849508243178056"><ele>1107.0</ele><time>2026-04-25T09:31:45.002Z</time></trkpt><trkpt lat="38.05102738750362" lon="15.849598005943447"><ele>1107.0</ele><time>2026-04-25T09:31:47.002Z</time></trkpt><trkpt lat="38.05093484448589" lon="15.849637956342377"><ele>1107.0</ele><time>2026-04-25T09:31:49.002Z</time></trkpt><trkpt lat="38.05083341304396" lon="15.849563731006814"><ele>1107.0</ele><time>2026-04-25T09:31:51.002Z</time></trkpt><trkpt lat="38.050795737169985" lon="15.849499444636036"><ele>1107.0</ele><time>2026-04-25T09:31:52.002Z</time></trkpt><trkpt lat="38.050714620130016" lon="15.849345461492899"><ele>1108.0</ele><time>2026-04-25T09:31:54.002Z</time></trkpt><trkpt lat="38.050650667807155" lon="15.849257818915293"><ele>1109.0</ele><time>2026-04-25T09:31:55.003Z</time></trkpt><trkpt lat="38.050587789737804" lon="15.849193312925948"><ele>1110.0</ele><time>2026-04-25T09:31:56.003Z</time></trkpt><trkpt lat="38.05052835927264" lon="15.849120349309093"><ele>1111.0</ele><time>2026-04-25T09:31:57.003Z</time></trkpt><trkpt lat="38.050473297850445" lon="15.849044698584395"><ele>1112.0</ele><time>2026-04-25T09:31:58.003Z</time></trkpt><trkpt lat="38.05043249927375" lon="15.848974135541312"><ele>1113.0</ele><time>2026-04-25T09:31:59.003Z</time></trkpt><trkpt lat="38.05039810694096" lon="15.848888426564415"><ele>1113.0</ele><time>2026-04-25T09:32:00.003Z</time></trkpt><trkpt lat="38.05037630483191" lon="15.848785266779274"><ele>1113.0</ele><time>2026-04-25T09:32:01.003Z</time></trkpt><trkpt lat="38.05035331668407" lon="15.84868686237997"><ele>1113.0</ele><time>2026-04-25T09:32:02.003Z</time></trkpt><trkpt lat="38.05033917340973" lon="15.84858754562059"><ele>1113.0</ele><time>2026-04-25T09:32:03.001Z</time></trkpt><trkpt lat="38.05032961949106" lon="15.848491893239995"><ele>1113.0</ele><time>2026-04-25T09:32:04.001Z</time></trkpt><trkpt lat="38.05032021430127" lon="15.848393296313061"><ele>1113.0</ele><time>2026-04-25T09:32:05.001Z</time></trkpt><trkpt lat="38.05032991330097" lon="15.84830682473355"><ele>1108.4</ele><time>2026-04-25T09:32:06.001Z</time></trkpt><trkpt lat="38.05035310047717" lon="15.848147925809544"><ele>1103.8</ele><time>2026-04-25T09:32:08.001Z</time></trkpt><trkpt lat="38.05032914146701" lon="15.84802123546529"><ele>1099.2</ele><time>2026-04-25T09:32:10.001Z</time></trkpt><trkpt lat="38.050264805134574" lon="15.847962587507155"><ele>1094.6</ele><time>2026-04-25T09:32:11.001Z</time></trkpt><trkpt lat="38.050217597620794" lon="15.847889988569392"><ele>1090.0</ele><time>2026-04-25T09:32:12.001Z</time></trkpt><trkpt lat="38.0501576103002" lon="15.847832133446262"><ele>1090.0</ele><time>2026-04-25T09:32:13.001Z</time></trkpt><trkpt lat="38.05008778317834" lon="15.84777586615592"><ele>1090.0</ele><time>2026-04-25T09:32:14.001Z</time></trkpt><trkpt lat="38.05002624492917" lon="15.847725927177457"><ele>1090.0</ele><time>2026-04-25T09:32:15.001Z</time></trkpt><trkpt lat="38.04995804711367" lon="15.847662469845098"><ele>1090.0</ele><time>2026-04-25T09:32:16.001Z</time></trkpt><trkpt lat="38.04989138194219" lon="15.847600053881171"><ele>1090.0</ele><time>2026-04-25T09:32:17.001Z</time></trkpt><trkpt lat="38.04983394816886" lon="15.847537929311967"><ele>1090.0</ele><time>2026-04-25T09:32:18.001Z</time></trkpt><trkpt lat="38.04979115422237" lon="15.847452481293002"><ele>1092.5</ele><time>2026-04-25T09:32:19.001Z</time></trkpt><trkpt lat="38.04974472391652" lon="15.847325609030118"><ele>1095.0</ele><time>2026-04-25T09:32:20.001Z</time></trkpt><trkpt lat="38.049735329983164" lon="15.847242391649335"><ele>1097.5</ele><time>2026-04-25T09:32:21.001Z</time></trkpt><trkpt lat="38.049720703643715" lon="15.847119340507959"><ele>1100.0</ele><time>2026-04-25T09:32:22.001Z</time></trkpt><trkpt lat="38.049710279625536" lon="15.847013656813003"><ele>1102.5</ele><time>2026-04-25T09:32:23.001Z</time></trkpt><trkpt lat="38.04969770633177" lon="15.84691418879457"><ele>1105.0</ele><time>2026-04-25T09:32:24.001Z</time></trkpt><trkpt lat="38.04960894458899" lon="15.846808785028207"><ele>1101.6666666666665</ele><time>2026-04-25T09:32:26.001Z</time></trkpt><trkpt lat="38.04953375890667" lon="15.846770922639104"><ele>1098.3333333333333</ele><time>2026-04-25T09:32:27.001Z</time></trkpt><trkpt lat="38.04946214219521" lon="15.846721537453583"><ele>1095.0</ele><time>2026-04-25T09:32:28.001Z</time></trkpt><trkpt lat="38.049388755565126" lon="15.84667990241513"><ele>1091.6666666666667</ele><time>2026-04-25T09:32:29.001Z</time></trkpt><trkpt lat="38.04930123890561" lon="15.846616253313956"><ele>1088.3333333333335</ele><time>2026-04-25T09:32:30.001Z</time></trkpt><trkpt lat="38.04923840324929" lon="15.84654741487363"><ele>1085.0</ele><time>2026-04-25T09:32:31.001Z</time></trkpt><trkpt lat="38.049179501054894" lon="15.846456091518954"><ele>1086.0</ele><time>2026-04-25T09:32:32.001Z</time></trkpt><trkpt lat="38.04912055317564" lon="15.846359324245032"><ele>1087.0</ele><time>2026-04-25T09:32:33.001Z</time></trkpt><trkpt lat="38.04906559488995" lon="15.846264116665857"><ele>1088.0</ele><time>2026-04-25T09:32:34.001Z</time></trkpt><trkpt lat="38.049026597294976" lon="15.846194030519678"><ele>1089.0</ele><time>2026-04-25T09:32:35.001Z</time></trkpt><trkpt lat="38.04891024110335" lon="15.846113044463635"><ele>1090.0</ele><time>2026-04-25T09:32:37.001Z</time></trkpt><trkpt lat="38.04884784161892" lon="15.8460831277987"><ele>1090.0</ele><time>2026-04-25T09:32:38.001Z</time></trkpt><trkpt lat="38.04878784203473" lon="15.846050267274038"><ele>1090.0</ele><time>2026-04-25T09:32:39.001Z</time></trkpt><trkpt lat="38.04873175641899" lon="15.846003763782186"><ele>1090.0</ele><time>2026-04-25T09:32:40.001Z</time></trkpt><trkpt lat="38.04861792015819" lon="15.845963920340512"><ele>1090.0</ele><time>2026-04-25T09:32:42.001Z</time></trkpt><trkpt lat="38.048514552638004" lon="15.846014164999135"><ele>1090.0</ele><time>2026-04-25T09:32:44.001Z</time></trkpt><trkpt lat="38.0484580160044" lon="15.846053950968201"><ele>1090.0</ele><time>2026-04-25T09:32:45.001Z</time></trkpt><trkpt lat="38.04837510325494" lon="15.846100788633922"><ele>1090.0</ele><time>2026-04-25T09:32:46.001Z</time></trkpt><trkpt lat="38.04830147371693" lon="15.84612966775928"><ele>1090.0</ele><time>2026-04-25T09:32:47.001Z</time></trkpt><trkpt lat="38.04823804101575" lon="15.84616109708462"><ele>1090.0</ele><time>2026-04-25T09:32:48.001Z</time></trkpt><trkpt lat="38.0481727112474" lon="15.846192731268848"><ele>1090.0</ele><time>2026-04-25T09:32:49.001Z</time></trkpt><trkpt lat="38.04811233079791" lon="15.846221943433132"><ele>1090.0</ele><time>2026-04-25T09:32:50.001Z</time></trkpt><trkpt lat="38.04803398534693" lon="15.846231136406159"><ele>1090.0</ele><time>2026-04-25T09:32:51.001Z</time></trkpt><trkpt lat="38.04796295553989" lon="15.846242459063102"><ele>1090.0</ele><time>2026-04-25T09:32:52.001Z</time></trkpt><trkpt lat="38.04789128608499" lon="15.846244880263823"><ele>1085.6666666666665</ele><time>2026-04-25T09:32:53.001Z</time></trkpt><trkpt lat="38.04782010781147" lon="15.846234363144516"><ele>1081.3333333333333</ele><time>2026-04-25T09:32:54.001Z</time></trkpt><trkpt lat="38.04774330808124" lon="15.8462228376274"><ele>1077.0</ele><time>2026-04-25T09:32:55.001Z</time></trkpt><trkpt lat="38.04766593278047" lon="15.8462335801734"><ele>1072.6666666666667</ele><time>2026-04-25T09:32:56.001Z</time></trkpt><trkpt lat="38.047604715446845" lon="15.846276196376317"><ele>1068.3333333333335</ele><time>2026-04-25T09:32:57.001Z</time></trkpt><trkpt lat="38.04754714136244" lon="15.846352033767596"><ele>1064.0</ele><time>2026-04-25T09:32:58.001Z</time></trkpt><trkpt lat="38.04750382837343" lon="15.846441267488833"><ele>1064.0</ele><time>2026-04-25T09:32:59.001Z</time></trkpt><trkpt lat="38.04747260397845" lon="15.846532836999158"><ele>1064.0</ele><time>2026-04-25T09:33:00.001Z</time></trkpt><trkpt lat="38.047436466626394" lon="15.846620712879972"><ele>1064.0</ele><time>2026-04-25T09:33:01.001Z</time></trkpt><trkpt lat="38.047403504788186" lon="15.846720514768299"><ele>1064.0</ele><time>2026-04-25T09:33:02.001Z</time></trkpt><trkpt lat="38.047366058267336" lon="15.846821557600158"><ele>1064.0</ele><time>2026-04-25T09:33:03.001Z</time></trkpt><trkpt lat="38.047331528786906" lon="15.846928723738078"><ele>1064.0</ele><time>2026-04-25T09:33:04.001Z</time></trkpt><trkpt lat="38.047298565325164" lon="15.847038011715496"><ele>1062.3333333333335</ele><time>2026-04-25T09:33:05.001Z</time></trkpt><trkpt lat="38.04726787943988" lon="15.847133064028519"><ele>1060.6666666666667</ele><time>2026-04-25T09:33:06.001Z</time></trkpt><trkpt lat="38.04723992111945" lon="15.847222911178578"><ele>1059.0</ele><time>2026-04-25T09:33:07.001Z</time></trkpt><trkpt lat="38.047226434720585" lon="15.847316045105858"><ele>1057.3333333333333</ele><time>2026-04-25T09:33:08.001Z</time></trkpt><trkpt lat="38.04720289461596" lon="15.847392455220241"><ele>1055.6666666666665</ele><time>2026-04-25T09:33:09.001Z</time></trkpt><trkpt lat="38.04717600628989" lon="15.847503424441193"><ele>1054.0</ele><time>2026-04-25T09:33:11.001Z</time></trkpt><trkpt lat="38.04713411380599" lon="15.847566090858814"><ele>1060.8</ele><time>2026-04-25T09:33:14.002Z</time></trkpt><trkpt lat="38.047078064845" lon="15.847632143313644"><ele>1067.6000000000001</ele><time>2026-04-25T09:33:16.002Z</time></trkpt><trkpt lat="38.047007033054406" lon="15.84766659390793"><ele>1074.4</ele><time>2026-04-25T09:33:18.002Z</time></trkpt><trkpt lat="38.046922979271365" lon="15.84775245702276"><ele>1081.2</ele><time>2026-04-25T09:33:20.002Z</time></trkpt><trkpt lat="38.04683499611339" lon="15.847817195633715"><ele>1088.0</ele><time>2026-04-25T09:33:22.002Z</time></trkpt><trkpt lat="38.04674419774858" lon="15.847854198525605"><ele>1088.0</ele><time>2026-04-25T09:33:24.002Z</time></trkpt><trkpt lat="38.04664024760158" lon="15.84783712379937"><ele>1088.0</ele><time>2026-04-25T09:33:26.002Z</time></trkpt><trkpt lat="38.04651916485514" lon="15.847813603242464"><ele>1088.0</ele><time>2026-04-25T09:33:28.002Z</time></trkpt><trkpt lat="38.046450931628925" lon="15.847831487968365"><ele>1088.0</ele><time>2026-04-25T09:33:29.002Z</time></trkpt><trkpt lat="38.04638670423091" lon="15.847874072837737"><ele>1088.0</ele><time>2026-04-25T09:33:30.002Z</time></trkpt><trkpt lat="38.046332257126735" lon="15.847931481107825"><ele>1088.0</ele><time>2026-04-25T09:33:31.002Z</time></trkpt><trkpt lat="38.04626590189737" lon="15.847963058604009"><ele>1085.8333333333335</ele><time>2026-04-25T09:33:32.002Z</time></trkpt><trkpt lat="38.04619772382102" lon="15.847983644689975"><ele>1083.6666666666667</ele><time>2026-04-25T09:33:33.002Z</time></trkpt><trkpt lat="38.04612663173754" lon="15.847973810816093"><ele>1081.5</ele><time>2026-04-25T09:33:34.002Z</time></trkpt><trkpt lat="38.04605306229835" lon="15.847955986188708"><ele>1079.3333333333333</ele><time>2026-04-25T09:33:35.002Z</time></trkpt><trkpt lat="38.04596322430446" lon="15.847924313476883"><ele>1077.1666666666665</ele><time>2026-04-25T09:33:36.002Z</time></trkpt><trkpt lat="38.04588505400625" lon="15.847915682626745"><ele>1075.0</ele><time>2026-04-25T09:33:37.002Z</time></trkpt><trkpt lat="38.04580635355096" lon="15.847943748588753"><ele>1073.3333333333333</ele><time>2026-04-25T09:33:38.002Z</time></trkpt><trkpt lat="38.04572120997497" lon="15.84796340795873"><ele>1071.6666666666665</ele><time>2026-04-25T09:33:39.002Z</time></trkpt><trkpt lat="38.04564151883696" lon="15.847977564001456"><ele>1070.0</ele><time>2026-04-25T09:33:40.002Z</time></trkpt><trkpt lat="38.045550236792586" lon="15.848004155056225"><ele>1068.3333333333333</ele><time>2026-04-25T09:33:41.002Z</time></trkpt><trkpt lat="38.04545966438217" lon="15.848022526427485"><ele>1066.6666666666667</ele><time>2026-04-25T09:33:42.002Z</time></trkpt><trkpt lat="38.04538040127381" lon="15.84804922839743"><ele>1065.0</ele><time>2026-04-25T09:33:43.002Z</time></trkpt><trkpt lat="38.04530301907883" lon="15.848061436616424"><ele>1065.0</ele><time>2026-04-25T09:33:44.002Z</time></trkpt><trkpt lat="38.04523457024442" lon="15.84808387393647"><ele>1065.0</ele><time>2026-04-25T09:33:45.002Z</time></trkpt><trkpt lat="38.04516952800094" lon="15.848106938419662"><ele>1065.0</ele><time>2026-04-25T09:33:46.002Z</time></trkpt><trkpt lat="38.045109202463514" lon="15.848130346290834"><ele>1065.0</ele><time>2026-04-25T09:33:47.002Z</time></trkpt><trkpt lat="38.04504148875385" lon="15.848158315614262"><ele>1065.0</ele><time>2026-04-25T09:33:48.002Z</time></trkpt><trkpt lat="38.0449664473242" lon="15.8481764405027"><ele>1065.0</ele><time>2026-04-25T09:33:49.002Z</time></trkpt><trkpt lat="38.04488250464314" lon="15.848183087214261"><ele>1065.0</ele><time>2026-04-25T09:33:50.002Z</time></trkpt><trkpt lat="38.04480524225748" lon="15.84818291899883"><ele>1064.1666666666667</ele><time>2026-04-25T09:33:51.002Z</time></trkpt><trkpt lat="38.044722844925246" lon="15.848197347221761"><ele>1063.3333333333333</ele><time>2026-04-25T09:33:52.002Z</time></trkpt><trkpt lat="38.0446453986628" lon="15.848225825624912"><ele>1062.5</ele><time>2026-04-25T09:33:53.002Z</time></trkpt><trkpt lat="38.04456548864121" lon="15.848264282831531"><ele>1061.6666666666665</ele><time>2026-04-25T09:33:54.002Z</time></trkpt><trkpt lat="38.044494252256534" lon="15.848293805045316"><ele>1060.8333333333333</ele><time>2026-04-25T09:33:55.002Z</time></trkpt><trkpt lat="38.04442604246837" lon="15.848309656713713"><ele>1060.0</ele><time>2026-04-25T09:33:56.002Z</time></trkpt><trkpt lat="38.04434732156711" lon="15.848293722623056"><ele>1060.0</ele><time>2026-04-25T09:33:57.002Z</time></trkpt><trkpt lat="38.04425589312764" lon="15.84826291778736"><ele>1060.0</ele><time>2026-04-25T09:33:58.002Z</time></trkpt><trkpt lat="38.044166555074206" lon="15.848226280360121"><ele>1060.0</ele><time>2026-04-25T09:33:59.002Z</time></trkpt><trkpt lat="38.044084777950644" lon="15.848185976170559"><ele>1060.0</ele><time>2026-04-25T09:34:00.002Z</time></trkpt><trkpt lat="38.044016881443916" lon="15.848159420534547"><ele>1060.0</ele><time>2026-04-25T09:34:01.002Z</time></trkpt><trkpt lat="38.04393245746263" lon="15.848146897180222"><ele>1060.0</ele><time>2026-04-25T09:34:02.002Z</time></trkpt><trkpt lat="38.043855726147314" lon="15.848167550734166"><ele>1058.6666666666665</ele><time>2026-04-25T09:34:03.002Z</time></trkpt><trkpt lat="38.04378413581602" lon="15.848203896463573"><ele>1057.3333333333333</ele><time>2026-04-25T09:34:04.003Z</time></trkpt><trkpt lat="38.04373883167747" lon="15.848267184611856"><ele>1056.0</ele><time>2026-04-25T09:34:05.003Z</time></trkpt><trkpt lat="38.043705653886335" lon="15.848340247922946"><ele>1054.6666666666667</ele><time>2026-04-25T09:34:06.003Z</time></trkpt><trkpt lat="38.043690240990685" lon="15.848439566622233"><ele>1053.3333333333335</ele><time>2026-04-25T09:34:07.003Z</time></trkpt><trkpt lat="38.04367187696895" lon="15.848544299628136"><ele>1052.0</ele><time>2026-04-25T09:34:08.003Z</time></trkpt><trkpt lat="38.04364034282412" lon="15.848641578238329"><ele>1052.0</ele><time>2026-04-25T09:34:09.001Z</time></trkpt><trkpt lat="38.04359520262912" lon="15.848722909034818"><ele>1052.0</ele><time>2026-04-25T09:34:10.001Z</time></trkpt><trkpt lat="38.04353325975521" lon="15.848797055292813"><ele>1052.0</ele><time>2026-04-25T09:34:11.001Z</time></trkpt><trkpt lat="38.043485259628135" lon="15.848861958249431"><ele>1052.0</ele><time>2026-04-25T09:34:12.001Z</time></trkpt><trkpt lat="38.04344174460978" lon="15.848935419589779"><ele>1052.0</ele><time>2026-04-25T09:34:13.001Z</time></trkpt><trkpt lat="38.04338812490642" lon="15.849028595397368"><ele>1052.0</ele><time>2026-04-25T09:34:14.001Z</time></trkpt><trkpt lat="38.04334648332239" lon="15.849097943491106"><ele>1052.0</ele><time>2026-04-25T09:34:15.001Z</time></trkpt><trkpt lat="38.04330947222428" lon="15.849167137387317"><ele>1052.0</ele><time>2026-04-25T09:34:16.001Z</time></trkpt><trkpt lat="38.04329910543673" lon="15.849295196733136"><ele>1052.0</ele><time>2026-04-25T09:34:18.001Z</time></trkpt><trkpt lat="38.04333736003768" lon="15.849359681299042"><ele>1052.0</ele><time>2026-04-25T09:34:19.001Z</time></trkpt><trkpt lat="38.04338707643452" lon="15.849421487383694"><ele>1052.0</ele><time>2026-04-25T09:34:20.001Z</time></trkpt><trkpt lat="38.043439108074914" lon="15.849477145704176"><ele>1052.0</ele><time>2026-04-25T09:34:21.001Z</time></trkpt><trkpt lat="38.04350524547022" lon="15.849514677213305"><ele>1052.0</ele><time>2026-04-25T09:34:22.001Z</time></trkpt><trkpt lat="38.04362872265817" lon="15.849487091588765"><ele>1052.0</ele><time>2026-04-25T09:34:24.001Z</time></trkpt><trkpt lat="38.04368626745981" lon="15.849443979630102"><ele>1052.0</ele><time>2026-04-25T09:34:25.001Z</time></trkpt><trkpt lat="38.0437302706458" lon="15.849384751826495"><ele>1052.0</ele><time>2026-04-25T09:34:26.001Z</time></trkpt><trkpt lat="38.04382762509842" lon="15.849296774859749"><ele>1052.0</ele><time>2026-04-25T09:34:28.001Z</time></trkpt><trkpt lat="38.043905377545855" lon="15.849287883168504"><ele>1052.0</ele><time>2026-04-25T09:34:29.001Z</time></trkpt><trkpt lat="38.04402538167842" lon="15.84930592531057"><ele>1052.0</ele><time>2026-04-25T09:34:31.001Z</time></trkpt><trkpt lat="38.04409535969904" lon="15.849342165870675"><ele>1050.1666666666667</ele><time>2026-04-25T09:34:32.001Z</time></trkpt><trkpt lat="38.044157594649555" lon="15.84939460684163"><ele>1048.3333333333335</ele><time>2026-04-25T09:34:33.001Z</time></trkpt><trkpt lat="38.044208048321835" lon="15.849450688893906"><ele>1046.5</ele><time>2026-04-25T09:34:34.001Z</time></trkpt><trkpt lat="38.044263195184016" lon="15.849502165932114"><ele>1044.6666666666667</ele><time>2026-04-25T09:34:35.001Z</time></trkpt><trkpt lat="38.04432655561525" lon="15.849521707854144"><ele>1042.8333333333333</ele><time>2026-04-25T09:34:36.001Z</time></trkpt><trkpt lat="38.044437239109776" lon="15.84942907978294"><ele>1041.0</ele><time>2026-04-25T09:34:38.001Z</time></trkpt><trkpt lat="38.0444716012348" lon="15.84935106804486"><ele>1041.0</ele><time>2026-04-25T09:34:39.001Z</time></trkpt><trkpt lat="38.04454749070994" lon="15.849283803504438"><ele>1041.0</ele><time>2026-04-25T09:34:41.001Z</time></trkpt><trkpt lat="38.04467572176183" lon="15.849302905070486"><ele>1041.0</ele><time>2026-04-25T09:34:43.001Z</time></trkpt><trkpt lat="38.04472608295009" lon="15.849354607571371"><ele>1041.0</ele><time>2026-04-25T09:34:44.001Z</time></trkpt><trkpt lat="38.04479952636642" lon="15.849406873874605"><ele>1041.0</ele><time>2026-04-25T09:34:45.001Z</time></trkpt><trkpt lat="38.04489244926377" lon="15.849462231253497"><ele>1042.0</ele><time>2026-04-25T09:34:46.001Z</time></trkpt><trkpt lat="38.044981055312476" lon="15.849502373877417"><ele>1043.0</ele><time>2026-04-25T09:34:47.001Z</time></trkpt><trkpt lat="38.04504759308319" lon="15.849531150871135"><ele>1044.0</ele><time>2026-04-25T09:34:48.001Z</time></trkpt><trkpt lat="38.045129532224244" lon="15.849604222433232"><ele>1045.0</ele><time>2026-04-25T09:34:50.001Z</time></trkpt><trkpt lat="38.04519249867884" lon="15.849683085404337"><ele>1046.0</ele><time>2026-04-25T09:34:52.001Z</time></trkpt><trkpt lat="38.045261703557046" lon="15.849741291109039"><ele>1047.0</ele><time>2026-04-25T09:34:54.001Z</time></trkpt><trkpt lat="38.04535188364327" lon="15.84977763605006"><ele>1047.0</ele><time>2026-04-25T09:34:56.001Z</time></trkpt><trkpt lat="38.04543179919797" lon="15.849792466406237"><ele>1047.0</ele><time>2026-04-25T09:34:59.001Z</time></trkpt><trkpt lat="38.045527164379024" lon="15.849759665871218"><ele>1047.0</ele><time>2026-04-25T09:35:01.001Z</time></trkpt><trkpt lat="38.045623382741674" lon="15.849771906709275"><ele>1047.0</ele><time>2026-04-25T09:35:03.001Z</time></trkpt><trkpt lat="38.04575042184097" lon="15.849801763507445"><ele>1047.0</ele><time>2026-04-25T09:35:05.001Z</time></trkpt><trkpt lat="38.04583630052864" lon="15.849880597620185"><ele>1048.0</ele><time>2026-04-25T09:35:08.001Z</time></trkpt><trkpt lat="38.04593584300834" lon="15.84993512224959"><ele>1049.0</ele><time>2026-04-25T09:35:10.001Z</time></trkpt><trkpt lat="38.04604968973456" lon="15.850012867109225"><ele>1050.0</ele><time>2026-04-25T09:35:12.001Z</time></trkpt><trkpt lat="38.04610469596523" lon="15.850061613928924"><ele>1051.0</ele><time>2026-04-25T09:35:13.001Z</time></trkpt><trkpt lat="38.04619996657989" lon="15.850121278494496"><ele>1052.0</ele><time>2026-04-25T09:35:15.001Z</time></trkpt><trkpt lat="38.0463033566024" lon="15.850194669459523"><ele>1052.0</ele><time>2026-04-25T09:35:17.001Z</time></trkpt><trkpt lat="38.046379313572544" lon="15.850279241289822"><ele>1052.0</ele><time>2026-04-25T09:35:19.001Z</time></trkpt><trkpt lat="38.04639583926421" lon="15.850383517897976"><ele>1052.0</ele><time>2026-04-25T09:35:21.001Z</time></trkpt><trkpt lat="38.04633584028067" lon="15.850480344857178"><ele>1052.0</ele><time>2026-04-25T09:35:23.001Z</time></trkpt><trkpt lat="38.04627754477977" lon="15.850519546676443"><ele>1052.0</ele><time>2026-04-25T09:35:24.001Z</time></trkpt><trkpt lat="38.04621379636014" lon="15.85053804431291"><ele>1052.0</ele><time>2026-04-25T09:35:25.002Z</time></trkpt><trkpt lat="38.046144768131754" lon="15.8505518439768"><ele>1052.0</ele><time>2026-04-25T09:35:26.002Z</time></trkpt><trkpt lat="38.046078917297436" lon="15.85057237895443"><ele>1052.0</ele><time>2026-04-25T09:35:27.002Z</time></trkpt><trkpt lat="38.0459701802238" lon="15.850651238496706"><ele>1052.0</ele><time>2026-04-25T09:35:29.002Z</time></trkpt><trkpt lat="38.04591643740114" lon="15.850708428680269"><ele>1052.0</ele><time>2026-04-25T09:35:30.002Z</time></trkpt><trkpt lat="38.04585424063408" lon="15.85078283106524"><ele>1052.0</ele><time>2026-04-25T09:35:31.002Z</time></trkpt><trkpt lat="38.04580026046356" lon="15.850846077873294"><ele>1052.0</ele><time>2026-04-25T09:35:32.002Z</time></trkpt><trkpt lat="38.04573679180472" lon="15.850909400718555"><ele>1048.4</ele><time>2026-04-25T09:35:33.002Z</time></trkpt><trkpt lat="38.045673215407795" lon="15.850970150133952"><ele>1044.8000000000002</ele><time>2026-04-25T09:35:34.002Z</time></trkpt><trkpt lat="38.04561452472797" lon="15.851033328636525"><ele>1041.2</ele><time>2026-04-25T09:35:35.002Z</time></trkpt><trkpt lat="38.045563268165736" lon="15.851092585679936"><ele>1037.6000000000001</ele><time>2026-04-25T09:35:36.002Z</time></trkpt><trkpt lat="38.04549668452399" lon="15.851221718329626"><ele>1034.0</ele><time>2026-04-25T09:35:38.002Z</time></trkpt><trkpt lat="38.04550585635002" lon="15.851352889605819"><ele>1034.0</ele><time>2026-04-25T09:35:40.002Z</time></trkpt><trkpt lat="38.04549307611831" lon="15.85149246350763"><ele>1034.0</ele><time>2026-04-25T09:35:42.002Z</time></trkpt><trkpt lat="38.04547046909095" lon="15.851574427939783"><ele>1034.0</ele><time>2026-04-25T09:35:43.002Z</time></trkpt><trkpt lat="38.045455615282" lon="15.851661564789968"><ele>1034.0</ele><time>2026-04-25T09:35:44.002Z</time></trkpt><trkpt lat="38.045447740110795" lon="15.851754362448904"><ele>1034.0</ele><time>2026-04-25T09:35:45.002Z</time></trkpt><trkpt lat="38.045450373112786" lon="15.851858829774484"><ele>1034.0</ele><time>2026-04-25T09:35:46.002Z</time></trkpt><trkpt lat="38.04548713465233" lon="15.85195452907463"><ele>1034.4</ele><time>2026-04-25T09:35:47.002Z</time></trkpt><trkpt lat="38.04556398317823" lon="15.85201513211271"><ele>1034.8000000000002</ele><time>2026-04-25T09:35:48.002Z</time></trkpt><trkpt lat="38.045669505060374" lon="15.852028384518563"><ele>1035.1999999999998</ele><time>2026-04-25T09:35:49.002Z</time></trkpt><trkpt lat="38.04574523816656" lon="15.852098531199676"><ele>1035.6</ele><time>2026-04-25T09:35:50.002Z</time></trkpt><trkpt lat="38.04581485646954" lon="15.852170251337048"><ele>1036.0</ele><time>2026-04-25T09:35:51.002Z</time></trkpt><trkpt lat="38.04588324827771" lon="15.852240485355725"><ele>1038.6</ele><time>2026-04-25T09:35:52.002Z</time></trkpt><trkpt lat="38.045976936862424" lon="15.852258314650674"><ele>1041.1999999999998</ele><time>2026-04-25T09:35:53.002Z</time></trkpt><trkpt lat="38.04607002384247" lon="15.852226274800014"><ele>1043.8000000000002</ele><time>2026-04-25T09:35:54.002Z</time></trkpt><trkpt lat="38.046160838894515" lon="15.852189279432077"><ele>1046.4</ele><time>2026-04-25T09:35:55.002Z</time></trkpt><trkpt lat="38.04626053352877" lon="15.85217040205538"><ele>1049.0</ele><time>2026-04-25T09:35:56.002Z</time></trkpt><trkpt lat="38.046367116342054" lon="15.852161523349013"><ele>1049.0</ele><time>2026-04-25T09:35:57.002Z</time></trkpt><trkpt lat="38.046470721520585" lon="15.852152449066146"><ele>1049.0</ele><time>2026-04-25T09:35:58.002Z</time></trkpt><trkpt lat="38.04657042458268" lon="15.852139085707718"><ele>1049.0</ele><time>2026-04-25T09:35:59.002Z</time></trkpt><trkpt lat="38.04666158045758" lon="15.852138214110532"><ele>1049.0</ele><time>2026-04-25T09:36:00.002Z</time></trkpt><trkpt lat="38.04675695771859" lon="15.852132327583382"><ele>1049.0</ele><time>2026-04-25T09:36:01.002Z</time></trkpt><trkpt lat="38.04685505785518" lon="15.852144605609208"><ele>1051.6000000000001</ele><time>2026-04-25T09:36:02.002Z</time></trkpt><trkpt lat="38.046951861353" lon="15.852167650508799"><ele>1054.2</ele><time>2026-04-25T09:36:03.002Z</time></trkpt><trkpt lat="38.047053282178766" lon="15.852203035885552"><ele>1056.8000000000002</ele><time>2026-04-25T09:36:04.002Z</time></trkpt><trkpt lat="38.04714951888334" lon="15.85225442668192"><ele>1059.4</ele><time>2026-04-25T09:36:05.002Z</time></trkpt><trkpt lat="38.047251495928336" lon="15.85229123512451"><ele>1062.0</ele><time>2026-04-25T09:36:06.002Z</time></trkpt><trkpt lat="38.04735150140471" lon="15.852350151181122"><ele>1062.0</ele><time>2026-04-25T09:36:07.002Z</time></trkpt><trkpt lat="38.047440013714194" lon="15.85240750349506"><ele>1062.0</ele><time>2026-04-25T09:36:08.002Z</time></trkpt><trkpt lat="38.04752827720948" lon="15.852436277536329"><ele>1062.0</ele><time>2026-04-25T09:36:09.002Z</time></trkpt><trkpt lat="38.047615461632454" lon="15.852413483256292"><ele>1062.0</ele><time>2026-04-25T09:36:10.002Z</time></trkpt><trkpt lat="38.047750311591905" lon="15.852407732441492"><ele>1062.0</ele><time>2026-04-25T09:36:11.002Z</time></trkpt><trkpt lat="38.047844559057715" lon="15.85236260483419"><ele>1064.5</ele><time>2026-04-25T09:36:12.002Z</time></trkpt><trkpt lat="38.0479287422696" lon="15.85233731145535"><ele>1067.0</ele><time>2026-04-25T09:36:13.002Z</time></trkpt><trkpt lat="38.048001667708824" lon="15.852391964421999"><ele>1069.5</ele><time>2026-04-25T09:36:14.002Z</time></trkpt><trkpt lat="38.04803777425727" lon="15.852472356229331"><ele>1072.0</ele><time>2026-04-25T09:36:15Z</time></trkpt><trkpt lat="38.04803189549345" lon="15.85256984728696"><ele>1074.5</ele><time>2026-04-25T09:36:16Z</time></trkpt><trkpt lat="38.048069461564324" lon="15.85269965647439"><ele>1077.0</ele><time>2026-04-25T09:36:17Z</time></trkpt><trkpt lat="38.04811889132374" lon="15.852825021515365"><ele>1077.3333333333333</ele><time>2026-04-25T09:36:18Z</time></trkpt><trkpt lat="38.048176713081986" lon="15.852939027244256"><ele>1077.6666666666667</ele><time>2026-04-25T09:36:19Z</time></trkpt><trkpt lat="38.04825470195671" lon="15.853000144609963"><ele>1078.0</ele><time>2026-04-25T09:36:20Z</time></trkpt><trkpt lat="38.048340521226315" lon="15.85305029892255"><ele>1078.3333333333335</ele><time>2026-04-25T09:36:21Z</time></trkpt><trkpt lat="38.04842735425561" lon="15.85303796366604"><ele>1078.6666666666667</ele><time>2026-04-25T09:36:22Z</time></trkpt><trkpt lat="38.048477322225324" lon="15.852979667326085"><ele>1079.0</ele><time>2026-04-25T09:36:23Z</time></trkpt><trkpt lat="38.0484733115582" lon="15.852888202934217"><ele>1079.0</ele><time>2026-04-25T09:36:24Z</time></trkpt><trkpt lat="38.04843026925853" lon="15.852807480986696"><ele>1079.0</ele><time>2026-04-25T09:36:25Z</time></trkpt><trkpt lat="38.04836688666166" lon="15.852747617229447"><ele>1079.0</ele><time>2026-04-25T09:36:26Z</time></trkpt><trkpt lat="38.048335924246096" lon="15.852668790443351"><ele>1079.0</ele><time>2026-04-25T09:36:27Z</time></trkpt><trkpt lat="38.04833018927452" lon="15.852554249105467"><ele>1079.0</ele><time>2026-04-25T09:36:28Z</time></trkpt><trkpt lat="38.04833560513385" lon="15.852449603394035"><ele>1079.0</ele><time>2026-04-25T09:36:29Z</time></trkpt><trkpt lat="38.04835275142746" lon="15.852326501275684"><ele>1078.6000000000001</ele><time>2026-04-25T09:36:30Z</time></trkpt><trkpt lat="38.048364771733176" lon="15.852208629411892"><ele>1078.2</ele><time>2026-04-25T09:36:31Z</time></trkpt><trkpt lat="38.048341061887754" lon="15.852093979709194"><ele>1077.8000000000002</ele><time>2026-04-25T09:36:32Z</time></trkpt><trkpt lat="38.04829244963803" lon="15.851980113392177"><ele>1077.4</ele><time>2026-04-25T09:36:33Z</time></trkpt><trkpt lat="38.04820935605234" lon="15.851871229877087"><ele>1077.0</ele><time>2026-04-25T09:36:34Z</time></trkpt><trkpt lat="38.04816247891664" lon="15.851762650009901"><ele>1081.2</ele><time>2026-04-25T09:36:35Z</time></trkpt><trkpt lat="38.04811174353537" lon="15.851661133614092"><ele>1085.4</ele><time>2026-04-25T09:36:36Z</time></trkpt><trkpt lat="38.04807215283712" lon="15.851560188430275"><ele>1089.6</ele><time>2026-04-25T09:36:37Z</time></trkpt><trkpt lat="38.04804305796487" lon="15.85144336793149"><ele>1093.8</ele><time>2026-04-25T09:36:38Z</time></trkpt><trkpt lat="38.04801401785754" lon="15.8513112029071"><ele>1098.0</ele><time>2026-04-25T09:36:39Z</time></trkpt><trkpt lat="38.04797853955952" lon="15.85117161956368"><ele>1098.0</ele><time>2026-04-25T09:36:40Z</time></trkpt><trkpt lat="38.047951918864065" lon="15.851026116552617"><ele>1098.0</ele><time>2026-04-25T09:36:41Z</time></trkpt><trkpt lat="38.04791954991996" lon="15.850883450630544"><ele>1098.0</ele><time>2026-04-25T09:36:42Z</time></trkpt><trkpt lat="38.04788140171928" lon="15.850738223311847"><ele>1098.0</ele><time>2026-04-25T09:36:43Z</time></trkpt><trkpt lat="38.047827548412954" lon="15.850600708237504"><ele>1098.5</ele><time>2026-04-25T09:36:44Z</time></trkpt><trkpt lat="38.04775896170411" lon="15.85047840978035"><ele>1099.0</ele><time>2026-04-25T09:36:45Z</time></trkpt><trkpt lat="38.04768225458383" lon="15.850361351842245"><ele>1099.5</ele><time>2026-04-25T09:36:46Z</time></trkpt><trkpt lat="38.047609815259236" lon="15.85025624386163"><ele>1100.0</ele><time>2026-04-25T09:36:47Z</time></trkpt><trkpt lat="38.047551058386745" lon="15.850142510164796"><ele>1102.8</ele><time>2026-04-25T09:36:48Z</time></trkpt><trkpt lat="38.047504402654916" lon="15.85000340780483"><ele>1105.6</ele><time>2026-04-25T09:36:49Z</time></trkpt><trkpt lat="38.047474195330715" lon="15.84985231546976"><ele>1108.4</ele><time>2026-04-25T09:36:50Z</time></trkpt><trkpt lat="38.047451885911656" lon="15.849723733755612"><ele>1111.2</ele><time>2026-04-25T09:36:51Z</time></trkpt><trkpt lat="38.047456055742025" lon="15.849635462544729"><ele>1114.0</ele><time>2026-04-25T09:36:52Z</time></trkpt><trkpt lat="38.047496049613095" lon="15.849571434597596"><ele>1114.0</ele><time>2026-04-25T09:36:53Z</time></trkpt><trkpt lat="38.047565519811286" lon="15.849537021818438"><ele>1114.0</ele><time>2026-04-25T09:36:54Z</time></trkpt><trkpt lat="38.047652245290315" lon="15.849578931125972"><ele>1114.0</ele><time>2026-04-25T09:36:55.001Z</time></trkpt><trkpt lat="38.04773073466163" lon="15.849635006493362"><ele>1114.0</ele><time>2026-04-25T09:36:56.001Z</time></trkpt><trkpt lat="38.047830693705016" lon="15.84969553451469"><ele>1114.0</ele><time>2026-04-25T09:36:57.001Z</time></trkpt><trkpt lat="38.04793403624748" lon="15.849752891133194"><ele>1114.0</ele><time>2026-04-25T09:36:58.001Z</time></trkpt><trkpt lat="38.0480427057139" lon="15.849809432933336"><ele>1114.0</ele><time>2026-04-25T09:36:59.001Z</time></trkpt><trkpt lat="38.048160137594685" lon="15.849878105514104"><ele>1114.0</ele><time>2026-04-25T09:37:00.001Z</time></trkpt><trkpt lat="38.048272759790954" lon="15.849928577199488"><ele>1114.0</ele><time>2026-04-25T09:37:01.001Z</time></trkpt><trkpt lat="38.04839137069796" lon="15.849984322288886"><ele>1115.75</ele><time>2026-04-25T09:37:02.001Z</time></trkpt><trkpt lat="38.04850060838551" lon="15.85004488614613"><ele>1117.5</ele><time>2026-04-25T09:37:03.001Z</time></trkpt><trkpt lat="38.04861417246081" lon="15.850108212501116"><ele>1119.25</ele><time>2026-04-25T09:37:04.001Z</time></trkpt><trkpt lat="38.048726481593384" lon="15.850170309424563"><ele>1121.0</ele><time>2026-04-25T09:37:05.001Z</time></trkpt><trkpt lat="38.04883476524256" lon="15.850223314431233"><ele>1121.0</ele><time>2026-04-25T09:37:06.001Z</time></trkpt><trkpt lat="38.04894786591422" lon="15.85027728696543"><ele>1121.0</ele><time>2026-04-25T09:37:07.001Z</time></trkpt><trkpt lat="38.04904895915595" lon="15.850330575905403"><ele>1121.0</ele><time>2026-04-25T09:37:08.001Z</time></trkpt><trkpt lat="38.04914211792391" lon="15.850412807233862"><ele>1121.0</ele><time>2026-04-25T09:37:09.001Z</time></trkpt><trkpt lat="38.049246949768644" lon="15.850485823227045"><ele>1125.25</ele><time>2026-04-25T09:37:10.001Z</time></trkpt><trkpt lat="38.04934520840213" lon="15.850555590305936"><ele>1129.5</ele><time>2026-04-25T09:37:11.001Z</time></trkpt><trkpt lat="38.04943292165576" lon="15.850660494351406"><ele>1133.75</ele><time>2026-04-25T09:37:12.001Z</time></trkpt><trkpt lat="38.04951701046418" lon="15.850760360108001"><ele>1138.0</ele><time>2026-04-25T09:37:13.001Z</time></trkpt><trkpt lat="38.04960638690761" lon="15.850854851495242"><ele>1136.4</ele><time>2026-04-25T09:37:14.001Z</time></trkpt><trkpt lat="38.049687126426626" lon="15.850957963868238"><ele>1134.8</ele><time>2026-04-25T09:37:15.001Z</time></trkpt><trkpt lat="38.04977001138541" lon="15.851059226895165"><ele>1133.2</ele><time>2026-04-25T09:37:16.001Z</time></trkpt><trkpt lat="38.04984161822111" lon="15.851167505331228"><ele>1131.6</ele><time>2026-04-25T09:37:17.001Z</time></trkpt><trkpt lat="38.04991681869095" lon="15.851266423578933"><ele>1130.0</ele><time>2026-04-25T09:37:18.001Z</time></trkpt><trkpt lat="38.0500034553427" lon="15.851347878067326"><ele>1133.6</ele><time>2026-04-25T09:37:19.001Z</time></trkpt><trkpt lat="38.05008407051403" lon="15.851438396198505"><ele>1137.2</ele><time>2026-04-25T09:37:20.001Z</time></trkpt><trkpt lat="38.05017525890562" lon="15.851524036034212"><ele>1140.8</ele><time>2026-04-25T09:37:21.001Z</time></trkpt><trkpt lat="38.050269493786466" lon="15.851599940516653"><ele>1144.4</ele><time>2026-04-25T09:37:22.001Z</time></trkpt><trkpt lat="38.050361769725484" lon="15.851686715313605"><ele>1148.0</ele><time>2026-04-25T09:37:23.001Z</time></trkpt><trkpt lat="38.05045611548792" lon="15.851780515326165"><ele>1144.5</ele><time>2026-04-25T09:37:24.001Z</time></trkpt><trkpt lat="38.05053669578096" lon="15.85188659913978"><ele>1141.0</ele><time>2026-04-25T09:37:25.001Z</time></trkpt><trkpt lat="38.05062703646972" lon="15.85199579190427"><ele>1137.5</ele><time>2026-04-25T09:37:26.001Z</time></trkpt><trkpt lat="38.05071755686111" lon="15.852096814090523"><ele>1134.0</ele><time>2026-04-25T09:37:27.001Z</time></trkpt><trkpt lat="38.05078936203716" lon="15.852193685652878"><ele>1137.2</ele><time>2026-04-25T09:37:28.001Z</time></trkpt><trkpt lat="38.05085724804765" lon="15.852271290027499"><ele>1140.4</ele><time>2026-04-25T09:37:29.001Z</time></trkpt><trkpt lat="38.05091040221103" lon="15.85236137717718"><ele>1143.6</ele><time>2026-04-25T09:37:30.001Z</time></trkpt><trkpt lat="38.050984898658754" lon="15.852435381096127"><ele>1146.8</ele><time>2026-04-25T09:37:31.001Z</time></trkpt><trkpt lat="38.0510592596071" lon="15.852496580446022"><ele>1150.0</ele><time>2026-04-25T09:37:32.001Z</time></trkpt><trkpt lat="38.05114036802985" lon="15.852565957786252"><ele>1150.0</ele><time>2026-04-25T09:37:33.001Z</time></trkpt><trkpt lat="38.051256367269744" lon="15.85254433763116"><ele>1150.0</ele><time>2026-04-25T09:37:34.001Z</time></trkpt><trkpt lat="38.051363250372034" lon="15.852546854461343"><ele>1150.0</ele><time>2026-04-25T09:37:35.001Z</time></trkpt><trkpt lat="38.051466463350174" lon="15.852545714372129"><ele>1150.0</ele><time>2026-04-25T09:37:36.001Z</time></trkpt><trkpt lat="38.051569109268556" lon="15.852543729960633"><ele>1150.0</ele><time>2026-04-25T09:37:37.001Z</time></trkpt><trkpt lat="38.051670363012995" lon="15.852553690288234"><ele>1151.8</ele><time>2026-04-25T09:37:38.001Z</time></trkpt><trkpt lat="38.051771087007054" lon="15.852529014027468"><ele>1153.6</ele><time>2026-04-25T09:37:39.001Z</time></trkpt><trkpt lat="38.05187508957022" lon="15.852545565711475"><ele>1155.4</ele><time>2026-04-25T09:37:40.001Z</time></trkpt><trkpt lat="38.05197107623728" lon="15.852541625082354"><ele>1157.2</ele><time>2026-04-25T09:37:41.001Z</time></trkpt><trkpt lat="38.05205800801722" lon="15.85254084797328"><ele>1159.0</ele><time>2026-04-25T09:37:42.001Z</time></trkpt><trkpt lat="38.05213759609368" lon="15.852523705526375"><ele>1159.0</ele><time>2026-04-25T09:37:43.001Z</time></trkpt><trkpt lat="38.05226586796383" lon="15.852500697047493"><ele>1159.0</ele><time>2026-04-25T09:37:45.001Z</time></trkpt><trkpt lat="38.05235947439114" lon="15.852380757937874"><ele>1159.0</ele><time>2026-04-25T09:37:47.001Z</time></trkpt><trkpt lat="38.052483384218554" lon="15.852331831272966"><ele>1159.0</ele><time>2026-04-25T09:37:49.001Z</time></trkpt><trkpt lat="38.05255495949933" lon="15.85229650554109"><ele>1159.4</ele><time>2026-04-25T09:37:50.001Z</time></trkpt><trkpt lat="38.05264316774484" lon="15.852264850191824"><ele>1159.8000000000002</ele><time>2026-04-25T09:37:51.002Z</time></trkpt><trkpt lat="38.05273902642558" lon="15.852216650315258"><ele>1160.1999999999998</ele><time>2026-04-25T09:37:52.002Z</time></trkpt><trkpt lat="38.05283221819481" lon="15.852187596382443"><ele>1160.6</ele><time>2026-04-25T09:37:53.002Z</time></trkpt><trkpt lat="38.05292161721058" lon="15.852135983341812"><ele>1161.0</ele><time>2026-04-25T09:37:54.002Z</time></trkpt><trkpt lat="38.05300494230113" lon="15.852150938389952"><ele>1161.0</ele><time>2026-04-25T09:37:55.002Z</time></trkpt><trkpt lat="38.053080658848394" lon="15.852209216080702"><ele>1161.0</ele><time>2026-04-25T09:37:56.002Z</time></trkpt><trkpt lat="38.05314327959535" lon="15.85227458526023"><ele>1161.0</ele><time>2026-04-25T09:37:57.002Z</time></trkpt><trkpt lat="38.05319623402174" lon="15.852359196107127"><ele>1161.0</ele><time>2026-04-25T09:37:58.002Z</time></trkpt><trkpt lat="38.05322983900457" lon="15.852455665856898"><ele>1161.0</ele><time>2026-04-25T09:37:59.002Z</time></trkpt><trkpt lat="38.05327446509538" lon="15.852539561759805"><ele>1161.0</ele><time>2026-04-25T09:38:00.002Z</time></trkpt><trkpt lat="38.053331850269615" lon="15.85258570159983"><ele>1162.6</ele><time>2026-04-25T09:38:01.002Z</time></trkpt><trkpt lat="38.053412414723326" lon="15.852541573550049"><ele>1164.1999999999998</ele><time>2026-04-25T09:38:02.002Z</time></trkpt><trkpt lat="38.05350066800262" lon="15.852403949120793"><ele>1165.8000000000002</ele><time>2026-04-25T09:38:04.002Z</time></trkpt><trkpt lat="38.05355072208276" lon="15.852329868835886"><ele>1167.4</ele><time>2026-04-25T09:38:05.002Z</time></trkpt><trkpt lat="38.053598313303134" lon="15.85224463835752"><ele>1169.0</ele><time>2026-04-25T09:38:06.002Z</time></trkpt><trkpt lat="38.05363907270772" lon="15.85214910673035"><ele>1169.0</ele><time>2026-04-25T09:38:07.002Z</time></trkpt><trkpt lat="38.05369780926203" lon="15.852056092091772"><ele>1169.0</ele><time>2026-04-25T09:38:08.002Z</time></trkpt><trkpt lat="38.05373951107975" lon="15.851947008741167"><ele>1169.0</ele><time>2026-04-25T09:38:09.002Z</time></trkpt><trkpt lat="38.05378828565062" lon="15.851857454319855"><ele>1169.0</ele><time>2026-04-25T09:38:10.002Z</time></trkpt><trkpt lat="38.0538403305602" lon="15.851794804673183"><ele>1169.0</ele><time>2026-04-25T09:38:11.002Z</time></trkpt><trkpt lat="38.05392496306225" lon="15.851777562309369"><ele>1169.0</ele><time>2026-04-25T09:38:12.002Z</time></trkpt><trkpt lat="38.054017132178544" lon="15.851730161204236"><ele>1167.2</ele><time>2026-04-25T09:38:13.002Z</time></trkpt><trkpt lat="38.05410374980358" lon="15.851684683599972"><ele>1165.4</ele><time>2026-04-25T09:38:14.002Z</time></trkpt><trkpt lat="38.05419288158625" lon="15.851618093489998"><ele>1163.6</ele><time>2026-04-25T09:38:15.002Z</time></trkpt><trkpt lat="38.05426645461044" lon="15.851554678412857"><ele>1161.8</ele><time>2026-04-25T09:38:16.002Z</time></trkpt><trkpt lat="38.05436163818476" lon="15.851507687710622"><ele>1160.0</ele><time>2026-04-25T09:38:17.002Z</time></trkpt><trkpt lat="38.054459204476835" lon="15.851458217957145"><ele>1164.4</ele><time>2026-04-25T09:38:18.002Z</time></trkpt><trkpt lat="38.054569715845524" lon="15.851421503745257"><ele>1168.8</ele><time>2026-04-25T09:38:19.002Z</time></trkpt><trkpt lat="38.05466907625953" lon="15.851405537229303"><ele>1173.2</ele><time>2026-04-25T09:38:20.002Z</time></trkpt><trkpt lat="38.0547826684768" lon="15.851393290949492"><ele>1177.6</ele><time>2026-04-25T09:38:21Z</time></trkpt><trkpt lat="38.05488792140134" lon="15.851396639870153"><ele>1182.0</ele><time>2026-04-25T09:38:22Z</time></trkpt><trkpt lat="38.0550077691235" lon="15.851372145520534"><ele>1182.8333333333333</ele><time>2026-04-25T09:38:23Z</time></trkpt><trkpt lat="38.055103918687266" lon="15.851375854456274"><ele>1183.6666666666667</ele><time>2026-04-25T09:38:24Z</time></trkpt><trkpt lat="38.05519354710742" lon="15.851384000271011"><ele>1184.5</ele><time>2026-04-25T09:38:25Z</time></trkpt><trkpt lat="38.05528053253458" lon="15.851382053855849"><ele>1185.3333333333335</ele><time>2026-04-25T09:38:26Z</time></trkpt><trkpt lat="38.0553573766432" lon="15.851388624061727"><ele>1186.1666666666667</ele><time>2026-04-25T09:38:27Z</time></trkpt><trkpt lat="38.05542726840379" lon="15.851401379462471"><ele>1187.0</ele><time>2026-04-25T09:38:28Z</time></trkpt><trkpt lat="38.0555056184203" lon="15.851455602723934"><ele>1187.0</ele><time>2026-04-25T09:38:30Z</time></trkpt><trkpt lat="38.05547499410723" lon="15.851622132955859"><ele>1187.0</ele><time>2026-04-25T09:38:32Z</time></trkpt><trkpt lat="38.055477727204575" lon="15.851707428055626"><ele>1187.0</ele><time>2026-04-25T09:38:33Z</time></trkpt><trkpt lat="38.05549960697549" lon="15.85184706835575"><ele>1187.0</ele><time>2026-04-25T09:38:35Z</time></trkpt><trkpt lat="38.055532405839145" lon="15.851924073456576"><ele>1187.0</ele><time>2026-04-25T09:38:36Z</time></trkpt><trkpt lat="38.05554677806286" lon="15.852003895304703"><ele>1187.0</ele><time>2026-04-25T09:38:37Z</time></trkpt><trkpt lat="38.05558793633575" lon="15.85208060352713"><ele>1187.6666666666667</ele><time>2026-04-25T09:38:38Z</time></trkpt><trkpt lat="38.05563400372819" lon="15.852151192659957"><ele>1188.3333333333335</ele><time>2026-04-25T09:38:39Z</time></trkpt><trkpt lat="38.05570977679127" lon="15.852194140394214"><ele>1189.0</ele><time>2026-04-25T09:38:40Z</time></trkpt><trkpt lat="38.055767174803286" lon="15.85227474851399"><ele>1189.6666666666667</ele><time>2026-04-25T09:38:41Z</time></trkpt><trkpt lat="38.05582253848068" lon="15.852330262368616"><ele>1190.3333333333333</ele><time>2026-04-25T09:38:42Z</time></trkpt><trkpt lat="38.05588370079531" lon="15.852392946497877"><ele>1191.0</ele><time>2026-04-25T09:38:43Z</time></trkpt><trkpt lat="38.05593685002481" lon="15.852452128737486"><ele>1191.0</ele><time>2026-04-25T09:38:44Z</time></trkpt><trkpt lat="38.055974829350376" lon="15.852521290731515"><ele>1191.0</ele><time>2026-04-25T09:38:45Z</time></trkpt><trkpt lat="38.05600259311575" lon="15.852678767928802"><ele>1191.0</ele><time>2026-04-25T09:38:47Z</time></trkpt><trkpt lat="38.05601998148702" lon="15.852770409087501"><ele>1191.0</ele><time>2026-04-25T09:38:48Z</time></trkpt><trkpt lat="38.05604248193203" lon="15.852846347597387"><ele>1191.0</ele><time>2026-04-25T09:38:49Z</time></trkpt><trkpt lat="38.05606556519064" lon="15.85297146379533"><ele>1191.0</ele><time>2026-04-25T09:38:51Z</time></trkpt><trkpt lat="38.056032828803716" lon="15.853064205207415"><ele>1192.3999999999999</ele><time>2026-04-25T09:38:53Z</time></trkpt><trkpt lat="38.05593396855718" lon="15.85312500186723"><ele>1193.8</ele><time>2026-04-25T09:38:55Z</time></trkpt><trkpt lat="38.0558115847861" lon="15.853125073778216"><ele>1195.1999999999998</ele><time>2026-04-25T09:38:57Z</time></trkpt><trkpt lat="38.05572795295871" lon="15.853233645221346"><ele>1196.6</ele><time>2026-04-25T09:38:59Z</time></trkpt><trkpt lat="38.0557417843239" lon="15.853329041153039"><ele>1198.0</ele><time>2026-04-25T09:39:00Z</time></trkpt><trkpt lat="38.05576747418926" lon="15.85341189900093"><ele>1198.8</ele><time>2026-04-25T09:39:01Z</time></trkpt><trkpt lat="38.05578819451814" lon="15.853564348429405"><ele>1199.6</ele><time>2026-04-25T09:39:03Z</time></trkpt><trkpt lat="38.055799222150455" lon="15.853645484022586"><ele>1200.4</ele><time>2026-04-25T09:39:04Z</time></trkpt><trkpt lat="38.05595548444211" lon="15.85370830615358"><ele>1201.2</ele><time>2026-04-25T09:39:05Z</time></trkpt><trkpt lat="38.05598451436448" lon="15.85379156573328"><ele>1202.0</ele><time>2026-04-25T09:39:06Z</time></trkpt><trkpt lat="38.0560123810865" lon="15.853879122054117"><ele>1202.0</ele><time>2026-04-25T09:39:07Z</time></trkpt><trkpt lat="38.05604378616973" lon="15.853965343586749"><ele>1202.0</ele><time>2026-04-25T09:39:08Z</time></trkpt><trkpt lat="38.05608160502086" lon="15.854113297647332"><ele>1202.0</ele><time>2026-04-25T09:39:10.001Z</time></trkpt><trkpt lat="38.05610408340882" lon="15.85420288996465"><ele>1202.0</ele><time>2026-04-25T09:39:11.001Z</time></trkpt><trkpt lat="38.05612852138982" lon="15.854290097160396"><ele>1202.0</ele><time>2026-04-25T09:39:12.001Z</time></trkpt><trkpt lat="38.05614511149271" lon="15.85438748600545"><ele>1202.0</ele><time>2026-04-25T09:39:13.001Z</time></trkpt><trkpt lat="38.05615798687837" lon="15.85449038893125"><ele>1201.6666666666667</ele><time>2026-04-25T09:39:14.001Z</time></trkpt><trkpt lat="38.0561624119662" lon="15.85459895893438"><ele>1201.3333333333335</ele><time>2026-04-25T09:39:15.001Z</time></trkpt><trkpt lat="38.056174288741055" lon="15.854696485878161"><ele>1201.0</ele><time>2026-04-25T09:39:16.001Z</time></trkpt><trkpt lat="38.05619575693788" lon="15.854779760474973"><ele>1200.6666666666667</ele><time>2026-04-25T09:39:17.001Z</time></trkpt><trkpt lat="38.05625713927631" lon="15.854910789281123"><ele>1200.3333333333333</ele><time>2026-04-25T09:39:19.001Z</time></trkpt><trkpt lat="38.05631719838106" lon="15.854969683433074"><ele>1200.0</ele><time>2026-04-25T09:39:20.001Z</time></trkpt><trkpt lat="38.05640169582477" lon="15.855022402642076"><ele>1199.9999999999998</ele><time>2026-04-25T09:39:21.001Z</time></trkpt><trkpt lat="38.05646927648732" lon="15.85507942767017"><ele>1200.0</ele><time>2026-04-25T09:39:22.001Z</time></trkpt><trkpt lat="38.05653150251124" lon="15.855134974493392"><ele>1200.0</ele><time>2026-04-25T09:39:23.001Z</time></trkpt><trkpt lat="38.05659532451157" lon="15.855195174539883"><ele>1200.0</ele><time>2026-04-25T09:39:24.001Z</time></trkpt><trkpt lat="38.05664150483365" lon="15.855255044663549"><ele>1200.0</ele><time>2026-04-25T09:39:25.001Z</time></trkpt><trkpt lat="38.05668713712797" lon="15.855324875902818"><ele>1199.9999999999998</ele><time>2026-04-25T09:39:26.001Z</time></trkpt><trkpt lat="38.05674708167124" lon="15.855359549060946"><ele>1200.0</ele><time>2026-04-25T09:39:27.001Z</time></trkpt><trkpt lat="38.05681220242205" lon="15.855365425720828"><ele>1201.5</ele><time>2026-04-25T09:39:28.001Z</time></trkpt><trkpt lat="38.05689053374005" lon="15.855366329219917"><ele>1203.0</ele><time>2026-04-25T09:39:29.001Z</time></trkpt><trkpt lat="38.056965617243" lon="15.855356086926736"><ele>1204.5</ele><time>2026-04-25T09:39:30.001Z</time></trkpt><trkpt lat="38.057046677539354" lon="15.855327675481208"><ele>1206.0</ele><time>2026-04-25T09:39:31.001Z</time></trkpt><trkpt lat="38.057111774057404" lon="15.855297888764138"><ele>1207.5</ele><time>2026-04-25T09:39:32.001Z</time></trkpt><trkpt lat="38.05721872137111" lon="15.855281805714375"><ele>1209.0</ele><time>2026-04-25T09:39:34.001Z</time></trkpt><trkpt lat="38.05725513892035" lon="15.855352255038834"><ele>1209.0</ele><time>2026-04-25T09:39:36.001Z</time></trkpt><trkpt lat="38.05729327495768" lon="15.85549758287892"><ele>1209.0</ele><time>2026-04-25T09:39:38.001Z</time></trkpt><trkpt lat="38.057347894518195" lon="15.855616495335171"><ele>1209.0</ele><time>2026-04-25T09:39:40.001Z</time></trkpt><trkpt lat="38.057396305261825" lon="15.855678470978823"><ele>1209.0</ele><time>2026-04-25T09:39:41.001Z</time></trkpt><trkpt lat="38.05745612719522" lon="15.855763967973626"><ele>1209.0</ele><time>2026-04-25T09:39:42.001Z</time></trkpt><trkpt lat="38.05755252945801" lon="15.85586746045279"><ele>1211.4</ele><time>2026-04-25T09:39:44.001Z</time></trkpt><trkpt lat="38.0576172288673" lon="15.855804320406484"><ele>1213.8000000000002</ele><time>2026-04-25T09:39:46.001Z</time></trkpt><trkpt lat="38.05759855761502" lon="15.8556398538697"><ele>1216.1999999999998</ele><time>2026-04-25T09:39:48.001Z</time></trkpt><trkpt lat="38.05755347356319" lon="15.855582625160176"><ele>1218.6</ele><time>2026-04-25T09:39:49.001Z</time></trkpt><trkpt lat="38.05750482495597" lon="15.85550630333408"><ele>1221.0</ele><time>2026-04-25T09:39:50.001Z</time></trkpt><trkpt lat="38.05748966429804" lon="15.85533767531033"><ele>1221.0</ele><time>2026-04-25T09:39:52.001Z</time></trkpt><trkpt lat="38.05751330464148" lon="15.855246759629225"><ele>1221.0</ele><time>2026-04-25T09:39:53.001Z</time></trkpt><trkpt lat="38.057532506113745" lon="15.855167808929755"><ele>1221.0</ele><time>2026-04-25T09:39:54.001Z</time></trkpt><trkpt lat="38.05760778982227" lon="15.855060432891566"><ele>1221.0</ele><time>2026-04-25T09:39:55.001Z</time></trkpt><trkpt lat="38.05764121167882" lon="15.854977544430355"><ele>1221.0</ele><time>2026-04-25T09:39:56.001Z</time></trkpt><trkpt lat="38.0576377148035" lon="15.854859847739236"><ele>1221.0</ele><time>2026-04-25T09:39:58.001Z</time></trkpt><trkpt lat="38.057562273699375" lon="15.854781068976491"><ele>1220.2</ele><time>2026-04-25T09:40:00.002Z</time></trkpt><trkpt lat="38.05748816275106" lon="15.8547576409611"><ele>1219.3999999999999</ele><time>2026-04-25T09:40:01.002Z</time></trkpt><trkpt lat="38.05740201612796" lon="15.854745039515349"><ele>1218.6</ele><time>2026-04-25T09:40:02.002Z</time></trkpt><trkpt lat="38.05733711183139" lon="15.85472066783986"><ele>1217.8</ele><time>2026-04-25T09:40:03.002Z</time></trkpt><trkpt lat="38.05728204186308" lon="15.854599243302193"><ele>1217.0</ele><time>2026-04-25T09:40:05.002Z</time></trkpt><trkpt lat="38.05730923775015" lon="15.854438856954673"><ele>1217.0</ele><time>2026-04-25T09:40:07.002Z</time></trkpt><trkpt lat="38.057346884750466" lon="15.854360368408074"><ele>1217.0</ele><time>2026-04-25T09:40:08.002Z</time></trkpt><trkpt lat="38.05739188079666" lon="15.854281212122633"><ele>1217.0</ele><time>2026-04-25T09:40:09.002Z</time></trkpt><trkpt lat="38.05744434451809" lon="15.85419790806357"><ele>1217.0</ele><time>2026-04-25T09:40:10.002Z</time></trkpt><trkpt lat="38.0574910564002" lon="15.85414236656499"><ele>1217.0</ele><time>2026-04-25T09:40:11.002Z</time></trkpt><trkpt lat="38.05754545023422" lon="15.854096170443674"><ele>1217.0</ele><time>2026-04-25T09:40:12.002Z</time></trkpt><trkpt lat="38.057607343553386" lon="15.85404571865667"><ele>1217.0</ele><time>2026-04-25T09:40:13.002Z</time></trkpt><trkpt lat="38.05767798652861" lon="15.854002262501808"><ele>1219.1666666666667</ele><time>2026-04-25T09:40:14.002Z</time></trkpt><trkpt lat="38.05773967826025" lon="15.853968409007443"><ele>1221.3333333333335</ele><time>2026-04-25T09:40:15.002Z</time></trkpt><trkpt lat="38.05780330124072" lon="15.8539447427887"><ele>1223.5</ele><time>2026-04-25T09:40:17.002Z</time></trkpt><trkpt lat="38.05786182019612" lon="15.854036045151402"><ele>1225.6666666666667</ele><time>2026-04-25T09:40:20.002Z</time></trkpt><trkpt lat="38.05789038625228" lon="15.854183022673542"><ele>1227.8333333333333</ele><time>2026-04-25T09:40:22.002Z</time></trkpt><trkpt lat="38.05791843793541" lon="15.854254977518965"><ele>1230.0</ele><time>2026-04-25T09:40:23.002Z</time></trkpt><trkpt lat="38.05801014019949" lon="15.854363997161137"><ele>1230.0</ele><time>2026-04-25T09:40:25.002Z</time></trkpt><trkpt lat="38.05808461433333" lon="15.854494372627352"><ele>1230.0</ele><time>2026-04-25T09:40:27Z</time></trkpt><trkpt lat="38.05813878325439" lon="15.854623434488563"><ele>1230.0</ele><time>2026-04-25T09:40:29Z</time></trkpt><trkpt lat="38.05813272439035" lon="15.85470427360688"><ele>1230.0</ele><time>2026-04-25T09:40:30Z</time></trkpt><trkpt lat="38.05812318649178" lon="15.854825589236107"><ele>1230.0</ele><time>2026-04-25T09:40:32Z</time></trkpt><trkpt lat="38.05819211739183" lon="15.854856410898305"><ele>1230.0</ele><time>2026-04-25T09:40:34Z</time></trkpt><trkpt lat="38.05827169338748" lon="15.854809442907062"><ele>1230.0</ele><time>2026-04-25T09:40:36Z</time></trkpt><trkpt lat="38.05829686938225" lon="15.854677449648209"><ele>1230.0</ele><time>2026-04-25T09:40:38Z</time></trkpt><trkpt lat="38.05829588648802" lon="15.854575264402245"><ele>1230.0</ele><time>2026-04-25T09:40:39Z</time></trkpt><trkpt lat="38.05827574869459" lon="15.85449414021468"><ele>1230.0</ele><time>2026-04-25T09:40:40Z</time></trkpt><trkpt lat="38.05826980370201" lon="15.854408731781067"><ele>1230.0</ele><time>2026-04-25T09:40:41Z</time></trkpt><trkpt lat="38.05827018412787" lon="15.854321652976619"><ele>1230.8</ele><time>2026-04-25T09:40:42Z</time></trkpt><trkpt lat="38.05828282003335" lon="15.854235712503531"><ele>1231.6</ele><time>2026-04-25T09:40:43Z</time></trkpt><trkpt lat="38.05831588646258" lon="15.854086795716535"><ele>1232.4</ele><time>2026-04-25T09:40:45Z</time></trkpt><trkpt lat="38.058368845438316" lon="15.853985101511599"><ele>1233.2</ele><time>2026-04-25T09:40:47Z</time></trkpt><trkpt lat="38.05843467726633" lon="15.853917208098252"><ele>1234.0</ele><time>2026-04-25T09:45:22.001Z</time></trkpt><trkpt lat="38.05849827297411" lon="15.853857052530785"><ele>1237.2</ele><time>2026-04-25T09:45:24.001Z</time></trkpt><trkpt lat="38.05856901623648" lon="15.853806693750846"><ele>1240.4</ele><time>2026-04-25T09:45:26.001Z</time></trkpt><trkpt lat="38.05865387435742" lon="15.853740985321602"><ele>1243.6</ele><time>2026-04-25T09:45:28.001Z</time></trkpt><trkpt lat="38.058753450851555" lon="15.853681507588155"><ele>1246.8</ele><time>2026-04-25T09:45:30.001Z</time></trkpt><trkpt lat="38.0588641722041" lon="15.853654343688687"><ele>1250.0</ele><time>2026-04-25T09:45:32.001Z</time></trkpt><trkpt lat="38.05896789209455" lon="15.85365852931114"><ele>1250.0</ele><time>2026-04-25T09:45:34.001Z</time></trkpt><trkpt lat="38.059073053634066" lon="15.853688309820061"><ele>1250.0</ele><time>2026-04-25T09:45:36.001Z</time></trkpt><trkpt lat="38.05916810125277" lon="15.853653894474677"><ele>1250.0</ele><time>2026-04-25T09:45:38.001Z</time></trkpt><trkpt lat="38.059222638502845" lon="15.853600824215652"><ele>1250.0</ele><time>2026-04-25T09:45:39.001Z</time></trkpt><trkpt lat="38.05927132037561" lon="15.85352571560893"><ele>1250.0</ele><time>2026-04-25T09:45:40.001Z</time></trkpt><trkpt lat="38.05931505297794" lon="15.853459927740285"><ele>1250.0</ele><time>2026-04-25T09:45:41.001Z</time></trkpt><trkpt lat="38.059414212559574" lon="15.853383085037832"><ele>1252.5714285714287</ele><time>2026-04-25T09:45:43.001Z</time></trkpt><trkpt lat="38.05948800531703" lon="15.85337126568605"><ele>1255.142857142857</ele><time>2026-04-25T09:45:44.001Z</time></trkpt><trkpt lat="38.05955861465231" lon="15.853363948675405"><ele>1257.7142857142858</ele><time>2026-04-25T09:45:45.001Z</time></trkpt><trkpt lat="38.05963848342307" lon="15.85335766172573"><ele>1260.2857142857142</ele><time>2026-04-25T09:45:46.001Z</time></trkpt><trkpt lat="38.05971026406584" lon="15.85336713289707"><ele>1262.857142857143</ele><time>2026-04-25T09:45:47.001Z</time></trkpt><trkpt lat="38.05978436882313" lon="15.853389598632614"><ele>1265.4285714285716</ele><time>2026-04-25T09:45:48.001Z</time></trkpt><trkpt lat="38.05985928352874" lon="15.853390478560222"><ele>1268.0</ele><time>2026-04-25T09:45:49.001Z</time></trkpt><trkpt lat="38.0599276169719" lon="15.853379799639763"><ele>1267.5</ele><time>2026-04-25T09:45:50.001Z</time></trkpt><trkpt lat="38.059994571263786" lon="15.853344472857257"><ele>1267.0</ele><time>2026-04-25T09:45:51.001Z</time></trkpt><trkpt lat="38.06006664569496" lon="15.853289526575264"><ele>1266.5</ele><time>2026-04-25T09:45:52.001Z</time></trkpt><trkpt lat="38.060131996597654" lon="15.853222053534681"><ele>1266.0</ele><time>2026-04-25T09:45:53.001Z</time></trkpt><trkpt lat="38.06020183938998" lon="15.85314405784258"><ele>1265.5</ele><time>2026-04-25T09:45:54.001Z</time></trkpt><trkpt lat="38.06027183308893" lon="15.853071249451265"><ele>1265.0</ele><time>2026-04-25T09:45:55.001Z</time></trkpt><trkpt lat="38.0603473859181" lon="15.852984930234257"><ele>1265.0</ele><time>2026-04-25T09:45:56.001Z</time></trkpt><trkpt lat="38.06042659399409" lon="15.85290753010054"><ele>1265.0</ele><time>2026-04-25T09:45:57.001Z</time></trkpt><trkpt lat="38.06050738166173" lon="15.852832051248035"><ele>1265.0</ele><time>2026-04-25T09:45:58.001Z</time></trkpt><trkpt lat="38.06058894110689" lon="15.852765353944084"><ele>1265.0</ele><time>2026-04-25T09:45:59.001Z</time></trkpt><trkpt lat="38.06066746336961" lon="15.852701705065098"><ele>1265.0</ele><time>2026-04-25T09:46:00.001Z</time></trkpt><trkpt lat="38.06074639222775" lon="15.85263747665984"><ele>1267.4285714285713</ele><time>2026-04-25T09:46:01.001Z</time></trkpt><trkpt lat="38.06081231370006" lon="15.852580554750112"><ele>1269.857142857143</ele><time>2026-04-25T09:46:02.001Z</time></trkpt><trkpt lat="38.06087389016285" lon="15.85252116375373"><ele>1272.2857142857142</ele><time>2026-04-25T09:46:03.001Z</time></trkpt><trkpt lat="38.06093232268064" lon="15.852461630255416"><ele>1274.7142857142858</ele><time>2026-04-25T09:46:04.001Z</time></trkpt><trkpt lat="38.060984789930814" lon="15.852411135102258"><ele>1277.142857142857</ele><time>2026-04-25T09:46:05.001Z</time></trkpt><trkpt lat="38.06104214758694" lon="15.85234995942231"><ele>1279.5714285714287</ele><time>2026-04-25T09:46:06.001Z</time></trkpt><trkpt lat="38.06110446356835" lon="15.852293562956302"><ele>1282.0</ele><time>2026-04-25T09:46:07.001Z</time></trkpt><trkpt lat="38.06116600976165" lon="15.852248204714503"><ele>1282.0</ele><time>2026-04-25T09:46:08.001Z</time></trkpt><trkpt lat="38.06129105825202" lon="15.852237818335427"><ele>1282.0</ele><time>2026-04-25T09:46:10.002Z</time></trkpt><trkpt lat="38.061353288728775" lon="15.852204164450672"><ele>1282.0</ele><time>2026-04-25T09:46:12.002Z</time></trkpt><trkpt lat="38.06134920371212" lon="15.852098442640699"><ele>1282.0</ele><time>2026-04-25T09:46:14.002Z</time></trkpt><trkpt lat="38.06131504046019" lon="15.851996870149433"><ele>1282.0</ele><time>2026-04-25T09:46:16.002Z</time></trkpt><trkpt lat="38.061333386912004" lon="15.851841747822537"><ele>1284.1666666666665</ele><time>2026-04-25T09:46:18.002Z</time></trkpt><trkpt lat="38.06135854931132" lon="15.851766169759067"><ele>1286.3333333333333</ele><time>2026-04-25T09:46:19.002Z</time></trkpt><trkpt lat="38.06140180467658" lon="15.851692371880299"><ele>1288.5</ele><time>2026-04-25T09:46:20.002Z</time></trkpt><trkpt lat="38.06144661620894" lon="15.85162506555229"><ele>1290.6666666666667</ele><time>2026-04-25T09:46:21.002Z</time></trkpt><trkpt lat="38.061489221493666" lon="15.851532005774766"><ele>1292.8333333333335</ele><time>2026-04-25T09:46:23.002Z</time></trkpt><trkpt lat="38.06142995430742" lon="15.851448989150175"><ele>1295.0</ele><time>2026-04-25T09:46:25.002Z</time></trkpt><trkpt lat="38.06136085236354" lon="15.851477868500725"><ele>1295.0</ele><time>2026-04-25T09:46:27.002Z</time></trkpt><trkpt lat="38.06132342416204" lon="15.851588046930965"><ele>1295.0</ele><time>2026-04-25T09:46:29.002Z</time></trkpt><trkpt lat="38.06127608007745" lon="15.85168731577939"><ele>1295.0</ele><time>2026-04-25T09:46:31.002Z</time></trkpt><trkpt lat="38.06117182483932" lon="15.851732516783064"><ele>1295.0</ele><time>2026-04-25T09:46:33.002Z</time></trkpt><trkpt lat="38.06110860192547" lon="15.851749986258765"><ele>1295.0</ele><time>2026-04-25T09:46:34.002Z</time></trkpt><trkpt lat="38.06103492149073" lon="15.851769522911265"><ele>1295.0</ele><time>2026-04-25T09:46:35.002Z</time></trkpt><trkpt lat="38.06097193897737" lon="15.851773661354343"><ele>1295.0</ele><time>2026-04-25T09:46:36.002Z</time></trkpt><trkpt lat="38.06087055496488" lon="15.851724855822395"><ele>1295.0</ele><time>2026-04-25T09:46:38.002Z</time></trkpt><trkpt lat="38.06081458937812" lon="15.851672069541214"><ele>1295.0</ele><time>2026-04-25T09:46:39.002Z</time></trkpt><trkpt lat="38.060711976382045" lon="15.851586180618845"><ele>1295.0</ele><time>2026-04-25T09:46:41.002Z</time></trkpt><trkpt lat="38.06060997487732" lon="15.85158619726016"><ele>1295.0</ele><time>2026-04-25T09:46:43.002Z</time></trkpt><trkpt lat="38.060551287118564" lon="15.851630954144733"><ele>1294.857142857143</ele><time>2026-04-25T09:46:44.002Z</time></trkpt><trkpt lat="38.06049566644056" lon="15.851696962828093"><ele>1294.7142857142858</ele><time>2026-04-25T09:46:45Z</time></trkpt><trkpt lat="38.06044605631271" lon="15.851746950064715"><ele>1294.5714285714284</ele><time>2026-04-25T09:46:46Z</time></trkpt><trkpt lat="38.06036191828987" lon="15.85181039664679"><ele>1294.4285714285716</ele><time>2026-04-25T09:46:48Z</time></trkpt><trkpt lat="38.06030407750738" lon="15.851852815540603"><ele>1294.2857142857142</ele><time>2026-04-25T09:46:52Z</time></trkpt><trkpt lat="38.06034561019075" lon="15.851914708607875"><ele>1294.142857142857</ele><time>2026-04-25T09:47:06Z</time></trkpt><trkpt lat="38.060382745263716" lon="15.851837380366497"><ele>1294.0</ele><time>2026-04-25T09:47:08Z</time></trkpt><trkpt lat="38.060436264200064" lon="15.851754809062221"><ele>1294.0</ele><time>2026-04-25T09:47:10Z</time></trkpt><trkpt lat="38.0605252666737" lon="15.851652382497837"><ele>1294.0</ele><time>2026-04-25T09:47:12Z</time></trkpt><trkpt lat="38.06058596571294" lon="15.851602999534888"><ele>1294.0</ele><time>2026-04-25T09:47:13Z</time></trkpt><trkpt lat="38.060685308198586" lon="15.851564951127894"><ele>1294.0</ele><time>2026-04-25T09:47:15Z</time></trkpt><trkpt lat="38.06077945278832" lon="15.851627512334987"><ele>1294.0</ele><time>2026-04-25T09:47:17Z</time></trkpt><trkpt lat="38.06086904627254" lon="15.851716553458509"><ele>1294.1666666666665</ele><time>2026-04-25T09:47:19Z</time></trkpt><trkpt lat="38.060963608977595" lon="15.851770451319394"><ele>1294.3333333333333</ele><time>2026-04-25T09:47:21Z</time></trkpt><trkpt lat="38.06106489132653" lon="15.851759967933084"><ele>1294.5</ele><time>2026-04-25T09:47:23Z</time></trkpt><trkpt lat="38.06113177546154" lon="15.851736912408155"><ele>1294.6666666666667</ele><time>2026-04-25T09:47:24Z</time></trkpt><trkpt lat="38.06119383554524" lon="15.851715935769077"><ele>1294.8333333333335</ele><time>2026-04-25T09:47:25.001Z</time></trkpt><trkpt lat="38.06128510414583" lon="15.851659280229361"><ele>1295.0</ele><time>2026-04-25T09:47:27.001Z</time></trkpt><trkpt lat="38.06134276546278" lon="15.851570376890367"><ele>1295.0</ele><time>2026-04-25T09:47:29.001Z</time></trkpt><trkpt lat="38.06136245417931" lon="15.85145966775381"><ele>1295.0</ele><time>2026-04-25T09:47:31.001Z</time></trkpt><trkpt lat="38.06142567162092" lon="15.851430321977158"><ele>1295.0</ele><time>2026-04-25T09:47:33.001Z</time></trkpt><trkpt lat="38.06147631160999" lon="15.85150545665628"><ele>1295.0</ele><time>2026-04-25T09:47:35.001Z</time></trkpt><trkpt lat="38.06148130143867" lon="15.85160344790236"><ele>1295.0</ele><time>2026-04-25T09:47:37.001Z</time></trkpt><trkpt lat="38.0614109701109" lon="15.851697918623197"><ele>1295.0</ele><time>2026-04-25T09:47:39.001Z</time></trkpt><trkpt lat="38.061343794775375" lon="15.851821164529515"><ele>1292.4</ele><time>2026-04-25T09:47:41.001Z</time></trkpt><trkpt lat="38.061316640064206" lon="15.851958760826781"><ele>1289.8</ele><time>2026-04-25T09:47:43.001Z</time></trkpt><trkpt lat="38.061328169993146" lon="15.85209409835409"><ele>1287.1999999999998</ele><time>2026-04-25T09:47:45.001Z</time></trkpt><trkpt lat="38.06134996961468" lon="15.852190398650752"><ele>1284.6</ele><time>2026-04-25T09:47:47.001Z</time></trkpt><trkpt lat="38.06128918992891" lon="15.852260337365294"><ele>1282.0</ele><time>2026-04-25T09:47:50.001Z</time></trkpt><trkpt lat="38.061187455568536" lon="15.85224135352558"><ele>1282.0</ele><time>2026-04-25T09:47:52.001Z</time></trkpt><trkpt lat="38.06118560914379" lon="15.852335119071334"><ele>1282.0</ele><time>2026-04-25T09:47:57.001Z</time></trkpt><trkpt lat="38.061267491561665" lon="15.85238057711443"><ele>1282.0</ele><time>2026-04-25T09:47:59.001Z</time></trkpt><trkpt lat="38.0613572441402" lon="15.852475432916286"><ele>1282.0</ele><time>2026-04-25T09:48:01.001Z</time></trkpt><trkpt lat="38.0614168188891" lon="15.852530209926492"><ele>1282.0</ele><time>2026-04-25T09:48:02.001Z</time></trkpt><trkpt lat="38.061479249353894" lon="15.852576112219634"><ele>1282.0</ele><time>2026-04-25T09:48:03.001Z</time></trkpt><trkpt lat="38.06154598540547" lon="15.85260719660719"><ele>1280.0</ele><time>2026-04-25T09:48:04.001Z</time></trkpt><trkpt lat="38.06161790094671" lon="15.852625241705592"><ele>1278.0</ele><time>2026-04-25T09:48:05.001Z</time></trkpt><trkpt lat="38.06169007746096" lon="15.85264279959627"><ele>1276.0</ele><time>2026-04-25T09:48:06.001Z</time></trkpt><trkpt lat="38.06175714741658" lon="15.852653860919052"><ele>1274.0</ele><time>2026-04-25T09:48:07.001Z</time></trkpt><trkpt lat="38.06187203088862" lon="15.852633298612465"><ele>1272.0</ele><time>2026-04-25T09:48:09.001Z</time></trkpt><trkpt lat="38.06193329398192" lon="15.852577976544138"><ele>1270.0</ele><time>2026-04-25T09:48:10.001Z</time></trkpt><trkpt lat="38.06198386135005" lon="15.852504476771285"><ele>1270.0</ele><time>2026-04-25T09:48:11.001Z</time></trkpt><trkpt lat="38.062033844836705" lon="15.852419835581335"><ele>1270.0</ele><time>2026-04-25T09:48:12.001Z</time></trkpt><trkpt lat="38.06207261743012" lon="15.852342338446254"><ele>1270.0</ele><time>2026-04-25T09:48:13.001Z</time></trkpt><trkpt lat="38.06211358687635" lon="15.85220951347103"><ele>1270.0</ele><time>2026-04-25T09:48:15.001Z</time></trkpt><trkpt lat="38.062070246445366" lon="15.852058063628382"><ele>1270.0</ele><time>2026-04-25T09:48:17.001Z</time></trkpt><trkpt lat="38.062014211423325" lon="15.851925229142473"><ele>1270.0</ele><time>2026-04-25T09:48:19.001Z</time></trkpt><trkpt lat="38.06201621327944" lon="15.851804389325714"><ele>1270.0</ele><time>2026-04-25T09:48:21.001Z</time></trkpt><trkpt lat="38.06209122449829" lon="15.85170933636643"><ele>1270.0</ele><time>2026-04-25T09:48:23.001Z</time></trkpt><trkpt lat="38.06221090183992" lon="15.851656569766734"><ele>1270.0</ele><time>2026-04-25T09:48:25.001Z</time></trkpt><trkpt lat="38.06228131312054" lon="15.851654661605277"><ele>1270.0</ele><time>2026-04-25T09:48:26.001Z</time></trkpt><trkpt lat="38.062345649774805" lon="15.851651637060757"><ele>1270.9999999999998</ele><time>2026-04-25T09:48:27.002Z</time></trkpt><trkpt lat="38.062417183508636" lon="15.851653190223859"><ele>1272.0</ele><time>2026-04-25T09:48:28.002Z</time></trkpt><trkpt lat="38.06248088843538" lon="15.851632872379023"><ele>1273.0</ele><time>2026-04-25T09:48:29.002Z</time></trkpt><trkpt lat="38.06254732977194" lon="15.85159118757442"><ele>1274.0</ele><time>2026-04-25T09:48:30.002Z</time></trkpt><trkpt lat="38.06261524200331" lon="15.85153418997235"><ele>1275.0</ele><time>2026-04-25T09:48:31.002Z</time></trkpt><trkpt lat="38.062682434463085" lon="15.85148309259702"><ele>1275.9999999999998</ele><time>2026-04-25T09:48:32.002Z</time></trkpt><trkpt lat="38.062749486979655" lon="15.85144360304415"><ele>1277.0</ele><time>2026-04-25T09:48:33.002Z</time></trkpt><trkpt lat="38.062818514450896" lon="15.85142783893814"><ele>1273.8</ele><time>2026-04-25T09:48:34.002Z</time></trkpt><trkpt lat="38.062886475592975" lon="15.851431702453306"><ele>1270.6</ele><time>2026-04-25T09:48:35.002Z</time></trkpt><trkpt lat="38.062998345594885" lon="15.851442039383933"><ele>1267.3999999999999</ele><time>2026-04-25T09:48:37.002Z</time></trkpt><trkpt lat="38.06308208997291" lon="15.851384573177054"><ele>1264.2</ele><time>2026-04-25T09:48:39.002Z</time></trkpt><trkpt lat="38.0631670845422" lon="15.851304036250381"><ele>1261.0</ele><time>2026-04-25T09:48:41.002Z</time></trkpt><trkpt lat="38.063269156750636" lon="15.851213898395983"><ele>1259.142857142857</ele><time>2026-04-25T09:48:43.002Z</time></trkpt><trkpt lat="38.06332163101343" lon="15.851161967547682"><ele>1257.2857142857142</ele><time>2026-04-25T09:48:44.002Z</time></trkpt><trkpt lat="38.06337287840195" lon="15.851111964923064"><ele>1255.4285714285716</ele><time>2026-04-25T09:48:45.002Z</time></trkpt><trkpt lat="38.063435250855456" lon="15.851058249419758"><ele>1253.5714285714284</ele><time>2026-04-25T09:48:46.002Z</time></trkpt><trkpt lat="38.06350346703508" lon="15.851015293769693"><ele>1251.7142857142856</ele><time>2026-04-25T09:48:47.002Z</time></trkpt><trkpt lat="38.06357036350456" lon="15.850982399981056"><ele>1249.857142857143</ele><time>2026-04-25T09:48:48.002Z</time></trkpt><trkpt lat="38.06363845602972" lon="15.85094771532254"><ele>1248.0</ele><time>2026-04-25T09:48:49.002Z</time></trkpt><trkpt lat="38.06369835243894" lon="15.850905117181787"><ele>1248.0</ele><time>2026-04-25T09:48:50.002Z</time></trkpt><trkpt lat="38.063790807261" lon="15.85081578053377"><ele>1248.0</ele><time>2026-04-25T09:48:51.999Z</time></trkpt><trkpt lat="38.06389346950854" lon="15.850744416059372"><ele>1248.0</ele><time>2026-04-25T09:48:53.999Z</time></trkpt><trkpt lat="38.064003348253216" lon="15.850684603719822"><ele>1248.0</ele><time>2026-04-25T09:48:55.999Z</time></trkpt><trkpt lat="38.064118361775186" lon="15.85066605884987"><ele>1249.1666666666667</ele><time>2026-04-25T09:48:57.999Z</time></trkpt><trkpt lat="38.06419675164758" lon="15.850692882817729"><ele>1250.3333333333333</ele><time>2026-04-25T09:48:59.999Z</time></trkpt><trkpt lat="38.064257529260146" lon="15.85075411694166"><ele>1251.5</ele><time>2026-04-25T09:49:01.999Z</time></trkpt><trkpt lat="38.06433560908792" lon="15.850783104639376"><ele>1252.6666666666665</ele><time>2026-04-25T09:49:03.999Z</time></trkpt><trkpt lat="38.06442261814835" lon="15.850701470562765"><ele>1253.8333333333333</ele><time>2026-04-25T09:49:06Z</time></trkpt><trkpt lat="38.06446978665986" lon="15.850645905022956"><ele>1255.0</ele><time>2026-04-25T09:49:07Z</time></trkpt><trkpt lat="38.06457641390457" lon="15.850569035267371"><ele>1255.0</ele><time>2026-04-25T09:49:09Z</time></trkpt><trkpt lat="38.064637861578554" lon="15.850541830341001"><ele>1255.0</ele><time>2026-04-25T09:49:10Z</time></trkpt><trkpt lat="38.06470329679495" lon="15.850522650428356"><ele>1255.0</ele><time>2026-04-25T09:49:11Z</time></trkpt><trkpt lat="38.06476789539467" lon="15.850515091209312"><ele>1255.0</ele><time>2026-04-25T09:49:12Z</time></trkpt><trkpt lat="38.06483198109356" lon="15.85050280279765"><ele>1255.0</ele><time>2026-04-25T09:49:13Z</time></trkpt><trkpt lat="38.064941207566655" lon="15.850466311997387"><ele>1255.0</ele><time>2026-04-25T09:49:15Z</time></trkpt><trkpt lat="38.06501757861653" lon="15.8503720324429"><ele>1254.3333333333333</ele><time>2026-04-25T09:49:17Z</time></trkpt><trkpt lat="38.065052188948016" lon="15.85029865170687"><ele>1253.6666666666665</ele><time>2026-04-25T09:49:18Z</time></trkpt><trkpt lat="38.06508800887714" lon="15.85022010947191"><ele>1253.0</ele><time>2026-04-25T09:49:19Z</time></trkpt><trkpt lat="38.06512969193841" lon="15.850138197195905"><ele>1252.3333333333333</ele><time>2026-04-25T09:49:20Z</time></trkpt><trkpt lat="38.065163241410794" lon="15.850065674835372"><ele>1251.6666666666667</ele><time>2026-04-25T09:49:21Z</time></trkpt><trkpt lat="38.06519130861496" lon="15.849989043932863"><ele>1251.0</ele><time>2026-04-25T09:49:22Z</time></trkpt><trkpt lat="38.065231820422525" lon="15.849833102526844"><ele>1254.0</ele><time>2026-04-25T09:49:24Z</time></trkpt><trkpt lat="38.06525018685872" lon="15.849742134394772"><ele>1257.0</ele><time>2026-04-25T09:49:25Z</time></trkpt><trkpt lat="38.065271445635396" lon="15.849647919180319"><ele>1260.0</ele><time>2026-04-25T09:49:26Z</time></trkpt><trkpt lat="38.06528957121552" lon="15.849552967932294"><ele>1263.0</ele><time>2026-04-25T09:49:27Z</time></trkpt><trkpt lat="38.06530838340821" lon="15.849457106308376"><ele>1266.0</ele><time>2026-04-25T09:49:28Z</time></trkpt><trkpt lat="38.06532977947312" lon="15.849368137901244"><ele>1269.0</ele><time>2026-04-25T09:49:29Z</time></trkpt><trkpt lat="38.06538459798058" lon="15.849246936035158"><ele>1269.0</ele><time>2026-04-25T09:49:31Z</time></trkpt><trkpt lat="38.06543296898862" lon="15.84918471525362"><ele>1269.0</ele><time>2026-04-25T09:49:32Z</time></trkpt><trkpt lat="38.065484614851144" lon="15.849119206971364"><ele>1269.0</ele><time>2026-04-25T09:49:33Z</time></trkpt><trkpt lat="38.06553920408201" lon="15.849062823493282"><ele>1269.0</ele><time>2026-04-25T09:49:34Z</time></trkpt><trkpt lat="38.065595946028175" lon="15.849000009876608"><ele>1269.0</ele><time>2026-04-25T09:49:35Z</time></trkpt><trkpt lat="38.06565275383374" lon="15.848938716343913"><ele>1269.0</ele><time>2026-04-25T09:49:36Z</time></trkpt><trkpt lat="38.06576396265425" lon="15.84887528298022"><ele>1270.6666666666667</ele><time>2026-04-25T09:49:38Z</time></trkpt><trkpt lat="38.06583128505865" lon="15.84886909816295"><ele>1272.3333333333333</ele><time>2026-04-25T09:49:39Z</time></trkpt><trkpt lat="38.06589836757144" lon="15.848872947866345"><ele>1274.0</ele><time>2026-04-25T09:49:40Z</time></trkpt><trkpt lat="38.06596582410384" lon="15.848866766539862"><ele>1275.6666666666665</ele><time>2026-04-25T09:49:41Z</time></trkpt><trkpt lat="38.066057281453276" lon="15.848791786697754"><ele>1277.3333333333333</ele><time>2026-04-25T09:49:43Z</time></trkpt><trkpt lat="38.06609299776995" lon="15.848717490348287"><ele>1279.0</ele><time>2026-04-25T09:49:44Z</time></trkpt><trkpt lat="38.06612187750845" lon="15.848573717390876"><ele>1280.8333333333333</ele><time>2026-04-25T09:49:46Z</time></trkpt><trkpt lat="38.066150663152136" lon="15.848410727442543"><ele>1282.6666666666665</ele><time>2026-04-25T09:49:48Z</time></trkpt><trkpt lat="38.06618456663782" lon="15.848322244916876"><ele>1284.5</ele><time>2026-04-25T09:49:49Z</time></trkpt><trkpt lat="38.06622134203989" lon="15.8482562323012"><ele>1286.3333333333333</ele><time>2026-04-25T09:49:50Z</time></trkpt><trkpt lat="38.06626910886236" lon="15.848173583977111"><ele>1288.1666666666667</ele><time>2026-04-25T09:49:51Z</time></trkpt><trkpt lat="38.06632522192324" lon="15.848098184149826"><ele>1290.0</ele><time>2026-04-25T09:49:52Z</time></trkpt><trkpt lat="38.066380816299194" lon="15.848013312344536"><ele>1290.0</ele><time>2026-04-25T09:49:53.001Z</time></trkpt><trkpt lat="38.06644390192935" lon="15.847930918917982"><ele>1290.0</ele><time>2026-04-25T09:49:54.001Z</time></trkpt><trkpt lat="38.06649441162396" lon="15.847862079362823"><ele>1290.0</ele><time>2026-04-25T09:49:55.001Z</time></trkpt><trkpt lat="38.066592266830455" lon="15.847798509500276"><ele>1290.0</ele><time>2026-04-25T09:49:57.001Z</time></trkpt><trkpt lat="38.06668847879956" lon="15.847834589102002"><ele>1290.0</ele><time>2026-04-25T09:49:59.001Z</time></trkpt><trkpt lat="38.06672809257407" lon="15.847899621104323"><ele>1290.0</ele><time>2026-04-25T09:50:00.001Z</time></trkpt><trkpt lat="38.066773596791236" lon="15.847968253896559"><ele>1290.0</ele><time>2026-04-25T09:50:01.001Z</time></trkpt><trkpt lat="38.06686005801465" lon="15.848061467173963"><ele>1290.0</ele><time>2026-04-25T09:50:03.001Z</time></trkpt><trkpt lat="38.06691222441596" lon="15.848116086099257"><ele>1290.0</ele><time>2026-04-25T09:50:04.001Z</time></trkpt><trkpt lat="38.06696503748692" lon="15.84816653036643"><ele>1290.0</ele><time>2026-04-25T09:50:05.001Z</time></trkpt><trkpt lat="38.06700515534409" lon="15.84823266582322"><ele>1290.0</ele><time>2026-04-25T09:50:06.001Z</time></trkpt><trkpt lat="38.06705826358126" lon="15.84834065134354"><ele>1290.0</ele><time>2026-04-25T09:50:08.001Z</time></trkpt><trkpt lat="38.06709958783499" lon="15.848403196376557"><ele>1290.2</ele><time>2026-04-25T09:50:09.001Z</time></trkpt><trkpt lat="38.067217196114385" lon="15.848473652928554"><ele>1290.4</ele><time>2026-04-25T09:50:11.001Z</time></trkpt><trkpt lat="38.06728718642916" lon="15.848489494794388"><ele>1290.6</ele><time>2026-04-25T09:50:12.001Z</time></trkpt><trkpt lat="38.06735839967923" lon="15.84850767126839"><ele>1290.8</ele><time>2026-04-25T09:50:13.001Z</time></trkpt><trkpt lat="38.067426229438965" lon="15.848527434109089"><ele>1291.0</ele><time>2026-04-25T09:50:14.001Z</time></trkpt><trkpt lat="38.06753144036274" lon="15.848601539153762"><ele>1290.9999999999998</ele><time>2026-04-25T09:50:16.001Z</time></trkpt><trkpt lat="38.067587249315324" lon="15.848663691742892"><ele>1291.0</ele><time>2026-04-25T09:50:17.001Z</time></trkpt><trkpt lat="38.06763156011122" lon="15.84873654769702"><ele>1291.0</ele><time>2026-04-25T09:50:18.001Z</time></trkpt><trkpt lat="38.0676781358906" lon="15.848808723024437"><ele>1291.0</ele><time>2026-04-25T09:50:19.001Z</time></trkpt><trkpt lat="38.067727413275044" lon="15.848879925025562"><ele>1291.0</ele><time>2026-04-25T09:50:20.001Z</time></trkpt><trkpt lat="38.06777666627466" lon="15.848950158922257"><ele>1290.9999999999998</ele><time>2026-04-25T09:50:21.001Z</time></trkpt><trkpt lat="38.06782329363721" lon="15.849006568099439"><ele>1291.0</ele><time>2026-04-25T09:50:22.001Z</time></trkpt><trkpt lat="38.06787821308783" lon="15.849131515513745"><ele>1291.0</ele><time>2026-04-25T09:50:24.001Z</time></trkpt><trkpt lat="38.067910842419884" lon="15.84921412613297"><ele>1291.0</ele><time>2026-04-25T09:50:25.001Z</time></trkpt><trkpt lat="38.067947080518984" lon="15.849280710033526"><ele>1291.0</ele><time>2026-04-25T09:50:26.001Z</time></trkpt><trkpt lat="38.068046190130005" lon="15.849354865479862"><ele>1291.0</ele><time>2026-04-25T09:50:28.001Z</time></trkpt><trkpt lat="38.06812443340083" lon="15.849371000763451"><ele>1291.0</ele><time>2026-04-25T09:50:30.001Z</time></trkpt><trkpt lat="38.06819532632308" lon="15.849392488901861"><ele>1291.0</ele><time>2026-04-25T09:50:32.001Z</time></trkpt><trkpt lat="38.06822723205414" lon="15.849480296110416"><ele>1291.6</ele><time>2026-04-25T09:50:34.001Z</time></trkpt><trkpt lat="38.06822688260767" lon="15.84959403699716"><ele>1292.1999999999998</ele><time>2026-04-25T09:50:36.001Z</time></trkpt><trkpt lat="38.068248087151055" lon="15.84974303440167"><ele>1292.8000000000002</ele><time>2026-04-25T09:50:38.001Z</time></trkpt><trkpt lat="38.06825819377946" lon="15.849822860027608"><ele>1293.4</ele><time>2026-04-25T09:50:39.001Z</time></trkpt><trkpt lat="38.06830695957489" lon="15.8499187908294"><ele>1294.0</ele><time>2026-04-25T09:50:41.001Z</time></trkpt><trkpt lat="38.06840486425328" lon="15.849948248823047"><ele>1294.8000000000002</ele><time>2026-04-25T09:50:43.001Z</time></trkpt><trkpt lat="38.06850083762268" lon="15.849956113213713"><ele>1295.6000000000001</ele><time>2026-04-25T09:50:45.001Z</time></trkpt><trkpt lat="38.0685687808268" lon="15.85003774676183"><ele>1296.4</ele><time>2026-04-25T09:50:47.001Z</time></trkpt><trkpt lat="38.068602176281914" lon="15.85014090808582"><ele>1297.2</ele><time>2026-04-25T09:50:49.002Z</time></trkpt><trkpt lat="38.06865384363312" lon="15.85024816080242"><ele>1298.0</ele><time>2026-04-25T09:50:51.002Z</time></trkpt><trkpt lat="38.06874889393032" lon="15.850289828969522"><ele>1298.0</ele><time>2026-04-25T09:50:53.002Z</time></trkpt><trkpt lat="38.068852275688805" lon="15.850324768171307"><ele>1298.0</ele><time>2026-04-25T09:50:55.002Z</time></trkpt><trkpt lat="38.068945874905104" lon="15.850346904160487"><ele>1298.0</ele><time>2026-04-25T09:50:56.999Z</time></trkpt><trkpt lat="38.06904287509958" lon="15.850377777528253"><ele>1298.0</ele><time>2026-04-25T09:50:58.999Z</time></trkpt><trkpt lat="38.069161964658655" lon="15.850366957090733"><ele>1298.0</ele><time>2026-04-25T09:51:00.999Z</time></trkpt><trkpt lat="38.06923467493002" lon="15.850314135112779"><ele>1299.0</ele><time>2026-04-25T09:51:01.999Z</time></trkpt><trkpt lat="38.06931040195455" lon="15.850264237138234"><ele>1300.0</ele><time>2026-04-25T09:51:02.999Z</time></trkpt><trkpt lat="38.06935859581819" lon="15.850201968961345"><ele>1301.0</ele><time>2026-04-25T09:51:03.999Z</time></trkpt><trkpt lat="38.06940436434746" lon="15.850145613834917"><ele>1302.0</ele><time>2026-04-25T09:51:04.999Z</time></trkpt><trkpt lat="38.06948238157534" lon="15.850140881629809"><ele>1303.0</ele><time>2026-04-25T09:51:06.999Z</time></trkpt><trkpt lat="38.069547723382065" lon="15.850224949022962"><ele>1304.0</ele><time>2026-04-25T09:51:08.999Z</time></trkpt><trkpt lat="38.06957115228578" lon="15.850324058178677"><ele>1304.0</ele><time>2026-04-25T09:51:09.999Z</time></trkpt><trkpt lat="38.06958127163554" lon="15.85040737422941"><ele>1304.0</ele><time>2026-04-25T09:51:10.999Z</time></trkpt><trkpt lat="38.069653086510264" lon="15.850525930234603"><ele>1304.0</ele><time>2026-04-25T09:51:13.999Z</time></trkpt><trkpt lat="38.069727925243264" lon="15.850538561891264"><ele>1304.0</ele><time>2026-04-25T09:51:14.999Z</time></trkpt><trkpt lat="38.069791462967046" lon="15.85052897321736"><ele>1304.0</ele><time>2026-04-25T09:51:16Z</time></trkpt><trkpt lat="38.06986364882297" lon="15.85048577956021"><ele>1304.0</ele><time>2026-04-25T09:51:17Z</time></trkpt><trkpt lat="38.06996571029977" lon="15.850413183861344"><ele>1303.6666666666667</ele><time>2026-04-25T09:51:19Z</time></trkpt><trkpt lat="38.07003185225565" lon="15.850370307718157"><ele>1303.3333333333335</ele><time>2026-04-25T09:51:20Z</time></trkpt><trkpt lat="38.07010310528731" lon="15.850300288415834"><ele>1303.0</ele><time>2026-04-25T09:51:21Z</time></trkpt><trkpt lat="38.07017117936165" lon="15.850241241853395"><ele>1302.6666666666667</ele><time>2026-04-25T09:51:23Z</time></trkpt><trkpt lat="38.07024304519228" lon="15.85014404999867"><ele>1302.3333333333333</ele><time>2026-04-25T09:51:25Z</time></trkpt><trkpt lat="38.070317361261736" lon="15.850080866526753"><ele>1302.0</ele><time>2026-04-25T09:51:27Z</time></trkpt><trkpt lat="38.07041410581643" lon="15.85007612406977"><ele>1302.0</ele><time>2026-04-25T09:51:29Z</time></trkpt><trkpt lat="38.07048826137897" lon="15.85010629921058"><ele>1302.0</ele><time>2026-04-25T09:51:30Z</time></trkpt><trkpt lat="38.07059164934152" lon="15.850137731676995"><ele>1302.0</ele><time>2026-04-25T09:51:32Z</time></trkpt><trkpt lat="38.07062821998296" lon="15.850240671135"><ele>1302.0</ele><time>2026-04-25T09:51:34Z</time></trkpt><trkpt lat="38.07064897556172" lon="15.850361306137888"><ele>1302.0</ele><time>2026-04-25T09:51:36Z</time></trkpt><trkpt lat="38.07067545961812" lon="15.85052967453278"><ele>1302.0</ele><time>2026-04-25T09:51:38Z</time></trkpt><trkpt lat="38.07071527871774" lon="15.850623866168718"><ele>1302.0</ele><time>2026-04-25T09:51:39Z</time></trkpt><trkpt lat="38.07076511338332" lon="15.850720397568601"><ele>1302.0</ele><time>2026-04-25T09:51:40Z</time></trkpt><trkpt lat="38.07081683556641" lon="15.850850407756909"><ele>1302.0</ele><time>2026-04-25T09:51:42Z</time></trkpt><trkpt lat="38.07084139267495" lon="15.850939934008464"><ele>1302.0</ele><time>2026-04-25T09:51:43Z</time></trkpt><trkpt lat="38.070900316037765" lon="15.851006938299633"><ele>1302.0</ele><time>2026-04-25T09:51:44Z</time></trkpt><trkpt lat="38.07092090224076" lon="15.851127324419497"><ele>1302.5</ele><time>2026-04-25T09:51:45Z</time></trkpt><trkpt lat="38.07093866633217" lon="15.85121415334755"><ele>1303.0</ele><time>2026-04-25T09:51:46Z</time></trkpt><trkpt lat="38.07096936640077" lon="15.8513122875123"><ele>1303.5</ele><time>2026-04-25T09:51:47Z</time></trkpt><trkpt lat="38.07099148381142" lon="15.85141961398375"><ele>1304.0</ele><time>2026-04-25T09:51:48Z</time></trkpt><trkpt lat="38.07100446984281" lon="15.85150919450693"><ele>1304.5</ele><time>2026-04-25T09:51:49Z</time></trkpt><trkpt lat="38.07100497600143" lon="15.8515957512846"><ele>1305.0</ele><time>2026-04-25T09:51:51Z</time></trkpt><trkpt lat="38.071073681966496" lon="15.851706430182011"><ele>1304.5</ele><time>2026-04-25T09:51:52.001Z</time></trkpt><trkpt lat="38.07110149774792" lon="15.851796921391204"><ele>1304.0</ele><time>2026-04-25T09:51:53.001Z</time></trkpt><trkpt lat="38.0711472443014" lon="15.851890841737323"><ele>1303.5</ele><time>2026-04-25T09:51:54.001Z</time></trkpt><trkpt lat="38.07117193472683" lon="15.851969077458111"><ele>1303.0</ele><time>2026-04-25T09:51:55.001Z</time></trkpt><trkpt lat="38.07121226057731" lon="15.85204602985308"><ele>1302.5</ele><time>2026-04-25T09:51:56.001Z</time></trkpt><trkpt lat="38.071292167049975" lon="15.852148418835759"><ele>1302.0</ele><time>2026-04-25T09:51:58.001Z</time></trkpt><trkpt lat="38.07135335695326" lon="15.852238360455592"><ele>1302.0</ele><time>2026-04-25T09:51:59.001Z</time></trkpt><trkpt lat="38.07140654344695" lon="15.852290744852224"><ele>1302.0</ele><time>2026-04-25T09:52:00.001Z</time></trkpt><trkpt lat="38.07153491691475" lon="15.852355306057069"><ele>1302.0</ele><time>2026-04-25T09:52:02.001Z</time></trkpt><trkpt lat="38.07160351936967" lon="15.852381707227607"><ele>1302.0</ele><time>2026-04-25T09:52:03.001Z</time></trkpt><trkpt lat="38.07168165368899" lon="15.852440484893172"><ele>1302.0</ele><time>2026-04-25T09:52:05.001Z</time></trkpt><trkpt lat="38.07173574373873" lon="15.852566787443763"><ele>1300.8333333333333</ele><time>2026-04-25T09:52:07.001Z</time></trkpt><trkpt lat="38.07175631593401" lon="15.852665774605926"><ele>1299.6666666666667</ele><time>2026-04-25T09:52:08.001Z</time></trkpt><trkpt lat="38.0717823040334" lon="15.852742123218038"><ele>1298.5</ele><time>2026-04-25T09:52:09.001Z</time></trkpt><trkpt lat="38.07181140015753" lon="15.852820299107574"><ele>1297.3333333333335</ele><time>2026-04-25T09:52:10.001Z</time></trkpt><trkpt lat="38.07185448237885" lon="15.852885478642277"><ele>1296.1666666666667</ele><time>2026-04-25T09:52:11.001Z</time></trkpt><trkpt lat="38.071931893920485" lon="15.852992993310778"><ele>1295.0</ele><time>2026-04-25T09:52:13.001Z</time></trkpt><trkpt lat="38.071999612219074" lon="15.853023068182903"><ele>1295.0</ele><time>2026-04-25T09:52:14.001Z</time></trkpt><trkpt lat="38.0720628016071" lon="15.853077124443576"><ele>1295.0</ele><time>2026-04-25T09:52:15.001Z</time></trkpt><trkpt lat="38.07212285501288" lon="15.85310581891916"><ele>1295.0</ele><time>2026-04-25T09:52:16.001Z</time></trkpt><trkpt lat="38.072243045992444" lon="15.853166814101913"><ele>1295.0</ele><time>2026-04-25T09:52:18.001Z</time></trkpt><trkpt lat="38.07232100356066" lon="15.853196643348731"><ele>1295.0</ele><time>2026-04-25T09:52:19.001Z</time></trkpt><trkpt lat="38.07238222307201" lon="15.85322195174566"><ele>1295.0</ele><time>2026-04-25T09:52:20.001Z</time></trkpt><trkpt lat="38.07244664427565" lon="15.853265135717105"><ele>1150.0</ele><time>2026-04-25T09:52:21.001Z</time></trkpt><trkpt lat="38.051256367269744" lon="15.85254433763116"><ele>1150.0</ele><time>2026-04-25T09:37:34.001Z</time></trkpt><trkpt lat="38.051363250372034" lon="15.852546854461343"><ele>1150.0</ele><time>2026-04-25T09:37:35.001Z</time></trkpt><trkpt lat="38.051466463350174" lon="15.852545714372129"><ele>1150.0</ele><time>2026-04-25T09:37:36.001Z</time></trkpt><trkpt lat="38.051569109268556" lon="15.852543729960633"><ele>1150.0</ele><time>2026-04-25T09:37:37.001Z</time></trkpt><trkpt lat="38.051670363012995" lon="15.852553690288234"><ele>1150.0</ele><time>2026-04-25T09:37:38.001Z</time></trkpt><trkpt lat="38.051771087007054" lon="15.852529014027468"><ele>1151.8</ele><time>2026-04-25T09:37:39.001Z</time></trkpt><trkpt lat="38.05187508957022" lon="15.852545565711475"><ele>1153.6</ele><time>2026-04-25T09:37:40.001Z</time></trkpt><trkpt lat="38.05197107623728" lon="15.852541625082354"><ele>1155.4</ele><time>2026-04-25T09:37:41.001Z</time></trkpt><trkpt lat="38.05205800801722" lon="15.85254084797328"><ele>1157.2</ele><time>2026-04-25T09:37:42.001Z</time></trkpt><trkpt lat="38.05213759609368" lon="15.852523705526375"><ele>1159.0</ele><time>2026-04-25T09:37:43.001Z</time></trkpt><trkpt lat="38.05226586796383" lon="15.852500697047493"><ele>1159.0</ele><time>2026-04-25T09:37:45.001Z</time></trkpt><trkpt lat="38.05235947439114" lon="15.852380757937874"><ele>1159.0</ele><time>2026-04-25T09:37:47.001Z</time></trkpt><trkpt lat="38.052483384218554" lon="15.852331831272966"><ele>1159.0</ele><time>2026-04-25T09:37:49.001Z</time></trkpt><trkpt lat="38.05255495949933" lon="15.85229650554109"><ele>1159.0</ele><time>2026-04-25T09:37:50.001Z</time></trkpt><trkpt lat="38.05264316774484" lon="15.852264850191824"><ele>1159.0</ele><time>2026-04-25T09:37:51.002Z</time></trkpt><trkpt lat="38.05273902642558" lon="15.852216650315258"><ele>1159.3333333333333</ele><time>2026-04-25T09:37:52.002Z</time></trkpt><trkpt lat="38.05283221819481" lon="15.852187596382443"><ele>1159.6666666666665</ele><time>2026-04-25T09:37:53.002Z</time></trkpt><trkpt lat="38.05292161721058" lon="15.852135983341812"><ele>1160.0</ele><time>2026-04-25T09:37:54.002Z</time></trkpt><trkpt lat="38.05300494230113" lon="15.852150938389952"><ele>1160.3333333333333</ele><time>2026-04-25T09:37:55.002Z</time></trkpt><trkpt lat="38.053080658848394" lon="15.852209216080702"><ele>1160.6666666666667</ele><time>2026-04-25T09:37:56.002Z</time></trkpt><trkpt lat="38.05314327959535" lon="15.85227458526023"><ele>1161.0</ele><time>2026-04-25T09:37:57.002Z</time></trkpt><trkpt lat="38.05319623402174" lon="15.852359196107127"><ele>1161.0</ele><time>2026-04-25T09:37:58.002Z</time></trkpt><trkpt lat="38.05322983900457" lon="15.852455665856898"><ele>1161.0</ele><time>2026-04-25T09:37:59.002Z</time></trkpt><trkpt lat="38.05327446509538" lon="15.852539561759805"><ele>1161.0</ele><time>2026-04-25T09:38:00.002Z</time></trkpt><trkpt lat="38.053331850269615" lon="15.85258570159983"><ele>1161.0</ele><time>2026-04-25T09:38:01.002Z</time></trkpt><trkpt lat="38.053412414723326" lon="15.852541573550049"><ele>1161.0</ele><time>2026-04-25T09:38:02.002Z</time></trkpt><trkpt lat="38.05350066800262" lon="15.852403949120793"><ele>1162.3333333333333</ele><time>2026-04-25T09:38:04.002Z</time></trkpt><trkpt lat="38.05355072208276" lon="15.852329868835886"><ele>1163.6666666666667</ele><time>2026-04-25T09:38:05.002Z</time></trkpt><trkpt lat="38.053598313303134" lon="15.85224463835752"><ele>1165.0</ele><time>2026-04-25T09:38:06.002Z</time></trkpt><trkpt lat="38.05363907270772" lon="15.85214910673035"><ele>1166.3333333333335</ele><time>2026-04-25T09:38:07.002Z</time></trkpt><trkpt lat="38.05369780926203" lon="15.852056092091772"><ele>1167.6666666666667</ele><time>2026-04-25T09:38:08.002Z</time></trkpt><trkpt lat="38.05373951107975" lon="15.851947008741167"><ele>1169.0</ele><time>2026-04-25T09:38:09.002Z</time></trkpt><trkpt lat="38.05378828565062" lon="15.851857454319855"><ele>1169.0</ele><time>2026-04-25T09:38:10.002Z</time></trkpt><trkpt lat="38.0538403305602" lon="15.851794804673183"><ele>1169.0</ele><time>2026-04-25T09:38:11.002Z</time></trkpt><trkpt lat="38.05392496306225" lon="15.851777562309369"><ele>1169.0</ele><time>2026-04-25T09:38:12.002Z</time></trkpt><trkpt lat="38.054017132178544" lon="15.851730161204236"><ele>1169.0</ele><time>2026-04-25T09:38:13.002Z</time></trkpt><trkpt lat="38.05410374980358" lon="15.851684683599972"><ele>1169.0</ele><time>2026-04-25T09:38:14.002Z</time></trkpt><trkpt lat="38.05419288158625" lon="15.851618093489998"><ele>1171.6000000000001</ele><time>2026-04-25T09:38:15.002Z</time></trkpt><trkpt lat="38.05426645461044" lon="15.851554678412857"><ele>1174.2</ele><time>2026-04-25T09:38:16.002Z</time></trkpt><trkpt lat="38.05436163818476" lon="15.851507687710622"><ele>1176.8000000000002</ele><time>2026-04-25T09:38:17.002Z</time></trkpt><trkpt lat="38.054459204476835" lon="15.851458217957145"><ele>1179.4</ele><time>2026-04-25T09:38:18.002Z</time></trkpt><trkpt lat="38.054569715845524" lon="15.851421503745257"><ele>1182.0</ele><time>2026-04-25T09:38:19.002Z</time></trkpt><trkpt lat="38.05466907625953" lon="15.851405537229303"><ele>1182.0</ele><time>2026-04-25T09:38:20.002Z</time></trkpt><trkpt lat="38.0547826684768" lon="15.851393290949492"><ele>1182.0</ele><time>2026-04-25T09:38:21Z</time></trkpt><trkpt lat="38.05488792140134" lon="15.851396639870153"><ele>1182.0</ele><time>2026-04-25T09:38:22Z</time></trkpt><trkpt lat="38.0550077691235" lon="15.851372145520534"><ele>1182.0</ele><time>2026-04-25T09:38:23Z</time></trkpt><trkpt lat="38.055103918687266" lon="15.851375854456274"><ele>1182.0</ele><time>2026-04-25T09:38:24Z</time></trkpt><trkpt lat="38.05519354710742" lon="15.851384000271011"><ele>1183.0</ele><time>2026-04-25T09:38:25Z</time></trkpt><trkpt lat="38.05528053253458" lon="15.851382053855849"><ele>1184.0</ele><time>2026-04-25T09:38:26Z</time></trkpt><trkpt lat="38.0553573766432" lon="15.851388624061727"><ele>1185.0</ele><time>2026-04-25T09:38:27Z</time></trkpt><trkpt lat="38.05542726840379" lon="15.851401379462471"><ele>1186.0</ele><time>2026-04-25T09:38:28Z</time></trkpt><trkpt lat="38.0555056184203" lon="15.851455602723934"><ele>1187.0</ele><time>2026-04-25T09:38:30Z</time></trkpt><trkpt lat="38.05547499410723" lon="15.851622132955859"><ele>1187.0</ele><time>2026-04-25T09:38:32Z</time></trkpt><trkpt lat="38.055477727204575" lon="15.851707428055626"><ele>1187.0</ele><time>2026-04-25T09:38:33Z</time></trkpt><trkpt lat="38.05549960697549" lon="15.85184706835575"><ele>1187.0</ele><time>2026-04-25T09:38:35Z</time></trkpt><trkpt lat="38.055532405839145" lon="15.851924073456576"><ele>1187.0</ele><time>2026-04-25T09:38:36Z</time></trkpt><trkpt lat="38.05554677806286" lon="15.852003895304703"><ele>1187.0</ele><time>2026-04-25T09:38:37Z</time></trkpt><trkpt lat="38.05558793633575" lon="15.85208060352713"><ele>1187.0</ele><time>2026-04-25T09:38:38Z</time></trkpt><trkpt lat="38.05563400372819" lon="15.852151192659957"><ele>1187.6666666666667</ele><time>2026-04-25T09:38:39Z</time></trkpt><trkpt lat="38.05570977679127" lon="15.852194140394214"><ele>1188.3333333333335</ele><time>2026-04-25T09:38:40Z</time></trkpt><trkpt lat="38.055767174803286" lon="15.85227474851399"><ele>1189.0</ele><time>2026-04-25T09:38:41Z</time></trkpt><trkpt lat="38.05582253848068" lon="15.852330262368616"><ele>1189.6666666666667</ele><time>2026-04-25T09:38:42Z</time></trkpt><trkpt lat="38.05588370079531" lon="15.852392946497877"><ele>1190.3333333333333</ele><time>2026-04-25T09:38:43Z</time></trkpt><trkpt lat="38.05593685002481" lon="15.852452128737486"><ele>1191.0</ele><time>2026-04-25T09:38:44Z</time></trkpt><trkpt lat="38.055974829350376" lon="15.852521290731515"><ele>1192.1666666666667</ele><time>2026-04-25T09:38:45Z</time></trkpt><trkpt lat="38.05600259311575" lon="15.852678767928802"><ele>1193.3333333333333</ele><time>2026-04-25T09:38:47Z</time></trkpt><trkpt lat="38.05601998148702" lon="15.852770409087501"><ele>1194.5</ele><time>2026-04-25T09:38:48Z</time></trkpt><trkpt lat="38.05604248193203" lon="15.852846347597387"><ele>1195.6666666666665</ele><time>2026-04-25T09:38:49Z</time></trkpt><trkpt lat="38.05606556519064" lon="15.85297146379533"><ele>1196.8333333333333</ele><time>2026-04-25T09:38:51Z</time></trkpt><trkpt lat="38.056032828803716" lon="15.853064205207415"><ele>1198.0</ele><time>2026-04-25T09:38:53Z</time></trkpt><trkpt lat="38.05593396855718" lon="15.85312500186723"><ele>1198.0</ele><time>2026-04-25T09:38:55Z</time></trkpt><trkpt lat="38.0558115847861" lon="15.853125073778216"><ele>1198.0</ele><time>2026-04-25T09:38:57Z</time></trkpt><trkpt lat="38.05572795295871" lon="15.853233645221346"><ele>1198.0</ele><time>2026-04-25T09:38:59Z</time></trkpt><trkpt lat="38.0557417843239" lon="15.853329041153039"><ele>1198.0</ele><time>2026-04-25T09:39:00Z</time></trkpt><trkpt lat="38.05576747418926" lon="15.85341189900093"><ele>1198.0</ele><time>2026-04-25T09:39:01Z</time></trkpt><trkpt lat="38.05578819451814" lon="15.853564348429405"><ele>1198.8</ele><time>2026-04-25T09:39:03Z</time></trkpt><trkpt lat="38.055799222150455" lon="15.853645484022586"><ele>1199.6</ele><time>2026-04-25T09:39:04Z</time></trkpt><trkpt lat="38.05595548444211" lon="15.85370830615358"><ele>1200.4</ele><time>2026-04-25T09:39:05Z</time></trkpt><trkpt lat="38.05598451436448" lon="15.85379156573328"><ele>1201.2</ele><time>2026-04-25T09:39:06Z</time></trkpt><trkpt lat="38.0560123810865" lon="15.853879122054117"><ele>1202.0</ele><time>2026-04-25T09:39:07Z</time></trkpt><trkpt lat="38.05604378616973" lon="15.853965343586749"><ele>1202.0</ele><time>2026-04-25T09:39:08Z</time></trkpt><trkpt lat="38.05608160502086" lon="15.854113297647332"><ele>1202.0</ele><time>2026-04-25T09:39:10.001Z</time></trkpt><trkpt lat="38.05610408340882" lon="15.85420288996465"><ele>1202.0</ele><time>2026-04-25T09:39:11.001Z</time></trkpt><trkpt lat="38.05612852138982" lon="15.854290097160396"><ele>1202.0</ele><time>2026-04-25T09:39:12.001Z</time></trkpt><trkpt lat="38.05614511149271" lon="15.85438748600545"><ele>1202.0</ele><time>2026-04-25T09:39:13.001Z</time></trkpt><trkpt lat="38.05615798687837" lon="15.85449038893125"><ele>1202.0</ele><time>2026-04-25T09:39:14.001Z</time></trkpt><trkpt lat="38.0561624119662" lon="15.85459895893438"><ele>1201.6666666666667</ele><time>2026-04-25T09:39:15.001Z</time></trkpt><trkpt lat="38.056174288741055" lon="15.854696485878161"><ele>1201.3333333333335</ele><time>2026-04-25T09:39:16.001Z</time></trkpt><trkpt lat="38.05619575693788" lon="15.854779760474973"><ele>1201.0</ele><time>2026-04-25T09:39:17.001Z</time></trkpt><trkpt lat="38.05625713927631" lon="15.854910789281123"><ele>1200.6666666666667</ele><time>2026-04-25T09:39:19.001Z</time></trkpt><trkpt lat="38.05631719838106" lon="15.854969683433074"><ele>1200.3333333333333</ele><time>2026-04-25T09:39:20.001Z</time></trkpt><trkpt lat="38.05640169582477" lon="15.855022402642076"><ele>1200.0</ele><time>2026-04-25T09:39:21.001Z</time></trkpt><trkpt lat="38.05646927648732" lon="15.85507942767017"><ele>1198.8571428571427</ele><time>2026-04-25T09:39:22.001Z</time></trkpt><trkpt lat="38.05653150251124" lon="15.855134974493392"><ele>1197.7142857142858</ele><time>2026-04-25T09:39:23.001Z</time></trkpt><trkpt lat="38.05659532451157" lon="15.855195174539883"><ele>1196.5714285714284</ele><time>2026-04-25T09:39:24.001Z</time></trkpt><trkpt lat="38.05664150483365" lon="15.855255044663549"><ele>1195.4285714285713</ele><time>2026-04-25T09:39:25.001Z</time></trkpt><trkpt lat="38.05668713712797" lon="15.855324875902818"><ele>1194.2857142857142</ele><time>2026-04-25T09:39:26.001Z</time></trkpt><trkpt lat="38.05674708167124" lon="15.855359549060946"><ele>1193.142857142857</ele><time>2026-04-25T09:39:27.001Z</time></trkpt><trkpt lat="38.05681220242205" lon="15.855365425720828"><ele>1192.0</ele><time>2026-04-25T09:39:28.001Z</time></trkpt><trkpt lat="38.05689053374005" lon="15.855366329219917"><ele>1194.8333333333333</ele><time>2026-04-25T09:39:29.001Z</time></trkpt><trkpt lat="38.056965617243" lon="15.855356086926736"><ele>1197.6666666666665</ele><time>2026-04-25T09:39:30.001Z</time></trkpt><trkpt lat="38.057046677539354" lon="15.855327675481208"><ele>1200.5</ele><time>2026-04-25T09:39:31.001Z</time></trkpt><trkpt lat="38.057111774057404" lon="15.855297888764138"><ele>1203.3333333333333</ele><time>2026-04-25T09:39:32.001Z</time></trkpt><trkpt lat="38.05721872137111" lon="15.855281805714375"><ele>1206.1666666666667</ele><time>2026-04-25T09:39:34.001Z</time></trkpt><trkpt lat="38.05725513892035" lon="15.855352255038834"><ele>1209.0</ele><time>2026-04-25T09:39:36.001Z</time></trkpt><trkpt lat="38.05729327495768" lon="15.85549758287892"><ele>1209.0</ele><time>2026-04-25T09:39:38.001Z</time></trkpt><trkpt lat="38.057347894518195" lon="15.855616495335171"><ele>1209.0</ele><time>2026-04-25T09:39:40.001Z</time></trkpt><trkpt lat="38.057396305261825" lon="15.855678470978823"><ele>1209.0</ele><time>2026-04-25T09:39:41.001Z</time></trkpt><trkpt lat="38.05745612719522" lon="15.855763967973626"><ele>1209.0</ele><time>2026-04-25T09:39:42.001Z</time></trkpt><trkpt lat="38.05755252945801" lon="15.85586746045279"><ele>1209.0</ele><time>2026-04-25T09:39:44.001Z</time></trkpt><trkpt lat="38.0576172288673" lon="15.855804320406484"><ele>1211.4</ele><time>2026-04-25T09:39:46.001Z</time></trkpt><trkpt lat="38.05759855761502" lon="15.8556398538697"><ele>1213.8000000000002</ele><time>2026-04-25T09:39:48.001Z</time></trkpt><trkpt lat="38.05755347356319" lon="15.855582625160176"><ele>1216.1999999999998</ele><time>2026-04-25T09:39:49.001Z</time></trkpt><trkpt lat="38.05750482495597" lon="15.85550630333408"><ele>1218.6</ele><time>2026-04-25T09:39:50.001Z</time></trkpt><trkpt lat="38.05748966429804" lon="15.85533767531033"><ele>1221.0</ele><time>2026-04-25T09:39:52.001Z</time></trkpt><trkpt lat="38.05751330464148" lon="15.855246759629225"><ele>1221.0</ele><time>2026-04-25T09:39:53.001Z</time></trkpt><trkpt lat="38.057532506113745" lon="15.855167808929755"><ele>1221.0</ele><time>2026-04-25T09:39:54.001Z</time></trkpt><trkpt lat="38.05760778982227" lon="15.855060432891566"><ele>1221.0</ele><time>2026-04-25T09:39:55.001Z</time></trkpt><trkpt lat="38.05764121167882" lon="15.854977544430355"><ele>1221.0</ele><time>2026-04-25T09:39:56.001Z</time></trkpt><trkpt lat="38.0576377148035" lon="15.854859847739236"><ele>1221.0</ele><time>2026-04-25T09:39:58.001Z</time></trkpt><trkpt lat="38.057562273699375" lon="15.854781068976491"><ele>1221.0</ele><time>2026-04-25T09:40:00.002Z</time></trkpt><trkpt lat="38.05748816275106" lon="15.8547576409611"><ele>1220.2</ele><time>2026-04-25T09:40:01.002Z</time></trkpt><trkpt lat="38.05740201612796" lon="15.854745039515349"><ele>1219.3999999999999</ele><time>2026-04-25T09:40:02.002Z</time></trkpt><trkpt lat="38.05733711183139" lon="15.85472066783986"><ele>1218.6</ele><time>2026-04-25T09:40:03.002Z</time></trkpt><trkpt lat="38.05728204186308" lon="15.854599243302193"><ele>1217.8</ele><time>2026-04-25T09:40:05.002Z</time></trkpt><trkpt lat="38.05730923775015" lon="15.854438856954673"><ele>1217.0</ele><time>2026-04-25T09:40:07.002Z</time></trkpt><trkpt lat="38.057346884750466" lon="15.854360368408074"><ele>1217.142857142857</ele><time>2026-04-25T09:40:08.002Z</time></trkpt><trkpt lat="38.05739188079666" lon="15.854281212122633"><ele>1217.2857142857142</ele><time>2026-04-25T09:40:09.002Z</time></trkpt><trkpt lat="38.05744434451809" lon="15.85419790806357"><ele>1217.4285714285716</ele><time>2026-04-25T09:40:10.002Z</time></trkpt><trkpt lat="38.0574910564002" lon="15.85414236656499"><ele>1217.5714285714284</ele><time>2026-04-25T09:40:11.002Z</time></trkpt><trkpt lat="38.05754545023422" lon="15.854096170443674"><ele>1217.7142857142858</ele><time>2026-04-25T09:40:12.002Z</time></trkpt><trkpt lat="38.057607343553386" lon="15.85404571865667"><ele>1217.857142857143</ele><time>2026-04-25T09:40:13.002Z</time></trkpt><trkpt lat="38.05767798652861" lon="15.854002262501808"><ele>1218.0</ele><time>2026-04-25T09:40:14.002Z</time></trkpt><trkpt lat="38.05773967826025" lon="15.853968409007443"><ele>1220.4</ele><time>2026-04-25T09:40:15.002Z</time></trkpt><trkpt lat="38.05780330124072" lon="15.8539447427887"><ele>1222.8</ele><time>2026-04-25T09:40:17.002Z</time></trkpt><trkpt lat="38.05786182019612" lon="15.854036045151402"><ele>1225.2</ele><time>2026-04-25T09:40:20.002Z</time></trkpt><trkpt lat="38.05789038625228" lon="15.854183022673542"><ele>1227.6</ele><time>2026-04-25T09:40:22.002Z</time></trkpt><trkpt lat="38.05791843793541" lon="15.854254977518965"><ele>1230.0</ele><time>2026-04-25T09:40:23.002Z</time></trkpt><trkpt lat="38.05801014019949" lon="15.854363997161137"><ele>1230.0</ele><time>2026-04-25T09:40:25.002Z</time></trkpt><trkpt lat="38.05808461433333" lon="15.854494372627352"><ele>1230.0</ele><time>2026-04-25T09:40:27Z</time></trkpt><trkpt lat="38.05813878325439" lon="15.854623434488563"><ele>1230.0</ele><time>2026-04-25T09:40:29Z</time></trkpt><trkpt lat="38.05813272439035" lon="15.85470427360688"><ele>1230.0</ele><time>2026-04-25T09:40:30Z</time></trkpt><trkpt lat="38.05812318649178" lon="15.854825589236107"><ele>1230.0</ele><time>2026-04-25T09:40:32Z</time></trkpt><trkpt lat="38.05819211739183" lon="15.854856410898305"><ele>1230.0</ele><time>2026-04-25T09:40:34Z</time></trkpt><trkpt lat="38.05827169338748" lon="15.854809442907062"><ele>1230.0</ele><time>2026-04-25T09:40:36Z</time></trkpt><trkpt lat="38.05829686938225" lon="15.854677449648209"><ele>1230.0</ele><time>2026-04-25T09:40:38Z</time></trkpt><trkpt lat="38.05829588648802" lon="15.854575264402245"><ele>1230.0</ele><time>2026-04-25T09:40:39Z</time></trkpt><trkpt lat="38.05827574869459" lon="15.85449414021468"><ele>1230.0</ele><time>2026-04-25T09:40:40Z</time></trkpt><trkpt lat="38.05826980370201" lon="15.854408731781067"><ele>1230.0</ele><time>2026-04-25T09:40:41Z</time></trkpt><trkpt lat="38.05827018412787" lon="15.854321652976619"><ele>1230.8</ele><time>2026-04-25T09:40:42Z</time></trkpt><trkpt lat="38.05828282003335" lon="15.854235712503531"><ele>1231.6</ele><time>2026-04-25T09:40:43Z</time></trkpt><trkpt lat="38.05831588646258" lon="15.854086795716535"><ele>1232.4</ele><time>2026-04-25T09:40:45Z</time></trkpt><trkpt lat="38.058368845438316" lon="15.853985101511599"><ele>1233.2</ele><time>2026-04-25T09:40:47Z</time></trkpt><trkpt lat="38.05843467726633" lon="15.853917208098252"><ele>1234.0</ele><time>2026-04-25T09:45:22.001Z</time></trkpt><trkpt lat="38.05849827297411" lon="15.853857052530785"><ele>1237.2</ele><time>2026-04-25T09:45:24.001Z</time></trkpt><trkpt lat="38.05856901623648" lon="15.853806693750846"><ele>1240.4</ele><time>2026-04-25T09:45:26.001Z</time></trkpt><trkpt lat="38.05865387435742" lon="15.853740985321602"><ele>1243.6</ele><time>2026-04-25T09:45:28.001Z</time></trkpt><trkpt lat="38.058753450851555" lon="15.853681507588155"><ele>1246.8</ele><time>2026-04-25T09:45:30.001Z</time></trkpt><trkpt lat="38.0588641722041" lon="15.853654343688687"><ele>1250.0</ele><time>2026-04-25T09:45:32.001Z</time></trkpt><trkpt lat="38.05896789209455" lon="15.85365852931114"><ele>1250.0</ele><time>2026-04-25T09:45:34.001Z</time></trkpt><trkpt lat="38.059073053634066" lon="15.853688309820061"><ele>1250.0</ele><time>2026-04-25T09:45:36.001Z</time></trkpt><trkpt lat="38.05916810125277" lon="15.853653894474677"><ele>1250.0</ele><time>2026-04-25T09:45:38.001Z</time></trkpt><trkpt lat="38.059222638502845" lon="15.853600824215652"><ele>1250.0</ele><time>2026-04-25T09:45:39.001Z</time></trkpt><trkpt lat="38.05927132037561" lon="15.85352571560893"><ele>1250.0</ele><time>2026-04-25T09:45:40.001Z</time></trkpt><trkpt lat="38.05931505297794" lon="15.853459927740285"><ele>1250.0</ele><time>2026-04-25T09:45:41.001Z</time></trkpt><trkpt lat="38.059414212559574" lon="15.853383085037832"><ele>1252.5714285714287</ele><time>2026-04-25T09:45:43.001Z</time></trkpt><trkpt lat="38.05948800531703" lon="15.85337126568605"><ele>1255.142857142857</ele><time>2026-04-25T09:45:44.001Z</time></trkpt><trkpt lat="38.05955861465231" lon="15.853363948675405"><ele>1257.7142857142858</ele><time>2026-04-25T09:45:45.001Z</time></trkpt><trkpt lat="38.05963848342307" lon="15.85335766172573"><ele>1260.2857142857142</ele><time>2026-04-25T09:45:46.001Z</time></trkpt><trkpt lat="38.05971026406584" lon="15.85336713289707"><ele>1262.857142857143</ele><time>2026-04-25T09:45:47.001Z</time></trkpt><trkpt lat="38.05978436882313" lon="15.853389598632614"><ele>1265.4285714285716</ele><time>2026-04-25T09:45:48.001Z</time></trkpt><trkpt lat="38.05985928352874" lon="15.853390478560222"><ele>1268.0</ele><time>2026-04-25T09:45:49.001Z</time></trkpt><trkpt lat="38.0599276169719" lon="15.853379799639763"><ele>1267.5</ele><time>2026-04-25T09:45:50.001Z</time></trkpt><trkpt lat="38.059994571263786" lon="15.853344472857257"><ele>1267.0</ele><time>2026-04-25T09:45:51.001Z</time></trkpt><trkpt lat="38.06006664569496" lon="15.853289526575264"><ele>1266.5</ele><time>2026-04-25T09:45:52.001Z</time></trkpt><trkpt lat="38.060131996597654" lon="15.853222053534681"><ele>1266.0</ele><time>2026-04-25T09:45:53.001Z</time></trkpt><trkpt lat="38.06020183938998" lon="15.85314405784258"><ele>1265.5</ele><time>2026-04-25T09:45:54.001Z</time></trkpt><trkpt lat="38.06027183308893" lon="15.853071249451265"><ele>1265.0</ele><time>2026-04-25T09:45:55.001Z</time></trkpt><trkpt lat="38.0603473859181" lon="15.852984930234257"><ele>1265.0</ele><time>2026-04-25T09:45:56.001Z</time></trkpt><trkpt lat="38.06042659399409" lon="15.85290753010054"><ele>1265.0</ele><time>2026-04-25T09:45:57.001Z</time></trkpt><trkpt lat="38.06050738166173" lon="15.852832051248035"><ele>1265.0</ele><time>2026-04-25T09:45:58.001Z</time></trkpt><trkpt lat="38.06058894110689" lon="15.852765353944084"><ele>1265.0</ele><time>2026-04-25T09:45:59.001Z</time></trkpt><trkpt lat="38.06066746336961" lon="15.852701705065098"><ele>1265.0</ele><time>2026-04-25T09:46:00.001Z</time></trkpt><trkpt lat="38.06074639222775" lon="15.85263747665984"><ele>1267.4285714285713</ele><time>2026-04-25T09:46:01.001Z</time></trkpt><trkpt lat="38.06081231370006" lon="15.852580554750112"><ele>1269.857142857143</ele><time>2026-04-25T09:46:02.001Z</time></trkpt><trkpt lat="38.06087389016285" lon="15.85252116375373"><ele>1272.2857142857142</ele><time>2026-04-25T09:46:03.001Z</time></trkpt><trkpt lat="38.06093232268064" lon="15.852461630255416"><ele>1274.7142857142858</ele><time>2026-04-25T09:46:04.001Z</time></trkpt><trkpt lat="38.060984789930814" lon="15.852411135102258"><ele>1277.142857142857</ele><time>2026-04-25T09:46:05.001Z</time></trkpt><trkpt lat="38.06104214758694" lon="15.85234995942231"><ele>1279.5714285714287</ele><time>2026-04-25T09:46:06.001Z</time></trkpt><trkpt lat="38.06110446356835" lon="15.852293562956302"><ele>1282.0</ele><time>2026-04-25T09:46:07.001Z</time></trkpt><trkpt lat="38.06116600976165" lon="15.852248204714503"><ele>1282.0</ele><time>2026-04-25T09:46:08.001Z</time></trkpt><trkpt lat="38.06129105825202" lon="15.852237818335427"><ele>1282.0</ele><time>2026-04-25T09:46:10.002Z</time></trkpt><trkpt lat="38.061353288728775" lon="15.852204164450672"><ele>1282.0</ele><time>2026-04-25T09:46:12.002Z</time></trkpt><trkpt lat="38.06134920371212" lon="15.852098442640699"><ele>1282.0</ele><time>2026-04-25T09:46:14.002Z</time></trkpt><trkpt lat="38.06131504046019" lon="15.851996870149433"><ele>1282.0</ele><time>2026-04-25T09:46:16.002Z</time></trkpt><trkpt lat="38.061333386912004" lon="15.851841747822537"><ele>1284.1666666666665</ele><time>2026-04-25T09:46:18.002Z</time></trkpt><trkpt lat="38.06135854931132" lon="15.851766169759067"><ele>1286.3333333333333</ele><time>2026-04-25T09:46:19.002Z</time></trkpt><trkpt lat="38.06140180467658" lon="15.851692371880299"><ele>1288.5</ele><time>2026-04-25T09:46:20.002Z</time></trkpt><trkpt lat="38.06144661620894" lon="15.85162506555229"><ele>1290.6666666666667</ele><time>2026-04-25T09:46:21.002Z</time></trkpt><trkpt lat="38.061489221493666" lon="15.851532005774766"><ele>1292.8333333333335</ele><time>2026-04-25T09:46:23.002Z</time></trkpt><trkpt lat="38.06142995430742" lon="15.851448989150175"><ele>1295.0</ele><time>2026-04-25T09:46:25.002Z</time></trkpt><trkpt lat="38.06136085236354" lon="15.851477868500725"><ele>1295.0</ele><time>2026-04-25T09:46:27.002Z</time></trkpt><trkpt lat="38.06132342416204" lon="15.851588046930965"><ele>1295.0</ele><time>2026-04-25T09:46:29.002Z</time></trkpt><trkpt lat="38.06127608007745" lon="15.85168731577939"><ele>1295.0</ele><time>2026-04-25T09:46:31.002Z</time></trkpt><trkpt lat="38.06117182483932" lon="15.851732516783064"><ele>1295.0</ele><time>2026-04-25T09:46:33.002Z</time></trkpt><trkpt lat="38.06110860192547" lon="15.851749986258765"><ele>1295.0</ele><time>2026-04-25T09:46:34.002Z</time></trkpt><trkpt lat="38.06103492149073" lon="15.851769522911265"><ele>1295.0</ele><time>2026-04-25T09:46:35.002Z</time></trkpt><trkpt lat="38.06097193897737" lon="15.851773661354343"><ele>1295.0</ele><time>2026-04-25T09:46:36.002Z</time></trkpt><trkpt lat="38.06087055496488" lon="15.851724855822395"><ele>1295.0</ele><time>2026-04-25T09:46:38.002Z</time></trkpt><trkpt lat="38.06081458937812" lon="15.851672069541214"><ele>1295.0</ele><time>2026-04-25T09:46:39.002Z</time></trkpt><trkpt lat="38.060711976382045" lon="15.851586180618845"><ele>1295.0</ele><time>2026-04-25T09:46:41.002Z</time></trkpt><trkpt lat="38.06060997487732" lon="15.85158619726016"><ele>1295.0</ele><time>2026-04-25T09:46:43.002Z</time></trkpt><trkpt lat="38.060551287118564" lon="15.851630954144733"><ele>1294.857142857143</ele><time>2026-04-25T09:46:44.002Z</time></trkpt><trkpt lat="38.06049566644056" lon="15.851696962828093"><ele>1294.7142857142858</ele><time>2026-04-25T09:46:45Z</time></trkpt><trkpt lat="38.06044605631271" lon="15.851746950064715"><ele>1294.5714285714284</ele><time>2026-04-25T09:46:46Z</time></trkpt><trkpt lat="38.06036191828987" lon="15.85181039664679"><ele>1294.4285714285716</ele><time>2026-04-25T09:46:48Z</time></trkpt><trkpt lat="38.06030407750738" lon="15.851852815540603"><ele>1294.2857142857142</ele><time>2026-04-25T09:46:52Z</time></trkpt><trkpt lat="38.06034561019075" lon="15.851914708607875"><ele>1294.142857142857</ele><time>2026-04-25T09:47:06Z</time></trkpt><trkpt lat="38.060382745263716" lon="15.851837380366497"><ele>1294.0</ele><time>2026-04-25T09:47:08Z</time></trkpt><trkpt lat="38.060436264200064" lon="15.851754809062221"><ele>1294.0</ele><time>2026-04-25T09:47:10Z</time></trkpt><trkpt lat="38.0605252666737" lon="15.851652382497837"><ele>1294.0</ele><time>2026-04-25T09:47:12Z</time></trkpt><trkpt lat="38.06058596571294" lon="15.851602999534888"><ele>1294.0</ele><time>2026-04-25T09:47:13Z</time></trkpt><trkpt lat="38.060685308198586" lon="15.851564951127894"><ele>1294.0</ele><time>2026-04-25T09:47:15Z</time></trkpt><trkpt lat="38.06077945278832" lon="15.851627512334987"><ele>1294.0</ele><time>2026-04-25T09:47:17Z</time></trkpt><trkpt lat="38.06086904627254" lon="15.851716553458509"><ele>1294.1666666666665</ele><time>2026-04-25T09:47:19Z</time></trkpt><trkpt lat="38.060963608977595" lon="15.851770451319394"><ele>1294.3333333333333</ele><time>2026-04-25T09:47:21Z</time></trkpt><trkpt lat="38.06106489132653" lon="15.851759967933084"><ele>1294.5</ele><time>2026-04-25T09:47:23Z</time></trkpt><trkpt lat="38.06113177546154" lon="15.851736912408155"><ele>1294.6666666666667</ele><time>2026-04-25T09:47:24Z</time></trkpt><trkpt lat="38.06119383554524" lon="15.851715935769077"><ele>1294.8333333333335</ele><time>2026-04-25T09:47:25.001Z</time></trkpt><trkpt lat="38.06128510414583" lon="15.851659280229361"><ele>1295.0</ele><time>2026-04-25T09:47:27.001Z</time></trkpt><trkpt lat="38.06134276546278" lon="15.851570376890367"><ele>1295.0</ele><time>2026-04-25T09:47:29.001Z</time></trkpt><trkpt lat="38.06136245417931" lon="15.85145966775381"><ele>1295.0</ele><time>2026-04-25T09:47:31.001Z</time></trkpt><trkpt lat="38.06142567162092" lon="15.851430321977158"><ele>1295.0</ele><time>2026-04-25T09:47:33.001Z</time></trkpt><trkpt lat="38.06147631160999" lon="15.85150545665628"><ele>1295.0</ele><time>2026-04-25T09:47:35.001Z</time></trkpt><trkpt lat="38.06148130143867" lon="15.85160344790236"><ele>1295.0</ele><time>2026-04-25T09:47:37.001Z</time></trkpt><trkpt lat="38.0614109701109" lon="15.851697918623197"><ele>1295.0</ele><time>2026-04-25T09:47:39.001Z</time></trkpt><trkpt lat="38.061343794775375" lon="15.851821164529515"><ele>1292.4</ele><time>2026-04-25T09:47:41.001Z</time></trkpt><trkpt lat="38.061316640064206" lon="15.851958760826781"><ele>1289.8</ele><time>2026-04-25T09:47:43.001Z</time></trkpt><trkpt lat="38.061328169993146" lon="15.85209409835409"><ele>1287.1999999999998</ele><time>2026-04-25T09:47:45.001Z</time></trkpt><trkpt lat="38.06134996961468" lon="15.852190398650752"><ele>1284.6</ele><time>2026-04-25T09:47:47.001Z</time></trkpt><trkpt lat="38.06128918992891" lon="15.852260337365294"><ele>1282.0</ele><time>2026-04-25T09:47:50.001Z</time></trkpt><trkpt lat="38.061187455568536" lon="15.85224135352558"><ele>1282.0</ele><time>2026-04-25T09:47:52.001Z</time></trkpt><trkpt lat="38.06118560914379" lon="15.852335119071334"><ele>1282.0</ele><time>2026-04-25T09:47:57.001Z</time></trkpt><trkpt lat="38.061267491561665" lon="15.85238057711443"><ele>1282.0</ele><time>2026-04-25T09:47:59.001Z</time></trkpt><trkpt lat="38.0613572441402" lon="15.852475432916286"><ele>1282.0</ele><time>2026-04-25T09:48:01.001Z</time></trkpt><trkpt lat="38.0614168188891" lon="15.852530209926492"><ele>1282.0</ele><time>2026-04-25T09:48:02.001Z</time></trkpt><trkpt lat="38.061479249353894" lon="15.852576112219634"><ele>1282.0</ele><time>2026-04-25T09:48:03.001Z</time></trkpt><trkpt lat="38.06154598540547" lon="15.85260719660719"><ele>1280.0</ele><time>2026-04-25T09:48:04.001Z</time></trkpt><trkpt lat="38.06161790094671" lon="15.852625241705592"><ele>1278.0</ele><time>2026-04-25T09:48:05.001Z</time></trkpt><trkpt lat="38.06169007746096" lon="15.85264279959627"><ele>1276.0</ele><time>2026-04-25T09:48:06.001Z</time></trkpt><trkpt lat="38.06175714741658" lon="15.852653860919052"><ele>1274.0</ele><time>2026-04-25T09:48:07.001Z</time></trkpt><trkpt lat="38.06187203088862" lon="15.852633298612465"><ele>1272.0</ele><time>2026-04-25T09:48:09.001Z</time></trkpt><trkpt lat="38.06193329398192" lon="15.852577976544138"><ele>1270.0</ele><time>2026-04-25T09:48:10.001Z</time></trkpt><trkpt lat="38.06198386135005" lon="15.852504476771285"><ele>1270.0</ele><time>2026-04-25T09:48:11.001Z</time></trkpt><trkpt lat="38.062033844836705" lon="15.852419835581335"><ele>1270.0</ele><time>2026-04-25T09:48:12.001Z</time></trkpt><trkpt lat="38.06207261743012" lon="15.852342338446254"><ele>1270.0</ele><time>2026-04-25T09:48:13.001Z</time></trkpt><trkpt lat="38.06211358687635" lon="15.85220951347103"><ele>1270.0</ele><time>2026-04-25T09:48:15.001Z</time></trkpt><trkpt lat="38.062070246445366" lon="15.852058063628382"><ele>1270.0</ele><time>2026-04-25T09:48:17.001Z</time></trkpt><trkpt lat="38.062014211423325" lon="15.851925229142473"><ele>1270.0</ele><time>2026-04-25T09:48:19.001Z</time></trkpt><trkpt lat="38.06201621327944" lon="15.851804389325714"><ele>1270.0</ele><time>2026-04-25T09:48:21.001Z</time></trkpt><trkpt lat="38.06209122449829" lon="15.85170933636643"><ele>1270.0</ele><time>2026-04-25T09:48:23.001Z</time></trkpt><trkpt lat="38.06221090183992" lon="15.851656569766734"><ele>1270.0</ele><time>2026-04-25T09:48:25.001Z</time></trkpt><trkpt lat="38.06228131312054" lon="15.851654661605277"><ele>1270.0</ele><time>2026-04-25T09:48:26.001Z</time></trkpt><trkpt lat="38.062345649774805" lon="15.851651637060757"><ele>1270.9999999999998</ele><time>2026-04-25T09:48:27.002Z</time></trkpt><trkpt lat="38.062417183508636" lon="15.851653190223859"><ele>1272.0</ele><time>2026-04-25T09:48:28.002Z</time></trkpt><trkpt lat="38.06248088843538" lon="15.851632872379023"><ele>1273.0</ele><time>2026-04-25T09:48:29.002Z</time></trkpt><trkpt lat="38.06254732977194" lon="15.85159118757442"><ele>1274.0</ele><time>2026-04-25T09:48:30.002Z</time></trkpt><trkpt lat="38.06261524200331" lon="15.85153418997235"><ele>1275.0</ele><time>2026-04-25T09:48:31.002Z</time></trkpt><trkpt lat="38.062682434463085" lon="15.85148309259702"><ele>1275.9999999999998</ele><time>2026-04-25T09:48:32.002Z</time></trkpt><trkpt lat="38.062749486979655" lon="15.85144360304415"><ele>1277.0</ele><time>2026-04-25T09:48:33.002Z</time></trkpt><trkpt lat="38.062818514450896" lon="15.85142783893814"><ele>1273.8</ele><time>2026-04-25T09:48:34.002Z</time></trkpt><trkpt lat="38.062886475592975" lon="15.851431702453306"><ele>1270.6</ele><time>2026-04-25T09:48:35.002Z</time></trkpt><trkpt lat="38.062998345594885" lon="15.851442039383933"><ele>1267.3999999999999</ele><time>2026-04-25T09:48:37.002Z</time></trkpt><trkpt lat="38.06308208997291" lon="15.851384573177054"><ele>1264.2</ele><time>2026-04-25T09:48:39.002Z</time></trkpt><trkpt lat="38.0631670845422" lon="15.851304036250381"><ele>1261.0</ele><time>2026-04-25T09:48:41.002Z</time></trkpt><trkpt lat="38.063269156750636" lon="15.851213898395983"><ele>1259.142857142857</ele><time>2026-04-25T09:48:43.002Z</time></trkpt><trkpt lat="38.06332163101343" lon="15.851161967547682"><ele>1257.2857142857142</ele><time>2026-04-25T09:48:44.002Z</time></trkpt><trkpt lat="38.06337287840195" lon="15.851111964923064"><ele>1255.4285714285716</ele><time>2026-04-25T09:48:45.002Z</time></trkpt><trkpt lat="38.063435250855456" lon="15.851058249419758"><ele>1253.5714285714284</ele><time>2026-04-25T09:48:46.002Z</time></trkpt><trkpt lat="38.06350346703508" lon="15.851015293769693"><ele>1251.7142857142856</ele><time>2026-04-25T09:48:47.002Z</time></trkpt><trkpt lat="38.06357036350456" lon="15.850982399981056"><ele>1249.857142857143</ele><time>2026-04-25T09:48:48.002Z</time></trkpt><trkpt lat="38.06363845602972" lon="15.85094771532254"><ele>1248.0</ele><time>2026-04-25T09:48:49.002Z</time></trkpt><trkpt lat="38.06369835243894" lon="15.850905117181787"><ele>1248.0</ele><time>2026-04-25T09:48:50.002Z</time></trkpt><trkpt lat="38.063790807261" lon="15.85081578053377"><ele>1248.0</ele><time>2026-04-25T09:48:51.999Z</time></trkpt><trkpt lat="38.06389346950854" lon="15.850744416059372"><ele>1248.0</ele><time>2026-04-25T09:48:53.999Z</time></trkpt><trkpt lat="38.064003348253216" lon="15.850684603719822"><ele>1248.0</ele><time>2026-04-25T09:48:55.999Z</time></trkpt><trkpt lat="38.064118361775186" lon="15.85066605884987"><ele>1249.1666666666667</ele><time>2026-04-25T09:48:57.999Z</time></trkpt><trkpt lat="38.06419675164758" lon="15.850692882817729"><ele>1250.3333333333333</ele><time>2026-04-25T09:48:59.999Z</time></trkpt><trkpt lat="38.064257529260146" lon="15.85075411694166"><ele>1251.5</ele><time>2026-04-25T09:49:01.999Z</time></trkpt><trkpt lat="38.06433560908792" lon="15.850783104639376"><ele>1252.6666666666665</ele><time>2026-04-25T09:49:03.999Z</time></trkpt><trkpt lat="38.06442261814835" lon="15.850701470562765"><ele>1253.8333333333333</ele><time>2026-04-25T09:49:06Z</time></trkpt><trkpt lat="38.06446978665986" lon="15.850645905022956"><ele>1255.0</ele><time>2026-04-25T09:49:07Z</time></trkpt><trkpt lat="38.06457641390457" lon="15.850569035267371"><ele>1255.0</ele><time>2026-04-25T09:49:09Z</time></trkpt><trkpt lat="38.064637861578554" lon="15.850541830341001"><ele>1255.0</ele><time>2026-04-25T09:49:10Z</time></trkpt><trkpt lat="38.06470329679495" lon="15.850522650428356"><ele>1255.0</ele><time>2026-04-25T09:49:11Z</time></trkpt><trkpt lat="38.06476789539467" lon="15.850515091209312"><ele>1255.0</ele><time>2026-04-25T09:49:12Z</time></trkpt><trkpt lat="38.06483198109356" lon="15.85050280279765"><ele>1255.0</ele><time>2026-04-25T09:49:13Z</time></trkpt><trkpt lat="38.064941207566655" lon="15.850466311997387"><ele>1255.0</ele><time>2026-04-25T09:49:15Z</time></trkpt><trkpt lat="38.06501757861653" lon="15.8503720324429"><ele>1254.3333333333333</ele><time>2026-04-25T09:49:17Z</time></trkpt><trkpt lat="38.065052188948016" lon="15.85029865170687"><ele>1253.6666666666665</ele><time>2026-04-25T09:49:18Z</time></trkpt><trkpt lat="38.06508800887714" lon="15.85022010947191"><ele>1253.0</ele><time>2026-04-25T09:49:19Z</time></trkpt><trkpt lat="38.06512969193841" lon="15.850138197195905"><ele>1252.3333333333333</ele><time>2026-04-25T09:49:20Z</time></trkpt><trkpt lat="38.065163241410794" lon="15.850065674835372"><ele>1251.6666666666667</ele><time>2026-04-25T09:49:21Z</time></trkpt><trkpt lat="38.06519130861496" lon="15.849989043932863"><ele>1251.0</ele><time>2026-04-25T09:49:22Z</time></trkpt><trkpt lat="38.065231820422525" lon="15.849833102526844"><ele>1254.0</ele><time>2026-04-25T09:49:24Z</time></trkpt><trkpt lat="38.06525018685872" lon="15.849742134394772"><ele>1257.0</ele><time>2026-04-25T09:49:25Z</time></trkpt><trkpt lat="38.065271445635396" lon="15.849647919180319"><ele>1260.0</ele><time>2026-04-25T09:49:26Z</time></trkpt><trkpt lat="38.06528957121552" lon="15.849552967932294"><ele>1263.0</ele><time>2026-04-25T09:49:27Z</time></trkpt><trkpt lat="38.06530838340821" lon="15.849457106308376"><ele>1266.0</ele><time>2026-04-25T09:49:28Z</time></trkpt><trkpt lat="38.06532977947312" lon="15.849368137901244"><ele>1269.0</ele><time>2026-04-25T09:49:29Z</time></trkpt><trkpt lat="38.06538459798058" lon="15.849246936035158"><ele>1269.0</ele><time>2026-04-25T09:49:31Z</time></trkpt><trkpt lat="38.06543296898862" lon="15.84918471525362"><ele>1269.0</ele><time>2026-04-25T09:49:32Z</time></trkpt><trkpt lat="38.065484614851144" lon="15.849119206971364"><ele>1269.0</ele><time>2026-04-25T09:49:33Z</time></trkpt><trkpt lat="38.06553920408201" lon="15.849062823493282"><ele>1269.0</ele><time>2026-04-25T09:49:34Z</time></trkpt><trkpt lat="38.065595946028175" lon="15.849000009876608"><ele>1269.0</ele><time>2026-04-25T09:49:35Z</time></trkpt><trkpt lat="38.06565275383374" lon="15.848938716343913"><ele>1269.0</ele><time>2026-04-25T09:49:36Z</time></trkpt><trkpt lat="38.06576396265425" lon="15.84887528298022"><ele>1270.6666666666667</ele><time>2026-04-25T09:49:38Z</time></trkpt><trkpt lat="38.06583128505865" lon="15.84886909816295"><ele>1272.3333333333333</ele><time>2026-04-25T09:49:39Z</time></trkpt><trkpt lat="38.06589836757144" lon="15.848872947866345"><ele>1274.0</ele><time>2026-04-25T09:49:40Z</time></trkpt><trkpt lat="38.06596582410384" lon="15.848866766539862"><ele>1275.6666666666665</ele><time>2026-04-25T09:49:41Z</time></trkpt><trkpt lat="38.066057281453276" lon="15.848791786697754"><ele>1277.3333333333333</ele><time>2026-04-25T09:49:43Z</time></trkpt><trkpt lat="38.06609299776995" lon="15.848717490348287"><ele>1279.0</ele><time>2026-04-25T09:49:44Z</time></trkpt><trkpt lat="38.06612187750845" lon="15.848573717390876"><ele>1280.8333333333333</ele><time>2026-04-25T09:49:46Z</time></trkpt><trkpt lat="38.066150663152136" lon="15.848410727442543"><ele>1282.6666666666665</ele><time>2026-04-25T09:49:48Z</time></trkpt><trkpt lat="38.06618456663782" lon="15.848322244916876"><ele>1284.5</ele><time>2026-04-25T09:49:49Z</time></trkpt><trkpt lat="38.06622134203989" lon="15.8482562323012"><ele>1286.3333333333333</ele><time>2026-04-25T09:49:50Z</time></trkpt><trkpt lat="38.06626910886236" lon="15.848173583977111"><ele>1288.1666666666667</ele><time>2026-04-25T09:49:51Z</time></trkpt><trkpt lat="38.06632522192324" lon="15.848098184149826"><ele>1290.0</ele><time>2026-04-25T09:49:52Z</time></trkpt><trkpt lat="38.066380816299194" lon="15.848013312344536"><ele>1290.0</ele><time>2026-04-25T09:49:53.001Z</time></trkpt><trkpt lat="38.06644390192935" lon="15.847930918917982"><ele>1290.0</ele><time>2026-04-25T09:49:54.001Z</time></trkpt><trkpt lat="38.06649441162396" lon="15.847862079362823"><ele>1290.0</ele><time>2026-04-25T09:49:55.001Z</time></trkpt><trkpt lat="38.066592266830455" lon="15.847798509500276"><ele>1290.0</ele><time>2026-04-25T09:49:57.001Z</time></trkpt><trkpt lat="38.06668847879956" lon="15.847834589102002"><ele>1290.0</ele><time>2026-04-25T09:49:59.001Z</time></trkpt><trkpt lat="38.06672809257407" lon="15.847899621104323"><ele>1290.0</ele><time>2026-04-25T09:50:00.001Z</time></trkpt><trkpt lat="38.066773596791236" lon="15.847968253896559"><ele>1290.0</ele><time>2026-04-25T09:50:01.001Z</time></trkpt><trkpt lat="38.06686005801465" lon="15.848061467173963"><ele>1290.0</ele><time>2026-04-25T09:50:03.001Z</time></trkpt><trkpt lat="38.06691222441596" lon="15.848116086099257"><ele>1290.0</ele><time>2026-04-25T09:50:04.001Z</time></trkpt><trkpt lat="38.06696503748692" lon="15.84816653036643"><ele>1290.0</ele><time>2026-04-25T09:50:05.001Z</time></trkpt><trkpt lat="38.06700515534409" lon="15.84823266582322"><ele>1290.0</ele><time>2026-04-25T09:50:06.001Z</time></trkpt><trkpt lat="38.06705826358126" lon="15.84834065134354"><ele>1290.0</ele><time>2026-04-25T09:50:08.001Z</time></trkpt><trkpt lat="38.06709958783499" lon="15.848403196376557"><ele>1290.2</ele><time>2026-04-25T09:50:09.001Z</time></trkpt><trkpt lat="38.067217196114385" lon="15.848473652928554"><ele>1290.4</ele><time>2026-04-25T09:50:11.001Z</time></trkpt><trkpt lat="38.06728718642916" lon="15.848489494794388"><ele>1290.6</ele><time>2026-04-25T09:50:12.001Z</time></trkpt><trkpt lat="38.06735839967923" lon="15.84850767126839"><ele>1290.8</ele><time>2026-04-25T09:50:13.001Z</time></trkpt><trkpt lat="38.067426229438965" lon="15.848527434109089"><ele>1291.0</ele><time>2026-04-25T09:50:14.001Z</time></trkpt><trkpt lat="38.06753144036274" lon="15.848601539153762"><ele>1290.9999999999998</ele><time>2026-04-25T09:50:16.001Z</time></trkpt><trkpt lat="38.067587249315324" lon="15.848663691742892"><ele>1291.0</ele><time>2026-04-25T09:50:17.001Z</time></trkpt><trkpt lat="38.06763156011122" lon="15.84873654769702"><ele>1291.0</ele><time>2026-04-25T09:50:18.001Z</time></trkpt><trkpt lat="38.0676781358906" lon="15.848808723024437"><ele>1291.0</ele><time>2026-04-25T09:50:19.001Z</time></trkpt><trkpt lat="38.067727413275044" lon="15.848879925025562"><ele>1291.0</ele><time>2026-04-25T09:50:20.001Z</time></trkpt><trkpt lat="38.06777666627466" lon="15.848950158922257"><ele>1290.9999999999998</ele><time>2026-04-25T09:50:21.001Z</time></trkpt><trkpt lat="38.06782329363721" lon="15.849006568099439"><ele>1291.0</ele><time>2026-04-25T09:50:22.001Z</time></trkpt><trkpt lat="38.06787821308783" lon="15.849131515513745"><ele>1291.0</ele><time>2026-04-25T09:50:24.001Z</time></trkpt><trkpt lat="38.067910842419884" lon="15.84921412613297"><ele>1291.0</ele><time>2026-04-25T09:50:25.001Z</time></trkpt><trkpt lat="38.067947080518984" lon="15.849280710033526"><ele>1291.0</ele><time>2026-04-25T09:50:26.001Z</time></trkpt><trkpt lat="38.068046190130005" lon="15.849354865479862"><ele>1291.0</ele><time>2026-04-25T09:50:28.001Z</time></trkpt><trkpt lat="38.06812443340083" lon="15.849371000763451"><ele>1291.0</ele><time>2026-04-25T09:50:30.001Z</time></trkpt><trkpt lat="38.06819532632308" lon="15.849392488901861"><ele>1291.0</ele><time>2026-04-25T09:50:32.001Z</time></trkpt><trkpt lat="38.06822723205414" lon="15.849480296110416"><ele>1291.6</ele><time>2026-04-25T09:50:34.001Z</time></trkpt><trkpt lat="38.06822688260767" lon="15.84959403699716"><ele>1292.1999999999998</ele><time>2026-04-25T09:50:36.001Z</time></trkpt><trkpt lat="38.068248087151055" lon="15.84974303440167"><ele>1292.8000000000002</ele><time>2026-04-25T09:50:38.001Z</time></trkpt><trkpt lat="38.06825819377946" lon="15.849822860027608"><ele>1293.4</ele><time>2026-04-25T09:50:39.001Z</time></trkpt><trkpt lat="38.06830695957489" lon="15.8499187908294"><ele>1294.0</ele><time>2026-04-25T09:50:41.001Z</time></trkpt><trkpt lat="38.06840486425328" lon="15.849948248823047"><ele>1294.8000000000002</ele><time>2026-04-25T09:50:43.001Z</time></trkpt><trkpt lat="38.06850083762268" lon="15.849956113213713"><ele>1295.6000000000001</ele><time>2026-04-25T09:50:45.001Z</time></trkpt><trkpt lat="38.0685687808268" lon="15.85003774676183"><ele>1296.4</ele><time>2026-04-25T09:50:47.001Z</time></trkpt><trkpt lat="38.068602176281914" lon="15.85014090808582"><ele>1297.2</ele><time>2026-04-25T09:50:49.002Z</time></trkpt><trkpt lat="38.06865384363312" lon="15.85024816080242"><ele>1298.0</ele><time>2026-04-25T09:50:51.002Z</time></trkpt><trkpt lat="38.06874889393032" lon="15.850289828969522"><ele>1298.0</ele><time>2026-04-25T09:50:53.002Z</time></trkpt><trkpt lat="38.068852275688805" lon="15.850324768171307"><ele>1298.0</ele><time>2026-04-25T09:50:55.002Z</time></trkpt><trkpt lat="38.068945874905104" lon="15.850346904160487"><ele>1298.0</ele><time>2026-04-25T09:50:56.999Z</time></trkpt><trkpt lat="38.06904287509958" lon="15.850377777528253"><ele>1298.0</ele><time>2026-04-25T09:50:58.999Z</time></trkpt><trkpt lat="38.069161964658655" lon="15.850366957090733"><ele>1298.0</ele><time>2026-04-25T09:51:00.999Z</time></trkpt><trkpt lat="38.06923467493002" lon="15.850314135112779"><ele>1299.0</ele><time>2026-04-25T09:51:01.999Z</time></trkpt><trkpt lat="38.06931040195455" lon="15.850264237138234"><ele>1300.0</ele><time>2026-04-25T09:51:02.999Z</time></trkpt><trkpt lat="38.06935859581819" lon="15.850201968961345"><ele>1301.0</ele><time>2026-04-25T09:51:03.999Z</time></trkpt><trkpt lat="38.06940436434746" lon="15.850145613834917"><ele>1302.0</ele><time>2026-04-25T09:51:04.999Z</time></trkpt><trkpt lat="38.06948238157534" lon="15.850140881629809"><ele>1303.0</ele><time>2026-04-25T09:51:06.999Z</time></trkpt><trkpt lat="38.069547723382065" lon="15.850224949022962"><ele>1304.0</ele><time>2026-04-25T09:51:08.999Z</time></trkpt><trkpt lat="38.06957115228578" lon="15.850324058178677"><ele>1304.0</ele><time>2026-04-25T09:51:09.999Z</time></trkpt><trkpt lat="38.06958127163554" lon="15.85040737422941"><ele>1304.0</ele><time>2026-04-25T09:51:10.999Z</time></trkpt><trkpt lat="38.069653086510264" lon="15.850525930234603"><ele>1304.0</ele><time>2026-04-25T09:51:13.999Z</time></trkpt><trkpt lat="38.069727925243264" lon="15.850538561891264"><ele>1304.0</ele><time>2026-04-25T09:51:14.999Z</time></trkpt><trkpt lat="38.069791462967046" lon="15.85052897321736"><ele>1304.0</ele><time>2026-04-25T09:51:16Z</time></trkpt><trkpt lat="38.06986364882297" lon="15.85048577956021"><ele>1304.0</ele><time>2026-04-25T09:51:17Z</time></trkpt><trkpt lat="38.06996571029977" lon="15.850413183861344"><ele>1303.6666666666667</ele><time>2026-04-25T09:51:19Z</time></trkpt><trkpt lat="38.07003185225565" lon="15.850370307718157"><ele>1303.3333333333335</ele><time>2026-04-25T09:51:20Z</time></trkpt><trkpt lat="38.07010310528731" lon="15.850300288415834"><ele>1303.0</ele><time>2026-04-25T09:51:21Z</time></trkpt><trkpt lat="38.07017117936165" lon="15.850241241853395"><ele>1302.6666666666667</ele><time>2026-04-25T09:51:23Z</time></trkpt><trkpt lat="38.07024304519228" lon="15.85014404999867"><ele>1302.3333333333333</ele><time>2026-04-25T09:51:25Z</time></trkpt><trkpt lat="38.070317361261736" lon="15.850080866526753"><ele>1302.0</ele><time>2026-04-25T09:51:27Z</time></trkpt><trkpt lat="38.07041410581643" lon="15.85007612406977"><ele>1302.0</ele><time>2026-04-25T09:51:29Z</time></trkpt><trkpt lat="38.07048826137897" lon="15.85010629921058"><ele>1302.0</ele><time>2026-04-25T09:51:30Z</time></trkpt><trkpt lat="38.07059164934152" lon="15.850137731676995"><ele>1302.0</ele><time>2026-04-25T09:51:32Z</time></trkpt><trkpt lat="38.07062821998296" lon="15.850240671135"><ele>1302.0</ele><time>2026-04-25T09:51:34Z</time></trkpt><trkpt lat="38.07064897556172" lon="15.850361306137888"><ele>1302.0</ele><time>2026-04-25T09:51:36Z</time></trkpt><trkpt lat="38.07067545961812" lon="15.85052967453278"><ele>1302.0</ele><time>2026-04-25T09:51:38Z</time></trkpt><trkpt lat="38.07071527871774" lon="15.850623866168718"><ele>1302.0</ele><time>2026-04-25T09:51:39Z</time></trkpt><trkpt lat="38.07076511338332" lon="15.850720397568601"><ele>1302.0</ele><time>2026-04-25T09:51:40Z</time></trkpt><trkpt lat="38.07081683556641" lon="15.850850407756909"><ele>1302.0</ele><time>2026-04-25T09:51:42Z</time></trkpt><trkpt lat="38.07084139267495" lon="15.850939934008464"><ele>1302.0</ele><time>2026-04-25T09:51:43Z</time></trkpt><trkpt lat="38.070900316037765" lon="15.851006938299633"><ele>1302.0</ele><time>2026-04-25T09:51:44Z</time></trkpt><trkpt lat="38.07092090224076" lon="15.851127324419497"><ele>1302.5</ele><time>2026-04-25T09:51:45Z</time></trkpt><trkpt lat="38.07093866633217" lon="15.85121415334755"><ele>1303.0</ele><time>2026-04-25T09:51:46Z</time></trkpt><trkpt lat="38.07096936640077" lon="15.8513122875123"><ele>1303.5</ele><time>2026-04-25T09:51:47Z</time></trkpt><trkpt lat="38.07099148381142" lon="15.85141961398375"><ele>1304.0</ele><time>2026-04-25T09:51:48Z</time></trkpt><trkpt lat="38.07100446984281" lon="15.85150919450693"><ele>1304.5</ele><time>2026-04-25T09:51:49Z</time></trkpt><trkpt lat="38.07100497600143" lon="15.8515957512846"><ele>1305.0</ele><time>2026-04-25T09:51:51Z</time></trkpt><trkpt lat="38.071073681966496" lon="15.851706430182011"><ele>1304.5</ele><time>2026-04-25T09:51:52.001Z</time></trkpt><trkpt lat="38.07110149774792" lon="15.851796921391204"><ele>1304.0</ele><time>2026-04-25T09:51:53.001Z</time></trkpt><trkpt lat="38.0711472443014" lon="15.851890841737323"><ele>1303.5</ele><time>2026-04-25T09:51:54.001Z</time></trkpt><trkpt lat="38.07117193472683" lon="15.851969077458111"><ele>1303.0</ele><time>2026-04-25T09:51:55.001Z</time></trkpt><trkpt lat="38.07121226057731" lon="15.85204602985308"><ele>1302.5</ele><time>2026-04-25T09:51:56.001Z</time></trkpt><trkpt lat="38.071292167049975" lon="15.852148418835759"><ele>1302.0</ele><time>2026-04-25T09:51:58.001Z</time></trkpt><trkpt lat="38.07135335695326" lon="15.852238360455592"><ele>1302.0</ele><time>2026-04-25T09:51:59.001Z</time></trkpt><trkpt lat="38.07140654344695" lon="15.852290744852224"><ele>1302.0</ele><time>2026-04-25T09:52:00.001Z</time></trkpt><trkpt lat="38.07153491691475" lon="15.852355306057069"><ele>1302.0</ele><time>2026-04-25T09:52:02.001Z</time></trkpt><trkpt lat="38.07160351936967" lon="15.852381707227607"><ele>1302.0</ele><time>2026-04-25T09:52:03.001Z</time></trkpt><trkpt lat="38.07168165368899" lon="15.852440484893172"><ele>1302.0</ele><time>2026-04-25T09:52:05.001Z</time></trkpt><trkpt lat="38.07173574373873" lon="15.852566787443763"><ele>1300.8333333333333</ele><time>2026-04-25T09:52:07.001Z</time></trkpt><trkpt lat="38.07175631593401" lon="15.852665774605926"><ele>1299.6666666666667</ele><time>2026-04-25T09:52:08.001Z</time></trkpt><trkpt lat="38.0717823040334" lon="15.852742123218038"><ele>1298.5</ele><time>2026-04-25T09:52:09.001Z</time></trkpt><trkpt lat="38.07181140015753" lon="15.852820299107574"><ele>1297.3333333333335</ele><time>2026-04-25T09:52:10.001Z</time></trkpt><trkpt lat="38.07185448237885" lon="15.852885478642277"><ele>1296.1666666666667</ele><time>2026-04-25T09:52:11.001Z</time></trkpt><trkpt lat="38.071931893920485" lon="15.852992993310778"><ele>1295.0</ele><time>2026-04-25T09:52:13.001Z</time></trkpt><trkpt lat="38.071999612219074" lon="15.853023068182903"><ele>1295.0</ele><time>2026-04-25T09:52:14.001Z</time></trkpt><trkpt lat="38.0720628016071" lon="15.853077124443576"><ele>1295.0</ele><time>2026-04-25T09:52:15.001Z</time></trkpt><trkpt lat="38.07212285501288" lon="15.85310581891916"><ele>1295.0</ele><time>2026-04-25T09:52:16.001Z</time></trkpt><trkpt lat="38.072243045992444" lon="15.853166814101913"><ele>1295.0</ele><time>2026-04-25T09:52:18.001Z</time></trkpt><trkpt lat="38.07232100356066" lon="15.853196643348731"><ele>1295.0</ele><time>2026-04-25T09:52:19.001Z</time></trkpt><trkpt lat="38.07238222307201" lon="15.85322195174566"><ele>1295.0</ele><time>2026-04-25T09:52:20.001Z</time></trkpt><trkpt lat="38.07244664427565" lon="15.853265135717105"><ele>1294.6</ele><time>2026-04-25T09:52:21.001Z</time></trkpt><trkpt lat="38.07258592561815" lon="15.85334881868293"><ele>1294.2</ele><time>2026-04-25T09:52:23.001Z</time></trkpt><trkpt lat="38.07266108718495" lon="15.853388472438551"><ele>1293.8000000000002</ele><time>2026-04-25T09:52:24.001Z</time></trkpt><trkpt lat="38.072732796522736" lon="15.853463906612907"><ele>1293.4</ele><time>2026-04-25T09:52:25.001Z</time></trkpt><trkpt lat="38.07280020413479" lon="15.853527154679798"><ele>1293.0</ele><time>2026-04-25T09:52:26.001Z</time></trkpt><trkpt lat="38.072864826737806" lon="15.853592462875984"><ele>1293.0</ele><time>2026-04-25T09:52:27.001Z</time></trkpt><trkpt lat="38.0729215769157" lon="15.853658256062232"><ele>1293.0</ele><time>2026-04-25T09:52:28.001Z</time></trkpt><trkpt lat="38.07297150720269" lon="15.853714083633777"><ele>1293.0</ele><time>2026-04-25T09:52:29.001Z</time></trkpt><trkpt lat="38.07300455856172" lon="15.853864531342637"><ele>1293.0</ele><time>2026-04-25T09:52:31.001Z</time></trkpt><trkpt lat="38.07299635512977" lon="15.853963425406077"><ele>1293.0</ele><time>2026-04-25T09:52:32.001Z</time></trkpt><trkpt lat="38.072972658263765" lon="15.854059257708727"><ele>1293.0</ele><time>2026-04-25T09:52:33.001Z</time></trkpt><trkpt lat="38.072950731341315" lon="15.854139279840975"><ele>1293.0</ele><time>2026-04-25T09:52:34.001Z</time></trkpt><trkpt lat="38.07291914310432" lon="15.854212297087752"><ele>1293.0</ele><time>2026-04-25T09:52:35.001Z</time></trkpt><trkpt lat="38.07283954502227" lon="15.854326930198539"><ele>1293.0</ele><time>2026-04-25T09:52:37.001Z</time></trkpt><trkpt lat="38.0727928393718" lon="15.854400758537738"><ele>1293.0</ele><time>2026-04-25T09:52:38.001Z</time></trkpt><trkpt lat="38.072748547313196" lon="15.854479681178226"><ele>1293.0</ele><time>2026-04-25T09:52:39.001Z</time></trkpt><trkpt lat="38.07268587605081" lon="15.854595581175948"><ele>1293.0</ele><time>2026-04-25T09:52:41.002Z</time></trkpt><trkpt lat="38.0726116534954" lon="15.85466531409498"><ele>1292.6666666666667</ele><time>2026-04-25T09:52:43.002Z</time></trkpt><trkpt lat="38.07255290386856" lon="15.854709954954515"><ele>1292.3333333333333</ele><time>2026-04-25T09:52:44.002Z</time></trkpt><trkpt lat="38.072477042615255" lon="15.854718998409403"><ele>1292.0</ele><time>2026-04-25T09:52:45.002Z</time></trkpt><trkpt lat="38.07240330786897" lon="15.854805712879863"><ele>1291.6666666666665</ele><time>2026-04-25T09:52:47.002Z</time></trkpt><trkpt lat="38.07243504748152" lon="15.854927147075665"><ele>1291.3333333333333</ele><time>2026-04-25T09:52:49.002Z</time></trkpt><trkpt lat="38.072477767674904" lon="15.854998862360114"><ele>1291.0</ele><time>2026-04-25T09:52:50.002Z</time></trkpt><trkpt lat="38.07251909527096" lon="15.855143104737627"><ele>1291.0</ele><time>2026-04-25T09:52:52.002Z</time></trkpt><trkpt lat="38.07252564096388" lon="15.855229792626227"><ele>1291.0</ele><time>2026-04-25T09:52:53.002Z</time></trkpt><trkpt lat="38.072529751638875" lon="15.855318144803118"><ele>1291.0</ele><time>2026-04-25T09:52:54.002Z</time></trkpt><trkpt lat="38.072543305501995" lon="15.855404228994315"><ele>1291.0</ele><time>2026-04-25T09:52:55.002Z</time></trkpt><trkpt lat="38.07254089302011" lon="15.855493609064625"><ele>1291.0</ele><time>2026-04-25T09:52:56.002Z</time></trkpt><trkpt lat="38.07255278927235" lon="15.855636589477626"><ele>1291.0</ele><time>2026-04-25T09:52:58.002Z</time></trkpt><trkpt lat="38.072587258003445" lon="15.855757092218663"><ele>1291.0</ele><time>2026-04-25T09:53:01.002Z</time></trkpt><trkpt lat="38.07266016994945" lon="15.855776042238109"><ele>1291.0</ele><time>2026-04-25T09:53:02.999Z</time></trkpt><trkpt lat="38.07276798120374" lon="15.855725263510752"><ele>1291.0</ele><time>2026-04-25T09:53:04.999Z</time></trkpt><trkpt lat="38.07289447309831" lon="15.85572247778438"><ele>1291.0</ele><time>2026-04-25T09:53:06.999Z</time></trkpt><trkpt lat="38.07295690089942" lon="15.85569802382403"><ele>1291.0</ele><time>2026-04-25T09:53:07.999Z</time></trkpt><trkpt lat="38.07303497368167" lon="15.855595707934736"><ele>1291.0</ele><time>2026-04-25T09:53:09.999Z</time></trkpt><trkpt lat="38.07311636990152" lon="15.855515543555718"><ele>1291.0</ele><time>2026-04-25T09:53:11.999Z</time></trkpt><trkpt lat="38.073183051667264" lon="15.855556052967813"><ele>1291.0</ele><time>2026-04-25T09:53:13.999Z</time></trkpt><trkpt lat="38.0731471076068" lon="15.855650175320987"><ele>1291.0</ele><time>2026-04-25T09:53:24Z</time></trkpt><trkpt lat="38.07311765476154" lon="15.855783043790199"><ele>1291.0</ele><time>2026-04-25T09:53:26Z</time></trkpt><trkpt lat="38.073093460470375" lon="15.855912082911885"><ele>1287.6666666666665</ele><time>2026-04-25T09:53:28Z</time></trkpt><trkpt lat="38.07309116424861" lon="15.855992769600684"><ele>1284.3333333333333</ele><time>2026-04-25T09:53:29Z</time></trkpt><trkpt lat="38.07307092711049" lon="15.856126688163286"><ele>1281.0</ele><time>2026-04-25T09:53:31Z</time></trkpt><trkpt lat="38.051256367269744" lon="15.85254433763116"><ele>1256.6</ele><time>2026-04-25T09:37:34.001Z</time></trkpt><trkpt lat="38.051363250372034" lon="15.852546854461343"><ele>1232.1999999999998</ele><time>2026-04-25T09:37:35.001Z</time></trkpt><trkpt lat="38.051466463350174" lon="15.852545714372129"><ele>1207.8000000000002</ele><time>2026-04-25T09:37:36.001Z</time></trkpt><trkpt lat="38.051569109268556" lon="15.852543729960633"><ele>1183.4</ele><time>2026-04-25T09:37:37.001Z</time></trkpt><trkpt lat="38.051670363012995" lon="15.852553690288234"><ele>1159.0</ele><time>2026-04-25T09:37:38.001Z</time></trkpt><trkpt lat="38.051771087007054" lon="15.852529014027468"><ele>1159.0</ele><time>2026-04-25T09:37:39.001Z</time></trkpt><trkpt lat="38.05187508957022" lon="15.852545565711475"><ele>1159.0</ele><time>2026-04-25T09:37:40.001Z</time></trkpt><trkpt lat="38.05197107623728" lon="15.852541625082354"><ele>1159.0</ele><time>2026-04-25T09:37:41.001Z</time></trkpt><trkpt lat="38.05205800801722" lon="15.85254084797328"><ele>1159.0</ele><time>2026-04-25T09:37:42.001Z</time></trkpt><trkpt lat="38.05213759609368" lon="15.852523705526375"><ele>1159.0</ele><time>2026-04-25T09:37:43.001Z</time></trkpt><trkpt lat="38.05226586796383" lon="15.852500697047493"><ele>1159.0</ele><time>2026-04-25T09:37:45.001Z</time></trkpt><trkpt lat="38.05235947439114" lon="15.852380757937874"><ele>1159.0</ele><time>2026-04-25T09:37:47.001Z</time></trkpt><trkpt lat="38.052483384218554" lon="15.852331831272966"><ele>1159.0</ele><time>2026-04-25T09:37:49.001Z</time></trkpt><trkpt lat="38.05255495949933" lon="15.85229650554109"><ele>1159.0</ele><time>2026-04-25T09:37:50.001Z</time></trkpt><trkpt lat="38.05264316774484" lon="15.852264850191824"><ele>1159.0</ele><time>2026-04-25T09:37:51.002Z</time></trkpt><trkpt lat="38.05273902642558" lon="15.852216650315258"><ele>1159.3333333333333</ele><time>2026-04-25T09:37:52.002Z</time></trkpt><trkpt lat="38.05283221819481" lon="15.852187596382443"><ele>1159.6666666666665</ele><time>2026-04-25T09:37:53.002Z</time></trkpt><trkpt lat="38.05292161721058" lon="15.852135983341812"><ele>1160.0</ele><time>2026-04-25T09:37:54.002Z</time></trkpt><trkpt lat="38.05300494230113" lon="15.852150938389952"><ele>1160.3333333333333</ele><time>2026-04-25T09:37:55.002Z</time></trkpt><trkpt lat="38.053080658848394" lon="15.852209216080702"><ele>1160.6666666666667</ele><time>2026-04-25T09:37:56.002Z</time></trkpt><trkpt lat="38.05314327959535" lon="15.85227458526023"><ele>1161.0</ele><time>2026-04-25T09:37:57.002Z</time></trkpt><trkpt lat="38.05319623402174" lon="15.852359196107127"><ele>1161.0</ele><time>2026-04-25T09:37:58.002Z</time></trkpt><trkpt lat="38.05322983900457" lon="15.852455665856898"><ele>1161.0</ele><time>2026-04-25T09:37:59.002Z</time></trkpt><trkpt lat="38.05327446509538" lon="15.852539561759805"><ele>1161.0</ele><time>2026-04-25T09:38:00.002Z</time></trkpt><trkpt lat="38.053331850269615" lon="15.85258570159983"><ele>1161.0</ele><time>2026-04-25T09:38:01.002Z</time></trkpt><trkpt lat="38.053412414723326" lon="15.852541573550049"><ele>1161.0</ele><time>2026-04-25T09:38:02.002Z</time></trkpt><trkpt lat="38.05350066800262" lon="15.852403949120793"><ele>1162.3333333333333</ele><time>2026-04-25T09:38:04.002Z</time></trkpt><trkpt lat="38.05355072208276" lon="15.852329868835886"><ele>1163.6666666666667</ele><time>2026-04-25T09:38:05.002Z</time></trkpt><trkpt lat="38.053598313303134" lon="15.85224463835752"><ele>1165.0</ele><time>2026-04-25T09:38:06.002Z</time></trkpt><trkpt lat="38.05363907270772" lon="15.85214910673035"><ele>1166.3333333333335</ele><time>2026-04-25T09:38:07.002Z</time></trkpt><trkpt lat="38.05369780926203" lon="15.852056092091772"><ele>1167.6666666666667</ele><time>2026-04-25T09:38:08.002Z</time></trkpt><trkpt lat="38.05373951107975" lon="15.851947008741167"><ele>1169.0</ele><time>2026-04-25T09:38:09.002Z</time></trkpt><trkpt lat="38.05378828565062" lon="15.851857454319855"><ele>1169.0</ele><time>2026-04-25T09:38:10.002Z</time></trkpt><trkpt lat="38.0538403305602" lon="15.851794804673183"><ele>1169.0</ele><time>2026-04-25T09:38:11.002Z</time></trkpt><trkpt lat="38.05392496306225" lon="15.851777562309369"><ele>1169.0</ele><time>2026-04-25T09:38:12.002Z</time></trkpt><trkpt lat="38.054017132178544" lon="15.851730161204236"><ele>1169.0</ele><time>2026-04-25T09:38:13.002Z</time></trkpt><trkpt lat="38.05410374980358" lon="15.851684683599972"><ele>1169.0</ele><time>2026-04-25T09:38:14.002Z</time></trkpt><trkpt lat="38.05419288158625" lon="15.851618093489998"><ele>1171.6000000000001</ele><time>2026-04-25T09:38:15.002Z</time></trkpt><trkpt lat="38.05426645461044" lon="15.851554678412857"><ele>1174.2</ele><time>2026-04-25T09:38:16.002Z</time></trkpt><trkpt lat="38.05436163818476" lon="15.851507687710622"><ele>1176.8000000000002</ele><time>2026-04-25T09:38:17.002Z</time></trkpt><trkpt lat="38.054459204476835" lon="15.851458217957145"><ele>1179.4</ele><time>2026-04-25T09:38:18.002Z</time></trkpt><trkpt lat="38.054569715845524" lon="15.851421503745257"><ele>1182.0</ele><time>2026-04-25T09:38:19.002Z</time></trkpt><trkpt lat="38.05466907625953" lon="15.851405537229303"><ele>1182.0</ele><time>2026-04-25T09:38:20.002Z</time></trkpt><trkpt lat="38.0547826684768" lon="15.851393290949492"><ele>1182.0</ele><time>2026-04-25T09:38:21Z</time></trkpt><trkpt lat="38.05488792140134" lon="15.851396639870153"><ele>1182.0</ele><time>2026-04-25T09:38:22Z</time></trkpt><trkpt lat="38.0550077691235" lon="15.851372145520534"><ele>1182.0</ele><time>2026-04-25T09:38:23Z</time></trkpt><trkpt lat="38.055103918687266" lon="15.851375854456274"><ele>1182.0</ele><time>2026-04-25T09:38:24Z</time></trkpt><trkpt lat="38.05519354710742" lon="15.851384000271011"><ele>1183.0</ele><time>2026-04-25T09:38:25Z</time></trkpt><trkpt lat="38.05528053253458" lon="15.851382053855849"><ele>1184.0</ele><time>2026-04-25T09:38:26Z</time></trkpt><trkpt lat="38.0553573766432" lon="15.851388624061727"><ele>1185.0</ele><time>2026-04-25T09:38:27Z</time></trkpt><trkpt lat="38.05542726840379" lon="15.851401379462471"><ele>1186.0</ele><time>2026-04-25T09:38:28Z</time></trkpt><trkpt lat="38.0555056184203" lon="15.851455602723934"><ele>1187.0</ele><time>2026-04-25T09:38:30Z</time></trkpt><trkpt lat="38.05547499410723" lon="15.851622132955859"><ele>1187.0</ele><time>2026-04-25T09:38:32Z</time></trkpt><trkpt lat="38.055477727204575" lon="15.851707428055626"><ele>1187.0</ele><time>2026-04-25T09:38:33Z</time></trkpt><trkpt lat="38.05549960697549" lon="15.85184706835575"><ele>1187.0</ele><time>2026-04-25T09:38:35Z</time></trkpt><trkpt lat="38.055532405839145" lon="15.851924073456576"><ele>1187.0</ele><time>2026-04-25T09:38:36Z</time></trkpt><trkpt lat="38.05554677806286" lon="15.852003895304703"><ele>1187.0</ele><time>2026-04-25T09:38:37Z</time></trkpt><trkpt lat="38.05558793633575" lon="15.85208060352713"><ele>1187.0</ele><time>2026-04-25T09:38:38Z</time></trkpt><trkpt lat="38.05563400372819" lon="15.852151192659957"><ele>1187.6666666666667</ele><time>2026-04-25T09:38:39Z</time></trkpt><trkpt lat="38.05570977679127" lon="15.852194140394214"><ele>1188.3333333333335</ele><time>2026-04-25T09:38:40Z</time></trkpt><trkpt lat="38.055767174803286" lon="15.85227474851399"><ele>1189.0</ele><time>2026-04-25T09:38:41Z</time></trkpt><trkpt lat="38.05582253848068" lon="15.852330262368616"><ele>1189.6666666666667</ele><time>2026-04-25T09:38:42Z</time></trkpt><trkpt lat="38.05588370079531" lon="15.852392946497877"><ele>1190.3333333333333</ele><time>2026-04-25T09:38:43Z</time></trkpt><trkpt lat="38.05593685002481" lon="15.852452128737486"><ele>1191.0</ele><time>2026-04-25T09:38:44Z</time></trkpt><trkpt lat="38.055974829350376" lon="15.852521290731515"><ele>1192.1666666666667</ele><time>2026-04-25T09:38:45Z</time></trkpt><trkpt lat="38.05600259311575" lon="15.852678767928802"><ele>1193.3333333333333</ele><time>2026-04-25T09:38:47Z</time></trkpt><trkpt lat="38.05601998148702" lon="15.852770409087501"><ele>1194.5</ele><time>2026-04-25T09:38:48Z</time></trkpt><trkpt lat="38.05604248193203" lon="15.852846347597387"><ele>1195.6666666666665</ele><time>2026-04-25T09:38:49Z</time></trkpt><trkpt lat="38.05606556519064" lon="15.85297146379533"><ele>1196.8333333333333</ele><time>2026-04-25T09:38:51Z</time></trkpt><trkpt lat="38.056032828803716" lon="15.853064205207415"><ele>1198.0</ele><time>2026-04-25T09:38:53Z</time></trkpt><trkpt lat="38.05593396855718" lon="15.85312500186723"><ele>1198.0</ele><time>2026-04-25T09:38:55Z</time></trkpt><trkpt lat="38.0558115847861" lon="15.853125073778216"><ele>1198.0</ele><time>2026-04-25T09:38:57Z</time></trkpt><trkpt lat="38.05572795295871" lon="15.853233645221346"><ele>1198.0</ele><time>2026-04-25T09:38:59Z</time></trkpt><trkpt lat="38.0557417843239" lon="15.853329041153039"><ele>1198.0</ele><time>2026-04-25T09:39:00Z</time></trkpt><trkpt lat="38.05576747418926" lon="15.85341189900093"><ele>1198.0</ele><time>2026-04-25T09:39:01Z</time></trkpt><trkpt lat="38.05578819451814" lon="15.853564348429405"><ele>1198.8</ele><time>2026-04-25T09:39:03Z</time></trkpt><trkpt lat="38.055799222150455" lon="15.853645484022586"><ele>1199.6</ele><time>2026-04-25T09:39:04Z</time></trkpt><trkpt lat="38.05595548444211" lon="15.85370830615358"><ele>1200.4</ele><time>2026-04-25T09:39:05Z</time></trkpt><trkpt lat="38.05598451436448" lon="15.85379156573328"><ele>1201.2</ele><time>2026-04-25T09:39:06Z</time></trkpt><trkpt lat="38.0560123810865" lon="15.853879122054117"><ele>1202.0</ele><time>2026-04-25T09:39:07Z</time></trkpt><trkpt lat="38.05604378616973" lon="15.853965343586749"><ele>1202.0</ele><time>2026-04-25T09:39:08Z</time></trkpt><trkpt lat="38.05608160502086" lon="15.854113297647332"><ele>1202.0</ele><time>2026-04-25T09:39:10.001Z</time></trkpt><trkpt lat="38.05610408340882" lon="15.85420288996465"><ele>1202.0</ele><time>2026-04-25T09:39:11.001Z</time></trkpt><trkpt lat="38.05612852138982" lon="15.854290097160396"><ele>1202.0</ele><time>2026-04-25T09:39:12.001Z</time></trkpt><trkpt lat="38.05614511149271" lon="15.85438748600545"><ele>1202.0</ele><time>2026-04-25T09:39:13.001Z</time></trkpt><trkpt lat="38.05615798687837" lon="15.85449038893125"><ele>1202.0</ele><time>2026-04-25T09:39:14.001Z</time></trkpt><trkpt lat="38.0561624119662" lon="15.85459895893438"><ele>1201.6666666666667</ele><time>2026-04-25T09:39:15.001Z</time></trkpt><trkpt lat="38.056174288741055" lon="15.854696485878161"><ele>1201.3333333333335</ele><time>2026-04-25T09:39:16.001Z</time></trkpt><trkpt lat="38.05619575693788" lon="15.854779760474973"><ele>1201.0</ele><time>2026-04-25T09:39:17.001Z</time></trkpt><trkpt lat="38.05625713927631" lon="15.854910789281123"><ele>1200.6666666666667</ele><time>2026-04-25T09:39:19.001Z</time></trkpt><trkpt lat="38.05631719838106" lon="15.854969683433074"><ele>1200.3333333333333</ele><time>2026-04-25T09:39:20.001Z</time></trkpt><trkpt lat="38.05640169582477" lon="15.855022402642076"><ele>1200.0</ele><time>2026-04-25T09:39:21.001Z</time></trkpt><trkpt lat="38.05646927648732" lon="15.85507942767017"><ele>1198.8571428571427</ele><time>2026-04-25T09:39:22.001Z</time></trkpt><trkpt lat="38.05653150251124" lon="15.855134974493392"><ele>1197.7142857142858</ele><time>2026-04-25T09:39:23.001Z</time></trkpt><trkpt lat="38.05659532451157" lon="15.855195174539883"><ele>1196.5714285714284</ele><time>2026-04-25T09:39:24.001Z</time></trkpt><trkpt lat="38.05664150483365" lon="15.855255044663549"><ele>1195.4285714285713</ele><time>2026-04-25T09:39:25.001Z</time></trkpt><trkpt lat="38.05668713712797" lon="15.855324875902818"><ele>1194.2857142857142</ele><time>2026-04-25T09:39:26.001Z</time></trkpt><trkpt lat="38.05674708167124" lon="15.855359549060946"><ele>1193.142857142857</ele><time>2026-04-25T09:39:27.001Z</time></trkpt><trkpt lat="38.05681220242205" lon="15.855365425720828"><ele>1192.0</ele><time>2026-04-25T09:39:28.001Z</time></trkpt><trkpt lat="38.05689053374005" lon="15.855366329219917"><ele>1194.8333333333333</ele><time>2026-04-25T09:39:29.001Z</time></trkpt><trkpt lat="38.056965617243" lon="15.855356086926736"><ele>1197.6666666666665</ele><time>2026-04-25T09:39:30.001Z</time></trkpt><trkpt lat="38.057046677539354" lon="15.855327675481208"><ele>1200.5</ele><time>2026-04-25T09:39:31.001Z</time></trkpt><trkpt lat="38.057111774057404" lon="15.855297888764138"><ele>1203.3333333333333</ele><time>2026-04-25T09:39:32.001Z</time></trkpt><trkpt lat="38.05721872137111" lon="15.855281805714375"><ele>1206.1666666666667</ele><time>2026-04-25T09:39:34.001Z</time></trkpt><trkpt lat="38.05725513892035" lon="15.855352255038834"><ele>1209.0</ele><time>2026-04-25T09:39:36.001Z</time></trkpt><trkpt lat="38.05729327495768" lon="15.85549758287892"><ele>1209.0</ele><time>2026-04-25T09:39:38.001Z</time></trkpt><trkpt lat="38.057347894518195" lon="15.855616495335171"><ele>1209.0</ele><time>2026-04-25T09:39:40.001Z</time></trkpt><trkpt lat="38.057396305261825" lon="15.855678470978823"><ele>1209.0</ele><time>2026-04-25T09:39:41.001Z</time></trkpt><trkpt lat="38.05745612719522" lon="15.855763967973626"><ele>1209.0</ele><time>2026-04-25T09:39:42.001Z</time></trkpt><trkpt lat="38.05755252945801" lon="15.85586746045279"><ele>1209.0</ele><time>2026-04-25T09:39:44.001Z</time></trkpt><trkpt lat="38.0576172288673" lon="15.855804320406484"><ele>1211.4</ele><time>2026-04-25T09:39:46.001Z</time></trkpt><trkpt lat="38.05759855761502" lon="15.8556398538697"><ele>1213.8000000000002</ele><time>2026-04-25T09:39:48.001Z</time></trkpt><trkpt lat="38.05755347356319" lon="15.855582625160176"><ele>1216.1999999999998</ele><time>2026-04-25T09:39:49.001Z</time></trkpt><trkpt lat="38.05750482495597" lon="15.85550630333408"><ele>1218.6</ele><time>2026-04-25T09:39:50.001Z</time></trkpt><trkpt lat="38.05748966429804" lon="15.85533767531033"><ele>1221.0</ele><time>2026-04-25T09:39:52.001Z</time></trkpt><trkpt lat="38.05751330464148" lon="15.855246759629225"><ele>1221.0</ele><time>2026-04-25T09:39:53.001Z</time></trkpt><trkpt lat="38.057532506113745" lon="15.855167808929755"><ele>1221.0</ele><time>2026-04-25T09:39:54.001Z</time></trkpt><trkpt lat="38.05760778982227" lon="15.855060432891566"><ele>1221.0</ele><time>2026-04-25T09:39:55.001Z</time></trkpt><trkpt lat="38.05764121167882" lon="15.854977544430355"><ele>1221.0</ele><time>2026-04-25T09:39:56.001Z</time></trkpt><trkpt lat="38.0576377148035" lon="15.854859847739236"><ele>1221.0</ele><time>2026-04-25T09:39:58.001Z</time></trkpt><trkpt lat="38.057562273699375" lon="15.854781068976491"><ele>1221.0</ele><time>2026-04-25T09:40:00.002Z</time></trkpt><trkpt lat="38.05748816275106" lon="15.8547576409611"><ele>1220.2</ele><time>2026-04-25T09:40:01.002Z</time></trkpt><trkpt lat="38.05740201612796" lon="15.854745039515349"><ele>1219.3999999999999</ele><time>2026-04-25T09:40:02.002Z</time></trkpt><trkpt lat="38.05733711183139" lon="15.85472066783986"><ele>1218.6</ele><time>2026-04-25T09:40:03.002Z</time></trkpt><trkpt lat="38.05728204186308" lon="15.854599243302193"><ele>1217.8</ele><time>2026-04-25T09:40:05.002Z</time></trkpt><trkpt lat="38.05730923775015" lon="15.854438856954673"><ele>1217.0</ele><time>2026-04-25T09:40:07.002Z</time></trkpt><trkpt lat="38.057346884750466" lon="15.854360368408074"><ele>1217.142857142857</ele><time>2026-04-25T09:40:08.002Z</time></trkpt><trkpt lat="38.05739188079666" lon="15.854281212122633"><ele>1217.2857142857142</ele><time>2026-04-25T09:40:09.002Z</time></trkpt><trkpt lat="38.05744434451809" lon="15.85419790806357"><ele>1217.4285714285716</ele><time>2026-04-25T09:40:10.002Z</time></trkpt><trkpt lat="38.0574910564002" lon="15.85414236656499"><ele>1217.5714285714284</ele><time>2026-04-25T09:40:11.002Z</time></trkpt><trkpt lat="38.05754545023422" lon="15.854096170443674"><ele>1217.7142857142858</ele><time>2026-04-25T09:40:12.002Z</time></trkpt><trkpt lat="38.057607343553386" lon="15.85404571865667"><ele>1217.857142857143</ele><time>2026-04-25T09:40:13.002Z</time></trkpt><trkpt lat="38.05767798652861" lon="15.854002262501808"><ele>1218.0</ele><time>2026-04-25T09:40:14.002Z</time></trkpt><trkpt lat="38.05773967826025" lon="15.853968409007443"><ele>1220.4</ele><time>2026-04-25T09:40:15.002Z</time></trkpt><trkpt lat="38.05780330124072" lon="15.8539447427887"><ele>1222.8</ele><time>2026-04-25T09:40:17.002Z</time></trkpt><trkpt lat="38.05786182019612" lon="15.854036045151402"><ele>1225.2</ele><time>2026-04-25T09:40:20.002Z</time></trkpt><trkpt lat="38.05789038625228" lon="15.854183022673542"><ele>1227.6</ele><time>2026-04-25T09:40:22.002Z</time></trkpt><trkpt lat="38.05791843793541" lon="15.854254977518965"><ele>1230.0</ele><time>2026-04-25T09:40:23.002Z</time></trkpt><trkpt lat="38.05801014019949" lon="15.854363997161137"><ele>1230.0</ele><time>2026-04-25T09:40:25.002Z</time></trkpt><trkpt lat="38.05808461433333" lon="15.854494372627352"><ele>1230.0</ele><time>2026-04-25T09:40:27Z</time></trkpt><trkpt lat="38.05813878325439" lon="15.854623434488563"><ele>1230.0</ele><time>2026-04-25T09:40:29Z</time></trkpt><trkpt lat="38.05813272439035" lon="15.85470427360688"><ele>1230.0</ele><time>2026-04-25T09:40:30Z</time></trkpt><trkpt lat="38.05812318649178" lon="15.854825589236107"><ele>1230.0</ele><time>2026-04-25T09:40:32Z</time></trkpt><trkpt lat="38.05819211739183" lon="15.854856410898305"><ele>1230.0</ele><time>2026-04-25T09:40:34Z</time></trkpt><trkpt lat="38.05827169338748" lon="15.854809442907062"><ele>1230.0</ele><time>2026-04-25T09:40:36Z</time></trkpt><trkpt lat="38.05829686938225" lon="15.854677449648209"><ele>1230.0</ele><time>2026-04-25T09:40:38Z</time></trkpt><trkpt lat="38.05829588648802" lon="15.854575264402245"><ele>1230.0</ele><time>2026-04-25T09:40:39Z</time></trkpt><trkpt lat="38.05827574869459" lon="15.85449414021468"><ele>1230.0</ele><time>2026-04-25T09:40:40Z</time></trkpt><trkpt lat="38.05826980370201" lon="15.854408731781067"><ele>1230.0</ele><time>2026-04-25T09:40:41Z</time></trkpt><trkpt lat="38.05827018412787" lon="15.854321652976619"><ele>1230.8</ele><time>2026-04-25T09:40:42Z</time></trkpt><trkpt lat="38.05828282003335" lon="15.854235712503531"><ele>1231.6</ele><time>2026-04-25T09:40:43Z</time></trkpt><trkpt lat="38.05831588646258" lon="15.854086795716535"><ele>1232.4</ele><time>2026-04-25T09:40:45Z</time></trkpt><trkpt lat="38.058368845438316" lon="15.853985101511599"><ele>1233.2</ele><time>2026-04-25T09:40:47Z</time></trkpt><trkpt lat="38.05843467726633" lon="15.853917208098252"><ele>1234.0</ele><time>2026-04-25T09:45:22.001Z</time></trkpt><trkpt lat="38.05849827297411" lon="15.853857052530785"><ele>1237.2</ele><time>2026-04-25T09:45:24.001Z</time></trkpt><trkpt lat="38.05856901623648" lon="15.853806693750846"><ele>1240.4</ele><time>2026-04-25T09:45:26.001Z</time></trkpt><trkpt lat="38.05865387435742" lon="15.853740985321602"><ele>1243.6</ele><time>2026-04-25T09:45:28.001Z</time></trkpt><trkpt lat="38.058753450851555" lon="15.853681507588155"><ele>1246.8</ele><time>2026-04-25T09:45:30.001Z</time></trkpt><trkpt lat="38.0588641722041" lon="15.853654343688687"><ele>1250.0</ele><time>2026-04-25T09:45:32.001Z</time></trkpt><trkpt lat="38.05896789209455" lon="15.85365852931114"><ele>1250.0</ele><time>2026-04-25T09:45:34.001Z</time></trkpt><trkpt lat="38.059073053634066" lon="15.853688309820061"><ele>1250.0</ele><time>2026-04-25T09:45:36.001Z</time></trkpt><trkpt lat="38.05916810125277" lon="15.853653894474677"><ele>1250.0</ele><time>2026-04-25T09:45:38.001Z</time></trkpt><trkpt lat="38.059222638502845" lon="15.853600824215652"><ele>1250.0</ele><time>2026-04-25T09:45:39.001Z</time></trkpt><trkpt lat="38.05927132037561" lon="15.85352571560893"><ele>1250.0</ele><time>2026-04-25T09:45:40.001Z</time></trkpt><trkpt lat="38.05931505297794" lon="15.853459927740285"><ele>1250.0</ele><time>2026-04-25T09:45:41.001Z</time></trkpt><trkpt lat="38.059414212559574" lon="15.853383085037832"><ele>1252.5714285714287</ele><time>2026-04-25T09:45:43.001Z</time></trkpt><trkpt lat="38.05948800531703" lon="15.85337126568605"><ele>1255.142857142857</ele><time>2026-04-25T09:45:44.001Z</time></trkpt><trkpt lat="38.05955861465231" lon="15.853363948675405"><ele>1257.7142857142858</ele><time>2026-04-25T09:45:45.001Z</time></trkpt><trkpt lat="38.05963848342307" lon="15.85335766172573"><ele>1260.2857142857142</ele><time>2026-04-25T09:45:46.001Z</time></trkpt><trkpt lat="38.05971026406584" lon="15.85336713289707"><ele>1262.857142857143</ele><time>2026-04-25T09:45:47.001Z</time></trkpt><trkpt lat="38.05978436882313" lon="15.853389598632614"><ele>1265.4285714285716</ele><time>2026-04-25T09:45:48.001Z</time></trkpt><trkpt lat="38.05985928352874" lon="15.853390478560222"><ele>1268.0</ele><time>2026-04-25T09:45:49.001Z</time></trkpt><trkpt lat="38.0599276169719" lon="15.853379799639763"><ele>1267.5</ele><time>2026-04-25T09:45:50.001Z</time></trkpt><trkpt lat="38.059994571263786" lon="15.853344472857257"><ele>1267.0</ele><time>2026-04-25T09:45:51.001Z</time></trkpt><trkpt lat="38.06006664569496" lon="15.853289526575264"><ele>1266.5</ele><time>2026-04-25T09:45:52.001Z</time></trkpt><trkpt lat="38.060131996597654" lon="15.853222053534681"><ele>1266.0</ele><time>2026-04-25T09:45:53.001Z</time></trkpt><trkpt lat="38.06020183938998" lon="15.85314405784258"><ele>1265.5</ele><time>2026-04-25T09:45:54.001Z</time></trkpt><trkpt lat="38.06027183308893" lon="15.853071249451265"><ele>1265.0</ele><time>2026-04-25T09:45:55.001Z</time></trkpt><trkpt lat="38.0603473859181" lon="15.852984930234257"><ele>1265.0</ele><time>2026-04-25T09:45:56.001Z</time></trkpt><trkpt lat="38.06042659399409" lon="15.85290753010054"><ele>1265.0</ele><time>2026-04-25T09:45:57.001Z</time></trkpt><trkpt lat="38.06050738166173" lon="15.852832051248035"><ele>1265.0</ele><time>2026-04-25T09:45:58.001Z</time></trkpt><trkpt lat="38.06058894110689" lon="15.852765353944084"><ele>1265.0</ele><time>2026-04-25T09:45:59.001Z</time></trkpt><trkpt lat="38.06066746336961" lon="15.852701705065098"><ele>1265.0</ele><time>2026-04-25T09:46:00.001Z</time></trkpt><trkpt lat="38.06074639222775" lon="15.85263747665984"><ele>1267.4285714285713</ele><time>2026-04-25T09:46:01.001Z</time></trkpt><trkpt lat="38.06081231370006" lon="15.852580554750112"><ele>1269.857142857143</ele><time>2026-04-25T09:46:02.001Z</time></trkpt><trkpt lat="38.06087389016285" lon="15.85252116375373"><ele>1272.2857142857142</ele><time>2026-04-25T09:46:03.001Z</time></trkpt><trkpt lat="38.06093232268064" lon="15.852461630255416"><ele>1274.7142857142858</ele><time>2026-04-25T09:46:04.001Z</time></trkpt><trkpt lat="38.060984789930814" lon="15.852411135102258"><ele>1277.142857142857</ele><time>2026-04-25T09:46:05.001Z</time></trkpt><trkpt lat="38.06104214758694" lon="15.85234995942231"><ele>1279.5714285714287</ele><time>2026-04-25T09:46:06.001Z</time></trkpt><trkpt lat="38.06110446356835" lon="15.852293562956302"><ele>1282.0</ele><time>2026-04-25T09:46:07.001Z</time></trkpt><trkpt lat="38.06116600976165" lon="15.852248204714503"><ele>1282.0</ele><time>2026-04-25T09:46:08.001Z</time></trkpt><trkpt lat="38.06129105825202" lon="15.852237818335427"><ele>1282.0</ele><time>2026-04-25T09:46:10.002Z</time></trkpt><trkpt lat="38.061353288728775" lon="15.852204164450672"><ele>1282.0</ele><time>2026-04-25T09:46:12.002Z</time></trkpt><trkpt lat="38.06134920371212" lon="15.852098442640699"><ele>1282.0</ele><time>2026-04-25T09:46:14.002Z</time></trkpt><trkpt lat="38.06131504046019" lon="15.851996870149433"><ele>1282.0</ele><time>2026-04-25T09:46:16.002Z</time></trkpt><trkpt lat="38.061333386912004" lon="15.851841747822537"><ele>1284.1666666666665</ele><time>2026-04-25T09:46:18.002Z</time></trkpt><trkpt lat="38.06135854931132" lon="15.851766169759067"><ele>1286.3333333333333</ele><time>2026-04-25T09:46:19.002Z</time></trkpt><trkpt lat="38.06140180467658" lon="15.851692371880299"><ele>1288.5</ele><time>2026-04-25T09:46:20.002Z</time></trkpt><trkpt lat="38.06144661620894" lon="15.85162506555229"><ele>1290.6666666666667</ele><time>2026-04-25T09:46:21.002Z</time></trkpt><trkpt lat="38.061489221493666" lon="15.851532005774766"><ele>1292.8333333333335</ele><time>2026-04-25T09:46:23.002Z</time></trkpt><trkpt lat="38.06142995430742" lon="15.851448989150175"><ele>1295.0</ele><time>2026-04-25T09:46:25.002Z</time></trkpt><trkpt lat="38.06136085236354" lon="15.851477868500725"><ele>1295.0</ele><time>2026-04-25T09:46:27.002Z</time></trkpt><trkpt lat="38.06132342416204" lon="15.851588046930965"><ele>1295.0</ele><time>2026-04-25T09:46:29.002Z</time></trkpt><trkpt lat="38.06127608007745" lon="15.85168731577939"><ele>1295.0</ele><time>2026-04-25T09:46:31.002Z</time></trkpt><trkpt lat="38.06117182483932" lon="15.851732516783064"><ele>1295.0</ele><time>2026-04-25T09:46:33.002Z</time></trkpt><trkpt lat="38.06110860192547" lon="15.851749986258765"><ele>1295.0</ele><time>2026-04-25T09:46:34.002Z</time></trkpt><trkpt lat="38.06103492149073" lon="15.851769522911265"><ele>1295.0</ele><time>2026-04-25T09:46:35.002Z</time></trkpt><trkpt lat="38.06097193897737" lon="15.851773661354343"><ele>1295.0</ele><time>2026-04-25T09:46:36.002Z</time></trkpt><trkpt lat="38.06087055496488" lon="15.851724855822395"><ele>1295.0</ele><time>2026-04-25T09:46:38.002Z</time></trkpt><trkpt lat="38.06081458937812" lon="15.851672069541214"><ele>1295.0</ele><time>2026-04-25T09:46:39.002Z</time></trkpt><trkpt lat="38.060711976382045" lon="15.851586180618845"><ele>1295.0</ele><time>2026-04-25T09:46:41.002Z</time></trkpt><trkpt lat="38.06060997487732" lon="15.85158619726016"><ele>1295.0</ele><time>2026-04-25T09:46:43.002Z</time></trkpt><trkpt lat="38.060551287118564" lon="15.851630954144733"><ele>1294.857142857143</ele><time>2026-04-25T09:46:44.002Z</time></trkpt><trkpt lat="38.06049566644056" lon="15.851696962828093"><ele>1294.7142857142858</ele><time>2026-04-25T09:46:45Z</time></trkpt><trkpt lat="38.06044605631271" lon="15.851746950064715"><ele>1294.5714285714284</ele><time>2026-04-25T09:46:46Z</time></trkpt><trkpt lat="38.06036191828987" lon="15.85181039664679"><ele>1294.4285714285716</ele><time>2026-04-25T09:46:48Z</time></trkpt><trkpt lat="38.06030407750738" lon="15.851852815540603"><ele>1294.2857142857142</ele><time>2026-04-25T09:46:52Z</time></trkpt><trkpt lat="38.06034561019075" lon="15.851914708607875"><ele>1294.142857142857</ele><time>2026-04-25T09:47:06Z</time></trkpt><trkpt lat="38.060382745263716" lon="15.851837380366497"><ele>1294.0</ele><time>2026-04-25T09:47:08Z</time></trkpt><trkpt lat="38.060436264200064" lon="15.851754809062221"><ele>1294.0</ele><time>2026-04-25T09:47:10Z</time></trkpt><trkpt lat="38.0605252666737" lon="15.851652382497837"><ele>1294.0</ele><time>2026-04-25T09:47:12Z</time></trkpt><trkpt lat="38.06058596571294" lon="15.851602999534888"><ele>1294.0</ele><time>2026-04-25T09:47:13Z</time></trkpt><trkpt lat="38.060685308198586" lon="15.851564951127894"><ele>1294.0</ele><time>2026-04-25T09:47:15Z</time></trkpt><trkpt lat="38.06077945278832" lon="15.851627512334987"><ele>1294.0</ele><time>2026-04-25T09:47:17Z</time></trkpt><trkpt lat="38.06086904627254" lon="15.851716553458509"><ele>1294.1666666666665</ele><time>2026-04-25T09:47:19Z</time></trkpt><trkpt lat="38.060963608977595" lon="15.851770451319394"><ele>1294.3333333333333</ele><time>2026-04-25T09:47:21Z</time></trkpt><trkpt lat="38.06106489132653" lon="15.851759967933084"><ele>1294.5</ele><time>2026-04-25T09:47:23Z</time></trkpt><trkpt lat="38.06113177546154" lon="15.851736912408155"><ele>1294.6666666666667</ele><time>2026-04-25T09:47:24Z</time></trkpt><trkpt lat="38.06119383554524" lon="15.851715935769077"><ele>1294.8333333333335</ele><time>2026-04-25T09:47:25.001Z</time></trkpt><trkpt lat="38.06128510414583" lon="15.851659280229361"><ele>1295.0</ele><time>2026-04-25T09:47:27.001Z</time></trkpt><trkpt lat="38.06134276546278" lon="15.851570376890367"><ele>1295.0</ele><time>2026-04-25T09:47:29.001Z</time></trkpt><trkpt lat="38.06136245417931" lon="15.85145966775381"><ele>1295.0</ele><time>2026-04-25T09:47:31.001Z</time></trkpt><trkpt lat="38.06142567162092" lon="15.851430321977158"><ele>1295.0</ele><time>2026-04-25T09:47:33.001Z</time></trkpt><trkpt lat="38.06147631160999" lon="15.85150545665628"><ele>1295.0</ele><time>2026-04-25T09:47:35.001Z</time></trkpt><trkpt lat="38.06148130143867" lon="15.85160344790236"><ele>1295.0</ele><time>2026-04-25T09:47:37.001Z</time></trkpt><trkpt lat="38.0614109701109" lon="15.851697918623197"><ele>1295.0</ele><time>2026-04-25T09:47:39.001Z</time></trkpt><trkpt lat="38.061343794775375" lon="15.851821164529515"><ele>1292.4</ele><time>2026-04-25T09:47:41.001Z</time></trkpt><trkpt lat="38.061316640064206" lon="15.851958760826781"><ele>1289.8</ele><time>2026-04-25T09:47:43.001Z</time></trkpt><trkpt lat="38.061328169993146" lon="15.85209409835409"><ele>1287.1999999999998</ele><time>2026-04-25T09:47:45.001Z</time></trkpt><trkpt lat="38.06134996961468" lon="15.852190398650752"><ele>1284.6</ele><time>2026-04-25T09:47:47.001Z</time></trkpt><trkpt lat="38.06128918992891" lon="15.852260337365294"><ele>1282.0</ele><time>2026-04-25T09:47:50.001Z</time></trkpt><trkpt lat="38.061187455568536" lon="15.85224135352558"><ele>1282.0</ele><time>2026-04-25T09:47:52.001Z</time></trkpt><trkpt lat="38.06118560914379" lon="15.852335119071334"><ele>1282.0</ele><time>2026-04-25T09:47:57.001Z</time></trkpt><trkpt lat="38.061267491561665" lon="15.85238057711443"><ele>1282.0</ele><time>2026-04-25T09:47:59.001Z</time></trkpt><trkpt lat="38.0613572441402" lon="15.852475432916286"><ele>1282.0</ele><time>2026-04-25T09:48:01.001Z</time></trkpt><trkpt lat="38.0614168188891" lon="15.852530209926492"><ele>1282.0</ele><time>2026-04-25T09:48:02.001Z</time></trkpt><trkpt lat="38.061479249353894" lon="15.852576112219634"><ele>1282.0</ele><time>2026-04-25T09:48:03.001Z</time></trkpt><trkpt lat="38.06154598540547" lon="15.85260719660719"><ele>1280.0</ele><time>2026-04-25T09:48:04.001Z</time></trkpt><trkpt lat="38.06161790094671" lon="15.852625241705592"><ele>1278.0</ele><time>2026-04-25T09:48:05.001Z</time></trkpt><trkpt lat="38.06169007746096" lon="15.85264279959627"><ele>1276.0</ele><time>2026-04-25T09:48:06.001Z</time></trkpt><trkpt lat="38.06175714741658" lon="15.852653860919052"><ele>1274.0</ele><time>2026-04-25T09:48:07.001Z</time></trkpt><trkpt lat="38.06187203088862" lon="15.852633298612465"><ele>1272.0</ele><time>2026-04-25T09:48:09.001Z</time></trkpt><trkpt lat="38.06193329398192" lon="15.852577976544138"><ele>1270.0</ele><time>2026-04-25T09:48:10.001Z</time></trkpt><trkpt lat="38.06198386135005" lon="15.852504476771285"><ele>1270.0</ele><time>2026-04-25T09:48:11.001Z</time></trkpt><trkpt lat="38.062033844836705" lon="15.852419835581335"><ele>1270.0</ele><time>2026-04-25T09:48:12.001Z</time></trkpt><trkpt lat="38.06207261743012" lon="15.852342338446254"><ele>1270.0</ele><time>2026-04-25T09:48:13.001Z</time></trkpt><trkpt lat="38.06211358687635" lon="15.85220951347103"><ele>1270.0</ele><time>2026-04-25T09:48:15.001Z</time></trkpt><trkpt lat="38.062070246445366" lon="15.852058063628382"><ele>1270.0</ele><time>2026-04-25T09:48:17.001Z</time></trkpt><trkpt lat="38.062014211423325" lon="15.851925229142473"><ele>1270.0</ele><time>2026-04-25T09:48:19.001Z</time></trkpt><trkpt lat="38.06201621327944" lon="15.851804389325714"><ele>1270.0</ele><time>2026-04-25T09:48:21.001Z</time></trkpt><trkpt lat="38.06209122449829" lon="15.85170933636643"><ele>1270.0</ele><time>2026-04-25T09:48:23.001Z</time></trkpt><trkpt lat="38.06221090183992" lon="15.851656569766734"><ele>1270.0</ele><time>2026-04-25T09:48:25.001Z</time></trkpt><trkpt lat="38.06228131312054" lon="15.851654661605277"><ele>1270.0</ele><time>2026-04-25T09:48:26.001Z</time></trkpt><trkpt lat="38.062345649774805" lon="15.851651637060757"><ele>1270.9999999999998</ele><time>2026-04-25T09:48:27.002Z</time></trkpt><trkpt lat="38.062417183508636" lon="15.851653190223859"><ele>1272.0</ele><time>2026-04-25T09:48:28.002Z</time></trkpt><trkpt lat="38.06248088843538" lon="15.851632872379023"><ele>1273.0</ele><time>2026-04-25T09:48:29.002Z</time></trkpt><trkpt lat="38.06254732977194" lon="15.85159118757442"><ele>1274.0</ele><time>2026-04-25T09:48:30.002Z</time></trkpt><trkpt lat="38.06261524200331" lon="15.85153418997235"><ele>1275.0</ele><time>2026-04-25T09:48:31.002Z</time></trkpt><trkpt lat="38.062682434463085" lon="15.85148309259702"><ele>1275.9999999999998</ele><time>2026-04-25T09:48:32.002Z</time></trkpt><trkpt lat="38.062749486979655" lon="15.85144360304415"><ele>1277.0</ele><time>2026-04-25T09:48:33.002Z</time></trkpt><trkpt lat="38.062818514450896" lon="15.85142783893814"><ele>1273.8</ele><time>2026-04-25T09:48:34.002Z</time></trkpt><trkpt lat="38.062886475592975" lon="15.851431702453306"><ele>1270.6</ele><time>2026-04-25T09:48:35.002Z</time></trkpt><trkpt lat="38.062998345594885" lon="15.851442039383933"><ele>1267.3999999999999</ele><time>2026-04-25T09:48:37.002Z</time></trkpt><trkpt lat="38.06308208997291" lon="15.851384573177054"><ele>1264.2</ele><time>2026-04-25T09:48:39.002Z</time></trkpt><trkpt lat="38.0631670845422" lon="15.851304036250381"><ele>1261.0</ele><time>2026-04-25T09:48:41.002Z</time></trkpt><trkpt lat="38.063269156750636" lon="15.851213898395983"><ele>1259.142857142857</ele><time>2026-04-25T09:48:43.002Z</time></trkpt><trkpt lat="38.06332163101343" lon="15.851161967547682"><ele>1257.2857142857142</ele><time>2026-04-25T09:48:44.002Z</time></trkpt><trkpt lat="38.06337287840195" lon="15.851111964923064"><ele>1255.4285714285716</ele><time>2026-04-25T09:48:45.002Z</time></trkpt><trkpt lat="38.063435250855456" lon="15.851058249419758"><ele>1253.5714285714284</ele><time>2026-04-25T09:48:46.002Z</time></trkpt><trkpt lat="38.06350346703508" lon="15.851015293769693"><ele>1251.7142857142856</ele><time>2026-04-25T09:48:47.002Z</time></trkpt><trkpt lat="38.06357036350456" lon="15.850982399981056"><ele>1249.857142857143</ele><time>2026-04-25T09:48:48.002Z</time></trkpt><trkpt lat="38.06363845602972" lon="15.85094771532254"><ele>1248.0</ele><time>2026-04-25T09:48:49.002Z</time></trkpt><trkpt lat="38.06369835243894" lon="15.850905117181787"><ele>1248.0</ele><time>2026-04-25T09:48:50.002Z</time></trkpt><trkpt lat="38.063790807261" lon="15.85081578053377"><ele>1248.0</ele><time>2026-04-25T09:48:51.999Z</time></trkpt><trkpt lat="38.06389346950854" lon="15.850744416059372"><ele>1248.0</ele><time>2026-04-25T09:48:53.999Z</time></trkpt><trkpt lat="38.064003348253216" lon="15.850684603719822"><ele>1248.0</ele><time>2026-04-25T09:48:55.999Z</time></trkpt><trkpt lat="38.064118361775186" lon="15.85066605884987"><ele>1249.1666666666667</ele><time>2026-04-25T09:48:57.999Z</time></trkpt><trkpt lat="38.06419675164758" lon="15.850692882817729"><ele>1250.3333333333333</ele><time>2026-04-25T09:48:59.999Z</time></trkpt><trkpt lat="38.064257529260146" lon="15.85075411694166"><ele>1251.5</ele><time>2026-04-25T09:49:01.999Z</time></trkpt><trkpt lat="38.06433560908792" lon="15.850783104639376"><ele>1252.6666666666665</ele><time>2026-04-25T09:49:03.999Z</time></trkpt><trkpt lat="38.06442261814835" lon="15.850701470562765"><ele>1253.8333333333333</ele><time>2026-04-25T09:49:06Z</time></trkpt><trkpt lat="38.06446978665986" lon="15.850645905022956"><ele>1255.0</ele><time>2026-04-25T09:49:07Z</time></trkpt><trkpt lat="38.06457641390457" lon="15.850569035267371"><ele>1255.0</ele><time>2026-04-25T09:49:09Z</time></trkpt><trkpt lat="38.064637861578554" lon="15.850541830341001"><ele>1255.0</ele><time>2026-04-25T09:49:10Z</time></trkpt><trkpt lat="38.06470329679495" lon="15.850522650428356"><ele>1255.0</ele><time>2026-04-25T09:49:11Z</time></trkpt><trkpt lat="38.06476789539467" lon="15.850515091209312"><ele>1255.0</ele><time>2026-04-25T09:49:12Z</time></trkpt><trkpt lat="38.06483198109356" lon="15.85050280279765"><ele>1255.0</ele><time>2026-04-25T09:49:13Z</time></trkpt><trkpt lat="38.064941207566655" lon="15.850466311997387"><ele>1255.0</ele><time>2026-04-25T09:49:15Z</time></trkpt><trkpt lat="38.06501757861653" lon="15.8503720324429"><ele>1254.3333333333333</ele><time>2026-04-25T09:49:17Z</time></trkpt><trkpt lat="38.065052188948016" lon="15.85029865170687"><ele>1253.6666666666665</ele><time>2026-04-25T09:49:18Z</time></trkpt><trkpt lat="38.06508800887714" lon="15.85022010947191"><ele>1253.0</ele><time>2026-04-25T09:49:19Z</time></trkpt><trkpt lat="38.06512969193841" lon="15.850138197195905"><ele>1252.3333333333333</ele><time>2026-04-25T09:49:20Z</time></trkpt><trkpt lat="38.065163241410794" lon="15.850065674835372"><ele>1251.6666666666667</ele><time>2026-04-25T09:49:21Z</time></trkpt><trkpt lat="38.06519130861496" lon="15.849989043932863"><ele>1251.0</ele><time>2026-04-25T09:49:22Z</time></trkpt><trkpt lat="38.065231820422525" lon="15.849833102526844"><ele>1254.0</ele><time>2026-04-25T09:49:24Z</time></trkpt><trkpt lat="38.06525018685872" lon="15.849742134394772"><ele>1257.0</ele><time>2026-04-25T09:49:25Z</time></trkpt><trkpt lat="38.065271445635396" lon="15.849647919180319"><ele>1260.0</ele><time>2026-04-25T09:49:26Z</time></trkpt><trkpt lat="38.06528957121552" lon="15.849552967932294"><ele>1263.0</ele><time>2026-04-25T09:49:27Z</time></trkpt><trkpt lat="38.06530838340821" lon="15.849457106308376"><ele>1266.0</ele><time>2026-04-25T09:49:28Z</time></trkpt><trkpt lat="38.06532977947312" lon="15.849368137901244"><ele>1269.0</ele><time>2026-04-25T09:49:29Z</time></trkpt><trkpt lat="38.06538459798058" lon="15.849246936035158"><ele>1269.0</ele><time>2026-04-25T09:49:31Z</time></trkpt><trkpt lat="38.06543296898862" lon="15.84918471525362"><ele>1269.0</ele><time>2026-04-25T09:49:32Z</time></trkpt><trkpt lat="38.065484614851144" lon="15.849119206971364"><ele>1269.0</ele><time>2026-04-25T09:49:33Z</time></trkpt><trkpt lat="38.06553920408201" lon="15.849062823493282"><ele>1269.0</ele><time>2026-04-25T09:49:34Z</time></trkpt><trkpt lat="38.065595946028175" lon="15.849000009876608"><ele>1269.0</ele><time>2026-04-25T09:49:35Z</time></trkpt><trkpt lat="38.06565275383374" lon="15.848938716343913"><ele>1269.0</ele><time>2026-04-25T09:49:36Z</time></trkpt><trkpt lat="38.06576396265425" lon="15.84887528298022"><ele>1270.6666666666667</ele><time>2026-04-25T09:49:38Z</time></trkpt><trkpt lat="38.06583128505865" lon="15.84886909816295"><ele>1272.3333333333333</ele><time>2026-04-25T09:49:39Z</time></trkpt><trkpt lat="38.06589836757144" lon="15.848872947866345"><ele>1274.0</ele><time>2026-04-25T09:49:40Z</time></trkpt><trkpt lat="38.06596582410384" lon="15.848866766539862"><ele>1275.6666666666665</ele><time>2026-04-25T09:49:41Z</time></trkpt><trkpt lat="38.066057281453276" lon="15.848791786697754"><ele>1277.3333333333333</ele><time>2026-04-25T09:49:43Z</time></trkpt><trkpt lat="38.06609299776995" lon="15.848717490348287"><ele>1279.0</ele><time>2026-04-25T09:49:44Z</time></trkpt><trkpt lat="38.06612187750845" lon="15.848573717390876"><ele>1280.8333333333333</ele><time>2026-04-25T09:49:46Z</time></trkpt><trkpt lat="38.066150663152136" lon="15.848410727442543"><ele>1282.6666666666665</ele><time>2026-04-25T09:49:48Z</time></trkpt><trkpt lat="38.06618456663782" lon="15.848322244916876"><ele>1284.5</ele><time>2026-04-25T09:49:49Z</time></trkpt><trkpt lat="38.06622134203989" lon="15.8482562323012"><ele>1286.3333333333333</ele><time>2026-04-25T09:49:50Z</time></trkpt><trkpt lat="38.06626910886236" lon="15.848173583977111"><ele>1288.1666666666667</ele><time>2026-04-25T09:49:51Z</time></trkpt><trkpt lat="38.06632522192324" lon="15.848098184149826"><ele>1290.0</ele><time>2026-04-25T09:49:52Z</time></trkpt><trkpt lat="38.066380816299194" lon="15.848013312344536"><ele>1290.0</ele><time>2026-04-25T09:49:53.001Z</time></trkpt><trkpt lat="38.06644390192935" lon="15.847930918917982"><ele>1290.0</ele><time>2026-04-25T09:49:54.001Z</time></trkpt><trkpt lat="38.06649441162396" lon="15.847862079362823"><ele>1290.0</ele><time>2026-04-25T09:49:55.001Z</time></trkpt><trkpt lat="38.066592266830455" lon="15.847798509500276"><ele>1290.0</ele><time>2026-04-25T09:49:57.001Z</time></trkpt><trkpt lat="38.06668847879956" lon="15.847834589102002"><ele>1290.0</ele><time>2026-04-25T09:49:59.001Z</time></trkpt><trkpt lat="38.06672809257407" lon="15.847899621104323"><ele>1290.0</ele><time>2026-04-25T09:50:00.001Z</time></trkpt><trkpt lat="38.066773596791236" lon="15.847968253896559"><ele>1290.0</ele><time>2026-04-25T09:50:01.001Z</time></trkpt><trkpt lat="38.06686005801465" lon="15.848061467173963"><ele>1290.0</ele><time>2026-04-25T09:50:03.001Z</time></trkpt><trkpt lat="38.06691222441596" lon="15.848116086099257"><ele>1290.0</ele><time>2026-04-25T09:50:04.001Z</time></trkpt><trkpt lat="38.06696503748692" lon="15.84816653036643"><ele>1290.0</ele><time>2026-04-25T09:50:05.001Z</time></trkpt><trkpt lat="38.06700515534409" lon="15.84823266582322"><ele>1290.0</ele><time>2026-04-25T09:50:06.001Z</time></trkpt><trkpt lat="38.06705826358126" lon="15.84834065134354"><ele>1290.0</ele><time>2026-04-25T09:50:08.001Z</time></trkpt><trkpt lat="38.06709958783499" lon="15.848403196376557"><ele>1290.2</ele><time>2026-04-25T09:50:09.001Z</time></trkpt><trkpt lat="38.067217196114385" lon="15.848473652928554"><ele>1290.4</ele><time>2026-04-25T09:50:11.001Z</time></trkpt><trkpt lat="38.06728718642916" lon="15.848489494794388"><ele>1290.6</ele><time>2026-04-25T09:50:12.001Z</time></trkpt><trkpt lat="38.06735839967923" lon="15.84850767126839"><ele>1290.8</ele><time>2026-04-25T09:50:13.001Z</time></trkpt><trkpt lat="38.067426229438965" lon="15.848527434109089"><ele>1291.0</ele><time>2026-04-25T09:50:14.001Z</time></trkpt><trkpt lat="38.06753144036274" lon="15.848601539153762"><ele>1290.9999999999998</ele><time>2026-04-25T09:50:16.001Z</time></trkpt><trkpt lat="38.067587249315324" lon="15.848663691742892"><ele>1291.0</ele><time>2026-04-25T09:50:17.001Z</time></trkpt><trkpt lat="38.06763156011122" lon="15.84873654769702"><ele>1291.0</ele><time>2026-04-25T09:50:18.001Z</time></trkpt><trkpt lat="38.0676781358906" lon="15.848808723024437"><ele>1291.0</ele><time>2026-04-25T09:50:19.001Z</time></trkpt><trkpt lat="38.067727413275044" lon="15.848879925025562"><ele>1291.0</ele><time>2026-04-25T09:50:20.001Z</time></trkpt><trkpt lat="38.06777666627466" lon="15.848950158922257"><ele>1290.9999999999998</ele><time>2026-04-25T09:50:21.001Z</time></trkpt><trkpt lat="38.06782329363721" lon="15.849006568099439"><ele>1291.0</ele><time>2026-04-25T09:50:22.001Z</time></trkpt><trkpt lat="38.06787821308783" lon="15.849131515513745"><ele>1291.0</ele><time>2026-04-25T09:50:24.001Z</time></trkpt><trkpt lat="38.067910842419884" lon="15.84921412613297"><ele>1291.0</ele><time>2026-04-25T09:50:25.001Z</time></trkpt><trkpt lat="38.067947080518984" lon="15.849280710033526"><ele>1291.0</ele><time>2026-04-25T09:50:26.001Z</time></trkpt><trkpt lat="38.068046190130005" lon="15.849354865479862"><ele>1291.0</ele><time>2026-04-25T09:50:28.001Z</time></trkpt><trkpt lat="38.06812443340083" lon="15.849371000763451"><ele>1291.0</ele><time>2026-04-25T09:50:30.001Z</time></trkpt><trkpt lat="38.06819532632308" lon="15.849392488901861"><ele>1291.0</ele><time>2026-04-25T09:50:32.001Z</time></trkpt><trkpt lat="38.06822723205414" lon="15.849480296110416"><ele>1291.6</ele><time>2026-04-25T09:50:34.001Z</time></trkpt><trkpt lat="38.06822688260767" lon="15.84959403699716"><ele>1292.1999999999998</ele><time>2026-04-25T09:50:36.001Z</time></trkpt><trkpt lat="38.068248087151055" lon="15.84974303440167"><ele>1292.8000000000002</ele><time>2026-04-25T09:50:38.001Z</time></trkpt><trkpt lat="38.06825819377946" lon="15.849822860027608"><ele>1293.4</ele><time>2026-04-25T09:50:39.001Z</time></trkpt><trkpt lat="38.06830695957489" lon="15.8499187908294"><ele>1294.0</ele><time>2026-04-25T09:50:41.001Z</time></trkpt><trkpt lat="38.06840486425328" lon="15.849948248823047"><ele>1294.8000000000002</ele><time>2026-04-25T09:50:43.001Z</time></trkpt><trkpt lat="38.06850083762268" lon="15.849956113213713"><ele>1295.6000000000001</ele><time>2026-04-25T09:50:45.001Z</time></trkpt><trkpt lat="38.0685687808268" lon="15.85003774676183"><ele>1296.4</ele><time>2026-04-25T09:50:47.001Z</time></trkpt><trkpt lat="38.068602176281914" lon="15.85014090808582"><ele>1297.2</ele><time>2026-04-25T09:50:49.002Z</time></trkpt><trkpt lat="38.06865384363312" lon="15.85024816080242"><ele>1298.0</ele><time>2026-04-25T09:50:51.002Z</time></trkpt><trkpt lat="38.06874889393032" lon="15.850289828969522"><ele>1298.0</ele><time>2026-04-25T09:50:53.002Z</time></trkpt><trkpt lat="38.068852275688805" lon="15.850324768171307"><ele>1298.0</ele><time>2026-04-25T09:50:55.002Z</time></trkpt><trkpt lat="38.068945874905104" lon="15.850346904160487"><ele>1298.0</ele><time>2026-04-25T09:50:56.999Z</time></trkpt><trkpt lat="38.06904287509958" lon="15.850377777528253"><ele>1298.0</ele><time>2026-04-25T09:50:58.999Z</time></trkpt><trkpt lat="38.069161964658655" lon="15.850366957090733"><ele>1298.0</ele><time>2026-04-25T09:51:00.999Z</time></trkpt><trkpt lat="38.06923467493002" lon="15.850314135112779"><ele>1299.0</ele><time>2026-04-25T09:51:01.999Z</time></trkpt><trkpt lat="38.06931040195455" lon="15.850264237138234"><ele>1300.0</ele><time>2026-04-25T09:51:02.999Z</time></trkpt><trkpt lat="38.06935859581819" lon="15.850201968961345"><ele>1301.0</ele><time>2026-04-25T09:51:03.999Z</time></trkpt><trkpt lat="38.06940436434746" lon="15.850145613834917"><ele>1302.0</ele><time>2026-04-25T09:51:04.999Z</time></trkpt><trkpt lat="38.06948238157534" lon="15.850140881629809"><ele>1303.0</ele><time>2026-04-25T09:51:06.999Z</time></trkpt><trkpt lat="38.069547723382065" lon="15.850224949022962"><ele>1304.0</ele><time>2026-04-25T09:51:08.999Z</time></trkpt><trkpt lat="38.06957115228578" lon="15.850324058178677"><ele>1304.0</ele><time>2026-04-25T09:51:09.999Z</time></trkpt><trkpt lat="38.06958127163554" lon="15.85040737422941"><ele>1304.0</ele><time>2026-04-25T09:51:10.999Z</time></trkpt><trkpt lat="38.069653086510264" lon="15.850525930234603"><ele>1304.0</ele><time>2026-04-25T09:51:13.999Z</time></trkpt><trkpt lat="38.069727925243264" lon="15.850538561891264"><ele>1304.0</ele><time>2026-04-25T09:51:14.999Z</time></trkpt><trkpt lat="38.069791462967046" lon="15.85052897321736"><ele>1304.0</ele><time>2026-04-25T09:51:16Z</time></trkpt><trkpt lat="38.06986364882297" lon="15.85048577956021"><ele>1304.0</ele><time>2026-04-25T09:51:17Z</time></trkpt><trkpt lat="38.06996571029977" lon="15.850413183861344"><ele>1303.6666666666667</ele><time>2026-04-25T09:51:19Z</time></trkpt><trkpt lat="38.07003185225565" lon="15.850370307718157"><ele>1303.3333333333335</ele><time>2026-04-25T09:51:20Z</time></trkpt><trkpt lat="38.07010310528731" lon="15.850300288415834"><ele>1303.0</ele><time>2026-04-25T09:51:21Z</time></trkpt><trkpt lat="38.07017117936165" lon="15.850241241853395"><ele>1302.6666666666667</ele><time>2026-04-25T09:51:23Z</time></trkpt><trkpt lat="38.07024304519228" lon="15.85014404999867"><ele>1302.3333333333333</ele><time>2026-04-25T09:51:25Z</time></trkpt><trkpt lat="38.070317361261736" lon="15.850080866526753"><ele>1302.0</ele><time>2026-04-25T09:51:27Z</time></trkpt><trkpt lat="38.07041410581643" lon="15.85007612406977"><ele>1302.0</ele><time>2026-04-25T09:51:29Z</time></trkpt><trkpt lat="38.07048826137897" lon="15.85010629921058"><ele>1302.0</ele><time>2026-04-25T09:51:30Z</time></trkpt><trkpt lat="38.07059164934152" lon="15.850137731676995"><ele>1302.0</ele><time>2026-04-25T09:51:32Z</time></trkpt><trkpt lat="38.07062821998296" lon="15.850240671135"><ele>1302.0</ele><time>2026-04-25T09:51:34Z</time></trkpt><trkpt lat="38.07064897556172" lon="15.850361306137888"><ele>1302.0</ele><time>2026-04-25T09:51:36Z</time></trkpt><trkpt lat="38.07067545961812" lon="15.85052967453278"><ele>1302.0</ele><time>2026-04-25T09:51:38Z</time></trkpt><trkpt lat="38.07071527871774" lon="15.850623866168718"><ele>1302.0</ele><time>2026-04-25T09:51:39Z</time></trkpt><trkpt lat="38.07076511338332" lon="15.850720397568601"><ele>1302.0</ele><time>2026-04-25T09:51:40Z</time></trkpt><trkpt lat="38.07081683556641" lon="15.850850407756909"><ele>1302.0</ele><time>2026-04-25T09:51:42Z</time></trkpt><trkpt lat="38.07084139267495" lon="15.850939934008464"><ele>1302.0</ele><time>2026-04-25T09:51:43Z</time></trkpt><trkpt lat="38.070900316037765" lon="15.851006938299633"><ele>1302.0</ele><time>2026-04-25T09:51:44Z</time></trkpt><trkpt lat="38.07092090224076" lon="15.851127324419497"><ele>1302.5</ele><time>2026-04-25T09:51:45Z</time></trkpt><trkpt lat="38.07093866633217" lon="15.85121415334755"><ele>1303.0</ele><time>2026-04-25T09:51:46Z</time></trkpt><trkpt lat="38.07096936640077" lon="15.8513122875123"><ele>1303.5</ele><time>2026-04-25T09:51:47Z</time></trkpt><trkpt lat="38.07099148381142" lon="15.85141961398375"><ele>1304.0</ele><time>2026-04-25T09:51:48Z</time></trkpt><trkpt lat="38.07100446984281" lon="15.85150919450693"><ele>1304.5</ele><time>2026-04-25T09:51:49Z</time></trkpt><trkpt lat="38.07100497600143" lon="15.8515957512846"><ele>1305.0</ele><time>2026-04-25T09:51:51Z</time></trkpt><trkpt lat="38.071073681966496" lon="15.851706430182011"><ele>1304.5</ele><time>2026-04-25T09:51:52.001Z</time></trkpt><trkpt lat="38.07110149774792" lon="15.851796921391204"><ele>1304.0</ele><time>2026-04-25T09:51:53.001Z</time></trkpt><trkpt lat="38.0711472443014" lon="15.851890841737323"><ele>1303.5</ele><time>2026-04-25T09:51:54.001Z</time></trkpt><trkpt lat="38.07117193472683" lon="15.851969077458111"><ele>1303.0</ele><time>2026-04-25T09:51:55.001Z</time></trkpt><trkpt lat="38.07121226057731" lon="15.85204602985308"><ele>1302.5</ele><time>2026-04-25T09:51:56.001Z</time></trkpt><trkpt lat="38.071292167049975" lon="15.852148418835759"><ele>1302.0</ele><time>2026-04-25T09:51:58.001Z</time></trkpt><trkpt lat="38.07135335695326" lon="15.852238360455592"><ele>1302.0</ele><time>2026-04-25T09:51:59.001Z</time></trkpt><trkpt lat="38.07140654344695" lon="15.852290744852224"><ele>1302.0</ele><time>2026-04-25T09:52:00.001Z</time></trkpt><trkpt lat="38.07153491691475" lon="15.852355306057069"><ele>1302.0</ele><time>2026-04-25T09:52:02.001Z</time></trkpt><trkpt lat="38.07160351936967" lon="15.852381707227607"><ele>1302.0</ele><time>2026-04-25T09:52:03.001Z</time></trkpt><trkpt lat="38.07168165368899" lon="15.852440484893172"><ele>1302.0</ele><time>2026-04-25T09:52:05.001Z</time></trkpt><trkpt lat="38.07173574373873" lon="15.852566787443763"><ele>1300.8333333333333</ele><time>2026-04-25T09:52:07.001Z</time></trkpt><trkpt lat="38.07175631593401" lon="15.852665774605926"><ele>1299.6666666666667</ele><time>2026-04-25T09:52:08.001Z</time></trkpt><trkpt lat="38.0717823040334" lon="15.852742123218038"><ele>1298.5</ele><time>2026-04-25T09:52:09.001Z</time></trkpt><trkpt lat="38.07181140015753" lon="15.852820299107574"><ele>1297.3333333333335</ele><time>2026-04-25T09:52:10.001Z</time></trkpt><trkpt lat="38.07185448237885" lon="15.852885478642277"><ele>1296.1666666666667</ele><time>2026-04-25T09:52:11.001Z</time></trkpt><trkpt lat="38.071931893920485" lon="15.852992993310778"><ele>1295.0</ele><time>2026-04-25T09:52:13.001Z</time></trkpt><trkpt lat="38.071999612219074" lon="15.853023068182903"><ele>1295.0</ele><time>2026-04-25T09:52:14.001Z</time></trkpt><trkpt lat="38.0720628016071" lon="15.853077124443576"><ele>1295.0</ele><time>2026-04-25T09:52:15.001Z</time></trkpt><trkpt lat="38.07212285501288" lon="15.85310581891916"><ele>1295.0</ele><time>2026-04-25T09:52:16.001Z</time></trkpt><trkpt lat="38.072243045992444" lon="15.853166814101913"><ele>1295.0</ele><time>2026-04-25T09:52:18.001Z</time></trkpt><trkpt lat="38.07232100356066" lon="15.853196643348731"><ele>1295.0</ele><time>2026-04-25T09:52:19.001Z</time></trkpt><trkpt lat="38.07238222307201" lon="15.85322195174566"><ele>1295.0</ele><time>2026-04-25T09:52:20.001Z</time></trkpt><trkpt lat="38.07244664427565" lon="15.853265135717105"><ele>1294.6</ele><time>2026-04-25T09:52:21.001Z</time></trkpt><trkpt lat="38.07258592561815" lon="15.85334881868293"><ele>1294.2</ele><time>2026-04-25T09:52:23.001Z</time></trkpt><trkpt lat="38.07266108718495" lon="15.853388472438551"><ele>1293.8000000000002</ele><time>2026-04-25T09:52:24.001Z</time></trkpt><trkpt lat="38.072732796522736" lon="15.853463906612907"><ele>1293.4</ele><time>2026-04-25T09:52:25.001Z</time></trkpt><trkpt lat="38.07280020413479" lon="15.853527154679798"><ele>1293.0</ele><time>2026-04-25T09:52:26.001Z</time></trkpt><trkpt lat="38.072864826737806" lon="15.853592462875984"><ele>1293.0</ele><time>2026-04-25T09:52:27.001Z</time></trkpt><trkpt lat="38.0729215769157" lon="15.853658256062232"><ele>1293.0</ele><time>2026-04-25T09:52:28.001Z</time></trkpt><trkpt lat="38.07297150720269" lon="15.853714083633777"><ele>1293.0</ele><time>2026-04-25T09:52:29.001Z</time></trkpt><trkpt lat="38.07300455856172" lon="15.853864531342637"><ele>1293.0</ele><time>2026-04-25T09:52:31.001Z</time></trkpt><trkpt lat="38.07299635512977" lon="15.853963425406077"><ele>1293.0</ele><time>2026-04-25T09:52:32.001Z</time></trkpt><trkpt lat="38.072972658263765" lon="15.854059257708727"><ele>1293.0</ele><time>2026-04-25T09:52:33.001Z</time></trkpt><trkpt lat="38.072950731341315" lon="15.854139279840975"><ele>1293.0</ele><time>2026-04-25T09:52:34.001Z</time></trkpt><trkpt lat="38.07291914310432" lon="15.854212297087752"><ele>1293.0</ele><time>2026-04-25T09:52:35.001Z</time></trkpt><trkpt lat="38.07283954502227" lon="15.854326930198539"><ele>1293.0</ele><time>2026-04-25T09:52:37.001Z</time></trkpt><trkpt lat="38.0727928393718" lon="15.854400758537738"><ele>1293.0</ele><time>2026-04-25T09:52:38.001Z</time></trkpt><trkpt lat="38.072748547313196" lon="15.854479681178226"><ele>1293.0</ele><time>2026-04-25T09:52:39.001Z</time></trkpt><trkpt lat="38.07268587605081" lon="15.854595581175948"><ele>1293.0</ele><time>2026-04-25T09:52:41.002Z</time></trkpt><trkpt lat="38.0726116534954" lon="15.85466531409498"><ele>1292.6666666666667</ele><time>2026-04-25T09:52:43.002Z</time></trkpt><trkpt lat="38.07255290386856" lon="15.854709954954515"><ele>1292.3333333333333</ele><time>2026-04-25T09:52:44.002Z</time></trkpt><trkpt lat="38.072477042615255" lon="15.854718998409403"><ele>1292.0</ele><time>2026-04-25T09:52:45.002Z</time></trkpt><trkpt lat="38.07240330786897" lon="15.854805712879863"><ele>1291.6666666666665</ele><time>2026-04-25T09:52:47.002Z</time></trkpt><trkpt lat="38.07243504748152" lon="15.854927147075665"><ele>1291.3333333333333</ele><time>2026-04-25T09:52:49.002Z</time></trkpt><trkpt lat="38.072477767674904" lon="15.854998862360114"><ele>1291.0</ele><time>2026-04-25T09:52:50.002Z</time></trkpt><trkpt lat="38.07251909527096" lon="15.855143104737627"><ele>1291.0</ele><time>2026-04-25T09:52:52.002Z</time></trkpt><trkpt lat="38.07252564096388" lon="15.855229792626227"><ele>1291.0</ele><time>2026-04-25T09:52:53.002Z</time></trkpt><trkpt lat="38.072529751638875" lon="15.855318144803118"><ele>1291.0</ele><time>2026-04-25T09:52:54.002Z</time></trkpt><trkpt lat="38.072543305501995" lon="15.855404228994315"><ele>1291.0</ele><time>2026-04-25T09:52:55.002Z</time></trkpt><trkpt lat="38.07254089302011" lon="15.855493609064625"><ele>1291.0</ele><time>2026-04-25T09:52:56.002Z</time></trkpt><trkpt lat="38.07255278927235" lon="15.855636589477626"><ele>1291.0</ele><time>2026-04-25T09:52:58.002Z</time></trkpt><trkpt lat="38.072587258003445" lon="15.855757092218663"><ele>1291.0</ele><time>2026-04-25T09:53:01.002Z</time></trkpt><trkpt lat="38.07266016994945" lon="15.855776042238109"><ele>1291.0</ele><time>2026-04-25T09:53:02.999Z</time></trkpt><trkpt lat="38.07276798120374" lon="15.855725263510752"><ele>1291.0</ele><time>2026-04-25T09:53:04.999Z</time></trkpt><trkpt lat="38.07289447309831" lon="15.85572247778438"><ele>1291.0</ele><time>2026-04-25T09:53:06.999Z</time></trkpt><trkpt lat="38.07295690089942" lon="15.85569802382403"><ele>1291.0</ele><time>2026-04-25T09:53:07.999Z</time></trkpt><trkpt lat="38.07303497368167" lon="15.855595707934736"><ele>1291.0</ele><time>2026-04-25T09:53:09.999Z</time></trkpt><trkpt lat="38.07311636990152" lon="15.855515543555718"><ele>1291.0</ele><time>2026-04-25T09:53:11.999Z</time></trkpt><trkpt lat="38.073183051667264" lon="15.855556052967813"><ele>1291.0</ele><time>2026-04-25T09:53:13.999Z</time></trkpt><trkpt lat="38.0731471076068" lon="15.855650175320987"><ele>1291.0</ele><time>2026-04-25T09:53:24Z</time></trkpt><trkpt lat="38.07311765476154" lon="15.855783043790199"><ele>1291.0</ele><time>2026-04-25T09:53:26Z</time></trkpt><trkpt lat="38.073093460470375" lon="15.855912082911885"><ele>1289.3333333333333</ele><time>2026-04-25T09:53:28Z</time></trkpt><trkpt lat="38.07309116424861" lon="15.855992769600684"><ele>1287.6666666666665</ele><time>2026-04-25T09:53:29Z</time></trkpt><trkpt lat="38.07307092711049" lon="15.856126688163286"><ele>1286.0</ele><time>2026-04-25T09:53:31Z</time></trkpt><trkpt lat="38.07313108842804" lon="15.856214446304895"><ele>1284.3333333333333</ele><time>2026-04-25T09:53:34Z</time></trkpt><trkpt lat="38.07321623687108" lon="15.856195545755009"><ele>1282.6666666666667</ele><time>2026-04-25T09:53:36Z</time></trkpt><trkpt lat="38.07329435531999" lon="15.8561171311449"><ele>1281.0</ele><time>2026-04-25T09:53:38Z</time></trkpt><trkpt lat="38.07333297354134" lon="15.85602148679754"><ele>1286.0</ele><time>2026-04-25T09:53:40Z</time></trkpt><trkpt lat="38.07335846757392" lon="15.855903692229102"><ele>1291.0</ele><time>2026-04-25T09:53:42Z</time></trkpt><trkpt lat="38.07340132818631" lon="15.855813169120092"><ele>1296.0</ele><time>2026-04-25T09:53:44Z</time></trkpt><trkpt lat="38.07347891318187" lon="15.855790903172839"><ele>1301.0</ele><time>2026-04-25T09:53:46Z</time></trkpt><trkpt lat="38.0735146197057" lon="15.855925529952144"><ele>1306.0</ele><time>2026-04-25T09:53:49Z</time></trkpt><trkpt lat="38.073525656613675" lon="15.856059958309762"><ele>1306.0</ele><time>2026-04-25T09:53:51Z</time></trkpt><trkpt lat="38.07354406397311" lon="15.856204464461323"><ele>1306.0</ele><time>2026-04-25T09:53:53Z</time></trkpt><trkpt lat="38.07353495832489" lon="15.856285696231152"><ele>1306.0</ele><time>2026-04-25T09:53:54.001Z</time></trkpt><trkpt lat="38.07357296983899" lon="15.856429106022752"><ele>1306.0</ele><time>2026-04-25T09:53:56.001Z</time></trkpt><trkpt lat="38.073659371928144" lon="15.856517794886216"><ele>1306.0</ele><time>2026-04-25T09:53:58.001Z</time></trkpt><trkpt lat="38.07371566623816" lon="15.856556627003778"><ele>1306.0</ele><time>2026-04-25T09:53:59.001Z</time></trkpt><trkpt lat="38.07377943221977" lon="15.85659082688799"><ele>1306.0</ele><time>2026-04-25T09:54:00.001Z</time></trkpt><trkpt lat="38.07384679340572" lon="15.856635928065954"><ele>1306.0</ele><time>2026-04-25T09:54:01.001Z</time></trkpt><trkpt lat="38.07391139058179" lon="15.856666041430488"><ele>1306.0</ele><time>2026-04-25T09:54:02.001Z</time></trkpt><trkpt lat="38.07402636413653" lon="15.85663042458969"><ele>1306.0</ele><time>2026-04-25T09:54:04.001Z</time></trkpt><trkpt lat="38.07408774274918" lon="15.856575461461395"><ele>1306.0</ele><time>2026-04-25T09:54:05.001Z</time></trkpt><trkpt lat="38.074131203804235" lon="15.85650093742086"><ele>1309.6666666666665</ele><time>2026-04-25T09:54:06.001Z</time></trkpt><trkpt lat="38.07424320234584" lon="15.856489041322119"><ele>1313.3333333333333</ele><time>2026-04-25T09:54:08.001Z</time></trkpt><trkpt lat="38.07432259552596" lon="15.856494432757511"><ele>1317.0</ele><time>2026-04-25T09:54:09.001Z</time></trkpt><trkpt lat="38.07440102072381" lon="15.856511622610611"><ele>1320.6666666666667</ele><time>2026-04-25T09:54:10.001Z</time></trkpt><trkpt lat="38.07447371431201" lon="15.856533494057"><ele>1324.3333333333335</ele><time>2026-04-25T09:54:11.001Z</time></trkpt><trkpt lat="38.07453836236913" lon="15.856568174604982"><ele>1328.0</ele><time>2026-04-25T09:54:12.001Z</time></trkpt><trkpt lat="38.07458433845398" lon="15.856622828559429"><ele>1328.0</ele><time>2026-04-25T09:54:13.001Z</time></trkpt><trkpt lat="38.07462729545264" lon="15.856687850270152"><ele>1328.0</ele><time>2026-04-25T09:54:14.001Z</time></trkpt><trkpt lat="38.074720422268875" lon="15.856766875567915"><ele>1328.0</ele><time>2026-04-25T09:54:16.001Z</time></trkpt><trkpt lat="38.07484549480803" lon="15.856801400695947"><ele>1328.0</ele><time>2026-04-25T09:54:18.001Z</time></trkpt><trkpt lat="38.07492081693746" lon="15.85681231620458"><ele>1328.0</ele><time>2026-04-25T09:54:19.001Z</time></trkpt><trkpt lat="38.075003440661895" lon="15.856822055504546"><ele>1328.8333333333335</ele><time>2026-04-25T09:54:20.001Z</time></trkpt><trkpt lat="38.07507600612043" lon="15.85681613187077"><ele>1329.6666666666667</ele><time>2026-04-25T09:54:21.001Z</time></trkpt><trkpt lat="38.07514245959235" lon="15.856804391482493"><ele>1330.5</ele><time>2026-04-25T09:54:22.001Z</time></trkpt><trkpt lat="38.07521308425634" lon="15.856777545382647"><ele>1331.3333333333333</ele><time>2026-04-25T09:54:23.001Z</time></trkpt><trkpt lat="38.075289033018194" lon="15.856750441669567"><ele>1332.1666666666665</ele><time>2026-04-25T09:54:24.001Z</time></trkpt><trkpt lat="38.07536636216216" lon="15.856731395341018"><ele>1333.0</ele><time>2026-04-25T09:54:25.001Z</time></trkpt><trkpt lat="38.075447892631104" lon="15.85671981514627"><ele>1333.0</ele><time>2026-04-25T09:54:26.001Z</time></trkpt><trkpt lat="38.07554026324358" lon="15.856711327387826"><ele>1333.0</ele><time>2026-04-25T09:54:27.001Z</time></trkpt><trkpt lat="38.07562428949503" lon="15.85670930054402"><ele>1333.0</ele><time>2026-04-25T09:54:28.001Z</time></trkpt><trkpt lat="38.07569659886497" lon="15.856702131046893"><ele>1333.0</ele><time>2026-04-25T09:54:29.001Z</time></trkpt><trkpt lat="38.07578001108167" lon="15.856693813117426"><ele>1333.0</ele><time>2026-04-25T09:54:30.001Z</time></trkpt><trkpt lat="38.0758497276067" lon="15.856680139136559"><ele>1333.0</ele><time>2026-04-25T09:54:31.001Z</time></trkpt><trkpt lat="38.07592618424908" lon="15.856651250723086"><ele>1331.5</ele><time>2026-04-25T09:54:32.001Z</time></trkpt><trkpt lat="38.07599914236644" lon="15.856601662690021"><ele>1330.0</ele><time>2026-04-25T09:54:33.001Z</time></trkpt><trkpt lat="38.0760597148017" lon="15.85654480943088"><ele>1328.5</ele><time>2026-04-25T09:54:34.001Z</time></trkpt><trkpt lat="38.07610309762462" lon="15.856483121453518"><ele>1327.0</ele><time>2026-04-25T09:54:35.001Z</time></trkpt><trkpt lat="38.076169178138514" lon="15.856396795131904"><ele>1325.5</ele><time>2026-04-25T09:54:37.001Z</time></trkpt><trkpt lat="38.076271033195475" lon="15.856369927649963"><ele>1324.0</ele><time>2026-04-25T09:54:39.002Z</time></trkpt><trkpt lat="38.076338355219754" lon="15.85636170245126"><ele>1324.0</ele><time>2026-04-25T09:54:40.002Z</time></trkpt><trkpt lat="38.07640681143609" lon="15.856350594791508"><ele>1324.0</ele><time>2026-04-25T09:54:41.002Z</time></trkpt><trkpt lat="38.07648159929094" lon="15.856347638559516"><ele>1324.0</ele><time>2026-04-25T09:54:42.002Z</time></trkpt><trkpt lat="38.07656356563662" lon="15.856338894636675"><ele>1324.0</ele><time>2026-04-25T09:54:43.002Z</time></trkpt><trkpt lat="38.0766992928219" lon="15.856325670915654"><ele>1324.0</ele><time>2026-04-25T09:54:45.002Z</time></trkpt><trkpt lat="38.076789014000376" lon="15.856351610251833"><ele>1324.0</ele><time>2026-04-25T09:54:47.002Z</time></trkpt><trkpt lat="38.07687342618089" lon="15.85635315611023"><ele>1324.0</ele><time>2026-04-25T09:54:49.002Z</time></trkpt><trkpt lat="38.07692561974075" lon="15.856408724661604"><ele>1324.0</ele><time>2026-04-25T09:54:52.002Z</time></trkpt><trkpt lat="38.07691934768007" lon="15.856512751101928"><ele>1324.0</ele><time>2026-04-25T09:54:54.002Z</time></trkpt><trkpt lat="38.0769064837746" lon="15.856617726495838"><ele>1324.0</ele><time>2026-04-25T09:54:56.002Z</time></trkpt><trkpt lat="38.076941638361305" lon="15.856691320256912"><ele>1324.0</ele><time>2026-04-25T09:54:57.002Z</time></trkpt><trkpt lat="38.07699333524692" lon="15.856752896408794"><ele>1325.8000000000002</ele><time>2026-04-25T09:54:58.002Z</time></trkpt><trkpt lat="38.07711017561649" lon="15.856842508349509"><ele>1327.6000000000001</ele><time>2026-04-25T09:55:00.002Z</time></trkpt><trkpt lat="38.07717570161993" lon="15.85685708179284"><ele>1329.4</ele><time>2026-04-25T09:55:01.002Z</time></trkpt><trkpt lat="38.077252178431245" lon="15.85695111334669"><ele>1331.2</ele><time>2026-04-25T09:55:03.002Z</time></trkpt><trkpt lat="38.07725557317261" lon="15.857047411495918"><ele>1333.0</ele><time>2026-04-25T09:55:05.002Z</time></trkpt><trkpt lat="38.07716009908794" lon="15.857079403515858"><ele>1333.0</ele><time>2026-04-25T09:55:08.998Z</time></trkpt><trkpt lat="38.07705681532681" lon="15.857098322122374"><ele>1333.0</ele><time>2026-04-25T09:55:09.998Z</time></trkpt><trkpt lat="38.07695892362423" lon="15.85712410631904"><ele>1333.0</ele><time>2026-04-25T09:55:10.998Z</time></trkpt><trkpt lat="38.07689074134034" lon="15.857138420601588"><ele>1333.0</ele><time>2026-04-25T09:55:11.998Z</time></trkpt><trkpt lat="38.07681126912782" lon="15.85713736407502"><ele>1333.0</ele><time>2026-04-25T09:55:12.998Z</time></trkpt><trkpt lat="38.076729176041596" lon="15.857139400187593"><ele>1333.0</ele><time>2026-04-25T09:55:13.998Z</time></trkpt><trkpt lat="38.07660994265101" lon="15.857128060673528"><ele>1327.5</ele><time>2026-04-25T09:55:15.998Z</time></trkpt><trkpt lat="38.07650268736374" lon="15.857184483732679"><ele>1322.0</ele><time>2026-04-25T09:55:17.998Z</time></trkpt><trkpt lat="38.07642674183748" lon="15.857320439768356"><ele>1316.5</ele><time>2026-04-25T09:55:19.999Z</time></trkpt><trkpt lat="38.0763736535096" lon="15.857447495005726"><ele>1311.0</ele><time>2026-04-25T09:55:21.999Z</time></trkpt><trkpt lat="38.07630547296652" lon="15.85752707047597"><ele>1311.0</ele><time>2026-04-25T09:55:24.999Z</time></trkpt><trkpt lat="38.07624914783184" lon="15.85760157194851"><ele>1311.0</ele><time>2026-04-25T09:55:25.999Z</time></trkpt><trkpt lat="38.07621989689556" lon="15.857678810989306"><ele>1311.0</ele><time>2026-04-25T09:55:26.999Z</time></trkpt><trkpt lat="38.07619186364271" lon="15.857825728091381"><ele>1311.0</ele><time>2026-04-25T09:55:28.999Z</time></trkpt><trkpt lat="38.07617089025079" lon="15.857911860087142"><ele>1311.0</ele><time>2026-04-25T09:55:29.999Z</time></trkpt><trkpt lat="38.07616160881077" lon="15.85799127153028"><ele>1311.0</ele><time>2026-04-25T09:55:30.999Z</time></trkpt><trkpt lat="38.07613591771179" lon="15.858089022130905"><ele>1312.6</ele><time>2026-04-25T09:55:31.999Z</time></trkpt><trkpt lat="38.07609330768959" lon="15.85825168649871"><ele>1314.1999999999998</ele><time>2026-04-25T09:55:33.999Z</time></trkpt><trkpt lat="38.076027585660064" lon="15.85838938416469"><ele>1315.8000000000002</ele><time>2026-04-25T09:55:35.999Z</time></trkpt><trkpt lat="38.07601056140953" lon="15.858470379734744"><ele>1317.4</ele><time>2026-04-25T09:55:36.999Z</time></trkpt><trkpt lat="38.07599472493756" lon="15.858559669733415"><ele>1319.0</ele><time>2026-04-25T09:55:37.999Z</time></trkpt><trkpt lat="38.07598286634506" lon="15.858643631917323"><ele>1321.0</ele><time>2026-04-25T09:55:38.999Z</time></trkpt><trkpt lat="38.075985367926926" lon="15.858734357101824"><ele>1323.0</ele><time>2026-04-25T09:55:40Z</time></trkpt><trkpt lat="38.07597428196772" lon="15.858897587757859"><ele>1325.0</ele><time>2026-04-25T09:55:42Z</time></trkpt><trkpt lat="38.07595395464904" lon="15.859000564629035"><ele>1327.0</ele><time>2026-04-25T09:55:43Z</time></trkpt><trkpt lat="38.07593772176525" lon="15.859099943174702"><ele>1329.0</ele><time>2026-04-25T09:55:44Z</time></trkpt><trkpt lat="38.07592483856047" lon="15.859195450609372"><ele>1331.0</ele><time>2026-04-25T09:55:45Z</time></trkpt><trkpt lat="38.07591346960951" lon="15.859279924373359"><ele>1333.1666666666667</ele><time>2026-04-25T09:55:46Z</time></trkpt><trkpt lat="38.07589717406943" lon="15.859378379237901"><ele>1335.3333333333335</ele><time>2026-04-25T09:55:47Z</time></trkpt><trkpt lat="38.075880338920385" lon="15.859467132583525"><ele>1337.5</ele><time>2026-04-25T09:55:48Z</time></trkpt><trkpt lat="38.07586847140124" lon="15.859561949210178"><ele>1339.6666666666667</ele><time>2026-04-25T09:55:49Z</time></trkpt><trkpt lat="38.07585107587468" lon="15.859674238882173"><ele>1341.8333333333333</ele><time>2026-04-25T09:55:50Z</time></trkpt><trkpt lat="38.075846244987666" lon="15.859771071703328"><ele>1344.0</ele><time>2026-04-25T09:55:51Z</time></trkpt><trkpt lat="38.07585465803344" lon="15.859852939577518"><ele>1344.0</ele><time>2026-04-25T09:55:52Z</time></trkpt><trkpt lat="38.07587195646984" lon="15.85993843178984"><ele>1344.0</ele><time>2026-04-25T09:55:53Z</time></trkpt><trkpt lat="38.07589401687258" lon="15.86003745039764"><ele>1344.0</ele><time>2026-04-25T09:55:54Z</time></trkpt><trkpt lat="38.07592202347549" lon="15.86013143695869"><ele>1344.0</ele><time>2026-04-25T09:55:55Z</time></trkpt><trkpt lat="38.075973215151315" lon="15.860259648498408"><ele>1344.0</ele><time>2026-04-25T09:55:57Z</time></trkpt><trkpt lat="38.07596959279834" lon="15.860356762761416"><ele>1344.0</ele><time>2026-04-25T09:55:59Z</time></trkpt><trkpt lat="38.07587774223867" lon="15.86038190314634"><ele>1344.5</ele><time>2026-04-25T09:56:02Z</time></trkpt><trkpt lat="38.07576416315768" lon="15.860349341808899"><ele>1345.0</ele><time>2026-04-25T09:56:04Z</time></trkpt><trkpt lat="38.07570257762927" lon="15.860324358390052"><ele>1345.5</ele><time>2026-04-25T09:56:05Z</time></trkpt><trkpt lat="38.075631049258696" lon="15.860309227041931"><ele>1346.0</ele><time>2026-04-25T09:56:06Z</time></trkpt><trkpt lat="38.075558653093594" lon="15.860294350141999"><ele>1346.5</ele><time>2026-04-25T09:56:07Z</time></trkpt><trkpt lat="38.075497320414094" lon="15.860263347094536"><ele>1347.0</ele><time>2026-04-25T09:56:08Z</time></trkpt><trkpt lat="38.075439610117314" lon="15.860205576727873"><ele>1347.0</ele><time>2026-04-25T09:56:09Z</time></trkpt><trkpt lat="38.0753747546823" lon="15.860144294808896"><ele>1347.0</ele><time>2026-04-25T09:56:10Z</time></trkpt><trkpt lat="38.075315733890974" lon="15.86009306890619"><ele>1347.0</ele><time>2026-04-25T09:56:11.001Z</time></trkpt><trkpt lat="38.07521461923456" lon="15.860084624798702"><ele>1347.0</ele><time>2026-04-25T09:56:13.001Z</time></trkpt><trkpt lat="38.07511303176943" lon="15.860183173496676"><ele>1347.0</ele><time>2026-04-25T09:56:15.001Z</time></trkpt><trkpt lat="38.07507119958848" lon="15.860256112479052"><ele>1347.0</ele><time>2026-04-25T09:56:16.001Z</time></trkpt><trkpt lat="38.0750266568766" lon="15.86033679946615"><ele>1347.0</ele><time>2026-04-25T09:56:17.001Z</time></trkpt><trkpt lat="38.07498334361225" lon="15.860419066531172"><ele>1347.0</ele><time>2026-04-25T09:56:18.001Z</time></trkpt><trkpt lat="38.07493025357417" lon="15.860539973705999"><ele>1347.0</ele><time>2026-04-25T09:56:20.001Z</time></trkpt><trkpt lat="38.074923142574114" lon="15.860701359246267"><ele>1347.0</ele><time>2026-04-25T09:56:22.001Z</time></trkpt><trkpt lat="38.07494219404132" lon="15.860786705280749"><ele>1347.0</ele><time>2026-04-25T09:56:23.001Z</time></trkpt><trkpt lat="38.07497462947703" lon="15.860879188750944"><ele>1347.0</ele><time>2026-04-25T09:56:24.001Z</time></trkpt><trkpt lat="38.07500824059199" lon="15.860971190137814"><ele>1347.0</ele><time>2026-04-25T09:56:25.001Z</time></trkpt><trkpt lat="38.07503199745777" lon="15.861061366027425"><ele>1347.0</ele><time>2026-04-25T09:56:26.001Z</time></trkpt><trkpt lat="38.07504073360995" lon="15.86114638027049"><ele>1347.0</ele><time>2026-04-25T09:56:27.001Z</time></trkpt><trkpt lat="38.07502739188256" lon="15.861241064809805"><ele>1347.0</ele><time>2026-04-25T09:56:28.001Z</time></trkpt><trkpt lat="38.07496984287499" lon="15.86145516782855"><ele>1347.0</ele><time>2026-04-25T09:56:30.001Z</time></trkpt><trkpt lat="38.07495216797413" lon="15.861549500031247"><ele>1347.0</ele><time>2026-04-25T09:56:31.001Z</time></trkpt><trkpt lat="38.074930033032736" lon="15.861651296227876"><ele>1347.0</ele><time>2026-04-25T09:56:32.001Z</time></trkpt><trkpt lat="38.07490821904833" lon="15.861732914181442"><ele>1347.0</ele><time>2026-04-25T09:56:33.001Z</time></trkpt><trkpt lat="38.07485938241336" lon="15.861841496942574"><ele>1347.0</ele><time>2026-04-25T09:56:35.001Z</time></trkpt><trkpt lat="38.07478636803037" lon="15.861870847920429"><ele>1347.0</ele><time>2026-04-25T09:56:37.001Z</time></trkpt><trkpt lat="38.07468974204239" lon="15.861837962532428"><ele>1347.0</ele><time>2026-04-25T09:56:39.001Z</time></trkpt><trkpt lat="38.07463142591359" lon="15.861730520223318"><ele>1347.0</ele><time>2026-04-25T09:56:41.001Z</time></trkpt><trkpt lat="38.0745295541972" lon="15.861643171030728"><ele>1347.0</ele><time>2026-04-25T09:56:43.001Z</time></trkpt><trkpt lat="38.07444731365731" lon="15.861634556722736"><ele>1347.0</ele><time>2026-04-25T09:56:44.001Z</time></trkpt><trkpt lat="38.07436556988389" lon="15.861640800607871"><ele>1347.0</ele><time>2026-04-25T09:56:45.001Z</time></trkpt><trkpt lat="38.07428741859145" lon="15.861637196117842"><ele>1347.0</ele><time>2026-04-25T09:56:46.002Z</time></trkpt><trkpt lat="38.07422065547311" lon="15.861607071190408"><ele>1347.0</ele><time>2026-04-25T09:56:47.002Z</time></trkpt><trkpt lat="38.074103324334885" lon="15.861611897017967"><ele>1347.0</ele><time>2026-04-25T09:56:49.002Z</time></trkpt><trkpt lat="38.07404138796095" lon="15.861663828491949"><ele>1347.0</ele><time>2026-04-25T09:56:50.002Z</time></trkpt><trkpt lat="38.07398790052746" lon="15.861739073941107"><ele>1347.0</ele><time>2026-04-25T09:56:51.002Z</time></trkpt><trkpt lat="38.073947678346215" lon="15.861820904841718"><ele>1347.0</ele><time>2026-04-25T09:56:52.002Z</time></trkpt><trkpt lat="38.07392610911713" lon="15.861915810562254"><ele>1347.6666666666667</ele><time>2026-04-25T09:56:53.002Z</time></trkpt><trkpt lat="38.073913511279535" lon="15.862022713257941"><ele>1348.3333333333333</ele><time>2026-04-25T09:56:54.002Z</time></trkpt><trkpt lat="38.07390796213577" lon="15.862127473724367"><ele>1349.0</ele><time>2026-04-25T09:56:55.002Z</time></trkpt><trkpt lat="38.07389770404326" lon="15.862223815509733"><ele>1349.6666666666665</ele><time>2026-04-25T09:56:56.002Z</time></trkpt><trkpt lat="38.07387601136183" lon="15.86230826913874"><ele>1350.3333333333333</ele><time>2026-04-25T09:56:57.002Z</time></trkpt><trkpt lat="38.07383397343419" lon="15.862385182334078"><ele>1351.0</ele><time>2026-04-25T09:56:58.002Z</time></trkpt><trkpt lat="38.073761041732006" lon="15.862447134378536"><ele>1351.0</ele><time>2026-04-25T09:56:59.002Z</time></trkpt><trkpt lat="38.07368056756253" lon="15.86247621345058"><ele>1351.0</ele><time>2026-04-25T09:57:00.002Z</time></trkpt><trkpt lat="38.07360152855897" lon="15.862472061940043"><ele>1351.0</ele><time>2026-04-25T09:57:01.002Z</time></trkpt><trkpt lat="38.07352580249079" lon="15.862467469428582"><ele>1351.0</ele><time>2026-04-25T09:57:02.002Z</time></trkpt><trkpt lat="38.073472570234934" lon="15.862512920587688"><ele>1351.0</ele><time>2026-04-25T09:57:05.002Z</time></trkpt><trkpt lat="38.073534406871225" lon="15.862587154067935"><ele>1351.0</ele><time>2026-04-25T09:57:10.002Z</time></trkpt><trkpt lat="38.073548502812955" lon="15.862707422493065"><ele>1351.5</ele><time>2026-04-25T09:57:12.002Z</time></trkpt><trkpt lat="38.073479871543135" lon="15.862823006882508"><ele>1352.0</ele><time>2026-04-25T09:57:14.002Z</time></trkpt><trkpt lat="38.073439560652474" lon="15.862901131683785"><ele>1352.5</ele><time>2026-04-25T09:57:16Z</time></trkpt><trkpt lat="38.073479500985975" lon="15.862989062242589"><ele>1353.0</ele><time>2026-04-25T09:57:54.001Z</time></trkpt><trkpt lat="38.073558031152814" lon="15.863054299408988"><ele>1353.5</ele><time>2026-04-25T09:57:56.001Z</time></trkpt><trkpt lat="38.073626870005256" lon="15.863066167520309"><ele>1354.0</ele><time>2026-04-25T09:57:57.001Z</time></trkpt><trkpt lat="38.0736935455638" lon="15.86304312921169"><ele>1354.0</ele><time>2026-04-25T09:57:58.001Z</time></trkpt><trkpt lat="38.07375744267763" lon="15.862979925913653"><ele>1354.0</ele><time>2026-04-25T09:57:59.001Z</time></trkpt><trkpt lat="38.073825928721774" lon="15.862914813812068"><ele>1354.0</ele><time>2026-04-25T09:58:00.001Z</time></trkpt><trkpt lat="38.07388474995313" lon="15.862848713783572"><ele>1354.0</ele><time>2026-04-25T09:58:01.001Z</time></trkpt><trkpt lat="38.073950729885745" lon="15.862779120322573"><ele>1354.0</ele><time>2026-04-25T09:58:02.001Z</time></trkpt><trkpt lat="38.07402921911316" lon="15.8627357483974"><ele>1354.0</ele><time>2026-04-25T09:58:03.001Z</time></trkpt><trkpt lat="38.074121271205726" lon="15.86266937127985"><ele>1355.0</ele><time>2026-04-25T09:58:04.001Z</time></trkpt><trkpt lat="38.07420544452017" lon="15.86261408319215"><ele>1356.0</ele><time>2026-04-25T09:58:05.001Z</time></trkpt><trkpt lat="38.0742838522728" lon="15.862622237182872"><ele>1357.0</ele><time>2026-04-25T09:58:06.001Z</time></trkpt><trkpt lat="38.0743458233464" lon="15.862697507076708"><ele>1358.0</ele><time>2026-04-25T09:58:08.001Z</time></trkpt><trkpt lat="38.07426752775601" lon="15.862722425937754"><ele>1359.0</ele><time>2026-04-25T09:58:09.001Z</time></trkpt><trkpt lat="38.07419726605122" lon="15.862759181055484"><ele>1360.0</ele><time>2026-04-25T09:58:10.001Z</time></trkpt><trkpt lat="38.074153722827305" lon="15.862817016337479"><ele>1361.5</ele><time>2026-04-25T09:58:11.001Z</time></trkpt><trkpt lat="38.07414377419433" lon="15.862943587820894"><ele>1363.0</ele><time>2026-04-25T09:58:13.001Z</time></trkpt><trkpt lat="38.07420365840496" lon="15.862977772516695"><ele>1364.5</ele><time>2026-04-25T09:58:14.001Z</time></trkpt><trkpt lat="38.07427810174565" lon="15.86295838056249"><ele>1366.0</ele><time>2026-04-25T09:58:15.001Z</time></trkpt><trkpt lat="38.07434339146254" lon="15.862903551859814"><ele>1367.5</ele><time>2026-04-25T09:58:16.001Z</time></trkpt><trkpt lat="38.074413801649236" lon="15.862840216390222"><ele>1369.0</ele><time>2026-04-25T09:58:17.001Z</time></trkpt><trkpt lat="38.07449413540932" lon="15.862792583483255"><ele>1369.0</ele><time>2026-04-25T09:58:18.001Z</time></trkpt><trkpt lat="38.07458743892727" lon="15.862753070963983"><ele>1369.0</ele><time>2026-04-25T09:58:19.001Z</time></trkpt><trkpt lat="38.07469777341446" lon="15.862725577092403"><ele>1369.0</ele><time>2026-04-25T09:58:20.001Z</time></trkpt><trkpt lat="38.0748106203375" lon="15.862732172265746"><ele>1369.0</ele><time>2026-04-25T09:58:21.001Z</time></trkpt><trkpt lat="38.074918737936976" lon="15.862739998549882"><ele>1369.0</ele><time>2026-04-25T09:58:22.002Z</time></trkpt><trkpt lat="38.07501370225391" lon="15.862765279385306"><ele>1369.0</ele><time>2026-04-25T09:58:23.002Z</time></trkpt><trkpt lat="38.075110089413926" lon="15.862787686104177"><ele>1369.0</ele><time>2026-04-25T09:58:24.002Z</time></trkpt><trkpt lat="38.0752078056121" lon="15.86278899585873"><ele>1369.0</ele><time>2026-04-25T09:58:25.002Z</time></trkpt><trkpt lat="38.07528608031659" lon="15.862764232610582"><ele>1369.0</ele><time>2026-04-25T09:58:26.002Z</time></trkpt><trkpt lat="38.075355314439165" lon="15.86270892412217"><ele>1369.0</ele><time>2026-04-25T09:58:27.002Z</time></trkpt><trkpt lat="38.075409023659475" lon="15.86262150896"><ele>1369.0</ele><time>2026-04-25T09:58:28.002Z</time></trkpt><trkpt lat="38.075384551962316" lon="15.862476111048126"><ele>1369.0</ele><time>2026-04-25T09:58:29.002Z</time></trkpt><trkpt lat="38.07542877977636" lon="15.862362239433116"><ele>1369.0</ele><time>2026-04-25T09:58:30.002Z</time></trkpt><trkpt lat="38.07546047703073" lon="15.862264233978353"><ele>1369.0</ele><time>2026-04-25T09:58:31.002Z</time></trkpt><trkpt lat="38.07551467749192" lon="15.862184810612371"><ele>1369.0</ele><time>2026-04-25T09:58:32.002Z</time></trkpt><trkpt lat="38.07560230337716" lon="15.862150373893195"><ele>1369.0</ele><time>2026-04-25T09:58:33.002Z</time></trkpt><trkpt lat="38.07569923320607" lon="15.86211624253086"><ele>1372.4</ele><time>2026-04-25T09:58:34.002Z</time></trkpt><trkpt lat="38.07580206392931" lon="15.862101271574517"><ele>1375.8000000000002</ele><time>2026-04-25T09:58:35.002Z</time></trkpt><trkpt lat="38.07589410030464" lon="15.862124163244705"><ele>1379.1999999999998</ele><time>2026-04-25T09:58:36.002Z</time></trkpt><trkpt lat="38.0759965086061" lon="15.862171949290959"><ele>1382.6</ele><time>2026-04-25T09:58:37.002Z</time></trkpt><trkpt lat="38.07611178645995" lon="15.862228173033001"><ele>1386.0</ele><time>2026-04-25T09:58:38.002Z</time></trkpt><trkpt lat="38.07623571181781" lon="15.862285599352122"><ele>1386.0</ele><time>2026-04-25T09:58:39.002Z</time></trkpt><trkpt lat="38.07636220303383" lon="15.862328723959912"><ele>1386.0</ele><time>2026-04-25T09:58:40.002Z</time></trkpt><trkpt lat="38.07647906843042" lon="15.862356164763009"><ele>1386.0</ele><time>2026-04-25T09:58:41.002Z</time></trkpt><trkpt lat="38.076580068777815" lon="15.862423636654746"><ele>1386.0</ele><time>2026-04-25T09:58:42.002Z</time></trkpt><trkpt lat="38.0766330479313" lon="15.86247599666798"><ele>1386.0</ele><time>2026-04-25T09:58:43.002Z</time></trkpt><trkpt lat="38.07668066671395" lon="15.862539159253528"><ele>1387.4</ele><time>2026-04-25T09:58:44.002Z</time></trkpt><trkpt lat="38.07673446935015" lon="15.862596757609332"><ele>1388.8</ele><time>2026-04-25T09:58:45.002Z</time></trkpt><trkpt lat="38.07683091717247" lon="15.862676515814924"><ele>1390.2</ele><time>2026-04-25T09:58:47.002Z</time></trkpt><trkpt lat="38.07695173127633" lon="15.862682876962694"><ele>1391.6000000000001</ele><time>2026-04-25T09:58:49.002Z</time></trkpt><trkpt lat="38.07701432392252" lon="15.862607402253078"><ele>1393.0</ele><time>2026-04-25T09:58:50.002Z</time></trkpt><trkpt lat="38.07708380864382" lon="15.862538378187109"><ele>1393.0</ele><time>2026-04-25T09:58:51.002Z</time></trkpt><trkpt lat="38.07713062836019" lon="15.862448267895205"><ele>1393.0</ele><time>2026-04-25T09:58:52.002Z</time></trkpt><trkpt lat="38.07719642167952" lon="15.862394138782705"><ele>1393.0</ele><time>2026-04-25T09:58:53.002Z</time></trkpt><trkpt lat="38.07726256350763" lon="15.862367759194289"><ele>1393.0</ele><time>2026-04-25T09:58:54.002Z</time></trkpt><trkpt lat="38.07734027575123" lon="15.862379391018303"><ele>1393.0</ele><time>2026-04-25T09:58:55.002Z</time></trkpt><trkpt lat="38.07741608321464" lon="15.862418910072646"><ele>1393.0</ele><time>2026-04-25T09:58:56.002Z</time></trkpt><trkpt lat="38.07750629160737" lon="15.86232201196537"><ele>1394.857142857143</ele><time>2026-04-25T09:58:58.003Z</time></trkpt><trkpt lat="38.07750542049842" lon="15.862229978395433"><ele>1396.7142857142858</ele><time>2026-04-25T09:58:59.003Z</time></trkpt><trkpt lat="38.07751121904497" lon="15.862141404208757"><ele>1398.5714285714284</ele><time>2026-04-25T09:59:00.003Z</time></trkpt><trkpt lat="38.077534037993175" lon="15.862051367261524"><ele>1400.4285714285716</ele><time>2026-04-25T09:59:01.003Z</time></trkpt><trkpt lat="38.07755253834946" lon="15.861951527829842"><ele>1402.2857142857142</ele><time>2026-04-25T09:59:02.003Z</time></trkpt><trkpt lat="38.07757076525595" lon="15.861871212409735"><ele>1404.142857142857</ele><time>2026-04-25T09:59:03.003Z</time></trkpt><trkpt lat="38.077595267511484" lon="15.861791213832054"><ele>1406.0</ele><time>2026-04-25T09:59:04.003Z</time></trkpt><trkpt lat="38.07763860497648" lon="15.861702108251482"><ele>1406.0</ele><time>2026-04-25T09:59:05.003Z</time></trkpt><trkpt lat="38.07769755651138" lon="15.86165866510368"><ele>1406.0</ele><time>2026-04-25T09:59:06.003Z</time></trkpt><trkpt lat="38.077752802779045" lon="15.861595578014256"><ele>1406.0</ele><time>2026-04-25T09:59:07.003Z</time></trkpt><trkpt lat="38.07787350302172" lon="15.86150461956612"><ele>1406.0</ele><time>2026-04-25T09:59:08.003Z</time></trkpt><trkpt lat="38.077972830120366" lon="15.861430089554219"><ele>1406.0</ele><time>2026-04-25T09:59:09.003Z</time></trkpt><trkpt lat="38.07806792035884" lon="15.861365118522523"><ele>1406.0</ele><time>2026-04-25T09:59:10.003Z</time></trkpt><trkpt lat="38.07816625552172" lon="15.861338224131053"><ele>1406.0</ele><time>2026-04-25T09:59:11.003Z</time></trkpt><trkpt lat="38.078246711729946" lon="15.861296870843738"><ele>1406.0</ele><time>2026-04-25T09:59:12.003Z</time></trkpt><trkpt lat="38.078337714865285" lon="15.861313615197226"><ele>1406.0</ele><time>2026-04-25T09:59:13.003Z</time></trkpt><trkpt lat="38.078434997047374" lon="15.861320138440824"><ele>1406.0</ele><time>2026-04-25T09:59:14.003Z</time></trkpt><trkpt lat="38.07861276203902" lon="15.861358674335252"><ele>1409.25</ele><time>2026-04-25T09:59:16.003Z</time></trkpt><trkpt lat="38.07874783788359" lon="15.861380019954503"><ele>1412.5</ele><time>2026-04-25T09:59:17.003Z</time></trkpt><trkpt lat="38.078853323935114" lon="15.861373502928712"><ele>1415.75</ele><time>2026-04-25T09:59:18.003Z</time></trkpt><trkpt lat="38.078949092662974" lon="15.861407877660792"><ele>1419.0</ele><time>2026-04-25T09:59:19.003Z</time></trkpt><trkpt lat="38.079076326454164" lon="15.861418994673995"><ele>1418.2</ele><time>2026-04-25T09:59:20.003Z</time></trkpt><trkpt lat="38.07917014441776" lon="15.86145106749755"><ele>1417.4</ele><time>2026-04-25T09:59:21.001Z</time></trkpt><trkpt lat="38.079277239639076" lon="15.861451127133945"><ele>1416.6</ele><time>2026-04-25T09:59:22.001Z</time></trkpt><trkpt lat="38.07936966870896" lon="15.86142968091003"><ele>1415.8</ele><time>2026-04-25T09:59:23.001Z</time></trkpt><trkpt lat="38.079469825036306" lon="15.861358548334584"><ele>1415.0</ele><time>2026-04-25T09:59:24.001Z</time></trkpt><trkpt lat="38.07955967874213" lon="15.86128545911466"><ele>1415.0</ele><time>2026-04-25T09:59:25.001Z</time></trkpt><trkpt lat="38.07964600413214" lon="15.861213061566588"><ele>1415.0</ele><time>2026-04-25T09:59:26.001Z</time></trkpt><trkpt lat="38.079720408020556" lon="15.861179529382792"><ele>1415.0</ele><time>2026-04-25T09:59:27.001Z</time></trkpt><trkpt lat="38.07980402586165" lon="15.861192914976648"><ele>1415.0</ele><time>2026-04-25T09:59:28.001Z</time></trkpt><trkpt lat="38.07988901242492" lon="15.861245947924088"><ele>1415.0</ele><time>2026-04-25T09:59:29.001Z</time></trkpt><trkpt lat="38.07996706736206" lon="15.861274008007554"><ele>1415.0</ele><time>2026-04-25T09:59:30.001Z</time></trkpt><trkpt lat="38.08004634615281" lon="15.861243228323778"><ele>1415.0</ele><time>2026-04-25T09:59:31.001Z</time></trkpt><trkpt lat="38.0801127753724" lon="15.86114886496718"><ele>1415.0</ele><time>2026-04-25T09:59:32.001Z</time></trkpt><trkpt lat="38.080180373822785" lon="15.861099825826953"><ele>1415.0</ele><time>2026-04-25T09:59:33.001Z</time></trkpt><trkpt lat="38.08025607890672" lon="15.86104380452052"><ele>1415.0</ele><time>2026-04-25T09:59:34.001Z</time></trkpt><trkpt lat="38.08035495808025" lon="15.8610485946862"><ele>1415.0</ele><time>2026-04-25T09:59:35.001Z</time></trkpt><trkpt lat="38.08045018090043" lon="15.861080647929011"><ele>1415.0</ele><time>2026-04-25T09:59:36.001Z</time></trkpt><trkpt lat="38.08054034770543" lon="15.861163602179678"><ele>1415.0</ele><time>2026-04-25T09:59:37.001Z</time></trkpt><trkpt lat="38.08063507686546" lon="15.861245284140029"><ele>1415.0</ele><time>2026-04-25T09:59:38.001Z</time></trkpt><trkpt lat="38.080756053299496" lon="15.861285510887614"><ele>1415.0</ele><time>2026-04-25T09:59:39.001Z</time></trkpt><trkpt lat="38.0808617097114" lon="15.861276344126997"><ele>1412.4</ele><time>2026-04-25T09:59:40.001Z</time></trkpt><trkpt lat="38.080970790569275" lon="15.861244093683109"><ele>1409.8</ele><time>2026-04-25T09:59:41.001Z</time></trkpt><trkpt lat="38.08106134266313" lon="15.861215227919253"><ele>1407.1999999999998</ele><time>2026-04-25T09:59:42.001Z</time></trkpt><trkpt lat="38.081150032579224" lon="15.861192096193477"><ele>1404.6</ele><time>2026-04-25T09:59:43.001Z</time></trkpt><trkpt lat="38.0812200608383" lon="15.861169125329821"><ele>1402.0</ele><time>2026-04-25T09:59:44.001Z</time></trkpt><trkpt lat="38.081301766047275" lon="15.86113517736427"><ele>1402.0</ele><time>2026-04-25T09:59:45.001Z</time></trkpt><trkpt lat="38.08141747231499" lon="15.861057813894382"><ele>1402.0</ele><time>2026-04-25T09:59:47.001Z</time></trkpt><trkpt lat="38.081505267615135" lon="15.860960974267206"><ele>1402.0</ele><time>2026-04-25T09:59:49.001Z</time></trkpt><trkpt lat="38.081602481055214" lon="15.860848366076498"><ele>1402.0</ele><time>2026-04-25T09:59:51.001Z</time></trkpt><trkpt lat="38.08166162286808" lon="15.860794992151076"><ele>1402.0</ele><time>2026-04-25T09:59:52.001Z</time></trkpt><trkpt lat="38.0817290753297" lon="15.860762823056247"><ele>1402.0</ele><time>2026-04-25T09:59:53.001Z</time></trkpt><trkpt lat="38.08180053620424" lon="15.86073144732665"><ele>1402.0</ele><time>2026-04-25T09:59:54.001Z</time></trkpt><trkpt lat="38.08189909650977" lon="15.860687716287606"><ele>1402.0</ele><time>2026-04-25T09:59:55.001Z</time></trkpt><trkpt lat="38.08199720072605" lon="15.860645965994625"><ele>1402.0</ele><time>2026-04-25T09:59:56.001Z</time></trkpt><trkpt lat="38.082093885454604" lon="15.860615933878254"><ele>1402.0</ele><time>2026-04-25T09:59:57.001Z</time></trkpt><trkpt lat="38.08218543271798" lon="15.860555777575707"><ele>1402.0</ele><time>2026-04-25T09:59:58.001Z</time></trkpt><trkpt lat="38.08228183662072" lon="15.86048615788984"><ele>1402.0</ele><time>2026-04-25T09:59:59.001Z</time></trkpt><trkpt lat="38.08236767000666" lon="15.860422590991385"><ele>1402.0</ele><time>2026-04-25T10:00:00.001Z</time></trkpt><trkpt lat="38.08244515932502" lon="15.860356159929031"><ele>1402.0</ele><time>2026-04-25T10:00:01.001Z</time></trkpt><trkpt lat="38.082525920904715" lon="15.860313657329693"><ele>1401.6</ele><time>2026-04-25T10:00:02.001Z</time></trkpt><trkpt lat="38.08261457290251" lon="15.860266132944563"><ele>1401.1999999999998</ele><time>2026-04-25T10:00:03.001Z</time></trkpt><trkpt lat="38.08271416267883" lon="15.860215872446616"><ele>1400.8</ele><time>2026-04-25T10:00:04.001Z</time></trkpt><trkpt lat="38.082802487249815" lon="15.860180226129138"><ele>1400.4</ele><time>2026-04-25T10:00:05.001Z</time></trkpt><trkpt lat="38.08290228252668" lon="15.860150493251222"><ele>1400.0</ele><time>2026-04-25T10:00:06.001Z</time></trkpt><trkpt lat="38.08300334240239" lon="15.860112719780473"><ele>1402.0</ele><time>2026-04-25T10:00:07.001Z</time></trkpt><trkpt lat="38.08310721529845" lon="15.86004348370182"><ele>1404.0</ele><time>2026-04-25T10:00:08.001Z</time></trkpt><trkpt lat="38.08320340386429" lon="15.859987665594705"><ele>1406.0</ele><time>2026-04-25T10:00:09.001Z</time></trkpt><trkpt lat="38.083293476366336" lon="15.85991570993172"><ele>1408.0</ele><time>2026-04-25T10:00:10.001Z</time></trkpt><trkpt lat="38.08336482487172" lon="15.859853950328464"><ele>1410.0</ele><time>2026-04-25T10:00:11.001Z</time></trkpt><trkpt lat="38.08342637601026" lon="15.859836113237122"><ele>1409.0</ele><time>2026-04-25T10:00:12.001Z</time></trkpt><trkpt lat="38.083527185956875" lon="15.859967027937342"><ele>1408.0</ele><time>2026-04-25T10:00:14.001Z</time></trkpt><trkpt lat="38.0835905222337" lon="15.860099513481028"><ele>1407.0</ele><time>2026-04-25T10:00:15.002Z</time></trkpt><trkpt lat="38.08367334763335" lon="15.860188661638137"><ele>1406.0</ele><time>2026-04-25T10:00:16.002Z</time></trkpt><trkpt lat="38.083757343280304" lon="15.860253157951375"><ele>1406.0</ele><time>2026-04-25T10:00:17.002Z</time></trkpt><trkpt lat="38.08384481761232" lon="15.8602975770504"><ele>1406.0</ele><time>2026-04-25T10:00:18.002Z</time></trkpt><trkpt lat="38.08393703071175" lon="15.860301671614533"><ele>1406.0</ele><time>2026-04-25T10:00:19.002Z</time></trkpt><trkpt lat="38.084041247789095" lon="15.860281084656764"><ele>1406.0</ele><time>2026-04-25T10:00:20.002Z</time></trkpt><trkpt lat="38.0841282036064" lon="15.860228459983176"><ele>1406.0</ele><time>2026-04-25T10:00:21.002Z</time></trkpt><trkpt lat="38.084183728145945" lon="15.860174578625545"><ele>1408.0</ele><time>2026-04-25T10:00:22.002Z</time></trkpt><trkpt lat="38.08427952452985" lon="15.860098221175972"><ele>1410.0</ele><time>2026-04-25T10:00:23.002Z</time></trkpt><trkpt lat="38.08434772066084" lon="15.86003786086418"><ele>1412.0</ele><time>2026-04-25T10:00:24.002Z</time></trkpt><trkpt lat="38.08441409644547" lon="15.859953050820767"><ele>1414.0</ele><time>2026-04-25T10:00:25.002Z</time></trkpt><trkpt lat="38.084475065751775" lon="15.859908052097376"><ele>1416.0</ele><time>2026-04-25T10:00:26.002Z</time></trkpt><trkpt lat="38.08452412322244" lon="15.85984686115054"><ele>1418.0</ele><time>2026-04-25T10:00:27.002Z</time></trkpt><trkpt lat="38.08457135654679" lon="15.85976924889303"><ele>1418.0</ele><time>2026-04-25T10:00:28.002Z</time></trkpt><trkpt lat="38.084675553609586" lon="15.859765852945342"><ele>1418.0</ele><time>2026-04-25T10:00:30.002Z</time></trkpt><trkpt lat="38.0847286144938" lon="15.85981652141116"><ele>1418.0</ele><time>2026-04-25T10:00:31.002Z</time></trkpt><trkpt lat="38.084765171921994" lon="15.859892020867436"><ele>1418.0</ele><time>2026-04-25T10:00:32.002Z</time></trkpt><trkpt lat="38.0848084381311" lon="15.859992247346607"><ele>1418.0</ele><time>2026-04-25T10:00:33.002Z</time></trkpt><trkpt lat="38.08486567954224" lon="15.860081578069227"><ele>1418.0</ele><time>2026-04-25T10:00:34.002Z</time></trkpt><trkpt lat="38.08495169282331" lon="15.860158905201436"><ele>1417.6000000000001</ele><time>2026-04-25T10:00:35.002Z</time></trkpt><trkpt lat="38.085040015701495" lon="15.860215074797464"><ele>1417.2</ele><time>2026-04-25T10:00:36.002Z</time></trkpt><trkpt lat="38.085114994756665" lon="15.860292628567057"><ele>1416.8</ele><time>2026-04-25T10:00:37.002Z</time></trkpt><trkpt lat="38.08518728987666" lon="15.860378085934242"><ele>1416.4</ele><time>2026-04-25T10:00:38.002Z</time></trkpt><trkpt lat="38.08526200760896" lon="15.860463054569538"><ele>1416.0</ele><time>2026-04-25T10:00:39.002Z</time></trkpt><trkpt lat="38.085326127544185" lon="15.860542055909564"><ele>1416.0</ele><time>2026-04-25T10:00:40.002Z</time></trkpt><trkpt lat="38.085374322432465" lon="15.860626695580875"><ele>1416.0</ele><time>2026-04-25T10:00:41.002Z</time></trkpt><trkpt lat="38.0854103315323" lon="15.86072358409899"><ele>1416.0</ele><time>2026-04-25T10:00:42.002Z</time></trkpt><trkpt lat="38.08545000993014" lon="15.860832912312945"><ele>1416.0</ele><time>2026-04-25T10:00:43.002Z</time></trkpt><trkpt lat="38.085477327711516" lon="15.860952542643691"><ele>1416.0</ele><time>2026-04-25T10:00:44.002Z</time></trkpt><trkpt lat="38.08549965953374" lon="15.861079902949452"><ele>1415.0</ele><time>2026-04-25T10:00:45.002Z</time></trkpt><trkpt lat="38.08551432904952" lon="15.8612061345897"><ele>1414.0</ele><time>2026-04-25T10:00:46.002Z</time></trkpt><trkpt lat="38.08551786851858" lon="15.861340078952184"><ele>1413.0</ele><time>2026-04-25T10:00:47.002Z</time></trkpt><trkpt lat="38.085527129196464" lon="15.861467567466283"><ele>1412.0</ele><time>2026-04-25T10:00:48.002Z</time></trkpt><trkpt lat="38.08553677676886" lon="15.861560437958051"><ele>1411.0</ele><time>2026-04-25T10:00:49.002Z</time></trkpt><trkpt lat="38.08557977802222" lon="15.861656364356957"><ele>1411.0</ele><time>2026-04-25T10:00:51.002Z</time></trkpt><trkpt lat="38.08562642342341" lon="15.86171205424812"><ele>1411.0</ele><time>2026-04-25T10:00:54.002Z</time></trkpt><trkpt lat="38.085672960194096" lon="15.861774091201687"><ele>1411.0</ele><time>2026-04-25T10:00:57.003Z</time></trkpt><trkpt lat="38.08571433546526" lon="15.861911341707893"><ele>1411.0</ele><time>2026-04-25T10:00:59.003Z</time></trkpt><trkpt lat="38.08579774903771" lon="15.86204830784209"><ele>1411.0</ele><time>2026-04-25T10:01:01.003Z</time></trkpt><trkpt lat="38.085862052674386" lon="15.862131301791992"><ele>1411.1999999999998</ele><time>2026-04-25T10:01:02.003Z</time></trkpt><trkpt lat="38.085932024931125" lon="15.86220702976037"><ele>1411.3999999999999</ele><time>2026-04-25T10:01:03.003Z</time></trkpt><trkpt lat="38.08600837599262" lon="15.862296852781308"><ele>1411.6</ele><time>2026-04-25T10:01:04.003Z</time></trkpt><trkpt lat="38.08608215943763" lon="15.862381703713005"><ele>1411.8</ele><time>2026-04-25T10:01:05.003Z</time></trkpt><trkpt lat="38.08616668551339" lon="15.862449792660243"><ele>1412.0</ele><time>2026-04-25T10:01:06.003Z</time></trkpt><trkpt lat="38.086262555220614" lon="15.862519560238885"><ele>1412.0</ele><time>2026-04-25T10:01:07.003Z</time></trkpt><trkpt lat="38.086351111812874" lon="15.862576883632032"><ele>1412.0</ele><time>2026-04-25T10:01:08.003Z</time></trkpt><trkpt lat="38.08645284165101" lon="15.862645816369811"><ele>1412.0</ele><time>2026-04-25T10:01:09.003Z</time></trkpt><trkpt lat="38.08655793209104" lon="15.862694963088057"><ele>1412.0</ele><time>2026-04-25T10:01:10.003Z</time></trkpt><trkpt lat="38.08665840974614" lon="15.86275942178486"><ele>1412.0</ele><time>2026-04-25T10:01:11.003Z</time></trkpt><trkpt lat="38.08678758197961" lon="15.862816246218957"><ele>1411.25</ele><time>2026-04-25T10:01:12.003Z</time></trkpt><trkpt lat="38.08687217890237" lon="15.8628602575224"><ele>1410.5</ele><time>2026-04-25T10:01:13.003Z</time></trkpt><trkpt lat="38.08698558072642" lon="15.862930787800432"><ele>1409.75</ele><time>2026-04-25T10:01:14.003Z</time></trkpt><trkpt lat="38.087094652331366" lon="15.862995187661667"><ele>1409.0</ele><time>2026-04-25T10:01:15.003Z</time></trkpt><trkpt lat="38.08720097560445" lon="15.863079052884205"><ele>1409.0</ele><time>2026-04-25T10:01:16.003Z</time></trkpt><trkpt lat="38.0873074263622" lon="15.863176709970086"><ele>1409.0</ele><time>2026-04-25T10:01:17.003Z</time></trkpt><trkpt lat="38.08741069925598" lon="15.86327994607363"><ele>1409.0</ele><time>2026-04-25T10:01:18.003Z</time></trkpt><trkpt lat="38.08751921058317" lon="15.86340171435996"><ele>1409.0</ele><time>2026-04-25T10:01:19.003Z</time></trkpt><trkpt lat="38.08762281040982" lon="15.863532793081605"><ele>1406.75</ele><time>2026-04-25T10:01:20.003Z</time></trkpt><trkpt lat="38.08770820093334" lon="15.863702009755624"><ele>1404.5</ele><time>2026-04-25T10:01:21.003Z</time></trkpt><trkpt lat="38.08778014900653" lon="15.863847427858767"><ele>1402.25</ele><time>2026-04-25T10:01:22.003Z</time></trkpt><trkpt lat="38.087839991007314" lon="15.863976649791903"><ele>1400.0</ele><time>2026-04-25T10:01:23.003Z</time></trkpt><trkpt lat="38.087887051326845" lon="15.864098160654105"><ele>1400.0</ele><time>2026-04-25T10:01:24.003Z</time></trkpt><trkpt lat="38.08791613531133" lon="15.864196064151203"><ele>1400.0</ele><time>2026-04-25T10:01:25.003Z</time></trkpt><trkpt lat="38.0879179882999" lon="15.864290112044195"><ele>1400.0</ele><time>2026-04-25T10:01:26.003Z</time></trkpt><trkpt lat="38.087897144216036" lon="15.864367743135643"><ele>1400.0</ele><time>2026-04-25T10:01:27.001Z</time></trkpt><trkpt lat="38.087855875749995" lon="15.864488777671758"><ele>1400.0</ele><time>2026-04-25T10:01:28.001Z</time></trkpt><trkpt lat="38.087807202841304" lon="15.864604634728703"><ele>1400.0</ele><time>2026-04-25T10:01:29.001Z</time></trkpt><trkpt lat="38.087759536035165" lon="15.86476026800783"><ele>1398.6</ele><time>2026-04-25T10:01:30.001Z</time></trkpt><trkpt lat="38.08773385636431" lon="15.864900245885426"><ele>1397.2</ele><time>2026-04-25T10:01:31.001Z</time></trkpt><trkpt lat="38.08770900381732" lon="15.865049049469965"><ele>1395.8000000000002</ele><time>2026-04-25T10:01:32.001Z</time></trkpt><trkpt lat="38.08768955740173" lon="15.865183425861792"><ele>1394.4</ele><time>2026-04-25T10:01:33.001Z</time></trkpt><trkpt lat="38.087680209416085" lon="15.865291169833254"><ele>1393.0</ele><time>2026-04-25T10:01:34.001Z</time></trkpt><trkpt lat="38.08766699694391" lon="15.865394583667433"><ele>1392.0</ele><time>2026-04-25T10:01:35.001Z</time></trkpt><trkpt lat="38.087665238658765" lon="15.86548796533582"><ele>1391.0</ele><time>2026-04-25T10:01:36.001Z</time></trkpt><trkpt lat="38.08769485824422" lon="15.865605742306107"><ele>1390.0</ele><time>2026-04-25T10:01:37.001Z</time></trkpt><trkpt lat="38.08773668812747" lon="15.865721002263022"><ele>1389.0</ele><time>2026-04-25T10:01:38.001Z</time></trkpt><trkpt lat="38.08778337348303" lon="15.865852575669507"><ele>1388.0</ele><time>2026-04-25T10:01:39.001Z</time></trkpt><trkpt lat="38.0878329080122" lon="15.865974376875148"><ele>1388.0</ele><time>2026-04-25T10:01:40.001Z</time></trkpt><trkpt lat="38.08787316649928" lon="15.866078156112323"><ele>1388.0</ele><time>2026-04-25T10:01:41.001Z</time></trkpt><trkpt lat="38.08790517256688" lon="15.866168035275496"><ele>1388.0</ele><time>2026-04-25T10:01:42.001Z</time></trkpt><trkpt lat="38.08790929937772" lon="15.866291939024046"><ele>1388.0</ele><time>2026-04-25T10:01:43.001Z</time></trkpt><trkpt lat="38.08790139684834" lon="15.866421061528662"><ele>1388.0</ele><time>2026-04-25T10:01:44.001Z</time></trkpt><trkpt lat="38.087881312646026" lon="15.866551663330549"><ele>1388.0</ele><time>2026-04-25T10:01:45.001Z</time></trkpt><trkpt lat="38.08787766883219" lon="15.866666993778425"><ele>1388.0</ele><time>2026-04-25T10:01:46.001Z</time></trkpt><trkpt lat="38.08791769261486" lon="15.866742491087704"><ele>1388.0</ele><time>2026-04-25T10:01:47.001Z</time></trkpt><trkpt lat="38.087999130462684" lon="15.866808507633316"><ele>1388.0</ele><time>2026-04-25T10:01:48.001Z</time></trkpt><trkpt lat="38.08809340263691" lon="15.866872040321109"><ele>1388.0</ele><time>2026-04-25T10:01:49.001Z</time></trkpt><trkpt lat="38.08818529787077" lon="15.866937521305903"><ele>1388.0</ele><time>2026-04-25T10:01:50.001Z</time></trkpt><trkpt lat="38.088270211061" lon="15.866991520602767"><ele>1388.0</ele><time>2026-04-25T10:01:51.001Z</time></trkpt><trkpt lat="38.088366695191915" lon="15.86702549160748"><ele>1388.0</ele><time>2026-04-25T10:01:52.001Z</time></trkpt><trkpt lat="38.08847560550034" lon="15.867055134269744"><ele>1388.0</ele><time>2026-04-25T10:01:53.001Z</time></trkpt><trkpt lat="38.08857404696257" lon="15.867065286461623"><ele>1388.0</ele><time>2026-04-25T10:01:54.001Z</time></trkpt><trkpt lat="38.088662491058386" lon="15.867063529090412"><ele>1388.0</ele><time>2026-04-25T10:01:55.001Z</time></trkpt><trkpt lat="38.08876854916554" lon="15.867094745532567"><ele>1388.0</ele><time>2026-04-25T10:01:56.001Z</time></trkpt><trkpt lat="38.08886986848165" lon="15.867153519748951"><ele>1388.0</ele><time>2026-04-25T10:01:57.001Z</time></trkpt><trkpt lat="38.08896299919043" lon="15.867240292072392"><ele>1388.0</ele><time>2026-04-25T10:01:58.001Z</time></trkpt><trkpt lat="38.08903683311502" lon="15.867316165911536"><ele>1388.0</ele><time>2026-04-25T10:01:59.001Z</time></trkpt><trkpt lat="38.08913929446142" lon="15.867414662436351"><ele>1387.8000000000002</ele><time>2026-04-25T10:02:00.001Z</time></trkpt><trkpt lat="38.089237792557704" lon="15.867491949736877"><ele>1387.6</ele><time>2026-04-25T10:02:01.001Z</time></trkpt><trkpt lat="38.089328837487564" lon="15.867561386840142"><ele>1387.4</ele><time>2026-04-25T10:02:02.001Z</time></trkpt><trkpt lat="38.089422868164434" lon="15.867626583162444"><ele>1387.1999999999998</ele><time>2026-04-25T10:02:03.001Z</time></trkpt><trkpt lat="38.08950850315516" lon="15.86769201432626"><ele>1387.0</ele><time>2026-04-25T10:02:04.001Z</time></trkpt><trkpt lat="38.08961854566249" lon="15.867765150756894"><ele>1386.0</ele><time>2026-04-25T10:02:05.001Z</time></trkpt><trkpt lat="38.08970312061933" lon="15.867833932816943"><ele>1385.0</ele><time>2026-04-25T10:02:06.001Z</time></trkpt><trkpt lat="38.08977035626256" lon="15.867930277591308"><ele>1384.0</ele><time>2026-04-25T10:02:07.001Z</time></trkpt><trkpt lat="38.089884277367545" lon="15.868018086173738"><ele>1383.0</ele><time>2026-04-25T10:02:08.001Z</time></trkpt><trkpt lat="38.089976126916945" lon="15.868099982855137"><ele>1382.0</ele><time>2026-04-25T10:02:09.001Z</time></trkpt><trkpt lat="38.09005729485315" lon="15.868191297656061"><ele>1383.6</ele><time>2026-04-25T10:02:10.001Z</time></trkpt><trkpt lat="38.090145077831906" lon="15.868260513632048"><ele>1385.1999999999998</ele><time>2026-04-25T10:02:11.001Z</time></trkpt><trkpt lat="38.09020882986174" lon="15.868368752066345"><ele>1386.8</ele><time>2026-04-25T10:02:12.001Z</time></trkpt><trkpt lat="38.09027586949608" lon="15.868487055480106"><ele>1388.4</ele><time>2026-04-25T10:02:13.001Z</time></trkpt><trkpt lat="38.09036578716566" lon="15.868558734479736"><ele>1390.0</ele><time>2026-04-25T10:02:14.001Z</time></trkpt><trkpt lat="38.090433446819596" lon="15.868642050692731"><ele>1390.0</ele><time>2026-04-25T10:02:15.001Z</time></trkpt><trkpt lat="38.09046982192812" lon="15.868765240390204"><ele>1390.0</ele><time>2026-04-25T10:02:17.001Z</time></trkpt><trkpt lat="38.09046233301959" lon="15.868850570704032"><ele>1390.0</ele><time>2026-04-25T10:02:18.001Z</time></trkpt><trkpt lat="38.09044843464863" lon="15.868967483200228"><ele>1390.0</ele><time>2026-04-25T10:02:19.001Z</time></trkpt><trkpt lat="38.09041926758014" lon="15.869083495756"><ele>1390.0</ele><time>2026-04-25T10:02:20.001Z</time></trkpt><trkpt lat="38.09038909620617" lon="15.869214140339821"><ele>1391.2</ele><time>2026-04-25T10:02:21.001Z</time></trkpt><trkpt lat="38.09037075784083" lon="15.86934936528594"><ele>1392.4</ele><time>2026-04-25T10:02:22.001Z</time></trkpt><trkpt lat="38.09037014391958" lon="15.869485718506855"><ele>1393.6</ele><time>2026-04-25T10:02:23.001Z</time></trkpt><trkpt lat="38.090365656959854" lon="15.869626925148479"><ele>1394.8</ele><time>2026-04-25T10:02:24.001Z</time></trkpt><trkpt lat="38.09038870203394" lon="15.869754934138896"><ele>1396.0</ele><time>2026-04-25T10:02:25.001Z</time></trkpt><trkpt lat="38.09042068017564" lon="15.869842591857724"><ele>1396.0</ele><time>2026-04-25T10:02:26.001Z</time></trkpt><trkpt lat="38.09044102975569" lon="15.870019214967781"><ele>1396.0</ele><time>2026-04-25T10:02:27.001Z</time></trkpt><trkpt lat="38.09044842313448" lon="15.87015038590686"><ele>1396.0</ele><time>2026-04-25T10:02:28.001Z</time></trkpt><trkpt lat="38.09047196627996" lon="15.870272367220924"><ele>1396.0</ele><time>2026-04-25T10:02:29.001Z</time></trkpt><trkpt lat="38.09049718930502" lon="15.870408010193069"><ele>1397.0</ele><time>2026-04-25T10:02:30.001Z</time></trkpt><trkpt lat="38.0905178062801" lon="15.870546677803416"><ele>1398.0</ele><time>2026-04-25T10:02:31.001Z</time></trkpt><trkpt lat="38.09054209277625" lon="15.87068614634058"><ele>1399.0</ele><time>2026-04-25T10:02:33.002Z</time></trkpt><trkpt lat="38.09062631566336" lon="15.870757939438288"><ele>1400.0</ele><time>2026-04-25T10:02:35.002Z</time></trkpt><trkpt lat="38.09071494092706" lon="15.870652561276687"><ele>1401.0</ele><time>2026-04-25T10:02:37.002Z</time></trkpt><trkpt lat="38.090744846860495" lon="15.87057392501888"><ele>1402.5</ele><time>2026-04-25T10:02:38.002Z</time></trkpt><trkpt lat="38.09080353716855" lon="15.870502785436514"><ele>1404.0</ele><time>2026-04-25T10:02:39.002Z</time></trkpt><trkpt lat="38.09090704301444" lon="15.870361319185768"><ele>1405.5</ele><time>2026-04-25T10:02:40.002Z</time></trkpt><trkpt lat="38.09102054819824" lon="15.870193362010918"><ele>1407.0</ele><time>2026-04-25T10:02:41.002Z</time></trkpt><trkpt lat="38.09107878286862" lon="15.870111516951406"><ele>1407.8333333333333</ele><time>2026-04-25T10:02:42.002Z</time></trkpt><trkpt lat="38.09113327878941" lon="15.870070051690956"><ele>1408.6666666666667</ele><time>2026-04-25T10:02:43.002Z</time></trkpt><trkpt lat="38.09120503382306" lon="15.870044086687793"><ele>1409.5</ele><time>2026-04-25T10:02:44.002Z</time></trkpt><trkpt lat="38.09126836247108" lon="15.870025731399537"><ele>1410.3333333333335</ele><time>2026-04-25T10:02:45.002Z</time></trkpt><trkpt lat="38.09134948672119" lon="15.870010325456542"><ele>1411.1666666666667</ele><time>2026-04-25T10:02:46.002Z</time></trkpt><trkpt lat="38.09143636807734" lon="15.870043968824948"><ele>1412.0</ele><time>2026-04-25T10:02:47.002Z</time></trkpt><trkpt lat="38.0914995543974" lon="15.870102674130111"><ele>1411.0</ele><time>2026-04-25T10:02:48.002Z</time></trkpt><trkpt lat="38.091541357999255" lon="15.870172891230379"><ele>1410.0</ele><time>2026-04-25T10:02:49.002Z</time></trkpt><trkpt lat="38.0915914339073" lon="15.870293677660392"><ele>1409.0</ele><time>2026-04-25T10:02:50.002Z</time></trkpt><trkpt lat="38.09164761156181" lon="15.870403014373466"><ele>1408.0</ele><time>2026-04-25T10:02:51.002Z</time></trkpt><trkpt lat="38.091716029133394" lon="15.870483793519037"><ele>1407.0</ele><time>2026-04-25T10:02:52.002Z</time></trkpt><trkpt lat="38.091784329398166" lon="15.870529051660505"><ele>1411.0</ele><time>2026-04-25T10:02:53.002Z</time></trkpt><trkpt lat="38.09190349037704" lon="15.870440811558995"><ele>1415.0</ele><time>2026-04-25T10:02:55.002Z</time></trkpt><trkpt lat="38.091952604386776" lon="15.870337906312198"><ele>1419.0</ele><time>2026-04-25T10:02:56.002Z</time></trkpt><trkpt lat="38.09204694233588" lon="15.870274042977522"><ele>1423.0</ele><time>2026-04-25T10:02:58.002Z</time></trkpt><trkpt lat="38.09215929336066" lon="15.870162100875884"><ele>1425.2</ele><time>2026-04-25T10:02:59.002Z</time></trkpt><trkpt lat="38.09221270059601" lon="15.870089867344745"><ele>1427.4</ele><time>2026-04-25T10:03:00.002Z</time></trkpt><trkpt lat="38.09226912182674" lon="15.869961035518317"><ele>1429.6000000000001</ele><time>2026-04-25T10:03:01.002Z</time></trkpt><trkpt lat="38.092316302044644" lon="15.869867442021707"><ele>1431.8000000000002</ele><time>2026-04-25T10:03:02.002Z</time></trkpt><trkpt lat="38.09242082628216" lon="15.869792299551138"><ele>1434.0</ele><time>2026-04-25T10:03:03.002Z</time></trkpt><trkpt lat="38.0924756027522" lon="15.869690330880722"><ele>1437.75</ele><time>2026-04-25T10:03:04.002Z</time></trkpt><trkpt lat="38.092545456506606" lon="15.869553310370293"><ele>1441.5</ele><time>2026-04-25T10:03:05.002Z</time></trkpt><trkpt lat="38.09261461937192" lon="15.869438999813232"><ele>1445.25</ele><time>2026-04-25T10:03:06.002Z</time></trkpt><trkpt lat="38.0926989722765" lon="15.869339137134542"><ele>1449.0</ele><time>2026-04-25T10:03:07.002Z</time></trkpt><trkpt lat="38.092792201462316" lon="15.869234987599295"><ele>1449.0</ele><time>2026-04-25T10:03:08.002Z</time></trkpt><trkpt lat="38.092885108954455" lon="15.869171107934196"><ele>1449.0</ele><time>2026-04-25T10:03:09.002Z</time></trkpt><trkpt lat="38.09297010653774" lon="15.869128417268843"><ele>1449.0</ele><time>2026-04-25T10:03:10.002Z</time></trkpt><trkpt lat="38.09306243915777" lon="15.86919163043084"><ele>1449.0</ele><time>2026-04-25T10:03:12.002Z</time></trkpt><trkpt lat="38.09309784110611" lon="15.869289783954693"><ele>1449.0</ele><time>2026-04-25T10:03:13.002Z</time></trkpt><trkpt lat="38.09317935912695" lon="15.869388823885487"><ele>1451.0</ele><time>2026-04-25T10:03:14.002Z</time></trkpt><trkpt lat="38.09333345356768" lon="15.869348597065915"><ele>1453.0</ele><time>2026-04-25T10:03:16.002Z</time></trkpt><trkpt lat="38.0934621635469" lon="15.869267053221485"><ele>1455.0</ele><time>2026-04-25T10:03:17.003Z</time></trkpt><trkpt lat="38.09360045839607" lon="15.86918609155344"><ele>1457.5</ele><time>2026-04-25T10:03:18.003Z</time></trkpt><trkpt lat="38.09371730944234" lon="15.869153372503284"><ele>1460.0</ele><time>2026-04-25T10:03:19.003Z</time></trkpt><trkpt lat="38.093847393525344" lon="15.869169918159528"><ele>1462.5</ele><time>2026-04-25T10:03:20.003Z</time></trkpt><trkpt lat="38.093997994476794" lon="15.869185469232857"><ele>1465.0</ele><time>2026-04-25T10:03:21.003Z</time></trkpt><trkpt lat="38.094134038488484" lon="15.869205775106408"><ele>1467.3333333333333</ele><time>2026-04-25T10:03:22.003Z</time></trkpt><trkpt lat="38.09425435715063" lon="15.869252326140602"><ele>1469.6666666666667</ele><time>2026-04-25T10:03:23.003Z</time></trkpt><trkpt lat="38.094389380603246" lon="15.869374780951887"><ele>1472.0</ele><time>2026-04-25T10:03:24.003Z</time></trkpt><trkpt lat="38.094548534418564" lon="15.869488655323675"><ele>1472.0</ele><time>2026-04-25T10:03:25.003Z</time></trkpt><trkpt lat="38.09468473406748" lon="15.869554255783886"><ele>1472.0</ele><time>2026-04-25T10:03:26.003Z</time></trkpt><trkpt lat="38.09480527317999" lon="15.869589369105249"><ele>1472.0</ele><time>2026-04-25T10:03:27.003Z</time></trkpt><trkpt lat="38.09496046155082" lon="15.869580835916745"><ele>1472.0</ele><time>2026-04-25T10:03:28.003Z</time></trkpt><trkpt lat="38.09513607005769" lon="15.869554021739209"><ele>1473.6666666666667</ele><time>2026-04-25T10:03:29.003Z</time></trkpt><trkpt lat="38.09525843713147" lon="15.869508732737568"><ele>1475.3333333333335</ele><time>2026-04-25T10:03:30.003Z</time></trkpt><trkpt lat="38.09532636262812" lon="15.86947231138868"><ele>1477.0</ele><time>2026-04-25T10:03:31.003Z</time></trkpt><trkpt lat="38.095407859257016" lon="15.869554475851682"><ele>1478.6666666666667</ele><time>2026-04-25T10:03:33.001Z</time></trkpt><trkpt lat="38.095423185754846" lon="15.869635977892493"><ele>1480.3333333333333</ele><time>2026-04-25T10:03:34.001Z</time></trkpt><trkpt lat="38.09543287695785" lon="15.869721266895231"><ele>1482.0</ele><time>2026-04-25T10:03:35.001Z</time></trkpt><trkpt lat="38.09540739779682" lon="15.869829423359263"><ele>1482.0</ele><time>2026-04-25T10:03:36.001Z</time></trkpt><trkpt lat="38.09535163195747" lon="15.869927935368255"><ele>1482.0</ele><time>2026-04-25T10:03:37.001Z</time></trkpt><trkpt lat="38.09530765236452" lon="15.87004318793919"><ele>1482.0</ele><time>2026-04-25T10:03:38.001Z</time></trkpt><trkpt lat="38.09528125006592" lon="15.870144297655122"><ele>1482.0</ele><time>2026-04-25T10:03:39.001Z</time></trkpt><trkpt lat="38.09531985229612" lon="15.870233682071511"><ele>1482.0</ele><time>2026-04-25T10:03:41.001Z</time></trkpt><trkpt lat="38.09538628798484" lon="15.870234773109827"><ele>1482.0</ele><time>2026-04-25T10:03:42.001Z</time></trkpt><trkpt lat="38.09550266526817" lon="15.870172605356748"><ele>1482.0</ele><time>2026-04-25T10:03:43.001Z</time></trkpt><trkpt lat="38.095636135962486" lon="15.870116061401447"><ele>1482.0</ele><time>2026-04-25T10:03:44.001Z</time></trkpt><trkpt lat="38.09571579785628" lon="15.870097947859081"><ele>1482.0</ele><time>2026-04-25T10:03:45.001Z</time></trkpt><trkpt lat="38.095789635498676" lon="15.870102731151373"><ele>1482.0</ele><time>2026-04-25T10:03:46.001Z</time></trkpt><trkpt lat="38.095850171087825" lon="15.870152875227632"><ele>1482.0</ele><time>2026-04-25T10:03:47.001Z</time></trkpt><trkpt lat="38.09586864923925" lon="15.870254879903456"><ele>1486.75</ele><time>2026-04-25T10:03:48.001Z</time></trkpt><trkpt lat="38.095873609639135" lon="15.870377917898642"><ele>1491.5</ele><time>2026-04-25T10:03:49.001Z</time></trkpt><trkpt lat="38.09584168135144" lon="15.870514003291634"><ele>1496.25</ele><time>2026-04-25T10:03:50.001Z</time></trkpt><trkpt lat="38.09583598173512" lon="15.870679086116233"><ele>1501.0</ele><time>2026-04-25T10:03:51.001Z</time></trkpt><trkpt lat="38.095835300956004" lon="15.870872894617003"><ele>1500.75</ele><time>2026-04-25T10:03:52.001Z</time></trkpt><trkpt lat="38.09580952363475" lon="15.871079705745682"><ele>1500.5</ele><time>2026-04-25T10:03:53.001Z</time></trkpt><trkpt lat="38.09579128497276" lon="15.871265529567625"><ele>1500.25</ele><time>2026-04-25T10:03:54.001Z</time></trkpt><trkpt lat="38.095760344143315" lon="15.871388436537327"><ele>1500.0</ele><time>2026-04-25T10:03:55.001Z</time></trkpt><trkpt lat="38.095703397618294" lon="15.871440012780566"><ele>1500.0</ele><time>2026-04-25T10:03:56.001Z</time></trkpt><trkpt lat="38.09563438675523" lon="15.871454613137269"><ele>1500.0</ele><time>2026-04-25T10:03:57.001Z</time></trkpt><trkpt lat="38.09554306519589" lon="15.871465430167547"><ele>1500.0</ele><time>2026-04-25T10:03:58.001Z</time></trkpt><trkpt lat="38.095450668049914" lon="15.87153434303057"><ele>1500.0</ele><time>2026-04-25T10:03:59.001Z</time></trkpt><trkpt lat="38.09541907800895" lon="15.87163147734283"><ele>1500.0</ele><time>2026-04-25T10:04:00.001Z</time></trkpt><trkpt lat="38.095439898321686" lon="15.871715439156759"><ele>1500.0</ele><time>2026-04-25T10:04:01.001Z</time></trkpt><trkpt lat="38.09549522449923" lon="15.871767497986342"><ele>1502.6</ele><time>2026-04-25T10:04:02.001Z</time></trkpt><trkpt lat="38.09556727601638" lon="15.871801372129191"><ele>1505.2</ele><time>2026-04-25T10:04:03.001Z</time></trkpt><trkpt lat="38.09563946161636" lon="15.871861437123373"><ele>1507.8000000000002</ele><time>2026-04-25T10:04:04.001Z</time></trkpt><trkpt lat="38.0957133402677" lon="15.871936788902282"><ele>1510.4</ele><time>2026-04-25T10:04:05.001Z</time></trkpt><trkpt lat="38.095792982826225" lon="15.872019767206682"><ele>1513.0</ele><time>2026-04-25T10:04:06.001Z</time></trkpt><trkpt lat="38.09586613936038" lon="15.872098715840995"><ele>1514.2</ele><time>2026-04-25T10:04:07.001Z</time></trkpt><trkpt lat="38.095920705460784" lon="15.872164079781596"><ele>1515.4</ele><time>2026-04-25T10:04:08.001Z</time></trkpt><trkpt lat="38.095967898861986" lon="15.872239445115978"><ele>1516.6000000000001</ele><time>2026-04-25T10:04:09.001Z</time></trkpt><trkpt lat="38.096033014313974" lon="15.872355856217277"><ele>1517.8000000000002</ele><time>2026-04-25T10:04:10.001Z</time></trkpt><trkpt lat="38.09608742655972" lon="15.872469893575877"><ele>1519.0</ele><time>2026-04-25T10:04:11.001Z</time></trkpt><trkpt lat="38.09613870385721" lon="15.872565156487047"><ele>1520.2</ele><time>2026-04-25T10:04:12.001Z</time></trkpt><trkpt lat="38.0961951904637" lon="15.87267768942915"><ele>1521.4</ele><time>2026-04-25T10:04:13.001Z</time></trkpt><trkpt lat="38.0962489817632" lon="15.87278238176585"><ele>1522.6</ele><time>2026-04-25T10:04:14.001Z</time></trkpt><trkpt lat="38.09632715588861" lon="15.87286546801558"><ele>1523.8</ele><time>2026-04-25T10:04:15.001Z</time></trkpt><trkpt lat="38.096464639044086" lon="15.872908430120088"><ele>1525.0</ele><time>2026-04-25T10:04:16.001Z</time></trkpt><trkpt lat="38.09653260798705" lon="15.873020404370637"><ele>1525.0</ele><time>2026-04-25T10:04:17.001Z</time></trkpt><trkpt lat="38.096582375181924" lon="15.873148927364134"><ele>1525.0</ele><time>2026-04-25T10:04:18.001Z</time></trkpt><trkpt lat="38.096669455032476" lon="15.873291383988608"><ele>1525.0</ele><time>2026-04-25T10:04:19.001Z</time></trkpt><trkpt lat="38.09674945660551" lon="15.873441853299923"><ele>1525.0</ele><time>2026-04-25T10:04:20.001Z</time></trkpt><trkpt lat="38.096797320878224" lon="15.873538045311603"><ele>1525.4</ele><time>2026-04-25T10:04:21.001Z</time></trkpt><trkpt lat="38.096870564550905" lon="15.873641954150813"><ele>1525.8</ele><time>2026-04-25T10:04:22.001Z</time></trkpt><trkpt lat="38.09696512828451" lon="15.873700284632617"><ele>1526.1999999999998</ele><time>2026-04-25T10:04:23.001Z</time></trkpt><trkpt lat="38.097061967524816" lon="15.873742569098384"><ele>1526.6</ele><time>2026-04-25T10:04:24.001Z</time></trkpt><trkpt lat="38.097155121461284" lon="15.873770844933865"><ele>1527.0</ele><time>2026-04-25T10:04:25.001Z</time></trkpt><trkpt lat="38.09726442407029" lon="15.873765192138896"><ele>1527.0</ele><time>2026-04-25T10:04:26.001Z</time></trkpt><trkpt lat="38.0973797765517" lon="15.873733485307122"><ele>1527.0</ele><time>2026-04-25T10:04:27.001Z</time></trkpt><trkpt lat="38.09749908128421" lon="15.873735329943926"><ele>1527.0</ele><time>2026-04-25T10:04:28.001Z</time></trkpt><trkpt lat="38.09761047384876" lon="15.873746452144335"><ele>1527.0</ele><time>2026-04-25T10:04:29.001Z</time></trkpt><trkpt lat="38.09772320466622" lon="15.873777262923808"><ele>1528.25</ele><time>2026-04-25T10:04:30.001Z</time></trkpt><trkpt lat="38.09784707434628" lon="15.873800867000964"><ele>1529.5</ele><time>2026-04-25T10:04:31.001Z</time></trkpt><trkpt lat="38.09797261417481" lon="15.873827984033703"><ele>1530.75</ele><time>2026-04-25T10:04:32.001Z</time></trkpt><trkpt lat="38.09809196834661" lon="15.873850745916943"><ele>1532.0</ele><time>2026-04-25T10:04:33.001Z</time></trkpt><trkpt lat="38.098210873025806" lon="15.873874087701463"><ele>1533.25</ele><time>2026-04-25T10:04:34.001Z</time></trkpt><trkpt lat="38.0983327718917" lon="15.873908105419021"><ele>1534.5</ele><time>2026-04-25T10:04:35.001Z</time></trkpt><trkpt lat="38.09846623285257" lon="15.873983680958522"><ele>1535.75</ele><time>2026-04-25T10:04:36.001Z</time></trkpt><trkpt lat="38.09860601901796" lon="15.874097534597269"><ele>1537.0</ele><time>2026-04-25T10:04:37.002Z</time></trkpt><trkpt lat="38.098767371608474" lon="15.874230721073628"><ele>1537.0</ele><time>2026-04-25T10:04:38.002Z</time></trkpt><trkpt lat="38.098829743422385" lon="15.87416864586608"><ele>1537.0</ele><time>2026-04-25T10:04:40.002Z</time></trkpt><trkpt lat="38.09891909807955" lon="15.874115737886896"><ele>1537.0</ele><time>2026-04-25T10:04:41.002Z</time></trkpt><trkpt lat="38.09899712510278" lon="15.874050229028262"><ele>1537.0</ele><time>2026-04-25T10:04:42.002Z</time></trkpt><trkpt lat="38.099080660751014" lon="15.874036551981755"><ele>1537.0</ele><time>2026-04-25T10:04:43.002Z</time></trkpt><trkpt lat="38.09917160796224" lon="15.874078705694547"><ele>1537.3999999999999</ele><time>2026-04-25T10:04:44.002Z</time></trkpt><trkpt lat="38.099257546824646" lon="15.874139072751595"><ele>1537.8</ele><time>2026-04-25T10:04:45.002Z</time></trkpt><trkpt lat="38.099347328363464" lon="15.874204100840128"><ele>1538.2</ele><time>2026-04-25T10:04:46.002Z</time></trkpt><trkpt lat="38.09942937314973" lon="15.87428116091988"><ele>1538.6</ele><time>2026-04-25T10:04:47.002Z</time></trkpt><trkpt lat="38.099506012373794" lon="15.87438068025859"><ele>1539.0</ele><time>2026-04-25T10:04:48.002Z</time></trkpt><trkpt lat="38.099573385540694" lon="15.874494502847668"><ele>1539.6</ele><time>2026-04-25T10:04:49.002Z</time></trkpt><trkpt lat="38.09963230604277" lon="15.874591768861366"><ele>1540.2</ele><time>2026-04-25T10:04:50.002Z</time></trkpt><trkpt lat="38.09970151872844" lon="15.874674702711467"><ele>1540.8</ele><time>2026-04-25T10:04:51.002Z</time></trkpt><trkpt lat="38.0997824894855" lon="15.874763110368367"><ele>1541.3999999999999</ele><time>2026-04-25T10:04:52.002Z</time></trkpt><trkpt lat="38.09984346274581" lon="15.87484445664044"><ele>1542.0</ele><time>2026-04-25T10:04:53.002Z</time></trkpt><trkpt lat="38.09995375101997" lon="15.874919030185842"><ele>1540.25</ele><time>2026-04-25T10:04:54.002Z</time></trkpt><trkpt lat="38.100063031952416" lon="15.874982249596767"><ele>1538.5</ele><time>2026-04-25T10:04:55.002Z</time></trkpt><trkpt lat="38.100179601095086" lon="15.875055339599035"><ele>1536.75</ele><time>2026-04-25T10:04:56.002Z</time></trkpt><trkpt lat="38.10028609670794" lon="15.875111575665644"><ele>1535.0</ele><time>2026-04-25T10:04:57.002Z</time></trkpt><trkpt lat="38.1004047731424" lon="15.875179304513901"><ele>1534.25</ele><time>2026-04-25T10:04:58.002Z</time></trkpt><trkpt lat="38.100527118312534" lon="15.875238049525958"><ele>1533.5</ele><time>2026-04-25T10:04:59.002Z</time></trkpt><trkpt lat="38.100644670778976" lon="15.875313582349825"><ele>1532.75</ele><time>2026-04-25T10:05:00.002Z</time></trkpt><trkpt lat="38.10075260947335" lon="15.875396178309382"><ele>1532.0</ele><time>2026-04-25T10:05:01.002Z</time></trkpt><trkpt lat="38.10086725855634" lon="15.875450241888814"><ele>1531.5</ele><time>2026-04-25T10:05:02.002Z</time></trkpt><trkpt lat="38.10096995476569" lon="15.875521424056004"><ele>1531.0</ele><time>2026-04-25T10:05:03.002Z</time></trkpt><trkpt lat="38.101072443746524" lon="15.875647686474377"><ele>1530.5</ele><time>2026-04-25T10:05:04.002Z</time></trkpt><trkpt lat="38.10116283597856" lon="15.875761441454694"><ele>1530.0</ele><time>2026-04-25T10:05:05.002Z</time></trkpt><trkpt lat="38.10123444341769" lon="15.875863548289217"><ele>1531.2</ele><time>2026-04-25T10:05:06.002Z</time></trkpt><trkpt lat="38.101288297643976" lon="15.875995871848138"><ele>1532.4</ele><time>2026-04-25T10:05:07.002Z</time></trkpt><trkpt lat="38.101315110712655" lon="15.876129853366105"><ele>1533.6</ele><time>2026-04-25T10:05:08.002Z</time></trkpt><trkpt lat="38.10133465047609" lon="15.876263723278244"><ele>1534.8</ele><time>2026-04-25T10:05:09.002Z</time></trkpt><trkpt lat="38.101366451272426" lon="15.87636989898288"><ele>1536.0</ele><time>2026-04-25T10:05:10.002Z</time></trkpt><trkpt lat="38.10135403711486" lon="15.876478791074433"><ele>1536.0</ele><time>2026-04-25T10:05:11.002Z</time></trkpt><trkpt lat="38.10128194365968" lon="15.87660872614644"><ele>1536.0</ele><time>2026-04-25T10:05:12.002Z</time></trkpt><trkpt lat="38.101207668889074" lon="15.87674929041779"><ele>1536.0</ele><time>2026-04-25T10:05:13.002Z</time></trkpt><trkpt lat="38.10114958734692" lon="15.87688491525295"><ele>1536.0</ele><time>2026-04-25T10:05:14.002Z</time></trkpt><trkpt lat="38.10109535533839" lon="15.87700597046348"><ele>1537.1666666666667</ele><time>2026-04-25T10:05:15.002Z</time></trkpt><trkpt lat="38.10107252913332" lon="15.877119000123665"><ele>1538.3333333333335</ele><time>2026-04-25T10:05:16.002Z</time></trkpt><trkpt lat="38.1010675286781" lon="15.877209498354357"><ele>1539.5</ele><time>2026-04-25T10:05:17.002Z</time></trkpt><trkpt lat="38.10107492794026" lon="15.877304766414152"><ele>1540.6666666666667</ele><time>2026-04-25T10:05:18.002Z</time></trkpt><trkpt lat="38.101192797095855" lon="15.877391644128883"><ele>1541.8333333333335</ele><time>2026-04-25T10:05:20.002Z</time></trkpt><trkpt lat="38.10124898432188" lon="15.877330461453651"><ele>1543.0</ele><time>2026-04-25T10:05:21.002Z</time></trkpt><trkpt lat="38.10128989084628" lon="15.877253917620509"><ele>1543.0000000000002</ele><time>2026-04-25T10:05:22.002Z</time></trkpt><trkpt lat="38.10133420189507" lon="15.877167099201253"><ele>1543.0</ele><time>2026-04-25T10:05:23.002Z</time></trkpt><trkpt lat="38.10134162265447" lon="15.877066779639051"><ele>1543.0</ele><time>2026-04-25T10:05:24.002Z</time></trkpt><trkpt lat="38.101412191987905" lon="15.877013722314652"><ele>1543.0</ele><time>2026-04-25T10:05:26.002Z</time></trkpt><trkpt lat="38.101414190324085" lon="15.877105305625868"><ele>1543.0000000000002</ele><time>2026-04-25T10:05:28.003Z</time></trkpt><trkpt lat="38.10142477583843" lon="15.877202195676432"><ele>1543.0</ele><time>2026-04-25T10:05:29.003Z</time></trkpt><trkpt lat="38.10140144726967" lon="15.877278829397016"><ele>1543.0</ele><time>2026-04-25T10:05:30.003Z</time></trkpt><trkpt lat="38.10139697703397" lon="15.877363544522062"><ele>1543.0</ele><time>2026-04-25T10:05:31.003Z</time></trkpt><trkpt lat="38.101377213032166" lon="15.87749522153804"><ele>1543.0</ele><time>2026-04-25T10:05:32.003Z</time></trkpt><trkpt lat="38.10133906998248" lon="15.877629166791907"><ele>1543.0</ele><time>2026-04-25T10:05:33.003Z</time></trkpt><trkpt lat="38.10134656773295" lon="15.877749202491602"><ele>1543.0</ele><time>2026-04-25T10:05:34.003Z</time></trkpt><trkpt lat="38.10137840071922" lon="15.877857400544322"><ele>1543.4</ele><time>2026-04-25T10:05:35.003Z</time></trkpt><trkpt lat="38.10144556682408" lon="15.87797193052365"><ele>1543.8000000000002</ele><time>2026-04-25T10:05:36.003Z</time></trkpt><trkpt lat="38.10154649806365" lon="15.87803017508467"><ele>1544.2</ele><time>2026-04-25T10:05:37.003Z</time></trkpt><trkpt lat="38.101633930376295" lon="15.878093257814594"><ele>1544.6</ele><time>2026-04-25T10:05:38.003Z</time></trkpt><trkpt lat="38.10171847601928" lon="15.87818037917397"><ele>1545.0</ele><time>2026-04-25T10:05:39.001Z</time></trkpt><trkpt lat="38.10178418520924" lon="15.87824975673747"><ele>1549.2</ele><time>2026-04-25T10:05:40.001Z</time></trkpt><trkpt lat="38.10183195396341" lon="15.878313593493598"><ele>1553.4</ele><time>2026-04-25T10:05:41.001Z</time></trkpt><trkpt lat="38.101912693617585" lon="15.87833924858202"><ele>1557.6</ele><time>2026-04-25T10:05:43.001Z</time></trkpt><trkpt lat="38.101993493157075" lon="15.878215585705812"><ele>1561.8</ele><time>2026-04-25T10:05:45.001Z</time></trkpt><trkpt lat="38.10205266008736" lon="15.878039721547207"><ele>1566.0</ele><time>2026-04-25T10:05:47.001Z</time></trkpt><trkpt lat="38.10209191865054" lon="15.877942530938308"><ele>1566.0</ele><time>2026-04-25T10:05:48.001Z</time></trkpt><trkpt lat="38.10213681659162" lon="15.877862878694096"><ele>1566.0</ele><time>2026-04-25T10:05:49.001Z</time></trkpt><trkpt lat="38.10220927511635" lon="15.877771612666837"><ele>1566.0</ele><time>2026-04-25T10:05:51.001Z</time></trkpt><trkpt lat="38.1022823497526" lon="15.87765354113421"><ele>1566.0</ele><time>2026-04-25T10:05:52.001Z</time></trkpt><trkpt lat="38.102346747540295" lon="15.877586201392262"><ele>1566.0</ele><time>2026-04-25T10:05:53.001Z</time></trkpt><trkpt lat="38.10239550627163" lon="15.877530468924745"><ele>1566.0</ele><time>2026-04-25T10:05:54.001Z</time></trkpt><trkpt lat="38.10246926143891" lon="15.877440980171011"><ele>1567.4</ele><time>2026-04-25T10:05:56.001Z</time></trkpt><trkpt lat="38.102550412966465" lon="15.877363196408298"><ele>1568.8</ele><time>2026-04-25T10:05:58.001Z</time></trkpt><trkpt lat="38.10262270268303" lon="15.877299831795064"><ele>1570.2</ele><time>2026-04-25T10:06:00.001Z</time></trkpt><trkpt lat="38.10266003042702" lon="15.877233018199384"><ele>1571.6000000000001</ele><time>2026-04-25T10:06:02.001Z</time></trkpt><trkpt lat="38.10273058631929" lon="15.877195253880995"><ele>1573.0</ele><time>2026-04-25T10:06:04.001Z</time></trkpt><trkpt lat="38.102863355621636" lon="15.877142853349442"><ele>1573.0</ele><time>2026-04-25T10:06:06.001Z</time></trkpt><trkpt lat="38.10293967268591" lon="15.877132240479726"><ele>1573.0</ele><time>2026-04-25T10:06:07.001Z</time></trkpt><trkpt lat="38.103079435305986" lon="15.877160883431648"><ele>1573.0</ele><time>2026-04-25T10:06:09.001Z</time></trkpt><trkpt lat="38.10314138204997" lon="15.877216215164077"><ele>1573.0</ele><time>2026-04-25T10:06:10.001Z</time></trkpt><trkpt lat="38.10322468603102" lon="15.87727772942603"><ele>1573.0</ele><time>2026-04-25T10:06:11.001Z</time></trkpt><trkpt lat="38.103317281493666" lon="15.877301823199016"><ele>1574.6000000000001</ele><time>2026-04-25T10:06:12.001Z</time></trkpt><trkpt lat="38.10342589878558" lon="15.877319335891215"><ele>1576.2</ele><time>2026-04-25T10:06:13.001Z</time></trkpt><trkpt lat="38.10355654546329" lon="15.877303746793165"><ele>1577.8</ele><time>2026-04-25T10:06:14.001Z</time></trkpt><trkpt lat="38.10365198527649" lon="15.877271917623172"><ele>1579.4</ele><time>2026-04-25T10:06:15.001Z</time></trkpt><trkpt lat="38.103733152904" lon="15.877219899503007"><ele>1581.0</ele><time>2026-04-25T10:06:16.001Z</time></trkpt><trkpt lat="38.103824167437324" lon="15.877151992039384"><ele>1581.0</ele><time>2026-04-25T10:06:17.001Z</time></trkpt><trkpt lat="38.10391037846665" lon="15.877079441559184"><ele>1581.0</ele><time>2026-04-25T10:06:18.001Z</time></trkpt><trkpt lat="38.1039856701837" lon="15.876980001071793"><ele>1581.0</ele><time>2026-04-25T10:06:19.001Z</time></trkpt><trkpt lat="38.1040730821693" lon="15.87688422970788"><ele>1581.0</ele><time>2026-04-25T10:06:20.001Z</time></trkpt><trkpt lat="38.10414546634636" lon="15.8767988120774"><ele>1581.0</ele><time>2026-04-25T10:06:21.001Z</time></trkpt><trkpt lat="38.104236969403914" lon="15.876694932593448"><ele>1581.8</ele><time>2026-04-25T10:06:22.001Z</time></trkpt><trkpt lat="38.104316454663476" lon="15.876606744691161"><ele>1582.6</ele><time>2026-04-25T10:06:23.001Z</time></trkpt><trkpt lat="38.10441338468845" lon="15.876517781344244"><ele>1583.4</ele><time>2026-04-25T10:06:24.001Z</time></trkpt><trkpt lat="38.10450513332299" lon="15.876504570119437"><ele>1584.2</ele><time>2026-04-25T10:06:25.001Z</time></trkpt><trkpt lat="38.10460924010226" lon="15.876457367378876"><ele>1585.0</ele><time>2026-04-25T10:06:26.001Z</time></trkpt><trkpt lat="38.10468283576179" lon="15.876392199473637"><ele>1585.0000000000002</ele><time>2026-04-25T10:06:27.001Z</time></trkpt><trkpt lat="38.10474566801825" lon="15.876350135646039"><ele>1585.0</ele><time>2026-04-25T10:06:28.001Z</time></trkpt><trkpt lat="38.10481796360545" lon="15.876351622699177"><ele>1585.0</ele><time>2026-04-25T10:06:29.001Z</time></trkpt><trkpt lat="38.104852731965686" lon="15.87646863446638"><ele>1585.0</ele><time>2026-04-25T10:06:31.001Z</time></trkpt><trkpt lat="38.104835903005586" lon="15.876558736425988"><ele>1585.0000000000002</ele><time>2026-04-25T10:06:32.001Z</time></trkpt><trkpt lat="38.10481518353925" lon="15.876638042007443"><ele>1585.0</ele><time>2026-04-25T10:06:33.001Z</time></trkpt><trkpt lat="38.10482355504159" lon="15.876727949928075"><ele>1586.0000000000002</ele><time>2026-04-25T10:06:34.001Z</time></trkpt><trkpt lat="38.10488197015064" lon="15.876780708699217"><ele>1587.0</ele><time>2026-04-25T10:06:35.001Z</time></trkpt><trkpt lat="38.10495712245158" lon="15.876800199260114"><ele>1588.0</ele><time>2026-04-25T10:06:36.001Z</time></trkpt><trkpt lat="38.10503852326134" lon="15.876790002418687"><ele>1589.0</ele><time>2026-04-25T10:06:37.001Z</time></trkpt><trkpt lat="38.10512626942786" lon="15.876762297923612"><ele>1590.0000000000002</ele><time>2026-04-25T10:06:38.001Z</time></trkpt><trkpt lat="38.105241523789566" lon="15.876737766890608"><ele>1591.0</ele><time>2026-04-25T10:06:39.001Z</time></trkpt><trkpt lat="38.10535680131843" lon="15.876733067234579"><ele>1591.8</ele><time>2026-04-25T10:06:40.001Z</time></trkpt><trkpt lat="38.10546568110721" lon="15.876735224830846"><ele>1592.6</ele><time>2026-04-25T10:06:41.001Z</time></trkpt><trkpt lat="38.105564368770516" lon="15.876732142435657"><ele>1593.4</ele><time>2026-04-25T10:06:42.001Z</time></trkpt><trkpt lat="38.10565779763925" lon="15.876752795385034"><ele>1594.2</ele><time>2026-04-25T10:06:43.001Z</time></trkpt><trkpt lat="38.10576108093101" lon="15.876794588485765"><ele>1595.0</ele><time>2026-04-25T10:06:44.001Z</time></trkpt><trkpt lat="38.10584974881494" lon="15.876812777680742"><ele>1594.9999999999998</ele><time>2026-04-25T10:06:45.001Z</time></trkpt><trkpt lat="38.10594408197617" lon="15.876799074764863"><ele>1595.0</ele><time>2026-04-25T10:06:46.001Z</time></trkpt><trkpt lat="38.10600102688413" lon="15.876752432731015"><ele>1595.0</ele><time>2026-04-25T10:06:47.001Z</time></trkpt><trkpt lat="38.106086541887805" lon="15.876743660142992"><ele>1595.0</ele><time>2026-04-25T10:06:48.001Z</time></trkpt><trkpt lat="38.10617771054602" lon="15.87668936380796"><ele>1594.9999999999998</ele><time>2026-04-25T10:06:49.001Z</time></trkpt><trkpt lat="38.10626631152555" lon="15.876660196468839"><ele>1595.0</ele><time>2026-04-25T10:06:50.001Z</time></trkpt><trkpt lat="38.106335794223874" lon="15.876597911621435"><ele>1594.9999999999998</ele><time>2026-04-25T10:06:51.001Z</time></trkpt><trkpt lat="38.10635583848952" lon="15.876518321480237"><ele>1595.0</ele><time>2026-04-25T10:06:52.001Z</time></trkpt><trkpt lat="38.10644864307842" lon="15.876450186514937"><ele>1595.0</ele><time>2026-04-25T10:06:53.001Z</time></trkpt><trkpt lat="38.106524638826805" lon="15.876465072618924"><ele>1595.0</ele><time>2026-04-25T10:06:54.001Z</time></trkpt><trkpt lat="38.106614875101606" lon="15.876502569854924"><ele>1594.9999999999998</ele><time>2026-04-25T10:06:55.001Z</time></trkpt><trkpt lat="38.10669016220467" lon="15.876566857377435"><ele>1595.0</ele><time>2026-04-25T10:06:56.001Z</time></trkpt><trkpt lat="38.106771593594004" lon="15.876604976683486"><ele>1595.2</ele><time>2026-04-25T10:06:57.001Z</time></trkpt><trkpt lat="38.10686611997788" lon="15.876661476158123"><ele>1595.4</ele><time>2026-04-25T10:06:58.001Z</time></trkpt><trkpt lat="38.10695218884781" lon="15.87670789763881"><ele>1595.6</ele><time>2026-04-25T10:06:59.001Z</time></trkpt><trkpt lat="38.10705838465677" lon="15.876762814126817"><ele>1595.8</ele><time>2026-04-25T10:07:00.001Z</time></trkpt><trkpt lat="38.10715502364777" lon="15.876831000546263"><ele>1596.0</ele><time>2026-04-25T10:07:01.001Z</time></trkpt><trkpt lat="38.10725365692661" lon="15.876861330328008"><ele>1596.8</ele><time>2026-04-25T10:07:02.001Z</time></trkpt><trkpt lat="38.107345449126996" lon="15.87688273361114"><ele>1597.6</ele><time>2026-04-25T10:07:03.002Z</time></trkpt><trkpt lat="38.10744402109748" lon="15.876950239351745"><ele>1598.4</ele><time>2026-04-25T10:07:04.002Z</time></trkpt><trkpt lat="38.107532116325046" lon="15.877016792781411"><ele>1599.2</ele><time>2026-04-25T10:07:05.002Z</time></trkpt><trkpt lat="38.10761265153302" lon="15.877071578371204"><ele>1600.0</ele><time>2026-04-25T10:07:06.002Z</time></trkpt><trkpt lat="38.10772142612461" lon="15.877102722781231"><ele>1600.0000000000002</ele><time>2026-04-25T10:07:07.002Z</time></trkpt><trkpt lat="38.10780141021595" lon="15.8770911960643"><ele>1600.0</ele><time>2026-04-25T10:07:08.002Z</time></trkpt><trkpt lat="38.107899204723495" lon="15.877078223039693"><ele>1600.0</ele><time>2026-04-25T10:07:09.002Z</time></trkpt><trkpt lat="38.107971854234286" lon="15.87709705480585"><ele>1600.0</ele><time>2026-04-25T10:07:10.002Z</time></trkpt><trkpt lat="38.10806053667023" lon="15.877129769402618"><ele>1600.0000000000002</ele><time>2026-04-25T10:07:11.002Z</time></trkpt><trkpt lat="38.108130457070935" lon="15.87720004980837"><ele>1600.0</ele><time>2026-04-25T10:07:12.002Z</time></trkpt><trkpt lat="38.10824817303743" lon="15.877315280578342"><ele>1601.0</ele><time>2026-04-25T10:07:13.002Z</time></trkpt><trkpt lat="38.108336102744225" lon="15.877416972095888"><ele>1602.0</ele><time>2026-04-25T10:07:14.002Z</time></trkpt><trkpt lat="38.108424776120785" lon="15.877482925961383"><ele>1603.0</ele><time>2026-04-25T10:07:15.002Z</time></trkpt><trkpt lat="38.10854007690899" lon="15.87753823120617"><ele>1604.0</ele><time>2026-04-25T10:07:16.002Z</time></trkpt><trkpt lat="38.108648423152836" lon="15.877564352096071"><ele>1604.0</ele><time>2026-04-25T10:07:17.002Z</time></trkpt><trkpt lat="38.108760388366555" lon="15.877569697348491"><ele>1604.0</ele><time>2026-04-25T10:07:18.002Z</time></trkpt><trkpt lat="38.10886588950738" lon="15.877587004277839"><ele>1604.0</ele><time>2026-04-25T10:07:19.002Z</time></trkpt><trkpt lat="38.10895818308982" lon="15.877591867682955"><ele>1604.0</ele><time>2026-04-25T10:07:20.002Z</time></trkpt><trkpt lat="38.109088504284415" lon="15.87756909978108"><ele>1604.0</ele><time>2026-04-25T10:07:21.002Z</time></trkpt><trkpt lat="38.10921982645718" lon="15.877534172922735"><ele>1605.25</ele><time>2026-04-25T10:07:22.002Z</time></trkpt><trkpt lat="38.10936870895622" lon="15.87750550325213"><ele>1606.5</ele><time>2026-04-25T10:07:23.002Z</time></trkpt><trkpt lat="38.109510667927395" lon="15.877472273360347"><ele>1607.75</ele><time>2026-04-25T10:07:24.002Z</time></trkpt><trkpt lat="38.109649298915194" lon="15.877431698505667"><ele>1609.0</ele><time>2026-04-25T10:07:25.002Z</time></trkpt><trkpt lat="38.109765600888494" lon="15.877358116097387"><ele>1609.0</ele><time>2026-04-25T10:07:26.002Z</time></trkpt><trkpt lat="38.109879837860035" lon="15.87733657391125"><ele>1609.0</ele><time>2026-04-25T10:07:27.002Z</time></trkpt><trkpt lat="38.10995387824321" lon="15.877244019841429"><ele>1609.0</ele><time>2026-04-25T10:07:28.002Z</time></trkpt><trkpt lat="38.110045222787235" lon="15.877155600332054"><ele>1609.0</ele><time>2026-04-25T10:07:29.002Z</time></trkpt><trkpt lat="38.1101517774471" lon="15.877122343699217"><ele>1609.0</ele><time>2026-04-25T10:07:30.002Z</time></trkpt><trkpt lat="38.11027311834455" lon="15.877061722580622"><ele>1610.0</ele><time>2026-04-25T10:07:31.002Z</time></trkpt><trkpt lat="38.11040291770521" lon="15.877001735438537"><ele>1611.0</ele><time>2026-04-25T10:07:32.002Z</time></trkpt><trkpt lat="38.11056481988089" lon="15.876894994482582"><ele>1612.0</ele><time>2026-04-25T10:07:33.002Z</time></trkpt><trkpt lat="38.11073338364461" lon="15.876740375809527"><ele>1614.3333333333335</ele><time>2026-04-25T10:07:34.002Z</time></trkpt><trkpt lat="38.11087450890366" lon="15.876592522378749"><ele>1616.6666666666665</ele><time>2026-04-25T10:07:35.002Z</time></trkpt><trkpt lat="38.11099921673136" lon="15.876469961529988"><ele>1619.0</ele><time>2026-04-25T10:07:36.002Z</time></trkpt><trkpt lat="38.11111440470729" lon="15.876372266866603"><ele>1619.0</ele><time>2026-04-25T10:07:37.002Z</time></trkpt><trkpt lat="38.11120098841129" lon="15.876326196138644"><ele>1619.0</ele><time>2026-04-25T10:07:38.002Z</time></trkpt><trkpt lat="38.11133597281867" lon="15.876284914174498"><ele>1619.0</ele><time>2026-04-25T10:07:40.002Z</time></trkpt><trkpt lat="38.111440972789076" lon="15.876334488087886"><ele>1619.0</ele><time>2026-04-25T10:07:42.002Z</time></trkpt><trkpt lat="38.1114993560027" lon="15.876388978813766"><ele>1619.0</ele><time>2026-04-25T10:07:43.002Z</time></trkpt><trkpt lat="38.11155810652645" lon="15.876453133750381"><ele>1619.8000000000002</ele><time>2026-04-25T10:07:44.002Z</time></trkpt><trkpt lat="38.111635953231634" lon="15.876488723407702"><ele>1620.6000000000001</ele><time>2026-04-25T10:07:45.001Z</time></trkpt><trkpt lat="38.111753220073204" lon="15.876495552163824"><ele>1621.4</ele><time>2026-04-25T10:07:46.001Z</time></trkpt><trkpt lat="38.11185397103291" lon="15.876446433736943"><ele>1622.2</ele><time>2026-04-25T10:07:47.001Z</time></trkpt><trkpt lat="38.11190527819878" lon="15.876334957687336"><ele>1623.0</ele><time>2026-04-25T10:07:48.001Z</time></trkpt><trkpt lat="38.111953579496216" lon="15.876186742035605"><ele>1623.0</ele><time>2026-04-25T10:07:49.001Z</time></trkpt><trkpt lat="38.11205033968697" lon="15.876033527842262"><ele>1623.0</ele><time>2026-04-25T10:07:50.001Z</time></trkpt><trkpt lat="38.11197063677101" lon="15.876117224499147"><ele>1623.0</ele><time>2026-04-25T10:07:51.001Z</time></trkpt><trkpt lat="38.11204966743585" lon="15.876046780834471"><ele>1623.0</ele><time>2026-04-25T10:07:52.001Z</time></trkpt><trkpt lat="38.112112918772304" lon="15.876031083565671"><ele>1623.0</ele><time>2026-04-25T10:07:53.001Z</time></trkpt><trkpt lat="38.112239720616884" lon="15.87607766818353"><ele>1623.0</ele><time>2026-04-25T10:07:55.001Z</time></trkpt><trkpt lat="38.11231115143263" lon="15.876127669133327"><ele>1623.0</ele><time>2026-04-25T10:07:56.001Z</time></trkpt><trkpt lat="38.1124184878097" lon="15.876170988862551"><ele>1623.0</ele><time>2026-04-25T10:08:15.001Z</time></trkpt><trkpt lat="38.11248668741556" lon="15.876167364195169"><ele>1623.0</ele><time>2026-04-25T10:08:16.001Z</time></trkpt><trkpt lat="38.11255732134243" lon="15.876134124928369"><ele>1623.0</ele><time>2026-04-25T10:08:17.001Z</time></trkpt><trkpt lat="38.112641198068346" lon="15.876107115899176"><ele>1623.0</ele><time>2026-04-25T10:08:18.001Z</time></trkpt><trkpt lat="38.11273947215528" lon="15.87606775721739"><ele>1625.5</ele><time>2026-04-25T10:08:19.001Z</time></trkpt><trkpt lat="38.112836344289974" lon="15.876063502684225"><ele>1628.0</ele><time>2026-04-25T10:08:20.001Z</time></trkpt><trkpt lat="38.1129483319788" lon="15.876095063000284"><ele>1630.5</ele><time>2026-04-25T10:08:21.001Z</time></trkpt><trkpt lat="38.113075087878336" lon="15.876160252394618"><ele>1633.0</ele><time>2026-04-25T10:08:22.001Z</time></trkpt><trkpt lat="38.1132136874025" lon="15.876234234360377"><ele>1636.75</ele><time>2026-04-25T10:08:23.001Z</time></trkpt><trkpt lat="38.11335570259115" lon="15.876288258422113"><ele>1640.5</ele><time>2026-04-25T10:08:24.001Z</time></trkpt><trkpt lat="38.11349622129523" lon="15.876310432025216"><ele>1644.25</ele><time>2026-04-25T10:08:25.001Z</time></trkpt><trkpt lat="38.113631172935726" lon="15.876289775992786"><ele>1648.0</ele><time>2026-04-25T10:08:26.001Z</time></trkpt><trkpt lat="38.11374378946158" lon="15.876225356157335"><ele>1648.0</ele><time>2026-04-25T10:08:27.001Z</time></trkpt><trkpt lat="38.11385796990145" lon="15.876141031193676"><ele>1648.0</ele><time>2026-04-25T10:08:28.001Z</time></trkpt><trkpt lat="38.113971971794314" lon="15.876033277829867"><ele>1648.0</ele><time>2026-04-25T10:08:29.001Z</time></trkpt><trkpt lat="38.1140772529123" lon="15.8758884694984"><ele>1648.0</ele><time>2026-04-25T10:08:30.001Z</time></trkpt><trkpt lat="38.11416018688556" lon="15.875724315350087"><ele>1648.0</ele><time>2026-04-25T10:08:31.001Z</time></trkpt><trkpt lat="38.1142611474894" lon="15.875537184855592"><ele>1648.0</ele><time>2026-04-25T10:08:32.001Z</time></trkpt><trkpt lat="38.11438058276859" lon="15.875340173332694"><ele>1648.0</ele><time>2026-04-25T10:08:33.001Z</time></trkpt><trkpt lat="38.114495585288324" lon="15.875095238796101"><ele>1648.0</ele><time>2026-04-25T10:08:34.001Z</time></trkpt><trkpt lat="38.11459821897573" lon="15.874926727566926"><ele>1648.0</ele><time>2026-04-25T10:08:35.001Z</time></trkpt><trkpt lat="38.11467956047953" lon="15.874750676826139"><ele>1648.0</ele><time>2026-04-25T10:08:36.001Z</time></trkpt><trkpt lat="38.11473325117549" lon="15.874531416840657"><ele>1648.0</ele><time>2026-04-25T10:08:37.001Z</time></trkpt><trkpt lat="38.11478104539652" lon="15.874308750801681"><ele>1648.0</ele><time>2026-04-25T10:08:38.001Z</time></trkpt><trkpt lat="38.11484842618481" lon="15.874115257731841"><ele>1648.0</ele><time>2026-04-25T10:08:39.001Z</time></trkpt><trkpt lat="38.11492519670693" lon="15.873953548255736"><ele>1650.75</ele><time>2026-04-25T10:08:40.001Z</time></trkpt><trkpt lat="38.114996278483304" lon="15.873814754644876"><ele>1653.5</ele><time>2026-04-25T10:08:41.001Z</time></trkpt><trkpt lat="38.11499520508803" lon="15.873671011684099"><ele>1656.25</ele><time>2026-04-25T10:08:42.001Z</time></trkpt><trkpt lat="38.114953339627434" lon="15.87352983578032"><ele>1659.0</ele><time>2026-04-25T10:08:43.001Z</time></trkpt><trkpt lat="38.11489878234412" lon="15.873370129752386"><ele>1659.0</ele><time>2026-04-25T10:08:44.001Z</time></trkpt><trkpt lat="38.11483575937938" lon="15.873236671750853"><ele>1659.0</ele><time>2026-04-25T10:08:45.001Z</time></trkpt><trkpt lat="38.11478616049125" lon="15.8731034324579"><ele>1659.0</ele><time>2026-04-25T10:08:46.001Z</time></trkpt><trkpt lat="38.11476526645488" lon="15.872981362085227"><ele>1659.0</ele><time>2026-04-25T10:08:47.001Z</time></trkpt><trkpt lat="38.11477413477221" lon="15.87284968835406"><ele>1659.0</ele><time>2026-04-25T10:08:48.001Z</time></trkpt><trkpt lat="38.11480380442219" lon="15.872702659463707"><ele>1657.5</ele><time>2026-04-25T10:08:49.001Z</time></trkpt><trkpt lat="38.11485904718055" lon="15.872548821776487"><ele>1656.0</ele><time>2026-04-25T10:08:50.001Z</time></trkpt><trkpt lat="38.11495209799553" lon="15.87243406698221"><ele>1654.5</ele><time>2026-04-25T10:08:51.001Z</time></trkpt><trkpt lat="38.11505678423295" lon="15.872330801355723"><ele>1653.0</ele><time>2026-04-25T10:08:52.001Z</time></trkpt><trkpt lat="38.11518111148405" lon="15.87225410391689"><ele>1657.5</ele><time>2026-04-25T10:08:53.001Z</time></trkpt><trkpt lat="38.11528410102159" lon="15.872169053261928"><ele>1662.0</ele><time>2026-04-25T10:08:54.001Z</time></trkpt><trkpt lat="38.11540330227301" lon="15.872032718000318"><ele>1666.5</ele><time>2026-04-25T10:08:55.001Z</time></trkpt><trkpt lat="38.11550655937098" lon="15.871871061712394"><ele>1671.0</ele><time>2026-04-25T10:08:56.001Z</time></trkpt><trkpt lat="38.115579610371846" lon="15.871719674424702"><ele>1671.6666666666665</ele><time>2026-04-25T10:08:57.001Z</time></trkpt><trkpt lat="38.115683086996405" lon="15.87155873813527"><ele>1672.3333333333333</ele><time>2026-04-25T10:08:58.001Z</time></trkpt><trkpt lat="38.115770660836084" lon="15.871405530340471"><ele>1673.0</ele><time>2026-04-25T10:08:59.001Z</time></trkpt><trkpt lat="38.11588130721813" lon="15.871276199714378"><ele>1673.0</ele><time>2026-04-25T10:09:00.001Z</time></trkpt><trkpt lat="38.11598762369225" lon="15.871146927869386"><ele>1673.0</ele><time>2026-04-25T10:09:01.001Z</time></trkpt><trkpt lat="38.11610197781394" lon="15.871037416586882"><ele>1673.0</ele><time>2026-04-25T10:09:02.001Z</time></trkpt><trkpt lat="38.116209519593475" lon="15.87092827854436"><ele>1673.0</ele><time>2026-04-25T10:09:03.001Z</time></trkpt><trkpt lat="38.116319967778566" lon="15.870800514371224"><ele>1673.5</ele><time>2026-04-25T10:09:04.001Z</time></trkpt><trkpt lat="38.116414092215926" lon="15.870665806478971"><ele>1674.0</ele><time>2026-04-25T10:09:05.001Z</time></trkpt><trkpt lat="38.11648000613533" lon="15.870513658128312"><ele>1674.5</ele><time>2026-04-25T10:09:06.001Z</time></trkpt><trkpt lat="38.11652193345335" lon="15.870369866190572"><ele>1675.0</ele><time>2026-04-25T10:09:07.001Z</time></trkpt><trkpt lat="38.11655359526731" lon="15.870241585119047"><ele>1675.0</ele><time>2026-04-25T10:09:08.001Z</time></trkpt><trkpt lat="38.11656672480814" lon="15.870135335111964"><ele>1675.0</ele><time>2026-04-25T10:09:09.001Z</time></trkpt><trkpt lat="38.11658891633687" lon="15.870012015449563"><ele>1675.0</ele><time>2026-04-25T10:09:10.001Z</time></trkpt><trkpt lat="38.11663952717811" lon="15.869880647583708"><ele>1675.0</ele><time>2026-04-25T10:09:11.001Z</time></trkpt><trkpt lat="38.11669999420885" lon="15.869750109271848"><ele>1675.0</ele><time>2026-04-25T10:09:12.001Z</time></trkpt><trkpt lat="38.11677688788165" lon="15.869633085522379"><ele>1674.0</ele><time>2026-04-25T10:09:13.001Z</time></trkpt><trkpt lat="38.11685727816183" lon="15.869503026777311"><ele>1673.0</ele><time>2026-04-25T10:09:14.001Z</time></trkpt><trkpt lat="38.11693768015376" lon="15.869393315535143"><ele>1672.0</ele><time>2026-04-25T10:09:15.001Z</time></trkpt><trkpt lat="38.11702033319998" lon="15.86927594377968"><ele>1671.0</ele><time>2026-04-25T10:09:16.001Z</time></trkpt><trkpt lat="38.11710668938859" lon="15.869165739881378"><ele>1670.0</ele><time>2026-04-25T10:09:17.001Z</time></trkpt><trkpt lat="38.11718483269849" lon="15.869049952977884"><ele>1669.0</ele><time>2026-04-25T10:09:18.002Z</time></trkpt><trkpt lat="38.11725079556165" lon="15.868905274684124"><ele>1668.0</ele><time>2026-04-25T10:09:19.002Z</time></trkpt><trkpt lat="38.11729110113527" lon="15.868760372076254"><ele>1667.0</ele><time>2026-04-25T10:09:20.002Z</time></trkpt><trkpt lat="38.11728952106862" lon="15.868590372899671"><ele>1666.25</ele><time>2026-04-25T10:09:21.002Z</time></trkpt><trkpt lat="38.11727210124849" lon="15.868426997889394"><ele>1665.5</ele><time>2026-04-25T10:09:22.002Z</time></trkpt><trkpt lat="38.11726553279095" lon="15.868253053877666"><ele>1664.75</ele><time>2026-04-25T10:09:23.002Z</time></trkpt><trkpt lat="38.117226073813725" lon="15.868073813330785"><ele>1664.0</ele><time>2026-04-25T10:09:24.002Z</time></trkpt><trkpt lat="38.11721169520102" lon="15.867876812378167"><ele>1664.0</ele><time>2026-04-25T10:09:25.002Z</time></trkpt><trkpt lat="38.11720555077608" lon="15.867682718569341"><ele>1664.0</ele><time>2026-04-25T10:09:26.002Z</time></trkpt><trkpt lat="38.11719638831295" lon="15.867482365769403"><ele>1664.0</ele><time>2026-04-25T10:09:27.002Z</time></trkpt><trkpt lat="38.11720903175644" lon="15.867306879983566"><ele>1664.0</ele><time>2026-04-25T10:09:28.002Z</time></trkpt><trkpt lat="38.11725169861474" lon="15.867166203460904"><ele>1664.25</ele><time>2026-04-25T10:09:29.002Z</time></trkpt><trkpt lat="38.117303150086656" lon="15.8670275069089"><ele>1664.5</ele><time>2026-04-25T10:09:30.002Z</time></trkpt><trkpt lat="38.11735215402645" lon="15.866876588646559"><ele>1664.75</ele><time>2026-04-25T10:09:31.002Z</time></trkpt><trkpt lat="38.11737973673226" lon="15.866718702887667"><ele>1665.0</ele><time>2026-04-25T10:09:32.002Z</time></trkpt><trkpt lat="38.117362889523775" lon="15.866546831585877"><ele>1664.0</ele><time>2026-04-25T10:09:33.002Z</time></trkpt><trkpt lat="38.11734088835927" lon="15.866377662084576"><ele>1663.0</ele><time>2026-04-25T10:09:34.002Z</time></trkpt><trkpt lat="38.11731808553553" lon="15.866210615167292"><ele>1662.0</ele><time>2026-04-25T10:09:35.002Z</time></trkpt><trkpt lat="38.11731160579249" lon="15.866039294360853"><ele>1661.0</ele><time>2026-04-25T10:09:36.002Z</time></trkpt><trkpt lat="38.11731669277707" lon="15.865900850047145"><ele>1660.75</ele><time>2026-04-25T10:09:37.002Z</time></trkpt><trkpt lat="38.11737030394548" lon="15.865728040847673"><ele>1660.5</ele><time>2026-04-25T10:09:38.002Z</time></trkpt><trkpt lat="38.11743479285125" lon="15.865567262773155"><ele>1660.25</ele><time>2026-04-25T10:09:39.002Z</time></trkpt><trkpt lat="38.11749398301292" lon="15.86542108432778"><ele>1660.0</ele><time>2026-04-25T10:09:40.002Z</time></trkpt><trkpt lat="38.11758137708144" lon="15.865285048138544"><ele>1663.0</ele><time>2026-04-25T10:09:41.002Z</time></trkpt><trkpt lat="38.11766770264519" lon="15.865152749775499"><ele>1666.0</ele><time>2026-04-25T10:09:42.002Z</time></trkpt><trkpt lat="38.11775819596247" lon="15.865054877725878"><ele>1669.0</ele><time>2026-04-25T10:09:43.002Z</time></trkpt><trkpt lat="38.11785085185689" lon="15.864976845288274"><ele>1672.0</ele><time>2026-04-25T10:09:44.002Z</time></trkpt><trkpt lat="38.11794685102606" lon="15.864915834760904"><ele>1672.0</ele><time>2026-04-25T10:09:45.002Z</time></trkpt><trkpt lat="38.11803640542577" lon="15.86491227598089"><ele>1672.0</ele><time>2026-04-25T10:09:46.002Z</time></trkpt><trkpt lat="38.11812610278495" lon="15.864919961089921"><ele>1672.0</ele><time>2026-04-25T10:09:47.002Z</time></trkpt><trkpt lat="38.11819998100076" lon="15.864956730652432"><ele>1672.0</ele><time>2026-04-25T10:09:48.002Z</time></trkpt><trkpt lat="38.11828156872745" lon="15.865040944043566"><ele>1672.0</ele><time>2026-04-25T10:09:49.002Z</time></trkpt><trkpt lat="38.11834490615526" lon="15.865133994233238"><ele>1672.0</ele><time>2026-04-25T10:09:50.002Z</time></trkpt><trkpt lat="38.11839454001881" lon="15.865257009973002"><ele>1672.0</ele><time>2026-04-25T10:09:51Z</time></trkpt><trkpt lat="38.11842605260915" lon="15.865409459815842"><ele>1672.0</ele><time>2026-04-25T10:09:52Z</time></trkpt><trkpt lat="38.11845893548393" lon="15.865540924995734"><ele>1672.0</ele><time>2026-04-25T10:09:53Z</time></trkpt><trkpt lat="38.11848681638168" lon="15.865667805482286"><ele>1672.0</ele><time>2026-04-25T10:09:54Z</time></trkpt><trkpt lat="38.118526093629576" lon="15.865788046891874"><ele>1672.0000000000002</ele><time>2026-04-25T10:09:55Z</time></trkpt><trkpt lat="38.11855572018646" lon="15.865917053883745"><ele>1672.0</ele><time>2026-04-25T10:09:56Z</time></trkpt><trkpt lat="38.11859190498373" lon="15.866022962088168"><ele>1672.0</ele><time>2026-04-25T10:09:57Z</time></trkpt><trkpt lat="38.11862348725128" lon="15.866116105751214"><ele>1672.0</ele><time>2026-04-25T10:09:58Z</time></trkpt><trkpt lat="38.11864268932341" lon="15.866231124649946"><ele>1672.0000000000002</ele><time>2026-04-25T10:09:59Z</time></trkpt><trkpt lat="38.11867973527753" lon="15.866320154081055"><ele>1672.0</ele><time>2026-04-25T10:10:00Z</time></trkpt><trkpt lat="38.11871820705639" lon="15.866426211440345"><ele>1672.6666666666667</ele><time>2026-04-25T10:10:01Z</time></trkpt><trkpt lat="38.118772043598405" lon="15.866471175027023"><ele>1673.3333333333335</ele><time>2026-04-25T10:10:02Z</time></trkpt><trkpt lat="38.11878917312072" lon="15.866563543548958"><ele>1674.0</ele><time>2026-04-25T10:10:03Z</time></trkpt><trkpt lat="38.1188292722288" lon="15.86665584526745"><ele>1674.6666666666665</ele><time>2026-04-25T10:10:05Z</time></trkpt><trkpt lat="38.118902816515536" lon="15.866788116763885"><ele>1675.3333333333333</ele><time>2026-04-25T10:10:08Z</time></trkpt><trkpt lat="38.11896135241978" lon="15.866877587450086"><ele>1676.0</ele><time>2026-04-25T10:10:09Z</time></trkpt><trkpt lat="38.11901680553707" lon="15.866926985047323"><ele>1673.3333333333333</ele><time>2026-04-25T10:10:11Z</time></trkpt><trkpt lat="38.11908870280829" lon="15.866968506418353"><ele>1670.6666666666665</ele><time>2026-04-25T10:11:31.001Z</time></trkpt><trkpt lat="38.11915793979749" lon="15.866997811574016"><ele>1668.0</ele><time>2026-04-25T10:11:34.001Z</time></trkpt><trkpt lat="38.119229756220165" lon="15.867021450580268"><ele>1665.3333333333335</ele><time>2026-04-25T10:11:35.001Z</time></trkpt><trkpt lat="38.119320097431235" lon="15.867058824225289"><ele>1662.6666666666667</ele><time>2026-04-25T10:11:36.001Z</time></trkpt><trkpt lat="38.11939854763847" lon="15.867109162247298"><ele>1660.0</ele><time>2026-04-25T10:11:37.001Z</time></trkpt><trkpt lat="38.11947572300582" lon="15.867167297558803"><ele>1660.0</ele><time>2026-04-25T10:11:38.001Z</time></trkpt><trkpt lat="38.11954495413061" lon="15.86722796093398"><ele>1660.0</ele><time>2026-04-25T10:11:39.001Z</time></trkpt><trkpt lat="38.1196209993788" lon="15.867283593820176"><ele>1660.0</ele><time>2026-04-25T10:11:40.001Z</time></trkpt><trkpt lat="38.11971589088446" lon="15.867366174916643"><ele>1660.0</ele><time>2026-04-25T10:11:41.001Z</time></trkpt><trkpt lat="38.1198017748884" lon="15.86741302872671"><ele>1660.0</ele><time>2026-04-25T10:11:42.001Z</time></trkpt><trkpt lat="38.119898718756765" lon="15.86743120866082"><ele>1657.6</ele><time>2026-04-25T10:11:43.001Z</time></trkpt><trkpt lat="38.11999233966838" lon="15.867411880098222"><ele>1655.2</ele><time>2026-04-25T10:11:44.001Z</time></trkpt><trkpt lat="38.12009849819056" lon="15.867366915631575"><ele>1652.8000000000002</ele><time>2026-04-25T10:11:45.001Z</time></trkpt><trkpt lat="38.12019418699139" lon="15.867335171763933"><ele>1650.4</ele><time>2026-04-25T10:11:46.001Z</time></trkpt><trkpt lat="38.12032634442558" lon="15.867312659753033"><ele>1648.0</ele><time>2026-04-25T10:11:47.001Z</time></trkpt><trkpt lat="38.12046360224179" lon="15.86737531454587"><ele>1648.0</ele><time>2026-04-25T10:11:48.001Z</time></trkpt><trkpt lat="38.120588619599054" lon="15.867407344496018"><ele>1648.0</ele><time>2026-04-25T10:11:49.001Z</time></trkpt><trkpt lat="38.12069026288295" lon="15.867426787075356"><ele>1648.0</ele><time>2026-04-25T10:11:50.001Z</time></trkpt><trkpt lat="38.12079304110868" lon="15.867382601324234"><ele>1648.0</ele><time>2026-04-25T10:11:51.001Z</time></trkpt><trkpt lat="38.12087017555064" lon="15.86730314704654"><ele>1648.0</ele><time>2026-04-25T10:11:52.001Z</time></trkpt><trkpt lat="38.12097869857928" lon="15.86719800914904"><ele>1646.25</ele><time>2026-04-25T10:11:53.001Z</time></trkpt><trkpt lat="38.121071597161134" lon="15.867076345078106"><ele>1644.5</ele><time>2026-04-25T10:11:54.001Z</time></trkpt><trkpt lat="38.121164428969536" lon="15.866973198788566"><ele>1642.75</ele><time>2026-04-25T10:11:55.001Z</time></trkpt><trkpt lat="38.12126140700185" lon="15.866889092013196"><ele>1641.0</ele><time>2026-04-25T10:11:56.001Z</time></trkpt><trkpt lat="38.12137352130978" lon="15.866814570566612"><ele>1641.25</ele><time>2026-04-25T10:11:56.999Z</time></trkpt><trkpt lat="38.121501630082754" lon="15.86673645279156"><ele>1641.5</ele><time>2026-04-25T10:11:57.999Z</time></trkpt><trkpt lat="38.12163219600326" lon="15.866670397983386"><ele>1641.75</ele><time>2026-04-25T10:11:58.999Z</time></trkpt><trkpt lat="38.121774766262234" lon="15.866598623683057"><ele>1642.0</ele><time>2026-04-25T10:11:59.999Z</time></trkpt><trkpt lat="38.1219054215344" lon="15.866534222246292"><ele>1642.0</ele><time>2026-04-25T10:12:00.999Z</time></trkpt><trkpt lat="38.122043812048034" lon="15.866468342558317"><ele>1642.0</ele><time>2026-04-25T10:12:01.999Z</time></trkpt><trkpt lat="38.12217036152223" lon="15.866408205785893"><ele>1642.0</ele><time>2026-04-25T10:12:02.999Z</time></trkpt><trkpt lat="38.122293830711065" lon="15.866338760680659"><ele>1642.0</ele><time>2026-04-25T10:12:03.999Z</time></trkpt><trkpt lat="38.122423134643775" lon="15.866268933934162"><ele>1641.25</ele><time>2026-04-25T10:12:04.999Z</time></trkpt><trkpt lat="38.122552300313224" lon="15.866197498315167"><ele>1640.5</ele><time>2026-04-25T10:12:05.999Z</time></trkpt><trkpt lat="38.122678696243035" lon="15.866136011656675"><ele>1639.75</ele><time>2026-04-25T10:12:06.999Z</time></trkpt><trkpt lat="38.122799773398775" lon="15.866065330326244"><ele>1639.0</ele><time>2026-04-25T10:12:07.999Z</time></trkpt><trkpt lat="38.12293348700763" lon="15.865991077730058"><ele>1640.5</ele><time>2026-04-25T10:12:08.999Z</time></trkpt><trkpt lat="38.12306260775144" lon="15.8659069154463"><ele>1642.0</ele><time>2026-04-25T10:12:09.999Z</time></trkpt><trkpt lat="38.12319943517206" lon="15.86579843829485"><ele>1643.5</ele><time>2026-04-25T10:12:11Z</time></trkpt><trkpt lat="38.12326646814213" lon="15.865666762981766"><ele>1645.0</ele><time>2026-04-25T10:12:12Z</time></trkpt><trkpt lat="38.12336587835539" lon="15.865551491183908"><ele>1646.5</ele><time>2026-04-25T10:12:13Z</time></trkpt><trkpt lat="38.12347113536901" lon="15.865454941985211"><ele>1648.0</ele><time>2026-04-25T10:12:14Z</time></trkpt><trkpt lat="38.1235856019343" lon="15.865384725876162"><ele>1649.5</ele><time>2026-04-25T10:12:15Z</time></trkpt><trkpt lat="38.12370838504474" lon="15.865340858635275"><ele>1651.0</ele><time>2026-04-25T10:12:16Z</time></trkpt><trkpt lat="38.12383790444426" lon="15.865311005160489"><ele>1651.0</ele><time>2026-04-25T10:12:17Z</time></trkpt><trkpt lat="38.12396915106609" lon="15.865313353327812"><ele>1651.0</ele><time>2026-04-25T10:12:18Z</time></trkpt><trkpt lat="38.12410974131778" lon="15.865313264584268"><ele>1651.0</ele><time>2026-04-25T10:12:19Z</time></trkpt><trkpt lat="38.12422553661904" lon="15.86527151090687"><ele>1651.0</ele><time>2026-04-25T10:12:20Z</time></trkpt><trkpt lat="38.12432491811528" lon="15.86521263499641"><ele>1653.1999999999998</ele><time>2026-04-25T10:12:21Z</time></trkpt><trkpt lat="38.1244380852801" lon="15.865080800976356"><ele>1655.3999999999999</ele><time>2026-04-25T10:12:22Z</time></trkpt><trkpt lat="38.124495323038666" lon="15.86497671779641"><ele>1657.6</ele><time>2026-04-25T10:12:23Z</time></trkpt><trkpt lat="38.1245763867111" lon="15.864920130431852"><ele>1659.8</ele><time>2026-04-25T10:12:24Z</time></trkpt><trkpt lat="38.124653961818076" lon="15.864909657695359"><ele>1662.0</ele><time>2026-04-25T10:12:25Z</time></trkpt><trkpt lat="38.124750246505016" lon="15.864907109821376"><ele>1662.0</ele><time>2026-04-25T10:12:26Z</time></trkpt><trkpt lat="38.12484806383264" lon="15.86492516211353"><ele>1662.0</ele><time>2026-04-25T10:12:27Z</time></trkpt><trkpt lat="38.12493998005315" lon="15.864960403912274"><ele>1662.0</ele><time>2026-04-25T10:12:28Z</time></trkpt><trkpt lat="38.125042198829185" lon="15.86496985094782"><ele>1662.0</ele><time>2026-04-25T10:12:29Z</time></trkpt><trkpt lat="38.1251496234077" lon="15.864958795040621"><ele>1662.0</ele><time>2026-04-25T10:12:30Z</time></trkpt><trkpt lat="38.125261887230415" lon="15.864927223445115"><ele>1664.1666666666667</ele><time>2026-04-25T10:12:31Z</time></trkpt><trkpt lat="38.1253646913303" lon="15.864894013725152"><ele>1666.3333333333335</ele><time>2026-04-25T10:12:32Z</time></trkpt><trkpt lat="38.12545484490106" lon="15.864851015573333"><ele>1668.5</ele><time>2026-04-25T10:12:33Z</time></trkpt><trkpt lat="38.125535683117356" lon="15.864806832073524"><ele>1670.6666666666667</ele><time>2026-04-25T10:12:34Z</time></trkpt><trkpt lat="38.12558646097854" lon="15.8647379305905"><ele>1672.8333333333335</ele><time>2026-04-25T10:12:35Z</time></trkpt><trkpt lat="38.125615261392596" lon="15.864662292864757"><ele>1675.0</ele><time>2026-04-25T10:12:36Z</time></trkpt><trkpt lat="38.12566680462401" lon="15.8645190050658"><ele>1675.0000000000002</ele><time>2026-04-25T10:12:38Z</time></trkpt><trkpt lat="38.125695070015745" lon="15.864440645902139"><ele>1675.0</ele><time>2026-04-25T10:12:39Z</time></trkpt><trkpt lat="38.125735477610014" lon="15.864332208082464"><ele>1675.0</ele><time>2026-04-25T10:12:40Z</time></trkpt><trkpt lat="38.12583461117068" lon="15.86424819045956"><ele>1675.0</ele><time>2026-04-25T10:12:42Z</time></trkpt><trkpt lat="38.12589875539876" lon="15.864207103124205"><ele>1675.0000000000002</ele><time>2026-04-25T10:12:43Z</time></trkpt><trkpt lat="38.12597209396869" lon="15.864150643583656"><ele>1675.0</ele><time>2026-04-25T10:12:44Z</time></trkpt><trkpt lat="38.126063086392755" lon="15.86410028262313"><ele>1675.2</ele><time>2026-04-25T10:12:45Z</time></trkpt><trkpt lat="38.12615077489294" lon="15.864046346227797"><ele>1675.4</ele><time>2026-04-25T10:12:46Z</time></trkpt><trkpt lat="38.126234142894766" lon="15.864005533193765"><ele>1675.6</ele><time>2026-04-25T10:12:47Z</time></trkpt><trkpt lat="38.12629085028186" lon="15.863909861006492"><ele>1675.8</ele><time>2026-04-25T10:12:48Z</time></trkpt><trkpt lat="38.12635952489075" lon="15.863803019951023"><ele>1676.0</ele><time>2026-04-25T10:12:49Z</time></trkpt><trkpt lat="38.12641403133125" lon="15.863682209339094"><ele>1676.0</ele><time>2026-04-25T10:12:50Z</time></trkpt><trkpt lat="38.126447925290144" lon="15.863556786222926"><ele>1676.0</ele><time>2026-04-25T10:12:51Z</time></trkpt><trkpt lat="38.12649126305017" lon="15.863432553612308"><ele>1676.0</ele><time>2026-04-25T10:12:52Z</time></trkpt><trkpt lat="38.126505049138544" lon="15.86329761073993"><ele>1676.0</ele><time>2026-04-25T10:12:53Z</time></trkpt><trkpt lat="38.12650026612252" lon="15.863162635087303"><ele>1676.0</ele><time>2026-04-25T10:12:54Z</time></trkpt><trkpt lat="38.12648566581182" lon="15.863040495821421"><ele>1676.0</ele><time>2026-04-25T10:12:55Z</time></trkpt><trkpt lat="38.126475012385846" lon="15.862896502985302"><ele>1676.0</ele><time>2026-04-25T10:12:56Z</time></trkpt><trkpt lat="38.126492033550434" lon="15.862769661596356"><ele>1676.0</ele><time>2026-04-25T10:12:57.001Z</time></trkpt><trkpt lat="38.12650894675393" lon="15.862658954472197"><ele>1676.0</ele><time>2026-04-25T10:12:58.001Z</time></trkpt><trkpt lat="38.12655075360543" lon="15.862530743930334"><ele>1676.0</ele><time>2026-04-25T10:12:59.001Z</time></trkpt><trkpt lat="38.126614648248825" lon="15.862425252395298"><ele>1672.25</ele><time>2026-04-25T10:13:00.001Z</time></trkpt><trkpt lat="38.12670050600261" lon="15.862306392658326"><ele>1668.5</ele><time>2026-04-25T10:13:01.001Z</time></trkpt><trkpt lat="38.126788754931994" lon="15.862202965336326"><ele>1664.75</ele><time>2026-04-25T10:13:02.001Z</time></trkpt><trkpt lat="38.12688725958036" lon="15.862115361137551"><ele>1661.0</ele><time>2026-04-25T10:13:03.001Z</time></trkpt><trkpt lat="38.12698810839332" lon="15.862037056276032"><ele>1661.0</ele><time>2026-04-25T10:13:04.001Z</time></trkpt><trkpt lat="38.127114667706486" lon="15.86197171441074"><ele>1661.0</ele><time>2026-04-25T10:13:05.001Z</time></trkpt><trkpt lat="38.127227119330094" lon="15.861919304658544"><ele>1661.0</ele><time>2026-04-25T10:13:06.001Z</time></trkpt><trkpt lat="38.1273491154746" lon="15.86184928849874"><ele>1661.0</ele><time>2026-04-25T10:13:07.001Z</time></trkpt><trkpt lat="38.12746433281042" lon="15.861792056495082"><ele>1660.0</ele><time>2026-04-25T10:13:08.001Z</time></trkpt><trkpt lat="38.12756180831979" lon="15.86171032185519"><ele>1659.0</ele><time>2026-04-25T10:13:09.001Z</time></trkpt><trkpt lat="38.127645241303235" lon="15.861610585832834"><ele>1658.0</ele><time>2026-04-25T10:13:10.001Z</time></trkpt><trkpt lat="38.127706266295604" lon="15.86146521480864"><ele>1657.0</ele><time>2026-04-25T10:13:11.001Z</time></trkpt><trkpt lat="38.12773793218343" lon="15.861312677034828"><ele>1657.0</ele><time>2026-04-25T10:13:12.001Z</time></trkpt><trkpt lat="38.127777825895784" lon="15.861108130145524"><ele>1657.0</ele><time>2026-04-25T10:13:13.001Z</time></trkpt><trkpt lat="38.1278201873309" lon="15.860948157982309"><ele>1657.0</ele><time>2026-04-25T10:13:14.001Z</time></trkpt><trkpt lat="38.12786391996231" lon="15.860758340878203"><ele>1655.25</ele><time>2026-04-25T10:13:15.001Z</time></trkpt><trkpt lat="38.12791400754063" lon="15.860616056196363"><ele>1653.5</ele><time>2026-04-25T10:13:16.001Z</time></trkpt><trkpt lat="38.127959820232526" lon="15.860468454772562"><ele>1651.75</ele><time>2026-04-25T10:13:17.001Z</time></trkpt><trkpt lat="38.12801652127501" lon="15.860321429283475"><ele>1650.0</ele><time>2026-04-25T10:13:18.001Z</time></trkpt><trkpt lat="38.128086242203295" lon="15.860183652879764"><ele>1649.0</ele><time>2026-04-25T10:13:19.001Z</time></trkpt><trkpt lat="38.128150391507994" lon="15.860051430438098"><ele>1648.0</ele><time>2026-04-25T10:13:20.001Z</time></trkpt><trkpt lat="38.128221079143955" lon="15.859936334692302"><ele>1647.0</ele><time>2026-04-25T10:13:21.001Z</time></trkpt><trkpt lat="38.128313767357774" lon="15.859817273894055"><ele>1646.0</ele><time>2026-04-25T10:13:22.001Z</time></trkpt><trkpt lat="38.128386193068955" lon="15.85970245059811"><ele>1646.6</ele><time>2026-04-25T10:13:23.001Z</time></trkpt><trkpt lat="38.1284631152683" lon="15.859603132446402"><ele>1647.1999999999998</ele><time>2026-04-25T10:13:24.001Z</time></trkpt><trkpt lat="38.12852991869405" lon="15.859488821500824"><ele>1647.8000000000002</ele><time>2026-04-25T10:13:25.001Z</time></trkpt><trkpt lat="38.128571835763516" lon="15.859356186351743"><ele>1648.4</ele><time>2026-04-25T10:13:26.001Z</time></trkpt><trkpt lat="38.128602069002994" lon="15.859228898025641"><ele>1649.0</ele><time>2026-04-25T10:13:27.001Z</time></trkpt><trkpt lat="38.12866190596173" lon="15.859132340287191"><ele>1649.0</ele><time>2026-04-25T10:13:28.001Z</time></trkpt><trkpt lat="38.12875000334381" lon="15.859061777532718"><ele>1649.0</ele><time>2026-04-25T10:13:29.001Z</time></trkpt><trkpt lat="38.12885855049209" lon="15.859024955409621"><ele>1649.0</ele><time>2026-04-25T10:13:30.001Z</time></trkpt><trkpt lat="38.12897093830417" lon="15.858987077993875"><ele>1649.0</ele><time>2026-04-25T10:13:31.001Z</time></trkpt><trkpt lat="38.12908275951438" lon="15.858920203152877"><ele>1650.25</ele><time>2026-04-25T10:13:32.001Z</time></trkpt><trkpt lat="38.12917087342723" lon="15.85883214802741"><ele>1651.5</ele><time>2026-04-25T10:13:33.001Z</time></trkpt><trkpt lat="38.1292729662191" lon="15.858758406611317"><ele>1652.75</ele><time>2026-04-25T10:13:34.001Z</time></trkpt><trkpt lat="38.12938436990971" lon="15.858705305180468"><ele>1654.0</ele><time>2026-04-25T10:13:35.001Z</time></trkpt><trkpt lat="38.12950438719542" lon="15.858676800809471"><ele>1654.0</ele><time>2026-04-25T10:13:36.001Z</time></trkpt><trkpt lat="38.12963094102447" lon="15.858675405717221"><ele>1654.0</ele><time>2026-04-25T10:13:37.001Z</time></trkpt><trkpt lat="38.1297542314366" lon="15.858700719604723"><ele>1654.0</ele><time>2026-04-25T10:13:38.001Z</time></trkpt><trkpt lat="38.129881613083306" lon="15.858736426720988"><ele>1654.0</ele><time>2026-04-25T10:13:39.001Z</time></trkpt><trkpt lat="38.129999271940825" lon="15.858811599539207"><ele>1651.25</ele><time>2026-04-25T10:13:40.001Z</time></trkpt><trkpt lat="38.13012053879223" lon="15.85888281555288"><ele>1648.5</ele><time>2026-04-25T10:13:41.001Z</time></trkpt><trkpt lat="38.13024043017257" lon="15.858915467011352"><ele>1645.75</ele><time>2026-04-25T10:13:42.001Z</time></trkpt><trkpt lat="38.13035466782074" lon="15.858932358309866"><ele>1643.0</ele><time>2026-04-25T10:13:43.001Z</time></trkpt><trkpt lat="38.130467944209826" lon="15.858899473204367"><ele>1643.0</ele><time>2026-04-25T10:13:44.001Z</time></trkpt><trkpt lat="38.13058508765056" lon="15.858873279909854"><ele>1643.0</ele><time>2026-04-25T10:13:45.001Z</time></trkpt><trkpt lat="38.13068528444605" lon="15.858898077848856"><ele>1643.0</ele><time>2026-04-25T10:13:46.001Z</time></trkpt><trkpt lat="38.13078185795399" lon="15.858978711832743"><ele>1643.0</ele><time>2026-04-25T10:13:47.001Z</time></trkpt><trkpt lat="38.13085568460059" lon="15.859090674354253"><ele>1640.6000000000001</ele><time>2026-04-25T10:13:48.001Z</time></trkpt><trkpt lat="38.13086884212418" lon="15.859208829094735"><ele>1638.2</ele><time>2026-04-25T10:13:49.001Z</time></trkpt><trkpt lat="38.13084503077269" lon="15.859328319603945"><ele>1635.8</ele><time>2026-04-25T10:13:50.001Z</time></trkpt><trkpt lat="38.13082137509911" lon="15.859431812199956"><ele>1633.4</ele><time>2026-04-25T10:13:51.001Z</time></trkpt><trkpt lat="38.13080005318911" lon="15.859556548657538"><ele>1631.0</ele><time>2026-04-25T10:13:52.001Z</time></trkpt><trkpt lat="38.13079067879486" lon="15.859670481917767"><ele>1630.1999999999998</ele><time>2026-04-25T10:13:53.001Z</time></trkpt><trkpt lat="38.1308084546277" lon="15.859781513838065"><ele>1629.3999999999999</ele><time>2026-04-25T10:13:54.001Z</time></trkpt><trkpt lat="38.13085084848737" lon="15.859871701604956"><ele>1628.6</ele><time>2026-04-25T10:13:55.001Z</time></trkpt><trkpt lat="38.130925155914916" lon="15.859943626735113"><ele>1627.8</ele><time>2026-04-25T10:13:56.001Z</time></trkpt><trkpt lat="38.131019657577106" lon="15.85999525221357"><ele>1627.0</ele><time>2026-04-25T10:13:57.001Z</time></trkpt><trkpt lat="38.13112095020527" lon="15.860043475739479"><ele>1627.0</ele><time>2026-04-25T10:13:58.001Z</time></trkpt><trkpt lat="38.131226081337346" lon="15.86008796518682"><ele>1627.0</ele><time>2026-04-25T10:13:59.001Z</time></trkpt><trkpt lat="38.131329398075295" lon="15.860140019932125"><ele>1627.0</ele><time>2026-04-25T10:14:00.001Z</time></trkpt><trkpt lat="38.13142514691087" lon="15.86018975070287"><ele>1627.0</ele><time>2026-04-25T10:14:01.001Z</time></trkpt><trkpt lat="38.131518841544974" lon="15.86025819924723"><ele>1627.0</ele><time>2026-04-25T10:14:02.001Z</time></trkpt><trkpt lat="38.13159726005831" lon="15.860344107298166"><ele>1624.3999999999999</ele><time>2026-04-25T10:14:03Z</time></trkpt><trkpt lat="38.131680757124606" lon="15.860422943646995"><ele>1621.8</ele><time>2026-04-25T10:14:04Z</time></trkpt><trkpt lat="38.131773901449456" lon="15.860474684561932"><ele>1619.2</ele><time>2026-04-25T10:14:05Z</time></trkpt><trkpt lat="38.13187109012161" lon="15.860499691561671"><ele>1616.6</ele><time>2026-04-25T10:14:06Z</time></trkpt><trkpt lat="38.131969431147574" lon="15.860504067300093"><ele>1614.0</ele><time>2026-04-25T10:14:07Z</time></trkpt><trkpt lat="38.13206794860455" lon="15.860507838113797"><ele>1614.0</ele><time>2026-04-25T10:14:08Z</time></trkpt><trkpt lat="38.13216170774361" lon="15.860470700252296"><ele>1614.0</ele><time>2026-04-25T10:14:09Z</time></trkpt><trkpt lat="38.13224690470047" lon="15.860434093906168"><ele>1614.0</ele><time>2026-04-25T10:14:10Z</time></trkpt><trkpt lat="38.13234480688915" lon="15.8604207047022"><ele>1614.0</ele><time>2026-04-25T10:14:11Z</time></trkpt><trkpt lat="38.13244916275455" lon="15.86042453179449"><ele>1614.0</ele><time>2026-04-25T10:14:12Z</time></trkpt><trkpt lat="38.13255980594895" lon="15.86046039586227"><ele>1612.8000000000002</ele><time>2026-04-25T10:14:13Z</time></trkpt><trkpt lat="38.13266172642105" lon="15.860516089208021"><ele>1611.6000000000001</ele><time>2026-04-25T10:14:14Z</time></trkpt><trkpt lat="38.13273978178174" lon="15.860574392361036"><ele>1610.4</ele><time>2026-04-25T10:14:15Z</time></trkpt><trkpt lat="38.13283823873733" lon="15.860618349083312"><ele>1609.2</ele><time>2026-04-25T10:14:16Z</time></trkpt><trkpt lat="38.13294199411967" lon="15.860606020776075"><ele>1608.0</ele><time>2026-04-25T10:14:17Z</time></trkpt><trkpt lat="38.13304687667359" lon="15.860541320524073"><ele>1608.0</ele><time>2026-04-25T10:14:18Z</time></trkpt><trkpt lat="38.133121044304396" lon="15.860463930859645"><ele>1608.0</ele><time>2026-04-25T10:14:19Z</time></trkpt><trkpt lat="38.1332238050909" lon="15.86046277166343"><ele>1608.0</ele><time>2026-04-25T10:14:20Z</time></trkpt><trkpt lat="38.133371371694906" lon="15.860491166618548"><ele>1608.0</ele><time>2026-04-25T10:14:21Z</time></trkpt><trkpt lat="38.13350924823284" lon="15.86053854669132"><ele>1606.0</ele><time>2026-04-25T10:14:22Z</time></trkpt><trkpt lat="38.13365381472239" lon="15.860572119841573"><ele>1604.0</ele><time>2026-04-25T10:14:23Z</time></trkpt><trkpt lat="38.13380382614251" lon="15.860582537611965"><ele>1602.0</ele><time>2026-04-25T10:14:24Z</time></trkpt><trkpt lat="38.133945392752764" lon="15.860596890895009"><ele>1600.0</ele><time>2026-04-25T10:14:25Z</time></trkpt><trkpt lat="38.13405856295523" lon="15.860613224511102"><ele>1598.75</ele><time>2026-04-25T10:14:26Z</time></trkpt><trkpt lat="38.13417230893433" lon="15.86062098057055"><ele>1597.5</ele><time>2026-04-25T10:14:27Z</time></trkpt><trkpt lat="38.13430498208165" lon="15.860597743656625"><ele>1596.25</ele><time>2026-04-25T10:14:28Z</time></trkpt><trkpt lat="38.13441873519477" lon="15.86057175073294"><ele>1595.0</ele><time>2026-04-25T10:14:29Z</time></trkpt><trkpt lat="38.13454325302024" lon="15.860510748770778"><ele>1595.0</ele><time>2026-04-25T10:14:30Z</time></trkpt><trkpt lat="38.13465393512724" lon="15.860421944852481"><ele>1595.0</ele><time>2026-04-25T10:14:31Z</time></trkpt><trkpt lat="38.134757994899125" lon="15.860328142935055"><ele>1595.0</ele><time>2026-04-25T10:14:32Z</time></trkpt><trkpt lat="38.134840838831494" lon="15.86020255954586"><ele>1595.0</ele><time>2026-04-25T10:14:33Z</time></trkpt><trkpt lat="38.13490663510875" lon="15.860093939854693"><ele>1595.8</ele><time>2026-04-25T10:14:34Z</time></trkpt><trkpt lat="38.13496487572936" lon="15.860011400979632"><ele>1596.6</ele><time>2026-04-25T10:14:35Z</time></trkpt><trkpt lat="38.13506361531755" lon="15.859955806961192"><ele>1597.4</ele><time>2026-04-25T10:14:36Z</time></trkpt><trkpt lat="38.135164586860085" lon="15.859917264689383"><ele>1598.2</ele><time>2026-04-25T10:14:37Z</time></trkpt><trkpt lat="38.1352531752092" lon="15.859839868935737"><ele>1599.0</ele><time>2026-04-25T10:14:38Z</time></trkpt><trkpt lat="38.135309931432005" lon="15.859731667762796"><ele>1599.0</ele><time>2026-04-25T10:14:39Z</time></trkpt><trkpt lat="38.13532548342417" lon="15.859583644822067"><ele>1599.0</ele><time>2026-04-25T10:14:40Z</time></trkpt><trkpt lat="38.13531192823059" lon="15.859444699028197"><ele>1599.0</ele><time>2026-04-25T10:14:41Z</time></trkpt><trkpt lat="38.135276164411266" lon="15.859296353608565"><ele>1599.0</ele><time>2026-04-25T10:14:42.001Z</time></trkpt><trkpt lat="38.13526772782441" lon="15.859172108681825"><ele>1599.0</ele><time>2026-04-25T10:14:43.001Z</time></trkpt><trkpt lat="38.135304967878824" lon="15.859050753262654"><ele>1599.5</ele><time>2026-04-25T10:14:44.001Z</time></trkpt><trkpt lat="38.13535888759022" lon="15.85892639556444"><ele>1600.0</ele><time>2026-04-25T10:14:45.001Z</time></trkpt><trkpt lat="38.135443482221206" lon="15.858814177343936"><ele>1600.5</ele><time>2026-04-25T10:14:46.001Z</time></trkpt><trkpt lat="38.135496586765186" lon="15.858688771639168"><ele>1601.0</ele><time>2026-04-25T10:14:47.001Z</time></trkpt><trkpt lat="38.13550176881576" lon="15.858545706715882"><ele>1600.0</ele><time>2026-04-25T10:14:48.001Z</time></trkpt><trkpt lat="38.13545721434508" lon="15.858388506616684"><ele>1599.0</ele><time>2026-04-25T10:14:49.001Z</time></trkpt><trkpt lat="38.13541721829587" lon="15.858264296462272"><ele>1598.0</ele><time>2026-04-25T10:14:50.001Z</time></trkpt><trkpt lat="38.13543960848269" lon="15.858151471995477"><ele>1597.0</ele><time>2026-04-25T10:14:51.001Z</time></trkpt><trkpt lat="38.13549521395019" lon="15.858041285591685"><ele>1596.0</ele><time>2026-04-25T10:14:52.001Z</time></trkpt><trkpt lat="38.13559601521139" lon="15.857951800015979"><ele>1596.0</ele><time>2026-04-25T10:14:53.001Z</time></trkpt><trkpt lat="38.135672450535814" lon="15.857846214133595"><ele>1596.0</ele><time>2026-04-25T10:14:54.001Z</time></trkpt><trkpt lat="38.13573311815728" lon="15.857717947008915"><ele>1596.0</ele><time>2026-04-25T10:14:55.001Z</time></trkpt><trkpt lat="38.13578301392047" lon="15.857600258995395"><ele>1596.0</ele><time>2026-04-25T10:14:56.001Z</time></trkpt><trkpt lat="38.13587893874592" lon="15.857518538875105"><ele>1598.25</ele><time>2026-04-25T10:14:57.001Z</time></trkpt><trkpt lat="38.13599781564329" lon="15.85746671839913"><ele>1600.5</ele><time>2026-04-25T10:14:58.001Z</time></trkpt><trkpt lat="38.136120310579884" lon="15.857433403969376"><ele>1602.75</ele><time>2026-04-25T10:14:59.001Z</time></trkpt><trkpt lat="38.136218323738014" lon="15.857364923137265"><ele>1605.0</ele><time>2026-04-25T10:15:00.001Z</time></trkpt><trkpt lat="38.13628793811673" lon="15.857269952650974"><ele>1605.0</ele><time>2026-04-25T10:15:01.001Z</time></trkpt><trkpt lat="38.136312457055304" lon="15.857133160447113"><ele>1605.0</ele><time>2026-04-25T10:15:02.001Z</time></trkpt><trkpt lat="38.136312446251374" lon="15.856988449528224"><ele>1605.0</ele><time>2026-04-25T10:15:03.001Z</time></trkpt><trkpt lat="38.136303197272895" lon="15.856843321969796"><ele>1605.0</ele><time>2026-04-25T10:15:04.001Z</time></trkpt><trkpt lat="38.13633075315479" lon="15.856687124360882"><ele>1602.75</ele><time>2026-04-25T10:15:05.001Z</time></trkpt><trkpt lat="38.13637797493162" lon="15.856556392476607"><ele>1600.5</ele><time>2026-04-25T10:15:06.001Z</time></trkpt><trkpt lat="38.13638932891829" lon="15.8564120862138"><ele>1598.25</ele><time>2026-04-25T10:15:07.001Z</time></trkpt><trkpt lat="38.136385988240946" lon="15.85624488831103"><ele>1596.0</ele><time>2026-04-25T10:15:08.001Z</time></trkpt><trkpt lat="38.13638079649296" lon="15.85608253425192"><ele>1594.8</ele><time>2026-04-25T10:15:09.001Z</time></trkpt><trkpt lat="38.13640052468108" lon="15.855935445652678"><ele>1593.6</ele><time>2026-04-25T10:15:10.001Z</time></trkpt><trkpt lat="38.13644652978977" lon="15.855812362925647"><ele>1592.4</ele><time>2026-04-25T10:15:11.001Z</time></trkpt><trkpt lat="38.136515033672985" lon="15.855706111509539"><ele>1591.2</ele><time>2026-04-25T10:15:12.001Z</time></trkpt><trkpt lat="38.13660597039222" lon="15.855612737722062"><ele>1590.0</ele><time>2026-04-25T10:15:13.001Z</time></trkpt><trkpt lat="38.13668538239353" lon="15.855495296659413"><ele>1593.2</ele><time>2026-04-25T10:15:14.001Z</time></trkpt><trkpt lat="38.13678360970076" lon="15.855412427926145"><ele>1596.4</ele><time>2026-04-25T10:15:15.001Z</time></trkpt><trkpt lat="38.136891336148366" lon="15.855343317153318"><ele>1599.6</ele><time>2026-04-25T10:15:16.001Z</time></trkpt><trkpt lat="38.136987663966316" lon="15.855298389448684"><ele>1602.8</ele><time>2026-04-25T10:15:17.001Z</time></trkpt><trkpt lat="38.1370843231786" lon="15.85528152637529"><ele>1606.0</ele><time>2026-04-25T10:15:18.001Z</time></trkpt><trkpt lat="38.13714065234063" lon="15.855241812791858"><ele>1605.9999999999998</ele><time>2026-04-25T10:15:19.001Z</time></trkpt><trkpt lat="38.137223766532614" lon="15.855214407934366"><ele>1606.0</ele><time>2026-04-25T10:15:21.001Z</time></trkpt><trkpt lat="38.13728458934328" lon="15.855238808962277"><ele>1606.0</ele><time>2026-04-25T10:15:23.001Z</time></trkpt><trkpt lat="38.13733339089474" lon="15.855296319021107"><ele>1606.0</ele><time>2026-04-25T10:15:32.001Z</time></trkpt><trkpt lat="38.1373739923938" lon="15.855361753446012"><ele>1606.0</ele><time>2026-04-25T10:15:35.001Z</time></trkpt><trkpt lat="38.13733325212638" lon="15.855298076956444"><ele>1605.9999999999998</ele><time>2026-04-25T10:15:48.001Z</time></trkpt><trkpt lat="38.13731756899147" lon="15.85521185907375"><ele>1606.0</ele><time>2026-04-25T10:15:50.002Z</time></trkpt><trkpt lat="38.13728034819211" lon="15.855052191128136"><ele>1605.0</ele><time>2026-04-25T10:15:52.002Z</time></trkpt><trkpt lat="38.13725738738211" lon="15.85495868733399"><ele>1604.0</ele><time>2026-04-25T10:15:53.002Z</time></trkpt><trkpt lat="38.137228320930326" lon="15.85478895232947"><ele>1603.0</ele><time>2026-04-25T10:15:54.002Z</time></trkpt><trkpt lat="38.13721252315802" lon="15.85465068914816"><ele>1602.0</ele><time>2026-04-25T10:15:55.002Z</time></trkpt><trkpt lat="38.13719559231046" lon="15.854534228206791"><ele>1601.0</ele><time>2026-04-25T10:15:56.002Z</time></trkpt><trkpt lat="38.137181621719854" lon="15.854429242219378"><ele>1601.0</ele><time>2026-04-25T10:15:57.002Z</time></trkpt><trkpt lat="38.137168831310774" lon="15.854335189852259"><ele>1601.0</ele><time>2026-04-25T10:15:58.002Z</time></trkpt><trkpt lat="38.13712471136731" lon="15.854252292261839"><ele>1601.0</ele><time>2026-04-25T10:15:59.002Z</time></trkpt><trkpt lat="38.13709255085503" lon="15.854170660731963"><ele>1601.0</ele><time>2026-04-25T10:16:00.002Z</time></trkpt><trkpt lat="38.13675840754783" lon="15.853819428826633"><ele>1601.0</ele><time>2026-04-25T10:16:02.002Z</time></trkpt><trkpt lat="38.136671504728035" lon="15.853733621125478"><ele>1601.0</ele><time>2026-04-25T10:16:03.002Z</time></trkpt><trkpt lat="38.136607237541" lon="15.853634053969772"><ele>1601.0</ele><time>2026-04-25T10:16:04.002Z</time></trkpt><trkpt lat="38.13660033835005" lon="15.853492445318048"><ele>1601.0</ele><time>2026-04-25T10:16:05.002Z</time></trkpt><trkpt lat="38.13660156916593" lon="15.853337520629319"><ele>1601.0</ele><time>2026-04-25T10:16:06.002Z</time></trkpt><trkpt lat="38.136626513005" lon="15.853208065681276"><ele>1601.0</ele><time>2026-04-25T10:16:07.002Z</time></trkpt><trkpt lat="38.136618872099916" lon="15.853041442248932"><ele>1601.0</ele><time>2026-04-25T10:16:08.002Z</time></trkpt><trkpt lat="38.136611069119766" lon="15.852883729496622"><ele>1601.0</ele><time>2026-04-25T10:16:09.001Z</time></trkpt><trkpt lat="38.136623745201895" lon="15.852723906749572"><ele>1601.0</ele><time>2026-04-25T10:16:10.001Z</time></trkpt><trkpt lat="38.13665100618817" lon="15.852569017163736"><ele>1600.8</ele><time>2026-04-25T10:16:11.001Z</time></trkpt><trkpt lat="38.13664924049363" lon="15.85241246432806"><ele>1600.6</ele><time>2026-04-25T10:16:12.001Z</time></trkpt><trkpt lat="38.13669905619543" lon="15.852288266283052"><ele>1600.4</ele><time>2026-04-25T10:16:13.001Z</time></trkpt><trkpt lat="38.13673166411598" lon="15.85217276170891"><ele>1600.2</ele><time>2026-04-25T10:16:14.001Z</time></trkpt><trkpt lat="38.13679651409679" lon="15.852074341670468"><ele>1600.0</ele><time>2026-04-25T10:16:15.001Z</time></trkpt><trkpt lat="38.136874263035466" lon="15.852009595567399"><ele>1600.0</ele><time>2026-04-25T10:16:16.001Z</time></trkpt><trkpt lat="38.13698164295432" lon="15.851992041066405"><ele>1600.0</ele><time>2026-04-25T10:16:17.001Z</time></trkpt><trkpt lat="38.13707257873476" lon="15.852032428329979"><ele>1600.0</ele><time>2026-04-25T10:16:18.001Z</time></trkpt><trkpt lat="38.1371248700997" lon="15.85211803159147"><ele>1600.0</ele><time>2026-04-25T10:16:19.001Z</time></trkpt><trkpt lat="38.13715772235995" lon="15.852244208264764"><ele>1600.0</ele><time>2026-04-25T10:16:20.001Z</time></trkpt><trkpt lat="38.13720687433448" lon="15.852348658004434"><ele>1600.0</ele><time>2026-04-25T10:16:21.001Z</time></trkpt><trkpt lat="38.137280693130194" lon="15.85240294842149"><ele>1600.0</ele><time>2026-04-25T10:16:22.001Z</time></trkpt><trkpt lat="38.137388874810284" lon="15.85240730779456"><ele>1600.0</ele><time>2026-04-25T10:16:23.001Z</time></trkpt><trkpt lat="38.13749151294787" lon="15.852421828339981"><ele>1600.0</ele><time>2026-04-25T10:16:24.001Z</time></trkpt><trkpt lat="38.13758384425925" lon="15.852473080558513"><ele>1600.0</ele><time>2026-04-25T10:16:25.001Z</time></trkpt><trkpt lat="38.137696767212674" lon="15.852579804354045"><ele>1598.4</ele><time>2026-04-25T10:16:26.001Z</time></trkpt><trkpt lat="38.137780488431375" lon="15.852685135651685"><ele>1596.8</ele><time>2026-04-25T10:16:27.001Z</time></trkpt><trkpt lat="38.13783709366014" lon="15.852791975096753"><ele>1595.1999999999998</ele><time>2026-04-25T10:16:28.001Z</time></trkpt><trkpt lat="38.1378635134805" lon="15.852919488904716"><ele>1593.6</ele><time>2026-04-25T10:16:29.001Z</time></trkpt><trkpt lat="38.13786371727824" lon="15.85305660235294"><ele>1592.0</ele><time>2026-04-25T10:16:30.001Z</time></trkpt><trkpt lat="38.13783750858875" lon="15.85318521724077"><ele>1592.0</ele><time>2026-04-25T10:16:31Z</time></trkpt><trkpt lat="38.137787542659865" lon="15.8533049862804"><ele>1592.0</ele><time>2026-04-25T10:16:32.001Z</time></trkpt><trkpt lat="38.13771428397788" lon="15.85338210099793"><ele>1592.0</ele><time>2026-04-25T10:16:33.001Z</time></trkpt><trkpt lat="38.137630548551314" lon="15.853438812465566"><ele>1592.0</ele><time>2026-04-25T10:16:34.001Z</time></trkpt><trkpt lat="38.13766498881791" lon="15.85355846328976"><ele>1592.0</ele><time>2026-04-25T10:16:36.001Z</time></trkpt><trkpt lat="38.137709756290626" lon="15.853626899910813"><ele>1592.6</ele><time>2026-04-25T10:16:37.001Z</time></trkpt><trkpt lat="38.137779665018876" lon="15.853739655144766"><ele>1593.1999999999998</ele><time>2026-04-25T10:16:38.001Z</time></trkpt><trkpt lat="38.137836100474125" lon="15.853830749715312"><ele>1593.8</ele><time>2026-04-25T10:16:39.001Z</time></trkpt><trkpt lat="38.13789042956392" lon="15.85392373680976"><ele>1594.4</ele><time>2026-04-25T10:16:40.001Z</time></trkpt><trkpt lat="38.13792612134994" lon="15.854034904202273"><ele>1595.0</ele><time>2026-04-25T10:16:41.001Z</time></trkpt><trkpt lat="38.137995200195384" lon="15.85411583936152"><ele>1595.0</ele><time>2026-04-25T10:16:42.001Z</time></trkpt><trkpt lat="38.13808865786389" lon="15.854204384069977"><ele>1595.0</ele><time>2026-04-25T10:16:43.001Z</time></trkpt><trkpt lat="38.13815101270588" lon="15.854226442233145"><ele>1595.0</ele><time>2026-04-25T10:16:44.001Z</time></trkpt><trkpt lat="38.13820460121609" lon="15.85430961425176"><ele>1595.0</ele><time>2026-04-25T10:16:45.001Z</time></trkpt><trkpt lat="38.138226759112676" lon="15.854433258471056"><ele>1595.0</ele><time>2026-04-25T10:16:46.001Z</time></trkpt><trkpt lat="38.138229590647214" lon="15.854572406802367"><ele>1596.2</ele><time>2026-04-25T10:16:47.001Z</time></trkpt><trkpt lat="38.13820179199299" lon="15.854723524459029"><ele>1597.4</ele><time>2026-04-25T10:16:48.001Z</time></trkpt><trkpt lat="38.138194863627895" lon="15.854865370004797"><ele>1598.6</ele><time>2026-04-25T10:16:49.001Z</time></trkpt><trkpt lat="38.1382161224119" lon="15.854961744501525"><ele>1599.8</ele><time>2026-04-25T10:16:50.001Z</time></trkpt><trkpt lat="38.138267244609494" lon="15.855061337494064"><ele>1601.0</ele><time>2026-04-25T10:16:51.001Z</time></trkpt><trkpt lat="38.13832757618528" lon="15.855158101584218"><ele>1597.4</ele><time>2026-04-25T10:16:52.001Z</time></trkpt><trkpt lat="38.138408389592286" lon="15.855262667978035"><ele>1593.8</ele><time>2026-04-25T10:16:53.001Z</time></trkpt><trkpt lat="38.138461644906585" lon="15.855358652063694"><ele>1590.2</ele><time>2026-04-25T10:16:54.001Z</time></trkpt><trkpt lat="38.13849454906062" lon="15.855495263728294"><ele>1586.6000000000001</ele><time>2026-04-25T10:16:55.001Z</time></trkpt><trkpt lat="38.13852748858522" lon="15.85558843970248"><ele>1583.0</ele><time>2026-04-25T10:16:56.001Z</time></trkpt><trkpt lat="38.13860588983527" lon="15.85562876130383"><ele>1582.9999999999998</ele><time>2026-04-25T10:16:57.001Z</time></trkpt><trkpt lat="38.13870295192551" lon="15.855615557547962"><ele>1583.0</ele><time>2026-04-25T10:16:58.001Z</time></trkpt><trkpt lat="38.1387880880811" lon="15.855599278141622"><ele>1583.0</ele><time>2026-04-25T10:16:59.001Z</time></trkpt><trkpt lat="38.13888533770235" lon="15.855635226681192"><ele>1583.0</ele><time>2026-04-25T10:17:00.001Z</time></trkpt><trkpt lat="38.13895831562859" lon="15.85568994238596"><ele>1582.9999999999998</ele><time>2026-04-25T10:17:01.001Z</time></trkpt><trkpt lat="38.139035233383524" lon="15.855679549782222"><ele>1583.0</ele><time>2026-04-25T10:17:02.001Z</time></trkpt><trkpt lat="38.139099671193044" lon="15.855616341508528"><ele>1581.9999999999998</ele><time>2026-04-25T10:17:03.001Z</time></trkpt><trkpt lat="38.1391209119997" lon="15.855524559477537"><ele>1581.0</ele><time>2026-04-25T10:17:04.001Z</time></trkpt><trkpt lat="38.13915636008445" lon="15.85544799438293"><ele>1580.0</ele><time>2026-04-25T10:17:05.001Z</time></trkpt><trkpt lat="38.13917651100675" lon="15.85534846405208"><ele>1579.0</ele><time>2026-04-25T10:17:06.001Z</time></trkpt><trkpt lat="38.13914661191509" lon="15.85521041804024"><ele>1577.9999999999998</ele><time>2026-04-25T10:17:07.001Z</time></trkpt><trkpt lat="38.1391652184056" lon="15.855102705305287"><ele>1577.0</ele><time>2026-04-25T10:17:08.001Z</time></trkpt><trkpt lat="38.13918847235617" lon="15.8549786922005"><ele>1572.8</ele><time>2026-04-25T10:17:09.001Z</time></trkpt><trkpt lat="38.13919870743168" lon="15.854833128389716"><ele>1568.6</ele><time>2026-04-25T10:17:10.001Z</time></trkpt><trkpt lat="38.139223670371464" lon="15.854717241348947"><ele>1564.3999999999999</ele><time>2026-04-25T10:17:11.001Z</time></trkpt><trkpt lat="38.13927294398359" lon="15.854601284270373"><ele>1560.1999999999998</ele><time>2026-04-25T10:17:12.001Z</time></trkpt><trkpt lat="38.13933848302984" lon="15.854487063109708"><ele>1556.0</ele><time>2026-04-25T10:17:13.001Z</time></trkpt><trkpt lat="38.13941889850922" lon="15.85437668838099"><ele>1556.0</ele><time>2026-04-25T10:17:14.001Z</time></trkpt><trkpt lat="38.1395334177023" lon="15.854322843570642"><ele>1556.0</ele><time>2026-04-25T10:17:15.001Z</time></trkpt><trkpt lat="38.13964807459978" lon="15.854230500049939"><ele>1556.0</ele><time>2026-04-25T10:17:16.001Z</time></trkpt><trkpt lat="38.13973122020326" lon="15.854154690858643"><ele>1556.0</ele><time>2026-04-25T10:17:17.001Z</time></trkpt><trkpt lat="38.139818004504036" lon="15.854099908498485"><ele>1553.0</ele><time>2026-04-25T10:17:18.001Z</time></trkpt><trkpt lat="38.139918991884656" lon="15.85406672084891"><ele>1550.0</ele><time>2026-04-25T10:17:19.001Z</time></trkpt><trkpt lat="38.14002105370024" lon="15.854078654904862"><ele>1547.0</ele><time>2026-04-25T10:17:20.001Z</time></trkpt><trkpt lat="38.140108841393385" lon="15.854105193744665"><ele>1544.0</ele><time>2026-04-25T10:17:21.001Z</time></trkpt><trkpt lat="38.1401924388114" lon="15.854118681116388"><ele>1541.0</ele><time>2026-04-25T10:17:22.001Z</time></trkpt><trkpt lat="38.140278279028486" lon="15.85409101580418"><ele>1540.9999999999998</ele><time>2026-04-25T10:17:23.001Z</time></trkpt><trkpt lat="38.140349707635465" lon="15.854000393453557"><ele>1541.0</ele><time>2026-04-25T10:17:25.001Z</time></trkpt><trkpt lat="38.1403797957362" lon="15.853927126288436"><ele>1541.0</ele><time>2026-04-25T10:17:26.001Z</time></trkpt><trkpt lat="38.140381141164596" lon="15.853846724560238"><ele>1541.0</ele><time>2026-04-25T10:17:27.001Z</time></trkpt><trkpt lat="38.14032929676364" lon="15.853700828060107"><ele>1540.9999999999998</ele><time>2026-04-25T10:17:29.001Z</time></trkpt><trkpt lat="38.14030849234631" lon="15.85359502528582"><ele>1541.0</ele><time>2026-04-25T10:17:30.001Z</time></trkpt><trkpt lat="38.14034346302114" lon="15.853484022153506"><ele>1536.0</ele><time>2026-04-25T10:17:32.001Z</time></trkpt><trkpt lat="38.140425161734015" lon="15.853453023441892"><ele>1531.0</ele><time>2026-04-25T10:17:33.001Z</time></trkpt><trkpt lat="38.14053027894258" lon="15.853385986615331"><ele>1526.0</ele><time>2026-04-25T10:17:35.001Z</time></trkpt><trkpt lat="38.14058750426783" lon="15.8533225812006"><ele>1521.0</ele><time>2026-04-25T10:17:36.001Z</time></trkpt><trkpt lat="38.140617245779794" lon="15.853203643227195"><ele>1516.0</ele><time>2026-04-25T10:17:37.001Z</time></trkpt><trkpt lat="38.14056995830196" lon="15.853059634846751"><ele>1516.0000000000002</ele><time>2026-04-25T10:17:39.001Z</time></trkpt><trkpt lat="38.14054092601548" lon="15.852977811561066"><ele>1516.0</ele><time>2026-04-25T10:17:40.001Z</time></trkpt><trkpt lat="38.14055220741864" lon="15.852867158424917"><ele>1516.0</ele><time>2026-04-25T10:17:41.001Z</time></trkpt><trkpt lat="38.14056395886486" lon="15.852773623461525"><ele>1516.0</ele><time>2026-04-25T10:17:42.001Z</time></trkpt><trkpt lat="38.140600922204946" lon="15.852706824655513"><ele>1516.0</ele><time>2026-04-25T10:17:43.001Z</time></trkpt><trkpt lat="38.140668059044124" lon="15.852673799710285"><ele>1516.0000000000002</ele><time>2026-04-25T10:17:44.001Z</time></trkpt><trkpt lat="38.140740460380925" lon="15.852662507333045"><ele>1516.0</ele><time>2026-04-25T10:17:45.001Z</time></trkpt><trkpt lat="38.14081000786961" lon="15.85264378847396"><ele>1516.1666666666665</ele><time>2026-04-25T10:17:46.001Z</time></trkpt><trkpt lat="38.14088500334017" lon="15.852612030886116"><ele>1516.3333333333333</ele><time>2026-04-25T10:17:47.001Z</time></trkpt><trkpt lat="38.14094563714735" lon="15.852542423610467"><ele>1516.5</ele><time>2026-04-25T10:17:48.001Z</time></trkpt><trkpt lat="38.14099266466141" lon="15.852455496811979"><ele>1516.6666666666667</ele><time>2026-04-25T10:17:49.001Z</time></trkpt><trkpt lat="38.14104736089977" lon="15.852361774767829"><ele>1516.8333333333335</ele><time>2026-04-25T10:17:50.001Z</time></trkpt><trkpt lat="38.141099098722535" lon="15.852274776154955"><ele>1517.0</ele><time>2026-04-25T10:17:51.001Z</time></trkpt><trkpt lat="38.1411056134378" lon="15.852139458318764"><ele>1517.0</ele><time>2026-04-25T10:17:53.001Z</time></trkpt><trkpt lat="38.1410271203503" lon="15.852056311580021"><ele>1517.0</ele><time>2026-04-25T10:17:55.001Z</time></trkpt><trkpt lat="38.140934713010815" lon="15.852114514386729"><ele>1517.0</ele><time>2026-04-25T10:17:57.001Z</time></trkpt><trkpt lat="38.140911236188295" lon="15.852232340008184"><ele>1517.0</ele><time>2026-04-25T10:17:59.001Z</time></trkpt><trkpt lat="38.140891612966676" lon="15.852310155893058"><ele>1517.0</ele><time>2026-04-25T10:18:00.001Z</time></trkpt><trkpt lat="38.140778188965754" lon="15.852400198327189"><ele>1512.75</ele><time>2026-04-25T10:18:02.001Z</time></trkpt><trkpt lat="38.14064759717842" lon="15.85233464471937"><ele>1508.5</ele><time>2026-04-25T10:18:04.002Z</time></trkpt><trkpt lat="38.14055863360526" lon="15.852283955537418"><ele>1504.25</ele><time>2026-04-25T10:18:05.002Z</time></trkpt><trkpt lat="38.14049160104709" lon="15.85227517650604"><ele>1500.0</ele><time>2026-04-25T10:18:06.002Z</time></trkpt><trkpt lat="38.14034138244704" lon="15.852253625789858"><ele>1500.0</ele><time>2026-04-25T10:18:08.002Z</time></trkpt><trkpt lat="38.14025688579822" lon="15.85225598290927"><ele>1500.0</ele><time>2026-04-25T10:18:09.002Z</time></trkpt><trkpt lat="38.1401777477014" lon="15.85227820900858"><ele>1500.0</ele><time>2026-04-25T10:18:10.002Z</time></trkpt><trkpt lat="38.14010268530397" lon="15.852342200583006"><ele>1500.0</ele><time>2026-04-25T10:18:11.002Z</time></trkpt><trkpt lat="38.14004154336764" lon="15.852458332131372"><ele>1500.0</ele><time>2026-04-25T10:18:12.002Z</time></trkpt><trkpt lat="38.139987097101994" lon="15.852567073294491"><ele>1503.2</ele><time>2026-04-25T10:18:13.002Z</time></trkpt><trkpt lat="38.13993243909221" lon="15.852668345713978"><ele>1506.4</ele><time>2026-04-25T10:18:14.002Z</time></trkpt><trkpt lat="38.139882731423285" lon="15.85276268510759"><ele>1509.6</ele><time>2026-04-25T10:18:15Z</time></trkpt><trkpt lat="38.13979028474646" lon="15.852804590687457"><ele>1512.8</ele><time>2026-04-25T10:18:16Z</time></trkpt><trkpt lat="38.13971780108316" lon="15.852815061173636"><ele>1516.0</ele><time>2026-04-25T10:18:17Z</time></trkpt><trkpt lat="38.139618706025324" lon="15.85269589418334"><ele>1515.8333333333333</ele><time>2026-04-25T10:18:19Z</time></trkpt><trkpt lat="38.13962876692879" lon="15.85260946447649"><ele>1515.6666666666665</ele><time>2026-04-25T10:18:20Z</time></trkpt><trkpt lat="38.13969074880581" lon="15.852506377076793"><ele>1515.5</ele><time>2026-04-25T10:18:21Z</time></trkpt><trkpt lat="38.139761079260936" lon="15.852445651580979"><ele>1515.3333333333333</ele><time>2026-04-25T10:18:22Z</time></trkpt><trkpt lat="38.13982263346462" lon="15.85238914118174"><ele>1515.1666666666667</ele><time>2026-04-25T10:18:23Z</time></trkpt><trkpt lat="38.13988427752" lon="15.85230517368037"><ele>1515.0</ele><time>2026-04-25T10:18:24Z</time></trkpt><trkpt lat="38.13990022876668" lon="15.852213804926631"><ele>1512.0</ele><time>2026-04-25T10:18:25Z</time></trkpt><trkpt lat="38.139929209024345" lon="15.852078868259742"><ele>1509.0</ele><time>2026-04-25T10:18:26Z</time></trkpt><trkpt lat="38.139985750183364" lon="15.851953667315545"><ele>1506.0</ele><time>2026-04-25T10:18:27Z</time></trkpt><trkpt lat="38.1400567162128" lon="15.851858940743764"><ele>1503.0</ele><time>2026-04-25T10:18:28Z</time></trkpt><trkpt lat="38.1401418967615" lon="15.851793376224403"><ele>1500.0</ele><time>2026-04-25T10:18:29Z</time></trkpt><trkpt lat="38.14022786079961" lon="15.851726705260273"><ele>1498.6</ele><time>2026-04-25T10:18:30Z</time></trkpt><trkpt lat="38.1402976021397" lon="15.851678803002672"><ele>1497.2</ele><time>2026-04-25T10:18:31Z</time></trkpt><trkpt lat="38.140342811853564" lon="15.851563978510361"><ele>1495.8000000000002</ele><time>2026-04-25T10:18:33Z</time></trkpt><trkpt lat="38.14042243957055" lon="15.851440106425658"><ele>1494.4</ele><time>2026-04-25T10:18:35Z</time></trkpt><trkpt lat="38.14048050048431" lon="15.851345271774981"><ele>1493.0</ele><time>2026-04-25T10:18:36Z</time></trkpt><trkpt lat="38.14053482785636" lon="15.85124528127363"><ele>1493.0</ele><time>2026-04-25T10:18:37Z</time></trkpt><trkpt lat="38.14059496321589" lon="15.851144088931939"><ele>1493.0</ele><time>2026-04-25T10:18:38Z</time></trkpt><trkpt lat="38.14066185354623" lon="15.851060589029524"><ele>1493.0</ele><time>2026-04-25T10:18:39Z</time></trkpt><trkpt lat="38.14073415628911" lon="15.8510058875218"><ele>1493.0</ele><time>2026-04-25T10:18:40Z</time></trkpt><trkpt lat="38.14081154028574" lon="15.850990168588433"><ele>1493.0</ele><time>2026-04-25T10:18:41Z</time></trkpt><trkpt lat="38.14091657694102" lon="15.850983026544705"><ele>1488.75</ele><time>2026-04-25T10:18:42Z</time></trkpt><trkpt lat="38.14103793451484" lon="15.850947965421609"><ele>1484.5</ele><time>2026-04-25T10:18:43Z</time></trkpt><trkpt lat="38.14114592395096" lon="15.850931794236546"><ele>1480.25</ele><time>2026-04-25T10:18:44Z</time></trkpt><trkpt lat="38.14126018604339" lon="15.850921033764733"><ele>1476.0</ele><time>2026-04-25T10:18:45Z</time></trkpt><trkpt lat="38.14136350354701" lon="15.850909083086387"><ele>1476.0</ele><time>2026-04-25T10:18:46Z</time></trkpt><trkpt lat="38.14146058885285" lon="15.850914753567572"><ele>1476.0</ele><time>2026-04-25T10:18:47Z</time></trkpt><trkpt lat="38.141557366149186" lon="15.850955501397644"><ele>1476.0</ele><time>2026-04-25T10:18:48Z</time></trkpt><trkpt lat="38.141657876404764" lon="15.85101892298524"><ele>1476.0</ele><time>2026-04-25T10:18:49Z</time></trkpt><trkpt lat="38.14175415461445" lon="15.851102833588536"><ele>1476.0</ele><time>2026-04-25T10:18:50Z</time></trkpt><trkpt lat="38.14183400961725" lon="15.851205287834262"><ele>1476.8</ele><time>2026-04-25T10:18:51Z</time></trkpt><trkpt lat="38.141911157093446" lon="15.851279050436565"><ele>1477.6</ele><time>2026-04-25T10:18:52Z</time></trkpt><trkpt lat="38.14197445607867" lon="15.851327415123729"><ele>1478.4</ele><time>2026-04-25T10:18:53Z</time></trkpt><trkpt lat="38.14208435692355" lon="15.851272364380451"><ele>1479.2</ele><time>2026-04-25T10:18:55Z</time></trkpt><trkpt lat="38.142068768666384" lon="15.851102609814104"><ele>1480.0</ele><time>2026-04-25T10:18:57Z</time></trkpt><trkpt lat="38.142081427516324" lon="15.850980789982346"><ele>1477.2</ele><time>2026-04-25T10:18:58Z</time></trkpt><trkpt lat="38.14209649275626" lon="15.850864075121681"><ele>1474.4</ele><time>2026-04-25T10:18:59Z</time></trkpt><trkpt lat="38.142122017060515" lon="15.850722554380928"><ele>1471.6</ele><time>2026-04-25T10:19:00.001Z</time></trkpt><trkpt lat="38.142145298588126" lon="15.850580933155584"><ele>1468.8</ele><time>2026-04-25T10:19:01.001Z</time></trkpt><trkpt lat="38.14217289188368" lon="15.850443668941054"><ele>1466.0</ele><time>2026-04-25T10:19:02.001Z</time></trkpt><trkpt lat="38.142215703285245" lon="15.850272097579376"><ele>1466.0</ele><time>2026-04-25T10:19:03.001Z</time></trkpt><trkpt lat="38.14224327597064" lon="15.850126000434294"><ele>1466.0</ele><time>2026-04-25T10:19:04.001Z</time></trkpt><trkpt lat="38.142236248065" lon="15.850002705916852"><ele>1466.0</ele><time>2026-04-25T10:19:05.001Z</time></trkpt><trkpt lat="38.14222913985605" lon="15.849874457911097"><ele>1466.0</ele><time>2026-04-25T10:19:06.001Z</time></trkpt><trkpt lat="38.14222650839011" lon="15.849764674613118"><ele>1466.0</ele><time>2026-04-25T10:19:07.001Z</time></trkpt><trkpt lat="38.142237409075804" lon="15.849643917067223"><ele>1467.6666666666667</ele><time>2026-04-25T10:19:09.001Z</time></trkpt><trkpt lat="38.142374429629726" lon="15.849550938387786"><ele>1469.3333333333333</ele><time>2026-04-25T10:19:11.001Z</time></trkpt><trkpt lat="38.142463634975435" lon="15.849570257561602"><ele>1471.0</ele><time>2026-04-25T10:19:12.001Z</time></trkpt><trkpt lat="38.142407163804286" lon="15.848949739021426"><ele>1469.0</ele><time>2026-04-25T10:19:13.001Z</time></trkpt><trkpt lat="38.14247949368258" lon="15.848849006911358"><ele>1467.0</ele><time>2026-04-25T10:19:14.001Z</time></trkpt><trkpt lat="38.14256072170917" lon="15.84878539232206"><ele>1465.0</ele><time>2026-04-25T10:19:15.001Z</time></trkpt><trkpt lat="38.14266425295076" lon="15.848762585932995"><ele>1463.0</ele><time>2026-04-25T10:19:16.001Z</time></trkpt><trkpt lat="38.14275969792961" lon="15.848788762644508"><ele>1461.0</ele><time>2026-04-25T10:19:17.001Z</time></trkpt><trkpt lat="38.14286028921598" lon="15.848834908007703"><ele>1461.0</ele><time>2026-04-25T10:19:18.001Z</time></trkpt><trkpt lat="38.14296925748403" lon="15.848909222301513"><ele>1461.0</ele><time>2026-04-25T10:19:19.001Z</time></trkpt><trkpt lat="38.14306372916221" lon="15.848957716924776"><ele>1461.0</ele><time>2026-04-25T10:19:20.001Z</time></trkpt><trkpt lat="38.1431618460705" lon="15.848988759887641"><ele>1461.0</ele><time>2026-04-25T10:19:21.001Z</time></trkpt><trkpt lat="38.14326103655184" lon="15.84906030688242"><ele>1461.0</ele><time>2026-04-25T10:19:22.001Z</time></trkpt><trkpt lat="38.143367449891294" lon="15.849033504583765"><ele>1461.4</ele><time>2026-04-25T10:19:23.001Z</time></trkpt><trkpt lat="38.14344659678381" lon="15.849010017998985"><ele>1461.8</ele><time>2026-04-25T10:19:24.001Z</time></trkpt><trkpt lat="38.14350993401179" lon="15.848941334796281"><ele>1462.2</ele><time>2026-04-25T10:19:25.001Z</time></trkpt><trkpt lat="38.14353223671808" lon="15.848847172260784"><ele>1462.6000000000001</ele><time>2026-04-25T10:19:26.001Z</time></trkpt><trkpt lat="38.143520348831586" lon="15.848712113952665"><ele>1463.0</ele><time>2026-04-25T10:19:28.001Z</time></trkpt><trkpt lat="38.143456447175595" lon="15.84854826919704"><ele>1460.8000000000002</ele><time>2026-04-25T10:19:30.001Z</time></trkpt><trkpt lat="38.14345195737564" lon="15.84845293305272"><ele>1458.6</ele><time>2026-04-25T10:19:31.001Z</time></trkpt><trkpt lat="38.14340906223358" lon="15.848331219828538"><ele>1456.4</ele><time>2026-04-25T10:19:32.001Z</time></trkpt><trkpt lat="38.143388513202176" lon="15.848248534225451"><ele>1454.1999999999998</ele><time>2026-04-25T10:19:33.001Z</time></trkpt><trkpt lat="38.14333428001979" lon="15.848070267700763"><ele>1452.0</ele><time>2026-04-25T10:19:35.001Z</time></trkpt><trkpt lat="38.143358289533005" lon="15.847963597928443"><ele>1452.0</ele><time>2026-04-25T10:19:36.001Z</time></trkpt><trkpt lat="38.14332072507917" lon="15.847864751307156"><ele>1452.0</ele><time>2026-04-25T10:19:37.001Z</time></trkpt><trkpt lat="38.14321457783752" lon="15.84769434902904"><ele>1452.0</ele><time>2026-04-25T10:19:38.001Z</time></trkpt><trkpt lat="38.14312284543472" lon="15.847563196251668"><ele>1452.0</ele><time>2026-04-25T10:19:39.001Z</time></trkpt><trkpt lat="38.14307794557203" lon="15.847458141657704"><ele>1452.0</ele><time>2026-04-25T10:19:40.001Z</time></trkpt><trkpt lat="38.143024369978015" lon="15.847365165316063"><ele>1452.0</ele><time>2026-04-25T10:19:41.001Z</time></trkpt><trkpt lat="38.142993547934424" lon="15.847272220735544"><ele>1452.0</ele><time>2026-04-25T10:19:42.001Z</time></trkpt><trkpt lat="38.14298476295818" lon="15.847142173109873"><ele>1452.0</ele><time>2026-04-25T10:19:43.001Z</time></trkpt><trkpt lat="38.142992612797855" lon="15.847023367958135"><ele>1452.0</ele><time>2026-04-25T10:19:44.001Z</time></trkpt><trkpt lat="38.14299012664886" lon="15.846909880036318"><ele>1450.6</ele><time>2026-04-25T10:19:45.001Z</time></trkpt><trkpt lat="38.14295951797437" lon="15.846775823012033"><ele>1449.1999999999998</ele><time>2026-04-25T10:19:46.001Z</time></trkpt><trkpt lat="38.14292998235933" lon="15.846635294985402"><ele>1447.8</ele><time>2026-04-25T10:19:47.001Z</time></trkpt><trkpt lat="38.14290355673206" lon="15.84649024896203"><ele>1446.4</ele><time>2026-04-25T10:19:48.001Z</time></trkpt><trkpt lat="38.142899867364264" lon="15.846364470815514"><ele>1445.0</ele><time>2026-04-25T10:19:49.001Z</time></trkpt><trkpt lat="38.14290841291321" lon="15.846232437831674"><ele>1445.0</ele><time>2026-04-25T10:19:50.001Z</time></trkpt><trkpt lat="38.14293439808656" lon="15.846089903732349"><ele>1445.0</ele><time>2026-04-25T10:19:51.001Z</time></trkpt><trkpt lat="38.14293663305922" lon="15.845957664873227"><ele>1445.0</ele><time>2026-04-25T10:19:52.001Z</time></trkpt><trkpt lat="38.14297939192561" lon="15.845774682692651"><ele>1445.0</ele><time>2026-04-25T10:19:53.001Z</time></trkpt><trkpt lat="38.14297682596111" lon="15.845640587280853"><ele>1444.8</ele><time>2026-04-25T10:19:54.001Z</time></trkpt><trkpt lat="38.14299377723682" lon="15.845502097933245"><ele>1444.6</ele><time>2026-04-25T10:19:55.001Z</time></trkpt><trkpt lat="38.14301580689707" lon="15.845390399008316"><ele>1444.4</ele><time>2026-04-25T10:19:56.001Z</time></trkpt><trkpt lat="38.143075700721944" lon="15.845296944226904"><ele>1444.2</ele><time>2026-04-25T10:19:57.001Z</time></trkpt><trkpt lat="38.14316426191651" lon="15.845219369207992"><ele>1444.0</ele><time>2026-04-25T10:19:58.001Z</time></trkpt><trkpt lat="38.143289722564525" lon="15.845183167573893"><ele>1444.0</ele><time>2026-04-25T10:19:59.001Z</time></trkpt><trkpt lat="38.14339423318238" lon="15.845152101929479"><ele>1444.0</ele><time>2026-04-25T10:20:00.001Z</time></trkpt><trkpt lat="38.14346464555156" lon="15.84516754094312"><ele>1444.0</ele><time>2026-04-25T10:20:01.001Z</time></trkpt><trkpt lat="38.143549807818864" lon="15.845243667084642"><ele>1444.0</ele><time>2026-04-25T10:20:02.001Z</time></trkpt><trkpt lat="38.14365602619386" lon="15.845328933961044"><ele>1444.0</ele><time>2026-04-25T10:20:03.001Z</time></trkpt><trkpt lat="38.143728975573744" lon="15.845406304958447"><ele>1444.0</ele><time>2026-04-25T10:20:04.001Z</time></trkpt><trkpt lat="38.143796321191786" lon="15.845492200146754"><ele>1444.0</ele><time>2026-04-25T10:20:05.001Z</time></trkpt><trkpt lat="38.143860238673355" lon="15.845562390991578"><ele>1444.0</ele><time>2026-04-25T10:20:06.001Z</time></trkpt><trkpt lat="38.14392765291095" lon="15.84563520491765"><ele>1444.0</ele><time>2026-04-25T10:20:07.001Z</time></trkpt><trkpt lat="38.14404730775499" lon="15.845667825615005"><ele>1444.0</ele><time>2026-04-25T10:20:09.001Z</time></trkpt><trkpt lat="38.14409601848224" lon="15.84560388905261"><ele>1444.0</ele><time>2026-04-25T10:20:10.001Z</time></trkpt><trkpt lat="38.1440954492758" lon="15.84548958187302"><ele>1444.0</ele><time>2026-04-25T10:20:11.001Z</time></trkpt><trkpt lat="38.14404606624709" lon="15.84537142193817"><ele>1444.0</ele><time>2026-04-25T10:20:12.001Z</time></trkpt><trkpt lat="38.14397387547357" lon="15.845245735952084"><ele>1444.0</ele><time>2026-04-25T10:20:13.001Z</time></trkpt><trkpt lat="38.14391271519461" lon="15.845050807601954"><ele>1438.75</ele><time>2026-04-25T10:20:14.001Z</time></trkpt><trkpt lat="38.143854573471955" lon="15.844889231287837"><ele>1433.5</ele><time>2026-04-25T10:20:15.001Z</time></trkpt><trkpt lat="38.143751105507626" lon="15.844797458480201"><ele>1428.25</ele><time>2026-04-25T10:20:16.001Z</time></trkpt><trkpt lat="38.14366078041471" lon="15.844739253370372"><ele>1423.0</ele><time>2026-04-25T10:20:17.001Z</time></trkpt><trkpt lat="38.14358342832967" lon="15.8446000919308"><ele>1423.0</ele><time>2026-04-25T10:20:18.001Z</time></trkpt><trkpt lat="38.14354647624297" lon="15.844433363676467"><ele>1423.0</ele><time>2026-04-25T10:20:19.001Z</time></trkpt><trkpt lat="38.14351681966852" lon="15.844296592245884"><ele>1423.0</ele><time>2026-04-25T10:20:20.001Z</time></trkpt><trkpt lat="38.14352638016456" lon="15.844129179546256"><ele>1423.0</ele><time>2026-04-25T10:20:21Z</time></trkpt><trkpt lat="38.14353901486232" lon="15.844001400717747"><ele>1422.0</ele><time>2026-04-25T10:20:22Z</time></trkpt><trkpt lat="38.14355084521372" lon="15.84390370260286"><ele>1421.0</ele><time>2026-04-25T10:20:23Z</time></trkpt><trkpt lat="38.14360405024676" lon="15.843780600351172"><ele>1420.0</ele><time>2026-04-25T10:20:24Z</time></trkpt><trkpt lat="38.14368673020185" lon="15.843652868342463"><ele>1419.0</ele><time>2026-04-25T10:20:25Z</time></trkpt><trkpt lat="38.14378884759544" lon="15.843525390358488"><ele>1417.5</ele><time>2026-04-25T10:20:26Z</time></trkpt><trkpt lat="38.14390782164704" lon="15.84340782374476"><ele>1416.0</ele><time>2026-04-25T10:20:27Z</time></trkpt><trkpt lat="38.144009073342126" lon="15.843265491005099"><ele>1414.5</ele><time>2026-04-25T10:20:28Z</time></trkpt><trkpt lat="38.144101701820965" lon="15.843161564293958"><ele>1413.0</ele><time>2026-04-25T10:20:29Z</time></trkpt><trkpt lat="38.14417878861469" lon="15.843053152728888"><ele>1413.3333333333333</ele><time>2026-04-25T10:20:30Z</time></trkpt><trkpt lat="38.14424101205319" lon="15.842891173356582"><ele>1413.6666666666665</ele><time>2026-04-25T10:20:31Z</time></trkpt><trkpt lat="38.1442868151389" lon="15.842626207624757"><ele>1414.0</ele><time>2026-04-25T10:20:32Z</time></trkpt><trkpt lat="38.14434006939265" lon="15.842419932623953"><ele>1414.0</ele><time>2026-04-25T10:20:33Z</time></trkpt><trkpt lat="38.14436832782838" lon="15.842209098464249"><ele>1414.0</ele><time>2026-04-25T10:20:34Z</time></trkpt><trkpt lat="38.14438464334984" lon="15.84199895816545"><ele>1414.0</ele><time>2026-04-25T10:20:35Z</time></trkpt><trkpt lat="38.14438609076463" lon="15.841804961807894"><ele>1410.5</ele><time>2026-04-25T10:20:36Z</time></trkpt><trkpt lat="38.14438520587753" lon="15.84162191121007"><ele>1407.0</ele><time>2026-04-25T10:20:37Z</time></trkpt><trkpt lat="38.14440223135203" lon="15.841480601503168"><ele>1403.5</ele><time>2026-04-25T10:20:38Z</time></trkpt><trkpt lat="38.14444304714268" lon="15.841341969357464"><ele>1400.0</ele><time>2026-04-25T10:20:39Z</time></trkpt><trkpt lat="38.14449061879097" lon="15.841225387727132"><ele>1400.0</ele><time>2026-04-25T10:20:40Z</time></trkpt><trkpt lat="38.14459913103989" lon="15.841275001622265"><ele>1400.0</ele><time>2026-04-25T10:20:41Z</time></trkpt><trkpt lat="38.144712986486184" lon="15.841292671286014"><ele>1400.0</ele><time>2026-04-25T10:20:42Z</time></trkpt><trkpt lat="38.14474554724739" lon="15.841220631589202"><ele>1400.0</ele><time>2026-04-25T10:20:43Z</time></trkpt><trkpt lat="38.144730790017164" lon="15.84110359305358"><ele>1400.0</ele><time>2026-04-25T10:20:44Z</time></trkpt><trkpt lat="38.144702779199676" lon="15.840982408414511"><ele>1398.8</ele><time>2026-04-25T10:20:45Z</time></trkpt><trkpt lat="38.14470535729646" lon="15.840876143952618"><ele>1397.6</ele><time>2026-04-25T10:20:46Z</time></trkpt><trkpt lat="38.144723128604795" lon="15.84074248458286"><ele>1396.4</ele><time>2026-04-25T10:20:47Z</time></trkpt><trkpt lat="38.1447892609494" lon="15.840672854851741"><ele>1395.2</ele><time>2026-04-25T10:20:48Z</time></trkpt><trkpt lat="38.144883376433675" lon="15.840600956264474"><ele>1394.0</ele><time>2026-04-25T10:20:49Z</time></trkpt><trkpt lat="38.144938089004135" lon="15.840532449993125"><ele>1392.4</ele><time>2026-04-25T10:20:50Z</time></trkpt><trkpt lat="38.14497196432039" lon="15.840463683008545"><ele>1390.8000000000002</ele><time>2026-04-25T10:20:51Z</time></trkpt><trkpt lat="38.144957237082046" lon="15.840359751121682"><ele>1389.1999999999998</ele><time>2026-04-25T10:20:52Z</time></trkpt><trkpt lat="38.144895941458344" lon="15.840243792046358"><ele>1387.6</ele><time>2026-04-25T10:20:53Z</time></trkpt><trkpt lat="38.144822282375095" lon="15.840127935639728"><ele>1386.0</ele><time>2026-04-25T10:20:54Z</time></trkpt><trkpt lat="38.14477032960791" lon="15.840015083230094"><ele>1386.0</ele><time>2026-04-25T10:20:55Z</time></trkpt><trkpt lat="38.144738001054435" lon="15.839844856811084"><ele>1386.0</ele><time>2026-04-25T10:20:56Z</time></trkpt><trkpt lat="38.14476134545113" lon="15.83974190234506"><ele>1386.0</ele><time>2026-04-25T10:20:57Z</time></trkpt><trkpt lat="38.14475872468776" lon="15.83962661619057"><ele>1386.0</ele><time>2026-04-25T10:20:58Z</time></trkpt><trkpt lat="38.14480659917928" lon="15.839521559330063"><ele>1386.0</ele><time>2026-04-25T10:20:59Z</time></trkpt><trkpt lat="38.14487831658203" lon="15.839410037923162"><ele>1388.4</ele><time>2026-04-25T10:21:00Z</time></trkpt><trkpt lat="38.144946392918044" lon="15.839301844419913"><ele>1390.8</ele><time>2026-04-25T10:21:01Z</time></trkpt><trkpt lat="38.14501131095765" lon="15.839187728091005"><ele>1393.2</ele><time>2026-04-25T10:21:02Z</time></trkpt><trkpt lat="38.145070061437124" lon="15.839092452552071"><ele>1395.6000000000001</ele><time>2026-04-25T10:21:03.001Z</time></trkpt><trkpt lat="38.145109080962186" lon="15.83900201792713"><ele>1398.0</ele><time>2026-04-25T10:21:04.001Z</time></trkpt><trkpt lat="38.14513201531608" lon="15.838891538127504"><ele>1398.0</ele><time>2026-04-25T10:21:05.001Z</time></trkpt><trkpt lat="38.14512334365129" lon="15.838757339998219"><ele>1398.0</ele><time>2026-04-25T10:21:06.001Z</time></trkpt><trkpt lat="38.14510087537706" lon="15.838645375347562"><ele>1398.0</ele><time>2026-04-25T10:21:07.001Z</time></trkpt><trkpt lat="38.14509850084483" lon="15.838517433775776"><ele>1398.0</ele><time>2026-04-25T10:21:08.001Z</time></trkpt><trkpt lat="38.14512611145502" lon="15.83836901087437"><ele>1398.0</ele><time>2026-04-25T10:21:09.001Z</time></trkpt><trkpt lat="38.14517251329857" lon="15.838235768305784"><ele>1395.4</ele><time>2026-04-25T10:21:10.001Z</time></trkpt><trkpt lat="38.14524133899629" lon="15.838112206906816"><ele>1392.8000000000002</ele><time>2026-04-25T10:21:11.001Z</time></trkpt><trkpt lat="38.14529322415588" lon="15.837983206000564"><ele>1390.2</ele><time>2026-04-25T10:21:12.001Z</time></trkpt><trkpt lat="38.14535946200495" lon="15.837889877097902"><ele>1387.6</ele><time>2026-04-25T10:21:13.001Z</time></trkpt><trkpt lat="38.145414960641006" lon="15.83779252409123"><ele>1385.0</ele><time>2026-04-25T10:21:14.001Z</time></trkpt><trkpt lat="38.14547949358807" lon="15.837694137861767"><ele>1382.4</ele><time>2026-04-25T10:21:15.001Z</time></trkpt><trkpt lat="38.145549962945616" lon="15.837611891233664"><ele>1379.8</ele><time>2026-04-25T10:21:16.001Z</time></trkpt><trkpt lat="38.14561918580592" lon="15.837542220542224"><ele>1377.1999999999998</ele><time>2026-04-25T10:21:17.001Z</time></trkpt><trkpt lat="38.14570670692365" lon="15.837440495932402"><ele>1374.6</ele><time>2026-04-25T10:21:19.001Z</time></trkpt><trkpt lat="38.145705019200506" lon="15.837345205532534"><ele>1372.0</ele><time>2026-04-25T10:21:20.001Z</time></trkpt><trkpt lat="38.1456802646341" lon="15.837226585204471"><ele>1372.0</ele><time>2026-04-25T10:21:21.001Z</time></trkpt><trkpt lat="38.14561222027626" lon="15.837135886075364"><ele>1372.0</ele><time>2026-04-25T10:21:22.001Z</time></trkpt><trkpt lat="38.14558520554621" lon="15.837034497215923"><ele>1372.0</ele><time>2026-04-25T10:21:23.001Z</time></trkpt><trkpt lat="38.14556314949674" lon="15.836896362733325"><ele>1372.0</ele><time>2026-04-25T10:21:24.001Z</time></trkpt><trkpt lat="38.145568512165084" lon="15.836754345596901"><ele>1372.0</ele><time>2026-04-25T10:21:25.001Z</time></trkpt><trkpt lat="38.1455613917239" lon="15.836649641680648"><ele>1369.8</ele><time>2026-04-25T10:21:26.001Z</time></trkpt><trkpt lat="38.145630839278354" lon="15.836503559711808"><ele>1367.6</ele><time>2026-04-25T10:21:27.001Z</time></trkpt><trkpt lat="38.145708659118945" lon="15.836413800611972"><ele>1365.3999999999999</ele><time>2026-04-25T10:21:28.001Z</time></trkpt><trkpt lat="38.145750688535585" lon="15.836307262276815"><ele>1363.1999999999998</ele><time>2026-04-25T10:21:29.001Z</time></trkpt><trkpt lat="38.145815797518765" lon="15.836200479019684"><ele>1361.0</ele><time>2026-04-25T10:21:30.001Z</time></trkpt><trkpt lat="38.145860187747154" lon="15.836129308179006"><ele>1363.0</ele><time>2026-04-25T10:21:31.001Z</time></trkpt><trkpt lat="38.145902531740624" lon="15.836049395152102"><ele>1365.0</ele><time>2026-04-25T10:21:32.001Z</time></trkpt><trkpt lat="38.146014228374604" lon="15.835953724708599"><ele>1367.0</ele><time>2026-04-25T10:21:34.001Z</time></trkpt><trkpt lat="38.14610035191732" lon="15.835893995960898"><ele>1369.0</ele><time>2026-04-25T10:21:35.001Z</time></trkpt><trkpt lat="38.146185895935766" lon="15.835820737768028"><ele>1371.0</ele><time>2026-04-25T10:21:36.001Z</time></trkpt><trkpt lat="38.14625124789948" lon="15.83576601167593"><ele>1371.0</ele><time>2026-04-25T10:21:37.001Z</time></trkpt><trkpt lat="38.14627793835398" lon="15.835688729954855"><ele>1371.0</ele><time>2026-04-25T10:21:38.001Z</time></trkpt><trkpt lat="38.14631331691357" lon="15.835616647549196"><ele>1371.0</ele><time>2026-04-25T10:21:39.001Z</time></trkpt><trkpt lat="38.146357293438335" lon="15.835500134614527"><ele>1371.0</ele><time>2026-04-25T10:21:40.001Z</time></trkpt><trkpt lat="38.14639905099886" lon="15.835396578224152"><ele>1371.0</ele><time>2026-04-25T10:21:41.001Z</time></trkpt><trkpt lat="38.146452249355406" lon="15.835298140099168"><ele>1371.0</ele><time>2026-04-25T10:21:42.001Z</time></trkpt><trkpt lat="38.14649573531823" lon="15.8351983536627"><ele>1372.5</ele><time>2026-04-25T10:21:43.001Z</time></trkpt><trkpt lat="38.14653066095064" lon="15.835091693664735"><ele>1374.0</ele><time>2026-04-25T10:21:44.001Z</time></trkpt><trkpt lat="38.14653056080032" lon="15.834971526151216"><ele>1375.5</ele><time>2026-04-25T10:21:45.001Z</time></trkpt><trkpt lat="38.14655804660271" lon="15.834874392809386"><ele>1377.0</ele><time>2026-04-25T10:21:46.001Z</time></trkpt><trkpt lat="38.14657592057126" lon="15.834773274594019"><ele>1378.5</ele><time>2026-04-25T10:21:47.001Z</time></trkpt><trkpt lat="38.146640661465064" lon="15.834685989917066"><ele>1380.0</ele><time>2026-04-25T10:21:48.001Z</time></trkpt><trkpt lat="38.14670169889779" lon="15.834586072047227"><ele>1380.0</ele><time>2026-04-25T10:21:49.001Z</time></trkpt><trkpt lat="38.146770622188335" lon="15.834472416922848"><ele>1380.0</ele><time>2026-04-25T10:21:50.001Z</time></trkpt><trkpt lat="38.14687016764678" lon="15.834372854367276"><ele>1380.0</ele><time>2026-04-25T10:21:51.001Z</time></trkpt><trkpt lat="38.14695481286181" lon="15.834299731586903"><ele>1380.0</ele><time>2026-04-25T10:21:52.001Z</time></trkpt><trkpt lat="38.147043189328144" lon="15.834232642427043"><ele>1380.0</ele><time>2026-04-25T10:21:53.001Z</time></trkpt><trkpt lat="38.147123207708525" lon="15.834135252300534"><ele>1374.5</ele><time>2026-04-25T10:21:54.001Z</time></trkpt><trkpt lat="38.14718189448498" lon="15.834022574982427"><ele>1369.0</ele><time>2026-04-25T10:21:55.001Z</time></trkpt><trkpt lat="38.147228869103856" lon="15.833873648449604"><ele>1363.5</ele><time>2026-04-25T10:21:56.001Z</time></trkpt><trkpt lat="38.14725597986475" lon="15.833741973729596"><ele>1358.0</ele><time>2026-04-25T10:21:57.001Z</time></trkpt><trkpt lat="38.147259279883265" lon="15.833578591756144"><ele>1360.75</ele><time>2026-04-25T10:21:58.001Z</time></trkpt><trkpt lat="38.14729835879324" lon="15.833462723422523"><ele>1363.5</ele><time>2026-04-25T10:21:59.001Z</time></trkpt><trkpt lat="38.147339783188826" lon="15.833312308183048"><ele>1366.25</ele><time>2026-04-25T10:22:00.001Z</time></trkpt><trkpt lat="38.14740440560104" lon="15.833185560515615"><ele>1369.0</ele><time>2026-04-25T10:22:01.001Z</time></trkpt><trkpt lat="38.14746440996312" lon="15.833046194148094"><ele>1369.0</ele><time>2026-04-25T10:22:02.001Z</time></trkpt><trkpt lat="38.147529409405706" lon="15.832929598966162"><ele>1369.0</ele><time>2026-04-25T10:22:03.001Z</time></trkpt><trkpt lat="38.14762508488338" lon="15.832821901287852"><ele>1369.0</ele><time>2026-04-25T10:22:04.001Z</time></trkpt><trkpt lat="38.14769104515665" lon="15.832738417351297"><ele>1369.0</ele><time>2026-04-25T10:22:05.001Z</time></trkpt><trkpt lat="38.14776074581257" lon="15.83265248971407"><ele>1369.0</ele><time>2026-04-25T10:22:06.001Z</time></trkpt><trkpt lat="38.14784922791088" lon="15.832584797688062"><ele>1366.0</ele><time>2026-04-25T10:22:07.001Z</time></trkpt><trkpt lat="38.14798960421796" lon="15.8324691382928"><ele>1363.0</ele><time>2026-04-25T10:22:09.001Z</time></trkpt><trkpt lat="38.148173173967336" lon="15.832388214469473"><ele>1360.0</ele><time>2026-04-25T10:22:12.001Z</time></trkpt><trkpt lat="38.14826660812478" lon="15.83234390180482"><ele>1360.0</ele><time>2026-04-25T10:22:13.001Z</time></trkpt><trkpt lat="38.148363790390995" lon="15.83222718731944"><ele>1360.0</ele><time>2026-04-25T10:22:14.001Z</time></trkpt><trkpt lat="38.148403687134525" lon="15.832105661751488"><ele>1360.0</ele><time>2026-04-25T10:22:15.001Z</time></trkpt><trkpt lat="38.148471787133005" lon="15.831992604692182"><ele>1360.0</ele><time>2026-04-25T10:22:16.001Z</time></trkpt><trkpt lat="38.148503802397" lon="15.831915086225608"><ele>1360.0</ele><time>2026-04-25T10:22:17.001Z</time></trkpt><trkpt lat="38.148545067617036" lon="15.831805980185289"><ele>1357.8</ele><time>2026-04-25T10:22:18.001Z</time></trkpt><trkpt lat="38.148576529506826" lon="15.831674654648937"><ele>1355.6</ele><time>2026-04-25T10:22:19.001Z</time></trkpt><trkpt lat="38.14863380432508" lon="15.831582769731394"><ele>1353.4</ele><time>2026-04-25T10:22:20.001Z</time></trkpt><trkpt lat="38.14866214044485" lon="15.831496560816753"><ele>1351.2</ele><time>2026-04-25T10:22:22.001Z</time></trkpt><trkpt lat="38.148693625905544" lon="15.831413370152283"><ele>1349.0</ele><time>2026-04-25T10:22:31Z</time></trkpt><trkpt lat="38.14883369428982" lon="15.831420015287778"><ele>1349.0</ele><time>2026-04-25T10:22:33Z</time></trkpt><trkpt lat="38.14889995730781" lon="15.831405158190371"><ele>1349.0</ele><time>2026-04-25T10:22:34Z</time></trkpt><trkpt lat="38.14896594127915" lon="15.831389572063236"><ele>1349.0</ele><time>2026-04-25T10:22:35Z</time></trkpt><trkpt lat="38.14908490345668" lon="15.831440427904955"><ele>1349.0</ele><time>2026-04-25T10:22:37Z</time></trkpt><trkpt lat="38.14918122099641" lon="15.831533406783562"><ele>1349.0</ele><time>2026-04-25T10:22:38Z</time></trkpt><trkpt lat="38.14931336283407" lon="15.831632296697052"><ele>1350.0</ele><time>2026-04-25T10:22:39Z</time></trkpt><trkpt lat="38.14937564681628" lon="15.831756258249277"><ele>1351.0</ele><time>2026-04-25T10:22:40Z</time></trkpt><trkpt lat="38.14944854983108" lon="15.831862046784622"><ele>1352.0</ele><time>2026-04-25T10:22:41Z</time></trkpt><trkpt lat="38.14955251721255" lon="15.83192984295412"><ele>1353.0</ele><time>2026-04-25T10:22:42Z</time></trkpt><trkpt lat="38.149665390853926" lon="15.831983394747072"><ele>1353.0</ele><time>2026-04-25T10:22:43Z</time></trkpt><trkpt lat="38.149795193968515" lon="15.83200823805796"><ele>1353.0</ele><time>2026-04-25T10:22:44Z</time></trkpt><trkpt lat="38.1499166821602" lon="15.83198143533804"><ele>1353.0</ele><time>2026-04-25T10:22:45Z</time></trkpt><trkpt lat="38.15004509923197" lon="15.831960452643486"><ele>1353.0</ele><time>2026-04-25T10:22:46Z</time></trkpt><trkpt lat="38.1501608769294" lon="15.831922505709619"><ele>1353.25</ele><time>2026-04-25T10:22:47Z</time></trkpt><trkpt lat="38.150258777924144" lon="15.831851257444129"><ele>1353.5</ele><time>2026-04-25T10:22:48Z</time></trkpt><trkpt lat="38.150396614557046" lon="15.831699033141208"><ele>1353.75</ele><time>2026-04-25T10:22:49Z</time></trkpt><trkpt lat="38.15049274215792" lon="15.831627259752281"><ele>1354.0</ele><time>2026-04-25T10:22:50Z</time></trkpt><trkpt lat="38.150623473127396" lon="15.831599723828239"><ele>1352.25</ele><time>2026-04-25T10:22:51Z</time></trkpt><trkpt lat="38.15076458271807" lon="15.8316474801995"><ele>1350.5</ele><time>2026-04-25T10:22:53Z</time></trkpt><trkpt lat="38.15084457015221" lon="15.831724487724182"><ele>1348.75</ele><time>2026-04-25T10:22:54Z</time></trkpt><trkpt lat="38.15089690993946" lon="15.831816892225458"><ele>1347.0</ele><time>2026-04-25T10:22:55Z</time></trkpt><trkpt lat="38.151017338149565" lon="15.83184423519964"><ele>1347.0</ele><time>2026-04-25T10:22:56Z</time></trkpt><trkpt lat="38.15115492712272" lon="15.831900825271077"><ele>1347.0</ele><time>2026-04-25T10:22:57Z</time></trkpt><trkpt lat="38.15130175803849" lon="15.831866243125427"><ele>1347.0</ele><time>2026-04-25T10:22:58Z</time></trkpt><trkpt lat="38.15141977210159" lon="15.831847049234593"><ele>1347.0</ele><time>2026-04-25T10:22:59Z</time></trkpt><trkpt lat="38.15153818132306" lon="15.831766310389074"><ele>1347.6</ele><time>2026-04-25T10:23:00Z</time></trkpt><trkpt lat="38.15161087481126" lon="15.83169409885827"><ele>1348.1999999999998</ele><time>2026-04-25T10:23:01Z</time></trkpt><trkpt lat="38.15171673540419" lon="15.831691124683578"><ele>1348.8</ele><time>2026-04-25T10:23:02Z</time></trkpt><trkpt lat="38.15181071526348" lon="15.831694341642839"><ele>1349.4</ele><time>2026-04-25T10:23:03Z</time></trkpt><trkpt lat="38.15191362593411" lon="15.831724120226376"><ele>1350.0</ele><time>2026-04-25T10:23:04Z</time></trkpt><trkpt lat="38.15203106501225" lon="15.831760164448854"><ele>1350.0</ele><time>2026-04-25T10:23:05Z</time></trkpt><trkpt lat="38.15214690084524" lon="15.83180347973448"><ele>1350.0</ele><time>2026-04-25T10:23:06Z</time></trkpt><trkpt lat="38.15225655151867" lon="15.831839610416086"><ele>1350.0</ele><time>2026-04-25T10:23:07Z</time></trkpt><trkpt lat="38.15237475640312" lon="15.831893042826382"><ele>1350.0</ele><time>2026-04-25T10:23:08.001Z</time></trkpt><trkpt lat="38.15246814099185" lon="15.831886242129396"><ele>1353.0</ele><time>2026-04-25T10:23:09.001Z</time></trkpt><trkpt lat="38.1526330979264" lon="15.831933545327342"><ele>1356.0</ele><time>2026-04-25T10:23:10.001Z</time></trkpt><trkpt lat="38.152772433866325" lon="15.831974916885255"><ele>1359.0</ele><time>2026-04-25T10:23:11.001Z</time></trkpt><trkpt lat="38.15290950370679" lon="15.831991897287544"><ele>1359.0</ele><time>2026-04-25T10:23:12.001Z</time></trkpt><trkpt lat="38.15304159710992" lon="15.832047370992766"><ele>1359.0</ele><time>2026-04-25T10:23:13.001Z</time></trkpt><trkpt lat="38.153202987153854" lon="15.832095882154212"><ele>1359.0</ele><time>2026-04-25T10:23:14.001Z</time></trkpt><trkpt lat="38.153358281635484" lon="15.832136512741698"><ele>1356.3333333333333</ele><time>2026-04-25T10:23:15.001Z</time></trkpt><trkpt lat="38.153511730475664" lon="15.832177584906292"><ele>1353.6666666666665</ele><time>2026-04-25T10:23:16.001Z</time></trkpt><trkpt lat="38.1536498854145" lon="15.83222746034109"><ele>1351.0</ele><time>2026-04-25T10:23:17.001Z</time></trkpt><trkpt lat="38.15380197711016" lon="15.832284352135447"><ele>1351.0</ele><time>2026-04-25T10:23:18.001Z</time></trkpt><trkpt lat="38.153948041068574" lon="15.83233272401472"><ele>1351.0</ele><time>2026-04-25T10:23:19.001Z</time></trkpt><trkpt lat="38.15409252974247" lon="15.83239396717844"><ele>1351.0</ele><time>2026-04-25T10:23:20.001Z</time></trkpt><trkpt lat="38.15424915523563" lon="15.832433577918684"><ele>1351.6666666666665</ele><time>2026-04-25T10:23:21.001Z</time></trkpt><trkpt lat="38.15439903179156" lon="15.83245955127284"><ele>1352.3333333333333</ele><time>2026-04-25T10:23:22.001Z</time></trkpt><trkpt lat="38.154554058058785" lon="15.832503962750362"><ele>1353.0</ele><time>2026-04-25T10:23:23.001Z</time></trkpt><trkpt lat="38.15469980404965" lon="15.832566352373126"><ele>1353.0</ele><time>2026-04-25T10:23:24.001Z</time></trkpt><trkpt lat="38.15484621144735" lon="15.83258409774749"><ele>1353.0</ele><time>2026-04-25T10:23:25.001Z</time></trkpt><trkpt lat="38.154976663097024" lon="15.83262341106132"><ele>1353.0</ele><time>2026-04-25T10:23:26.001Z</time></trkpt><trkpt lat="38.155135342351734" lon="15.83268623327256"><ele>1353.0</ele><time>2026-04-25T10:23:27.001Z</time></trkpt><trkpt lat="38.15527221719745" lon="15.832742078576562"><ele>1354.0</ele><time>2026-04-25T10:23:28.001Z</time></trkpt><trkpt lat="38.15540178489028" lon="15.832815060858785"><ele>1355.0</ele><time>2026-04-25T10:23:29.001Z</time></trkpt><trkpt lat="38.155541323022646" lon="15.832910335724728"><ele>1356.0</ele><time>2026-04-25T10:23:30.001Z</time></trkpt><trkpt lat="38.15566076894312" lon="15.832973645652357"><ele>1357.0</ele><time>2026-04-25T10:23:31.001Z</time></trkpt><trkpt lat="38.155759684352155" lon="15.833055050521553"><ele>1357.0</ele><time>2026-04-25T10:23:32.001Z</time></trkpt><trkpt lat="38.1558599757486" lon="15.833117166941163"><ele>1357.0</ele><time>2026-04-25T10:23:33.001Z</time></trkpt><trkpt lat="38.155984801874595" lon="15.833137563628288"><ele>1357.0</ele><time>2026-04-25T10:23:34.001Z</time></trkpt><trkpt lat="38.15612738212588" lon="15.83312316572586"><ele>1357.0</ele><time>2026-04-25T10:23:35.001Z</time></trkpt><trkpt lat="38.15624766553332" lon="15.833146298562434"><ele>1357.0</ele><time>2026-04-25T10:23:36.001Z</time></trkpt><trkpt lat="38.156371718317224" lon="15.833149781636676"><ele>1357.0</ele><time>2026-04-25T10:23:37.001Z</time></trkpt><trkpt lat="38.156507998928745" lon="15.833164796529033"><ele>1357.0</ele><time>2026-04-25T10:23:38.001Z</time></trkpt><trkpt lat="38.15664917301304" lon="15.833191811725397"><ele>1357.0</ele><time>2026-04-25T10:23:39.001Z</time></trkpt><trkpt lat="38.15677794164194" lon="15.83320928929602"><ele>1356.75</ele><time>2026-04-25T10:23:40.001Z</time></trkpt><trkpt lat="38.15690502441531" lon="15.833226567576483"><ele>1356.5</ele><time>2026-04-25T10:23:41.001Z</time></trkpt><trkpt lat="38.157027186989936" lon="15.833232839890348"><ele>1356.25</ele><time>2026-04-25T10:23:42.001Z</time></trkpt><trkpt lat="38.157166161256626" lon="15.83326461519238"><ele>1356.0</ele><time>2026-04-25T10:23:43.001Z</time></trkpt><trkpt lat="38.157298076800174" lon="15.83328207057573"><ele>1355.5</ele><time>2026-04-25T10:23:44.001Z</time></trkpt><trkpt lat="38.15742888014248" lon="15.83329592250603"><ele>1355.0</ele><time>2026-04-25T10:23:45.001Z</time></trkpt><trkpt lat="38.15756415605532" lon="15.833305293970325"><ele>1354.5</ele><time>2026-04-25T10:23:46.001Z</time></trkpt><trkpt lat="38.15771710907942" lon="15.83331518657611"><ele>1354.0</ele><time>2026-04-25T10:23:47.001Z</time></trkpt><trkpt lat="38.1578369434339" lon="15.8333336693078"><ele>1354.0</ele><time>2026-04-25T10:23:48.001Z</time></trkpt><trkpt lat="38.15797287512753" lon="15.833340836420556"><ele>1354.0</ele><time>2026-04-25T10:23:49.001Z</time></trkpt><trkpt lat="38.15810589648593" lon="15.833359819965219"><ele>1354.0</ele><time>2026-04-25T10:23:50.001Z</time></trkpt><trkpt lat="38.15823516756497" lon="15.833374517916827"><ele>1354.0</ele><time>2026-04-25T10:23:51.001Z</time></trkpt><trkpt lat="38.15836682834722" lon="15.833410675859975"><ele>1353.25</ele><time>2026-04-25T10:23:52.001Z</time></trkpt><trkpt lat="38.15849023844612" lon="15.833411853998925"><ele>1352.5</ele><time>2026-04-25T10:23:53.001Z</time></trkpt><trkpt lat="38.15864422743554" lon="15.83342124835071"><ele>1351.75</ele><time>2026-04-25T10:23:54.001Z</time></trkpt><trkpt lat="38.15877101687018" lon="15.833402551312847"><ele>1351.0</ele><time>2026-04-25T10:23:55.001Z</time></trkpt><trkpt lat="38.158908540395736" lon="15.833402243792143"><ele>1350.5</ele><time>2026-04-25T10:23:56.001Z</time></trkpt><trkpt lat="38.15903728473999" lon="15.833408112647755"><ele>1350.0</ele><time>2026-04-25T10:23:57.001Z</time></trkpt><trkpt lat="38.159167338461465" lon="15.8334099037927"><ele>1349.5</ele><time>2026-04-25T10:23:58.001Z</time></trkpt><trkpt lat="38.159293708087034" lon="15.833426814723097"><ele>1349.0</ele><time>2026-04-25T10:23:59.001Z</time></trkpt><trkpt lat="38.15942481480558" lon="15.833418220425342"><ele>1349.0</ele><time>2026-04-25T10:24:00.001Z</time></trkpt><trkpt lat="38.15956521420751" lon="15.833437842795256"><ele>1349.0</ele><time>2026-04-25T10:24:01.001Z</time></trkpt><trkpt lat="38.159707196680486" lon="15.833450990080669"><ele>1349.0</ele><time>2026-04-25T10:24:02.001Z</time></trkpt><trkpt lat="38.15985340276996" lon="15.833460139237559"><ele>1349.0</ele><time>2026-04-25T10:24:03.001Z</time></trkpt><trkpt lat="38.160010983419866" lon="15.833470372299384"><ele>1349.25</ele><time>2026-04-25T10:24:04.001Z</time></trkpt><trkpt lat="38.16018320990744" lon="15.833512045476981"><ele>1349.5</ele><time>2026-04-25T10:24:05.001Z</time></trkpt><trkpt lat="38.16030473460459" lon="15.833503857593916"><ele>1349.75</ele><time>2026-04-25T10:24:06.001Z</time></trkpt><trkpt lat="38.160449448061065" lon="15.833509139098455"><ele>1350.0</ele><time>2026-04-25T10:24:07.001Z</time></trkpt><trkpt lat="38.160577259456026" lon="15.833500277871922"><ele>1350.0</ele><time>2026-04-25T10:24:08.001Z</time></trkpt><trkpt lat="38.16069120147757" lon="15.833474650291526"><ele>1350.0</ele><time>2026-04-25T10:24:09.001Z</time></trkpt><trkpt lat="38.160823525532486" lon="15.833479208865997"><ele>1350.0</ele><time>2026-04-25T10:24:10.001Z</time></trkpt><trkpt lat="38.16092505730143" lon="15.833507098285722"><ele>1350.0</ele><time>2026-04-25T10:24:11.001Z</time></trkpt><trkpt lat="38.16100572754884" lon="15.833571066823577"><ele>1350.0</ele><time>2026-04-25T10:24:12.001Z</time></trkpt><trkpt lat="38.161057322169846" lon="15.833668085343902"><ele>1349.75</ele><time>2026-04-25T10:24:13.001Z</time></trkpt><trkpt lat="38.1611320506826" lon="15.833808227012277"><ele>1349.5</ele><time>2026-04-25T10:24:14.001Z</time></trkpt><trkpt lat="38.16118480623347" lon="15.833985443386629"><ele>1349.25</ele><time>2026-04-25T10:24:15.001Z</time></trkpt><trkpt lat="38.161235164588966" lon="15.834137518254384"><ele>1349.0</ele><time>2026-04-25T10:24:16.001Z</time></trkpt><trkpt lat="38.16128390776745" lon="15.834280521045704"><ele>1351.0</ele><time>2026-04-25T10:24:17.001Z</time></trkpt><trkpt lat="38.16131346751717" lon="15.834406090521728"><ele>1353.0</ele><time>2026-04-25T10:24:18.001Z</time></trkpt><trkpt lat="38.16137162802388" lon="15.83454409639833"><ele>1355.0</ele><time>2026-04-25T10:24:19.001Z</time></trkpt><trkpt lat="38.16146318126517" lon="15.834670699902631"><ele>1357.0</ele><time>2026-04-25T10:24:20.001Z</time></trkpt><trkpt lat="38.161525933276714" lon="15.83476470335948"><ele>1353.75</ele><time>2026-04-25T10:24:21.001Z</time></trkpt><trkpt lat="38.161608489729595" lon="15.834875471405143"><ele>1350.5</ele><time>2026-04-25T10:24:22.001Z</time></trkpt><trkpt lat="38.161676770016584" lon="15.834991439700106"><ele>1347.25</ele><time>2026-04-25T10:24:23.001Z</time></trkpt><trkpt lat="38.1617164375645" lon="15.835118456138561"><ele>1344.0</ele><time>2026-04-25T10:24:24.001Z</time></trkpt><trkpt lat="38.161734702136556" lon="15.835256844690848"><ele>1343.5</ele><time>2026-04-25T10:24:25.001Z</time></trkpt><trkpt lat="38.1617319297481" lon="15.83539541416478"><ele>1343.0</ele><time>2026-04-25T10:24:26.001Z</time></trkpt><trkpt lat="38.161720505313816" lon="15.835547940129574"><ele>1342.5</ele><time>2026-04-25T10:24:27.001Z</time></trkpt><trkpt lat="38.16170434176612" lon="15.835690463169723"><ele>1342.0</ele><time>2026-04-25T10:24:28.001Z</time></trkpt><trkpt lat="38.16168401892485" lon="15.835828784335458"><ele>1342.0</ele><time>2026-04-25T10:24:29.001Z</time></trkpt><trkpt lat="38.161667027587285" lon="15.835907091224259"><ele>1342.0</ele><time>2026-04-25T10:24:30.001Z</time></trkpt><trkpt lat="38.161634188242324" lon="15.836034563224112"><ele>1342.0</ele><time>2026-04-25T10:24:31.001Z</time></trkpt><trkpt lat="38.16159857909341" lon="15.83616045368117"><ele>1342.0</ele><time>2026-04-25T10:24:32.001Z</time></trkpt><trkpt lat="38.16154772359417" lon="15.836310116358508"><ele>1342.0</ele><time>2026-04-25T10:24:33Z</time></trkpt><trkpt lat="38.16150469899221" lon="15.836452336886328"><ele>1341.5</ele><time>2026-04-25T10:24:34Z</time></trkpt><trkpt lat="38.161486792688144" lon="15.836552278348067"><ele>1341.0</ele><time>2026-04-25T10:24:35Z</time></trkpt><trkpt lat="38.161529727200765" lon="15.836738600561771"><ele>1340.5</ele><time>2026-04-25T10:24:37Z</time></trkpt><trkpt lat="38.16159264183331" lon="15.836797658622135"><ele>1340.0</ele><time>2026-04-25T10:24:38Z</time></trkpt><trkpt lat="38.16174268626077" lon="15.83682680818223"><ele>1340.0</ele><time>2026-04-25T10:24:39Z</time></trkpt><trkpt lat="38.16182879071162" lon="15.83679484747829"><ele>1340.0</ele><time>2026-04-25T10:24:40Z</time></trkpt><trkpt lat="38.16193856391562" lon="15.836801474785787"><ele>1340.0</ele><time>2026-04-25T10:24:41Z</time></trkpt><trkpt lat="38.16204978089005" lon="15.836708380425394"><ele>1340.0</ele><time>2026-04-25T10:24:42Z</time></trkpt><trkpt lat="38.16211756581623" lon="15.836605108028769"><ele>1340.0</ele><time>2026-04-25T10:24:43Z</time></trkpt><trkpt lat="38.16219250662445" lon="15.836490096203486"><ele>1340.0</ele><time>2026-04-25T10:24:44Z</time></trkpt><trkpt lat="38.16225303282224" lon="15.836353803733907"><ele>1340.0</ele><time>2026-04-25T10:24:45Z</time></trkpt><trkpt lat="38.16230257894603" lon="15.8362250269159"><ele>1340.0</ele><time>2026-04-25T10:24:46Z</time></trkpt><trkpt lat="38.162367795653495" lon="15.836111649424899"><ele>1340.0</ele><time>2026-04-25T10:24:47Z</time></trkpt><trkpt lat="38.16245357890598" lon="15.836027118110497"><ele>1337.0</ele><time>2026-04-25T10:24:48Z</time></trkpt><trkpt lat="38.162546908478305" lon="15.835924400153957"><ele>1334.0</ele><time>2026-04-25T10:24:49Z</time></trkpt><trkpt lat="38.16264127132909" lon="15.835829204312764"><ele>1331.0</ele><time>2026-04-25T10:24:50Z</time></trkpt><trkpt lat="38.16272998957896" lon="15.835750242554976"><ele>1328.0</ele><time>2026-04-25T10:24:51Z</time></trkpt><trkpt lat="38.16282125702779" lon="15.8356345857305"><ele>1328.0</ele><time>2026-04-25T10:24:52Z</time></trkpt><trkpt lat="38.162898230008096" lon="15.835501687981923"><ele>1328.0</ele><time>2026-04-25T10:24:53Z</time></trkpt><trkpt lat="38.16296846726608" lon="15.835363517431968"><ele>1328.0</ele><time>2026-04-25T10:24:54Z</time></trkpt><trkpt lat="38.16303856714239" lon="15.835226784826"><ele>1328.0</ele><time>2026-04-25T10:24:55Z</time></trkpt><trkpt lat="38.16310601322161" lon="15.83509319800236"><ele>1328.75</ele><time>2026-04-25T10:24:56Z</time></trkpt><trkpt lat="38.16317461471542" lon="15.834962386548977"><ele>1329.5</ele><time>2026-04-25T10:24:57Z</time></trkpt><trkpt lat="38.163243523551074" lon="15.834829715415035"><ele>1330.25</ele><time>2026-04-25T10:24:58Z</time></trkpt><trkpt lat="38.16332323936189" lon="15.834713426438817"><ele>1331.0</ele><time>2026-04-25T10:24:59Z</time></trkpt><trkpt lat="38.16342475080922" lon="15.83462199420372"><ele>1331.0</ele><time>2026-04-25T10:25:00Z</time></trkpt><trkpt lat="38.163533735457314" lon="15.834547875782567"><ele>1331.0</ele><time>2026-04-25T10:25:01Z</time></trkpt><trkpt lat="38.16365319923067" lon="15.83447959378841"><ele>1331.0</ele><time>2026-04-25T10:25:02Z</time></trkpt><trkpt lat="38.163785507258474" lon="15.834449964073166"><ele>1331.0</ele><time>2026-04-25T10:25:03Z</time></trkpt><trkpt lat="38.163911392578235" lon="15.834403677508824"><ele>1331.0</ele><time>2026-04-25T10:25:04Z</time></trkpt><trkpt lat="38.16402852503242" lon="15.834372119896013"><ele>1331.0</ele><time>2026-04-25T10:25:05Z</time></trkpt><trkpt lat="38.16414181156819" lon="15.834343966946092"><ele>1331.0</ele><time>2026-04-25T10:25:06Z</time></trkpt><trkpt lat="38.164242829960855" lon="15.834322201942872"><ele>1331.0</ele><time>2026-04-25T10:25:07Z</time></trkpt><trkpt lat="38.16434082648244" lon="15.834294437396558"><ele>1331.0</ele><time>2026-04-25T10:25:08Z</time></trkpt><trkpt lat="38.164435493411666" lon="15.83427762183911"><ele>1330.0</ele><time>2026-04-25T10:25:09Z</time></trkpt><trkpt lat="38.16450681777136" lon="15.834259365817795"><ele>1329.0</ele><time>2026-04-25T10:25:10Z</time></trkpt><trkpt lat="38.164639815974745" lon="15.834255272336446"><ele>1328.0</ele><time>2026-04-25T10:25:12Z</time></trkpt><trkpt lat="38.16471759636559" lon="15.83429391825556"><ele>1327.0</ele><time>2026-04-25T10:25:14Z</time></trkpt><trkpt lat="38.16464992966236" lon="15.834325971644583"><ele>1326.0</ele><time>2026-04-25T10:25:15Z</time></trkpt><trkpt lat="38.16471894650113" lon="15.83435866616581"><ele>1325.0</ele><time>2026-04-25T10:25:18Z</time></trkpt><trkpt lat="38.16478213322057" lon="15.834436405976296"><ele>1326.6</ele><time>2026-04-25T10:25:21.001Z</time></trkpt><trkpt lat="38.16482913068377" lon="15.834498059578314"><ele>1328.2</ele><time>2026-04-25T10:25:23.001Z</time></trkpt><trkpt lat="38.164847731605946" lon="15.834678617411628"><ele>1329.8000000000002</ele><time>2026-04-25T10:25:25.001Z</time></trkpt><trkpt lat="38.16484796700803" lon="15.83478667080702"><ele>1331.4</ele><time>2026-04-25T10:25:26.001Z</time></trkpt><trkpt lat="38.16484541878951" lon="15.834893678265464"><ele>1333.0</ele><time>2026-04-25T10:25:27.001Z</time></trkpt><trkpt lat="38.16486391072682" lon="15.834993772666257"><ele>1333.0</ele><time>2026-04-25T10:25:28.001Z</time></trkpt><trkpt lat="38.16493772315229" lon="15.835084451873213"><ele>1333.0</ele><time>2026-04-25T10:25:29.001Z</time></trkpt><trkpt lat="38.165034673954416" lon="15.835110717353588"><ele>1333.0</ele><time>2026-04-25T10:25:30.001Z</time></trkpt><trkpt lat="38.165119253099796" lon="15.835097250949548"><ele>1333.0</ele><time>2026-04-25T10:25:31.001Z</time></trkpt><trkpt lat="38.16521783793077" lon="15.835038550241226"><ele>1333.0</ele><time>2026-04-25T10:25:32.001Z</time></trkpt><trkpt lat="38.165315859881694" lon="15.834929727237304"><ele>1333.0</ele><time>2026-04-25T10:25:33.001Z</time></trkpt><trkpt lat="38.165412681933226" lon="15.834832169250236"><ele>1333.0</ele><time>2026-04-25T10:25:34.001Z</time></trkpt><trkpt lat="38.165478013580845" lon="15.834690106559716"><ele>1333.0</ele><time>2026-04-25T10:25:35.001Z</time></trkpt><trkpt lat="38.16557073555028" lon="15.834584843421503"><ele>1333.0</ele><time>2026-04-25T10:25:36.001Z</time></trkpt><trkpt lat="38.165647396678516" lon="15.834490105536766"><ele>1331.8000000000002</ele><time>2026-04-25T10:25:37.001Z</time></trkpt><trkpt lat="38.16574347324611" lon="15.83441020042483"><ele>1330.6</ele><time>2026-04-25T10:25:38.001Z</time></trkpt><trkpt lat="38.16585737946887" lon="15.834378881816836"><ele>1329.4</ele><time>2026-04-25T10:25:39.001Z</time></trkpt><trkpt lat="38.16596334481945" lon="15.834366417276943"><ele>1328.1999999999998</ele><time>2026-04-25T10:25:40.001Z</time></trkpt><trkpt lat="38.16607053757782" lon="15.834403885940002"><ele>1327.0</ele><time>2026-04-25T10:25:41.001Z</time></trkpt><trkpt lat="38.16616212963363" lon="15.834476847326709"><ele>1327.0</ele><time>2026-04-25T10:25:42.001Z</time></trkpt><trkpt lat="38.16626575494972" lon="15.83452596704885"><ele>1327.0</ele><time>2026-04-25T10:25:43.001Z</time></trkpt><trkpt lat="38.16641433222711" lon="15.834664526379584"><ele>1327.0</ele><time>2026-04-25T10:25:44.001Z</time></trkpt><trkpt lat="38.16653016596717" lon="15.834759646550458"><ele>1327.0</ele><time>2026-04-25T10:25:45.001Z</time></trkpt><trkpt lat="38.16663421689563" lon="15.834829134304318"><ele>1325.25</ele><time>2026-04-25T10:25:46.001Z</time></trkpt><trkpt lat="38.166724548584284" lon="15.834918168264766"><ele>1323.5</ele><time>2026-04-25T10:25:47.001Z</time></trkpt><trkpt lat="38.1668200741351" lon="15.835037396541324"><ele>1321.75</ele><time>2026-04-25T10:25:48.001Z</time></trkpt><trkpt lat="38.166904387728316" lon="15.835160242121813"><ele>1320.0</ele><time>2026-04-25T10:25:49.001Z</time></trkpt><trkpt lat="38.16698005297196" lon="15.835282485389243"><ele>1320.0</ele><time>2026-04-25T10:25:50.001Z</time></trkpt><trkpt lat="38.16705253857274" lon="15.83542098052065"><ele>1320.0</ele><time>2026-04-25T10:25:51.001Z</time></trkpt><trkpt lat="38.167096562002165" lon="15.835553394428343"><ele>1320.0</ele><time>2026-04-25T10:25:52.001Z</time></trkpt><trkpt lat="38.16713080865821" lon="15.835665466576023"><ele>1320.0</ele><time>2026-04-25T10:25:53.001Z</time></trkpt><trkpt lat="38.167162916723875" lon="15.835769031445954"><ele>1320.0</ele><time>2026-04-25T10:25:54.001Z</time></trkpt><trkpt lat="38.16721466757333" lon="15.835844741571796"><ele>1320.0000000000002</ele><time>2026-04-25T10:25:55.001Z</time></trkpt><trkpt lat="38.167215988512" lon="15.835942038861392"><ele>1320.0</ele><time>2026-04-25T10:25:56.001Z</time></trkpt><trkpt lat="38.16721462600643" lon="15.836022239708743"><ele>1320.0</ele><time>2026-04-25T10:25:57.001Z</time></trkpt><trkpt lat="38.16721417177694" lon="15.836114262924802"><ele>1320.0</ele><time>2026-04-25T10:25:59.001Z</time></trkpt><trkpt lat="38.16714403079533" lon="15.83616376001419"><ele>1320.0</ele><time>2026-04-25T10:26:02.001Z</time></trkpt><trkpt lat="38.16709172242418" lon="15.836217928771898"><ele>1320.0000000000002</ele><time>2026-04-25T10:26:05.001Z</time></trkpt><trkpt lat="38.16702546955086" lon="15.83627109317291"><ele>1320.0</ele><time>2026-04-25T10:26:10.001Z</time></trkpt><trkpt lat="38.16696134439318" lon="15.83633877616535"><ele>1320.1666666666667</ele><time>2026-04-25T10:26:14.001Z</time></trkpt><trkpt lat="38.166899462089326" lon="15.83638777751907"><ele>1320.3333333333333</ele><time>2026-04-25T10:26:16.001Z</time></trkpt><trkpt lat="38.166839096989236" lon="15.836431346649107"><ele>1320.5</ele><time>2026-04-25T10:26:18.001Z</time></trkpt><trkpt lat="38.16678206544906" lon="15.836486241229418"><ele>1320.6666666666665</ele><time>2026-04-25T10:26:20.001Z</time></trkpt><trkpt lat="38.16674643195231" lon="15.836555010555095"><ele>1320.8333333333333</ele><time>2026-04-25T10:26:23.001Z</time></trkpt><trkpt lat="38.16668636369039" lon="15.836610622054268"><ele>1321.0</ele><time>2026-04-25T10:26:24.001Z</time></trkpt><trkpt lat="38.16656318172419" lon="15.836699927437024"><ele>1322.3333333333333</ele><time>2026-04-25T10:26:27.001Z</time></trkpt><trkpt lat="38.16651049291732" lon="15.836747347222444"><ele>1323.6666666666665</ele><time>2026-04-25T10:26:28.001Z</time></trkpt><trkpt lat="38.16645636158674" lon="15.836799408033057"><ele>1325.0</ele><time>2026-04-25T10:26:29.001Z</time></trkpt><trkpt lat="38.16640094742416" lon="15.836850438420297"><ele>1326.3333333333333</ele><time>2026-04-25T10:26:30.001Z</time></trkpt><trkpt lat="38.166345622364204" lon="15.83690079115375"><ele>1327.6666666666667</ele><time>2026-04-25T10:26:31.001Z</time></trkpt><trkpt lat="38.16629488077701" lon="15.836953384846208"><ele>1329.0</ele><time>2026-04-25T10:26:32.001Z</time></trkpt><trkpt lat="38.16619235620942" lon="15.8370609953555"><ele>1329.1666666666667</ele><time>2026-04-25T10:26:34.001Z</time></trkpt><trkpt lat="38.16613343000567" lon="15.837126047802036"><ele>1329.3333333333333</ele><time>2026-04-25T10:26:35.001Z</time></trkpt><trkpt lat="38.16607285603122" lon="15.837196462000946"><ele>1329.5</ele><time>2026-04-25T10:26:36.001Z</time></trkpt><trkpt lat="38.16602114285324" lon="15.837291226859616"><ele>1329.6666666666665</ele><time>2026-04-25T10:26:37.001Z</time></trkpt><trkpt lat="38.165960984260195" lon="15.837380596629691"><ele>1329.8333333333333</ele><time>2026-04-25T10:26:38.001Z</time></trkpt><trkpt lat="38.16590417343756" lon="15.837460039775818"><ele>1330.0</ele><time>2026-04-25T10:26:39Z</time></trkpt><trkpt lat="38.16584030850643" lon="15.83754958298159"><ele>1331.3333333333333</ele><time>2026-04-25T10:26:40Z</time></trkpt><trkpt lat="38.16577757546262" lon="15.837641933551787"><ele>1332.6666666666665</ele><time>2026-04-25T10:26:41Z</time></trkpt><trkpt lat="38.16570790485461" lon="15.837736204069753"><ele>1334.0</ele><time>2026-04-25T10:26:42Z</time></trkpt><trkpt lat="38.1656560360352" lon="15.837821084256094"><ele>1335.3333333333333</ele><time>2026-04-25T10:26:43Z</time></trkpt><trkpt lat="38.16559740026195" lon="15.83789031262081"><ele>1336.6666666666667</ele><time>2026-04-25T10:26:44Z</time></trkpt><trkpt lat="38.165549729397846" lon="15.837974452628323"><ele>1338.0</ele><time>2026-04-25T10:26:45Z</time></trkpt><trkpt lat="38.16550097852944" lon="15.83805649275852"><ele>1339.4</ele><time>2026-04-25T10:26:46Z</time></trkpt><trkpt lat="38.16540253246537" lon="15.838185625416385"><ele>1340.8000000000002</ele><time>2026-04-25T10:26:48Z</time></trkpt><trkpt lat="38.16534254648311" lon="15.83828958944236"><ele>1342.2</ele><time>2026-04-25T10:26:49Z</time></trkpt><trkpt lat="38.16527559992971" lon="15.838363985446644"><ele>1343.6</ele><time>2026-04-25T10:26:50Z</time></trkpt><trkpt lat="38.16522678925346" lon="15.83846576094125"><ele>1345.0</ele><time>2026-04-25T10:26:51Z</time></trkpt><trkpt lat="38.16516388848172" lon="15.838564015199804"><ele>1346.5</ele><time>2026-04-25T10:26:52Z</time></trkpt><trkpt lat="38.16505258244618" lon="15.838695217930455"><ele>1348.0</ele><time>2026-04-25T10:26:54Z</time></trkpt><trkpt lat="38.16502092127932" lon="15.838764475962437"><ele>1349.5</ele><time>2026-04-25T10:26:55Z</time></trkpt><trkpt lat="38.164932320991035" lon="15.838878531282052"><ele>1351.0</ele><time>2026-04-25T10:26:57Z</time></trkpt><trkpt lat="38.16485884610371" lon="15.838987018384548"><ele>1353.25</ele><time>2026-04-25T10:26:58Z</time></trkpt><trkpt lat="38.16477917398722" lon="15.839104655604492"><ele>1355.5</ele><time>2026-04-25T10:26:59Z</time></trkpt><trkpt lat="38.16470500609381" lon="15.839245854284052"><ele>1357.75</ele><time>2026-04-25T10:27:00Z</time></trkpt><trkpt lat="38.16461410556201" lon="15.83935092728316"><ele>1360.0</ele><time>2026-04-25T10:27:01Z</time></trkpt><trkpt lat="38.16451839398563" lon="15.83948906108595"><ele>1360.0</ele><time>2026-04-25T10:27:02Z</time></trkpt><trkpt lat="38.16442973271474" lon="15.839607646634267"><ele>1360.0</ele><time>2026-04-25T10:27:03Z</time></trkpt><trkpt lat="38.16436628095722" lon="15.839716186547843"><ele>1360.0</ele><time>2026-04-25T10:27:04Z</time></trkpt><trkpt lat="38.164317576958474" lon="15.839827042883206"><ele>1360.0</ele><time>2026-04-25T10:27:05Z</time></trkpt><trkpt lat="38.16425726832513" lon="15.839955086332862"><ele>1360.0</ele><time>2026-04-25T10:27:06Z</time></trkpt><trkpt lat="38.16419660181901" lon="15.840071252231676"><ele>1360.0</ele><time>2026-04-25T10:27:07Z</time></trkpt><trkpt lat="38.16415255460519" lon="15.840155318550933"><ele>1360.0</ele><time>2026-04-25T10:27:08Z</time></trkpt><trkpt lat="38.16411009850129" lon="15.840238309688727"><ele>1360.0</ele><time>2026-04-25T10:27:09Z</time></trkpt><trkpt lat="38.164070983209896" lon="15.840315759025685"><ele>1360.0</ele><time>2026-04-25T10:27:10Z</time></trkpt><trkpt lat="38.16402407950525" lon="15.840408629704664"><ele>1360.0</ele><time>2026-04-25T10:27:11Z</time></trkpt><trkpt lat="38.163978369681246" lon="15.840497336146663"><ele>1361.3333333333333</ele><time>2026-04-25T10:27:12Z</time></trkpt><trkpt lat="38.16393100189359" lon="15.840586636073159"><ele>1362.6666666666665</ele><time>2026-04-25T10:27:13Z</time></trkpt><trkpt lat="38.163887243664384" lon="15.840673125214204"><ele>1364.0</ele><time>2026-04-25T10:27:14Z</time></trkpt><trkpt lat="38.16382978092569" lon="15.840715237541785"><ele>1365.3333333333333</ele><time>2026-04-25T10:27:16Z</time></trkpt><trkpt lat="38.16390126167768" lon="15.84064442648437"><ele>1366.6666666666667</ele><time>2026-04-25T10:27:41.001Z</time></trkpt><trkpt lat="38.163933703266935" lon="15.840716909592137"><ele>1368.0</ele><time>2026-04-25T10:27:43.001Z</time></trkpt><trkpt lat="38.16403626357939" lon="15.840480306030255"><ele>1368.0</ele><time>2026-04-25T10:27:45.001Z</time></trkpt><trkpt lat="38.16406587754136" lon="15.84034762272247"><ele>1368.0</ele><time>2026-04-25T10:27:47.001Z</time></trkpt><trkpt lat="38.16411377784881" lon="15.840283234575294"><ele>1368.0</ele><time>2026-04-25T10:27:48.001Z</time></trkpt><trkpt lat="38.164170619377096" lon="15.840174907346777"><ele>1368.0</ele><time>2026-04-25T10:27:50.001Z</time></trkpt><trkpt lat="38.164279277301354" lon="15.840196821205899"><ele>1368.0</ele><time>2026-04-25T10:27:54.001Z</time></trkpt><trkpt lat="38.16437997956674" lon="15.840155754826252"><ele>1366.6666666666667</ele><time>2026-04-25T10:27:56.001Z</time></trkpt><trkpt lat="38.164483752955014" lon="15.840094406137219"><ele>1365.3333333333333</ele><time>2026-04-25T10:27:58.001Z</time></trkpt><trkpt lat="38.16455950369105" lon="15.840060826679515"><ele>1364.0</ele><time>2026-04-25T10:28:00.001Z</time></trkpt><trkpt lat="38.164614682131656" lon="15.83999812259088"><ele>1362.6666666666665</ele><time>2026-04-25T10:28:02.001Z</time></trkpt><trkpt lat="38.16466873315753" lon="15.839939984114947"><ele>1361.3333333333333</ele><time>2026-04-25T10:28:04.001Z</time></trkpt><trkpt lat="38.164725512488275" lon="15.839903857378603"><ele>1360.0</ele><time>2026-04-25T10:28:15.001Z</time></trkpt><trkpt lat="38.16476351191267" lon="15.839800721295996"><ele>1360.0</ele><time>2026-04-25T10:28:17.001Z</time></trkpt><trkpt lat="38.16482426735862" lon="15.839771889914758"><ele>1360.0</ele><time>2026-04-25T10:28:21.001Z</time></trkpt><trkpt lat="38.16475935585257" lon="15.839862590100164"><ele>1360.0</ele><time>2026-04-25T10:28:26.001Z</time></trkpt><trkpt lat="38.16474995937971" lon="15.839944945763463"><ele>1360.0</ele><time>2026-04-25T10:28:27.001Z</time></trkpt><trkpt lat="38.16473451615754" lon="15.84002734043594"><ele>1360.0</ele><time>2026-04-25T10:28:29.001Z</time></trkpt><trkpt lat="38.16471381683823" lon="15.84014565206474"><ele>1360.0</ele><time>2026-04-25T10:28:31.001Z</time></trkpt><trkpt lat="38.16472350886135" lon="15.840261421486234"><ele>1368.0</ele><time>2026-04-25T10:28:33.001Z</time></trkpt><trkpt lat="38.164684819103435" lon="15.840351510166405"><ele>1368.0</ele><time>2026-04-25T10:28:35.001Z</time></trkpt><trkpt lat="38.16464359159627" lon="15.840413379477404"><ele>1368.0</ele><time>2026-04-25T10:30:40.001Z</time></trkpt></trkseg></trk></gpx>